<?xml version="1.0" encoding="UTF-8" standalone="no" ?>
<gpx xmlns="http://www.topografix.com/GPX/1/1" xmlns:xsi="http://www.w3.org/2001/XMLSchema-instance" xsi:schemaLocation="http://www.topografix.com/GPX/1/1 http://www.topografix.com/GPX/1/1/gpx.xsd" version="1.1" creator="VisuGPX - https://www.visugpx.com">
  <metadata>
    <name>Sortie en VTT électrique le matin</name>
  </metadata>
  <trk>
    <name><![CDATA[Sortie en VTT électrique le matin_1]]></name>
    <trkseg>
      <trkpt lat="44.15058" lon="1.74217">
        <ele>126.4</ele>
        <time>2023-03-05T07:20:43Z</time>
      </trkpt>
      <trkpt lat="44.15057" lon="1.74213">
        <ele>135.6</ele>
        <time>2023-03-05T07:20:44Z</time>
      </trkpt>
      <trkpt lat="44.15056" lon="1.74207">
        <ele>135.6</ele>
        <time>2023-03-05T07:20:45Z</time>
      </trkpt>
      <trkpt lat="44.15054" lon="1.742">
        <ele>135</ele>
        <time>2023-03-05T07:20:46Z</time>
      </trkpt>
      <trkpt lat="44.15053" lon="1.74194">
        <ele>135.2</ele>
        <time>2023-03-05T07:20:47Z</time>
      </trkpt>
      <trkpt lat="44.15053" lon="1.74188">
        <ele>135.2</ele>
        <time>2023-03-05T07:20:48Z</time>
      </trkpt>
      <trkpt lat="44.15052" lon="1.74183">
        <ele>135.2</ele>
        <time>2023-03-05T07:20:49Z</time>
      </trkpt>
      <trkpt lat="44.1505" lon="1.74175">
        <ele>135.8</ele>
        <time>2023-03-05T07:20:50Z</time>
      </trkpt>
      <trkpt lat="44.15049" lon="1.74169">
        <ele>136</ele>
        <time>2023-03-05T07:20:51Z</time>
      </trkpt>
      <trkpt lat="44.15047" lon="1.74163">
        <ele>135.4</ele>
        <time>2023-03-05T07:20:52Z</time>
      </trkpt>
      <trkpt lat="44.15047" lon="1.74157">
        <ele>135</ele>
        <time>2023-03-05T07:20:53Z</time>
      </trkpt>
      <trkpt lat="44.15047" lon="1.74152">
        <ele>134.6</ele>
        <time>2023-03-05T07:20:54Z</time>
      </trkpt>
      <trkpt lat="44.15045" lon="1.74146">
        <ele>134.8</ele>
        <time>2023-03-05T07:20:55Z</time>
      </trkpt>
      <trkpt lat="44.15044" lon="1.74138">
        <ele>135</ele>
        <time>2023-03-05T07:20:56Z</time>
      </trkpt>
      <trkpt lat="44.15042" lon="1.7413">
        <ele>134.8</ele>
        <time>2023-03-05T07:20:57Z</time>
      </trkpt>
      <trkpt lat="44.15041" lon="1.74124">
        <ele>134.8</ele>
        <time>2023-03-05T07:20:58Z</time>
      </trkpt>
      <trkpt lat="44.15039" lon="1.74117">
        <ele>134.8</ele>
        <time>2023-03-05T07:20:59Z</time>
      </trkpt>
      <trkpt lat="44.15038" lon="1.74108">
        <ele>134.8</ele>
        <time>2023-03-05T07:21:00Z</time>
      </trkpt>
      <trkpt lat="44.15036" lon="1.741">
        <ele>134.6</ele>
        <time>2023-03-05T07:21:01Z</time>
      </trkpt>
      <trkpt lat="44.15035" lon="1.74093">
        <ele>134.6</ele>
        <time>2023-03-05T07:21:02Z</time>
      </trkpt>
      <trkpt lat="44.15035" lon="1.74087">
        <ele>134.6</ele>
        <time>2023-03-05T07:21:03Z</time>
      </trkpt>
      <trkpt lat="44.15034" lon="1.7408">
        <ele>134.6</ele>
        <time>2023-03-05T07:21:04Z</time>
      </trkpt>
      <trkpt lat="44.15033" lon="1.74071">
        <ele>134.6</ele>
        <time>2023-03-05T07:21:05Z</time>
      </trkpt>
      <trkpt lat="44.15031" lon="1.74064">
        <ele>134.6</ele>
        <time>2023-03-05T07:21:06Z</time>
      </trkpt>
      <trkpt lat="44.15031" lon="1.74058">
        <ele>134.6</ele>
        <time>2023-03-05T07:21:07Z</time>
      </trkpt>
      <trkpt lat="44.1503" lon="1.74051">
        <ele>134.6</ele>
        <time>2023-03-05T07:21:08Z</time>
      </trkpt>
      <trkpt lat="44.15028" lon="1.74043">
        <ele>134.6</ele>
        <time>2023-03-05T07:21:09Z</time>
      </trkpt>
      <trkpt lat="44.15027" lon="1.74037">
        <ele>134.6</ele>
        <time>2023-03-05T07:21:10Z</time>
      </trkpt>
      <trkpt lat="44.15025" lon="1.74028">
        <ele>134.6</ele>
        <time>2023-03-05T07:21:11Z</time>
      </trkpt>
      <trkpt lat="44.15023" lon="1.74022">
        <ele>134.6</ele>
        <time>2023-03-05T07:21:12Z</time>
      </trkpt>
      <trkpt lat="44.15022" lon="1.74014">
        <ele>134.6</ele>
        <time>2023-03-05T07:21:13Z</time>
      </trkpt>
      <trkpt lat="44.1502" lon="1.74006">
        <ele>134.6</ele>
        <time>2023-03-05T07:21:14Z</time>
      </trkpt>
      <trkpt lat="44.15019" lon="1.73999">
        <ele>134.6</ele>
        <time>2023-03-05T07:21:15Z</time>
      </trkpt>
      <trkpt lat="44.15018" lon="1.73992">
        <ele>134.6</ele>
        <time>2023-03-05T07:21:16Z</time>
      </trkpt>
      <trkpt lat="44.15017" lon="1.73985">
        <ele>134.6</ele>
        <time>2023-03-05T07:21:17Z</time>
      </trkpt>
      <trkpt lat="44.15015" lon="1.73977">
        <ele>134.6</ele>
        <time>2023-03-05T07:21:18Z</time>
      </trkpt>
      <trkpt lat="44.15015" lon="1.73972">
        <ele>134.6</ele>
        <time>2023-03-05T07:21:19Z</time>
      </trkpt>
      <trkpt lat="44.15014" lon="1.73963">
        <ele>134.6</ele>
        <time>2023-03-05T07:21:20Z</time>
      </trkpt>
      <trkpt lat="44.15013" lon="1.73957">
        <ele>134.6</ele>
        <time>2023-03-05T07:21:21Z</time>
      </trkpt>
      <trkpt lat="44.15011" lon="1.7395">
        <ele>134.6</ele>
        <time>2023-03-05T07:21:22Z</time>
      </trkpt>
      <trkpt lat="44.1501" lon="1.73942">
        <ele>134.6</ele>
        <time>2023-03-05T07:21:23Z</time>
      </trkpt>
      <trkpt lat="44.15009" lon="1.73936">
        <ele>134.6</ele>
        <time>2023-03-05T07:21:24Z</time>
      </trkpt>
      <trkpt lat="44.15008" lon="1.73929">
        <ele>134.6</ele>
        <time>2023-03-05T07:21:25Z</time>
      </trkpt>
      <trkpt lat="44.15006" lon="1.73921">
        <ele>134.6</ele>
        <time>2023-03-05T07:21:26Z</time>
      </trkpt>
      <trkpt lat="44.15005" lon="1.73914">
        <ele>134.6</ele>
        <time>2023-03-05T07:21:27Z</time>
      </trkpt>
      <trkpt lat="44.15003" lon="1.73906">
        <ele>134.6</ele>
        <time>2023-03-05T07:21:28Z</time>
      </trkpt>
      <trkpt lat="44.15002" lon="1.739">
        <ele>134.6</ele>
        <time>2023-03-05T07:21:29Z</time>
      </trkpt>
      <trkpt lat="44.15001" lon="1.73894">
        <ele>134.6</ele>
        <time>2023-03-05T07:21:30Z</time>
      </trkpt>
      <trkpt lat="44.14999" lon="1.73887">
        <ele>134.6</ele>
        <time>2023-03-05T07:21:31Z</time>
      </trkpt>
      <trkpt lat="44.14998" lon="1.7388">
        <ele>134.6</ele>
        <time>2023-03-05T07:21:32Z</time>
      </trkpt>
      <trkpt lat="44.14996" lon="1.73872">
        <ele>134.6</ele>
        <time>2023-03-05T07:21:33Z</time>
      </trkpt>
      <trkpt lat="44.14994" lon="1.73865">
        <ele>134.6</ele>
        <time>2023-03-05T07:21:34Z</time>
      </trkpt>
      <trkpt lat="44.14993" lon="1.73859">
        <ele>134.8</ele>
        <time>2023-03-05T07:21:35Z</time>
      </trkpt>
      <trkpt lat="44.14992" lon="1.73852">
        <ele>134.8</ele>
        <time>2023-03-05T07:21:36Z</time>
      </trkpt>
      <trkpt lat="44.1499" lon="1.73844">
        <ele>135</ele>
        <time>2023-03-05T07:21:37Z</time>
      </trkpt>
      <trkpt lat="44.1499" lon="1.73839">
        <ele>135</ele>
        <time>2023-03-05T07:21:38Z</time>
      </trkpt>
      <trkpt lat="44.14989" lon="1.7383">
        <ele>135</ele>
        <time>2023-03-05T07:21:39Z</time>
      </trkpt>
      <trkpt lat="44.14988" lon="1.73825">
        <ele>135</ele>
        <time>2023-03-05T07:21:40Z</time>
      </trkpt>
      <trkpt lat="44.14987" lon="1.73818">
        <ele>134.8</ele>
        <time>2023-03-05T07:21:41Z</time>
      </trkpt>
      <trkpt lat="44.14986" lon="1.7381">
        <ele>134.8</ele>
        <time>2023-03-05T07:21:42Z</time>
      </trkpt>
      <trkpt lat="44.14985" lon="1.73804">
        <ele>134.8</ele>
        <time>2023-03-05T07:21:43Z</time>
      </trkpt>
      <trkpt lat="44.14985" lon="1.73798">
        <ele>134.8</ele>
        <time>2023-03-05T07:21:44Z</time>
      </trkpt>
      <trkpt lat="44.14983" lon="1.73791">
        <ele>134.6</ele>
        <time>2023-03-05T07:21:45Z</time>
      </trkpt>
      <trkpt lat="44.14983" lon="1.73784">
        <ele>134.6</ele>
        <time>2023-03-05T07:21:46Z</time>
      </trkpt>
      <trkpt lat="44.14982" lon="1.73779">
        <ele>134.4</ele>
        <time>2023-03-05T07:21:47Z</time>
      </trkpt>
      <trkpt lat="44.1498" lon="1.73773">
        <ele>134.4</ele>
        <time>2023-03-05T07:21:48Z</time>
      </trkpt>
      <trkpt lat="44.14979" lon="1.73766">
        <ele>134.4</ele>
        <time>2023-03-05T07:21:49Z</time>
      </trkpt>
      <trkpt lat="44.14977" lon="1.7376">
        <ele>134.6</ele>
        <time>2023-03-05T07:21:50Z</time>
      </trkpt>
      <trkpt lat="44.14975" lon="1.73753">
        <ele>134.6</ele>
        <time>2023-03-05T07:21:51Z</time>
      </trkpt>
      <trkpt lat="44.14974" lon="1.73746">
        <ele>134.6</ele>
        <time>2023-03-05T07:21:52Z</time>
      </trkpt>
      <trkpt lat="44.14973" lon="1.7374">
        <ele>134.6</ele>
        <time>2023-03-05T07:21:53Z</time>
      </trkpt>
      <trkpt lat="44.14972" lon="1.73735">
        <ele>134.8</ele>
        <time>2023-03-05T07:21:54Z</time>
      </trkpt>
      <trkpt lat="44.14971" lon="1.73729">
        <ele>134.8</ele>
        <time>2023-03-05T07:21:55Z</time>
      </trkpt>
      <trkpt lat="44.14969" lon="1.73723">
        <ele>135</ele>
        <time>2023-03-05T07:21:56Z</time>
      </trkpt>
      <trkpt lat="44.14968" lon="1.73716">
        <ele>135</ele>
        <time>2023-03-05T07:21:57Z</time>
      </trkpt>
      <trkpt lat="44.14967" lon="1.7371">
        <ele>135.2</ele>
        <time>2023-03-05T07:21:58Z</time>
      </trkpt>
      <trkpt lat="44.14966" lon="1.73705">
        <ele>135.4</ele>
        <time>2023-03-05T07:21:59Z</time>
      </trkpt>
      <trkpt lat="44.14965" lon="1.73699">
        <ele>135.4</ele>
        <time>2023-03-05T07:22:00Z</time>
      </trkpt>
      <trkpt lat="44.14964" lon="1.73693">
        <ele>135.6</ele>
        <time>2023-03-05T07:22:01Z</time>
      </trkpt>
      <trkpt lat="44.14962" lon="1.73688">
        <ele>135.8</ele>
        <time>2023-03-05T07:22:02Z</time>
      </trkpt>
      <trkpt lat="44.14962" lon="1.73684">
        <ele>136.2</ele>
        <time>2023-03-05T07:22:03Z</time>
      </trkpt>
      <trkpt lat="44.14961" lon="1.73679">
        <ele>136.6</ele>
        <time>2023-03-05T07:22:04Z</time>
      </trkpt>
      <trkpt lat="44.14959" lon="1.73674">
        <ele>136.6</ele>
        <time>2023-03-05T07:22:05Z</time>
      </trkpt>
      <trkpt lat="44.14958" lon="1.73669">
        <ele>137</ele>
        <time>2023-03-05T07:22:06Z</time>
      </trkpt>
      <trkpt lat="44.14958" lon="1.73664">
        <ele>137.4</ele>
        <time>2023-03-05T07:22:07Z</time>
      </trkpt>
      <trkpt lat="44.14957" lon="1.7366">
        <ele>137.6</ele>
        <time>2023-03-05T07:22:08Z</time>
      </trkpt>
      <trkpt lat="44.14955" lon="1.73655">
        <ele>137.8</ele>
        <time>2023-03-05T07:22:09Z</time>
      </trkpt>
      <trkpt lat="44.14954" lon="1.7365">
        <ele>138</ele>
        <time>2023-03-05T07:22:10Z</time>
      </trkpt>
      <trkpt lat="44.14953" lon="1.73646">
        <ele>138.4</ele>
        <time>2023-03-05T07:22:11Z</time>
      </trkpt>
      <trkpt lat="44.14952" lon="1.73643">
        <ele>138.6</ele>
        <time>2023-03-05T07:22:12Z</time>
      </trkpt>
      <trkpt lat="44.14951" lon="1.73638">
        <ele>139.2</ele>
        <time>2023-03-05T07:22:13Z</time>
      </trkpt>
      <trkpt lat="44.1495" lon="1.73634">
        <ele>139.4</ele>
        <time>2023-03-05T07:22:14Z</time>
      </trkpt>
      <trkpt lat="44.14949" lon="1.7363">
        <ele>139.8</ele>
        <time>2023-03-05T07:22:15Z</time>
      </trkpt>
      <trkpt lat="44.14947" lon="1.73626">
        <ele>139.8</ele>
        <time>2023-03-05T07:22:16Z</time>
      </trkpt>
      <trkpt lat="44.14946" lon="1.73622">
        <ele>140</ele>
        <time>2023-03-05T07:22:17Z</time>
      </trkpt>
      <trkpt lat="44.14945" lon="1.73618">
        <ele>140.2</ele>
        <time>2023-03-05T07:22:18Z</time>
      </trkpt>
      <trkpt lat="44.14944" lon="1.73613">
        <ele>141</ele>
        <time>2023-03-05T07:22:19Z</time>
      </trkpt>
      <trkpt lat="44.14943" lon="1.73609">
        <ele>141.2</ele>
        <time>2023-03-05T07:22:20Z</time>
      </trkpt>
      <trkpt lat="44.14942" lon="1.73606">
        <ele>141.6</ele>
        <time>2023-03-05T07:22:21Z</time>
      </trkpt>
      <trkpt lat="44.14941" lon="1.73602">
        <ele>141.8</ele>
        <time>2023-03-05T07:22:22Z</time>
      </trkpt>
      <trkpt lat="44.1494" lon="1.73598">
        <ele>142.4</ele>
        <time>2023-03-05T07:22:23Z</time>
      </trkpt>
      <trkpt lat="44.14939" lon="1.73594">
        <ele>142.6</ele>
        <time>2023-03-05T07:22:24Z</time>
      </trkpt>
      <trkpt lat="44.14937" lon="1.7359">
        <ele>143</ele>
        <time>2023-03-05T07:22:25Z</time>
      </trkpt>
      <trkpt lat="44.14936" lon="1.73587">
        <ele>143.6</ele>
        <time>2023-03-05T07:22:26Z</time>
      </trkpt>
      <trkpt lat="44.14935" lon="1.73583">
        <ele>143.8</ele>
        <time>2023-03-05T07:22:27Z</time>
      </trkpt>
      <trkpt lat="44.14934" lon="1.73579">
        <ele>144.2</ele>
        <time>2023-03-05T07:22:28Z</time>
      </trkpt>
      <trkpt lat="44.14933" lon="1.73574">
        <ele>144.4</ele>
        <time>2023-03-05T07:22:29Z</time>
      </trkpt>
      <trkpt lat="44.14931" lon="1.7357">
        <ele>145</ele>
        <time>2023-03-05T07:22:30Z</time>
      </trkpt>
      <trkpt lat="44.1493" lon="1.73567">
        <ele>145.2</ele>
        <time>2023-03-05T07:22:31Z</time>
      </trkpt>
      <trkpt lat="44.14929" lon="1.73563">
        <ele>145.8</ele>
        <time>2023-03-05T07:22:32Z</time>
      </trkpt>
      <trkpt lat="44.14928" lon="1.7356">
        <ele>145.8</ele>
        <time>2023-03-05T07:22:33Z</time>
      </trkpt>
      <trkpt lat="44.14927" lon="1.73556">
        <ele>146.2</ele>
        <time>2023-03-05T07:22:34Z</time>
      </trkpt>
      <trkpt lat="44.14926" lon="1.73551">
        <ele>146.4</ele>
        <time>2023-03-05T07:22:35Z</time>
      </trkpt>
      <trkpt lat="44.14925" lon="1.73548">
        <ele>146.8</ele>
        <time>2023-03-05T07:22:36Z</time>
      </trkpt>
      <trkpt lat="44.14924" lon="1.73543">
        <ele>147.2</ele>
        <time>2023-03-05T07:22:37Z</time>
      </trkpt>
      <trkpt lat="44.14923" lon="1.73538">
        <ele>147.6</ele>
        <time>2023-03-05T07:22:38Z</time>
      </trkpt>
      <trkpt lat="44.14923" lon="1.73535">
        <ele>148</ele>
        <time>2023-03-05T07:22:39Z</time>
      </trkpt>
      <trkpt lat="44.14922" lon="1.73531">
        <ele>148.4</ele>
        <time>2023-03-05T07:22:40Z</time>
      </trkpt>
      <trkpt lat="44.14922" lon="1.73527">
        <ele>148.4</ele>
        <time>2023-03-05T07:22:41Z</time>
      </trkpt>
      <trkpt lat="44.14922" lon="1.73523">
        <ele>149</ele>
        <time>2023-03-05T07:22:42Z</time>
      </trkpt>
      <trkpt lat="44.14921" lon="1.73518">
        <ele>149.2</ele>
        <time>2023-03-05T07:22:43Z</time>
      </trkpt>
      <trkpt lat="44.14921" lon="1.73515">
        <ele>149.4</ele>
        <time>2023-03-05T07:22:44Z</time>
      </trkpt>
      <trkpt lat="44.14922" lon="1.73512">
        <ele>150</ele>
        <time>2023-03-05T07:22:45Z</time>
      </trkpt>
      <trkpt lat="44.14922" lon="1.73508">
        <ele>150.2</ele>
        <time>2023-03-05T07:22:46Z</time>
      </trkpt>
      <trkpt lat="44.14922" lon="1.73503">
        <ele>150.6</ele>
        <time>2023-03-05T07:22:47Z</time>
      </trkpt>
      <trkpt lat="44.14922" lon="1.735">
        <ele>150.8</ele>
        <time>2023-03-05T07:22:48Z</time>
      </trkpt>
      <trkpt lat="44.14922" lon="1.73496">
        <ele>151.2</ele>
        <time>2023-03-05T07:22:49Z</time>
      </trkpt>
      <trkpt lat="44.14923" lon="1.73493">
        <ele>151.4</ele>
        <time>2023-03-05T07:22:50Z</time>
      </trkpt>
      <trkpt lat="44.14923" lon="1.73489">
        <ele>151.8</ele>
        <time>2023-03-05T07:22:51Z</time>
      </trkpt>
      <trkpt lat="44.14924" lon="1.73485">
        <ele>152</ele>
        <time>2023-03-05T07:22:52Z</time>
      </trkpt>
      <trkpt lat="44.14924" lon="1.73481">
        <ele>152.6</ele>
        <time>2023-03-05T07:22:53Z</time>
      </trkpt>
      <trkpt lat="44.14925" lon="1.73478">
        <ele>152.8</ele>
        <time>2023-03-05T07:22:54Z</time>
      </trkpt>
      <trkpt lat="44.14926" lon="1.73474">
        <ele>153.4</ele>
        <time>2023-03-05T07:22:55Z</time>
      </trkpt>
      <trkpt lat="44.14927" lon="1.7347">
        <ele>153.6</ele>
        <time>2023-03-05T07:22:56Z</time>
      </trkpt>
      <trkpt lat="44.14928" lon="1.73466">
        <ele>154.2</ele>
        <time>2023-03-05T07:22:57Z</time>
      </trkpt>
      <trkpt lat="44.14928" lon="1.73463">
        <ele>154.4</ele>
        <time>2023-03-05T07:22:58Z</time>
      </trkpt>
      <trkpt lat="44.14928" lon="1.73459">
        <ele>154.8</ele>
        <time>2023-03-05T07:22:59Z</time>
      </trkpt>
      <trkpt lat="44.14929" lon="1.73454">
        <ele>155.2</ele>
        <time>2023-03-05T07:23:00Z</time>
      </trkpt>
      <trkpt lat="44.1493" lon="1.73451">
        <ele>155.6</ele>
        <time>2023-03-05T07:23:01Z</time>
      </trkpt>
      <trkpt lat="44.1493" lon="1.73448">
        <ele>155.8</ele>
        <time>2023-03-05T07:23:02Z</time>
      </trkpt>
      <trkpt lat="44.14931" lon="1.73444">
        <ele>156.2</ele>
        <time>2023-03-05T07:23:03Z</time>
      </trkpt>
      <trkpt lat="44.14932" lon="1.7344">
        <ele>156.8</ele>
        <time>2023-03-05T07:23:04Z</time>
      </trkpt>
      <trkpt lat="44.14932" lon="1.73436">
        <ele>157</ele>
        <time>2023-03-05T07:23:05Z</time>
      </trkpt>
      <trkpt lat="44.14933" lon="1.73433">
        <ele>157.4</ele>
        <time>2023-03-05T07:23:06Z</time>
      </trkpt>
      <trkpt lat="44.14934" lon="1.73429">
        <ele>157.6</ele>
        <time>2023-03-05T07:23:07Z</time>
      </trkpt>
      <trkpt lat="44.14934" lon="1.73425">
        <ele>158</ele>
        <time>2023-03-05T07:23:08Z</time>
      </trkpt>
      <trkpt lat="44.14935" lon="1.73421">
        <ele>158.2</ele>
        <time>2023-03-05T07:23:09Z</time>
      </trkpt>
      <trkpt lat="44.14936" lon="1.73417">
        <ele>158.6</ele>
        <time>2023-03-05T07:23:10Z</time>
      </trkpt>
      <trkpt lat="44.14937" lon="1.73412">
        <ele>158.8</ele>
        <time>2023-03-05T07:23:11Z</time>
      </trkpt>
      <trkpt lat="44.14938" lon="1.73409">
        <ele>159.2</ele>
        <time>2023-03-05T07:23:12Z</time>
      </trkpt>
      <trkpt lat="44.14939" lon="1.73406">
        <ele>159.6</ele>
        <time>2023-03-05T07:23:13Z</time>
      </trkpt>
      <trkpt lat="44.1494" lon="1.73402">
        <ele>160</ele>
        <time>2023-03-05T07:23:14Z</time>
      </trkpt>
      <trkpt lat="44.14941" lon="1.73399">
        <ele>160.2</ele>
        <time>2023-03-05T07:23:15Z</time>
      </trkpt>
      <trkpt lat="44.14942" lon="1.73395">
        <ele>160.6</ele>
        <time>2023-03-05T07:23:16Z</time>
      </trkpt>
      <trkpt lat="44.14943" lon="1.73392">
        <ele>160.8</ele>
        <time>2023-03-05T07:23:17Z</time>
      </trkpt>
      <trkpt lat="44.14945" lon="1.73389">
        <ele>161.2</ele>
        <time>2023-03-05T07:23:18Z</time>
      </trkpt>
      <trkpt lat="44.14946" lon="1.73385">
        <ele>161.4</ele>
        <time>2023-03-05T07:23:19Z</time>
      </trkpt>
      <trkpt lat="44.14947" lon="1.73381">
        <ele>161.8</ele>
        <time>2023-03-05T07:23:20Z</time>
      </trkpt>
      <trkpt lat="44.14948" lon="1.73378">
        <ele>162</ele>
        <time>2023-03-05T07:23:21Z</time>
      </trkpt>
      <trkpt lat="44.14949" lon="1.73374">
        <ele>162.4</ele>
        <time>2023-03-05T07:23:22Z</time>
      </trkpt>
      <trkpt lat="44.1495" lon="1.73371">
        <ele>162.6</ele>
        <time>2023-03-05T07:23:23Z</time>
      </trkpt>
      <trkpt lat="44.14952" lon="1.73367">
        <ele>163</ele>
        <time>2023-03-05T07:23:24Z</time>
      </trkpt>
      <trkpt lat="44.14953" lon="1.73364">
        <ele>163.2</ele>
        <time>2023-03-05T07:23:25Z</time>
      </trkpt>
      <trkpt lat="44.14954" lon="1.73361">
        <ele>163.4</ele>
        <time>2023-03-05T07:23:26Z</time>
      </trkpt>
      <trkpt lat="44.14956" lon="1.73357">
        <ele>164</ele>
        <time>2023-03-05T07:23:27Z</time>
      </trkpt>
      <trkpt lat="44.14957" lon="1.73354">
        <ele>164.2</ele>
        <time>2023-03-05T07:23:28Z</time>
      </trkpt>
      <trkpt lat="44.14958" lon="1.73351">
        <ele>164.8</ele>
        <time>2023-03-05T07:23:29Z</time>
      </trkpt>
      <trkpt lat="44.1496" lon="1.73348">
        <ele>164.8</ele>
        <time>2023-03-05T07:23:30Z</time>
      </trkpt>
      <trkpt lat="44.14961" lon="1.73344">
        <ele>165.4</ele>
        <time>2023-03-05T07:23:31Z</time>
      </trkpt>
      <trkpt lat="44.14962" lon="1.73341">
        <ele>165.6</ele>
        <time>2023-03-05T07:23:32Z</time>
      </trkpt>
      <trkpt lat="44.14963" lon="1.73338">
        <ele>165.8</ele>
        <time>2023-03-05T07:23:33Z</time>
      </trkpt>
      <trkpt lat="44.14965" lon="1.73334">
        <ele>166</ele>
        <time>2023-03-05T07:23:34Z</time>
      </trkpt>
      <trkpt lat="44.14966" lon="1.73332">
        <ele>166.4</ele>
        <time>2023-03-05T07:23:35Z</time>
      </trkpt>
      <trkpt lat="44.14968" lon="1.73328">
        <ele>166.6</ele>
        <time>2023-03-05T07:23:36Z</time>
      </trkpt>
      <trkpt lat="44.1497" lon="1.73325">
        <ele>167</ele>
        <time>2023-03-05T07:23:37Z</time>
      </trkpt>
      <trkpt lat="44.14971" lon="1.73322">
        <ele>167.2</ele>
        <time>2023-03-05T07:23:38Z</time>
      </trkpt>
      <trkpt lat="44.14973" lon="1.73319">
        <ele>167.6</ele>
        <time>2023-03-05T07:23:39Z</time>
      </trkpt>
      <trkpt lat="44.14975" lon="1.73315">
        <ele>167.8</ele>
        <time>2023-03-05T07:23:40Z</time>
      </trkpt>
      <trkpt lat="44.14977" lon="1.73313">
        <ele>168.2</ele>
        <time>2023-03-05T07:23:41Z</time>
      </trkpt>
      <trkpt lat="44.14979" lon="1.7331">
        <ele>168.4</ele>
        <time>2023-03-05T07:23:42Z</time>
      </trkpt>
      <trkpt lat="44.1498" lon="1.73307">
        <ele>168.6</ele>
        <time>2023-03-05T07:23:43Z</time>
      </trkpt>
      <trkpt lat="44.14982" lon="1.73304">
        <ele>169</ele>
        <time>2023-03-05T07:23:44Z</time>
      </trkpt>
      <trkpt lat="44.14984" lon="1.73301">
        <ele>169.2</ele>
        <time>2023-03-05T07:23:45Z</time>
      </trkpt>
      <trkpt lat="44.14985" lon="1.73298">
        <ele>169.6</ele>
        <time>2023-03-05T07:23:46Z</time>
      </trkpt>
      <trkpt lat="44.14987" lon="1.73295">
        <ele>170</ele>
        <time>2023-03-05T07:23:47Z</time>
      </trkpt>
      <trkpt lat="44.14989" lon="1.73293">
        <ele>170.2</ele>
        <time>2023-03-05T07:23:48Z</time>
      </trkpt>
      <trkpt lat="44.14991" lon="1.7329">
        <ele>170.4</ele>
        <time>2023-03-05T07:23:49Z</time>
      </trkpt>
      <trkpt lat="44.14993" lon="1.73287">
        <ele>170.8</ele>
        <time>2023-03-05T07:23:50Z</time>
      </trkpt>
      <trkpt lat="44.14995" lon="1.73284">
        <ele>171</ele>
        <time>2023-03-05T07:23:51Z</time>
      </trkpt>
      <trkpt lat="44.14997" lon="1.73281">
        <ele>171.2</ele>
        <time>2023-03-05T07:23:52Z</time>
      </trkpt>
      <trkpt lat="44.14999" lon="1.73278">
        <ele>171.4</ele>
        <time>2023-03-05T07:23:53Z</time>
      </trkpt>
      <trkpt lat="44.15001" lon="1.73276">
        <ele>171.8</ele>
        <time>2023-03-05T07:23:54Z</time>
      </trkpt>
      <trkpt lat="44.15003" lon="1.73273">
        <ele>171.8</ele>
        <time>2023-03-05T07:23:55Z</time>
      </trkpt>
      <trkpt lat="44.15005" lon="1.7327">
        <ele>172.2</ele>
        <time>2023-03-05T07:23:56Z</time>
      </trkpt>
      <trkpt lat="44.15007" lon="1.73267">
        <ele>172.2</ele>
        <time>2023-03-05T07:23:57Z</time>
      </trkpt>
      <trkpt lat="44.15009" lon="1.73264">
        <ele>172.6</ele>
        <time>2023-03-05T07:23:58Z</time>
      </trkpt>
      <trkpt lat="44.15011" lon="1.73261">
        <ele>172.8</ele>
        <time>2023-03-05T07:23:59Z</time>
      </trkpt>
      <trkpt lat="44.15013" lon="1.73258">
        <ele>173.4</ele>
        <time>2023-03-05T07:24:00Z</time>
      </trkpt>
      <trkpt lat="44.15016" lon="1.73256">
        <ele>173.6</ele>
        <time>2023-03-05T07:24:01Z</time>
      </trkpt>
      <trkpt lat="44.15018" lon="1.73253">
        <ele>173.8</ele>
        <time>2023-03-05T07:24:02Z</time>
      </trkpt>
      <trkpt lat="44.1502" lon="1.7325">
        <ele>174.2</ele>
        <time>2023-03-05T07:24:03Z</time>
      </trkpt>
      <trkpt lat="44.15022" lon="1.73248">
        <ele>174.4</ele>
        <time>2023-03-05T07:24:04Z</time>
      </trkpt>
      <trkpt lat="44.15025" lon="1.73245">
        <ele>174.6</ele>
        <time>2023-03-05T07:24:05Z</time>
      </trkpt>
      <trkpt lat="44.15027" lon="1.73242">
        <ele>174.8</ele>
        <time>2023-03-05T07:24:06Z</time>
      </trkpt>
      <trkpt lat="44.15029" lon="1.7324">
        <ele>175.2</ele>
        <time>2023-03-05T07:24:07Z</time>
      </trkpt>
      <trkpt lat="44.15032" lon="1.73237">
        <ele>175.4</ele>
        <time>2023-03-05T07:24:08Z</time>
      </trkpt>
      <trkpt lat="44.15034" lon="1.73235">
        <ele>175.6</ele>
        <time>2023-03-05T07:24:09Z</time>
      </trkpt>
      <trkpt lat="44.15037" lon="1.73233">
        <ele>175.6</ele>
        <time>2023-03-05T07:24:10Z</time>
      </trkpt>
      <trkpt lat="44.15039" lon="1.7323">
        <ele>176</ele>
        <time>2023-03-05T07:24:11Z</time>
      </trkpt>
      <trkpt lat="44.15041" lon="1.73228">
        <ele>176.2</ele>
        <time>2023-03-05T07:24:12Z</time>
      </trkpt>
      <trkpt lat="44.15044" lon="1.73225">
        <ele>176.6</ele>
        <time>2023-03-05T07:24:13Z</time>
      </trkpt>
      <trkpt lat="44.15046" lon="1.73223">
        <ele>176.8</ele>
        <time>2023-03-05T07:24:14Z</time>
      </trkpt>
      <trkpt lat="44.15048" lon="1.73221">
        <ele>177.2</ele>
        <time>2023-03-05T07:24:15Z</time>
      </trkpt>
      <trkpt lat="44.15051" lon="1.73219">
        <ele>177.2</ele>
        <time>2023-03-05T07:24:16Z</time>
      </trkpt>
      <trkpt lat="44.15053" lon="1.73217">
        <ele>177.4</ele>
        <time>2023-03-05T07:24:17Z</time>
      </trkpt>
      <trkpt lat="44.15055" lon="1.73214">
        <ele>177.6</ele>
        <time>2023-03-05T07:24:18Z</time>
      </trkpt>
      <trkpt lat="44.15058" lon="1.73212">
        <ele>178</ele>
        <time>2023-03-05T07:24:19Z</time>
      </trkpt>
      <trkpt lat="44.1506" lon="1.7321">
        <ele>178.2</ele>
        <time>2023-03-05T07:24:20Z</time>
      </trkpt>
      <trkpt lat="44.15062" lon="1.73208">
        <ele>178.6</ele>
        <time>2023-03-05T07:24:21Z</time>
      </trkpt>
      <trkpt lat="44.15064" lon="1.73206">
        <ele>178.8</ele>
        <time>2023-03-05T07:24:22Z</time>
      </trkpt>
      <trkpt lat="44.15067" lon="1.73204">
        <ele>179.2</ele>
        <time>2023-03-05T07:24:23Z</time>
      </trkpt>
      <trkpt lat="44.15069" lon="1.73202">
        <ele>179.6</ele>
        <time>2023-03-05T07:24:24Z</time>
      </trkpt>
      <trkpt lat="44.15072" lon="1.73199">
        <ele>179.6</ele>
        <time>2023-03-05T07:24:25Z</time>
      </trkpt>
      <trkpt lat="44.15074" lon="1.73197">
        <ele>179.8</ele>
        <time>2023-03-05T07:24:26Z</time>
      </trkpt>
      <trkpt lat="44.15077" lon="1.73194">
        <ele>180</ele>
        <time>2023-03-05T07:24:27Z</time>
      </trkpt>
      <trkpt lat="44.1508" lon="1.73192">
        <ele>180.4</ele>
        <time>2023-03-05T07:24:28Z</time>
      </trkpt>
      <trkpt lat="44.15083" lon="1.73189">
        <ele>180.6</ele>
        <time>2023-03-05T07:24:29Z</time>
      </trkpt>
      <trkpt lat="44.15086" lon="1.73186">
        <ele>181</ele>
        <time>2023-03-05T07:24:30Z</time>
      </trkpt>
      <trkpt lat="44.15089" lon="1.73183">
        <ele>181.2</ele>
        <time>2023-03-05T07:24:31Z</time>
      </trkpt>
      <trkpt lat="44.15092" lon="1.7318">
        <ele>181.6</ele>
        <time>2023-03-05T07:24:32Z</time>
      </trkpt>
      <trkpt lat="44.15095" lon="1.73177">
        <ele>181.8</ele>
        <time>2023-03-05T07:24:33Z</time>
      </trkpt>
      <trkpt lat="44.15098" lon="1.73174">
        <ele>182.4</ele>
        <time>2023-03-05T07:24:34Z</time>
      </trkpt>
      <trkpt lat="44.15101" lon="1.73172">
        <ele>182.6</ele>
        <time>2023-03-05T07:24:35Z</time>
      </trkpt>
      <trkpt lat="44.15104" lon="1.7317">
        <ele>183</ele>
        <time>2023-03-05T07:24:36Z</time>
      </trkpt>
      <trkpt lat="44.15106" lon="1.73167">
        <ele>183.4</ele>
        <time>2023-03-05T07:24:37Z</time>
      </trkpt>
      <trkpt lat="44.15107" lon="1.73165">
        <ele>183.6</ele>
        <time>2023-03-05T07:24:38Z</time>
      </trkpt>
      <trkpt lat="44.15108" lon="1.73164">
        <ele>183.8</ele>
        <time>2023-03-05T07:24:39Z</time>
      </trkpt>
      <trkpt lat="44.15109" lon="1.73163">
        <ele>184.2</ele>
        <time>2023-03-05T07:24:40Z</time>
      </trkpt>
      <trkpt lat="44.1511" lon="1.73161">
        <ele>184.4</ele>
        <time>2023-03-05T07:24:41Z</time>
      </trkpt>
      <trkpt lat="44.15111" lon="1.7316">
        <ele>184.8</ele>
        <time>2023-03-05T07:24:42Z</time>
      </trkpt>
      <trkpt lat="44.15112" lon="1.73159">
        <ele>184.8</ele>
        <time>2023-03-05T07:24:43Z</time>
      </trkpt>
      <trkpt lat="44.15114" lon="1.73157">
        <ele>185</ele>
        <time>2023-03-05T07:24:44Z</time>
      </trkpt>
      <trkpt lat="44.15116" lon="1.73155">
        <ele>185.2</ele>
        <time>2023-03-05T07:24:45Z</time>
      </trkpt>
      <trkpt lat="44.15119" lon="1.73151">
        <ele>185.2</ele>
        <time>2023-03-05T07:24:46Z</time>
      </trkpt>
      <trkpt lat="44.15122" lon="1.73147">
        <ele>185.2</ele>
        <time>2023-03-05T07:24:47Z</time>
      </trkpt>
      <trkpt lat="44.15125" lon="1.73142">
        <ele>185.2</ele>
        <time>2023-03-05T07:24:48Z</time>
      </trkpt>
      <trkpt lat="44.15129" lon="1.73137">
        <ele>185</ele>
        <time>2023-03-05T07:24:49Z</time>
      </trkpt>
      <trkpt lat="44.15133" lon="1.73131">
        <ele>185</ele>
        <time>2023-03-05T07:24:50Z</time>
      </trkpt>
      <trkpt lat="44.15138" lon="1.73126">
        <ele>184.6</ele>
        <time>2023-03-05T07:24:51Z</time>
      </trkpt>
      <trkpt lat="44.15142" lon="1.73121">
        <ele>184.6</ele>
        <time>2023-03-05T07:24:52Z</time>
      </trkpt>
      <trkpt lat="44.15146" lon="1.73116">
        <ele>184.2</ele>
        <time>2023-03-05T07:24:53Z</time>
      </trkpt>
      <trkpt lat="44.15151" lon="1.73111">
        <ele>184.2</ele>
        <time>2023-03-05T07:24:54Z</time>
      </trkpt>
      <trkpt lat="44.15155" lon="1.73105">
        <ele>184</ele>
        <time>2023-03-05T07:24:55Z</time>
      </trkpt>
      <trkpt lat="44.1516" lon="1.731">
        <ele>183.8</ele>
        <time>2023-03-05T07:24:56Z</time>
      </trkpt>
      <trkpt lat="44.15164" lon="1.73095">
        <ele>183.4</ele>
        <time>2023-03-05T07:24:57Z</time>
      </trkpt>
      <trkpt lat="44.15169" lon="1.73089">
        <ele>183.2</ele>
        <time>2023-03-05T07:24:58Z</time>
      </trkpt>
      <trkpt lat="44.15174" lon="1.73082">
        <ele>182.6</ele>
        <time>2023-03-05T07:24:59Z</time>
      </trkpt>
      <trkpt lat="44.15178" lon="1.73075">
        <ele>182.4</ele>
        <time>2023-03-05T07:25:00Z</time>
      </trkpt>
      <trkpt lat="44.15182" lon="1.7307">
        <ele>182</ele>
        <time>2023-03-05T07:25:01Z</time>
      </trkpt>
      <trkpt lat="44.15186" lon="1.73064">
        <ele>181.8</ele>
        <time>2023-03-05T07:25:02Z</time>
      </trkpt>
      <trkpt lat="44.15191" lon="1.73058">
        <ele>181.4</ele>
        <time>2023-03-05T07:25:03Z</time>
      </trkpt>
      <trkpt lat="44.15196" lon="1.73053">
        <ele>181</ele>
        <time>2023-03-05T07:25:04Z</time>
      </trkpt>
      <trkpt lat="44.152" lon="1.73048">
        <ele>180.8</ele>
        <time>2023-03-05T07:25:05Z</time>
      </trkpt>
      <trkpt lat="44.15205" lon="1.73044">
        <ele>179.8</ele>
        <time>2023-03-05T07:25:06Z</time>
      </trkpt>
      <trkpt lat="44.15209" lon="1.73039">
        <ele>179.4</ele>
        <time>2023-03-05T07:25:07Z</time>
      </trkpt>
      <trkpt lat="44.15214" lon="1.73034">
        <ele>179</ele>
        <time>2023-03-05T07:25:08Z</time>
      </trkpt>
      <trkpt lat="44.15219" lon="1.73029">
        <ele>178.8</ele>
        <time>2023-03-05T07:25:09Z</time>
      </trkpt>
      <trkpt lat="44.15224" lon="1.73024">
        <ele>178.4</ele>
        <time>2023-03-05T07:25:10Z</time>
      </trkpt>
      <trkpt lat="44.15229" lon="1.73019">
        <ele>178.2</ele>
        <time>2023-03-05T07:25:11Z</time>
      </trkpt>
      <trkpt lat="44.15234" lon="1.73014">
        <ele>178</ele>
        <time>2023-03-05T07:25:12Z</time>
      </trkpt>
      <trkpt lat="44.15239" lon="1.73009">
        <ele>177.8</ele>
        <time>2023-03-05T07:25:13Z</time>
      </trkpt>
      <trkpt lat="44.15243" lon="1.73004">
        <ele>177.4</ele>
        <time>2023-03-05T07:25:14Z</time>
      </trkpt>
      <trkpt lat="44.15248" lon="1.72998">
        <ele>177.2</ele>
        <time>2023-03-05T07:25:15Z</time>
      </trkpt>
      <trkpt lat="44.15252" lon="1.72993">
        <ele>177</ele>
        <time>2023-03-05T07:25:16Z</time>
      </trkpt>
      <trkpt lat="44.15257" lon="1.72987">
        <ele>176.8</ele>
        <time>2023-03-05T07:25:17Z</time>
      </trkpt>
      <trkpt lat="44.15262" lon="1.72981">
        <ele>176.6</ele>
        <time>2023-03-05T07:25:18Z</time>
      </trkpt>
      <trkpt lat="44.15267" lon="1.72975">
        <ele>176.4</ele>
        <time>2023-03-05T07:25:19Z</time>
      </trkpt>
      <trkpt lat="44.15272" lon="1.72969">
        <ele>176.2</ele>
        <time>2023-03-05T07:25:20Z</time>
      </trkpt>
      <trkpt lat="44.15276" lon="1.72964">
        <ele>176</ele>
        <time>2023-03-05T07:25:21Z</time>
      </trkpt>
      <trkpt lat="44.1528" lon="1.72959">
        <ele>176</ele>
        <time>2023-03-05T07:25:22Z</time>
      </trkpt>
      <trkpt lat="44.15284" lon="1.72953">
        <ele>175.8</ele>
        <time>2023-03-05T07:25:23Z</time>
      </trkpt>
      <trkpt lat="44.15288" lon="1.72947">
        <ele>175.6</ele>
        <time>2023-03-05T07:25:24Z</time>
      </trkpt>
      <trkpt lat="44.15292" lon="1.72941">
        <ele>175.4</ele>
        <time>2023-03-05T07:25:25Z</time>
      </trkpt>
      <trkpt lat="44.15296" lon="1.72936">
        <ele>175.2</ele>
        <time>2023-03-05T07:25:26Z</time>
      </trkpt>
      <trkpt lat="44.15299" lon="1.72931">
        <ele>175</ele>
        <time>2023-03-05T07:25:27Z</time>
      </trkpt>
      <trkpt lat="44.15303" lon="1.72926">
        <ele>175</ele>
        <time>2023-03-05T07:25:28Z</time>
      </trkpt>
      <trkpt lat="44.15307" lon="1.72921">
        <ele>174.6</ele>
        <time>2023-03-05T07:25:29Z</time>
      </trkpt>
      <trkpt lat="44.15311" lon="1.72917">
        <ele>174.6</ele>
        <time>2023-03-05T07:25:30Z</time>
      </trkpt>
      <trkpt lat="44.15315" lon="1.72912">
        <ele>174.4</ele>
        <time>2023-03-05T07:25:31Z</time>
      </trkpt>
      <trkpt lat="44.15319" lon="1.72908">
        <ele>174.2</ele>
        <time>2023-03-05T07:25:32Z</time>
      </trkpt>
      <trkpt lat="44.15323" lon="1.72903">
        <ele>174.2</ele>
        <time>2023-03-05T07:25:33Z</time>
      </trkpt>
      <trkpt lat="44.15326" lon="1.72898">
        <ele>174</ele>
        <time>2023-03-05T07:25:34Z</time>
      </trkpt>
      <trkpt lat="44.1533" lon="1.72892">
        <ele>174</ele>
        <time>2023-03-05T07:25:35Z</time>
      </trkpt>
      <trkpt lat="44.15334" lon="1.72887">
        <ele>173.8</ele>
        <time>2023-03-05T07:25:36Z</time>
      </trkpt>
      <trkpt lat="44.15337" lon="1.72881">
        <ele>173.8</ele>
        <time>2023-03-05T07:25:37Z</time>
      </trkpt>
      <trkpt lat="44.1534" lon="1.72875">
        <ele>173.8</ele>
        <time>2023-03-05T07:25:38Z</time>
      </trkpt>
      <trkpt lat="44.15343" lon="1.72869">
        <ele>173.8</ele>
        <time>2023-03-05T07:25:39Z</time>
      </trkpt>
      <trkpt lat="44.15346" lon="1.72863">
        <ele>173.6</ele>
        <time>2023-03-05T07:25:40Z</time>
      </trkpt>
      <trkpt lat="44.15349" lon="1.72857">
        <ele>173.4</ele>
        <time>2023-03-05T07:25:41Z</time>
      </trkpt>
      <trkpt lat="44.15352" lon="1.72851">
        <ele>173.4</ele>
        <time>2023-03-05T07:25:42Z</time>
      </trkpt>
      <trkpt lat="44.15355" lon="1.72844">
        <ele>173.2</ele>
        <time>2023-03-05T07:25:43Z</time>
      </trkpt>
      <trkpt lat="44.15358" lon="1.72838">
        <ele>173.2</ele>
        <time>2023-03-05T07:25:44Z</time>
      </trkpt>
      <trkpt lat="44.15361" lon="1.72832">
        <ele>173.2</ele>
        <time>2023-03-05T07:25:45Z</time>
      </trkpt>
      <trkpt lat="44.15364" lon="1.72826">
        <ele>173</ele>
        <time>2023-03-05T07:25:46Z</time>
      </trkpt>
      <trkpt lat="44.15367" lon="1.72821">
        <ele>173</ele>
        <time>2023-03-05T07:25:47Z</time>
      </trkpt>
      <trkpt lat="44.15371" lon="1.72816">
        <ele>173</ele>
        <time>2023-03-05T07:25:48Z</time>
      </trkpt>
      <trkpt lat="44.15374" lon="1.7281">
        <ele>172.8</ele>
        <time>2023-03-05T07:25:49Z</time>
      </trkpt>
      <trkpt lat="44.15378" lon="1.72803">
        <ele>172.6</ele>
        <time>2023-03-05T07:25:50Z</time>
      </trkpt>
      <trkpt lat="44.15381" lon="1.72796">
        <ele>172.4</ele>
        <time>2023-03-05T07:25:51Z</time>
      </trkpt>
      <trkpt lat="44.15384" lon="1.72788">
        <ele>172.2</ele>
        <time>2023-03-05T07:25:52Z</time>
      </trkpt>
      <trkpt lat="44.15387" lon="1.72782">
        <ele>172</ele>
        <time>2023-03-05T07:25:53Z</time>
      </trkpt>
      <trkpt lat="44.15391" lon="1.72775">
        <ele>171.8</ele>
        <time>2023-03-05T07:25:54Z</time>
      </trkpt>
      <trkpt lat="44.15394" lon="1.72769">
        <ele>171.8</ele>
        <time>2023-03-05T07:25:55Z</time>
      </trkpt>
      <trkpt lat="44.15398" lon="1.72763">
        <ele>171.6</ele>
        <time>2023-03-05T07:25:56Z</time>
      </trkpt>
      <trkpt lat="44.15402" lon="1.72758">
        <ele>171.4</ele>
        <time>2023-03-05T07:25:57Z</time>
      </trkpt>
      <trkpt lat="44.15405" lon="1.72753">
        <ele>171.2</ele>
        <time>2023-03-05T07:25:58Z</time>
      </trkpt>
      <trkpt lat="44.15408" lon="1.72748">
        <ele>171.2</ele>
        <time>2023-03-05T07:25:59Z</time>
      </trkpt>
      <trkpt lat="44.15411" lon="1.72744">
        <ele>171</ele>
        <time>2023-03-05T07:26:00Z</time>
      </trkpt>
      <trkpt lat="44.15415" lon="1.72739">
        <ele>171</ele>
        <time>2023-03-05T07:26:01Z</time>
      </trkpt>
      <trkpt lat="44.15417" lon="1.72735">
        <ele>171</ele>
        <time>2023-03-05T07:26:02Z</time>
      </trkpt>
      <trkpt lat="44.1542" lon="1.7273">
        <ele>171</ele>
        <time>2023-03-05T07:26:03Z</time>
      </trkpt>
      <trkpt lat="44.15423" lon="1.72726">
        <ele>171</ele>
        <time>2023-03-05T07:26:04Z</time>
      </trkpt>
      <trkpt lat="44.15425" lon="1.72722">
        <ele>171</ele>
        <time>2023-03-05T07:26:05Z</time>
      </trkpt>
      <trkpt lat="44.15427" lon="1.72717">
        <ele>171</ele>
        <time>2023-03-05T07:26:06Z</time>
      </trkpt>
      <trkpt lat="44.1543" lon="1.72713">
        <ele>171</ele>
        <time>2023-03-05T07:26:07Z</time>
      </trkpt>
      <trkpt lat="44.15432" lon="1.7271">
        <ele>171.2</ele>
        <time>2023-03-05T07:26:08Z</time>
      </trkpt>
      <trkpt lat="44.15435" lon="1.72706">
        <ele>171.4</ele>
        <time>2023-03-05T07:26:09Z</time>
      </trkpt>
      <trkpt lat="44.15437" lon="1.72703">
        <ele>171.6</ele>
        <time>2023-03-05T07:26:10Z</time>
      </trkpt>
      <trkpt lat="44.15439" lon="1.72699">
        <ele>172</ele>
        <time>2023-03-05T07:26:11Z</time>
      </trkpt>
      <trkpt lat="44.15442" lon="1.72695">
        <ele>172</ele>
        <time>2023-03-05T07:26:12Z</time>
      </trkpt>
      <trkpt lat="44.15444" lon="1.72691">
        <ele>172.6</ele>
        <time>2023-03-05T07:26:13Z</time>
      </trkpt>
      <trkpt lat="44.15446" lon="1.72688">
        <ele>172.8</ele>
        <time>2023-03-05T07:26:14Z</time>
      </trkpt>
      <trkpt lat="44.15448" lon="1.72685">
        <ele>173.2</ele>
        <time>2023-03-05T07:26:15Z</time>
      </trkpt>
      <trkpt lat="44.1545" lon="1.72681">
        <ele>173.2</ele>
        <time>2023-03-05T07:26:16Z</time>
      </trkpt>
      <trkpt lat="44.15452" lon="1.72678">
        <ele>173.4</ele>
        <time>2023-03-05T07:26:17Z</time>
      </trkpt>
      <trkpt lat="44.15454" lon="1.72674">
        <ele>173.4</ele>
        <time>2023-03-05T07:26:18Z</time>
      </trkpt>
      <trkpt lat="44.15456" lon="1.72671">
        <ele>173.8</ele>
        <time>2023-03-05T07:26:19Z</time>
      </trkpt>
      <trkpt lat="44.15457" lon="1.72667">
        <ele>174</ele>
        <time>2023-03-05T07:26:20Z</time>
      </trkpt>
      <trkpt lat="44.15459" lon="1.72664">
        <ele>174.2</ele>
        <time>2023-03-05T07:26:21Z</time>
      </trkpt>
      <trkpt lat="44.15461" lon="1.72661">
        <ele>174.4</ele>
        <time>2023-03-05T07:26:22Z</time>
      </trkpt>
      <trkpt lat="44.15462" lon="1.72657">
        <ele>175</ele>
        <time>2023-03-05T07:26:23Z</time>
      </trkpt>
      <trkpt lat="44.15464" lon="1.72654">
        <ele>175.4</ele>
        <time>2023-03-05T07:26:24Z</time>
      </trkpt>
      <trkpt lat="44.15466" lon="1.7265">
        <ele>175.8</ele>
        <time>2023-03-05T07:26:25Z</time>
      </trkpt>
      <trkpt lat="44.15467" lon="1.72647">
        <ele>176</ele>
        <time>2023-03-05T07:26:26Z</time>
      </trkpt>
      <trkpt lat="44.15469" lon="1.72644">
        <ele>176.2</ele>
        <time>2023-03-05T07:26:27Z</time>
      </trkpt>
      <trkpt lat="44.15471" lon="1.72641">
        <ele>176.4</ele>
        <time>2023-03-05T07:26:28Z</time>
      </trkpt>
      <trkpt lat="44.15472" lon="1.72639">
        <ele>176.6</ele>
        <time>2023-03-05T07:26:29Z</time>
      </trkpt>
      <trkpt lat="44.15474" lon="1.72635">
        <ele>177</ele>
        <time>2023-03-05T07:26:30Z</time>
      </trkpt>
      <trkpt lat="44.15475" lon="1.72632">
        <ele>177.2</ele>
        <time>2023-03-05T07:26:31Z</time>
      </trkpt>
      <trkpt lat="44.15476" lon="1.72628">
        <ele>177.6</ele>
        <time>2023-03-05T07:26:32Z</time>
      </trkpt>
      <trkpt lat="44.15477" lon="1.72625">
        <ele>177.6</ele>
        <time>2023-03-05T07:26:33Z</time>
      </trkpt>
      <trkpt lat="44.15478" lon="1.72622">
        <ele>178.2</ele>
        <time>2023-03-05T07:26:34Z</time>
      </trkpt>
      <trkpt lat="44.15479" lon="1.72619">
        <ele>178.2</ele>
        <time>2023-03-05T07:26:35Z</time>
      </trkpt>
      <trkpt lat="44.15479" lon="1.72615">
        <ele>178.6</ele>
        <time>2023-03-05T07:26:36Z</time>
      </trkpt>
      <trkpt lat="44.1548" lon="1.72612">
        <ele>178.6</ele>
        <time>2023-03-05T07:26:37Z</time>
      </trkpt>
      <trkpt lat="44.1548" lon="1.72607">
        <ele>178.8</ele>
        <time>2023-03-05T07:26:38Z</time>
      </trkpt>
      <trkpt lat="44.15481" lon="1.72603">
        <ele>178.8</ele>
        <time>2023-03-05T07:26:39Z</time>
      </trkpt>
      <trkpt lat="44.15481" lon="1.72598">
        <ele>179</ele>
        <time>2023-03-05T07:26:40Z</time>
      </trkpt>
      <trkpt lat="44.15482" lon="1.72592">
        <ele>179</ele>
        <time>2023-03-05T07:26:41Z</time>
      </trkpt>
      <trkpt lat="44.15482" lon="1.72587">
        <ele>179.2</ele>
        <time>2023-03-05T07:26:42Z</time>
      </trkpt>
      <trkpt lat="44.15483" lon="1.72582">
        <ele>179</ele>
        <time>2023-03-05T07:26:43Z</time>
      </trkpt>
      <trkpt lat="44.15483" lon="1.72576">
        <ele>179</ele>
        <time>2023-03-05T07:26:44Z</time>
      </trkpt>
      <trkpt lat="44.15484" lon="1.72571">
        <ele>179</ele>
        <time>2023-03-05T07:26:45Z</time>
      </trkpt>
      <trkpt lat="44.15485" lon="1.72566">
        <ele>179</ele>
        <time>2023-03-05T07:26:46Z</time>
      </trkpt>
      <trkpt lat="44.15485" lon="1.72561">
        <ele>179</ele>
        <time>2023-03-05T07:26:47Z</time>
      </trkpt>
      <trkpt lat="44.15486" lon="1.72556">
        <ele>179</ele>
        <time>2023-03-05T07:26:48Z</time>
      </trkpt>
      <trkpt lat="44.15486" lon="1.7255">
        <ele>178.8</ele>
        <time>2023-03-05T07:26:49Z</time>
      </trkpt>
      <trkpt lat="44.15487" lon="1.72543">
        <ele>178.8</ele>
        <time>2023-03-05T07:26:50Z</time>
      </trkpt>
      <trkpt lat="44.15488" lon="1.72537">
        <ele>178.6</ele>
        <time>2023-03-05T07:26:51Z</time>
      </trkpt>
      <trkpt lat="44.15489" lon="1.72531">
        <ele>178.6</ele>
        <time>2023-03-05T07:26:52Z</time>
      </trkpt>
      <trkpt lat="44.15489" lon="1.72526">
        <ele>178.4</ele>
        <time>2023-03-05T07:26:53Z</time>
      </trkpt>
      <trkpt lat="44.15489" lon="1.7252">
        <ele>178.4</ele>
        <time>2023-03-05T07:26:54Z</time>
      </trkpt>
      <trkpt lat="44.15489" lon="1.72513">
        <ele>178.2</ele>
        <time>2023-03-05T07:26:55Z</time>
      </trkpt>
      <trkpt lat="44.1549" lon="1.72507">
        <ele>178</ele>
        <time>2023-03-05T07:26:56Z</time>
      </trkpt>
      <trkpt lat="44.15491" lon="1.725">
        <ele>177.8</ele>
        <time>2023-03-05T07:26:57Z</time>
      </trkpt>
      <trkpt lat="44.15492" lon="1.72495">
        <ele>177.6</ele>
        <time>2023-03-05T07:26:58Z</time>
      </trkpt>
      <trkpt lat="44.15493" lon="1.72489">
        <ele>177.6</ele>
        <time>2023-03-05T07:26:59Z</time>
      </trkpt>
      <trkpt lat="44.15493" lon="1.72484">
        <ele>177.4</ele>
        <time>2023-03-05T07:27:00Z</time>
      </trkpt>
      <trkpt lat="44.15493" lon="1.72478">
        <ele>177.2</ele>
        <time>2023-03-05T07:27:01Z</time>
      </trkpt>
      <trkpt lat="44.15494" lon="1.72471">
        <ele>177</ele>
        <time>2023-03-05T07:27:02Z</time>
      </trkpt>
      <trkpt lat="44.15494" lon="1.72464">
        <ele>176.8</ele>
        <time>2023-03-05T07:27:03Z</time>
      </trkpt>
      <trkpt lat="44.15494" lon="1.72457">
        <ele>176.6</ele>
        <time>2023-03-05T07:27:04Z</time>
      </trkpt>
      <trkpt lat="44.15494" lon="1.72449">
        <ele>176.4</ele>
        <time>2023-03-05T07:27:05Z</time>
      </trkpt>
      <trkpt lat="44.15494" lon="1.72441">
        <ele>176.2</ele>
        <time>2023-03-05T07:27:06Z</time>
      </trkpt>
      <trkpt lat="44.15494" lon="1.72433">
        <ele>175.8</ele>
        <time>2023-03-05T07:27:07Z</time>
      </trkpt>
      <trkpt lat="44.15494" lon="1.72425">
        <ele>175.8</ele>
        <time>2023-03-05T07:27:08Z</time>
      </trkpt>
      <trkpt lat="44.15494" lon="1.72418">
        <ele>175.4</ele>
        <time>2023-03-05T07:27:09Z</time>
      </trkpt>
      <trkpt lat="44.15494" lon="1.7241">
        <ele>175.2</ele>
        <time>2023-03-05T07:27:10Z</time>
      </trkpt>
      <trkpt lat="44.15494" lon="1.72402">
        <ele>175</ele>
        <time>2023-03-05T07:27:11Z</time>
      </trkpt>
      <trkpt lat="44.15494" lon="1.72395">
        <ele>174.8</ele>
        <time>2023-03-05T07:27:12Z</time>
      </trkpt>
      <trkpt lat="44.15496" lon="1.7239">
        <ele>174.6</ele>
        <time>2023-03-05T07:27:13Z</time>
      </trkpt>
      <trkpt lat="44.15498" lon="1.72385">
        <ele>174.4</ele>
        <time>2023-03-05T07:27:14Z</time>
      </trkpt>
      <trkpt lat="44.155" lon="1.72381">
        <ele>174.2</ele>
        <time>2023-03-05T07:27:15Z</time>
      </trkpt>
      <trkpt lat="44.15502" lon="1.72377">
        <ele>174</ele>
        <time>2023-03-05T07:27:16Z</time>
      </trkpt>
      <trkpt lat="44.15504" lon="1.72373">
        <ele>174</ele>
        <time>2023-03-05T07:27:17Z</time>
      </trkpt>
      <trkpt lat="44.15506" lon="1.72369">
        <ele>174</ele>
        <time>2023-03-05T07:27:18Z</time>
      </trkpt>
      <trkpt lat="44.15509" lon="1.72365">
        <ele>173.8</ele>
        <time>2023-03-05T07:27:19Z</time>
      </trkpt>
      <trkpt lat="44.15511" lon="1.72362">
        <ele>173.8</ele>
        <time>2023-03-05T07:27:20Z</time>
      </trkpt>
      <trkpt lat="44.15514" lon="1.72359">
        <ele>173.8</ele>
        <time>2023-03-05T07:27:21Z</time>
      </trkpt>
      <trkpt lat="44.15517" lon="1.72355">
        <ele>173.8</ele>
        <time>2023-03-05T07:27:22Z</time>
      </trkpt>
      <trkpt lat="44.15519" lon="1.72352">
        <ele>174</ele>
        <time>2023-03-05T07:27:23Z</time>
      </trkpt>
      <trkpt lat="44.15522" lon="1.72348">
        <ele>174</ele>
        <time>2023-03-05T07:27:24Z</time>
      </trkpt>
      <trkpt lat="44.15524" lon="1.72343">
        <ele>174</ele>
        <time>2023-03-05T07:27:25Z</time>
      </trkpt>
      <trkpt lat="44.15526" lon="1.7234">
        <ele>174.2</ele>
        <time>2023-03-05T07:27:26Z</time>
      </trkpt>
      <trkpt lat="44.15528" lon="1.72336">
        <ele>174.2</ele>
        <time>2023-03-05T07:27:27Z</time>
      </trkpt>
      <trkpt lat="44.15529" lon="1.72333">
        <ele>174.4</ele>
        <time>2023-03-05T07:27:28Z</time>
      </trkpt>
      <trkpt lat="44.1553" lon="1.7233">
        <ele>174.4</ele>
        <time>2023-03-05T07:27:29Z</time>
      </trkpt>
      <trkpt lat="44.15532" lon="1.72326">
        <ele>174.6</ele>
        <time>2023-03-05T07:27:30Z</time>
      </trkpt>
      <trkpt lat="44.15533" lon="1.72322">
        <ele>174.8</ele>
        <time>2023-03-05T07:27:31Z</time>
      </trkpt>
      <trkpt lat="44.15534" lon="1.72317">
        <ele>175</ele>
        <time>2023-03-05T07:27:32Z</time>
      </trkpt>
      <trkpt lat="44.15535" lon="1.72313">
        <ele>175.2</ele>
        <time>2023-03-05T07:27:33Z</time>
      </trkpt>
      <trkpt lat="44.15535" lon="1.72311">
        <ele>175.6</ele>
        <time>2023-03-05T07:27:34Z</time>
      </trkpt>
      <trkpt lat="44.15536" lon="1.7231">
        <ele>176.6</ele>
        <time>2023-03-05T07:27:35Z</time>
      </trkpt>
      <trkpt lat="44.15536" lon="1.72309">
        <ele>176.8</ele>
        <time>2023-03-05T07:27:36Z</time>
      </trkpt>
      <trkpt lat="44.15537" lon="1.72307">
        <ele>177.2</ele>
        <time>2023-03-05T07:27:37Z</time>
      </trkpt>
      <trkpt lat="44.15537" lon="1.72304">
        <ele>177.4</ele>
        <time>2023-03-05T07:27:38Z</time>
      </trkpt>
      <trkpt lat="44.15539" lon="1.72303">
        <ele>177.8</ele>
        <time>2023-03-05T07:27:39Z</time>
      </trkpt>
      <trkpt lat="44.1554" lon="1.72301">
        <ele>178</ele>
        <time>2023-03-05T07:27:40Z</time>
      </trkpt>
      <trkpt lat="44.1554" lon="1.72299">
        <ele>178.2</ele>
        <time>2023-03-05T07:27:41Z</time>
      </trkpt>
      <trkpt lat="44.1554" lon="1.72297">
        <ele>178.4</ele>
        <time>2023-03-05T07:27:42Z</time>
      </trkpt>
      <trkpt lat="44.15541" lon="1.72295">
        <ele>178.4</ele>
        <time>2023-03-05T07:27:43Z</time>
      </trkpt>
      <trkpt lat="44.15541" lon="1.72293">
        <ele>178.8</ele>
        <time>2023-03-05T07:27:44Z</time>
      </trkpt>
      <trkpt lat="44.15541" lon="1.72291">
        <ele>179.6</ele>
        <time>2023-03-05T07:27:45Z</time>
      </trkpt>
      <trkpt lat="44.15542" lon="1.72289">
        <ele>179.8</ele>
        <time>2023-03-05T07:27:46Z</time>
      </trkpt>
      <trkpt lat="44.15542" lon="1.72287">
        <ele>180</ele>
        <time>2023-03-05T07:27:47Z</time>
      </trkpt>
      <trkpt lat="44.15543" lon="1.72285">
        <ele>180.2</ele>
        <time>2023-03-05T07:27:48Z</time>
      </trkpt>
      <trkpt lat="44.15544" lon="1.72283">
        <ele>180.6</ele>
        <time>2023-03-05T07:27:49Z</time>
      </trkpt>
      <trkpt lat="44.15545" lon="1.72281">
        <ele>181</ele>
        <time>2023-03-05T07:27:50Z</time>
      </trkpt>
      <trkpt lat="44.15545" lon="1.7228">
        <ele>181.4</ele>
        <time>2023-03-05T07:27:51Z</time>
      </trkpt>
      <trkpt lat="44.15546" lon="1.72278">
        <ele>181.6</ele>
        <time>2023-03-05T07:27:52Z</time>
      </trkpt>
      <trkpt lat="44.15547" lon="1.72276">
        <ele>182.2</ele>
        <time>2023-03-05T07:27:53Z</time>
      </trkpt>
      <trkpt lat="44.15548" lon="1.72275">
        <ele>182.4</ele>
        <time>2023-03-05T07:27:54Z</time>
      </trkpt>
      <trkpt lat="44.15548" lon="1.72273">
        <ele>182.8</ele>
        <time>2023-03-05T07:27:55Z</time>
      </trkpt>
      <trkpt lat="44.15549" lon="1.72271">
        <ele>183</ele>
        <time>2023-03-05T07:27:56Z</time>
      </trkpt>
      <trkpt lat="44.15549" lon="1.72269">
        <ele>183.2</ele>
        <time>2023-03-05T07:27:57Z</time>
      </trkpt>
      <trkpt lat="44.15549" lon="1.72268">
        <ele>183.8</ele>
        <time>2023-03-05T07:27:58Z</time>
      </trkpt>
      <trkpt lat="44.15549" lon="1.72266">
        <ele>184</ele>
        <time>2023-03-05T07:27:59Z</time>
      </trkpt>
      <trkpt lat="44.1555" lon="1.72264">
        <ele>184.4</ele>
        <time>2023-03-05T07:28:00Z</time>
      </trkpt>
      <trkpt lat="44.1555" lon="1.72262">
        <ele>184.6</ele>
        <time>2023-03-05T07:28:01Z</time>
      </trkpt>
      <trkpt lat="44.1555" lon="1.72261">
        <ele>185</ele>
        <time>2023-03-05T07:28:02Z</time>
      </trkpt>
      <trkpt lat="44.15551" lon="1.72259">
        <ele>185</ele>
        <time>2023-03-05T07:28:03Z</time>
      </trkpt>
      <trkpt lat="44.15552" lon="1.72258">
        <ele>185.4</ele>
        <time>2023-03-05T07:28:04Z</time>
      </trkpt>
      <trkpt lat="44.15552" lon="1.72256">
        <ele>185.6</ele>
        <time>2023-03-05T07:28:05Z</time>
      </trkpt>
      <trkpt lat="44.15553" lon="1.72255">
        <ele>186</ele>
        <time>2023-03-05T07:28:06Z</time>
      </trkpt>
      <trkpt lat="44.15553" lon="1.72253">
        <ele>186.4</ele>
        <time>2023-03-05T07:28:07Z</time>
      </trkpt>
      <trkpt lat="44.15553" lon="1.72251">
        <ele>186.8</ele>
        <time>2023-03-05T07:28:08Z</time>
      </trkpt>
      <trkpt lat="44.15554" lon="1.7225">
        <ele>187.2</ele>
        <time>2023-03-05T07:28:09Z</time>
      </trkpt>
      <trkpt lat="44.15554" lon="1.72248">
        <ele>187.4</ele>
        <time>2023-03-05T07:28:10Z</time>
      </trkpt>
      <trkpt lat="44.15554" lon="1.72247">
        <ele>187.6</ele>
        <time>2023-03-05T07:28:11Z</time>
      </trkpt>
      <trkpt lat="44.15554" lon="1.72245">
        <ele>188</ele>
        <time>2023-03-05T07:28:12Z</time>
      </trkpt>
      <trkpt lat="44.15554" lon="1.72244">
        <ele>188.2</ele>
        <time>2023-03-05T07:28:13Z</time>
      </trkpt>
      <trkpt lat="44.15554" lon="1.72242">
        <ele>188.4</ele>
        <time>2023-03-05T07:28:14Z</time>
      </trkpt>
      <trkpt lat="44.15555" lon="1.7224">
        <ele>188.4</ele>
        <time>2023-03-05T07:28:15Z</time>
      </trkpt>
      <trkpt lat="44.15555" lon="1.72238">
        <ele>188.8</ele>
        <time>2023-03-05T07:28:16Z</time>
      </trkpt>
      <trkpt lat="44.15555" lon="1.72236">
        <ele>188.8</ele>
        <time>2023-03-05T07:28:17Z</time>
      </trkpt>
      <trkpt lat="44.15555" lon="1.72234">
        <ele>189.4</ele>
        <time>2023-03-05T07:28:18Z</time>
      </trkpt>
      <trkpt lat="44.15556" lon="1.72233">
        <ele>189.6</ele>
        <time>2023-03-05T07:28:19Z</time>
      </trkpt>
      <trkpt lat="44.15556" lon="1.72231">
        <ele>189.8</ele>
        <time>2023-03-05T07:28:20Z</time>
      </trkpt>
      <trkpt lat="44.15556" lon="1.7223">
        <ele>190</ele>
        <time>2023-03-05T07:28:21Z</time>
      </trkpt>
      <trkpt lat="44.15557" lon="1.72228">
        <ele>190.4</ele>
        <time>2023-03-05T07:28:22Z</time>
      </trkpt>
      <trkpt lat="44.15557" lon="1.72226">
        <ele>190.8</ele>
        <time>2023-03-05T07:28:23Z</time>
      </trkpt>
      <trkpt lat="44.15557" lon="1.72224">
        <ele>191</ele>
        <time>2023-03-05T07:28:24Z</time>
      </trkpt>
      <trkpt lat="44.15557" lon="1.72222">
        <ele>191.4</ele>
        <time>2023-03-05T07:28:25Z</time>
      </trkpt>
      <trkpt lat="44.15557" lon="1.72219">
        <ele>191.6</ele>
        <time>2023-03-05T07:28:26Z</time>
      </trkpt>
      <trkpt lat="44.15557" lon="1.72216">
        <ele>192</ele>
        <time>2023-03-05T07:28:27Z</time>
      </trkpt>
      <trkpt lat="44.15557" lon="1.72213">
        <ele>192.2</ele>
        <time>2023-03-05T07:28:28Z</time>
      </trkpt>
      <trkpt lat="44.15557" lon="1.72209">
        <ele>192.6</ele>
        <time>2023-03-05T07:28:29Z</time>
      </trkpt>
      <trkpt lat="44.15557" lon="1.72206">
        <ele>192.6</ele>
        <time>2023-03-05T07:28:30Z</time>
      </trkpt>
      <trkpt lat="44.15557" lon="1.72202">
        <ele>192.8</ele>
        <time>2023-03-05T07:28:31Z</time>
      </trkpt>
      <trkpt lat="44.15557" lon="1.72197">
        <ele>193</ele>
        <time>2023-03-05T07:28:32Z</time>
      </trkpt>
      <trkpt lat="44.15556" lon="1.72192">
        <ele>193.2</ele>
        <time>2023-03-05T07:28:33Z</time>
      </trkpt>
      <trkpt lat="44.15556" lon="1.72188">
        <ele>193.4</ele>
        <time>2023-03-05T07:28:34Z</time>
      </trkpt>
      <trkpt lat="44.15557" lon="1.72184">
        <ele>193.4</ele>
        <time>2023-03-05T07:28:35Z</time>
      </trkpt>
      <trkpt lat="44.15557" lon="1.7218">
        <ele>193.6</ele>
        <time>2023-03-05T07:28:36Z</time>
      </trkpt>
      <trkpt lat="44.15557" lon="1.72176">
        <ele>193.8</ele>
        <time>2023-03-05T07:28:37Z</time>
      </trkpt>
      <trkpt lat="44.15557" lon="1.72172">
        <ele>194</ele>
        <time>2023-03-05T07:28:38Z</time>
      </trkpt>
      <trkpt lat="44.15557" lon="1.72168">
        <ele>194.2</ele>
        <time>2023-03-05T07:28:39Z</time>
      </trkpt>
      <trkpt lat="44.15557" lon="1.72164">
        <ele>194.4</ele>
        <time>2023-03-05T07:28:40Z</time>
      </trkpt>
      <trkpt lat="44.15556" lon="1.72159">
        <ele>194.6</ele>
        <time>2023-03-05T07:28:41Z</time>
      </trkpt>
      <trkpt lat="44.15555" lon="1.72155">
        <ele>194.8</ele>
        <time>2023-03-05T07:28:42Z</time>
      </trkpt>
      <trkpt lat="44.15555" lon="1.7215">
        <ele>195.2</ele>
        <time>2023-03-05T07:28:43Z</time>
      </trkpt>
      <trkpt lat="44.15555" lon="1.72146">
        <ele>195.8</ele>
        <time>2023-03-05T07:28:44Z</time>
      </trkpt>
      <trkpt lat="44.15555" lon="1.72142">
        <ele>195.8</ele>
        <time>2023-03-05T07:28:45Z</time>
      </trkpt>
      <trkpt lat="44.15555" lon="1.72138">
        <ele>196.2</ele>
        <time>2023-03-05T07:28:46Z</time>
      </trkpt>
      <trkpt lat="44.15555" lon="1.72135">
        <ele>196.4</ele>
        <time>2023-03-05T07:28:47Z</time>
      </trkpt>
      <trkpt lat="44.15555" lon="1.72132">
        <ele>196.8</ele>
        <time>2023-03-05T07:28:48Z</time>
      </trkpt>
      <trkpt lat="44.15554" lon="1.72128">
        <ele>196.8</ele>
        <time>2023-03-05T07:28:49Z</time>
      </trkpt>
      <trkpt lat="44.15554" lon="1.72125">
        <ele>197</ele>
        <time>2023-03-05T07:28:50Z</time>
      </trkpt>
      <trkpt lat="44.15553" lon="1.72121">
        <ele>197</ele>
        <time>2023-03-05T07:28:51Z</time>
      </trkpt>
      <trkpt lat="44.15553" lon="1.72117">
        <ele>197.4</ele>
        <time>2023-03-05T07:28:52Z</time>
      </trkpt>
      <trkpt lat="44.15552" lon="1.72113">
        <ele>197.8</ele>
        <time>2023-03-05T07:28:53Z</time>
      </trkpt>
      <trkpt lat="44.15551" lon="1.72109">
        <ele>198</ele>
        <time>2023-03-05T07:28:54Z</time>
      </trkpt>
      <trkpt lat="44.15551" lon="1.72104">
        <ele>198</ele>
        <time>2023-03-05T07:28:55Z</time>
      </trkpt>
      <trkpt lat="44.1555" lon="1.721">
        <ele>198.2</ele>
        <time>2023-03-05T07:28:56Z</time>
      </trkpt>
      <trkpt lat="44.1555" lon="1.72096">
        <ele>198.2</ele>
        <time>2023-03-05T07:28:57Z</time>
      </trkpt>
      <trkpt lat="44.15549" lon="1.72093">
        <ele>198.4</ele>
        <time>2023-03-05T07:28:58Z</time>
      </trkpt>
      <trkpt lat="44.15549" lon="1.72089">
        <ele>198.4</ele>
        <time>2023-03-05T07:28:59Z</time>
      </trkpt>
      <trkpt lat="44.15549" lon="1.72086">
        <ele>198.4</ele>
        <time>2023-03-05T07:29:00Z</time>
      </trkpt>
      <trkpt lat="44.15548" lon="1.72082">
        <ele>198.6</ele>
        <time>2023-03-05T07:29:01Z</time>
      </trkpt>
      <trkpt lat="44.15548" lon="1.72079">
        <ele>198.6</ele>
        <time>2023-03-05T07:29:02Z</time>
      </trkpt>
      <trkpt lat="44.15548" lon="1.72076">
        <ele>198.6</ele>
        <time>2023-03-05T07:29:03Z</time>
      </trkpt>
      <trkpt lat="44.15548" lon="1.72074">
        <ele>199</ele>
        <time>2023-03-05T07:29:04Z</time>
      </trkpt>
      <trkpt lat="44.15548" lon="1.72072">
        <ele>199</ele>
        <time>2023-03-05T07:29:05Z</time>
      </trkpt>
      <trkpt lat="44.15548" lon="1.72069">
        <ele>199</ele>
        <time>2023-03-05T07:29:06Z</time>
      </trkpt>
      <trkpt lat="44.15548" lon="1.72067">
        <ele>199.4</ele>
        <time>2023-03-05T07:29:07Z</time>
      </trkpt>
      <trkpt lat="44.15548" lon="1.72065">
        <ele>199.4</ele>
        <time>2023-03-05T07:29:08Z</time>
      </trkpt>
      <trkpt lat="44.15548" lon="1.72064">
        <ele>199.8</ele>
        <time>2023-03-05T07:29:09Z</time>
      </trkpt>
      <trkpt lat="44.15547" lon="1.72062">
        <ele>200</ele>
        <time>2023-03-05T07:29:10Z</time>
      </trkpt>
      <trkpt lat="44.15547" lon="1.7206">
        <ele>200.2</ele>
        <time>2023-03-05T07:29:11Z</time>
      </trkpt>
      <trkpt lat="44.15547" lon="1.72058">
        <ele>200.2</ele>
        <time>2023-03-05T07:29:12Z</time>
      </trkpt>
      <trkpt lat="44.15547" lon="1.72057">
        <ele>200.4</ele>
        <time>2023-03-05T07:29:13Z</time>
      </trkpt>
      <trkpt lat="44.15547" lon="1.72055">
        <ele>200.6</ele>
        <time>2023-03-05T07:29:14Z</time>
      </trkpt>
      <trkpt lat="44.15547" lon="1.72053">
        <ele>200.6</ele>
        <time>2023-03-05T07:29:15Z</time>
      </trkpt>
      <trkpt lat="44.15546" lon="1.72051">
        <ele>200.8</ele>
        <time>2023-03-05T07:29:16Z</time>
      </trkpt>
      <trkpt lat="44.15546" lon="1.72049">
        <ele>201</ele>
        <time>2023-03-05T07:29:17Z</time>
      </trkpt>
      <trkpt lat="44.15546" lon="1.72047">
        <ele>201.2</ele>
        <time>2023-03-05T07:29:18Z</time>
      </trkpt>
      <trkpt lat="44.15546" lon="1.72044">
        <ele>201.4</ele>
        <time>2023-03-05T07:29:19Z</time>
      </trkpt>
      <trkpt lat="44.15546" lon="1.72042">
        <ele>201.4</ele>
        <time>2023-03-05T07:29:20Z</time>
      </trkpt>
      <trkpt lat="44.15546" lon="1.72039">
        <ele>201.8</ele>
        <time>2023-03-05T07:29:21Z</time>
      </trkpt>
      <trkpt lat="44.15546" lon="1.72037">
        <ele>202</ele>
        <time>2023-03-05T07:29:22Z</time>
      </trkpt>
      <trkpt lat="44.15546" lon="1.72034">
        <ele>202.4</ele>
        <time>2023-03-05T07:29:23Z</time>
      </trkpt>
      <trkpt lat="44.15546" lon="1.72032">
        <ele>202.4</ele>
        <time>2023-03-05T07:29:24Z</time>
      </trkpt>
      <trkpt lat="44.15546" lon="1.72029">
        <ele>202.6</ele>
        <time>2023-03-05T07:29:25Z</time>
      </trkpt>
      <trkpt lat="44.15547" lon="1.72027">
        <ele>202.8</ele>
        <time>2023-03-05T07:29:26Z</time>
      </trkpt>
      <trkpt lat="44.15547" lon="1.72025">
        <ele>203</ele>
        <time>2023-03-05T07:29:27Z</time>
      </trkpt>
      <trkpt lat="44.15547" lon="1.72023">
        <ele>203.6</ele>
        <time>2023-03-05T07:29:28Z</time>
      </trkpt>
      <trkpt lat="44.15548" lon="1.72021">
        <ele>204</ele>
        <time>2023-03-05T07:29:29Z</time>
      </trkpt>
      <trkpt lat="44.15548" lon="1.72019">
        <ele>204.4</ele>
        <time>2023-03-05T07:29:30Z</time>
      </trkpt>
      <trkpt lat="44.15548" lon="1.72017">
        <ele>204.6</ele>
        <time>2023-03-05T07:29:31Z</time>
      </trkpt>
      <trkpt lat="44.15548" lon="1.72014">
        <ele>205.2</ele>
        <time>2023-03-05T07:29:32Z</time>
      </trkpt>
      <trkpt lat="44.15547" lon="1.72011">
        <ele>205.4</ele>
        <time>2023-03-05T07:29:33Z</time>
      </trkpt>
      <trkpt lat="44.15547" lon="1.72009">
        <ele>206</ele>
        <time>2023-03-05T07:29:34Z</time>
      </trkpt>
      <trkpt lat="44.15546" lon="1.72006">
        <ele>206.2</ele>
        <time>2023-03-05T07:29:35Z</time>
      </trkpt>
      <trkpt lat="44.15546" lon="1.72004">
        <ele>206.8</ele>
        <time>2023-03-05T07:29:36Z</time>
      </trkpt>
      <trkpt lat="44.15544" lon="1.72001">
        <ele>206.8</ele>
        <time>2023-03-05T07:29:37Z</time>
      </trkpt>
      <trkpt lat="44.15543" lon="1.71998">
        <ele>207.2</ele>
        <time>2023-03-05T07:29:38Z</time>
      </trkpt>
      <trkpt lat="44.15541" lon="1.71995">
        <ele>207.2</ele>
        <time>2023-03-05T07:29:39Z</time>
      </trkpt>
      <trkpt lat="44.1554" lon="1.71991">
        <ele>207.4</ele>
        <time>2023-03-05T07:29:40Z</time>
      </trkpt>
      <trkpt lat="44.15537" lon="1.71986">
        <ele>207.4</ele>
        <time>2023-03-05T07:29:41Z</time>
      </trkpt>
      <trkpt lat="44.15535" lon="1.7198">
        <ele>207.4</ele>
        <time>2023-03-05T07:29:42Z</time>
      </trkpt>
      <trkpt lat="44.15533" lon="1.71975">
        <ele>207.6</ele>
        <time>2023-03-05T07:29:43Z</time>
      </trkpt>
      <trkpt lat="44.15531" lon="1.71969">
        <ele>207.6</ele>
        <time>2023-03-05T07:29:44Z</time>
      </trkpt>
      <trkpt lat="44.15529" lon="1.71964">
        <ele>207.6</ele>
        <time>2023-03-05T07:29:45Z</time>
      </trkpt>
      <trkpt lat="44.15526" lon="1.71957">
        <ele>207.4</ele>
        <time>2023-03-05T07:29:46Z</time>
      </trkpt>
      <trkpt lat="44.15523" lon="1.71952">
        <ele>207.4</ele>
        <time>2023-03-05T07:29:47Z</time>
      </trkpt>
      <trkpt lat="44.15521" lon="1.71948">
        <ele>207</ele>
        <time>2023-03-05T07:29:48Z</time>
      </trkpt>
      <trkpt lat="44.15519" lon="1.71945">
        <ele>206.6</ele>
        <time>2023-03-05T07:29:49Z</time>
      </trkpt>
      <trkpt lat="44.15518" lon="1.71943">
        <ele>206.4</ele>
        <time>2023-03-05T07:29:50Z</time>
      </trkpt>
      <trkpt lat="44.15517" lon="1.71942">
        <ele>205.8</ele>
        <time>2023-03-05T07:29:51Z</time>
      </trkpt>
      <trkpt lat="44.15515" lon="1.71941">
        <ele>205.6</ele>
        <time>2023-03-05T07:29:52Z</time>
      </trkpt>
      <trkpt lat="44.15514" lon="1.7194">
        <ele>205.4</ele>
        <time>2023-03-05T07:29:53Z</time>
      </trkpt>
      <trkpt lat="44.15513" lon="1.7194">
        <ele>205.4</ele>
        <time>2023-03-05T07:29:54Z</time>
      </trkpt>
      <trkpt lat="44.15513" lon="1.7194">
        <ele>205.2</ele>
        <time>2023-03-05T07:29:55Z</time>
      </trkpt>
      <trkpt lat="44.15508" lon="1.71928">
        <ele>203</ele>
        <time>2023-03-05T07:30:07Z</time>
      </trkpt>
      <trkpt lat="44.15508" lon="1.71927">
        <ele>203</ele>
        <time>2023-03-05T07:30:08Z</time>
      </trkpt>
      <trkpt lat="44.15508" lon="1.71927">
        <ele>202.8</ele>
        <time>2023-03-05T07:30:09Z</time>
      </trkpt>
      <trkpt lat="44.15508" lon="1.71927">
        <ele>202.8</ele>
        <time>2023-03-05T07:30:10Z</time>
      </trkpt>
      <trkpt lat="44.15499" lon="1.71913">
        <ele>204.8</ele>
        <time>2023-03-05T07:30:29Z</time>
      </trkpt>
      <trkpt lat="44.15498" lon="1.71909">
        <ele>204.6</ele>
        <time>2023-03-05T07:30:30Z</time>
      </trkpt>
      <trkpt lat="44.15496" lon="1.71905">
        <ele>204.6</ele>
        <time>2023-03-05T07:30:31Z</time>
      </trkpt>
      <trkpt lat="44.15494" lon="1.71902">
        <ele>204.6</ele>
        <time>2023-03-05T07:30:32Z</time>
      </trkpt>
      <trkpt lat="44.15492" lon="1.71899">
        <ele>204.6</ele>
        <time>2023-03-05T07:30:33Z</time>
      </trkpt>
      <trkpt lat="44.1549" lon="1.71897">
        <ele>204.6</ele>
        <time>2023-03-05T07:30:34Z</time>
      </trkpt>
      <trkpt lat="44.15486" lon="1.71894">
        <ele>204.6</ele>
        <time>2023-03-05T07:30:35Z</time>
      </trkpt>
      <trkpt lat="44.15482" lon="1.71891">
        <ele>204.6</ele>
        <time>2023-03-05T07:30:36Z</time>
      </trkpt>
      <trkpt lat="44.1548" lon="1.71889">
        <ele>204.6</ele>
        <time>2023-03-05T07:30:37Z</time>
      </trkpt>
      <trkpt lat="44.15478" lon="1.71887">
        <ele>204.6</ele>
        <time>2023-03-05T07:30:38Z</time>
      </trkpt>
      <trkpt lat="44.15477" lon="1.71885">
        <ele>205</ele>
        <time>2023-03-05T07:30:39Z</time>
      </trkpt>
      <trkpt lat="44.15474" lon="1.71884">
        <ele>205.2</ele>
        <time>2023-03-05T07:30:40Z</time>
      </trkpt>
      <trkpt lat="44.15472" lon="1.71882">
        <ele>205.6</ele>
        <time>2023-03-05T07:30:41Z</time>
      </trkpt>
      <trkpt lat="44.15466" lon="1.7188">
        <ele>205.8</ele>
        <time>2023-03-05T07:30:42Z</time>
      </trkpt>
      <trkpt lat="44.15463" lon="1.71878">
        <ele>206</ele>
        <time>2023-03-05T07:30:43Z</time>
      </trkpt>
      <trkpt lat="44.15461" lon="1.71876">
        <ele>206</ele>
        <time>2023-03-05T07:30:44Z</time>
      </trkpt>
      <trkpt lat="44.1546" lon="1.71875">
        <ele>206</ele>
        <time>2023-03-05T07:30:45Z</time>
      </trkpt>
      <trkpt lat="44.15459" lon="1.71875">
        <ele>206.2</ele>
        <time>2023-03-05T07:30:46Z</time>
      </trkpt>
      <trkpt lat="44.15459" lon="1.71872">
        <ele>206.2</ele>
        <time>2023-03-05T07:30:47Z</time>
      </trkpt>
      <trkpt lat="44.15459" lon="1.71869">
        <ele>206.4</ele>
        <time>2023-03-05T07:30:48Z</time>
      </trkpt>
      <trkpt lat="44.15458" lon="1.71867">
        <ele>206.6</ele>
        <time>2023-03-05T07:30:49Z</time>
      </trkpt>
      <trkpt lat="44.15458" lon="1.71866">
        <ele>206.6</ele>
        <time>2023-03-05T07:30:50Z</time>
      </trkpt>
      <trkpt lat="44.15457" lon="1.71865">
        <ele>206.6</ele>
        <time>2023-03-05T07:30:51Z</time>
      </trkpt>
      <trkpt lat="44.15457" lon="1.71863">
        <ele>206.6</ele>
        <time>2023-03-05T07:30:52Z</time>
      </trkpt>
      <trkpt lat="44.15456" lon="1.71861">
        <ele>206.8</ele>
        <time>2023-03-05T07:30:53Z</time>
      </trkpt>
      <trkpt lat="44.15455" lon="1.71859">
        <ele>206.8</ele>
        <time>2023-03-05T07:30:54Z</time>
      </trkpt>
      <trkpt lat="44.15454" lon="1.71857">
        <ele>206.8</ele>
        <time>2023-03-05T07:30:55Z</time>
      </trkpt>
      <trkpt lat="44.15453" lon="1.71855">
        <ele>206.8</ele>
        <time>2023-03-05T07:30:56Z</time>
      </trkpt>
      <trkpt lat="44.15453" lon="1.71853">
        <ele>206.8</ele>
        <time>2023-03-05T07:30:57Z</time>
      </trkpt>
      <trkpt lat="44.15452" lon="1.7185">
        <ele>206.8</ele>
        <time>2023-03-05T07:30:58Z</time>
      </trkpt>
      <trkpt lat="44.1545" lon="1.71847">
        <ele>206.8</ele>
        <time>2023-03-05T07:30:59Z</time>
      </trkpt>
      <trkpt lat="44.15448" lon="1.71845">
        <ele>206.8</ele>
        <time>2023-03-05T07:31:00Z</time>
      </trkpt>
      <trkpt lat="44.15446" lon="1.71843">
        <ele>206.8</ele>
        <time>2023-03-05T07:31:01Z</time>
      </trkpt>
      <trkpt lat="44.15444" lon="1.71841">
        <ele>206.8</ele>
        <time>2023-03-05T07:31:02Z</time>
      </trkpt>
      <trkpt lat="44.15442" lon="1.71838">
        <ele>206.8</ele>
        <time>2023-03-05T07:31:03Z</time>
      </trkpt>
      <trkpt lat="44.15441" lon="1.71834">
        <ele>206.6</ele>
        <time>2023-03-05T07:31:04Z</time>
      </trkpt>
      <trkpt lat="44.15439" lon="1.71831">
        <ele>206.4</ele>
        <time>2023-03-05T07:31:05Z</time>
      </trkpt>
      <trkpt lat="44.15438" lon="1.71828">
        <ele>206</ele>
        <time>2023-03-05T07:31:06Z</time>
      </trkpt>
      <trkpt lat="44.15437" lon="1.71825">
        <ele>206</ele>
        <time>2023-03-05T07:31:07Z</time>
      </trkpt>
      <trkpt lat="44.15436" lon="1.71823">
        <ele>206</ele>
        <time>2023-03-05T07:31:08Z</time>
      </trkpt>
      <trkpt lat="44.15434" lon="1.71821">
        <ele>205.8</ele>
        <time>2023-03-05T07:31:09Z</time>
      </trkpt>
      <trkpt lat="44.15431" lon="1.71818">
        <ele>205.8</ele>
        <time>2023-03-05T07:31:10Z</time>
      </trkpt>
      <trkpt lat="44.15428" lon="1.71814">
        <ele>205.6</ele>
        <time>2023-03-05T07:31:11Z</time>
      </trkpt>
      <trkpt lat="44.15424" lon="1.71809">
        <ele>205.4</ele>
        <time>2023-03-05T07:31:12Z</time>
      </trkpt>
      <trkpt lat="44.15421" lon="1.71806">
        <ele>205.4</ele>
        <time>2023-03-05T07:31:13Z</time>
      </trkpt>
      <trkpt lat="44.15419" lon="1.71802">
        <ele>205.2</ele>
        <time>2023-03-05T07:31:14Z</time>
      </trkpt>
      <trkpt lat="44.15417" lon="1.71798">
        <ele>205</ele>
        <time>2023-03-05T07:31:15Z</time>
      </trkpt>
      <trkpt lat="44.15414" lon="1.71793">
        <ele>205</ele>
        <time>2023-03-05T07:31:16Z</time>
      </trkpt>
      <trkpt lat="44.15412" lon="1.71789">
        <ele>204.8</ele>
        <time>2023-03-05T07:31:17Z</time>
      </trkpt>
      <trkpt lat="44.1541" lon="1.71786">
        <ele>204.8</ele>
        <time>2023-03-05T07:31:18Z</time>
      </trkpt>
      <trkpt lat="44.15408" lon="1.71784">
        <ele>204.6</ele>
        <time>2023-03-05T07:31:19Z</time>
      </trkpt>
      <trkpt lat="44.15406" lon="1.71782">
        <ele>204.4</ele>
        <time>2023-03-05T07:31:20Z</time>
      </trkpt>
      <trkpt lat="44.15403" lon="1.7178">
        <ele>204.2</ele>
        <time>2023-03-05T07:31:21Z</time>
      </trkpt>
      <trkpt lat="44.154" lon="1.71777">
        <ele>204.2</ele>
        <time>2023-03-05T07:31:22Z</time>
      </trkpt>
      <trkpt lat="44.15396" lon="1.71775">
        <ele>204</ele>
        <time>2023-03-05T07:31:23Z</time>
      </trkpt>
      <trkpt lat="44.15392" lon="1.71773">
        <ele>204</ele>
        <time>2023-03-05T07:31:24Z</time>
      </trkpt>
      <trkpt lat="44.15389" lon="1.7177">
        <ele>204</ele>
        <time>2023-03-05T07:31:25Z</time>
      </trkpt>
      <trkpt lat="44.15387" lon="1.71768">
        <ele>204</ele>
        <time>2023-03-05T07:31:26Z</time>
      </trkpt>
      <trkpt lat="44.15385" lon="1.71766">
        <ele>204</ele>
        <time>2023-03-05T07:31:27Z</time>
      </trkpt>
      <trkpt lat="44.15383" lon="1.71764">
        <ele>204</ele>
        <time>2023-03-05T07:31:28Z</time>
      </trkpt>
      <trkpt lat="44.15381" lon="1.71763">
        <ele>204</ele>
        <time>2023-03-05T07:31:29Z</time>
      </trkpt>
      <trkpt lat="44.1538" lon="1.7176">
        <ele>204</ele>
        <time>2023-03-05T07:31:30Z</time>
      </trkpt>
      <trkpt lat="44.15377" lon="1.71757">
        <ele>204</ele>
        <time>2023-03-05T07:31:31Z</time>
      </trkpt>
      <trkpt lat="44.15376" lon="1.71756">
        <ele>204</ele>
        <time>2023-03-05T07:31:32Z</time>
      </trkpt>
      <trkpt lat="44.15376" lon="1.71754">
        <ele>204</ele>
        <time>2023-03-05T07:31:33Z</time>
      </trkpt>
      <trkpt lat="44.15375" lon="1.71753">
        <ele>204.2</ele>
        <time>2023-03-05T07:31:34Z</time>
      </trkpt>
      <trkpt lat="44.15374" lon="1.71751">
        <ele>204.4</ele>
        <time>2023-03-05T07:31:35Z</time>
      </trkpt>
      <trkpt lat="44.15373" lon="1.7175">
        <ele>204.8</ele>
        <time>2023-03-05T07:31:36Z</time>
      </trkpt>
      <trkpt lat="44.15372" lon="1.71749">
        <ele>205</ele>
        <time>2023-03-05T07:31:37Z</time>
      </trkpt>
      <trkpt lat="44.15372" lon="1.71748">
        <ele>205.4</ele>
        <time>2023-03-05T07:31:38Z</time>
      </trkpt>
      <trkpt lat="44.15373" lon="1.71747">
        <ele>205.4</ele>
        <time>2023-03-05T07:31:39Z</time>
      </trkpt>
      <trkpt lat="44.15373" lon="1.71747">
        <ele>205.8</ele>
        <time>2023-03-05T07:31:40Z</time>
      </trkpt>
      <trkpt lat="44.15374" lon="1.71746">
        <ele>206</ele>
        <time>2023-03-05T07:31:41Z</time>
      </trkpt>
      <trkpt lat="44.15374" lon="1.71746">
        <ele>206.4</ele>
        <time>2023-03-05T07:31:42Z</time>
      </trkpt>
      <trkpt lat="44.15374" lon="1.71746">
        <ele>206.6</ele>
        <time>2023-03-05T07:31:43Z</time>
      </trkpt>
      <trkpt lat="44.15379" lon="1.71749">
        <ele>208.2</ele>
        <time>2023-03-05T07:31:52Z</time>
      </trkpt>
      <trkpt lat="44.15381" lon="1.7175">
        <ele>208.2</ele>
        <time>2023-03-05T07:31:53Z</time>
      </trkpt>
      <trkpt lat="44.15383" lon="1.7175">
        <ele>208.2</ele>
        <time>2023-03-05T07:31:54Z</time>
      </trkpt>
      <trkpt lat="44.15385" lon="1.71751">
        <ele>208.6</ele>
        <time>2023-03-05T07:31:55Z</time>
      </trkpt>
      <trkpt lat="44.15387" lon="1.71752">
        <ele>208.6</ele>
        <time>2023-03-05T07:31:56Z</time>
      </trkpt>
      <trkpt lat="44.15388" lon="1.71752">
        <ele>209</ele>
        <time>2023-03-05T07:31:57Z</time>
      </trkpt>
      <trkpt lat="44.15389" lon="1.71753">
        <ele>209.4</ele>
        <time>2023-03-05T07:31:58Z</time>
      </trkpt>
      <trkpt lat="44.1539" lon="1.71754">
        <ele>209.8</ele>
        <time>2023-03-05T07:31:59Z</time>
      </trkpt>
      <trkpt lat="44.15392" lon="1.71755">
        <ele>210</ele>
        <time>2023-03-05T07:32:00Z</time>
      </trkpt>
      <trkpt lat="44.15394" lon="1.71756">
        <ele>210.6</ele>
        <time>2023-03-05T07:32:01Z</time>
      </trkpt>
      <trkpt lat="44.15395" lon="1.71757">
        <ele>210.8</ele>
        <time>2023-03-05T07:32:02Z</time>
      </trkpt>
      <trkpt lat="44.15397" lon="1.71757">
        <ele>211.2</ele>
        <time>2023-03-05T07:32:03Z</time>
      </trkpt>
      <trkpt lat="44.15399" lon="1.71758">
        <ele>211.4</ele>
        <time>2023-03-05T07:32:04Z</time>
      </trkpt>
      <trkpt lat="44.154" lon="1.71759">
        <ele>211.8</ele>
        <time>2023-03-05T07:32:05Z</time>
      </trkpt>
      <trkpt lat="44.15401" lon="1.7176">
        <ele>212</ele>
        <time>2023-03-05T07:32:06Z</time>
      </trkpt>
      <trkpt lat="44.15403" lon="1.71761">
        <ele>212.2</ele>
        <time>2023-03-05T07:32:07Z</time>
      </trkpt>
      <trkpt lat="44.15404" lon="1.71762">
        <ele>212.4</ele>
        <time>2023-03-05T07:32:08Z</time>
      </trkpt>
      <trkpt lat="44.15406" lon="1.71762">
        <ele>212.8</ele>
        <time>2023-03-05T07:32:09Z</time>
      </trkpt>
      <trkpt lat="44.15407" lon="1.71763">
        <ele>213</ele>
        <time>2023-03-05T07:32:10Z</time>
      </trkpt>
      <trkpt lat="44.15408" lon="1.71764">
        <ele>213.4</ele>
        <time>2023-03-05T07:32:11Z</time>
      </trkpt>
      <trkpt lat="44.1541" lon="1.71765">
        <ele>213.6</ele>
        <time>2023-03-05T07:32:12Z</time>
      </trkpt>
      <trkpt lat="44.15411" lon="1.71767">
        <ele>213.8</ele>
        <time>2023-03-05T07:32:13Z</time>
      </trkpt>
      <trkpt lat="44.15413" lon="1.71768">
        <ele>214</ele>
        <time>2023-03-05T07:32:14Z</time>
      </trkpt>
      <trkpt lat="44.15414" lon="1.71769">
        <ele>214</ele>
        <time>2023-03-05T07:32:15Z</time>
      </trkpt>
      <trkpt lat="44.15416" lon="1.7177">
        <ele>214</ele>
        <time>2023-03-05T07:32:16Z</time>
      </trkpt>
      <trkpt lat="44.15418" lon="1.71771">
        <ele>214.2</ele>
        <time>2023-03-05T07:32:17Z</time>
      </trkpt>
      <trkpt lat="44.15419" lon="1.71772">
        <ele>214.6</ele>
        <time>2023-03-05T07:32:18Z</time>
      </trkpt>
      <trkpt lat="44.15421" lon="1.71773">
        <ele>214.6</ele>
        <time>2023-03-05T07:32:19Z</time>
      </trkpt>
      <trkpt lat="44.15422" lon="1.71775">
        <ele>215</ele>
        <time>2023-03-05T07:32:20Z</time>
      </trkpt>
      <trkpt lat="44.15423" lon="1.71776">
        <ele>215.2</ele>
        <time>2023-03-05T07:32:21Z</time>
      </trkpt>
      <trkpt lat="44.15425" lon="1.71778">
        <ele>215.6</ele>
        <time>2023-03-05T07:32:22Z</time>
      </trkpt>
      <trkpt lat="44.15426" lon="1.71779">
        <ele>215.8</ele>
        <time>2023-03-05T07:32:23Z</time>
      </trkpt>
      <trkpt lat="44.15428" lon="1.7178">
        <ele>216</ele>
        <time>2023-03-05T07:32:24Z</time>
      </trkpt>
      <trkpt lat="44.15429" lon="1.71781">
        <ele>216.4</ele>
        <time>2023-03-05T07:32:25Z</time>
      </trkpt>
      <trkpt lat="44.15431" lon="1.71783">
        <ele>216.8</ele>
        <time>2023-03-05T07:32:26Z</time>
      </trkpt>
      <trkpt lat="44.15432" lon="1.71785">
        <ele>217</ele>
        <time>2023-03-05T07:32:27Z</time>
      </trkpt>
      <trkpt lat="44.15434" lon="1.71787">
        <ele>217.2</ele>
        <time>2023-03-05T07:32:28Z</time>
      </trkpt>
      <trkpt lat="44.15435" lon="1.71789">
        <ele>217.2</ele>
        <time>2023-03-05T07:32:29Z</time>
      </trkpt>
      <trkpt lat="44.15436" lon="1.71791">
        <ele>217.6</ele>
        <time>2023-03-05T07:32:30Z</time>
      </trkpt>
      <trkpt lat="44.15437" lon="1.71793">
        <ele>217.6</ele>
        <time>2023-03-05T07:32:31Z</time>
      </trkpt>
      <trkpt lat="44.15439" lon="1.71795">
        <ele>217.8</ele>
        <time>2023-03-05T07:32:32Z</time>
      </trkpt>
      <trkpt lat="44.15441" lon="1.71797">
        <ele>218</ele>
        <time>2023-03-05T07:32:33Z</time>
      </trkpt>
      <trkpt lat="44.15442" lon="1.71799">
        <ele>218</ele>
        <time>2023-03-05T07:32:34Z</time>
      </trkpt>
      <trkpt lat="44.15444" lon="1.71801">
        <ele>218.2</ele>
        <time>2023-03-05T07:32:35Z</time>
      </trkpt>
      <trkpt lat="44.15445" lon="1.71803">
        <ele>218.2</ele>
        <time>2023-03-05T07:32:36Z</time>
      </trkpt>
      <trkpt lat="44.15447" lon="1.71805">
        <ele>218.2</ele>
        <time>2023-03-05T07:32:37Z</time>
      </trkpt>
      <trkpt lat="44.15449" lon="1.71808">
        <ele>218.2</ele>
        <time>2023-03-05T07:32:38Z</time>
      </trkpt>
      <trkpt lat="44.15451" lon="1.7181">
        <ele>218.4</ele>
        <time>2023-03-05T07:32:39Z</time>
      </trkpt>
      <trkpt lat="44.15453" lon="1.71812">
        <ele>218.4</ele>
        <time>2023-03-05T07:32:40Z</time>
      </trkpt>
      <trkpt lat="44.15454" lon="1.71814">
        <ele>218.8</ele>
        <time>2023-03-05T07:32:41Z</time>
      </trkpt>
      <trkpt lat="44.15456" lon="1.71816">
        <ele>218.8</ele>
        <time>2023-03-05T07:32:42Z</time>
      </trkpt>
      <trkpt lat="44.15457" lon="1.71818">
        <ele>219</ele>
        <time>2023-03-05T07:32:43Z</time>
      </trkpt>
      <trkpt lat="44.15459" lon="1.7182">
        <ele>219.2</ele>
        <time>2023-03-05T07:32:44Z</time>
      </trkpt>
      <trkpt lat="44.1546" lon="1.71821">
        <ele>219.4</ele>
        <time>2023-03-05T07:32:45Z</time>
      </trkpt>
      <trkpt lat="44.15462" lon="1.71823">
        <ele>219.6</ele>
        <time>2023-03-05T07:32:46Z</time>
      </trkpt>
      <trkpt lat="44.15464" lon="1.71824">
        <ele>219.8</ele>
        <time>2023-03-05T07:32:47Z</time>
      </trkpt>
      <trkpt lat="44.15465" lon="1.71825">
        <ele>219.8</ele>
        <time>2023-03-05T07:32:48Z</time>
      </trkpt>
      <trkpt lat="44.15467" lon="1.71826">
        <ele>219.8</ele>
        <time>2023-03-05T07:32:49Z</time>
      </trkpt>
      <trkpt lat="44.15468" lon="1.71827">
        <ele>220</ele>
        <time>2023-03-05T07:32:50Z</time>
      </trkpt>
      <trkpt lat="44.1547" lon="1.71829">
        <ele>220.2</ele>
        <time>2023-03-05T07:32:51Z</time>
      </trkpt>
      <trkpt lat="44.15472" lon="1.7183">
        <ele>220.4</ele>
        <time>2023-03-05T07:32:52Z</time>
      </trkpt>
      <trkpt lat="44.15473" lon="1.71832">
        <ele>220.6</ele>
        <time>2023-03-05T07:32:53Z</time>
      </trkpt>
      <trkpt lat="44.15475" lon="1.71833">
        <ele>220.8</ele>
        <time>2023-03-05T07:32:54Z</time>
      </trkpt>
      <trkpt lat="44.15477" lon="1.71834">
        <ele>221</ele>
        <time>2023-03-05T07:32:55Z</time>
      </trkpt>
      <trkpt lat="44.15478" lon="1.71836">
        <ele>221.2</ele>
        <time>2023-03-05T07:32:56Z</time>
      </trkpt>
      <trkpt lat="44.1548" lon="1.71837">
        <ele>221.4</ele>
        <time>2023-03-05T07:32:57Z</time>
      </trkpt>
      <trkpt lat="44.15482" lon="1.71838">
        <ele>221.6</ele>
        <time>2023-03-05T07:32:58Z</time>
      </trkpt>
      <trkpt lat="44.15483" lon="1.71839">
        <ele>221.8</ele>
        <time>2023-03-05T07:32:59Z</time>
      </trkpt>
      <trkpt lat="44.15485" lon="1.7184">
        <ele>222.2</ele>
        <time>2023-03-05T07:33:00Z</time>
      </trkpt>
      <trkpt lat="44.15487" lon="1.71841">
        <ele>222.4</ele>
        <time>2023-03-05T07:33:01Z</time>
      </trkpt>
      <trkpt lat="44.15488" lon="1.71842">
        <ele>222.6</ele>
        <time>2023-03-05T07:33:02Z</time>
      </trkpt>
      <trkpt lat="44.15489" lon="1.71843">
        <ele>222.8</ele>
        <time>2023-03-05T07:33:03Z</time>
      </trkpt>
      <trkpt lat="44.1549" lon="1.71844">
        <ele>223.2</ele>
        <time>2023-03-05T07:33:04Z</time>
      </trkpt>
      <trkpt lat="44.15492" lon="1.71844">
        <ele>223.4</ele>
        <time>2023-03-05T07:33:05Z</time>
      </trkpt>
      <trkpt lat="44.15493" lon="1.71845">
        <ele>223.4</ele>
        <time>2023-03-05T07:33:06Z</time>
      </trkpt>
      <trkpt lat="44.15494" lon="1.71845">
        <ele>223.6</ele>
        <time>2023-03-05T07:33:07Z</time>
      </trkpt>
      <trkpt lat="44.15495" lon="1.71845">
        <ele>223.8</ele>
        <time>2023-03-05T07:33:08Z</time>
      </trkpt>
      <trkpt lat="44.15497" lon="1.71846">
        <ele>223.8</ele>
        <time>2023-03-05T07:33:09Z</time>
      </trkpt>
      <trkpt lat="44.15498" lon="1.71846">
        <ele>223.8</ele>
        <time>2023-03-05T07:33:10Z</time>
      </trkpt>
      <trkpt lat="44.15499" lon="1.71847">
        <ele>224</ele>
        <time>2023-03-05T07:33:11Z</time>
      </trkpt>
      <trkpt lat="44.155" lon="1.71847">
        <ele>224.2</ele>
        <time>2023-03-05T07:33:12Z</time>
      </trkpt>
      <trkpt lat="44.15501" lon="1.71848">
        <ele>224.4</ele>
        <time>2023-03-05T07:33:13Z</time>
      </trkpt>
      <trkpt lat="44.15503" lon="1.71848">
        <ele>224.6</ele>
        <time>2023-03-05T07:33:14Z</time>
      </trkpt>
      <trkpt lat="44.15503" lon="1.71849">
        <ele>224.8</ele>
        <time>2023-03-05T07:33:15Z</time>
      </trkpt>
      <trkpt lat="44.15504" lon="1.71849">
        <ele>224.8</ele>
        <time>2023-03-05T07:33:16Z</time>
      </trkpt>
      <trkpt lat="44.15506" lon="1.7185">
        <ele>225</ele>
        <time>2023-03-05T07:33:17Z</time>
      </trkpt>
      <trkpt lat="44.15507" lon="1.7185">
        <ele>225</ele>
        <time>2023-03-05T07:33:18Z</time>
      </trkpt>
      <trkpt lat="44.15508" lon="1.71852">
        <ele>225</ele>
        <time>2023-03-05T07:33:19Z</time>
      </trkpt>
      <trkpt lat="44.15509" lon="1.71853">
        <ele>225.2</ele>
        <time>2023-03-05T07:33:20Z</time>
      </trkpt>
      <trkpt lat="44.1551" lon="1.71854">
        <ele>225.2</ele>
        <time>2023-03-05T07:33:21Z</time>
      </trkpt>
      <trkpt lat="44.15511" lon="1.71855">
        <ele>225.4</ele>
        <time>2023-03-05T07:33:22Z</time>
      </trkpt>
      <trkpt lat="44.15513" lon="1.71856">
        <ele>225.6</ele>
        <time>2023-03-05T07:33:23Z</time>
      </trkpt>
      <trkpt lat="44.15514" lon="1.71856">
        <ele>225.6</ele>
        <time>2023-03-05T07:33:24Z</time>
      </trkpt>
      <trkpt lat="44.15515" lon="1.71857">
        <ele>225.8</ele>
        <time>2023-03-05T07:33:25Z</time>
      </trkpt>
      <trkpt lat="44.15516" lon="1.71857">
        <ele>226</ele>
        <time>2023-03-05T07:33:26Z</time>
      </trkpt>
      <trkpt lat="44.15517" lon="1.71858">
        <ele>226.2</ele>
        <time>2023-03-05T07:33:27Z</time>
      </trkpt>
      <trkpt lat="44.15518" lon="1.71859">
        <ele>226.2</ele>
        <time>2023-03-05T07:33:28Z</time>
      </trkpt>
      <trkpt lat="44.15519" lon="1.7186">
        <ele>226.6</ele>
        <time>2023-03-05T07:33:29Z</time>
      </trkpt>
      <trkpt lat="44.1552" lon="1.71861">
        <ele>226.6</ele>
        <time>2023-03-05T07:33:30Z</time>
      </trkpt>
      <trkpt lat="44.15522" lon="1.71861">
        <ele>227</ele>
        <time>2023-03-05T07:33:31Z</time>
      </trkpt>
      <trkpt lat="44.15523" lon="1.71863">
        <ele>227.2</ele>
        <time>2023-03-05T07:33:32Z</time>
      </trkpt>
      <trkpt lat="44.15524" lon="1.71864">
        <ele>227.4</ele>
        <time>2023-03-05T07:33:33Z</time>
      </trkpt>
      <trkpt lat="44.15525" lon="1.71865">
        <ele>227.6</ele>
        <time>2023-03-05T07:33:34Z</time>
      </trkpt>
      <trkpt lat="44.15526" lon="1.71866">
        <ele>227.8</ele>
        <time>2023-03-05T07:33:35Z</time>
      </trkpt>
      <trkpt lat="44.15527" lon="1.71867">
        <ele>228.4</ele>
        <time>2023-03-05T07:33:36Z</time>
      </trkpt>
      <trkpt lat="44.15528" lon="1.71868">
        <ele>228.8</ele>
        <time>2023-03-05T07:33:37Z</time>
      </trkpt>
      <trkpt lat="44.15529" lon="1.71869">
        <ele>229</ele>
        <time>2023-03-05T07:33:38Z</time>
      </trkpt>
      <trkpt lat="44.15529" lon="1.71869">
        <ele>229.2</ele>
        <time>2023-03-05T07:33:39Z</time>
      </trkpt>
      <trkpt lat="44.15529" lon="1.71869">
        <ele>229.4</ele>
        <time>2023-03-05T07:33:40Z</time>
      </trkpt>
      <trkpt lat="44.15529" lon="1.71869">
        <ele>229.4</ele>
        <time>2023-03-05T07:33:41Z</time>
      </trkpt>
      <trkpt lat="44.15555" lon="1.71889">
        <ele>234.6</ele>
        <time>2023-03-05T07:34:22Z</time>
      </trkpt>
      <trkpt lat="44.15557" lon="1.7189">
        <ele>234.6</ele>
        <time>2023-03-05T07:34:23Z</time>
      </trkpt>
      <trkpt lat="44.15558" lon="1.71891">
        <ele>235</ele>
        <time>2023-03-05T07:34:24Z</time>
      </trkpt>
      <trkpt lat="44.15559" lon="1.71893">
        <ele>235.2</ele>
        <time>2023-03-05T07:34:25Z</time>
      </trkpt>
      <trkpt lat="44.1556" lon="1.71894">
        <ele>235.6</ele>
        <time>2023-03-05T07:34:26Z</time>
      </trkpt>
      <trkpt lat="44.15561" lon="1.71895">
        <ele>235.6</ele>
        <time>2023-03-05T07:34:27Z</time>
      </trkpt>
      <trkpt lat="44.15562" lon="1.71897">
        <ele>235.8</ele>
        <time>2023-03-05T07:34:28Z</time>
      </trkpt>
      <trkpt lat="44.15563" lon="1.71898">
        <ele>236</ele>
        <time>2023-03-05T07:34:29Z</time>
      </trkpt>
      <trkpt lat="44.15564" lon="1.719">
        <ele>236.2</ele>
        <time>2023-03-05T07:34:30Z</time>
      </trkpt>
      <trkpt lat="44.15564" lon="1.71902">
        <ele>236.4</ele>
        <time>2023-03-05T07:34:31Z</time>
      </trkpt>
      <trkpt lat="44.15565" lon="1.71902">
        <ele>236.4</ele>
        <time>2023-03-05T07:34:32Z</time>
      </trkpt>
      <trkpt lat="44.15567" lon="1.71902">
        <ele>236.6</ele>
        <time>2023-03-05T07:34:33Z</time>
      </trkpt>
      <trkpt lat="44.15568" lon="1.71901">
        <ele>237.2</ele>
        <time>2023-03-05T07:34:34Z</time>
      </trkpt>
      <trkpt lat="44.15568" lon="1.71899">
        <ele>237.8</ele>
        <time>2023-03-05T07:34:35Z</time>
      </trkpt>
      <trkpt lat="44.15568" lon="1.71898">
        <ele>238</ele>
        <time>2023-03-05T07:34:36Z</time>
      </trkpt>
      <trkpt lat="44.15567" lon="1.71895">
        <ele>238.2</ele>
        <time>2023-03-05T07:34:37Z</time>
      </trkpt>
      <trkpt lat="44.15566" lon="1.71893">
        <ele>238.4</ele>
        <time>2023-03-05T07:34:38Z</time>
      </trkpt>
      <trkpt lat="44.15566" lon="1.7189">
        <ele>238.6</ele>
        <time>2023-03-05T07:34:39Z</time>
      </trkpt>
      <trkpt lat="44.15565" lon="1.71888">
        <ele>238.6</ele>
        <time>2023-03-05T07:34:40Z</time>
      </trkpt>
      <trkpt lat="44.15564" lon="1.71885">
        <ele>238.8</ele>
        <time>2023-03-05T07:34:41Z</time>
      </trkpt>
      <trkpt lat="44.15563" lon="1.71883">
        <ele>239.2</ele>
        <time>2023-03-05T07:34:42Z</time>
      </trkpt>
      <trkpt lat="44.15563" lon="1.7188">
        <ele>239.8</ele>
        <time>2023-03-05T07:34:43Z</time>
      </trkpt>
      <trkpt lat="44.15562" lon="1.71878">
        <ele>240</ele>
        <time>2023-03-05T07:34:44Z</time>
      </trkpt>
      <trkpt lat="44.15561" lon="1.71876">
        <ele>240.4</ele>
        <time>2023-03-05T07:34:45Z</time>
      </trkpt>
      <trkpt lat="44.15561" lon="1.71873">
        <ele>240.4</ele>
        <time>2023-03-05T07:34:46Z</time>
      </trkpt>
      <trkpt lat="44.1556" lon="1.71871">
        <ele>240.6</ele>
        <time>2023-03-05T07:34:47Z</time>
      </trkpt>
      <trkpt lat="44.15559" lon="1.71868">
        <ele>240.8</ele>
        <time>2023-03-05T07:34:48Z</time>
      </trkpt>
      <trkpt lat="44.15558" lon="1.71866">
        <ele>241.2</ele>
        <time>2023-03-05T07:34:49Z</time>
      </trkpt>
      <trkpt lat="44.15557" lon="1.71863">
        <ele>241.4</ele>
        <time>2023-03-05T07:34:50Z</time>
      </trkpt>
      <trkpt lat="44.15556" lon="1.7186">
        <ele>241.8</ele>
        <time>2023-03-05T07:34:51Z</time>
      </trkpt>
      <trkpt lat="44.15555" lon="1.71858">
        <ele>242</ele>
        <time>2023-03-05T07:34:52Z</time>
      </trkpt>
      <trkpt lat="44.15554" lon="1.71856">
        <ele>242.2</ele>
        <time>2023-03-05T07:34:53Z</time>
      </trkpt>
      <trkpt lat="44.15553" lon="1.71854">
        <ele>242.2</ele>
        <time>2023-03-05T07:34:54Z</time>
      </trkpt>
      <trkpt lat="44.15552" lon="1.71852">
        <ele>242.6</ele>
        <time>2023-03-05T07:34:55Z</time>
      </trkpt>
      <trkpt lat="44.15551" lon="1.7185">
        <ele>243</ele>
        <time>2023-03-05T07:34:56Z</time>
      </trkpt>
      <trkpt lat="44.1555" lon="1.71849">
        <ele>243.2</ele>
        <time>2023-03-05T07:34:57Z</time>
      </trkpt>
      <trkpt lat="44.15549" lon="1.71847">
        <ele>243.4</ele>
        <time>2023-03-05T07:34:58Z</time>
      </trkpt>
      <trkpt lat="44.15548" lon="1.71845">
        <ele>243.6</ele>
        <time>2023-03-05T07:34:59Z</time>
      </trkpt>
      <trkpt lat="44.15547" lon="1.71843">
        <ele>244</ele>
        <time>2023-03-05T07:35:00Z</time>
      </trkpt>
      <trkpt lat="44.15546" lon="1.71842">
        <ele>244</ele>
        <time>2023-03-05T07:35:01Z</time>
      </trkpt>
      <trkpt lat="44.15546" lon="1.7184">
        <ele>244.2</ele>
        <time>2023-03-05T07:35:02Z</time>
      </trkpt>
      <trkpt lat="44.15547" lon="1.71839">
        <ele>244.4</ele>
        <time>2023-03-05T07:35:03Z</time>
      </trkpt>
      <trkpt lat="44.15549" lon="1.71839">
        <ele>244.8</ele>
        <time>2023-03-05T07:35:04Z</time>
      </trkpt>
      <trkpt lat="44.1555" lon="1.7184">
        <ele>244.8</ele>
        <time>2023-03-05T07:35:05Z</time>
      </trkpt>
      <trkpt lat="44.15551" lon="1.71841">
        <ele>245</ele>
        <time>2023-03-05T07:35:06Z</time>
      </trkpt>
      <trkpt lat="44.15553" lon="1.71843">
        <ele>245.2</ele>
        <time>2023-03-05T07:35:07Z</time>
      </trkpt>
      <trkpt lat="44.15554" lon="1.71845">
        <ele>245.6</ele>
        <time>2023-03-05T07:35:08Z</time>
      </trkpt>
      <trkpt lat="44.15555" lon="1.71847">
        <ele>245.8</ele>
        <time>2023-03-05T07:35:09Z</time>
      </trkpt>
      <trkpt lat="44.15557" lon="1.71849">
        <ele>246</ele>
        <time>2023-03-05T07:35:10Z</time>
      </trkpt>
      <trkpt lat="44.15559" lon="1.7185">
        <ele>246.2</ele>
        <time>2023-03-05T07:35:11Z</time>
      </trkpt>
      <trkpt lat="44.15561" lon="1.71852">
        <ele>246.4</ele>
        <time>2023-03-05T07:35:12Z</time>
      </trkpt>
      <trkpt lat="44.15562" lon="1.71854">
        <ele>246.6</ele>
        <time>2023-03-05T07:35:13Z</time>
      </trkpt>
      <trkpt lat="44.15564" lon="1.71857">
        <ele>246.8</ele>
        <time>2023-03-05T07:35:14Z</time>
      </trkpt>
      <trkpt lat="44.15566" lon="1.71859">
        <ele>247</ele>
        <time>2023-03-05T07:35:15Z</time>
      </trkpt>
      <trkpt lat="44.15568" lon="1.71861">
        <ele>247.2</ele>
        <time>2023-03-05T07:35:16Z</time>
      </trkpt>
      <trkpt lat="44.15569" lon="1.71863">
        <ele>247.6</ele>
        <time>2023-03-05T07:35:17Z</time>
      </trkpt>
      <trkpt lat="44.15571" lon="1.71865">
        <ele>247.6</ele>
        <time>2023-03-05T07:35:18Z</time>
      </trkpt>
      <trkpt lat="44.15572" lon="1.71866">
        <ele>248</ele>
        <time>2023-03-05T07:35:19Z</time>
      </trkpt>
      <trkpt lat="44.15574" lon="1.71868">
        <ele>248.2</ele>
        <time>2023-03-05T07:35:20Z</time>
      </trkpt>
      <trkpt lat="44.15575" lon="1.7187">
        <ele>248.4</ele>
        <time>2023-03-05T07:35:21Z</time>
      </trkpt>
      <trkpt lat="44.15577" lon="1.71871">
        <ele>248.4</ele>
        <time>2023-03-05T07:35:22Z</time>
      </trkpt>
      <trkpt lat="44.15578" lon="1.71873">
        <ele>248.6</ele>
        <time>2023-03-05T07:35:23Z</time>
      </trkpt>
      <trkpt lat="44.15579" lon="1.71875">
        <ele>248.8</ele>
        <time>2023-03-05T07:35:24Z</time>
      </trkpt>
      <trkpt lat="44.15581" lon="1.71877">
        <ele>249.2</ele>
        <time>2023-03-05T07:35:25Z</time>
      </trkpt>
      <trkpt lat="44.15582" lon="1.71878">
        <ele>249.4</ele>
        <time>2023-03-05T07:35:26Z</time>
      </trkpt>
      <trkpt lat="44.15583" lon="1.7188">
        <ele>249.6</ele>
        <time>2023-03-05T07:35:27Z</time>
      </trkpt>
      <trkpt lat="44.15584" lon="1.71882">
        <ele>249.8</ele>
        <time>2023-03-05T07:35:28Z</time>
      </trkpt>
      <trkpt lat="44.15585" lon="1.71883">
        <ele>250.2</ele>
        <time>2023-03-05T07:35:29Z</time>
      </trkpt>
      <trkpt lat="44.15586" lon="1.71885">
        <ele>250.4</ele>
        <time>2023-03-05T07:35:30Z</time>
      </trkpt>
      <trkpt lat="44.15587" lon="1.71886">
        <ele>250.8</ele>
        <time>2023-03-05T07:35:31Z</time>
      </trkpt>
      <trkpt lat="44.15588" lon="1.71887">
        <ele>251</ele>
        <time>2023-03-05T07:35:32Z</time>
      </trkpt>
      <trkpt lat="44.15589" lon="1.71889">
        <ele>251.4</ele>
        <time>2023-03-05T07:35:33Z</time>
      </trkpt>
      <trkpt lat="44.1559" lon="1.7189">
        <ele>251.4</ele>
        <time>2023-03-05T07:35:34Z</time>
      </trkpt>
      <trkpt lat="44.15591" lon="1.71892">
        <ele>251.8</ele>
        <time>2023-03-05T07:35:35Z</time>
      </trkpt>
      <trkpt lat="44.15592" lon="1.71893">
        <ele>251.8</ele>
        <time>2023-03-05T07:35:36Z</time>
      </trkpt>
      <trkpt lat="44.15593" lon="1.71895">
        <ele>252</ele>
        <time>2023-03-05T07:35:37Z</time>
      </trkpt>
      <trkpt lat="44.15594" lon="1.71896">
        <ele>252.2</ele>
        <time>2023-03-05T07:35:38Z</time>
      </trkpt>
      <trkpt lat="44.15595" lon="1.71898">
        <ele>252.4</ele>
        <time>2023-03-05T07:35:39Z</time>
      </trkpt>
      <trkpt lat="44.15596" lon="1.71899">
        <ele>252.4</ele>
        <time>2023-03-05T07:35:40Z</time>
      </trkpt>
      <trkpt lat="44.15597" lon="1.719">
        <ele>252.6</ele>
        <time>2023-03-05T07:35:41Z</time>
      </trkpt>
      <trkpt lat="44.15599" lon="1.71902">
        <ele>252.6</ele>
        <time>2023-03-05T07:35:42Z</time>
      </trkpt>
      <trkpt lat="44.156" lon="1.71903">
        <ele>252.6</ele>
        <time>2023-03-05T07:35:43Z</time>
      </trkpt>
      <trkpt lat="44.15601" lon="1.71905">
        <ele>252.8</ele>
        <time>2023-03-05T07:35:44Z</time>
      </trkpt>
      <trkpt lat="44.15602" lon="1.71906">
        <ele>252.8</ele>
        <time>2023-03-05T07:35:45Z</time>
      </trkpt>
      <trkpt lat="44.15603" lon="1.71907">
        <ele>253</ele>
        <time>2023-03-05T07:35:46Z</time>
      </trkpt>
      <trkpt lat="44.15604" lon="1.71909">
        <ele>253.2</ele>
        <time>2023-03-05T07:35:47Z</time>
      </trkpt>
      <trkpt lat="44.15605" lon="1.7191">
        <ele>253.4</ele>
        <time>2023-03-05T07:35:48Z</time>
      </trkpt>
      <trkpt lat="44.15606" lon="1.71911">
        <ele>253.6</ele>
        <time>2023-03-05T07:35:49Z</time>
      </trkpt>
      <trkpt lat="44.15606" lon="1.71912">
        <ele>254</ele>
        <time>2023-03-05T07:35:50Z</time>
      </trkpt>
      <trkpt lat="44.15607" lon="1.71913">
        <ele>254.2</ele>
        <time>2023-03-05T07:35:51Z</time>
      </trkpt>
      <trkpt lat="44.15608" lon="1.71914">
        <ele>254.2</ele>
        <time>2023-03-05T07:35:52Z</time>
      </trkpt>
      <trkpt lat="44.15609" lon="1.71915">
        <ele>254.6</ele>
        <time>2023-03-05T07:35:53Z</time>
      </trkpt>
      <trkpt lat="44.1561" lon="1.71916">
        <ele>255</ele>
        <time>2023-03-05T07:35:54Z</time>
      </trkpt>
      <trkpt lat="44.15611" lon="1.71917">
        <ele>255.2</ele>
        <time>2023-03-05T07:35:55Z</time>
      </trkpt>
      <trkpt lat="44.15612" lon="1.71919">
        <ele>255.2</ele>
        <time>2023-03-05T07:35:56Z</time>
      </trkpt>
      <trkpt lat="44.15613" lon="1.7192">
        <ele>255.4</ele>
        <time>2023-03-05T07:35:57Z</time>
      </trkpt>
      <trkpt lat="44.15614" lon="1.71921">
        <ele>255.4</ele>
        <time>2023-03-05T07:35:58Z</time>
      </trkpt>
      <trkpt lat="44.15615" lon="1.71922">
        <ele>255.6</ele>
        <time>2023-03-05T07:35:59Z</time>
      </trkpt>
      <trkpt lat="44.15616" lon="1.71923">
        <ele>256</ele>
        <time>2023-03-05T07:36:00Z</time>
      </trkpt>
      <trkpt lat="44.15617" lon="1.71925">
        <ele>256.4</ele>
        <time>2023-03-05T07:36:01Z</time>
      </trkpt>
      <trkpt lat="44.15618" lon="1.71926">
        <ele>256.6</ele>
        <time>2023-03-05T07:36:02Z</time>
      </trkpt>
      <trkpt lat="44.15618" lon="1.71928">
        <ele>256.8</ele>
        <time>2023-03-05T07:36:03Z</time>
      </trkpt>
      <trkpt lat="44.15619" lon="1.7193">
        <ele>257</ele>
        <time>2023-03-05T07:36:04Z</time>
      </trkpt>
      <trkpt lat="44.1562" lon="1.71931">
        <ele>257.2</ele>
        <time>2023-03-05T07:36:05Z</time>
      </trkpt>
      <trkpt lat="44.15621" lon="1.71932">
        <ele>257.2</ele>
        <time>2023-03-05T07:36:06Z</time>
      </trkpt>
      <trkpt lat="44.15622" lon="1.71934">
        <ele>257.6</ele>
        <time>2023-03-05T07:36:07Z</time>
      </trkpt>
      <trkpt lat="44.15623" lon="1.71935">
        <ele>257.6</ele>
        <time>2023-03-05T07:36:08Z</time>
      </trkpt>
      <trkpt lat="44.15624" lon="1.71936">
        <ele>258</ele>
        <time>2023-03-05T07:36:09Z</time>
      </trkpt>
      <trkpt lat="44.15624" lon="1.71937">
        <ele>258.2</ele>
        <time>2023-03-05T07:36:10Z</time>
      </trkpt>
      <trkpt lat="44.15625" lon="1.71938">
        <ele>258.4</ele>
        <time>2023-03-05T07:36:11Z</time>
      </trkpt>
      <trkpt lat="44.15626" lon="1.71939">
        <ele>258.6</ele>
        <time>2023-03-05T07:36:12Z</time>
      </trkpt>
      <trkpt lat="44.15627" lon="1.7194">
        <ele>259</ele>
        <time>2023-03-05T07:36:13Z</time>
      </trkpt>
      <trkpt lat="44.15628" lon="1.71942">
        <ele>259</ele>
        <time>2023-03-05T07:36:14Z</time>
      </trkpt>
      <trkpt lat="44.15629" lon="1.71943">
        <ele>259.2</ele>
        <time>2023-03-05T07:36:15Z</time>
      </trkpt>
      <trkpt lat="44.1563" lon="1.71944">
        <ele>259.6</ele>
        <time>2023-03-05T07:36:16Z</time>
      </trkpt>
      <trkpt lat="44.15631" lon="1.71945">
        <ele>259.6</ele>
        <time>2023-03-05T07:36:17Z</time>
      </trkpt>
      <trkpt lat="44.15632" lon="1.71947">
        <ele>259.8</ele>
        <time>2023-03-05T07:36:18Z</time>
      </trkpt>
      <trkpt lat="44.15632" lon="1.71948">
        <ele>259.8</ele>
        <time>2023-03-05T07:36:19Z</time>
      </trkpt>
      <trkpt lat="44.15633" lon="1.71949">
        <ele>260.4</ele>
        <time>2023-03-05T07:36:20Z</time>
      </trkpt>
      <trkpt lat="44.15633" lon="1.7195">
        <ele>260.6</ele>
        <time>2023-03-05T07:36:21Z</time>
      </trkpt>
      <trkpt lat="44.15634" lon="1.71952">
        <ele>261</ele>
        <time>2023-03-05T07:36:22Z</time>
      </trkpt>
      <trkpt lat="44.15635" lon="1.71953">
        <ele>261</ele>
        <time>2023-03-05T07:36:23Z</time>
      </trkpt>
      <trkpt lat="44.15636" lon="1.71953">
        <ele>261.4</ele>
        <time>2023-03-05T07:36:24Z</time>
      </trkpt>
      <trkpt lat="44.15637" lon="1.71953">
        <ele>261.4</ele>
        <time>2023-03-05T07:36:25Z</time>
      </trkpt>
      <trkpt lat="44.15638" lon="1.71951">
        <ele>262</ele>
        <time>2023-03-05T07:36:26Z</time>
      </trkpt>
      <trkpt lat="44.15638" lon="1.7195">
        <ele>262.2</ele>
        <time>2023-03-05T07:36:27Z</time>
      </trkpt>
      <trkpt lat="44.15638" lon="1.71947">
        <ele>262.4</ele>
        <time>2023-03-05T07:36:28Z</time>
      </trkpt>
      <trkpt lat="44.15637" lon="1.71945">
        <ele>262.6</ele>
        <time>2023-03-05T07:36:29Z</time>
      </trkpt>
      <trkpt lat="44.15636" lon="1.71942">
        <ele>262.8</ele>
        <time>2023-03-05T07:36:30Z</time>
      </trkpt>
      <trkpt lat="44.15635" lon="1.7194">
        <ele>262.8</ele>
        <time>2023-03-05T07:36:31Z</time>
      </trkpt>
      <trkpt lat="44.15634" lon="1.71937">
        <ele>263</ele>
        <time>2023-03-05T07:36:32Z</time>
      </trkpt>
      <trkpt lat="44.15633" lon="1.71934">
        <ele>263.2</ele>
        <time>2023-03-05T07:36:33Z</time>
      </trkpt>
      <trkpt lat="44.15633" lon="1.71932">
        <ele>263.2</ele>
        <time>2023-03-05T07:36:34Z</time>
      </trkpt>
      <trkpt lat="44.15632" lon="1.71929">
        <ele>263.4</ele>
        <time>2023-03-05T07:36:35Z</time>
      </trkpt>
      <trkpt lat="44.15631" lon="1.71926">
        <ele>263.6</ele>
        <time>2023-03-05T07:36:36Z</time>
      </trkpt>
      <trkpt lat="44.15631" lon="1.71923">
        <ele>263.8</ele>
        <time>2023-03-05T07:36:37Z</time>
      </trkpt>
      <trkpt lat="44.1563" lon="1.7192">
        <ele>264</ele>
        <time>2023-03-05T07:36:38Z</time>
      </trkpt>
      <trkpt lat="44.15629" lon="1.71916">
        <ele>264.2</ele>
        <time>2023-03-05T07:36:39Z</time>
      </trkpt>
      <trkpt lat="44.15628" lon="1.71913">
        <ele>264.2</ele>
        <time>2023-03-05T07:36:40Z</time>
      </trkpt>
      <trkpt lat="44.15627" lon="1.7191">
        <ele>264.4</ele>
        <time>2023-03-05T07:36:41Z</time>
      </trkpt>
      <trkpt lat="44.15626" lon="1.71907">
        <ele>264.4</ele>
        <time>2023-03-05T07:36:42Z</time>
      </trkpt>
      <trkpt lat="44.15625" lon="1.71904">
        <ele>264.6</ele>
        <time>2023-03-05T07:36:43Z</time>
      </trkpt>
      <trkpt lat="44.15624" lon="1.719">
        <ele>264.6</ele>
        <time>2023-03-05T07:36:44Z</time>
      </trkpt>
      <trkpt lat="44.15622" lon="1.71897">
        <ele>264.8</ele>
        <time>2023-03-05T07:36:45Z</time>
      </trkpt>
      <trkpt lat="44.15621" lon="1.71893">
        <ele>265</ele>
        <time>2023-03-05T07:36:46Z</time>
      </trkpt>
      <trkpt lat="44.1562" lon="1.7189">
        <ele>265</ele>
        <time>2023-03-05T07:36:47Z</time>
      </trkpt>
      <trkpt lat="44.15619" lon="1.71886">
        <ele>265</ele>
        <time>2023-03-05T07:36:48Z</time>
      </trkpt>
      <trkpt lat="44.15619" lon="1.71883">
        <ele>265.2</ele>
        <time>2023-03-05T07:36:49Z</time>
      </trkpt>
      <trkpt lat="44.15618" lon="1.7188">
        <ele>265.2</ele>
        <time>2023-03-05T07:36:50Z</time>
      </trkpt>
      <trkpt lat="44.15617" lon="1.71877">
        <ele>265.4</ele>
        <time>2023-03-05T07:36:51Z</time>
      </trkpt>
      <trkpt lat="44.15616" lon="1.71874">
        <ele>265.6</ele>
        <time>2023-03-05T07:36:52Z</time>
      </trkpt>
      <trkpt lat="44.15615" lon="1.71871">
        <ele>265.6</ele>
        <time>2023-03-05T07:36:53Z</time>
      </trkpt>
      <trkpt lat="44.15614" lon="1.71868">
        <ele>265.8</ele>
        <time>2023-03-05T07:36:54Z</time>
      </trkpt>
      <trkpt lat="44.15613" lon="1.71866">
        <ele>265.8</ele>
        <time>2023-03-05T07:36:55Z</time>
      </trkpt>
      <trkpt lat="44.15612" lon="1.71863">
        <ele>266</ele>
        <time>2023-03-05T07:36:56Z</time>
      </trkpt>
      <trkpt lat="44.15611" lon="1.71861">
        <ele>266.2</ele>
        <time>2023-03-05T07:36:57Z</time>
      </trkpt>
      <trkpt lat="44.1561" lon="1.71858">
        <ele>266.4</ele>
        <time>2023-03-05T07:36:58Z</time>
      </trkpt>
      <trkpt lat="44.15609" lon="1.71856">
        <ele>266.6</ele>
        <time>2023-03-05T07:36:59Z</time>
      </trkpt>
      <trkpt lat="44.15607" lon="1.71854">
        <ele>266.8</ele>
        <time>2023-03-05T07:37:00Z</time>
      </trkpt>
      <trkpt lat="44.15606" lon="1.71851">
        <ele>266.8</ele>
        <time>2023-03-05T07:37:01Z</time>
      </trkpt>
      <trkpt lat="44.15605" lon="1.71849">
        <ele>267</ele>
        <time>2023-03-05T07:37:02Z</time>
      </trkpt>
      <trkpt lat="44.15605" lon="1.71847">
        <ele>267</ele>
        <time>2023-03-05T07:37:03Z</time>
      </trkpt>
      <trkpt lat="44.15605" lon="1.71845">
        <ele>267.2</ele>
        <time>2023-03-05T07:37:04Z</time>
      </trkpt>
      <trkpt lat="44.15606" lon="1.71845">
        <ele>267.2</ele>
        <time>2023-03-05T07:37:05Z</time>
      </trkpt>
      <trkpt lat="44.15607" lon="1.71845">
        <ele>267.4</ele>
        <time>2023-03-05T07:37:06Z</time>
      </trkpt>
      <trkpt lat="44.15608" lon="1.71846">
        <ele>267.4</ele>
        <time>2023-03-05T07:37:07Z</time>
      </trkpt>
      <trkpt lat="44.1561" lon="1.71848">
        <ele>267.6</ele>
        <time>2023-03-05T07:37:08Z</time>
      </trkpt>
      <trkpt lat="44.15611" lon="1.71849">
        <ele>267.6</ele>
        <time>2023-03-05T07:37:09Z</time>
      </trkpt>
      <trkpt lat="44.15612" lon="1.7185">
        <ele>267.8</ele>
        <time>2023-03-05T07:37:10Z</time>
      </trkpt>
      <trkpt lat="44.15614" lon="1.71852">
        <ele>268</ele>
        <time>2023-03-05T07:37:11Z</time>
      </trkpt>
      <trkpt lat="44.15615" lon="1.71853">
        <ele>268.4</ele>
        <time>2023-03-05T07:37:12Z</time>
      </trkpt>
      <trkpt lat="44.15616" lon="1.71854">
        <ele>268.4</ele>
        <time>2023-03-05T07:37:13Z</time>
      </trkpt>
      <trkpt lat="44.15618" lon="1.71856">
        <ele>268.8</ele>
        <time>2023-03-05T07:37:14Z</time>
      </trkpt>
      <trkpt lat="44.15619" lon="1.71858">
        <ele>268.8</ele>
        <time>2023-03-05T07:37:15Z</time>
      </trkpt>
      <trkpt lat="44.1562" lon="1.71859">
        <ele>269</ele>
        <time>2023-03-05T07:37:16Z</time>
      </trkpt>
      <trkpt lat="44.15621" lon="1.71861">
        <ele>269.2</ele>
        <time>2023-03-05T07:37:17Z</time>
      </trkpt>
      <trkpt lat="44.15623" lon="1.71863">
        <ele>269.2</ele>
        <time>2023-03-05T07:37:18Z</time>
      </trkpt>
      <trkpt lat="44.15624" lon="1.71865">
        <ele>269.6</ele>
        <time>2023-03-05T07:37:19Z</time>
      </trkpt>
      <trkpt lat="44.15625" lon="1.71867">
        <ele>269.6</ele>
        <time>2023-03-05T07:37:20Z</time>
      </trkpt>
      <trkpt lat="44.15626" lon="1.71869">
        <ele>269.8</ele>
        <time>2023-03-05T07:37:21Z</time>
      </trkpt>
      <trkpt lat="44.15628" lon="1.71872">
        <ele>270</ele>
        <time>2023-03-05T07:37:22Z</time>
      </trkpt>
      <trkpt lat="44.15629" lon="1.71873">
        <ele>270.4</ele>
        <time>2023-03-05T07:37:23Z</time>
      </trkpt>
      <trkpt lat="44.1563" lon="1.71875">
        <ele>270.6</ele>
        <time>2023-03-05T07:37:24Z</time>
      </trkpt>
      <trkpt lat="44.15631" lon="1.71877">
        <ele>270.6</ele>
        <time>2023-03-05T07:37:25Z</time>
      </trkpt>
      <trkpt lat="44.15633" lon="1.71879">
        <ele>270.8</ele>
        <time>2023-03-05T07:37:26Z</time>
      </trkpt>
      <trkpt lat="44.15633" lon="1.71881">
        <ele>271</ele>
        <time>2023-03-05T07:37:27Z</time>
      </trkpt>
      <trkpt lat="44.15634" lon="1.71883">
        <ele>271.2</ele>
        <time>2023-03-05T07:37:28Z</time>
      </trkpt>
      <trkpt lat="44.15636" lon="1.71885">
        <ele>271.4</ele>
        <time>2023-03-05T07:37:29Z</time>
      </trkpt>
      <trkpt lat="44.15637" lon="1.71888">
        <ele>271.4</ele>
        <time>2023-03-05T07:37:30Z</time>
      </trkpt>
      <trkpt lat="44.15638" lon="1.71889">
        <ele>271.8</ele>
        <time>2023-03-05T07:37:31Z</time>
      </trkpt>
      <trkpt lat="44.15639" lon="1.71892">
        <ele>271.8</ele>
        <time>2023-03-05T07:37:32Z</time>
      </trkpt>
      <trkpt lat="44.1564" lon="1.71894">
        <ele>272</ele>
        <time>2023-03-05T07:37:33Z</time>
      </trkpt>
      <trkpt lat="44.15642" lon="1.71896">
        <ele>272</ele>
        <time>2023-03-05T07:37:34Z</time>
      </trkpt>
      <trkpt lat="44.15643" lon="1.71898">
        <ele>272.2</ele>
        <time>2023-03-05T07:37:35Z</time>
      </trkpt>
      <trkpt lat="44.15644" lon="1.719">
        <ele>272.2</ele>
        <time>2023-03-05T07:37:36Z</time>
      </trkpt>
      <trkpt lat="44.15645" lon="1.71902">
        <ele>272.4</ele>
        <time>2023-03-05T07:37:37Z</time>
      </trkpt>
      <trkpt lat="44.15646" lon="1.71904">
        <ele>272.6</ele>
        <time>2023-03-05T07:37:38Z</time>
      </trkpt>
      <trkpt lat="44.15647" lon="1.71906">
        <ele>272.6</ele>
        <time>2023-03-05T07:37:39Z</time>
      </trkpt>
      <trkpt lat="44.15648" lon="1.71907">
        <ele>273</ele>
        <time>2023-03-05T07:37:40Z</time>
      </trkpt>
      <trkpt lat="44.15649" lon="1.71909">
        <ele>273.2</ele>
        <time>2023-03-05T07:37:41Z</time>
      </trkpt>
      <trkpt lat="44.1565" lon="1.71911">
        <ele>273.2</ele>
        <time>2023-03-05T07:37:42Z</time>
      </trkpt>
      <trkpt lat="44.15651" lon="1.71912">
        <ele>273.4</ele>
        <time>2023-03-05T07:37:43Z</time>
      </trkpt>
      <trkpt lat="44.15652" lon="1.71914">
        <ele>273.6</ele>
        <time>2023-03-05T07:37:44Z</time>
      </trkpt>
      <trkpt lat="44.15654" lon="1.71916">
        <ele>273.8</ele>
        <time>2023-03-05T07:37:45Z</time>
      </trkpt>
      <trkpt lat="44.15655" lon="1.71918">
        <ele>274</ele>
        <time>2023-03-05T07:37:46Z</time>
      </trkpt>
      <trkpt lat="44.15656" lon="1.7192">
        <ele>274</ele>
        <time>2023-03-05T07:37:47Z</time>
      </trkpt>
      <trkpt lat="44.15657" lon="1.71922">
        <ele>274.2</ele>
        <time>2023-03-05T07:37:48Z</time>
      </trkpt>
      <trkpt lat="44.15658" lon="1.71923">
        <ele>274.2</ele>
        <time>2023-03-05T07:37:49Z</time>
      </trkpt>
      <trkpt lat="44.15659" lon="1.71925">
        <ele>274.4</ele>
        <time>2023-03-05T07:37:50Z</time>
      </trkpt>
      <trkpt lat="44.1566" lon="1.71927">
        <ele>274.6</ele>
        <time>2023-03-05T07:37:51Z</time>
      </trkpt>
      <trkpt lat="44.15661" lon="1.71928">
        <ele>275</ele>
        <time>2023-03-05T07:37:52Z</time>
      </trkpt>
      <trkpt lat="44.15662" lon="1.7193">
        <ele>275.4</ele>
        <time>2023-03-05T07:37:53Z</time>
      </trkpt>
      <trkpt lat="44.15663" lon="1.71931">
        <ele>275.6</ele>
        <time>2023-03-05T07:37:54Z</time>
      </trkpt>
      <trkpt lat="44.15665" lon="1.71933">
        <ele>275.8</ele>
        <time>2023-03-05T07:37:55Z</time>
      </trkpt>
      <trkpt lat="44.15666" lon="1.71934">
        <ele>276</ele>
        <time>2023-03-05T07:37:56Z</time>
      </trkpt>
      <trkpt lat="44.15667" lon="1.71936">
        <ele>276.2</ele>
        <time>2023-03-05T07:37:57Z</time>
      </trkpt>
      <trkpt lat="44.15668" lon="1.71937">
        <ele>276.4</ele>
        <time>2023-03-05T07:37:58Z</time>
      </trkpt>
      <trkpt lat="44.15669" lon="1.71939">
        <ele>276.8</ele>
        <time>2023-03-05T07:37:59Z</time>
      </trkpt>
      <trkpt lat="44.1567" lon="1.7194">
        <ele>277</ele>
        <time>2023-03-05T07:38:00Z</time>
      </trkpt>
      <trkpt lat="44.15671" lon="1.71942">
        <ele>277.2</ele>
        <time>2023-03-05T07:38:01Z</time>
      </trkpt>
      <trkpt lat="44.15672" lon="1.71943">
        <ele>277.4</ele>
        <time>2023-03-05T07:38:02Z</time>
      </trkpt>
      <trkpt lat="44.15673" lon="1.71944">
        <ele>278</ele>
        <time>2023-03-05T07:38:03Z</time>
      </trkpt>
      <trkpt lat="44.15673" lon="1.71945">
        <ele>278.2</ele>
        <time>2023-03-05T07:38:04Z</time>
      </trkpt>
      <trkpt lat="44.15674" lon="1.71947">
        <ele>278.2</ele>
        <time>2023-03-05T07:38:05Z</time>
      </trkpt>
      <trkpt lat="44.15675" lon="1.71948">
        <ele>278.4</ele>
        <time>2023-03-05T07:38:06Z</time>
      </trkpt>
      <trkpt lat="44.15676" lon="1.71949">
        <ele>278.6</ele>
        <time>2023-03-05T07:38:07Z</time>
      </trkpt>
      <trkpt lat="44.15677" lon="1.71951">
        <ele>278.6</ele>
        <time>2023-03-05T07:38:08Z</time>
      </trkpt>
      <trkpt lat="44.15678" lon="1.71953">
        <ele>279</ele>
        <time>2023-03-05T07:38:09Z</time>
      </trkpt>
      <trkpt lat="44.15679" lon="1.71954">
        <ele>279.4</ele>
        <time>2023-03-05T07:38:10Z</time>
      </trkpt>
      <trkpt lat="44.1568" lon="1.71956">
        <ele>279.8</ele>
        <time>2023-03-05T07:38:11Z</time>
      </trkpt>
      <trkpt lat="44.1568" lon="1.71957">
        <ele>279.8</ele>
        <time>2023-03-05T07:38:12Z</time>
      </trkpt>
      <trkpt lat="44.15681" lon="1.71958">
        <ele>280</ele>
        <time>2023-03-05T07:38:13Z</time>
      </trkpt>
      <trkpt lat="44.15682" lon="1.7196">
        <ele>280.2</ele>
        <time>2023-03-05T07:38:14Z</time>
      </trkpt>
      <trkpt lat="44.15682" lon="1.71961">
        <ele>280.6</ele>
        <time>2023-03-05T07:38:15Z</time>
      </trkpt>
      <trkpt lat="44.15683" lon="1.71963">
        <ele>280.8</ele>
        <time>2023-03-05T07:38:16Z</time>
      </trkpt>
      <trkpt lat="44.15684" lon="1.71965">
        <ele>281.2</ele>
        <time>2023-03-05T07:38:17Z</time>
      </trkpt>
      <trkpt lat="44.15685" lon="1.71966">
        <ele>281.6</ele>
        <time>2023-03-05T07:38:18Z</time>
      </trkpt>
      <trkpt lat="44.15685" lon="1.71968">
        <ele>281.8</ele>
        <time>2023-03-05T07:38:19Z</time>
      </trkpt>
      <trkpt lat="44.15686" lon="1.7197">
        <ele>282</ele>
        <time>2023-03-05T07:38:20Z</time>
      </trkpt>
      <trkpt lat="44.15686" lon="1.71972">
        <ele>282.2</ele>
        <time>2023-03-05T07:38:21Z</time>
      </trkpt>
      <trkpt lat="44.15687" lon="1.71973">
        <ele>282.4</ele>
        <time>2023-03-05T07:38:22Z</time>
      </trkpt>
      <trkpt lat="44.15688" lon="1.71974">
        <ele>282.6</ele>
        <time>2023-03-05T07:38:23Z</time>
      </trkpt>
      <trkpt lat="44.15688" lon="1.71976">
        <ele>282.8</ele>
        <time>2023-03-05T07:38:24Z</time>
      </trkpt>
      <trkpt lat="44.15689" lon="1.71977">
        <ele>283</ele>
        <time>2023-03-05T07:38:25Z</time>
      </trkpt>
      <trkpt lat="44.1569" lon="1.71978">
        <ele>283.2</ele>
        <time>2023-03-05T07:38:26Z</time>
      </trkpt>
      <trkpt lat="44.15691" lon="1.71979">
        <ele>283.4</ele>
        <time>2023-03-05T07:38:27Z</time>
      </trkpt>
      <trkpt lat="44.15692" lon="1.7198">
        <ele>283.6</ele>
        <time>2023-03-05T07:38:28Z</time>
      </trkpt>
      <trkpt lat="44.15693" lon="1.71981">
        <ele>283.8</ele>
        <time>2023-03-05T07:38:29Z</time>
      </trkpt>
      <trkpt lat="44.15694" lon="1.71981">
        <ele>284.2</ele>
        <time>2023-03-05T07:38:30Z</time>
      </trkpt>
      <trkpt lat="44.15695" lon="1.71981">
        <ele>284.4</ele>
        <time>2023-03-05T07:38:31Z</time>
      </trkpt>
      <trkpt lat="44.15695" lon="1.7198">
        <ele>284.6</ele>
        <time>2023-03-05T07:38:32Z</time>
      </trkpt>
      <trkpt lat="44.15695" lon="1.71978">
        <ele>284.6</ele>
        <time>2023-03-05T07:38:33Z</time>
      </trkpt>
      <trkpt lat="44.15695" lon="1.71976">
        <ele>285</ele>
        <time>2023-03-05T07:38:34Z</time>
      </trkpt>
      <trkpt lat="44.15695" lon="1.71974">
        <ele>285.2</ele>
        <time>2023-03-05T07:38:35Z</time>
      </trkpt>
      <trkpt lat="44.15695" lon="1.71972">
        <ele>285.4</ele>
        <time>2023-03-05T07:38:36Z</time>
      </trkpt>
      <trkpt lat="44.15695" lon="1.7197">
        <ele>285.8</ele>
        <time>2023-03-05T07:38:37Z</time>
      </trkpt>
      <trkpt lat="44.15695" lon="1.71968">
        <ele>286</ele>
        <time>2023-03-05T07:38:38Z</time>
      </trkpt>
      <trkpt lat="44.15695" lon="1.71967">
        <ele>286.2</ele>
        <time>2023-03-05T07:38:39Z</time>
      </trkpt>
      <trkpt lat="44.15695" lon="1.71965">
        <ele>286.2</ele>
        <time>2023-03-05T07:38:40Z</time>
      </trkpt>
      <trkpt lat="44.15695" lon="1.71963">
        <ele>286.4</ele>
        <time>2023-03-05T07:38:41Z</time>
      </trkpt>
      <trkpt lat="44.15695" lon="1.71961">
        <ele>286.6</ele>
        <time>2023-03-05T07:38:42Z</time>
      </trkpt>
      <trkpt lat="44.15695" lon="1.71959">
        <ele>287</ele>
        <time>2023-03-05T07:38:43Z</time>
      </trkpt>
      <trkpt lat="44.15694" lon="1.71957">
        <ele>287</ele>
        <time>2023-03-05T07:38:44Z</time>
      </trkpt>
      <trkpt lat="44.15694" lon="1.71955">
        <ele>287.4</ele>
        <time>2023-03-05T07:38:45Z</time>
      </trkpt>
      <trkpt lat="44.15695" lon="1.71953">
        <ele>287.6</ele>
        <time>2023-03-05T07:38:46Z</time>
      </trkpt>
      <trkpt lat="44.15695" lon="1.7195">
        <ele>288</ele>
        <time>2023-03-05T07:38:47Z</time>
      </trkpt>
      <trkpt lat="44.15694" lon="1.71948">
        <ele>288.2</ele>
        <time>2023-03-05T07:38:48Z</time>
      </trkpt>
      <trkpt lat="44.15694" lon="1.71947">
        <ele>288.6</ele>
        <time>2023-03-05T07:38:49Z</time>
      </trkpt>
      <trkpt lat="44.15694" lon="1.71945">
        <ele>288.6</ele>
        <time>2023-03-05T07:38:50Z</time>
      </trkpt>
      <trkpt lat="44.15694" lon="1.71942">
        <ele>289</ele>
        <time>2023-03-05T07:38:51Z</time>
      </trkpt>
      <trkpt lat="44.15694" lon="1.71941">
        <ele>289.2</ele>
        <time>2023-03-05T07:38:52Z</time>
      </trkpt>
      <trkpt lat="44.15695" lon="1.71939">
        <ele>289.4</ele>
        <time>2023-03-05T07:38:53Z</time>
      </trkpt>
      <trkpt lat="44.15694" lon="1.71937">
        <ele>289.6</ele>
        <time>2023-03-05T07:38:54Z</time>
      </trkpt>
      <trkpt lat="44.15694" lon="1.71934">
        <ele>289.8</ele>
        <time>2023-03-05T07:38:55Z</time>
      </trkpt>
      <trkpt lat="44.15694" lon="1.71932">
        <ele>290</ele>
        <time>2023-03-05T07:38:56Z</time>
      </trkpt>
      <trkpt lat="44.15694" lon="1.7193">
        <ele>290</ele>
        <time>2023-03-05T07:38:57Z</time>
      </trkpt>
      <trkpt lat="44.15693" lon="1.71928">
        <ele>290.4</ele>
        <time>2023-03-05T07:38:58Z</time>
      </trkpt>
      <trkpt lat="44.15693" lon="1.71926">
        <ele>290.4</ele>
        <time>2023-03-05T07:38:59Z</time>
      </trkpt>
      <trkpt lat="44.15693" lon="1.71925">
        <ele>290.8</ele>
        <time>2023-03-05T07:39:00Z</time>
      </trkpt>
      <trkpt lat="44.15693" lon="1.71923">
        <ele>291</ele>
        <time>2023-03-05T07:39:01Z</time>
      </trkpt>
      <trkpt lat="44.15693" lon="1.71921">
        <ele>291.2</ele>
        <time>2023-03-05T07:39:02Z</time>
      </trkpt>
      <trkpt lat="44.15692" lon="1.71919">
        <ele>291.2</ele>
        <time>2023-03-05T07:39:03Z</time>
      </trkpt>
      <trkpt lat="44.15692" lon="1.71917">
        <ele>291.4</ele>
        <time>2023-03-05T07:39:04Z</time>
      </trkpt>
      <trkpt lat="44.15692" lon="1.71915">
        <ele>291.6</ele>
        <time>2023-03-05T07:39:05Z</time>
      </trkpt>
      <trkpt lat="44.15691" lon="1.71913">
        <ele>291.8</ele>
        <time>2023-03-05T07:39:06Z</time>
      </trkpt>
      <trkpt lat="44.15691" lon="1.71911">
        <ele>292</ele>
        <time>2023-03-05T07:39:07Z</time>
      </trkpt>
      <trkpt lat="44.15691" lon="1.71909">
        <ele>292.2</ele>
        <time>2023-03-05T07:39:08Z</time>
      </trkpt>
      <trkpt lat="44.15691" lon="1.71908">
        <ele>292.4</ele>
        <time>2023-03-05T07:39:09Z</time>
      </trkpt>
      <trkpt lat="44.1569" lon="1.71906">
        <ele>292.8</ele>
        <time>2023-03-05T07:39:10Z</time>
      </trkpt>
      <trkpt lat="44.1569" lon="1.71904">
        <ele>292.8</ele>
        <time>2023-03-05T07:39:11Z</time>
      </trkpt>
      <trkpt lat="44.15689" lon="1.71903">
        <ele>293</ele>
        <time>2023-03-05T07:39:12Z</time>
      </trkpt>
      <trkpt lat="44.15689" lon="1.71901">
        <ele>293.2</ele>
        <time>2023-03-05T07:39:13Z</time>
      </trkpt>
      <trkpt lat="44.15688" lon="1.71899">
        <ele>293.4</ele>
        <time>2023-03-05T07:39:14Z</time>
      </trkpt>
      <trkpt lat="44.15688" lon="1.71897">
        <ele>293.4</ele>
        <time>2023-03-05T07:39:15Z</time>
      </trkpt>
      <trkpt lat="44.15687" lon="1.71896">
        <ele>293.6</ele>
        <time>2023-03-05T07:39:16Z</time>
      </trkpt>
      <trkpt lat="44.15687" lon="1.71894">
        <ele>293.8</ele>
        <time>2023-03-05T07:39:17Z</time>
      </trkpt>
      <trkpt lat="44.15687" lon="1.71892">
        <ele>294</ele>
        <time>2023-03-05T07:39:18Z</time>
      </trkpt>
      <trkpt lat="44.15686" lon="1.7189">
        <ele>294.4</ele>
        <time>2023-03-05T07:39:19Z</time>
      </trkpt>
      <trkpt lat="44.15686" lon="1.71888">
        <ele>294.6</ele>
        <time>2023-03-05T07:39:20Z</time>
      </trkpt>
      <trkpt lat="44.15685" lon="1.71886">
        <ele>294.8</ele>
        <time>2023-03-05T07:39:21Z</time>
      </trkpt>
      <trkpt lat="44.15685" lon="1.71884">
        <ele>295</ele>
        <time>2023-03-05T07:39:22Z</time>
      </trkpt>
      <trkpt lat="44.15684" lon="1.71883">
        <ele>295.4</ele>
        <time>2023-03-05T07:39:23Z</time>
      </trkpt>
      <trkpt lat="44.15684" lon="1.7188">
        <ele>295.6</ele>
        <time>2023-03-05T07:39:24Z</time>
      </trkpt>
      <trkpt lat="44.15684" lon="1.71879">
        <ele>295.8</ele>
        <time>2023-03-05T07:39:25Z</time>
      </trkpt>
      <trkpt lat="44.15683" lon="1.71877">
        <ele>296</ele>
        <time>2023-03-05T07:39:26Z</time>
      </trkpt>
      <trkpt lat="44.15683" lon="1.71875">
        <ele>296.2</ele>
        <time>2023-03-05T07:39:27Z</time>
      </trkpt>
      <trkpt lat="44.15682" lon="1.71873">
        <ele>296.2</ele>
        <time>2023-03-05T07:39:28Z</time>
      </trkpt>
      <trkpt lat="44.15682" lon="1.71872">
        <ele>296.4</ele>
        <time>2023-03-05T07:39:29Z</time>
      </trkpt>
      <trkpt lat="44.15682" lon="1.71869">
        <ele>296.6</ele>
        <time>2023-03-05T07:39:30Z</time>
      </trkpt>
      <trkpt lat="44.15681" lon="1.71868">
        <ele>297</ele>
        <time>2023-03-05T07:39:31Z</time>
      </trkpt>
      <trkpt lat="44.15681" lon="1.71866">
        <ele>297</ele>
        <time>2023-03-05T07:39:32Z</time>
      </trkpt>
      <trkpt lat="44.15681" lon="1.71864">
        <ele>297.2</ele>
        <time>2023-03-05T07:39:33Z</time>
      </trkpt>
      <trkpt lat="44.15681" lon="1.71862">
        <ele>297.4</ele>
        <time>2023-03-05T07:39:34Z</time>
      </trkpt>
      <trkpt lat="44.15681" lon="1.7186">
        <ele>297.4</ele>
        <time>2023-03-05T07:39:35Z</time>
      </trkpt>
      <trkpt lat="44.15681" lon="1.71858">
        <ele>297.8</ele>
        <time>2023-03-05T07:39:36Z</time>
      </trkpt>
      <trkpt lat="44.15681" lon="1.71857">
        <ele>298.2</ele>
        <time>2023-03-05T07:39:37Z</time>
      </trkpt>
      <trkpt lat="44.1568" lon="1.71854">
        <ele>298.4</ele>
        <time>2023-03-05T07:39:38Z</time>
      </trkpt>
      <trkpt lat="44.1568" lon="1.71853">
        <ele>298.6</ele>
        <time>2023-03-05T07:39:39Z</time>
      </trkpt>
      <trkpt lat="44.1568" lon="1.71851">
        <ele>298.8</ele>
        <time>2023-03-05T07:39:40Z</time>
      </trkpt>
      <trkpt lat="44.15679" lon="1.71848">
        <ele>298.8</ele>
        <time>2023-03-05T07:39:41Z</time>
      </trkpt>
      <trkpt lat="44.15679" lon="1.71846">
        <ele>299.4</ele>
        <time>2023-03-05T07:39:42Z</time>
      </trkpt>
      <trkpt lat="44.15679" lon="1.71844">
        <ele>299.6</ele>
        <time>2023-03-05T07:39:43Z</time>
      </trkpt>
      <trkpt lat="44.15679" lon="1.71843">
        <ele>299.8</ele>
        <time>2023-03-05T07:39:44Z</time>
      </trkpt>
      <trkpt lat="44.15678" lon="1.71841">
        <ele>300</ele>
        <time>2023-03-05T07:39:45Z</time>
      </trkpt>
      <trkpt lat="44.15677" lon="1.71839">
        <ele>300.2</ele>
        <time>2023-03-05T07:39:46Z</time>
      </trkpt>
      <trkpt lat="44.15675" lon="1.71837">
        <ele>300.2</ele>
        <time>2023-03-05T07:39:47Z</time>
      </trkpt>
      <trkpt lat="44.15672" lon="1.71835">
        <ele>300.4</ele>
        <time>2023-03-05T07:39:48Z</time>
      </trkpt>
      <trkpt lat="44.15669" lon="1.71832">
        <ele>300.4</ele>
        <time>2023-03-05T07:39:49Z</time>
      </trkpt>
      <trkpt lat="44.15668" lon="1.71828">
        <ele>300.4</ele>
        <time>2023-03-05T07:39:50Z</time>
      </trkpt>
      <trkpt lat="44.15667" lon="1.71825">
        <ele>300.6</ele>
        <time>2023-03-05T07:39:51Z</time>
      </trkpt>
      <trkpt lat="44.15667" lon="1.71823">
        <ele>300.6</ele>
        <time>2023-03-05T07:39:52Z</time>
      </trkpt>
      <trkpt lat="44.15666" lon="1.71821">
        <ele>300.8</ele>
        <time>2023-03-05T07:39:53Z</time>
      </trkpt>
      <trkpt lat="44.15664" lon="1.71819">
        <ele>300.8</ele>
        <time>2023-03-05T07:39:54Z</time>
      </trkpt>
      <trkpt lat="44.15663" lon="1.71818">
        <ele>300.8</ele>
        <time>2023-03-05T07:39:55Z</time>
      </trkpt>
      <trkpt lat="44.15662" lon="1.71817">
        <ele>300.6</ele>
        <time>2023-03-05T07:39:56Z</time>
      </trkpt>
      <trkpt lat="44.15661" lon="1.71815">
        <ele>300.4</ele>
        <time>2023-03-05T07:39:57Z</time>
      </trkpt>
      <trkpt lat="44.1566" lon="1.71814">
        <ele>300.4</ele>
        <time>2023-03-05T07:39:58Z</time>
      </trkpt>
      <trkpt lat="44.1566" lon="1.71812">
        <ele>300.4</ele>
        <time>2023-03-05T07:39:59Z</time>
      </trkpt>
      <trkpt lat="44.1566" lon="1.71811">
        <ele>300.2</ele>
        <time>2023-03-05T07:40:00Z</time>
      </trkpt>
      <trkpt lat="44.1566" lon="1.71811">
        <ele>300.2</ele>
        <time>2023-03-05T07:40:01Z</time>
      </trkpt>
      <trkpt lat="44.1566" lon="1.71811">
        <ele>300</ele>
        <time>2023-03-05T07:40:02Z</time>
      </trkpt>
      <trkpt lat="44.15657" lon="1.71786">
        <ele>303.8</ele>
        <time>2023-03-05T07:40:34Z</time>
      </trkpt>
      <trkpt lat="44.15656" lon="1.71784">
        <ele>304</ele>
        <time>2023-03-05T07:40:35Z</time>
      </trkpt>
      <trkpt lat="44.15655" lon="1.71782">
        <ele>304</ele>
        <time>2023-03-05T07:40:36Z</time>
      </trkpt>
      <trkpt lat="44.15653" lon="1.7178">
        <ele>304.2</ele>
        <time>2023-03-05T07:40:37Z</time>
      </trkpt>
      <trkpt lat="44.15652" lon="1.71778">
        <ele>304.2</ele>
        <time>2023-03-05T07:40:38Z</time>
      </trkpt>
      <trkpt lat="44.15651" lon="1.71776">
        <ele>304.4</ele>
        <time>2023-03-05T07:40:39Z</time>
      </trkpt>
      <trkpt lat="44.15651" lon="1.71774">
        <ele>304.4</ele>
        <time>2023-03-05T07:40:40Z</time>
      </trkpt>
      <trkpt lat="44.15651" lon="1.71773">
        <ele>304.4</ele>
        <time>2023-03-05T07:40:41Z</time>
      </trkpt>
      <trkpt lat="44.15651" lon="1.71771">
        <ele>304.4</ele>
        <time>2023-03-05T07:40:42Z</time>
      </trkpt>
      <trkpt lat="44.15651" lon="1.7177">
        <ele>304.4</ele>
        <time>2023-03-05T07:40:43Z</time>
      </trkpt>
      <trkpt lat="44.15651" lon="1.71768">
        <ele>304.6</ele>
        <time>2023-03-05T07:40:44Z</time>
      </trkpt>
      <trkpt lat="44.15652" lon="1.71766">
        <ele>305</ele>
        <time>2023-03-05T07:40:45Z</time>
      </trkpt>
      <trkpt lat="44.15652" lon="1.71766">
        <ele>304.8</ele>
        <time>2023-03-05T07:40:46Z</time>
      </trkpt>
      <trkpt lat="44.15652" lon="1.71766">
        <ele>305</ele>
        <time>2023-03-05T07:40:47Z</time>
      </trkpt>
      <trkpt lat="44.15652" lon="1.71765">
        <ele>305.2</ele>
        <time>2023-03-05T07:40:48Z</time>
      </trkpt>
      <trkpt lat="44.15652" lon="1.71765">
        <ele>305.4</ele>
        <time>2023-03-05T07:40:49Z</time>
      </trkpt>
      <trkpt lat="44.15652" lon="1.71765">
        <ele>305.6</ele>
        <time>2023-03-05T07:40:50Z</time>
      </trkpt>
      <trkpt lat="44.15653" lon="1.71764">
        <ele>305.8</ele>
        <time>2023-03-05T07:40:51Z</time>
      </trkpt>
      <trkpt lat="44.15653" lon="1.71763">
        <ele>306</ele>
        <time>2023-03-05T07:40:52Z</time>
      </trkpt>
      <trkpt lat="44.15653" lon="1.71761">
        <ele>306.2</ele>
        <time>2023-03-05T07:40:53Z</time>
      </trkpt>
      <trkpt lat="44.15653" lon="1.71759">
        <ele>306.2</ele>
        <time>2023-03-05T07:40:54Z</time>
      </trkpt>
      <trkpt lat="44.15653" lon="1.71757">
        <ele>306.4</ele>
        <time>2023-03-05T07:40:55Z</time>
      </trkpt>
      <trkpt lat="44.15653" lon="1.71756">
        <ele>306.6</ele>
        <time>2023-03-05T07:40:56Z</time>
      </trkpt>
      <trkpt lat="44.15653" lon="1.71754">
        <ele>306.6</ele>
        <time>2023-03-05T07:40:57Z</time>
      </trkpt>
      <trkpt lat="44.15653" lon="1.71752">
        <ele>306.8</ele>
        <time>2023-03-05T07:40:58Z</time>
      </trkpt>
      <trkpt lat="44.15653" lon="1.71751">
        <ele>306.8</ele>
        <time>2023-03-05T07:40:59Z</time>
      </trkpt>
      <trkpt lat="44.15653" lon="1.71749">
        <ele>307</ele>
        <time>2023-03-05T07:41:00Z</time>
      </trkpt>
      <trkpt lat="44.15653" lon="1.71747">
        <ele>307</ele>
        <time>2023-03-05T07:41:01Z</time>
      </trkpt>
      <trkpt lat="44.15652" lon="1.71746">
        <ele>307.2</ele>
        <time>2023-03-05T07:41:02Z</time>
      </trkpt>
      <trkpt lat="44.15651" lon="1.71745">
        <ele>307.2</ele>
        <time>2023-03-05T07:41:03Z</time>
      </trkpt>
      <trkpt lat="44.1565" lon="1.71744">
        <ele>307.6</ele>
        <time>2023-03-05T07:41:04Z</time>
      </trkpt>
      <trkpt lat="44.1565" lon="1.71744">
        <ele>307.6</ele>
        <time>2023-03-05T07:41:05Z</time>
      </trkpt>
      <trkpt lat="44.1565" lon="1.71743">
        <ele>308</ele>
        <time>2023-03-05T07:41:06Z</time>
      </trkpt>
      <trkpt lat="44.15649" lon="1.71742">
        <ele>308</ele>
        <time>2023-03-05T07:41:07Z</time>
      </trkpt>
      <trkpt lat="44.15647" lon="1.7174">
        <ele>308.2</ele>
        <time>2023-03-05T07:41:08Z</time>
      </trkpt>
      <trkpt lat="44.15645" lon="1.71738">
        <ele>308.2</ele>
        <time>2023-03-05T07:41:09Z</time>
      </trkpt>
      <trkpt lat="44.15643" lon="1.71736">
        <ele>308.4</ele>
        <time>2023-03-05T07:41:10Z</time>
      </trkpt>
      <trkpt lat="44.15641" lon="1.71735">
        <ele>308.4</ele>
        <time>2023-03-05T07:41:11Z</time>
      </trkpt>
      <trkpt lat="44.15638" lon="1.71733">
        <ele>308.4</ele>
        <time>2023-03-05T07:41:12Z</time>
      </trkpt>
      <trkpt lat="44.15636" lon="1.7173">
        <ele>308.2</ele>
        <time>2023-03-05T07:41:13Z</time>
      </trkpt>
      <trkpt lat="44.15633" lon="1.71726">
        <ele>308.2</ele>
        <time>2023-03-05T07:41:14Z</time>
      </trkpt>
      <trkpt lat="44.1563" lon="1.71722">
        <ele>308.2</ele>
        <time>2023-03-05T07:41:15Z</time>
      </trkpt>
      <trkpt lat="44.15628" lon="1.71718">
        <ele>308.2</ele>
        <time>2023-03-05T07:41:16Z</time>
      </trkpt>
      <trkpt lat="44.15625" lon="1.71716">
        <ele>308.2</ele>
        <time>2023-03-05T07:41:17Z</time>
      </trkpt>
      <trkpt lat="44.15622" lon="1.71713">
        <ele>308</ele>
        <time>2023-03-05T07:41:18Z</time>
      </trkpt>
      <trkpt lat="44.15618" lon="1.71711">
        <ele>307.8</ele>
        <time>2023-03-05T07:41:19Z</time>
      </trkpt>
      <trkpt lat="44.15615" lon="1.71708">
        <ele>307.8</ele>
        <time>2023-03-05T07:41:20Z</time>
      </trkpt>
      <trkpt lat="44.15612" lon="1.71707">
        <ele>307.4</ele>
        <time>2023-03-05T07:41:21Z</time>
      </trkpt>
      <trkpt lat="44.15609" lon="1.71704">
        <ele>307.4</ele>
        <time>2023-03-05T07:41:22Z</time>
      </trkpt>
      <trkpt lat="44.15607" lon="1.71702">
        <ele>306.8</ele>
        <time>2023-03-05T07:41:23Z</time>
      </trkpt>
      <trkpt lat="44.15605" lon="1.717">
        <ele>306.6</ele>
        <time>2023-03-05T07:41:24Z</time>
      </trkpt>
      <trkpt lat="44.15602" lon="1.71697">
        <ele>306.4</ele>
        <time>2023-03-05T07:41:25Z</time>
      </trkpt>
      <trkpt lat="44.156" lon="1.71694">
        <ele>306.4</ele>
        <time>2023-03-05T07:41:26Z</time>
      </trkpt>
      <trkpt lat="44.15598" lon="1.71691">
        <ele>306.2</ele>
        <time>2023-03-05T07:41:27Z</time>
      </trkpt>
      <trkpt lat="44.15596" lon="1.71688">
        <ele>306.2</ele>
        <time>2023-03-05T07:41:28Z</time>
      </trkpt>
      <trkpt lat="44.15593" lon="1.71685">
        <ele>306</ele>
        <time>2023-03-05T07:41:29Z</time>
      </trkpt>
      <trkpt lat="44.15591" lon="1.71681">
        <ele>306</ele>
        <time>2023-03-05T07:41:30Z</time>
      </trkpt>
      <trkpt lat="44.15588" lon="1.71678">
        <ele>305.8</ele>
        <time>2023-03-05T07:41:31Z</time>
      </trkpt>
      <trkpt lat="44.15585" lon="1.71675">
        <ele>305.8</ele>
        <time>2023-03-05T07:41:32Z</time>
      </trkpt>
      <trkpt lat="44.15582" lon="1.71672">
        <ele>305.8</ele>
        <time>2023-03-05T07:41:33Z</time>
      </trkpt>
      <trkpt lat="44.15578" lon="1.71669">
        <ele>305.8</ele>
        <time>2023-03-05T07:41:34Z</time>
      </trkpt>
      <trkpt lat="44.15575" lon="1.71666">
        <ele>305.8</ele>
        <time>2023-03-05T07:41:35Z</time>
      </trkpt>
      <trkpt lat="44.15572" lon="1.71662">
        <ele>305.8</ele>
        <time>2023-03-05T07:41:36Z</time>
      </trkpt>
      <trkpt lat="44.15569" lon="1.7166">
        <ele>305.6</ele>
        <time>2023-03-05T07:41:37Z</time>
      </trkpt>
      <trkpt lat="44.15566" lon="1.71658">
        <ele>305.6</ele>
        <time>2023-03-05T07:41:38Z</time>
      </trkpt>
      <trkpt lat="44.15563" lon="1.71657">
        <ele>305.6</ele>
        <time>2023-03-05T07:41:39Z</time>
      </trkpt>
      <trkpt lat="44.15559" lon="1.71656">
        <ele>305.2</ele>
        <time>2023-03-05T07:41:40Z</time>
      </trkpt>
      <trkpt lat="44.15556" lon="1.71655">
        <ele>305.2</ele>
        <time>2023-03-05T07:41:41Z</time>
      </trkpt>
      <trkpt lat="44.15552" lon="1.71653">
        <ele>305</ele>
        <time>2023-03-05T07:41:42Z</time>
      </trkpt>
      <trkpt lat="44.15549" lon="1.71652">
        <ele>305</ele>
        <time>2023-03-05T07:41:43Z</time>
      </trkpt>
      <trkpt lat="44.15545" lon="1.71652">
        <ele>304.8</ele>
        <time>2023-03-05T07:41:44Z</time>
      </trkpt>
      <trkpt lat="44.15541" lon="1.71651">
        <ele>304.8</ele>
        <time>2023-03-05T07:41:45Z</time>
      </trkpt>
      <trkpt lat="44.15537" lon="1.71651">
        <ele>304.8</ele>
        <time>2023-03-05T07:41:46Z</time>
      </trkpt>
      <trkpt lat="44.15534" lon="1.7165">
        <ele>304.8</ele>
        <time>2023-03-05T07:41:47Z</time>
      </trkpt>
      <trkpt lat="44.1553" lon="1.7165">
        <ele>304.8</ele>
        <time>2023-03-05T07:41:48Z</time>
      </trkpt>
      <trkpt lat="44.15526" lon="1.71648">
        <ele>304.8</ele>
        <time>2023-03-05T07:41:49Z</time>
      </trkpt>
      <trkpt lat="44.15523" lon="1.71647">
        <ele>304.8</ele>
        <time>2023-03-05T07:41:50Z</time>
      </trkpt>
      <trkpt lat="44.15521" lon="1.71645">
        <ele>304.8</ele>
        <time>2023-03-05T07:41:51Z</time>
      </trkpt>
      <trkpt lat="44.15518" lon="1.71643">
        <ele>305</ele>
        <time>2023-03-05T07:41:52Z</time>
      </trkpt>
      <trkpt lat="44.15516" lon="1.71641">
        <ele>305</ele>
        <time>2023-03-05T07:41:53Z</time>
      </trkpt>
      <trkpt lat="44.15515" lon="1.71638">
        <ele>305.2</ele>
        <time>2023-03-05T07:41:54Z</time>
      </trkpt>
      <trkpt lat="44.15514" lon="1.71634">
        <ele>305.2</ele>
        <time>2023-03-05T07:41:55Z</time>
      </trkpt>
      <trkpt lat="44.15515" lon="1.71631">
        <ele>305.4</ele>
        <time>2023-03-05T07:41:56Z</time>
      </trkpt>
      <trkpt lat="44.15516" lon="1.71627">
        <ele>305.6</ele>
        <time>2023-03-05T07:41:57Z</time>
      </trkpt>
      <trkpt lat="44.15517" lon="1.71624">
        <ele>305.6</ele>
        <time>2023-03-05T07:41:58Z</time>
      </trkpt>
      <trkpt lat="44.15518" lon="1.7162">
        <ele>305.6</ele>
        <time>2023-03-05T07:41:59Z</time>
      </trkpt>
      <trkpt lat="44.15519" lon="1.71617">
        <ele>305.6</ele>
        <time>2023-03-05T07:42:00Z</time>
      </trkpt>
      <trkpt lat="44.15519" lon="1.71613">
        <ele>305.6</ele>
        <time>2023-03-05T07:42:01Z</time>
      </trkpt>
      <trkpt lat="44.15518" lon="1.7161">
        <ele>305.6</ele>
        <time>2023-03-05T07:42:02Z</time>
      </trkpt>
      <trkpt lat="44.15517" lon="1.71606">
        <ele>305.6</ele>
        <time>2023-03-05T07:42:03Z</time>
      </trkpt>
      <trkpt lat="44.15516" lon="1.71603">
        <ele>305.6</ele>
        <time>2023-03-05T07:42:04Z</time>
      </trkpt>
      <trkpt lat="44.15515" lon="1.71599">
        <ele>305.6</ele>
        <time>2023-03-05T07:42:05Z</time>
      </trkpt>
      <trkpt lat="44.15514" lon="1.71594">
        <ele>305.6</ele>
        <time>2023-03-05T07:42:06Z</time>
      </trkpt>
      <trkpt lat="44.15514" lon="1.7159">
        <ele>305.6</ele>
        <time>2023-03-05T07:42:07Z</time>
      </trkpt>
      <trkpt lat="44.15513" lon="1.71586">
        <ele>305.6</ele>
        <time>2023-03-05T07:42:08Z</time>
      </trkpt>
      <trkpt lat="44.15513" lon="1.71581">
        <ele>305.6</ele>
        <time>2023-03-05T07:42:09Z</time>
      </trkpt>
      <trkpt lat="44.15513" lon="1.71576">
        <ele>305.4</ele>
        <time>2023-03-05T07:42:10Z</time>
      </trkpt>
      <trkpt lat="44.15512" lon="1.71572">
        <ele>305.4</ele>
        <time>2023-03-05T07:42:11Z</time>
      </trkpt>
      <trkpt lat="44.15511" lon="1.71567">
        <ele>305.4</ele>
        <time>2023-03-05T07:42:12Z</time>
      </trkpt>
      <trkpt lat="44.1551" lon="1.71563">
        <ele>305.4</ele>
        <time>2023-03-05T07:42:13Z</time>
      </trkpt>
      <trkpt lat="44.15509" lon="1.71559">
        <ele>305.2</ele>
        <time>2023-03-05T07:42:14Z</time>
      </trkpt>
      <trkpt lat="44.15508" lon="1.71554">
        <ele>305.2</ele>
        <time>2023-03-05T07:42:15Z</time>
      </trkpt>
      <trkpt lat="44.15507" lon="1.7155">
        <ele>305</ele>
        <time>2023-03-05T07:42:16Z</time>
      </trkpt>
      <trkpt lat="44.15505" lon="1.71547">
        <ele>305</ele>
        <time>2023-03-05T07:42:17Z</time>
      </trkpt>
      <trkpt lat="44.15504" lon="1.71543">
        <ele>304.8</ele>
        <time>2023-03-05T07:42:18Z</time>
      </trkpt>
      <trkpt lat="44.15503" lon="1.71539">
        <ele>304.8</ele>
        <time>2023-03-05T07:42:19Z</time>
      </trkpt>
      <trkpt lat="44.15501" lon="1.71535">
        <ele>304.8</ele>
        <time>2023-03-05T07:42:20Z</time>
      </trkpt>
      <trkpt lat="44.15501" lon="1.71531">
        <ele>304.8</ele>
        <time>2023-03-05T07:42:21Z</time>
      </trkpt>
      <trkpt lat="44.155" lon="1.71526">
        <ele>304.8</ele>
        <time>2023-03-05T07:42:22Z</time>
      </trkpt>
      <trkpt lat="44.15499" lon="1.71521">
        <ele>304.6</ele>
        <time>2023-03-05T07:42:23Z</time>
      </trkpt>
      <trkpt lat="44.15497" lon="1.71516">
        <ele>304.6</ele>
        <time>2023-03-05T07:42:24Z</time>
      </trkpt>
      <trkpt lat="44.15495" lon="1.71511">
        <ele>304.6</ele>
        <time>2023-03-05T07:42:25Z</time>
      </trkpt>
      <trkpt lat="44.15493" lon="1.71506">
        <ele>304.6</ele>
        <time>2023-03-05T07:42:26Z</time>
      </trkpt>
      <trkpt lat="44.15491" lon="1.71501">
        <ele>304.2</ele>
        <time>2023-03-05T07:42:27Z</time>
      </trkpt>
      <trkpt lat="44.15489" lon="1.71496">
        <ele>304</ele>
        <time>2023-03-05T07:42:28Z</time>
      </trkpt>
      <trkpt lat="44.15487" lon="1.7149">
        <ele>303.6</ele>
        <time>2023-03-05T07:42:29Z</time>
      </trkpt>
      <trkpt lat="44.15485" lon="1.71485">
        <ele>303.6</ele>
        <time>2023-03-05T07:42:30Z</time>
      </trkpt>
      <trkpt lat="44.15483" lon="1.7148">
        <ele>303.4</ele>
        <time>2023-03-05T07:42:31Z</time>
      </trkpt>
      <trkpt lat="44.15482" lon="1.71474">
        <ele>303.4</ele>
        <time>2023-03-05T07:42:32Z</time>
      </trkpt>
      <trkpt lat="44.1548" lon="1.71469">
        <ele>303.2</ele>
        <time>2023-03-05T07:42:33Z</time>
      </trkpt>
      <trkpt lat="44.15479" lon="1.71463">
        <ele>303</ele>
        <time>2023-03-05T07:42:34Z</time>
      </trkpt>
      <trkpt lat="44.15477" lon="1.71458">
        <ele>302.8</ele>
        <time>2023-03-05T07:42:35Z</time>
      </trkpt>
      <trkpt lat="44.15475" lon="1.71452">
        <ele>302.8</ele>
        <time>2023-03-05T07:42:36Z</time>
      </trkpt>
      <trkpt lat="44.15474" lon="1.71447">
        <ele>302.8</ele>
        <time>2023-03-05T07:42:37Z</time>
      </trkpt>
      <trkpt lat="44.15472" lon="1.71441">
        <ele>302.8</ele>
        <time>2023-03-05T07:42:38Z</time>
      </trkpt>
      <trkpt lat="44.15471" lon="1.71435">
        <ele>302.6</ele>
        <time>2023-03-05T07:42:39Z</time>
      </trkpt>
      <trkpt lat="44.15469" lon="1.71429">
        <ele>302.6</ele>
        <time>2023-03-05T07:42:40Z</time>
      </trkpt>
      <trkpt lat="44.15466" lon="1.71422">
        <ele>302.8</ele>
        <time>2023-03-05T07:42:41Z</time>
      </trkpt>
      <trkpt lat="44.15464" lon="1.71417">
        <ele>302.8</ele>
        <time>2023-03-05T07:42:42Z</time>
      </trkpt>
      <trkpt lat="44.15462" lon="1.71409">
        <ele>302.6</ele>
        <time>2023-03-05T07:42:43Z</time>
      </trkpt>
      <trkpt lat="44.15461" lon="1.71404">
        <ele>302.6</ele>
        <time>2023-03-05T07:42:44Z</time>
      </trkpt>
      <trkpt lat="44.15459" lon="1.71398">
        <ele>302.6</ele>
        <time>2023-03-05T07:42:45Z</time>
      </trkpt>
      <trkpt lat="44.15457" lon="1.7139">
        <ele>302.6</ele>
        <time>2023-03-05T07:42:46Z</time>
      </trkpt>
      <trkpt lat="44.15456" lon="1.71384">
        <ele>302.4</ele>
        <time>2023-03-05T07:42:47Z</time>
      </trkpt>
      <trkpt lat="44.15455" lon="1.71379">
        <ele>302.4</ele>
        <time>2023-03-05T07:42:48Z</time>
      </trkpt>
      <trkpt lat="44.15454" lon="1.71374">
        <ele>302.4</ele>
        <time>2023-03-05T07:42:49Z</time>
      </trkpt>
      <trkpt lat="44.15454" lon="1.71368">
        <ele>302.2</ele>
        <time>2023-03-05T07:42:50Z</time>
      </trkpt>
      <trkpt lat="44.15454" lon="1.71362">
        <ele>302</ele>
        <time>2023-03-05T07:42:51Z</time>
      </trkpt>
      <trkpt lat="44.15453" lon="1.71356">
        <ele>301.8</ele>
        <time>2023-03-05T07:42:52Z</time>
      </trkpt>
      <trkpt lat="44.15452" lon="1.71351">
        <ele>301.8</ele>
        <time>2023-03-05T07:42:53Z</time>
      </trkpt>
      <trkpt lat="44.15451" lon="1.71346">
        <ele>301.8</ele>
        <time>2023-03-05T07:42:54Z</time>
      </trkpt>
      <trkpt lat="44.15451" lon="1.7134">
        <ele>301.6</ele>
        <time>2023-03-05T07:42:55Z</time>
      </trkpt>
      <trkpt lat="44.15449" lon="1.71335">
        <ele>301.6</ele>
        <time>2023-03-05T07:42:56Z</time>
      </trkpt>
      <trkpt lat="44.15448" lon="1.71331">
        <ele>301.6</ele>
        <time>2023-03-05T07:42:57Z</time>
      </trkpt>
      <trkpt lat="44.15446" lon="1.71326">
        <ele>301.8</ele>
        <time>2023-03-05T07:42:58Z</time>
      </trkpt>
      <trkpt lat="44.15444" lon="1.71322">
        <ele>302</ele>
        <time>2023-03-05T07:42:59Z</time>
      </trkpt>
      <trkpt lat="44.15442" lon="1.71317">
        <ele>302.2</ele>
        <time>2023-03-05T07:43:00Z</time>
      </trkpt>
      <trkpt lat="44.1544" lon="1.71312">
        <ele>302.4</ele>
        <time>2023-03-05T07:43:01Z</time>
      </trkpt>
      <trkpt lat="44.15438" lon="1.71307">
        <ele>302.6</ele>
        <time>2023-03-05T07:43:02Z</time>
      </trkpt>
      <trkpt lat="44.15436" lon="1.71303">
        <ele>302.6</ele>
        <time>2023-03-05T07:43:03Z</time>
      </trkpt>
      <trkpt lat="44.15434" lon="1.71298">
        <ele>302.8</ele>
        <time>2023-03-05T07:43:04Z</time>
      </trkpt>
      <trkpt lat="44.15431" lon="1.71294">
        <ele>303.2</ele>
        <time>2023-03-05T07:43:05Z</time>
      </trkpt>
      <trkpt lat="44.15429" lon="1.71289">
        <ele>303.2</ele>
        <time>2023-03-05T07:43:06Z</time>
      </trkpt>
      <trkpt lat="44.15427" lon="1.71284">
        <ele>303.4</ele>
        <time>2023-03-05T07:43:07Z</time>
      </trkpt>
      <trkpt lat="44.15424" lon="1.71279">
        <ele>303.4</ele>
        <time>2023-03-05T07:43:08Z</time>
      </trkpt>
      <trkpt lat="44.15422" lon="1.71274">
        <ele>303.6</ele>
        <time>2023-03-05T07:43:09Z</time>
      </trkpt>
      <trkpt lat="44.15418" lon="1.71269">
        <ele>303.6</ele>
        <time>2023-03-05T07:43:10Z</time>
      </trkpt>
      <trkpt lat="44.15415" lon="1.71264">
        <ele>303.6</ele>
        <time>2023-03-05T07:43:11Z</time>
      </trkpt>
      <trkpt lat="44.15413" lon="1.7126">
        <ele>304</ele>
        <time>2023-03-05T07:43:12Z</time>
      </trkpt>
      <trkpt lat="44.1541" lon="1.71255">
        <ele>304</ele>
        <time>2023-03-05T07:43:13Z</time>
      </trkpt>
      <trkpt lat="44.15408" lon="1.7125">
        <ele>304</ele>
        <time>2023-03-05T07:43:14Z</time>
      </trkpt>
      <trkpt lat="44.15405" lon="1.71245">
        <ele>304</ele>
        <time>2023-03-05T07:43:15Z</time>
      </trkpt>
      <trkpt lat="44.15402" lon="1.71239">
        <ele>304</ele>
        <time>2023-03-05T07:43:16Z</time>
      </trkpt>
      <trkpt lat="44.154" lon="1.71235">
        <ele>304.2</ele>
        <time>2023-03-05T07:43:17Z</time>
      </trkpt>
      <trkpt lat="44.15397" lon="1.7123">
        <ele>304.2</ele>
        <time>2023-03-05T07:43:18Z</time>
      </trkpt>
      <trkpt lat="44.15394" lon="1.71225">
        <ele>304.2</ele>
        <time>2023-03-05T07:43:19Z</time>
      </trkpt>
      <trkpt lat="44.15393" lon="1.71221">
        <ele>304.2</ele>
        <time>2023-03-05T07:43:20Z</time>
      </trkpt>
      <trkpt lat="44.1539" lon="1.71217">
        <ele>304.4</ele>
        <time>2023-03-05T07:43:21Z</time>
      </trkpt>
      <trkpt lat="44.15388" lon="1.71213">
        <ele>304.4</ele>
        <time>2023-03-05T07:43:22Z</time>
      </trkpt>
      <trkpt lat="44.15386" lon="1.71209">
        <ele>304.4</ele>
        <time>2023-03-05T07:43:23Z</time>
      </trkpt>
      <trkpt lat="44.15384" lon="1.71204">
        <ele>304.4</ele>
        <time>2023-03-05T07:43:24Z</time>
      </trkpt>
      <trkpt lat="44.15382" lon="1.71199">
        <ele>304.6</ele>
        <time>2023-03-05T07:43:25Z</time>
      </trkpt>
      <trkpt lat="44.1538" lon="1.71195">
        <ele>304.6</ele>
        <time>2023-03-05T07:43:26Z</time>
      </trkpt>
      <trkpt lat="44.15379" lon="1.7119">
        <ele>304.8</ele>
        <time>2023-03-05T07:43:27Z</time>
      </trkpt>
      <trkpt lat="44.15377" lon="1.71184">
        <ele>305</ele>
        <time>2023-03-05T07:43:28Z</time>
      </trkpt>
      <trkpt lat="44.15376" lon="1.71178">
        <ele>305</ele>
        <time>2023-03-05T07:43:29Z</time>
      </trkpt>
      <trkpt lat="44.15374" lon="1.71172">
        <ele>305</ele>
        <time>2023-03-05T07:43:30Z</time>
      </trkpt>
      <trkpt lat="44.15373" lon="1.71167">
        <ele>305.2</ele>
        <time>2023-03-05T07:43:31Z</time>
      </trkpt>
      <trkpt lat="44.15371" lon="1.71161">
        <ele>305.4</ele>
        <time>2023-03-05T07:43:32Z</time>
      </trkpt>
      <trkpt lat="44.15369" lon="1.71154">
        <ele>305.6</ele>
        <time>2023-03-05T07:43:33Z</time>
      </trkpt>
      <trkpt lat="44.15367" lon="1.71148">
        <ele>305.8</ele>
        <time>2023-03-05T07:43:34Z</time>
      </trkpt>
      <trkpt lat="44.15366" lon="1.71143">
        <ele>305.8</ele>
        <time>2023-03-05T07:43:35Z</time>
      </trkpt>
      <trkpt lat="44.15364" lon="1.71138">
        <ele>305.8</ele>
        <time>2023-03-05T07:43:36Z</time>
      </trkpt>
      <trkpt lat="44.15363" lon="1.71132">
        <ele>305.8</ele>
        <time>2023-03-05T07:43:37Z</time>
      </trkpt>
      <trkpt lat="44.15361" lon="1.71125">
        <ele>306</ele>
        <time>2023-03-05T07:43:38Z</time>
      </trkpt>
      <trkpt lat="44.1536" lon="1.7112">
        <ele>306</ele>
        <time>2023-03-05T07:43:39Z</time>
      </trkpt>
      <trkpt lat="44.15358" lon="1.71115">
        <ele>306</ele>
        <time>2023-03-05T07:43:40Z</time>
      </trkpt>
      <trkpt lat="44.15355" lon="1.71108">
        <ele>306.2</ele>
        <time>2023-03-05T07:43:41Z</time>
      </trkpt>
      <trkpt lat="44.15353" lon="1.71102">
        <ele>306.2</ele>
        <time>2023-03-05T07:43:42Z</time>
      </trkpt>
      <trkpt lat="44.15351" lon="1.71097">
        <ele>306.2</ele>
        <time>2023-03-05T07:43:43Z</time>
      </trkpt>
      <trkpt lat="44.1535" lon="1.71094">
        <ele>306.2</ele>
        <time>2023-03-05T07:43:44Z</time>
      </trkpt>
      <trkpt lat="44.15348" lon="1.7109">
        <ele>306.4</ele>
        <time>2023-03-05T07:43:45Z</time>
      </trkpt>
      <trkpt lat="44.15345" lon="1.71087">
        <ele>306.4</ele>
        <time>2023-03-05T07:43:46Z</time>
      </trkpt>
      <trkpt lat="44.15344" lon="1.71083">
        <ele>306.6</ele>
        <time>2023-03-05T07:43:47Z</time>
      </trkpt>
      <trkpt lat="44.15342" lon="1.7108">
        <ele>306.6</ele>
        <time>2023-03-05T07:43:48Z</time>
      </trkpt>
      <trkpt lat="44.1534" lon="1.71075">
        <ele>306.8</ele>
        <time>2023-03-05T07:43:49Z</time>
      </trkpt>
      <trkpt lat="44.15338" lon="1.71069">
        <ele>306.8</ele>
        <time>2023-03-05T07:43:50Z</time>
      </trkpt>
      <trkpt lat="44.15336" lon="1.71065">
        <ele>307</ele>
        <time>2023-03-05T07:43:51Z</time>
      </trkpt>
      <trkpt lat="44.15334" lon="1.7106">
        <ele>307</ele>
        <time>2023-03-05T07:43:52Z</time>
      </trkpt>
      <trkpt lat="44.15333" lon="1.71057">
        <ele>307.2</ele>
        <time>2023-03-05T07:43:53Z</time>
      </trkpt>
      <trkpt lat="44.15331" lon="1.71052">
        <ele>307.2</ele>
        <time>2023-03-05T07:43:54Z</time>
      </trkpt>
      <trkpt lat="44.15329" lon="1.71048">
        <ele>307.4</ele>
        <time>2023-03-05T07:43:55Z</time>
      </trkpt>
      <trkpt lat="44.15327" lon="1.71043">
        <ele>307.4</ele>
        <time>2023-03-05T07:43:56Z</time>
      </trkpt>
      <trkpt lat="44.15325" lon="1.71038">
        <ele>307.6</ele>
        <time>2023-03-05T07:43:57Z</time>
      </trkpt>
      <trkpt lat="44.15324" lon="1.71034">
        <ele>307.6</ele>
        <time>2023-03-05T07:43:58Z</time>
      </trkpt>
      <trkpt lat="44.15322" lon="1.71029">
        <ele>308</ele>
        <time>2023-03-05T07:43:59Z</time>
      </trkpt>
      <trkpt lat="44.15319" lon="1.71024">
        <ele>308.2</ele>
        <time>2023-03-05T07:44:00Z</time>
      </trkpt>
      <trkpt lat="44.15317" lon="1.71019">
        <ele>308.2</ele>
        <time>2023-03-05T07:44:01Z</time>
      </trkpt>
      <trkpt lat="44.15315" lon="1.71016">
        <ele>308.4</ele>
        <time>2023-03-05T07:44:02Z</time>
      </trkpt>
      <trkpt lat="44.15313" lon="1.71011">
        <ele>308.4</ele>
        <time>2023-03-05T07:44:03Z</time>
      </trkpt>
      <trkpt lat="44.15311" lon="1.71007">
        <ele>308.6</ele>
        <time>2023-03-05T07:44:04Z</time>
      </trkpt>
      <trkpt lat="44.15309" lon="1.71002">
        <ele>309</ele>
        <time>2023-03-05T07:44:05Z</time>
      </trkpt>
      <trkpt lat="44.15307" lon="1.70997">
        <ele>309.2</ele>
        <time>2023-03-05T07:44:06Z</time>
      </trkpt>
      <trkpt lat="44.15305" lon="1.70994">
        <ele>309.2</ele>
        <time>2023-03-05T07:44:07Z</time>
      </trkpt>
      <trkpt lat="44.15302" lon="1.7099">
        <ele>309.2</ele>
        <time>2023-03-05T07:44:08Z</time>
      </trkpt>
      <trkpt lat="44.15299" lon="1.70985">
        <ele>309.4</ele>
        <time>2023-03-05T07:44:09Z</time>
      </trkpt>
      <trkpt lat="44.15297" lon="1.70982">
        <ele>309.4</ele>
        <time>2023-03-05T07:44:10Z</time>
      </trkpt>
      <trkpt lat="44.15295" lon="1.70978">
        <ele>309.6</ele>
        <time>2023-03-05T07:44:11Z</time>
      </trkpt>
      <trkpt lat="44.15292" lon="1.70973">
        <ele>310</ele>
        <time>2023-03-05T07:44:12Z</time>
      </trkpt>
      <trkpt lat="44.1529" lon="1.70969">
        <ele>310</ele>
        <time>2023-03-05T07:44:13Z</time>
      </trkpt>
      <trkpt lat="44.15287" lon="1.70965">
        <ele>310.2</ele>
        <time>2023-03-05T07:44:14Z</time>
      </trkpt>
      <trkpt lat="44.15283" lon="1.7096">
        <ele>310.2</ele>
        <time>2023-03-05T07:44:15Z</time>
      </trkpt>
      <trkpt lat="44.15281" lon="1.70958">
        <ele>310.4</ele>
        <time>2023-03-05T07:44:16Z</time>
      </trkpt>
      <trkpt lat="44.15278" lon="1.70954">
        <ele>310.4</ele>
        <time>2023-03-05T07:44:17Z</time>
      </trkpt>
      <trkpt lat="44.15275" lon="1.70951">
        <ele>310.6</ele>
        <time>2023-03-05T07:44:18Z</time>
      </trkpt>
      <trkpt lat="44.15272" lon="1.70947">
        <ele>310.6</ele>
        <time>2023-03-05T07:44:19Z</time>
      </trkpt>
      <trkpt lat="44.1527" lon="1.70944">
        <ele>310.8</ele>
        <time>2023-03-05T07:44:20Z</time>
      </trkpt>
      <trkpt lat="44.15267" lon="1.7094">
        <ele>310.8</ele>
        <time>2023-03-05T07:44:21Z</time>
      </trkpt>
      <trkpt lat="44.15264" lon="1.70935">
        <ele>311</ele>
        <time>2023-03-05T07:44:22Z</time>
      </trkpt>
      <trkpt lat="44.15261" lon="1.7093">
        <ele>311</ele>
        <time>2023-03-05T07:44:23Z</time>
      </trkpt>
      <trkpt lat="44.15259" lon="1.70926">
        <ele>311</ele>
        <time>2023-03-05T07:44:24Z</time>
      </trkpt>
      <trkpt lat="44.15257" lon="1.70923">
        <ele>311.2</ele>
        <time>2023-03-05T07:44:25Z</time>
      </trkpt>
      <trkpt lat="44.15254" lon="1.70918">
        <ele>311.2</ele>
        <time>2023-03-05T07:44:26Z</time>
      </trkpt>
      <trkpt lat="44.15252" lon="1.70912">
        <ele>311.2</ele>
        <time>2023-03-05T07:44:27Z</time>
      </trkpt>
      <trkpt lat="44.15251" lon="1.70908">
        <ele>311.4</ele>
        <time>2023-03-05T07:44:28Z</time>
      </trkpt>
      <trkpt lat="44.15248" lon="1.70903">
        <ele>311.6</ele>
        <time>2023-03-05T07:44:29Z</time>
      </trkpt>
      <trkpt lat="44.15246" lon="1.70898">
        <ele>311.6</ele>
        <time>2023-03-05T07:44:30Z</time>
      </trkpt>
      <trkpt lat="44.15244" lon="1.70894">
        <ele>311.8</ele>
        <time>2023-03-05T07:44:31Z</time>
      </trkpt>
      <trkpt lat="44.15242" lon="1.70889">
        <ele>312</ele>
        <time>2023-03-05T07:44:32Z</time>
      </trkpt>
      <trkpt lat="44.1524" lon="1.70884">
        <ele>312</ele>
        <time>2023-03-05T07:44:33Z</time>
      </trkpt>
      <trkpt lat="44.15238" lon="1.70881">
        <ele>312</ele>
        <time>2023-03-05T07:44:34Z</time>
      </trkpt>
      <trkpt lat="44.15237" lon="1.70876">
        <ele>312.2</ele>
        <time>2023-03-05T07:44:35Z</time>
      </trkpt>
      <trkpt lat="44.15235" lon="1.70873">
        <ele>312.4</ele>
        <time>2023-03-05T07:44:36Z</time>
      </trkpt>
      <trkpt lat="44.15233" lon="1.70869">
        <ele>312.6</ele>
        <time>2023-03-05T07:44:37Z</time>
      </trkpt>
      <trkpt lat="44.15231" lon="1.70865">
        <ele>312.8</ele>
        <time>2023-03-05T07:44:38Z</time>
      </trkpt>
      <trkpt lat="44.15229" lon="1.70861">
        <ele>313</ele>
        <time>2023-03-05T07:44:39Z</time>
      </trkpt>
      <trkpt lat="44.15227" lon="1.70858">
        <ele>313.2</ele>
        <time>2023-03-05T07:44:40Z</time>
      </trkpt>
      <trkpt lat="44.15224" lon="1.70855">
        <ele>313.4</ele>
        <time>2023-03-05T07:44:41Z</time>
      </trkpt>
      <trkpt lat="44.15221" lon="1.70851">
        <ele>313.6</ele>
        <time>2023-03-05T07:44:42Z</time>
      </trkpt>
      <trkpt lat="44.15219" lon="1.70848">
        <ele>313.6</ele>
        <time>2023-03-05T07:44:43Z</time>
      </trkpt>
      <trkpt lat="44.15217" lon="1.70845">
        <ele>313.8</ele>
        <time>2023-03-05T07:44:44Z</time>
      </trkpt>
      <trkpt lat="44.15214" lon="1.70841">
        <ele>314</ele>
        <time>2023-03-05T07:44:45Z</time>
      </trkpt>
      <trkpt lat="44.15211" lon="1.70838">
        <ele>314.2</ele>
        <time>2023-03-05T07:44:46Z</time>
      </trkpt>
      <trkpt lat="44.15209" lon="1.70835">
        <ele>314.2</ele>
        <time>2023-03-05T07:44:47Z</time>
      </trkpt>
      <trkpt lat="44.15205" lon="1.70832">
        <ele>314.6</ele>
        <time>2023-03-05T07:44:48Z</time>
      </trkpt>
      <trkpt lat="44.15201" lon="1.70827">
        <ele>314.8</ele>
        <time>2023-03-05T07:44:49Z</time>
      </trkpt>
      <trkpt lat="44.15199" lon="1.70824">
        <ele>315</ele>
        <time>2023-03-05T07:44:50Z</time>
      </trkpt>
      <trkpt lat="44.15195" lon="1.7082">
        <ele>315.2</ele>
        <time>2023-03-05T07:44:51Z</time>
      </trkpt>
      <trkpt lat="44.15192" lon="1.70817">
        <ele>315.4</ele>
        <time>2023-03-05T07:44:52Z</time>
      </trkpt>
      <trkpt lat="44.15189" lon="1.70813">
        <ele>315.4</ele>
        <time>2023-03-05T07:44:53Z</time>
      </trkpt>
      <trkpt lat="44.15187" lon="1.70809">
        <ele>315.6</ele>
        <time>2023-03-05T07:44:54Z</time>
      </trkpt>
      <trkpt lat="44.15183" lon="1.70804">
        <ele>316</ele>
        <time>2023-03-05T07:44:55Z</time>
      </trkpt>
      <trkpt lat="44.15182" lon="1.70801">
        <ele>316.2</ele>
        <time>2023-03-05T07:44:56Z</time>
      </trkpt>
      <trkpt lat="44.15179" lon="1.70797">
        <ele>316.4</ele>
        <time>2023-03-05T07:44:57Z</time>
      </trkpt>
      <trkpt lat="44.15177" lon="1.70792">
        <ele>316.4</ele>
        <time>2023-03-05T07:44:58Z</time>
      </trkpt>
      <trkpt lat="44.15176" lon="1.70787">
        <ele>316.8</ele>
        <time>2023-03-05T07:44:59Z</time>
      </trkpt>
      <trkpt lat="44.15174" lon="1.70783">
        <ele>317</ele>
        <time>2023-03-05T07:45:00Z</time>
      </trkpt>
      <trkpt lat="44.15172" lon="1.70779">
        <ele>317.2</ele>
        <time>2023-03-05T07:45:01Z</time>
      </trkpt>
      <trkpt lat="44.1517" lon="1.70774">
        <ele>317.4</ele>
        <time>2023-03-05T07:45:02Z</time>
      </trkpt>
      <trkpt lat="44.15168" lon="1.70769">
        <ele>317.4</ele>
        <time>2023-03-05T07:45:03Z</time>
      </trkpt>
      <trkpt lat="44.15166" lon="1.70765">
        <ele>317.6</ele>
        <time>2023-03-05T07:45:04Z</time>
      </trkpt>
      <trkpt lat="44.15164" lon="1.7076">
        <ele>317.8</ele>
        <time>2023-03-05T07:45:05Z</time>
      </trkpt>
      <trkpt lat="44.15162" lon="1.70756">
        <ele>317.8</ele>
        <time>2023-03-05T07:45:06Z</time>
      </trkpt>
      <trkpt lat="44.1516" lon="1.70751">
        <ele>317.8</ele>
        <time>2023-03-05T07:45:07Z</time>
      </trkpt>
      <trkpt lat="44.15158" lon="1.70749">
        <ele>317.8</ele>
        <time>2023-03-05T07:45:08Z</time>
      </trkpt>
      <trkpt lat="44.15156" lon="1.70744">
        <ele>317.8</ele>
        <time>2023-03-05T07:45:09Z</time>
      </trkpt>
      <trkpt lat="44.15154" lon="1.70742">
        <ele>318</ele>
        <time>2023-03-05T07:45:10Z</time>
      </trkpt>
      <trkpt lat="44.15152" lon="1.70739">
        <ele>318</ele>
        <time>2023-03-05T07:45:11Z</time>
      </trkpt>
      <trkpt lat="44.1515" lon="1.70735">
        <ele>318</ele>
        <time>2023-03-05T07:45:12Z</time>
      </trkpt>
      <trkpt lat="44.15148" lon="1.70733">
        <ele>318</ele>
        <time>2023-03-05T07:45:13Z</time>
      </trkpt>
      <trkpt lat="44.15147" lon="1.70731">
        <ele>318</ele>
        <time>2023-03-05T07:45:14Z</time>
      </trkpt>
      <trkpt lat="44.15145" lon="1.70729">
        <ele>318.2</ele>
        <time>2023-03-05T07:45:15Z</time>
      </trkpt>
      <trkpt lat="44.15142" lon="1.70727">
        <ele>318.2</ele>
        <time>2023-03-05T07:45:16Z</time>
      </trkpt>
      <trkpt lat="44.15139" lon="1.70726">
        <ele>318.2</ele>
        <time>2023-03-05T07:45:17Z</time>
      </trkpt>
      <trkpt lat="44.15136" lon="1.70725">
        <ele>318.2</ele>
        <time>2023-03-05T07:45:18Z</time>
      </trkpt>
      <trkpt lat="44.15134" lon="1.70725">
        <ele>318.6</ele>
        <time>2023-03-05T07:45:19Z</time>
      </trkpt>
      <trkpt lat="44.15132" lon="1.70724">
        <ele>318.8</ele>
        <time>2023-03-05T07:45:20Z</time>
      </trkpt>
      <trkpt lat="44.15129" lon="1.70721">
        <ele>318.8</ele>
        <time>2023-03-05T07:45:21Z</time>
      </trkpt>
      <trkpt lat="44.15126" lon="1.70717">
        <ele>319</ele>
        <time>2023-03-05T07:45:22Z</time>
      </trkpt>
      <trkpt lat="44.15123" lon="1.70713">
        <ele>319</ele>
        <time>2023-03-05T07:45:23Z</time>
      </trkpt>
      <trkpt lat="44.1512" lon="1.7071">
        <ele>319</ele>
        <time>2023-03-05T07:45:24Z</time>
      </trkpt>
      <trkpt lat="44.15118" lon="1.70708">
        <ele>319</ele>
        <time>2023-03-05T07:45:25Z</time>
      </trkpt>
      <trkpt lat="44.15116" lon="1.70705">
        <ele>319</ele>
        <time>2023-03-05T07:45:26Z</time>
      </trkpt>
      <trkpt lat="44.15114" lon="1.70703">
        <ele>319</ele>
        <time>2023-03-05T07:45:27Z</time>
      </trkpt>
      <trkpt lat="44.15112" lon="1.707">
        <ele>319.2</ele>
        <time>2023-03-05T07:45:28Z</time>
      </trkpt>
      <trkpt lat="44.15109" lon="1.70698">
        <ele>319.2</ele>
        <time>2023-03-05T07:45:29Z</time>
      </trkpt>
      <trkpt lat="44.15107" lon="1.70696">
        <ele>319.4</ele>
        <time>2023-03-05T07:45:30Z</time>
      </trkpt>
      <trkpt lat="44.15106" lon="1.70694">
        <ele>319.4</ele>
        <time>2023-03-05T07:45:31Z</time>
      </trkpt>
      <trkpt lat="44.15103" lon="1.70689">
        <ele>319.6</ele>
        <time>2023-03-05T07:45:32Z</time>
      </trkpt>
      <trkpt lat="44.15102" lon="1.70686">
        <ele>319.8</ele>
        <time>2023-03-05T07:45:33Z</time>
      </trkpt>
      <trkpt lat="44.151" lon="1.70683">
        <ele>320</ele>
        <time>2023-03-05T07:45:34Z</time>
      </trkpt>
      <trkpt lat="44.15099" lon="1.70679">
        <ele>320</ele>
        <time>2023-03-05T07:45:35Z</time>
      </trkpt>
      <trkpt lat="44.15097" lon="1.70674">
        <ele>320.2</ele>
        <time>2023-03-05T07:45:36Z</time>
      </trkpt>
      <trkpt lat="44.15096" lon="1.70671">
        <ele>320.2</ele>
        <time>2023-03-05T07:45:37Z</time>
      </trkpt>
      <trkpt lat="44.15094" lon="1.70667">
        <ele>320.4</ele>
        <time>2023-03-05T07:45:38Z</time>
      </trkpt>
      <trkpt lat="44.15092" lon="1.70662">
        <ele>320.4</ele>
        <time>2023-03-05T07:45:39Z</time>
      </trkpt>
      <trkpt lat="44.1509" lon="1.7066">
        <ele>320.4</ele>
        <time>2023-03-05T07:45:40Z</time>
      </trkpt>
      <trkpt lat="44.15088" lon="1.70657">
        <ele>320.4</ele>
        <time>2023-03-05T07:45:41Z</time>
      </trkpt>
      <trkpt lat="44.15086" lon="1.70654">
        <ele>320.4</ele>
        <time>2023-03-05T07:45:42Z</time>
      </trkpt>
      <trkpt lat="44.15083" lon="1.7065">
        <ele>320.4</ele>
        <time>2023-03-05T07:45:43Z</time>
      </trkpt>
      <trkpt lat="44.1508" lon="1.70646">
        <ele>320.4</ele>
        <time>2023-03-05T07:45:44Z</time>
      </trkpt>
      <trkpt lat="44.15077" lon="1.70641">
        <ele>320.6</ele>
        <time>2023-03-05T07:45:45Z</time>
      </trkpt>
      <trkpt lat="44.15074" lon="1.70637">
        <ele>320.6</ele>
        <time>2023-03-05T07:45:46Z</time>
      </trkpt>
      <trkpt lat="44.15071" lon="1.70633">
        <ele>320.6</ele>
        <time>2023-03-05T07:45:47Z</time>
      </trkpt>
      <trkpt lat="44.15067" lon="1.70626">
        <ele>320.6</ele>
        <time>2023-03-05T07:45:48Z</time>
      </trkpt>
      <trkpt lat="44.15065" lon="1.70622">
        <ele>320.6</ele>
        <time>2023-03-05T07:45:49Z</time>
      </trkpt>
      <trkpt lat="44.15061" lon="1.70614">
        <ele>320.6</ele>
        <time>2023-03-05T07:45:50Z</time>
      </trkpt>
      <trkpt lat="44.15058" lon="1.7061">
        <ele>320.6</ele>
        <time>2023-03-05T07:45:51Z</time>
      </trkpt>
      <trkpt lat="44.15054" lon="1.70604">
        <ele>320.6</ele>
        <time>2023-03-05T07:45:52Z</time>
      </trkpt>
      <trkpt lat="44.15049" lon="1.70597">
        <ele>320.6</ele>
        <time>2023-03-05T07:45:53Z</time>
      </trkpt>
      <trkpt lat="44.15046" lon="1.70592">
        <ele>320.6</ele>
        <time>2023-03-05T07:45:54Z</time>
      </trkpt>
      <trkpt lat="44.15042" lon="1.70586">
        <ele>320.6</ele>
        <time>2023-03-05T07:45:55Z</time>
      </trkpt>
      <trkpt lat="44.15038" lon="1.70581">
        <ele>320.6</ele>
        <time>2023-03-05T07:45:56Z</time>
      </trkpt>
      <trkpt lat="44.15033" lon="1.70573">
        <ele>320.6</ele>
        <time>2023-03-05T07:45:57Z</time>
      </trkpt>
      <trkpt lat="44.15031" lon="1.70568">
        <ele>320.6</ele>
        <time>2023-03-05T07:45:58Z</time>
      </trkpt>
      <trkpt lat="44.15026" lon="1.70562">
        <ele>320.4</ele>
        <time>2023-03-05T07:45:59Z</time>
      </trkpt>
      <trkpt lat="44.15023" lon="1.70558">
        <ele>320.2</ele>
        <time>2023-03-05T07:46:00Z</time>
      </trkpt>
      <trkpt lat="44.15019" lon="1.70555">
        <ele>320.2</ele>
        <time>2023-03-05T07:46:01Z</time>
      </trkpt>
      <trkpt lat="44.15014" lon="1.70551">
        <ele>320</ele>
        <time>2023-03-05T07:46:02Z</time>
      </trkpt>
      <trkpt lat="44.1501" lon="1.70548">
        <ele>319.8</ele>
        <time>2023-03-05T07:46:03Z</time>
      </trkpt>
      <trkpt lat="44.15006" lon="1.70545">
        <ele>319.6</ele>
        <time>2023-03-05T07:46:04Z</time>
      </trkpt>
      <trkpt lat="44.15002" lon="1.70541">
        <ele>319.4</ele>
        <time>2023-03-05T07:46:05Z</time>
      </trkpt>
      <trkpt lat="44.14998" lon="1.70536">
        <ele>319</ele>
        <time>2023-03-05T07:46:06Z</time>
      </trkpt>
      <trkpt lat="44.14995" lon="1.70531">
        <ele>318.8</ele>
        <time>2023-03-05T07:46:07Z</time>
      </trkpt>
      <trkpt lat="44.14991" lon="1.70526">
        <ele>318.4</ele>
        <time>2023-03-05T07:46:08Z</time>
      </trkpt>
      <trkpt lat="44.14988" lon="1.70523">
        <ele>318.4</ele>
        <time>2023-03-05T07:46:09Z</time>
      </trkpt>
      <trkpt lat="44.14984" lon="1.70519">
        <ele>318.2</ele>
        <time>2023-03-05T07:46:10Z</time>
      </trkpt>
      <trkpt lat="44.14979" lon="1.70515">
        <ele>318</ele>
        <time>2023-03-05T07:46:11Z</time>
      </trkpt>
      <trkpt lat="44.14974" lon="1.70512">
        <ele>317.8</ele>
        <time>2023-03-05T07:46:12Z</time>
      </trkpt>
      <trkpt lat="44.1497" lon="1.70509">
        <ele>317.8</ele>
        <time>2023-03-05T07:46:13Z</time>
      </trkpt>
      <trkpt lat="44.14965" lon="1.70505">
        <ele>317.6</ele>
        <time>2023-03-05T07:46:14Z</time>
      </trkpt>
      <trkpt lat="44.1496" lon="1.705">
        <ele>317.6</ele>
        <time>2023-03-05T07:46:15Z</time>
      </trkpt>
      <trkpt lat="44.14954" lon="1.70494">
        <ele>317.6</ele>
        <time>2023-03-05T07:46:16Z</time>
      </trkpt>
      <trkpt lat="44.14949" lon="1.70489">
        <ele>317.4</ele>
        <time>2023-03-05T07:46:17Z</time>
      </trkpt>
      <trkpt lat="44.14945" lon="1.70485">
        <ele>317</ele>
        <time>2023-03-05T07:46:18Z</time>
      </trkpt>
      <trkpt lat="44.14939" lon="1.70481">
        <ele>316.8</ele>
        <time>2023-03-05T07:46:19Z</time>
      </trkpt>
      <trkpt lat="44.14933" lon="1.70477">
        <ele>316.6</ele>
        <time>2023-03-05T07:46:20Z</time>
      </trkpt>
      <trkpt lat="44.14927" lon="1.70471">
        <ele>316.8</ele>
        <time>2023-03-05T07:46:21Z</time>
      </trkpt>
      <trkpt lat="44.14923" lon="1.70465">
        <ele>316.8</ele>
        <time>2023-03-05T07:46:22Z</time>
      </trkpt>
      <trkpt lat="44.1492" lon="1.70459">
        <ele>316.6</ele>
        <time>2023-03-05T07:46:23Z</time>
      </trkpt>
      <trkpt lat="44.14916" lon="1.70452">
        <ele>316.4</ele>
        <time>2023-03-05T07:46:24Z</time>
      </trkpt>
      <trkpt lat="44.14911" lon="1.70445">
        <ele>316.4</ele>
        <time>2023-03-05T07:46:25Z</time>
      </trkpt>
      <trkpt lat="44.14906" lon="1.70437">
        <ele>316.4</ele>
        <time>2023-03-05T07:46:26Z</time>
      </trkpt>
      <trkpt lat="44.14902" lon="1.70431">
        <ele>316.2</ele>
        <time>2023-03-05T07:46:27Z</time>
      </trkpt>
      <trkpt lat="44.14898" lon="1.70424">
        <ele>316.2</ele>
        <time>2023-03-05T07:46:28Z</time>
      </trkpt>
      <trkpt lat="44.14892" lon="1.70416">
        <ele>316</ele>
        <time>2023-03-05T07:46:29Z</time>
      </trkpt>
      <trkpt lat="44.14888" lon="1.7041">
        <ele>315.8</ele>
        <time>2023-03-05T07:46:30Z</time>
      </trkpt>
      <trkpt lat="44.14883" lon="1.70402">
        <ele>315.2</ele>
        <time>2023-03-05T07:46:31Z</time>
      </trkpt>
      <trkpt lat="44.14878" lon="1.70394">
        <ele>315.2</ele>
        <time>2023-03-05T07:46:32Z</time>
      </trkpt>
      <trkpt lat="44.14872" lon="1.70387">
        <ele>314.6</ele>
        <time>2023-03-05T07:46:33Z</time>
      </trkpt>
      <trkpt lat="44.14866" lon="1.70377">
        <ele>314.4</ele>
        <time>2023-03-05T07:46:34Z</time>
      </trkpt>
      <trkpt lat="44.1486" lon="1.70369">
        <ele>314</ele>
        <time>2023-03-05T07:46:35Z</time>
      </trkpt>
      <trkpt lat="44.14856" lon="1.70364">
        <ele>313.6</ele>
        <time>2023-03-05T07:46:36Z</time>
      </trkpt>
      <trkpt lat="44.1485" lon="1.70356">
        <ele>313.4</ele>
        <time>2023-03-05T07:46:37Z</time>
      </trkpt>
      <trkpt lat="44.14843" lon="1.70348">
        <ele>313.2</ele>
        <time>2023-03-05T07:46:38Z</time>
      </trkpt>
      <trkpt lat="44.14839" lon="1.70343">
        <ele>312</ele>
        <time>2023-03-05T07:46:39Z</time>
      </trkpt>
      <trkpt lat="44.14832" lon="1.70336">
        <ele>311.6</ele>
        <time>2023-03-05T07:46:40Z</time>
      </trkpt>
      <trkpt lat="44.14828" lon="1.70332">
        <ele>311.4</ele>
        <time>2023-03-05T07:46:41Z</time>
      </trkpt>
      <trkpt lat="44.14825" lon="1.70326">
        <ele>310.6</ele>
        <time>2023-03-05T07:46:42Z</time>
      </trkpt>
      <trkpt lat="44.14822" lon="1.70319">
        <ele>310</ele>
        <time>2023-03-05T07:46:43Z</time>
      </trkpt>
      <trkpt lat="44.1482" lon="1.70313">
        <ele>308.8</ele>
        <time>2023-03-05T07:46:44Z</time>
      </trkpt>
      <trkpt lat="44.14819" lon="1.70305">
        <ele>308.4</ele>
        <time>2023-03-05T07:46:45Z</time>
      </trkpt>
      <trkpt lat="44.14818" lon="1.70296">
        <ele>307.2</ele>
        <time>2023-03-05T07:46:46Z</time>
      </trkpt>
      <trkpt lat="44.14818" lon="1.70287">
        <ele>306.8</ele>
        <time>2023-03-05T07:46:47Z</time>
      </trkpt>
      <trkpt lat="44.1482" lon="1.70279">
        <ele>305.4</ele>
        <time>2023-03-05T07:46:48Z</time>
      </trkpt>
      <trkpt lat="44.1482" lon="1.70272">
        <ele>305</ele>
        <time>2023-03-05T07:46:49Z</time>
      </trkpt>
      <trkpt lat="44.14819" lon="1.70267">
        <ele>304.2</ele>
        <time>2023-03-05T07:46:50Z</time>
      </trkpt>
      <trkpt lat="44.14816" lon="1.70263">
        <ele>303.6</ele>
        <time>2023-03-05T07:46:51Z</time>
      </trkpt>
      <trkpt lat="44.14812" lon="1.7026">
        <ele>302.6</ele>
        <time>2023-03-05T07:46:52Z</time>
      </trkpt>
      <trkpt lat="44.14808" lon="1.70256">
        <ele>302.2</ele>
        <time>2023-03-05T07:46:53Z</time>
      </trkpt>
      <trkpt lat="44.14804" lon="1.70254">
        <ele>301</ele>
        <time>2023-03-05T07:46:54Z</time>
      </trkpt>
      <trkpt lat="44.14801" lon="1.70253">
        <ele>300.6</ele>
        <time>2023-03-05T07:46:55Z</time>
      </trkpt>
      <trkpt lat="44.14798" lon="1.70251">
        <ele>300.2</ele>
        <time>2023-03-05T07:46:56Z</time>
      </trkpt>
      <trkpt lat="44.14794" lon="1.7025">
        <ele>300.2</ele>
        <time>2023-03-05T07:46:57Z</time>
      </trkpt>
      <trkpt lat="44.14791" lon="1.7025">
        <ele>300</ele>
        <time>2023-03-05T07:46:58Z</time>
      </trkpt>
      <trkpt lat="44.14788" lon="1.70249">
        <ele>300</ele>
        <time>2023-03-05T07:46:59Z</time>
      </trkpt>
      <trkpt lat="44.14785" lon="1.70248">
        <ele>300</ele>
        <time>2023-03-05T07:47:00Z</time>
      </trkpt>
      <trkpt lat="44.14782" lon="1.70248">
        <ele>300</ele>
        <time>2023-03-05T07:47:01Z</time>
      </trkpt>
      <trkpt lat="44.14779" lon="1.70248">
        <ele>300.2</ele>
        <time>2023-03-05T07:47:02Z</time>
      </trkpt>
      <trkpt lat="44.14775" lon="1.70246">
        <ele>300.4</ele>
        <time>2023-03-05T07:47:03Z</time>
      </trkpt>
      <trkpt lat="44.14773" lon="1.70244">
        <ele>300.6</ele>
        <time>2023-03-05T07:47:04Z</time>
      </trkpt>
      <trkpt lat="44.14769" lon="1.7024">
        <ele>301.2</ele>
        <time>2023-03-05T07:47:05Z</time>
      </trkpt>
      <trkpt lat="44.14767" lon="1.70238">
        <ele>301.4</ele>
        <time>2023-03-05T07:47:06Z</time>
      </trkpt>
      <trkpt lat="44.14765" lon="1.70235">
        <ele>301.4</ele>
        <time>2023-03-05T07:47:07Z</time>
      </trkpt>
      <trkpt lat="44.14762" lon="1.70232">
        <ele>301.6</ele>
        <time>2023-03-05T07:47:08Z</time>
      </trkpt>
      <trkpt lat="44.14759" lon="1.7023">
        <ele>302</ele>
        <time>2023-03-05T07:47:09Z</time>
      </trkpt>
      <trkpt lat="44.14756" lon="1.70228">
        <ele>302.2</ele>
        <time>2023-03-05T07:47:10Z</time>
      </trkpt>
      <trkpt lat="44.14752" lon="1.70225">
        <ele>302.6</ele>
        <time>2023-03-05T07:47:11Z</time>
      </trkpt>
      <trkpt lat="44.14748" lon="1.70222">
        <ele>302.8</ele>
        <time>2023-03-05T07:47:12Z</time>
      </trkpt>
      <trkpt lat="44.14745" lon="1.70221">
        <ele>303.2</ele>
        <time>2023-03-05T07:47:13Z</time>
      </trkpt>
      <trkpt lat="44.14741" lon="1.70219">
        <ele>303.2</ele>
        <time>2023-03-05T07:47:14Z</time>
      </trkpt>
      <trkpt lat="44.14738" lon="1.70218">
        <ele>303.6</ele>
        <time>2023-03-05T07:47:15Z</time>
      </trkpt>
      <trkpt lat="44.14733" lon="1.70217">
        <ele>303.8</ele>
        <time>2023-03-05T07:47:16Z</time>
      </trkpt>
      <trkpt lat="44.1473" lon="1.70218">
        <ele>304.2</ele>
        <time>2023-03-05T07:47:17Z</time>
      </trkpt>
      <trkpt lat="44.14726" lon="1.7022">
        <ele>304.4</ele>
        <time>2023-03-05T07:47:18Z</time>
      </trkpt>
      <trkpt lat="44.14722" lon="1.70224">
        <ele>304.4</ele>
        <time>2023-03-05T07:47:19Z</time>
      </trkpt>
      <trkpt lat="44.14718" lon="1.70227">
        <ele>304.6</ele>
        <time>2023-03-05T07:47:20Z</time>
      </trkpt>
      <trkpt lat="44.14714" lon="1.70231">
        <ele>304.6</ele>
        <time>2023-03-05T07:47:21Z</time>
      </trkpt>
      <trkpt lat="44.1471" lon="1.70234">
        <ele>304.8</ele>
        <time>2023-03-05T07:47:22Z</time>
      </trkpt>
      <trkpt lat="44.14705" lon="1.70237">
        <ele>304.8</ele>
        <time>2023-03-05T07:47:23Z</time>
      </trkpt>
      <trkpt lat="44.14701" lon="1.7024">
        <ele>304.8</ele>
        <time>2023-03-05T07:47:24Z</time>
      </trkpt>
      <trkpt lat="44.14697" lon="1.70241">
        <ele>305</ele>
        <time>2023-03-05T07:47:25Z</time>
      </trkpt>
      <trkpt lat="44.14693" lon="1.70242">
        <ele>305</ele>
        <time>2023-03-05T07:47:26Z</time>
      </trkpt>
      <trkpt lat="44.14689" lon="1.70243">
        <ele>305</ele>
        <time>2023-03-05T07:47:27Z</time>
      </trkpt>
      <trkpt lat="44.14684" lon="1.70245">
        <ele>305</ele>
        <time>2023-03-05T07:47:28Z</time>
      </trkpt>
      <trkpt lat="44.14679" lon="1.70246">
        <ele>305</ele>
        <time>2023-03-05T07:47:29Z</time>
      </trkpt>
      <trkpt lat="44.14676" lon="1.70247">
        <ele>305</ele>
        <time>2023-03-05T07:47:30Z</time>
      </trkpt>
      <trkpt lat="44.14671" lon="1.70248">
        <ele>305</ele>
        <time>2023-03-05T07:47:31Z</time>
      </trkpt>
      <trkpt lat="44.14666" lon="1.7025">
        <ele>305</ele>
        <time>2023-03-05T07:47:32Z</time>
      </trkpt>
      <trkpt lat="44.14662" lon="1.70252">
        <ele>305</ele>
        <time>2023-03-05T07:47:33Z</time>
      </trkpt>
      <trkpt lat="44.14657" lon="1.70254">
        <ele>304.8</ele>
        <time>2023-03-05T07:47:34Z</time>
      </trkpt>
      <trkpt lat="44.14654" lon="1.70255">
        <ele>304.8</ele>
        <time>2023-03-05T07:47:35Z</time>
      </trkpt>
      <trkpt lat="44.1465" lon="1.70258">
        <ele>304.8</ele>
        <time>2023-03-05T07:47:36Z</time>
      </trkpt>
      <trkpt lat="44.14645" lon="1.7026">
        <ele>304.8</ele>
        <time>2023-03-05T07:47:37Z</time>
      </trkpt>
      <trkpt lat="44.14641" lon="1.70261">
        <ele>304.8</ele>
        <time>2023-03-05T07:47:38Z</time>
      </trkpt>
      <trkpt lat="44.14637" lon="1.70263">
        <ele>304.8</ele>
        <time>2023-03-05T07:47:39Z</time>
      </trkpt>
      <trkpt lat="44.14633" lon="1.70263">
        <ele>304.8</ele>
        <time>2023-03-05T07:47:40Z</time>
      </trkpt>
      <trkpt lat="44.14628" lon="1.70264">
        <ele>304.8</ele>
        <time>2023-03-05T07:47:41Z</time>
      </trkpt>
      <trkpt lat="44.14624" lon="1.70264">
        <ele>305</ele>
        <time>2023-03-05T07:47:42Z</time>
      </trkpt>
      <trkpt lat="44.1462" lon="1.70264">
        <ele>305</ele>
        <time>2023-03-05T07:47:43Z</time>
      </trkpt>
      <trkpt lat="44.14617" lon="1.70265">
        <ele>305</ele>
        <time>2023-03-05T07:47:44Z</time>
      </trkpt>
      <trkpt lat="44.14613" lon="1.70266">
        <ele>305</ele>
        <time>2023-03-05T07:47:45Z</time>
      </trkpt>
      <trkpt lat="44.14608" lon="1.70268">
        <ele>305.2</ele>
        <time>2023-03-05T07:47:46Z</time>
      </trkpt>
      <trkpt lat="44.14604" lon="1.7027">
        <ele>305.2</ele>
        <time>2023-03-05T07:47:47Z</time>
      </trkpt>
      <trkpt lat="44.14601" lon="1.7027">
        <ele>305.6</ele>
        <time>2023-03-05T07:47:48Z</time>
      </trkpt>
      <trkpt lat="44.14598" lon="1.70271">
        <ele>305.6</ele>
        <time>2023-03-05T07:47:49Z</time>
      </trkpt>
      <trkpt lat="44.14593" lon="1.70271">
        <ele>305.6</ele>
        <time>2023-03-05T07:47:50Z</time>
      </trkpt>
      <trkpt lat="44.1459" lon="1.70271">
        <ele>305.8</ele>
        <time>2023-03-05T07:47:51Z</time>
      </trkpt>
      <trkpt lat="44.14586" lon="1.7027">
        <ele>305.8</ele>
        <time>2023-03-05T07:47:52Z</time>
      </trkpt>
      <trkpt lat="44.14582" lon="1.7027">
        <ele>306</ele>
        <time>2023-03-05T07:47:53Z</time>
      </trkpt>
      <trkpt lat="44.14579" lon="1.7027">
        <ele>306.4</ele>
        <time>2023-03-05T07:47:54Z</time>
      </trkpt>
      <trkpt lat="44.14574" lon="1.7027">
        <ele>306.6</ele>
        <time>2023-03-05T07:47:55Z</time>
      </trkpt>
      <trkpt lat="44.1457" lon="1.70271">
        <ele>306.8</ele>
        <time>2023-03-05T07:47:56Z</time>
      </trkpt>
      <trkpt lat="44.14566" lon="1.70272">
        <ele>307</ele>
        <time>2023-03-05T07:47:57Z</time>
      </trkpt>
      <trkpt lat="44.14563" lon="1.70273">
        <ele>307.2</ele>
        <time>2023-03-05T07:47:58Z</time>
      </trkpt>
      <trkpt lat="44.14559" lon="1.70274">
        <ele>307.4</ele>
        <time>2023-03-05T07:47:59Z</time>
      </trkpt>
      <trkpt lat="44.14555" lon="1.70274">
        <ele>307.6</ele>
        <time>2023-03-05T07:48:00Z</time>
      </trkpt>
      <trkpt lat="44.14551" lon="1.70275">
        <ele>307.6</ele>
        <time>2023-03-05T07:48:01Z</time>
      </trkpt>
      <trkpt lat="44.14548" lon="1.70276">
        <ele>308.2</ele>
        <time>2023-03-05T07:48:02Z</time>
      </trkpt>
      <trkpt lat="44.14545" lon="1.70278">
        <ele>308.4</ele>
        <time>2023-03-05T07:48:03Z</time>
      </trkpt>
      <trkpt lat="44.14541" lon="1.7028">
        <ele>308.8</ele>
        <time>2023-03-05T07:48:04Z</time>
      </trkpt>
      <trkpt lat="44.14537" lon="1.70281">
        <ele>308.8</ele>
        <time>2023-03-05T07:48:05Z</time>
      </trkpt>
      <trkpt lat="44.14534" lon="1.70284">
        <ele>309.2</ele>
        <time>2023-03-05T07:48:06Z</time>
      </trkpt>
      <trkpt lat="44.14531" lon="1.70285">
        <ele>309.4</ele>
        <time>2023-03-05T07:48:07Z</time>
      </trkpt>
      <trkpt lat="44.14527" lon="1.70288">
        <ele>309.8</ele>
        <time>2023-03-05T07:48:08Z</time>
      </trkpt>
      <trkpt lat="44.14524" lon="1.70291">
        <ele>310</ele>
        <time>2023-03-05T07:48:09Z</time>
      </trkpt>
      <trkpt lat="44.14521" lon="1.70294">
        <ele>310.2</ele>
        <time>2023-03-05T07:48:10Z</time>
      </trkpt>
      <trkpt lat="44.14518" lon="1.70296">
        <ele>310.4</ele>
        <time>2023-03-05T07:48:11Z</time>
      </trkpt>
      <trkpt lat="44.14515" lon="1.70298">
        <ele>310.8</ele>
        <time>2023-03-05T07:48:12Z</time>
      </trkpt>
      <trkpt lat="44.14511" lon="1.70301">
        <ele>310.8</ele>
        <time>2023-03-05T07:48:13Z</time>
      </trkpt>
      <trkpt lat="44.14508" lon="1.70303">
        <ele>311.2</ele>
        <time>2023-03-05T07:48:14Z</time>
      </trkpt>
      <trkpt lat="44.14504" lon="1.70305">
        <ele>311.4</ele>
        <time>2023-03-05T07:48:15Z</time>
      </trkpt>
      <trkpt lat="44.145" lon="1.70306">
        <ele>311.6</ele>
        <time>2023-03-05T07:48:16Z</time>
      </trkpt>
      <trkpt lat="44.14496" lon="1.70308">
        <ele>311.8</ele>
        <time>2023-03-05T07:48:17Z</time>
      </trkpt>
      <trkpt lat="44.14491" lon="1.7031">
        <ele>311.8</ele>
        <time>2023-03-05T07:48:18Z</time>
      </trkpt>
      <trkpt lat="44.14486" lon="1.70312">
        <ele>312</ele>
        <time>2023-03-05T07:48:19Z</time>
      </trkpt>
      <trkpt lat="44.14482" lon="1.70314">
        <ele>312</ele>
        <time>2023-03-05T07:48:20Z</time>
      </trkpt>
      <trkpt lat="44.14478" lon="1.70316">
        <ele>312.2</ele>
        <time>2023-03-05T07:48:21Z</time>
      </trkpt>
      <trkpt lat="44.14474" lon="1.70318">
        <ele>312.2</ele>
        <time>2023-03-05T07:48:22Z</time>
      </trkpt>
      <trkpt lat="44.1447" lon="1.70319">
        <ele>312.4</ele>
        <time>2023-03-05T07:48:23Z</time>
      </trkpt>
      <trkpt lat="44.14465" lon="1.70321">
        <ele>312.4</ele>
        <time>2023-03-05T07:48:24Z</time>
      </trkpt>
      <trkpt lat="44.14462" lon="1.70322">
        <ele>312.6</ele>
        <time>2023-03-05T07:48:25Z</time>
      </trkpt>
      <trkpt lat="44.14459" lon="1.70323">
        <ele>312.6</ele>
        <time>2023-03-05T07:48:26Z</time>
      </trkpt>
      <trkpt lat="44.14456" lon="1.70327">
        <ele>312.6</ele>
        <time>2023-03-05T07:48:27Z</time>
      </trkpt>
      <trkpt lat="44.14453" lon="1.70331">
        <ele>312.8</ele>
        <time>2023-03-05T07:48:28Z</time>
      </trkpt>
      <trkpt lat="44.1445" lon="1.70333">
        <ele>312.8</ele>
        <time>2023-03-05T07:48:29Z</time>
      </trkpt>
      <trkpt lat="44.14445" lon="1.70336">
        <ele>312.8</ele>
        <time>2023-03-05T07:48:30Z</time>
      </trkpt>
      <trkpt lat="44.14441" lon="1.70339">
        <ele>312.8</ele>
        <time>2023-03-05T07:48:31Z</time>
      </trkpt>
      <trkpt lat="44.14437" lon="1.70343">
        <ele>312.8</ele>
        <time>2023-03-05T07:48:32Z</time>
      </trkpt>
      <trkpt lat="44.14434" lon="1.70347">
        <ele>312.8</ele>
        <time>2023-03-05T07:48:33Z</time>
      </trkpt>
      <trkpt lat="44.14431" lon="1.7035">
        <ele>312.8</ele>
        <time>2023-03-05T07:48:34Z</time>
      </trkpt>
      <trkpt lat="44.14426" lon="1.70355">
        <ele>313</ele>
        <time>2023-03-05T07:48:35Z</time>
      </trkpt>
      <trkpt lat="44.14421" lon="1.70358">
        <ele>312.8</ele>
        <time>2023-03-05T07:48:36Z</time>
      </trkpt>
      <trkpt lat="44.14417" lon="1.70363">
        <ele>312.8</ele>
        <time>2023-03-05T07:48:37Z</time>
      </trkpt>
      <trkpt lat="44.14413" lon="1.70367">
        <ele>312.6</ele>
        <time>2023-03-05T07:48:38Z</time>
      </trkpt>
      <trkpt lat="44.14409" lon="1.70372">
        <ele>312.6</ele>
        <time>2023-03-05T07:48:39Z</time>
      </trkpt>
      <trkpt lat="44.14403" lon="1.70377">
        <ele>312.4</ele>
        <time>2023-03-05T07:48:40Z</time>
      </trkpt>
      <trkpt lat="44.144" lon="1.70383">
        <ele>312.4</ele>
        <time>2023-03-05T07:48:41Z</time>
      </trkpt>
      <trkpt lat="44.14395" lon="1.70389">
        <ele>312.2</ele>
        <time>2023-03-05T07:48:42Z</time>
      </trkpt>
      <trkpt lat="44.14391" lon="1.70394">
        <ele>312</ele>
        <time>2023-03-05T07:48:43Z</time>
      </trkpt>
      <trkpt lat="44.14387" lon="1.70399">
        <ele>311.8</ele>
        <time>2023-03-05T07:48:44Z</time>
      </trkpt>
      <trkpt lat="44.14379" lon="1.70404">
        <ele>311.8</ele>
        <time>2023-03-05T07:48:45Z</time>
      </trkpt>
      <trkpt lat="44.14373" lon="1.7041">
        <ele>311.6</ele>
        <time>2023-03-05T07:48:46Z</time>
      </trkpt>
      <trkpt lat="44.14369" lon="1.70412">
        <ele>311.6</ele>
        <time>2023-03-05T07:48:47Z</time>
      </trkpt>
      <trkpt lat="44.14363" lon="1.70416">
        <ele>311.2</ele>
        <time>2023-03-05T07:48:48Z</time>
      </trkpt>
      <trkpt lat="44.14356" lon="1.70421">
        <ele>311.2</ele>
        <time>2023-03-05T07:48:49Z</time>
      </trkpt>
      <trkpt lat="44.14352" lon="1.70424">
        <ele>311</ele>
        <time>2023-03-05T07:48:50Z</time>
      </trkpt>
      <trkpt lat="44.14347" lon="1.70428">
        <ele>311</ele>
        <time>2023-03-05T07:48:51Z</time>
      </trkpt>
      <trkpt lat="44.14342" lon="1.70431">
        <ele>310.8</ele>
        <time>2023-03-05T07:48:52Z</time>
      </trkpt>
      <trkpt lat="44.14336" lon="1.70437">
        <ele>310.6</ele>
        <time>2023-03-05T07:48:53Z</time>
      </trkpt>
      <trkpt lat="44.14331" lon="1.70441">
        <ele>310.4</ele>
        <time>2023-03-05T07:48:54Z</time>
      </trkpt>
      <trkpt lat="44.14328" lon="1.70445">
        <ele>310.4</ele>
        <time>2023-03-05T07:48:55Z</time>
      </trkpt>
      <trkpt lat="44.14323" lon="1.7045">
        <ele>310.2</ele>
        <time>2023-03-05T07:48:56Z</time>
      </trkpt>
      <trkpt lat="44.14318" lon="1.70454">
        <ele>310</ele>
        <time>2023-03-05T07:48:57Z</time>
      </trkpt>
      <trkpt lat="44.14313" lon="1.7046">
        <ele>310</ele>
        <time>2023-03-05T07:48:58Z</time>
      </trkpt>
      <trkpt lat="44.14309" lon="1.70465">
        <ele>309.8</ele>
        <time>2023-03-05T07:48:59Z</time>
      </trkpt>
      <trkpt lat="44.14305" lon="1.7047">
        <ele>309.8</ele>
        <time>2023-03-05T07:49:00Z</time>
      </trkpt>
      <trkpt lat="44.14301" lon="1.70474">
        <ele>309.8</ele>
        <time>2023-03-05T07:49:01Z</time>
      </trkpt>
      <trkpt lat="44.14297" lon="1.70479">
        <ele>309.8</ele>
        <time>2023-03-05T07:49:02Z</time>
      </trkpt>
      <trkpt lat="44.14292" lon="1.70486">
        <ele>309.8</ele>
        <time>2023-03-05T07:49:03Z</time>
      </trkpt>
      <trkpt lat="44.14288" lon="1.70491">
        <ele>309.8</ele>
        <time>2023-03-05T07:49:04Z</time>
      </trkpt>
      <trkpt lat="44.14284" lon="1.70496">
        <ele>309.8</ele>
        <time>2023-03-05T07:49:05Z</time>
      </trkpt>
      <trkpt lat="44.14279" lon="1.70502">
        <ele>309.8</ele>
        <time>2023-03-05T07:49:06Z</time>
      </trkpt>
      <trkpt lat="44.14274" lon="1.7051">
        <ele>309.6</ele>
        <time>2023-03-05T07:49:07Z</time>
      </trkpt>
      <trkpt lat="44.14269" lon="1.70516">
        <ele>309.6</ele>
        <time>2023-03-05T07:49:08Z</time>
      </trkpt>
      <trkpt lat="44.14265" lon="1.70523">
        <ele>309.6</ele>
        <time>2023-03-05T07:49:09Z</time>
      </trkpt>
      <trkpt lat="44.1426" lon="1.70529">
        <ele>309.6</ele>
        <time>2023-03-05T07:49:10Z</time>
      </trkpt>
      <trkpt lat="44.14254" lon="1.70535">
        <ele>309.4</ele>
        <time>2023-03-05T07:49:11Z</time>
      </trkpt>
      <trkpt lat="44.14247" lon="1.70542">
        <ele>309.4</ele>
        <time>2023-03-05T07:49:12Z</time>
      </trkpt>
      <trkpt lat="44.14241" lon="1.70547">
        <ele>309</ele>
        <time>2023-03-05T07:49:13Z</time>
      </trkpt>
      <trkpt lat="44.14235" lon="1.7055">
        <ele>308.8</ele>
        <time>2023-03-05T07:49:14Z</time>
      </trkpt>
      <trkpt lat="44.14229" lon="1.70554">
        <ele>308.4</ele>
        <time>2023-03-05T07:49:15Z</time>
      </trkpt>
      <trkpt lat="44.14221" lon="1.70559">
        <ele>308</ele>
        <time>2023-03-05T07:49:16Z</time>
      </trkpt>
      <trkpt lat="44.14214" lon="1.70563">
        <ele>307.8</ele>
        <time>2023-03-05T07:49:17Z</time>
      </trkpt>
      <trkpt lat="44.14208" lon="1.70568">
        <ele>307.6</ele>
        <time>2023-03-05T07:49:18Z</time>
      </trkpt>
      <trkpt lat="44.14203" lon="1.70571">
        <ele>307.4</ele>
        <time>2023-03-05T07:49:19Z</time>
      </trkpt>
      <trkpt lat="44.14197" lon="1.70576">
        <ele>307.2</ele>
        <time>2023-03-05T07:49:20Z</time>
      </trkpt>
      <trkpt lat="44.1419" lon="1.70581">
        <ele>307.2</ele>
        <time>2023-03-05T07:49:21Z</time>
      </trkpt>
      <trkpt lat="44.14185" lon="1.70586">
        <ele>307</ele>
        <time>2023-03-05T07:49:22Z</time>
      </trkpt>
      <trkpt lat="44.14181" lon="1.7059">
        <ele>306.8</ele>
        <time>2023-03-05T07:49:23Z</time>
      </trkpt>
      <trkpt lat="44.14175" lon="1.70597">
        <ele>306.6</ele>
        <time>2023-03-05T07:49:24Z</time>
      </trkpt>
      <trkpt lat="44.14169" lon="1.70604">
        <ele>306.4</ele>
        <time>2023-03-05T07:49:25Z</time>
      </trkpt>
      <trkpt lat="44.14165" lon="1.7061">
        <ele>306.4</ele>
        <time>2023-03-05T07:49:26Z</time>
      </trkpt>
      <trkpt lat="44.1416" lon="1.70616">
        <ele>306.2</ele>
        <time>2023-03-05T07:49:27Z</time>
      </trkpt>
      <trkpt lat="44.14157" lon="1.70621">
        <ele>306</ele>
        <time>2023-03-05T07:49:28Z</time>
      </trkpt>
      <trkpt lat="44.14151" lon="1.70628">
        <ele>305.8</ele>
        <time>2023-03-05T07:49:29Z</time>
      </trkpt>
      <trkpt lat="44.14146" lon="1.70633">
        <ele>305.8</ele>
        <time>2023-03-05T07:49:30Z</time>
      </trkpt>
      <trkpt lat="44.14141" lon="1.70637">
        <ele>305.8</ele>
        <time>2023-03-05T07:49:31Z</time>
      </trkpt>
      <trkpt lat="44.14135" lon="1.7064">
        <ele>305.6</ele>
        <time>2023-03-05T07:49:32Z</time>
      </trkpt>
      <trkpt lat="44.14131" lon="1.70643">
        <ele>305.6</ele>
        <time>2023-03-05T07:49:33Z</time>
      </trkpt>
      <trkpt lat="44.14125" lon="1.70646">
        <ele>305.6</ele>
        <time>2023-03-05T07:49:34Z</time>
      </trkpt>
      <trkpt lat="44.14121" lon="1.70648">
        <ele>305.4</ele>
        <time>2023-03-05T07:49:35Z</time>
      </trkpt>
      <trkpt lat="44.14118" lon="1.70649">
        <ele>305.4</ele>
        <time>2023-03-05T07:49:36Z</time>
      </trkpt>
      <trkpt lat="44.14115" lon="1.7065">
        <ele>305.2</ele>
        <time>2023-03-05T07:49:37Z</time>
      </trkpt>
      <trkpt lat="44.14112" lon="1.70652">
        <ele>305.2</ele>
        <time>2023-03-05T07:49:38Z</time>
      </trkpt>
      <trkpt lat="44.14107" lon="1.70655">
        <ele>305</ele>
        <time>2023-03-05T07:49:39Z</time>
      </trkpt>
      <trkpt lat="44.14103" lon="1.70657">
        <ele>305</ele>
        <time>2023-03-05T07:49:40Z</time>
      </trkpt>
      <trkpt lat="44.141" lon="1.7066">
        <ele>304.8</ele>
        <time>2023-03-05T07:49:41Z</time>
      </trkpt>
      <trkpt lat="44.14095" lon="1.70665">
        <ele>304.6</ele>
        <time>2023-03-05T07:49:42Z</time>
      </trkpt>
      <trkpt lat="44.14092" lon="1.70672">
        <ele>304.4</ele>
        <time>2023-03-05T07:49:43Z</time>
      </trkpt>
      <trkpt lat="44.1409" lon="1.70681">
        <ele>304.2</ele>
        <time>2023-03-05T07:49:44Z</time>
      </trkpt>
      <trkpt lat="44.14087" lon="1.7069">
        <ele>304</ele>
        <time>2023-03-05T07:49:45Z</time>
      </trkpt>
      <trkpt lat="44.14084" lon="1.70697">
        <ele>304</ele>
        <time>2023-03-05T07:49:46Z</time>
      </trkpt>
      <trkpt lat="44.14078" lon="1.70708">
        <ele>303.6</ele>
        <time>2023-03-05T07:49:47Z</time>
      </trkpt>
      <trkpt lat="44.14074" lon="1.70718">
        <ele>303.4</ele>
        <time>2023-03-05T07:49:48Z</time>
      </trkpt>
      <trkpt lat="44.14069" lon="1.70729">
        <ele>303</ele>
        <time>2023-03-05T07:49:49Z</time>
      </trkpt>
      <trkpt lat="44.14064" lon="1.70739">
        <ele>302.6</ele>
        <time>2023-03-05T07:49:50Z</time>
      </trkpt>
      <trkpt lat="44.14058" lon="1.70749">
        <ele>301.4</ele>
        <time>2023-03-05T07:49:51Z</time>
      </trkpt>
      <trkpt lat="44.14052" lon="1.70758">
        <ele>300.8</ele>
        <time>2023-03-05T07:49:52Z</time>
      </trkpt>
      <trkpt lat="44.14046" lon="1.70767">
        <ele>300</ele>
        <time>2023-03-05T07:49:53Z</time>
      </trkpt>
      <trkpt lat="44.14041" lon="1.70775">
        <ele>299.2</ele>
        <time>2023-03-05T07:49:54Z</time>
      </trkpt>
      <trkpt lat="44.14035" lon="1.70784">
        <ele>298.8</ele>
        <time>2023-03-05T07:49:55Z</time>
      </trkpt>
      <trkpt lat="44.1403" lon="1.70796">
        <ele>297.8</ele>
        <time>2023-03-05T07:49:56Z</time>
      </trkpt>
      <trkpt lat="44.14026" lon="1.70804">
        <ele>297.4</ele>
        <time>2023-03-05T07:49:57Z</time>
      </trkpt>
      <trkpt lat="44.14021" lon="1.70814">
        <ele>296.2</ele>
        <time>2023-03-05T07:49:58Z</time>
      </trkpt>
      <trkpt lat="44.14016" lon="1.70825">
        <ele>295.6</ele>
        <time>2023-03-05T07:49:59Z</time>
      </trkpt>
      <trkpt lat="44.1401" lon="1.70834">
        <ele>295</ele>
        <time>2023-03-05T07:50:00Z</time>
      </trkpt>
      <trkpt lat="44.14005" lon="1.70843">
        <ele>294.8</ele>
        <time>2023-03-05T07:50:01Z</time>
      </trkpt>
      <trkpt lat="44.14" lon="1.70852">
        <ele>294</ele>
        <time>2023-03-05T07:50:02Z</time>
      </trkpt>
      <trkpt lat="44.13994" lon="1.70862">
        <ele>293.8</ele>
        <time>2023-03-05T07:50:03Z</time>
      </trkpt>
      <trkpt lat="44.13988" lon="1.70871">
        <ele>292.6</ele>
        <time>2023-03-05T07:50:04Z</time>
      </trkpt>
      <trkpt lat="44.13982" lon="1.7088">
        <ele>292.2</ele>
        <time>2023-03-05T07:50:05Z</time>
      </trkpt>
      <trkpt lat="44.13975" lon="1.70889">
        <ele>291</ele>
        <time>2023-03-05T07:50:06Z</time>
      </trkpt>
      <trkpt lat="44.13966" lon="1.709">
        <ele>290.2</ele>
        <time>2023-03-05T07:50:07Z</time>
      </trkpt>
      <trkpt lat="44.13958" lon="1.70909">
        <ele>289</ele>
        <time>2023-03-05T07:50:08Z</time>
      </trkpt>
      <trkpt lat="44.13953" lon="1.70916">
        <ele>288.4</ele>
        <time>2023-03-05T07:50:09Z</time>
      </trkpt>
      <trkpt lat="44.13944" lon="1.70926">
        <ele>287</ele>
        <time>2023-03-05T07:50:10Z</time>
      </trkpt>
      <trkpt lat="44.13937" lon="1.70933">
        <ele>286.6</ele>
        <time>2023-03-05T07:50:11Z</time>
      </trkpt>
      <trkpt lat="44.13932" lon="1.70938">
        <ele>285.8</ele>
        <time>2023-03-05T07:50:12Z</time>
      </trkpt>
      <trkpt lat="44.13926" lon="1.70943">
        <ele>285.6</ele>
        <time>2023-03-05T07:50:13Z</time>
      </trkpt>
      <trkpt lat="44.1392" lon="1.70948">
        <ele>284.8</ele>
        <time>2023-03-05T07:50:14Z</time>
      </trkpt>
      <trkpt lat="44.13914" lon="1.70954">
        <ele>283</ele>
        <time>2023-03-05T07:50:15Z</time>
      </trkpt>
      <trkpt lat="44.13909" lon="1.7096">
        <ele>282</ele>
        <time>2023-03-05T07:50:16Z</time>
      </trkpt>
      <trkpt lat="44.13905" lon="1.70967">
        <ele>279.8</ele>
        <time>2023-03-05T07:50:17Z</time>
      </trkpt>
      <trkpt lat="44.13901" lon="1.70975">
        <ele>279.2</ele>
        <time>2023-03-05T07:50:18Z</time>
      </trkpt>
      <trkpt lat="44.13898" lon="1.70984">
        <ele>278.4</ele>
        <time>2023-03-05T07:50:19Z</time>
      </trkpt>
      <trkpt lat="44.13895" lon="1.70993">
        <ele>278</ele>
        <time>2023-03-05T07:50:20Z</time>
      </trkpt>
      <trkpt lat="44.13894" lon="1.71002">
        <ele>277.2</ele>
        <time>2023-03-05T07:50:21Z</time>
      </trkpt>
      <trkpt lat="44.13894" lon="1.7101">
        <ele>276.8</ele>
        <time>2023-03-05T07:50:22Z</time>
      </trkpt>
      <trkpt lat="44.13894" lon="1.7102">
        <ele>274.8</ele>
        <time>2023-03-05T07:50:23Z</time>
      </trkpt>
      <trkpt lat="44.13894" lon="1.71029">
        <ele>273.8</ele>
        <time>2023-03-05T07:50:24Z</time>
      </trkpt>
      <trkpt lat="44.13895" lon="1.71037">
        <ele>272.6</ele>
        <time>2023-03-05T07:50:25Z</time>
      </trkpt>
      <trkpt lat="44.13898" lon="1.71056">
        <ele>271</ele>
        <time>2023-03-05T07:50:27Z</time>
      </trkpt>
      <trkpt lat="44.139" lon="1.71065">
        <ele>270.4</ele>
        <time>2023-03-05T07:50:28Z</time>
      </trkpt>
      <trkpt lat="44.13902" lon="1.71075">
        <ele>269.2</ele>
        <time>2023-03-05T07:50:29Z</time>
      </trkpt>
      <trkpt lat="44.13905" lon="1.71084">
        <ele>268.8</ele>
        <time>2023-03-05T07:50:30Z</time>
      </trkpt>
      <trkpt lat="44.13906" lon="1.71093">
        <ele>267.6</ele>
        <time>2023-03-05T07:50:31Z</time>
      </trkpt>
      <trkpt lat="44.13908" lon="1.71102">
        <ele>267.4</ele>
        <time>2023-03-05T07:50:32Z</time>
      </trkpt>
      <trkpt lat="44.1391" lon="1.7111">
        <ele>266.6</ele>
        <time>2023-03-05T07:50:33Z</time>
      </trkpt>
      <trkpt lat="44.13912" lon="1.71119">
        <ele>266.2</ele>
        <time>2023-03-05T07:50:34Z</time>
      </trkpt>
      <trkpt lat="44.13914" lon="1.71127">
        <ele>266</ele>
        <time>2023-03-05T07:50:35Z</time>
      </trkpt>
      <trkpt lat="44.13916" lon="1.71135">
        <ele>265.8</ele>
        <time>2023-03-05T07:50:36Z</time>
      </trkpt>
      <trkpt lat="44.13918" lon="1.71144">
        <ele>265.4</ele>
        <time>2023-03-05T07:50:37Z</time>
      </trkpt>
      <trkpt lat="44.1392" lon="1.71152">
        <ele>264.8</ele>
        <time>2023-03-05T07:50:38Z</time>
      </trkpt>
      <trkpt lat="44.13923" lon="1.71159">
        <ele>263.8</ele>
        <time>2023-03-05T07:50:39Z</time>
      </trkpt>
      <trkpt lat="44.13926" lon="1.71166">
        <ele>262.4</ele>
        <time>2023-03-05T07:50:40Z</time>
      </trkpt>
      <trkpt lat="44.13928" lon="1.71173">
        <ele>261.4</ele>
        <time>2023-03-05T07:50:41Z</time>
      </trkpt>
      <trkpt lat="44.13927" lon="1.71178">
        <ele>260.2</ele>
        <time>2023-03-05T07:50:42Z</time>
      </trkpt>
      <trkpt lat="44.13925" lon="1.71179">
        <ele>259.8</ele>
        <time>2023-03-05T07:50:43Z</time>
      </trkpt>
      <trkpt lat="44.13921" lon="1.71177">
        <ele>258.4</ele>
        <time>2023-03-05T07:50:44Z</time>
      </trkpt>
      <trkpt lat="44.13918" lon="1.71173">
        <ele>257.4</ele>
        <time>2023-03-05T07:50:45Z</time>
      </trkpt>
      <trkpt lat="44.13915" lon="1.71167">
        <ele>256.2</ele>
        <time>2023-03-05T07:50:46Z</time>
      </trkpt>
      <trkpt lat="44.13912" lon="1.71162">
        <ele>256</ele>
        <time>2023-03-05T07:50:47Z</time>
      </trkpt>
      <trkpt lat="44.13907" lon="1.71156">
        <ele>255.6</ele>
        <time>2023-03-05T07:50:48Z</time>
      </trkpt>
      <trkpt lat="44.13902" lon="1.71151">
        <ele>255.6</ele>
        <time>2023-03-05T07:50:49Z</time>
      </trkpt>
      <trkpt lat="44.13897" lon="1.71145">
        <ele>255.2</ele>
        <time>2023-03-05T07:50:50Z</time>
      </trkpt>
      <trkpt lat="44.13892" lon="1.7114">
        <ele>254.8</ele>
        <time>2023-03-05T07:50:51Z</time>
      </trkpt>
      <trkpt lat="44.13887" lon="1.71134">
        <ele>254.2</ele>
        <time>2023-03-05T07:50:52Z</time>
      </trkpt>
      <trkpt lat="44.13882" lon="1.71128">
        <ele>253.8</ele>
        <time>2023-03-05T07:50:53Z</time>
      </trkpt>
      <trkpt lat="44.13877" lon="1.71122">
        <ele>252.8</ele>
        <time>2023-03-05T07:50:54Z</time>
      </trkpt>
      <trkpt lat="44.13871" lon="1.71116">
        <ele>251.8</ele>
        <time>2023-03-05T07:50:55Z</time>
      </trkpt>
      <trkpt lat="44.13865" lon="1.7111">
        <ele>251.2</ele>
        <time>2023-03-05T07:50:56Z</time>
      </trkpt>
      <trkpt lat="44.13859" lon="1.71105">
        <ele>249.8</ele>
        <time>2023-03-05T07:50:57Z</time>
      </trkpt>
      <trkpt lat="44.13851" lon="1.711">
        <ele>249</ele>
        <time>2023-03-05T07:50:58Z</time>
      </trkpt>
      <trkpt lat="44.13843" lon="1.71097">
        <ele>247.8</ele>
        <time>2023-03-05T07:50:59Z</time>
      </trkpt>
      <trkpt lat="44.13836" lon="1.71093">
        <ele>247.4</ele>
        <time>2023-03-05T07:51:00Z</time>
      </trkpt>
      <trkpt lat="44.13828" lon="1.71089">
        <ele>246.8</ele>
        <time>2023-03-05T07:51:01Z</time>
      </trkpt>
      <trkpt lat="44.13821" lon="1.71084">
        <ele>246.4</ele>
        <time>2023-03-05T07:51:02Z</time>
      </trkpt>
      <trkpt lat="44.13815" lon="1.71079">
        <ele>245.2</ele>
        <time>2023-03-05T07:51:03Z</time>
      </trkpt>
      <trkpt lat="44.1381" lon="1.71073">
        <ele>244.6</ele>
        <time>2023-03-05T07:51:04Z</time>
      </trkpt>
      <trkpt lat="44.13806" lon="1.71068">
        <ele>243.8</ele>
        <time>2023-03-05T07:51:05Z</time>
      </trkpt>
      <trkpt lat="44.13803" lon="1.71064">
        <ele>243.4</ele>
        <time>2023-03-05T07:51:06Z</time>
      </trkpt>
      <trkpt lat="44.13799" lon="1.71062">
        <ele>242.8</ele>
        <time>2023-03-05T07:51:07Z</time>
      </trkpt>
      <trkpt lat="44.13796" lon="1.71063">
        <ele>242.4</ele>
        <time>2023-03-05T07:51:08Z</time>
      </trkpt>
      <trkpt lat="44.13794" lon="1.71066">
        <ele>240.8</ele>
        <time>2023-03-05T07:51:09Z</time>
      </trkpt>
      <trkpt lat="44.13793" lon="1.71071">
        <ele>240.2</ele>
        <time>2023-03-05T07:51:10Z</time>
      </trkpt>
      <trkpt lat="44.13794" lon="1.71076">
        <ele>238.2</ele>
        <time>2023-03-05T07:51:11Z</time>
      </trkpt>
      <trkpt lat="44.13795" lon="1.71083">
        <ele>237.4</ele>
        <time>2023-03-05T07:51:12Z</time>
      </trkpt>
      <trkpt lat="44.13797" lon="1.7109">
        <ele>236.6</ele>
        <time>2023-03-05T07:51:13Z</time>
      </trkpt>
      <trkpt lat="44.13799" lon="1.71098">
        <ele>236</ele>
        <time>2023-03-05T07:51:14Z</time>
      </trkpt>
      <trkpt lat="44.13803" lon="1.71106">
        <ele>235.6</ele>
        <time>2023-03-05T07:51:15Z</time>
      </trkpt>
      <trkpt lat="44.13807" lon="1.71113">
        <ele>234.6</ele>
        <time>2023-03-05T07:51:16Z</time>
      </trkpt>
      <trkpt lat="44.13811" lon="1.7112">
        <ele>234.2</ele>
        <time>2023-03-05T07:51:17Z</time>
      </trkpt>
      <trkpt lat="44.13816" lon="1.71128">
        <ele>233.4</ele>
        <time>2023-03-05T07:51:18Z</time>
      </trkpt>
      <trkpt lat="44.13819" lon="1.71133">
        <ele>233</ele>
        <time>2023-03-05T07:51:19Z</time>
      </trkpt>
      <trkpt lat="44.13823" lon="1.71141">
        <ele>232.2</ele>
        <time>2023-03-05T07:51:20Z</time>
      </trkpt>
      <trkpt lat="44.13826" lon="1.7115">
        <ele>231.8</ele>
        <time>2023-03-05T07:51:21Z</time>
      </trkpt>
      <trkpt lat="44.13828" lon="1.71159">
        <ele>230.4</ele>
        <time>2023-03-05T07:51:22Z</time>
      </trkpt>
      <trkpt lat="44.13831" lon="1.71171">
        <ele>229.8</ele>
        <time>2023-03-05T07:51:23Z</time>
      </trkpt>
      <trkpt lat="44.13832" lon="1.71179">
        <ele>229</ele>
        <time>2023-03-05T07:51:24Z</time>
      </trkpt>
      <trkpt lat="44.13833" lon="1.7119">
        <ele>228.4</ele>
        <time>2023-03-05T07:51:25Z</time>
      </trkpt>
      <trkpt lat="44.13834" lon="1.71201">
        <ele>227.6</ele>
        <time>2023-03-05T07:51:26Z</time>
      </trkpt>
      <trkpt lat="44.13835" lon="1.71211">
        <ele>227.4</ele>
        <time>2023-03-05T07:51:27Z</time>
      </trkpt>
      <trkpt lat="44.13836" lon="1.71222">
        <ele>226.6</ele>
        <time>2023-03-05T07:51:28Z</time>
      </trkpt>
      <trkpt lat="44.13839" lon="1.71241">
        <ele>225.4</ele>
        <time>2023-03-05T07:51:30Z</time>
      </trkpt>
      <trkpt lat="44.13841" lon="1.71251">
        <ele>225.4</ele>
        <time>2023-03-05T07:51:31Z</time>
      </trkpt>
      <trkpt lat="44.13842" lon="1.71261">
        <ele>224.4</ele>
        <time>2023-03-05T07:51:32Z</time>
      </trkpt>
      <trkpt lat="44.13845" lon="1.7127">
        <ele>222.4</ele>
        <time>2023-03-05T07:51:33Z</time>
      </trkpt>
      <trkpt lat="44.13847" lon="1.7128">
        <ele>221.6</ele>
        <time>2023-03-05T07:51:34Z</time>
      </trkpt>
      <trkpt lat="44.13849" lon="1.71289">
        <ele>220.4</ele>
        <time>2023-03-05T07:51:35Z</time>
      </trkpt>
      <trkpt lat="44.13852" lon="1.71298">
        <ele>219.6</ele>
        <time>2023-03-05T07:51:36Z</time>
      </trkpt>
      <trkpt lat="44.13855" lon="1.71305">
        <ele>219</ele>
        <time>2023-03-05T07:51:37Z</time>
      </trkpt>
      <trkpt lat="44.13858" lon="1.7131">
        <ele>218.8</ele>
        <time>2023-03-05T07:51:38Z</time>
      </trkpt>
      <trkpt lat="44.1386" lon="1.71315">
        <ele>217.6</ele>
        <time>2023-03-05T07:51:39Z</time>
      </trkpt>
      <trkpt lat="44.13861" lon="1.7132">
        <ele>217</ele>
        <time>2023-03-05T07:51:40Z</time>
      </trkpt>
      <trkpt lat="44.13858" lon="1.71325">
        <ele>215.6</ele>
        <time>2023-03-05T07:51:41Z</time>
      </trkpt>
      <trkpt lat="44.13855" lon="1.71325">
        <ele>214.4</ele>
        <time>2023-03-05T07:51:42Z</time>
      </trkpt>
      <trkpt lat="44.13851" lon="1.71322">
        <ele>213</ele>
        <time>2023-03-05T07:51:43Z</time>
      </trkpt>
      <trkpt lat="44.13847" lon="1.7132">
        <ele>212.6</ele>
        <time>2023-03-05T07:51:44Z</time>
      </trkpt>
      <trkpt lat="44.13842" lon="1.71317">
        <ele>211.8</ele>
        <time>2023-03-05T07:51:45Z</time>
      </trkpt>
      <trkpt lat="44.13837" lon="1.71315">
        <ele>211.4</ele>
        <time>2023-03-05T07:51:46Z</time>
      </trkpt>
      <trkpt lat="44.13831" lon="1.71313">
        <ele>210.6</ele>
        <time>2023-03-05T07:51:47Z</time>
      </trkpt>
      <trkpt lat="44.13826" lon="1.71311">
        <ele>210.4</ele>
        <time>2023-03-05T07:51:48Z</time>
      </trkpt>
      <trkpt lat="44.1382" lon="1.7131">
        <ele>209.2</ele>
        <time>2023-03-05T07:51:49Z</time>
      </trkpt>
      <trkpt lat="44.13815" lon="1.71308">
        <ele>208.6</ele>
        <time>2023-03-05T07:51:50Z</time>
      </trkpt>
      <trkpt lat="44.13809" lon="1.71306">
        <ele>207.4</ele>
        <time>2023-03-05T07:51:51Z</time>
      </trkpt>
      <trkpt lat="44.13803" lon="1.71304">
        <ele>206.2</ele>
        <time>2023-03-05T07:51:52Z</time>
      </trkpt>
      <trkpt lat="44.13798" lon="1.71302">
        <ele>205.6</ele>
        <time>2023-03-05T07:51:53Z</time>
      </trkpt>
      <trkpt lat="44.13791" lon="1.713">
        <ele>204</ele>
        <time>2023-03-05T07:51:54Z</time>
      </trkpt>
      <trkpt lat="44.13785" lon="1.71297">
        <ele>203.2</ele>
        <time>2023-03-05T07:51:55Z</time>
      </trkpt>
      <trkpt lat="44.13779" lon="1.71295">
        <ele>202.2</ele>
        <time>2023-03-05T07:51:56Z</time>
      </trkpt>
      <trkpt lat="44.13773" lon="1.71292">
        <ele>201.8</ele>
        <time>2023-03-05T07:51:57Z</time>
      </trkpt>
      <trkpt lat="44.13766" lon="1.71288">
        <ele>201.6</ele>
        <time>2023-03-05T07:51:58Z</time>
      </trkpt>
      <trkpt lat="44.13759" lon="1.71285">
        <ele>201.4</ele>
        <time>2023-03-05T07:51:59Z</time>
      </trkpt>
      <trkpt lat="44.13753" lon="1.7128">
        <ele>200.2</ele>
        <time>2023-03-05T07:52:00Z</time>
      </trkpt>
      <trkpt lat="44.13745" lon="1.71276">
        <ele>199.8</ele>
        <time>2023-03-05T07:52:01Z</time>
      </trkpt>
      <trkpt lat="44.13739" lon="1.71272">
        <ele>199.2</ele>
        <time>2023-03-05T07:52:02Z</time>
      </trkpt>
      <trkpt lat="44.13733" lon="1.71269">
        <ele>199</ele>
        <time>2023-03-05T07:52:03Z</time>
      </trkpt>
      <trkpt lat="44.13726" lon="1.71266">
        <ele>197.6</ele>
        <time>2023-03-05T07:52:04Z</time>
      </trkpt>
      <trkpt lat="44.13719" lon="1.71265">
        <ele>196.8</ele>
        <time>2023-03-05T07:52:05Z</time>
      </trkpt>
      <trkpt lat="44.13713" lon="1.71264">
        <ele>195.4</ele>
        <time>2023-03-05T07:52:06Z</time>
      </trkpt>
      <trkpt lat="44.13706" lon="1.71262">
        <ele>194.8</ele>
        <time>2023-03-05T07:52:07Z</time>
      </trkpt>
      <trkpt lat="44.13698" lon="1.71259">
        <ele>192.6</ele>
        <time>2023-03-05T07:52:08Z</time>
      </trkpt>
      <trkpt lat="44.13691" lon="1.71256">
        <ele>191.8</ele>
        <time>2023-03-05T07:52:09Z</time>
      </trkpt>
      <trkpt lat="44.13685" lon="1.71253">
        <ele>190.4</ele>
        <time>2023-03-05T07:52:10Z</time>
      </trkpt>
      <trkpt lat="44.13679" lon="1.7125">
        <ele>189.2</ele>
        <time>2023-03-05T07:52:11Z</time>
      </trkpt>
      <trkpt lat="44.13672" lon="1.71246">
        <ele>188.8</ele>
        <time>2023-03-05T07:52:12Z</time>
      </trkpt>
      <trkpt lat="44.13666" lon="1.71241">
        <ele>187.6</ele>
        <time>2023-03-05T07:52:13Z</time>
      </trkpt>
      <trkpt lat="44.1366" lon="1.71237">
        <ele>186.6</ele>
        <time>2023-03-05T07:52:14Z</time>
      </trkpt>
      <trkpt lat="44.13655" lon="1.71233">
        <ele>185</ele>
        <time>2023-03-05T07:52:15Z</time>
      </trkpt>
      <trkpt lat="44.13649" lon="1.71227">
        <ele>184.4</ele>
        <time>2023-03-05T07:52:16Z</time>
      </trkpt>
      <trkpt lat="44.13644" lon="1.71222">
        <ele>183.6</ele>
        <time>2023-03-05T07:52:17Z</time>
      </trkpt>
      <trkpt lat="44.13639" lon="1.71217">
        <ele>183.2</ele>
        <time>2023-03-05T07:52:18Z</time>
      </trkpt>
      <trkpt lat="44.13634" lon="1.71212">
        <ele>181.4</ele>
        <time>2023-03-05T07:52:19Z</time>
      </trkpt>
      <trkpt lat="44.13629" lon="1.71206">
        <ele>180.2</ele>
        <time>2023-03-05T07:52:20Z</time>
      </trkpt>
      <trkpt lat="44.13624" lon="1.712">
        <ele>178.8</ele>
        <time>2023-03-05T07:52:21Z</time>
      </trkpt>
      <trkpt lat="44.13619" lon="1.71193">
        <ele>178.4</ele>
        <time>2023-03-05T07:52:22Z</time>
      </trkpt>
      <trkpt lat="44.13614" lon="1.71185">
        <ele>178</ele>
        <time>2023-03-05T07:52:23Z</time>
      </trkpt>
      <trkpt lat="44.1361" lon="1.71177">
        <ele>177.2</ele>
        <time>2023-03-05T07:52:24Z</time>
      </trkpt>
      <trkpt lat="44.13606" lon="1.71168">
        <ele>175.6</ele>
        <time>2023-03-05T07:52:25Z</time>
      </trkpt>
      <trkpt lat="44.13603" lon="1.71163">
        <ele>175</ele>
        <time>2023-03-05T07:52:26Z</time>
      </trkpt>
      <trkpt lat="44.13599" lon="1.71157">
        <ele>173.4</ele>
        <time>2023-03-05T07:52:27Z</time>
      </trkpt>
      <trkpt lat="44.13596" lon="1.71151">
        <ele>172.8</ele>
        <time>2023-03-05T07:52:28Z</time>
      </trkpt>
      <trkpt lat="44.13593" lon="1.71145">
        <ele>172</ele>
        <time>2023-03-05T07:52:29Z</time>
      </trkpt>
      <trkpt lat="44.1359" lon="1.71139">
        <ele>170.6</ele>
        <time>2023-03-05T07:52:30Z</time>
      </trkpt>
      <trkpt lat="44.13587" lon="1.71133">
        <ele>169</ele>
        <time>2023-03-05T07:52:31Z</time>
      </trkpt>
      <trkpt lat="44.13583" lon="1.71126">
        <ele>167.4</ele>
        <time>2023-03-05T07:52:32Z</time>
      </trkpt>
      <trkpt lat="44.1358" lon="1.71118">
        <ele>166.6</ele>
        <time>2023-03-05T07:52:33Z</time>
      </trkpt>
      <trkpt lat="44.13577" lon="1.71109">
        <ele>165.6</ele>
        <time>2023-03-05T07:52:34Z</time>
      </trkpt>
      <trkpt lat="44.13574" lon="1.711">
        <ele>165</ele>
        <time>2023-03-05T07:52:35Z</time>
      </trkpt>
      <trkpt lat="44.13572" lon="1.71091">
        <ele>164.4</ele>
        <time>2023-03-05T07:52:36Z</time>
      </trkpt>
      <trkpt lat="44.13571" lon="1.71081">
        <ele>164</ele>
        <time>2023-03-05T07:52:37Z</time>
      </trkpt>
      <trkpt lat="44.13571" lon="1.71072">
        <ele>162.8</ele>
        <time>2023-03-05T07:52:38Z</time>
      </trkpt>
      <trkpt lat="44.13573" lon="1.71062">
        <ele>162.2</ele>
        <time>2023-03-05T07:52:39Z</time>
      </trkpt>
      <trkpt lat="44.13576" lon="1.71051">
        <ele>161.2</ele>
        <time>2023-03-05T07:52:40Z</time>
      </trkpt>
      <trkpt lat="44.13578" lon="1.71044">
        <ele>160.6</ele>
        <time>2023-03-05T07:52:41Z</time>
      </trkpt>
      <trkpt lat="44.13582" lon="1.71036">
        <ele>159.4</ele>
        <time>2023-03-05T07:52:42Z</time>
      </trkpt>
      <trkpt lat="44.13585" lon="1.71027">
        <ele>158.8</ele>
        <time>2023-03-05T07:52:43Z</time>
      </trkpt>
      <trkpt lat="44.13587" lon="1.71021">
        <ele>158</ele>
        <time>2023-03-05T07:52:44Z</time>
      </trkpt>
      <trkpt lat="44.13586" lon="1.71017">
        <ele>157.6</ele>
        <time>2023-03-05T07:52:45Z</time>
      </trkpt>
      <trkpt lat="44.13584" lon="1.71015">
        <ele>157.2</ele>
        <time>2023-03-05T07:52:46Z</time>
      </trkpt>
      <trkpt lat="44.1358" lon="1.71015">
        <ele>157</ele>
        <time>2023-03-05T07:52:47Z</time>
      </trkpt>
      <trkpt lat="44.13575" lon="1.7102">
        <ele>156.4</ele>
        <time>2023-03-05T07:52:48Z</time>
      </trkpt>
      <trkpt lat="44.13571" lon="1.71025">
        <ele>156</ele>
        <time>2023-03-05T07:52:49Z</time>
      </trkpt>
      <trkpt lat="44.13566" lon="1.71032">
        <ele>155.6</ele>
        <time>2023-03-05T07:52:50Z</time>
      </trkpt>
      <trkpt lat="44.1356" lon="1.71038">
        <ele>154.8</ele>
        <time>2023-03-05T07:52:51Z</time>
      </trkpt>
      <trkpt lat="44.13554" lon="1.71044">
        <ele>154.4</ele>
        <time>2023-03-05T07:52:52Z</time>
      </trkpt>
      <trkpt lat="44.13547" lon="1.71048">
        <ele>153.8</ele>
        <time>2023-03-05T07:52:53Z</time>
      </trkpt>
      <trkpt lat="44.1354" lon="1.7105">
        <ele>153.4</ele>
        <time>2023-03-05T07:52:54Z</time>
      </trkpt>
      <trkpt lat="44.13535" lon="1.71049">
        <ele>152.4</ele>
        <time>2023-03-05T07:52:55Z</time>
      </trkpt>
      <trkpt lat="44.13531" lon="1.71046">
        <ele>152.2</ele>
        <time>2023-03-05T07:52:56Z</time>
      </trkpt>
      <trkpt lat="44.13526" lon="1.71041">
        <ele>151.2</ele>
        <time>2023-03-05T07:52:57Z</time>
      </trkpt>
      <trkpt lat="44.13522" lon="1.71036">
        <ele>150.8</ele>
        <time>2023-03-05T07:52:58Z</time>
      </trkpt>
      <trkpt lat="44.13517" lon="1.71031">
        <ele>149.6</ele>
        <time>2023-03-05T07:52:59Z</time>
      </trkpt>
      <trkpt lat="44.13512" lon="1.71028">
        <ele>149.2</ele>
        <time>2023-03-05T07:53:00Z</time>
      </trkpt>
      <trkpt lat="44.13507" lon="1.71026">
        <ele>147.4</ele>
        <time>2023-03-05T07:53:01Z</time>
      </trkpt>
      <trkpt lat="44.13503" lon="1.71025">
        <ele>146.8</ele>
        <time>2023-03-05T07:53:02Z</time>
      </trkpt>
      <trkpt lat="44.135" lon="1.71023">
        <ele>146.2</ele>
        <time>2023-03-05T07:53:03Z</time>
      </trkpt>
      <trkpt lat="44.13499" lon="1.71018">
        <ele>145.4</ele>
        <time>2023-03-05T07:53:04Z</time>
      </trkpt>
      <trkpt lat="44.13497" lon="1.71012">
        <ele>144.6</ele>
        <time>2023-03-05T07:53:05Z</time>
      </trkpt>
      <trkpt lat="44.13495" lon="1.71006">
        <ele>143.2</ele>
        <time>2023-03-05T07:53:06Z</time>
      </trkpt>
      <trkpt lat="44.13491" lon="1.70996">
        <ele>142.6</ele>
        <time>2023-03-05T07:53:07Z</time>
      </trkpt>
      <trkpt lat="44.13488" lon="1.70987">
        <ele>141.8</ele>
        <time>2023-03-05T07:53:08Z</time>
      </trkpt>
      <trkpt lat="44.13486" lon="1.70979">
        <ele>141.4</ele>
        <time>2023-03-05T07:53:09Z</time>
      </trkpt>
      <trkpt lat="44.13482" lon="1.70969">
        <ele>140.8</ele>
        <time>2023-03-05T07:53:10Z</time>
      </trkpt>
      <trkpt lat="44.1348" lon="1.70957">
        <ele>140.2</ele>
        <time>2023-03-05T07:53:11Z</time>
      </trkpt>
      <trkpt lat="44.13478" lon="1.70946">
        <ele>139.4</ele>
        <time>2023-03-05T07:53:12Z</time>
      </trkpt>
      <trkpt lat="44.13476" lon="1.70935">
        <ele>139.2</ele>
        <time>2023-03-05T07:53:13Z</time>
      </trkpt>
      <trkpt lat="44.13474" lon="1.70924">
        <ele>138.6</ele>
        <time>2023-03-05T07:53:14Z</time>
      </trkpt>
      <trkpt lat="44.13472" lon="1.70916">
        <ele>138.2</ele>
        <time>2023-03-05T07:53:15Z</time>
      </trkpt>
      <trkpt lat="44.13468" lon="1.70902">
        <ele>137.4</ele>
        <time>2023-03-05T07:53:16Z</time>
      </trkpt>
      <trkpt lat="44.13464" lon="1.70891">
        <ele>136.8</ele>
        <time>2023-03-05T07:53:17Z</time>
      </trkpt>
      <trkpt lat="44.1346" lon="1.70879">
        <ele>136</ele>
        <time>2023-03-05T07:53:18Z</time>
      </trkpt>
      <trkpt lat="44.13456" lon="1.70867">
        <ele>135.8</ele>
        <time>2023-03-05T07:53:19Z</time>
      </trkpt>
      <trkpt lat="44.13453" lon="1.70859">
        <ele>135</ele>
        <time>2023-03-05T07:53:20Z</time>
      </trkpt>
      <trkpt lat="44.13449" lon="1.70847">
        <ele>134.4</ele>
        <time>2023-03-05T07:53:21Z</time>
      </trkpt>
      <trkpt lat="44.13447" lon="1.7084">
        <ele>134</ele>
        <time>2023-03-05T07:53:22Z</time>
      </trkpt>
      <trkpt lat="44.13446" lon="1.7083">
        <ele>133.6</ele>
        <time>2023-03-05T07:53:23Z</time>
      </trkpt>
      <trkpt lat="44.13446" lon="1.70821">
        <ele>132.4</ele>
        <time>2023-03-05T07:53:24Z</time>
      </trkpt>
      <trkpt lat="44.13449" lon="1.70812">
        <ele>131.6</ele>
        <time>2023-03-05T07:53:25Z</time>
      </trkpt>
      <trkpt lat="44.13453" lon="1.70804">
        <ele>130.6</ele>
        <time>2023-03-05T07:53:26Z</time>
      </trkpt>
      <trkpt lat="44.13456" lon="1.70797">
        <ele>128</ele>
        <time>2023-03-05T07:53:27Z</time>
      </trkpt>
      <trkpt lat="44.13459" lon="1.70791">
        <ele>126.4</ele>
        <time>2023-03-05T07:53:28Z</time>
      </trkpt>
      <trkpt lat="44.13463" lon="1.70787">
        <ele>124.6</ele>
        <time>2023-03-05T07:53:29Z</time>
      </trkpt>
      <trkpt lat="44.13466" lon="1.70783">
        <ele>124.2</ele>
        <time>2023-03-05T07:53:30Z</time>
      </trkpt>
      <trkpt lat="44.13468" lon="1.70778">
        <ele>123.2</ele>
        <time>2023-03-05T07:53:31Z</time>
      </trkpt>
      <trkpt lat="44.13471" lon="1.70772">
        <ele>122.6</ele>
        <time>2023-03-05T07:53:32Z</time>
      </trkpt>
      <trkpt lat="44.13472" lon="1.70767">
        <ele>122</ele>
        <time>2023-03-05T07:53:33Z</time>
      </trkpt>
      <trkpt lat="44.13473" lon="1.70764">
        <ele>121.8</ele>
        <time>2023-03-05T07:53:34Z</time>
      </trkpt>
      <trkpt lat="44.13475" lon="1.70758">
        <ele>121.6</ele>
        <time>2023-03-05T07:53:35Z</time>
      </trkpt>
      <trkpt lat="44.13476" lon="1.70753">
        <ele>121.4</ele>
        <time>2023-03-05T07:53:36Z</time>
      </trkpt>
      <trkpt lat="44.13476" lon="1.70748">
        <ele>121.4</ele>
        <time>2023-03-05T07:53:37Z</time>
      </trkpt>
      <trkpt lat="44.13477" lon="1.70743">
        <ele>121.4</ele>
        <time>2023-03-05T07:53:38Z</time>
      </trkpt>
      <trkpt lat="44.13478" lon="1.70738">
        <ele>121.4</ele>
        <time>2023-03-05T07:53:39Z</time>
      </trkpt>
      <trkpt lat="44.1348" lon="1.70733">
        <ele>121.2</ele>
        <time>2023-03-05T07:53:40Z</time>
      </trkpt>
      <trkpt lat="44.13481" lon="1.70728">
        <ele>121.4</ele>
        <time>2023-03-05T07:53:41Z</time>
      </trkpt>
      <trkpt lat="44.13482" lon="1.70722">
        <ele>121.4</ele>
        <time>2023-03-05T07:53:42Z</time>
      </trkpt>
      <trkpt lat="44.13483" lon="1.70717">
        <ele>121.4</ele>
        <time>2023-03-05T07:53:43Z</time>
      </trkpt>
      <trkpt lat="44.13484" lon="1.70711">
        <ele>121.4</ele>
        <time>2023-03-05T07:53:44Z</time>
      </trkpt>
      <trkpt lat="44.13484" lon="1.70705">
        <ele>121.4</ele>
        <time>2023-03-05T07:53:45Z</time>
      </trkpt>
      <trkpt lat="44.13485" lon="1.70699">
        <ele>121.6</ele>
        <time>2023-03-05T07:53:46Z</time>
      </trkpt>
      <trkpt lat="44.13486" lon="1.70692">
        <ele>121.6</ele>
        <time>2023-03-05T07:53:47Z</time>
      </trkpt>
      <trkpt lat="44.13487" lon="1.70686">
        <ele>121.6</ele>
        <time>2023-03-05T07:53:48Z</time>
      </trkpt>
      <trkpt lat="44.13488" lon="1.70681">
        <ele>121.6</ele>
        <time>2023-03-05T07:53:49Z</time>
      </trkpt>
      <trkpt lat="44.13489" lon="1.70673">
        <ele>121.6</ele>
        <time>2023-03-05T07:53:50Z</time>
      </trkpt>
      <trkpt lat="44.13491" lon="1.70667">
        <ele>121.6</ele>
        <time>2023-03-05T07:53:51Z</time>
      </trkpt>
      <trkpt lat="44.13493" lon="1.70662">
        <ele>121.6</ele>
        <time>2023-03-05T07:53:52Z</time>
      </trkpt>
      <trkpt lat="44.13495" lon="1.70658">
        <ele>121.6</ele>
        <time>2023-03-05T07:53:53Z</time>
      </trkpt>
      <trkpt lat="44.13497" lon="1.70652">
        <ele>121.6</ele>
        <time>2023-03-05T07:53:54Z</time>
      </trkpt>
      <trkpt lat="44.13499" lon="1.70647">
        <ele>121.6</ele>
        <time>2023-03-05T07:53:55Z</time>
      </trkpt>
      <trkpt lat="44.13499" lon="1.70641">
        <ele>121.6</ele>
        <time>2023-03-05T07:53:56Z</time>
      </trkpt>
      <trkpt lat="44.13497" lon="1.70635">
        <ele>121.8</ele>
        <time>2023-03-05T07:53:57Z</time>
      </trkpt>
      <trkpt lat="44.13495" lon="1.70629">
        <ele>122</ele>
        <time>2023-03-05T07:53:58Z</time>
      </trkpt>
      <trkpt lat="44.13494" lon="1.70623">
        <ele>122</ele>
        <time>2023-03-05T07:53:59Z</time>
      </trkpt>
      <trkpt lat="44.13493" lon="1.70617">
        <ele>122.2</ele>
        <time>2023-03-05T07:54:00Z</time>
      </trkpt>
      <trkpt lat="44.13492" lon="1.70611">
        <ele>122.2</ele>
        <time>2023-03-05T07:54:01Z</time>
      </trkpt>
      <trkpt lat="44.13491" lon="1.70606">
        <ele>122.4</ele>
        <time>2023-03-05T07:54:02Z</time>
      </trkpt>
      <trkpt lat="44.13491" lon="1.70602">
        <ele>122.6</ele>
        <time>2023-03-05T07:54:03Z</time>
      </trkpt>
      <trkpt lat="44.1349" lon="1.70596">
        <ele>122.8</ele>
        <time>2023-03-05T07:54:04Z</time>
      </trkpt>
      <trkpt lat="44.13489" lon="1.70591">
        <ele>123.2</ele>
        <time>2023-03-05T07:54:05Z</time>
      </trkpt>
      <trkpt lat="44.13489" lon="1.70587">
        <ele>123.2</ele>
        <time>2023-03-05T07:54:06Z</time>
      </trkpt>
      <trkpt lat="44.13488" lon="1.70583">
        <ele>123.4</ele>
        <time>2023-03-05T07:54:07Z</time>
      </trkpt>
      <trkpt lat="44.13487" lon="1.70579">
        <ele>123.6</ele>
        <time>2023-03-05T07:54:08Z</time>
      </trkpt>
      <trkpt lat="44.13486" lon="1.70575">
        <ele>123.6</ele>
        <time>2023-03-05T07:54:09Z</time>
      </trkpt>
      <trkpt lat="44.13485" lon="1.7057">
        <ele>123.8</ele>
        <time>2023-03-05T07:54:10Z</time>
      </trkpt>
      <trkpt lat="44.13484" lon="1.70566">
        <ele>124.4</ele>
        <time>2023-03-05T07:54:11Z</time>
      </trkpt>
      <trkpt lat="44.13483" lon="1.70561">
        <ele>124.6</ele>
        <time>2023-03-05T07:54:12Z</time>
      </trkpt>
      <trkpt lat="44.13481" lon="1.70556">
        <ele>125</ele>
        <time>2023-03-05T07:54:13Z</time>
      </trkpt>
      <trkpt lat="44.13479" lon="1.70552">
        <ele>125.2</ele>
        <time>2023-03-05T07:54:14Z</time>
      </trkpt>
      <trkpt lat="44.13477" lon="1.70547">
        <ele>125.8</ele>
        <time>2023-03-05T07:54:15Z</time>
      </trkpt>
      <trkpt lat="44.13476" lon="1.70543">
        <ele>126.2</ele>
        <time>2023-03-05T07:54:16Z</time>
      </trkpt>
      <trkpt lat="44.13475" lon="1.70538">
        <ele>126.4</ele>
        <time>2023-03-05T07:54:17Z</time>
      </trkpt>
      <trkpt lat="44.13474" lon="1.70535">
        <ele>126.8</ele>
        <time>2023-03-05T07:54:18Z</time>
      </trkpt>
      <trkpt lat="44.13473" lon="1.7053">
        <ele>127.2</ele>
        <time>2023-03-05T07:54:19Z</time>
      </trkpt>
      <trkpt lat="44.1347" lon="1.70526">
        <ele>127.4</ele>
        <time>2023-03-05T07:54:20Z</time>
      </trkpt>
      <trkpt lat="44.13469" lon="1.70523">
        <ele>127.6</ele>
        <time>2023-03-05T07:54:21Z</time>
      </trkpt>
      <trkpt lat="44.13466" lon="1.70519">
        <ele>127.6</ele>
        <time>2023-03-05T07:54:22Z</time>
      </trkpt>
      <trkpt lat="44.13463" lon="1.70515">
        <ele>127.8</ele>
        <time>2023-03-05T07:54:23Z</time>
      </trkpt>
      <trkpt lat="44.13459" lon="1.7051">
        <ele>127.8</ele>
        <time>2023-03-05T07:54:24Z</time>
      </trkpt>
      <trkpt lat="44.13456" lon="1.70505">
        <ele>128</ele>
        <time>2023-03-05T07:54:25Z</time>
      </trkpt>
      <trkpt lat="44.13453" lon="1.70501">
        <ele>128.2</ele>
        <time>2023-03-05T07:54:26Z</time>
      </trkpt>
      <trkpt lat="44.1345" lon="1.70497">
        <ele>128.2</ele>
        <time>2023-03-05T07:54:27Z</time>
      </trkpt>
      <trkpt lat="44.13447" lon="1.70493">
        <ele>128.2</ele>
        <time>2023-03-05T07:54:28Z</time>
      </trkpt>
      <trkpt lat="44.13444" lon="1.70489">
        <ele>128.2</ele>
        <time>2023-03-05T07:54:29Z</time>
      </trkpt>
      <trkpt lat="44.13441" lon="1.70486">
        <ele>128.2</ele>
        <time>2023-03-05T07:54:30Z</time>
      </trkpt>
      <trkpt lat="44.13438" lon="1.70482">
        <ele>128.2</ele>
        <time>2023-03-05T07:54:31Z</time>
      </trkpt>
      <trkpt lat="44.13435" lon="1.70479">
        <ele>128.2</ele>
        <time>2023-03-05T07:54:32Z</time>
      </trkpt>
      <trkpt lat="44.13431" lon="1.70476">
        <ele>128.2</ele>
        <time>2023-03-05T07:54:33Z</time>
      </trkpt>
      <trkpt lat="44.13428" lon="1.70473">
        <ele>128.2</ele>
        <time>2023-03-05T07:54:34Z</time>
      </trkpt>
      <trkpt lat="44.13426" lon="1.7047">
        <ele>128.2</ele>
        <time>2023-03-05T07:54:35Z</time>
      </trkpt>
      <trkpt lat="44.13424" lon="1.70468">
        <ele>128.2</ele>
        <time>2023-03-05T07:54:36Z</time>
      </trkpt>
      <trkpt lat="44.13421" lon="1.70466">
        <ele>128</ele>
        <time>2023-03-05T07:54:37Z</time>
      </trkpt>
      <trkpt lat="44.13418" lon="1.70463">
        <ele>128</ele>
        <time>2023-03-05T07:54:38Z</time>
      </trkpt>
      <trkpt lat="44.13414" lon="1.7046">
        <ele>128</ele>
        <time>2023-03-05T07:54:39Z</time>
      </trkpt>
      <trkpt lat="44.13411" lon="1.70456">
        <ele>128</ele>
        <time>2023-03-05T07:54:40Z</time>
      </trkpt>
      <trkpt lat="44.13408" lon="1.70453">
        <ele>128</ele>
        <time>2023-03-05T07:54:41Z</time>
      </trkpt>
      <trkpt lat="44.13405" lon="1.7045">
        <ele>128</ele>
        <time>2023-03-05T07:54:42Z</time>
      </trkpt>
      <trkpt lat="44.13402" lon="1.70447">
        <ele>128</ele>
        <time>2023-03-05T07:54:43Z</time>
      </trkpt>
      <trkpt lat="44.13398" lon="1.70444">
        <ele>128.2</ele>
        <time>2023-03-05T07:54:44Z</time>
      </trkpt>
      <trkpt lat="44.13395" lon="1.70442">
        <ele>128.2</ele>
        <time>2023-03-05T07:54:45Z</time>
      </trkpt>
      <trkpt lat="44.13392" lon="1.7044">
        <ele>128.2</ele>
        <time>2023-03-05T07:54:46Z</time>
      </trkpt>
      <trkpt lat="44.13388" lon="1.70438">
        <ele>128.2</ele>
        <time>2023-03-05T07:54:47Z</time>
      </trkpt>
      <trkpt lat="44.13385" lon="1.70434">
        <ele>128.4</ele>
        <time>2023-03-05T07:54:48Z</time>
      </trkpt>
      <trkpt lat="44.13382" lon="1.70432">
        <ele>128.4</ele>
        <time>2023-03-05T07:54:49Z</time>
      </trkpt>
      <trkpt lat="44.1338" lon="1.7043">
        <ele>128.4</ele>
        <time>2023-03-05T07:54:50Z</time>
      </trkpt>
      <trkpt lat="44.13377" lon="1.70428">
        <ele>128.6</ele>
        <time>2023-03-05T07:54:51Z</time>
      </trkpt>
      <trkpt lat="44.13374" lon="1.70427">
        <ele>128.6</ele>
        <time>2023-03-05T07:54:52Z</time>
      </trkpt>
      <trkpt lat="44.13371" lon="1.70425">
        <ele>128.8</ele>
        <time>2023-03-05T07:54:53Z</time>
      </trkpt>
      <trkpt lat="44.13368" lon="1.70424">
        <ele>128.8</ele>
        <time>2023-03-05T07:54:54Z</time>
      </trkpt>
      <trkpt lat="44.13364" lon="1.70421">
        <ele>129</ele>
        <time>2023-03-05T07:54:55Z</time>
      </trkpt>
      <trkpt lat="44.13361" lon="1.70417">
        <ele>129</ele>
        <time>2023-03-05T07:54:56Z</time>
      </trkpt>
      <trkpt lat="44.1336" lon="1.70414">
        <ele>129</ele>
        <time>2023-03-05T07:54:57Z</time>
      </trkpt>
      <trkpt lat="44.13358" lon="1.70412">
        <ele>129</ele>
        <time>2023-03-05T07:54:58Z</time>
      </trkpt>
      <trkpt lat="44.13356" lon="1.7041">
        <ele>129</ele>
        <time>2023-03-05T07:54:59Z</time>
      </trkpt>
      <trkpt lat="44.13354" lon="1.7041">
        <ele>129</ele>
        <time>2023-03-05T07:55:00Z</time>
      </trkpt>
      <trkpt lat="44.13352" lon="1.70411">
        <ele>129</ele>
        <time>2023-03-05T07:55:01Z</time>
      </trkpt>
      <trkpt lat="44.13348" lon="1.70412">
        <ele>129</ele>
        <time>2023-03-05T07:55:02Z</time>
      </trkpt>
      <trkpt lat="44.13344" lon="1.70413">
        <ele>128.2</ele>
        <time>2023-03-05T07:55:03Z</time>
      </trkpt>
      <trkpt lat="44.13341" lon="1.70414">
        <ele>127.6</ele>
        <time>2023-03-05T07:55:04Z</time>
      </trkpt>
      <trkpt lat="44.13337" lon="1.70416">
        <ele>127.6</ele>
        <time>2023-03-05T07:55:05Z</time>
      </trkpt>
      <trkpt lat="44.13333" lon="1.70416">
        <ele>127.6</ele>
        <time>2023-03-05T07:55:06Z</time>
      </trkpt>
      <trkpt lat="44.1333" lon="1.70417">
        <ele>127.6</ele>
        <time>2023-03-05T07:55:07Z</time>
      </trkpt>
      <trkpt lat="44.13327" lon="1.70418">
        <ele>127.4</ele>
        <time>2023-03-05T07:55:08Z</time>
      </trkpt>
      <trkpt lat="44.13325" lon="1.70418">
        <ele>127.4</ele>
        <time>2023-03-05T07:55:09Z</time>
      </trkpt>
      <trkpt lat="44.13322" lon="1.7042">
        <ele>127.6</ele>
        <time>2023-03-05T07:55:10Z</time>
      </trkpt>
      <trkpt lat="44.13319" lon="1.70422">
        <ele>127.8</ele>
        <time>2023-03-05T07:55:11Z</time>
      </trkpt>
      <trkpt lat="44.13314" lon="1.70423">
        <ele>128</ele>
        <time>2023-03-05T07:55:12Z</time>
      </trkpt>
      <trkpt lat="44.1331" lon="1.70425">
        <ele>128.2</ele>
        <time>2023-03-05T07:55:13Z</time>
      </trkpt>
      <trkpt lat="44.13307" lon="1.70426">
        <ele>128.4</ele>
        <time>2023-03-05T07:55:14Z</time>
      </trkpt>
      <trkpt lat="44.13303" lon="1.70427">
        <ele>128.6</ele>
        <time>2023-03-05T07:55:15Z</time>
      </trkpt>
      <trkpt lat="44.13299" lon="1.70427">
        <ele>128.6</ele>
        <time>2023-03-05T07:55:16Z</time>
      </trkpt>
      <trkpt lat="44.13296" lon="1.70428">
        <ele>128.6</ele>
        <time>2023-03-05T07:55:17Z</time>
      </trkpt>
      <trkpt lat="44.13292" lon="1.7043">
        <ele>128.6</ele>
        <time>2023-03-05T07:55:18Z</time>
      </trkpt>
      <trkpt lat="44.13288" lon="1.70433">
        <ele>128.6</ele>
        <time>2023-03-05T07:55:19Z</time>
      </trkpt>
      <trkpt lat="44.13285" lon="1.70435">
        <ele>128.6</ele>
        <time>2023-03-05T07:55:20Z</time>
      </trkpt>
      <trkpt lat="44.13281" lon="1.70437">
        <ele>128.4</ele>
        <time>2023-03-05T07:55:21Z</time>
      </trkpt>
      <trkpt lat="44.13278" lon="1.70438">
        <ele>128.4</ele>
        <time>2023-03-05T07:55:22Z</time>
      </trkpt>
      <trkpt lat="44.13275" lon="1.70442">
        <ele>128.2</ele>
        <time>2023-03-05T07:55:23Z</time>
      </trkpt>
      <trkpt lat="44.13273" lon="1.70449">
        <ele>128.2</ele>
        <time>2023-03-05T07:55:24Z</time>
      </trkpt>
      <trkpt lat="44.13271" lon="1.70453">
        <ele>128</ele>
        <time>2023-03-05T07:55:25Z</time>
      </trkpt>
      <trkpt lat="44.13268" lon="1.70459">
        <ele>128</ele>
        <time>2023-03-05T07:55:26Z</time>
      </trkpt>
      <trkpt lat="44.13265" lon="1.70462">
        <ele>127.8</ele>
        <time>2023-03-05T07:55:27Z</time>
      </trkpt>
      <trkpt lat="44.13262" lon="1.70464">
        <ele>127.8</ele>
        <time>2023-03-05T07:55:28Z</time>
      </trkpt>
      <trkpt lat="44.13259" lon="1.70465">
        <ele>127.8</ele>
        <time>2023-03-05T07:55:29Z</time>
      </trkpt>
      <trkpt lat="44.13256" lon="1.70465">
        <ele>127.8</ele>
        <time>2023-03-05T07:55:30Z</time>
      </trkpt>
      <trkpt lat="44.13253" lon="1.70465">
        <ele>127.6</ele>
        <time>2023-03-05T07:55:31Z</time>
      </trkpt>
      <trkpt lat="44.13249" lon="1.70464">
        <ele>127.6</ele>
        <time>2023-03-05T07:55:32Z</time>
      </trkpt>
      <trkpt lat="44.13247" lon="1.70461">
        <ele>127.6</ele>
        <time>2023-03-05T07:55:33Z</time>
      </trkpt>
      <trkpt lat="44.13245" lon="1.70459">
        <ele>127.6</ele>
        <time>2023-03-05T07:55:34Z</time>
      </trkpt>
      <trkpt lat="44.13242" lon="1.70458">
        <ele>127.8</ele>
        <time>2023-03-05T07:55:35Z</time>
      </trkpt>
      <trkpt lat="44.1324" lon="1.70458">
        <ele>127.8</ele>
        <time>2023-03-05T07:55:36Z</time>
      </trkpt>
      <trkpt lat="44.13237" lon="1.70459">
        <ele>128</ele>
        <time>2023-03-05T07:55:37Z</time>
      </trkpt>
      <trkpt lat="44.13234" lon="1.70459">
        <ele>128</ele>
        <time>2023-03-05T07:55:38Z</time>
      </trkpt>
      <trkpt lat="44.13231" lon="1.70459">
        <ele>128.8</ele>
        <time>2023-03-05T07:55:39Z</time>
      </trkpt>
      <trkpt lat="44.13228" lon="1.70459">
        <ele>129.2</ele>
        <time>2023-03-05T07:55:40Z</time>
      </trkpt>
      <trkpt lat="44.13225" lon="1.7046">
        <ele>129.6</ele>
        <time>2023-03-05T07:55:41Z</time>
      </trkpt>
      <trkpt lat="44.13222" lon="1.70461">
        <ele>129.6</ele>
        <time>2023-03-05T07:55:42Z</time>
      </trkpt>
      <trkpt lat="44.13218" lon="1.70463">
        <ele>129.8</ele>
        <time>2023-03-05T07:55:43Z</time>
      </trkpt>
      <trkpt lat="44.13215" lon="1.70465">
        <ele>130.6</ele>
        <time>2023-03-05T07:55:44Z</time>
      </trkpt>
      <trkpt lat="44.13211" lon="1.70468">
        <ele>131.2</ele>
        <time>2023-03-05T07:55:45Z</time>
      </trkpt>
      <trkpt lat="44.13207" lon="1.7047">
        <ele>131.6</ele>
        <time>2023-03-05T07:55:46Z</time>
      </trkpt>
      <trkpt lat="44.13204" lon="1.70473">
        <ele>131.8</ele>
        <time>2023-03-05T07:55:47Z</time>
      </trkpt>
      <trkpt lat="44.132" lon="1.70475">
        <ele>132</ele>
        <time>2023-03-05T07:55:48Z</time>
      </trkpt>
      <trkpt lat="44.13197" lon="1.70478">
        <ele>132</ele>
        <time>2023-03-05T07:55:49Z</time>
      </trkpt>
      <trkpt lat="44.13193" lon="1.70482">
        <ele>132.2</ele>
        <time>2023-03-05T07:55:50Z</time>
      </trkpt>
      <trkpt lat="44.13189" lon="1.70484">
        <ele>132.2</ele>
        <time>2023-03-05T07:55:51Z</time>
      </trkpt>
      <trkpt lat="44.13186" lon="1.70486">
        <ele>132.2</ele>
        <time>2023-03-05T07:55:52Z</time>
      </trkpt>
      <trkpt lat="44.13182" lon="1.70489">
        <ele>132.2</ele>
        <time>2023-03-05T07:55:53Z</time>
      </trkpt>
      <trkpt lat="44.13178" lon="1.70491">
        <ele>132.2</ele>
        <time>2023-03-05T07:55:54Z</time>
      </trkpt>
      <trkpt lat="44.13174" lon="1.70493">
        <ele>132.2</ele>
        <time>2023-03-05T07:55:55Z</time>
      </trkpt>
      <trkpt lat="44.13169" lon="1.70495">
        <ele>132.2</ele>
        <time>2023-03-05T07:55:56Z</time>
      </trkpt>
      <trkpt lat="44.13165" lon="1.70499">
        <ele>132.2</ele>
        <time>2023-03-05T07:55:57Z</time>
      </trkpt>
      <trkpt lat="44.13162" lon="1.70503">
        <ele>132.2</ele>
        <time>2023-03-05T07:55:58Z</time>
      </trkpt>
      <trkpt lat="44.13158" lon="1.70507">
        <ele>132.2</ele>
        <time>2023-03-05T07:55:59Z</time>
      </trkpt>
      <trkpt lat="44.13154" lon="1.70511">
        <ele>132.2</ele>
        <time>2023-03-05T07:56:00Z</time>
      </trkpt>
      <trkpt lat="44.1315" lon="1.70513">
        <ele>132</ele>
        <time>2023-03-05T07:56:01Z</time>
      </trkpt>
      <trkpt lat="44.13146" lon="1.70516">
        <ele>131.6</ele>
        <time>2023-03-05T07:56:02Z</time>
      </trkpt>
      <trkpt lat="44.13141" lon="1.70521">
        <ele>131.2</ele>
        <time>2023-03-05T07:56:03Z</time>
      </trkpt>
      <trkpt lat="44.13137" lon="1.70524">
        <ele>130.4</ele>
        <time>2023-03-05T07:56:04Z</time>
      </trkpt>
      <trkpt lat="44.13132" lon="1.70526">
        <ele>129.8</ele>
        <time>2023-03-05T07:56:05Z</time>
      </trkpt>
      <trkpt lat="44.13129" lon="1.7053">
        <ele>129.6</ele>
        <time>2023-03-05T07:56:06Z</time>
      </trkpt>
      <trkpt lat="44.13125" lon="1.70535">
        <ele>129.2</ele>
        <time>2023-03-05T07:56:07Z</time>
      </trkpt>
      <trkpt lat="44.13121" lon="1.70539">
        <ele>128.8</ele>
        <time>2023-03-05T07:56:08Z</time>
      </trkpt>
      <trkpt lat="44.13117" lon="1.70542">
        <ele>128</ele>
        <time>2023-03-05T07:56:09Z</time>
      </trkpt>
      <trkpt lat="44.13112" lon="1.70545">
        <ele>127.8</ele>
        <time>2023-03-05T07:56:10Z</time>
      </trkpt>
      <trkpt lat="44.13106" lon="1.70548">
        <ele>126.8</ele>
        <time>2023-03-05T07:56:11Z</time>
      </trkpt>
      <trkpt lat="44.13101" lon="1.70549">
        <ele>126.6</ele>
        <time>2023-03-05T07:56:12Z</time>
      </trkpt>
      <trkpt lat="44.13097" lon="1.70551">
        <ele>126</ele>
        <time>2023-03-05T07:56:13Z</time>
      </trkpt>
      <trkpt lat="44.13092" lon="1.70552">
        <ele>126</ele>
        <time>2023-03-05T07:56:14Z</time>
      </trkpt>
      <trkpt lat="44.13089" lon="1.70553">
        <ele>125.8</ele>
        <time>2023-03-05T07:56:15Z</time>
      </trkpt>
      <trkpt lat="44.13086" lon="1.70554">
        <ele>125.6</ele>
        <time>2023-03-05T07:56:16Z</time>
      </trkpt>
      <trkpt lat="44.13082" lon="1.70555">
        <ele>125.6</ele>
        <time>2023-03-05T07:56:17Z</time>
      </trkpt>
      <trkpt lat="44.13078" lon="1.70556">
        <ele>125.6</ele>
        <time>2023-03-05T07:56:18Z</time>
      </trkpt>
      <trkpt lat="44.13075" lon="1.70558">
        <ele>125.6</ele>
        <time>2023-03-05T07:56:19Z</time>
      </trkpt>
      <trkpt lat="44.13071" lon="1.70559">
        <ele>125.6</ele>
        <time>2023-03-05T07:56:20Z</time>
      </trkpt>
      <trkpt lat="44.13068" lon="1.70559">
        <ele>125.6</ele>
        <time>2023-03-05T07:56:21Z</time>
      </trkpt>
      <trkpt lat="44.13065" lon="1.70559">
        <ele>125.8</ele>
        <time>2023-03-05T07:56:22Z</time>
      </trkpt>
      <trkpt lat="44.13062" lon="1.7056">
        <ele>125.8</ele>
        <time>2023-03-05T07:56:23Z</time>
      </trkpt>
      <trkpt lat="44.13059" lon="1.70561">
        <ele>126.4</ele>
        <time>2023-03-05T07:56:24Z</time>
      </trkpt>
      <trkpt lat="44.13057" lon="1.70562">
        <ele>126.4</ele>
        <time>2023-03-05T07:56:25Z</time>
      </trkpt>
      <trkpt lat="44.13055" lon="1.70562">
        <ele>127</ele>
        <time>2023-03-05T07:56:26Z</time>
      </trkpt>
      <trkpt lat="44.13052" lon="1.70563">
        <ele>127</ele>
        <time>2023-03-05T07:56:27Z</time>
      </trkpt>
      <trkpt lat="44.1305" lon="1.70565">
        <ele>127.2</ele>
        <time>2023-03-05T07:56:28Z</time>
      </trkpt>
      <trkpt lat="44.13047" lon="1.70568">
        <ele>127.4</ele>
        <time>2023-03-05T07:56:29Z</time>
      </trkpt>
      <trkpt lat="44.13044" lon="1.7057">
        <ele>127.4</ele>
        <time>2023-03-05T07:56:30Z</time>
      </trkpt>
      <trkpt lat="44.13041" lon="1.70572">
        <ele>127.4</ele>
        <time>2023-03-05T07:56:31Z</time>
      </trkpt>
      <trkpt lat="44.13037" lon="1.70574">
        <ele>127.4</ele>
        <time>2023-03-05T07:56:32Z</time>
      </trkpt>
      <trkpt lat="44.13033" lon="1.70577">
        <ele>127.4</ele>
        <time>2023-03-05T07:56:33Z</time>
      </trkpt>
      <trkpt lat="44.13028" lon="1.70581">
        <ele>127.4</ele>
        <time>2023-03-05T07:56:34Z</time>
      </trkpt>
      <trkpt lat="44.13025" lon="1.70585">
        <ele>127.4</ele>
        <time>2023-03-05T07:56:35Z</time>
      </trkpt>
      <trkpt lat="44.13021" lon="1.70589">
        <ele>127.4</ele>
        <time>2023-03-05T07:56:36Z</time>
      </trkpt>
      <trkpt lat="44.13018" lon="1.70593">
        <ele>127.4</ele>
        <time>2023-03-05T07:56:37Z</time>
      </trkpt>
      <trkpt lat="44.13016" lon="1.70598">
        <ele>127.2</ele>
        <time>2023-03-05T07:56:38Z</time>
      </trkpt>
      <trkpt lat="44.13014" lon="1.70602">
        <ele>127.2</ele>
        <time>2023-03-05T07:56:39Z</time>
      </trkpt>
      <trkpt lat="44.13012" lon="1.70603">
        <ele>127.2</ele>
        <time>2023-03-05T07:56:40Z</time>
      </trkpt>
      <trkpt lat="44.13009" lon="1.70601">
        <ele>127.2</ele>
        <time>2023-03-05T07:56:41Z</time>
      </trkpt>
      <trkpt lat="44.13007" lon="1.706">
        <ele>127.2</ele>
        <time>2023-03-05T07:56:42Z</time>
      </trkpt>
      <trkpt lat="44.13004" lon="1.70599">
        <ele>127.2</ele>
        <time>2023-03-05T07:56:43Z</time>
      </trkpt>
      <trkpt lat="44.13001" lon="1.706">
        <ele>127.2</ele>
        <time>2023-03-05T07:56:44Z</time>
      </trkpt>
      <trkpt lat="44.12998" lon="1.706">
        <ele>127</ele>
        <time>2023-03-05T07:56:45Z</time>
      </trkpt>
      <trkpt lat="44.12993" lon="1.706">
        <ele>127.2</ele>
        <time>2023-03-05T07:56:46Z</time>
      </trkpt>
      <trkpt lat="44.12989" lon="1.706">
        <ele>127.2</ele>
        <time>2023-03-05T07:56:47Z</time>
      </trkpt>
      <trkpt lat="44.12986" lon="1.70601">
        <ele>127.2</ele>
        <time>2023-03-05T07:56:48Z</time>
      </trkpt>
      <trkpt lat="44.12984" lon="1.70603">
        <ele>127.2</ele>
        <time>2023-03-05T07:56:49Z</time>
      </trkpt>
      <trkpt lat="44.12984" lon="1.70604">
        <ele>127.2</ele>
        <time>2023-03-05T07:56:50Z</time>
      </trkpt>
      <trkpt lat="44.12983" lon="1.70607">
        <ele>127.4</ele>
        <time>2023-03-05T07:56:51Z</time>
      </trkpt>
      <trkpt lat="44.12982" lon="1.7061">
        <ele>127.4</ele>
        <time>2023-03-05T07:56:52Z</time>
      </trkpt>
      <trkpt lat="44.12981" lon="1.70614">
        <ele>127.4</ele>
        <time>2023-03-05T07:56:53Z</time>
      </trkpt>
      <trkpt lat="44.12979" lon="1.70618">
        <ele>127.4</ele>
        <time>2023-03-05T07:56:54Z</time>
      </trkpt>
      <trkpt lat="44.12977" lon="1.70624">
        <ele>127.8</ele>
        <time>2023-03-05T07:56:55Z</time>
      </trkpt>
      <trkpt lat="44.12976" lon="1.70629">
        <ele>128</ele>
        <time>2023-03-05T07:56:56Z</time>
      </trkpt>
      <trkpt lat="44.12974" lon="1.70634">
        <ele>128.4</ele>
        <time>2023-03-05T07:56:57Z</time>
      </trkpt>
      <trkpt lat="44.12971" lon="1.7064">
        <ele>129</ele>
        <time>2023-03-05T07:56:58Z</time>
      </trkpt>
      <trkpt lat="44.12968" lon="1.70644">
        <ele>129.6</ele>
        <time>2023-03-05T07:56:59Z</time>
      </trkpt>
      <trkpt lat="44.12966" lon="1.70647">
        <ele>130</ele>
        <time>2023-03-05T07:57:00Z</time>
      </trkpt>
      <trkpt lat="44.12963" lon="1.7065">
        <ele>130.4</ele>
        <time>2023-03-05T07:57:01Z</time>
      </trkpt>
      <trkpt lat="44.1296" lon="1.70652">
        <ele>130.6</ele>
        <time>2023-03-05T07:57:02Z</time>
      </trkpt>
      <trkpt lat="44.12957" lon="1.70653">
        <ele>131</ele>
        <time>2023-03-05T07:57:03Z</time>
      </trkpt>
      <trkpt lat="44.12954" lon="1.70653">
        <ele>131.2</ele>
        <time>2023-03-05T07:57:04Z</time>
      </trkpt>
      <trkpt lat="44.12952" lon="1.70654">
        <ele>131.4</ele>
        <time>2023-03-05T07:57:05Z</time>
      </trkpt>
      <trkpt lat="44.1295" lon="1.70655">
        <ele>131.6</ele>
        <time>2023-03-05T07:57:06Z</time>
      </trkpt>
      <trkpt lat="44.12947" lon="1.70656">
        <ele>131.8</ele>
        <time>2023-03-05T07:57:07Z</time>
      </trkpt>
      <trkpt lat="44.12946" lon="1.70656">
        <ele>132.4</ele>
        <time>2023-03-05T07:57:08Z</time>
      </trkpt>
      <trkpt lat="44.12944" lon="1.70657">
        <ele>132.8</ele>
        <time>2023-03-05T07:57:09Z</time>
      </trkpt>
      <trkpt lat="44.12943" lon="1.70658">
        <ele>133.6</ele>
        <time>2023-03-05T07:57:10Z</time>
      </trkpt>
      <trkpt lat="44.12941" lon="1.70659">
        <ele>133.8</ele>
        <time>2023-03-05T07:57:11Z</time>
      </trkpt>
      <trkpt lat="44.1294" lon="1.7066">
        <ele>134.2</ele>
        <time>2023-03-05T07:57:12Z</time>
      </trkpt>
      <trkpt lat="44.12939" lon="1.70661">
        <ele>134.6</ele>
        <time>2023-03-05T07:57:13Z</time>
      </trkpt>
      <trkpt lat="44.12937" lon="1.70662">
        <ele>135.2</ele>
        <time>2023-03-05T07:57:14Z</time>
      </trkpt>
      <trkpt lat="44.12936" lon="1.70662">
        <ele>135.4</ele>
        <time>2023-03-05T07:57:15Z</time>
      </trkpt>
      <trkpt lat="44.12934" lon="1.70663">
        <ele>135.8</ele>
        <time>2023-03-05T07:57:16Z</time>
      </trkpt>
      <trkpt lat="44.12932" lon="1.70664">
        <ele>136</ele>
        <time>2023-03-05T07:57:17Z</time>
      </trkpt>
      <trkpt lat="44.12931" lon="1.70665">
        <ele>136.2</ele>
        <time>2023-03-05T07:57:18Z</time>
      </trkpt>
      <trkpt lat="44.12929" lon="1.70666">
        <ele>136.6</ele>
        <time>2023-03-05T07:57:19Z</time>
      </trkpt>
      <trkpt lat="44.12928" lon="1.70667">
        <ele>137</ele>
        <time>2023-03-05T07:57:20Z</time>
      </trkpt>
      <trkpt lat="44.12927" lon="1.70669">
        <ele>137</ele>
        <time>2023-03-05T07:57:21Z</time>
      </trkpt>
      <trkpt lat="44.12926" lon="1.70671">
        <ele>137.4</ele>
        <time>2023-03-05T07:57:22Z</time>
      </trkpt>
      <trkpt lat="44.12925" lon="1.70674">
        <ele>137.8</ele>
        <time>2023-03-05T07:57:23Z</time>
      </trkpt>
      <trkpt lat="44.12925" lon="1.70678">
        <ele>137.8</ele>
        <time>2023-03-05T07:57:24Z</time>
      </trkpt>
      <trkpt lat="44.12925" lon="1.70682">
        <ele>137.8</ele>
        <time>2023-03-05T07:57:25Z</time>
      </trkpt>
      <trkpt lat="44.12924" lon="1.70686">
        <ele>138</ele>
        <time>2023-03-05T07:57:26Z</time>
      </trkpt>
      <trkpt lat="44.12923" lon="1.70689">
        <ele>138</ele>
        <time>2023-03-05T07:57:27Z</time>
      </trkpt>
      <trkpt lat="44.12922" lon="1.70692">
        <ele>137.8</ele>
        <time>2023-03-05T07:57:28Z</time>
      </trkpt>
      <trkpt lat="44.12921" lon="1.70694">
        <ele>137.8</ele>
        <time>2023-03-05T07:57:29Z</time>
      </trkpt>
      <trkpt lat="44.12919" lon="1.70695">
        <ele>137.8</ele>
        <time>2023-03-05T07:57:30Z</time>
      </trkpt>
      <trkpt lat="44.12917" lon="1.70697">
        <ele>137.8</ele>
        <time>2023-03-05T07:57:31Z</time>
      </trkpt>
      <trkpt lat="44.12916" lon="1.70698">
        <ele>137.8</ele>
        <time>2023-03-05T07:57:32Z</time>
      </trkpt>
      <trkpt lat="44.12915" lon="1.70701">
        <ele>137.8</ele>
        <time>2023-03-05T07:57:33Z</time>
      </trkpt>
      <trkpt lat="44.12914" lon="1.70703">
        <ele>137.8</ele>
        <time>2023-03-05T07:57:34Z</time>
      </trkpt>
      <trkpt lat="44.12913" lon="1.70706">
        <ele>138</ele>
        <time>2023-03-05T07:57:35Z</time>
      </trkpt>
      <trkpt lat="44.12912" lon="1.70709">
        <ele>138</ele>
        <time>2023-03-05T07:57:36Z</time>
      </trkpt>
      <trkpt lat="44.12911" lon="1.70712">
        <ele>138.4</ele>
        <time>2023-03-05T07:57:37Z</time>
      </trkpt>
      <trkpt lat="44.1291" lon="1.70714">
        <ele>138.4</ele>
        <time>2023-03-05T07:57:38Z</time>
      </trkpt>
      <trkpt lat="44.12909" lon="1.70717">
        <ele>138.8</ele>
        <time>2023-03-05T07:57:39Z</time>
      </trkpt>
      <trkpt lat="44.12908" lon="1.70719">
        <ele>139.2</ele>
        <time>2023-03-05T07:57:40Z</time>
      </trkpt>
      <trkpt lat="44.12908" lon="1.70722">
        <ele>139.4</ele>
        <time>2023-03-05T07:57:41Z</time>
      </trkpt>
      <trkpt lat="44.12908" lon="1.70725">
        <ele>139.8</ele>
        <time>2023-03-05T07:57:42Z</time>
      </trkpt>
      <trkpt lat="44.12907" lon="1.70727">
        <ele>139.8</ele>
        <time>2023-03-05T07:57:43Z</time>
      </trkpt>
      <trkpt lat="44.12907" lon="1.7073">
        <ele>140.4</ele>
        <time>2023-03-05T07:57:44Z</time>
      </trkpt>
      <trkpt lat="44.12907" lon="1.70733">
        <ele>140.4</ele>
        <time>2023-03-05T07:57:45Z</time>
      </trkpt>
      <trkpt lat="44.12906" lon="1.70737">
        <ele>140.6</ele>
        <time>2023-03-05T07:57:46Z</time>
      </trkpt>
      <trkpt lat="44.12905" lon="1.70739">
        <ele>140.8</ele>
        <time>2023-03-05T07:57:47Z</time>
      </trkpt>
      <trkpt lat="44.12905" lon="1.70741">
        <ele>141</ele>
        <time>2023-03-05T07:57:48Z</time>
      </trkpt>
      <trkpt lat="44.12904" lon="1.70743">
        <ele>141</ele>
        <time>2023-03-05T07:57:49Z</time>
      </trkpt>
      <trkpt lat="44.12903" lon="1.70746">
        <ele>141.2</ele>
        <time>2023-03-05T07:57:50Z</time>
      </trkpt>
      <trkpt lat="44.12902" lon="1.70748">
        <ele>141.2</ele>
        <time>2023-03-05T07:57:51Z</time>
      </trkpt>
      <trkpt lat="44.12901" lon="1.70751">
        <ele>141.4</ele>
        <time>2023-03-05T07:57:52Z</time>
      </trkpt>
      <trkpt lat="44.12901" lon="1.70754">
        <ele>141.4</ele>
        <time>2023-03-05T07:57:53Z</time>
      </trkpt>
      <trkpt lat="44.12899" lon="1.70756">
        <ele>141.6</ele>
        <time>2023-03-05T07:57:54Z</time>
      </trkpt>
      <trkpt lat="44.12898" lon="1.70759">
        <ele>141.8</ele>
        <time>2023-03-05T07:57:55Z</time>
      </trkpt>
      <trkpt lat="44.12897" lon="1.70761">
        <ele>142</ele>
        <time>2023-03-05T07:57:56Z</time>
      </trkpt>
      <trkpt lat="44.12896" lon="1.70763">
        <ele>142</ele>
        <time>2023-03-05T07:57:57Z</time>
      </trkpt>
      <trkpt lat="44.12895" lon="1.70765">
        <ele>142.2</ele>
        <time>2023-03-05T07:57:58Z</time>
      </trkpt>
      <trkpt lat="44.12894" lon="1.70767">
        <ele>142.4</ele>
        <time>2023-03-05T07:57:59Z</time>
      </trkpt>
      <trkpt lat="44.12893" lon="1.70769">
        <ele>142.4</ele>
        <time>2023-03-05T07:58:00Z</time>
      </trkpt>
      <trkpt lat="44.12892" lon="1.70772">
        <ele>142.6</ele>
        <time>2023-03-05T07:58:01Z</time>
      </trkpt>
      <trkpt lat="44.12892" lon="1.70774">
        <ele>142.8</ele>
        <time>2023-03-05T07:58:02Z</time>
      </trkpt>
      <trkpt lat="44.12891" lon="1.70775">
        <ele>142.8</ele>
        <time>2023-03-05T07:58:03Z</time>
      </trkpt>
      <trkpt lat="44.1289" lon="1.70777">
        <ele>143</ele>
        <time>2023-03-05T07:58:04Z</time>
      </trkpt>
      <trkpt lat="44.12889" lon="1.7078">
        <ele>143</ele>
        <time>2023-03-05T07:58:05Z</time>
      </trkpt>
      <trkpt lat="44.12889" lon="1.70782">
        <ele>143</ele>
        <time>2023-03-05T07:58:06Z</time>
      </trkpt>
      <trkpt lat="44.12888" lon="1.70784">
        <ele>143.2</ele>
        <time>2023-03-05T07:58:07Z</time>
      </trkpt>
      <trkpt lat="44.12888" lon="1.70787">
        <ele>143.6</ele>
        <time>2023-03-05T07:58:08Z</time>
      </trkpt>
      <trkpt lat="44.12887" lon="1.70789">
        <ele>143.8</ele>
        <time>2023-03-05T07:58:09Z</time>
      </trkpt>
      <trkpt lat="44.12887" lon="1.70791">
        <ele>144</ele>
        <time>2023-03-05T07:58:10Z</time>
      </trkpt>
      <trkpt lat="44.12885" lon="1.70793">
        <ele>144</ele>
        <time>2023-03-05T07:58:11Z</time>
      </trkpt>
      <trkpt lat="44.12884" lon="1.70798">
        <ele>144</ele>
        <time>2023-03-05T07:58:12Z</time>
      </trkpt>
      <trkpt lat="44.12883" lon="1.70802">
        <ele>144</ele>
        <time>2023-03-05T07:58:13Z</time>
      </trkpt>
      <trkpt lat="44.12881" lon="1.70806">
        <ele>144</ele>
        <time>2023-03-05T07:58:14Z</time>
      </trkpt>
      <trkpt lat="44.12879" lon="1.70811">
        <ele>144</ele>
        <time>2023-03-05T07:58:15Z</time>
      </trkpt>
      <trkpt lat="44.12878" lon="1.70815">
        <ele>143.8</ele>
        <time>2023-03-05T07:58:16Z</time>
      </trkpt>
      <trkpt lat="44.12877" lon="1.7082">
        <ele>143.8</ele>
        <time>2023-03-05T07:58:17Z</time>
      </trkpt>
      <trkpt lat="44.12877" lon="1.70827">
        <ele>143.6</ele>
        <time>2023-03-05T07:58:18Z</time>
      </trkpt>
      <trkpt lat="44.12876" lon="1.70835">
        <ele>143.2</ele>
        <time>2023-03-05T07:58:19Z</time>
      </trkpt>
      <trkpt lat="44.12874" lon="1.7084">
        <ele>143</ele>
        <time>2023-03-05T07:58:20Z</time>
      </trkpt>
      <trkpt lat="44.12871" lon="1.70845">
        <ele>142.8</ele>
        <time>2023-03-05T07:58:21Z</time>
      </trkpt>
      <trkpt lat="44.12869" lon="1.7085">
        <ele>142.6</ele>
        <time>2023-03-05T07:58:22Z</time>
      </trkpt>
      <trkpt lat="44.12866" lon="1.70854">
        <ele>142.4</ele>
        <time>2023-03-05T07:58:23Z</time>
      </trkpt>
      <trkpt lat="44.12864" lon="1.70858">
        <ele>142.4</ele>
        <time>2023-03-05T07:58:24Z</time>
      </trkpt>
      <trkpt lat="44.12862" lon="1.70863">
        <ele>142.4</ele>
        <time>2023-03-05T07:58:25Z</time>
      </trkpt>
      <trkpt lat="44.12861" lon="1.70867">
        <ele>142.4</ele>
        <time>2023-03-05T07:58:26Z</time>
      </trkpt>
      <trkpt lat="44.12859" lon="1.70872">
        <ele>142.4</ele>
        <time>2023-03-05T07:58:27Z</time>
      </trkpt>
      <trkpt lat="44.12858" lon="1.70876">
        <ele>142.6</ele>
        <time>2023-03-05T07:58:28Z</time>
      </trkpt>
      <trkpt lat="44.12857" lon="1.70878">
        <ele>142.8</ele>
        <time>2023-03-05T07:58:29Z</time>
      </trkpt>
      <trkpt lat="44.12855" lon="1.70881">
        <ele>143.2</ele>
        <time>2023-03-05T07:58:30Z</time>
      </trkpt>
      <trkpt lat="44.12855" lon="1.70884">
        <ele>143.4</ele>
        <time>2023-03-05T07:58:31Z</time>
      </trkpt>
      <trkpt lat="44.12853" lon="1.70886">
        <ele>143.8</ele>
        <time>2023-03-05T07:58:32Z</time>
      </trkpt>
      <trkpt lat="44.12852" lon="1.70889">
        <ele>144</ele>
        <time>2023-03-05T07:58:33Z</time>
      </trkpt>
      <trkpt lat="44.12851" lon="1.70892">
        <ele>144.4</ele>
        <time>2023-03-05T07:58:34Z</time>
      </trkpt>
      <trkpt lat="44.1285" lon="1.70895">
        <ele>144.6</ele>
        <time>2023-03-05T07:58:35Z</time>
      </trkpt>
      <trkpt lat="44.12848" lon="1.70899">
        <ele>145</ele>
        <time>2023-03-05T07:58:36Z</time>
      </trkpt>
      <trkpt lat="44.12847" lon="1.70903">
        <ele>145.2</ele>
        <time>2023-03-05T07:58:37Z</time>
      </trkpt>
      <trkpt lat="44.12845" lon="1.70908">
        <ele>145.4</ele>
        <time>2023-03-05T07:58:38Z</time>
      </trkpt>
      <trkpt lat="44.12842" lon="1.70912">
        <ele>145.6</ele>
        <time>2023-03-05T07:58:39Z</time>
      </trkpt>
      <trkpt lat="44.12839" lon="1.70916">
        <ele>145.6</ele>
        <time>2023-03-05T07:58:40Z</time>
      </trkpt>
      <trkpt lat="44.12835" lon="1.70921">
        <ele>145.6</ele>
        <time>2023-03-05T07:58:41Z</time>
      </trkpt>
      <trkpt lat="44.12831" lon="1.70926">
        <ele>145.6</ele>
        <time>2023-03-05T07:58:42Z</time>
      </trkpt>
      <trkpt lat="44.12827" lon="1.7093">
        <ele>145.6</ele>
        <time>2023-03-05T07:58:43Z</time>
      </trkpt>
      <trkpt lat="44.12823" lon="1.70935">
        <ele>145.6</ele>
        <time>2023-03-05T07:58:44Z</time>
      </trkpt>
      <trkpt lat="44.12819" lon="1.7094">
        <ele>145.6</ele>
        <time>2023-03-05T07:58:45Z</time>
      </trkpt>
      <trkpt lat="44.12815" lon="1.70945">
        <ele>145.6</ele>
        <time>2023-03-05T07:58:46Z</time>
      </trkpt>
      <trkpt lat="44.12811" lon="1.7095">
        <ele>145.4</ele>
        <time>2023-03-05T07:58:47Z</time>
      </trkpt>
      <trkpt lat="44.12806" lon="1.70955">
        <ele>145.4</ele>
        <time>2023-03-05T07:58:48Z</time>
      </trkpt>
      <trkpt lat="44.12802" lon="1.7096">
        <ele>145.2</ele>
        <time>2023-03-05T07:58:49Z</time>
      </trkpt>
      <trkpt lat="44.12798" lon="1.70965">
        <ele>145.2</ele>
        <time>2023-03-05T07:58:50Z</time>
      </trkpt>
      <trkpt lat="44.12793" lon="1.7097">
        <ele>145.2</ele>
        <time>2023-03-05T07:58:51Z</time>
      </trkpt>
      <trkpt lat="44.12788" lon="1.70975">
        <ele>145.2</ele>
        <time>2023-03-05T07:58:52Z</time>
      </trkpt>
      <trkpt lat="44.12784" lon="1.7098">
        <ele>145.2</ele>
        <time>2023-03-05T07:58:53Z</time>
      </trkpt>
      <trkpt lat="44.12779" lon="1.70984">
        <ele>145.2</ele>
        <time>2023-03-05T07:58:54Z</time>
      </trkpt>
      <trkpt lat="44.12775" lon="1.70989">
        <ele>145.2</ele>
        <time>2023-03-05T07:58:55Z</time>
      </trkpt>
      <trkpt lat="44.12771" lon="1.70994">
        <ele>145.2</ele>
        <time>2023-03-05T07:58:56Z</time>
      </trkpt>
      <trkpt lat="44.12767" lon="1.71">
        <ele>145.2</ele>
        <time>2023-03-05T07:58:57Z</time>
      </trkpt>
      <trkpt lat="44.12763" lon="1.71005">
        <ele>145.2</ele>
        <time>2023-03-05T07:58:58Z</time>
      </trkpt>
      <trkpt lat="44.12759" lon="1.7101">
        <ele>145.2</ele>
        <time>2023-03-05T07:58:59Z</time>
      </trkpt>
      <trkpt lat="44.12756" lon="1.71015">
        <ele>145.2</ele>
        <time>2023-03-05T07:59:00Z</time>
      </trkpt>
      <trkpt lat="44.12752" lon="1.71021">
        <ele>145.2</ele>
        <time>2023-03-05T07:59:01Z</time>
      </trkpt>
      <trkpt lat="44.12749" lon="1.71026">
        <ele>145.2</ele>
        <time>2023-03-05T07:59:02Z</time>
      </trkpt>
      <trkpt lat="44.12747" lon="1.71031">
        <ele>145.4</ele>
        <time>2023-03-05T07:59:03Z</time>
      </trkpt>
      <trkpt lat="44.12744" lon="1.71036">
        <ele>145.4</ele>
        <time>2023-03-05T07:59:04Z</time>
      </trkpt>
      <trkpt lat="44.12741" lon="1.71041">
        <ele>145.4</ele>
        <time>2023-03-05T07:59:05Z</time>
      </trkpt>
      <trkpt lat="44.12737" lon="1.71048">
        <ele>145.4</ele>
        <time>2023-03-05T07:59:06Z</time>
      </trkpt>
      <trkpt lat="44.12734" lon="1.71053">
        <ele>145.6</ele>
        <time>2023-03-05T07:59:07Z</time>
      </trkpt>
      <trkpt lat="44.12731" lon="1.71058">
        <ele>145.8</ele>
        <time>2023-03-05T07:59:08Z</time>
      </trkpt>
      <trkpt lat="44.12728" lon="1.71064">
        <ele>145.8</ele>
        <time>2023-03-05T07:59:09Z</time>
      </trkpt>
      <trkpt lat="44.12724" lon="1.71069">
        <ele>146</ele>
        <time>2023-03-05T07:59:10Z</time>
      </trkpt>
      <trkpt lat="44.12721" lon="1.71075">
        <ele>146</ele>
        <time>2023-03-05T07:59:11Z</time>
      </trkpt>
      <trkpt lat="44.12717" lon="1.7108">
        <ele>146.2</ele>
        <time>2023-03-05T07:59:12Z</time>
      </trkpt>
      <trkpt lat="44.12714" lon="1.71085">
        <ele>146.2</ele>
        <time>2023-03-05T07:59:13Z</time>
      </trkpt>
      <trkpt lat="44.1271" lon="1.71091">
        <ele>146.4</ele>
        <time>2023-03-05T07:59:14Z</time>
      </trkpt>
      <trkpt lat="44.12707" lon="1.71097">
        <ele>146.6</ele>
        <time>2023-03-05T07:59:15Z</time>
      </trkpt>
      <trkpt lat="44.12704" lon="1.71103">
        <ele>146.6</ele>
        <time>2023-03-05T07:59:16Z</time>
      </trkpt>
      <trkpt lat="44.12701" lon="1.71109">
        <ele>146.8</ele>
        <time>2023-03-05T07:59:17Z</time>
      </trkpt>
      <trkpt lat="44.12698" lon="1.71116">
        <ele>147</ele>
        <time>2023-03-05T07:59:18Z</time>
      </trkpt>
      <trkpt lat="44.12694" lon="1.71121">
        <ele>147.4</ele>
        <time>2023-03-05T07:59:19Z</time>
      </trkpt>
      <trkpt lat="44.12691" lon="1.71126">
        <ele>147.6</ele>
        <time>2023-03-05T07:59:20Z</time>
      </trkpt>
      <trkpt lat="44.12689" lon="1.7113">
        <ele>147.8</ele>
        <time>2023-03-05T07:59:21Z</time>
      </trkpt>
      <trkpt lat="44.12687" lon="1.71134">
        <ele>148</ele>
        <time>2023-03-05T07:59:22Z</time>
      </trkpt>
      <trkpt lat="44.12685" lon="1.71139">
        <ele>148.2</ele>
        <time>2023-03-05T07:59:23Z</time>
      </trkpt>
      <trkpt lat="44.12683" lon="1.71144">
        <ele>148.4</ele>
        <time>2023-03-05T07:59:24Z</time>
      </trkpt>
      <trkpt lat="44.12679" lon="1.71149">
        <ele>148.4</ele>
        <time>2023-03-05T07:59:25Z</time>
      </trkpt>
      <trkpt lat="44.12675" lon="1.71155">
        <ele>148.4</ele>
        <time>2023-03-05T07:59:26Z</time>
      </trkpt>
      <trkpt lat="44.12672" lon="1.7116">
        <ele>148.4</ele>
        <time>2023-03-05T07:59:27Z</time>
      </trkpt>
      <trkpt lat="44.12669" lon="1.71165">
        <ele>148.4</ele>
        <time>2023-03-05T07:59:28Z</time>
      </trkpt>
      <trkpt lat="44.12666" lon="1.71171">
        <ele>148.4</ele>
        <time>2023-03-05T07:59:29Z</time>
      </trkpt>
      <trkpt lat="44.12662" lon="1.71176">
        <ele>148.4</ele>
        <time>2023-03-05T07:59:30Z</time>
      </trkpt>
      <trkpt lat="44.12658" lon="1.71182">
        <ele>148.2</ele>
        <time>2023-03-05T07:59:31Z</time>
      </trkpt>
      <trkpt lat="44.12655" lon="1.71187">
        <ele>148.2</ele>
        <time>2023-03-05T07:59:32Z</time>
      </trkpt>
      <trkpt lat="44.12651" lon="1.71193">
        <ele>148.2</ele>
        <time>2023-03-05T07:59:33Z</time>
      </trkpt>
      <trkpt lat="44.12647" lon="1.712">
        <ele>148</ele>
        <time>2023-03-05T07:59:34Z</time>
      </trkpt>
      <trkpt lat="44.12643" lon="1.71207">
        <ele>147.8</ele>
        <time>2023-03-05T07:59:35Z</time>
      </trkpt>
      <trkpt lat="44.12639" lon="1.71216">
        <ele>147.8</ele>
        <time>2023-03-05T07:59:36Z</time>
      </trkpt>
      <trkpt lat="44.12635" lon="1.71223">
        <ele>147.6</ele>
        <time>2023-03-05T07:59:37Z</time>
      </trkpt>
      <trkpt lat="44.12632" lon="1.71231">
        <ele>147.6</ele>
        <time>2023-03-05T07:59:38Z</time>
      </trkpt>
      <trkpt lat="44.12629" lon="1.71238">
        <ele>147.2</ele>
        <time>2023-03-05T07:59:39Z</time>
      </trkpt>
      <trkpt lat="44.12626" lon="1.71245">
        <ele>147</ele>
        <time>2023-03-05T07:59:40Z</time>
      </trkpt>
      <trkpt lat="44.12623" lon="1.71252">
        <ele>146.8</ele>
        <time>2023-03-05T07:59:41Z</time>
      </trkpt>
      <trkpt lat="44.1262" lon="1.7126">
        <ele>146.6</ele>
        <time>2023-03-05T07:59:42Z</time>
      </trkpt>
      <trkpt lat="44.12617" lon="1.71267">
        <ele>146.6</ele>
        <time>2023-03-05T07:59:43Z</time>
      </trkpt>
      <trkpt lat="44.12614" lon="1.71273">
        <ele>146.4</ele>
        <time>2023-03-05T07:59:44Z</time>
      </trkpt>
      <trkpt lat="44.12611" lon="1.7128">
        <ele>146.4</ele>
        <time>2023-03-05T07:59:45Z</time>
      </trkpt>
      <trkpt lat="44.12608" lon="1.71288">
        <ele>146.2</ele>
        <time>2023-03-05T07:59:46Z</time>
      </trkpt>
      <trkpt lat="44.12605" lon="1.71295">
        <ele>146.2</ele>
        <time>2023-03-05T07:59:47Z</time>
      </trkpt>
      <trkpt lat="44.12602" lon="1.71302">
        <ele>146</ele>
        <time>2023-03-05T07:59:48Z</time>
      </trkpt>
      <trkpt lat="44.126" lon="1.71309">
        <ele>146</ele>
        <time>2023-03-05T07:59:49Z</time>
      </trkpt>
      <trkpt lat="44.12598" lon="1.71315">
        <ele>146</ele>
        <time>2023-03-05T07:59:50Z</time>
      </trkpt>
      <trkpt lat="44.12595" lon="1.71321">
        <ele>146</ele>
        <time>2023-03-05T07:59:51Z</time>
      </trkpt>
      <trkpt lat="44.12593" lon="1.71326">
        <ele>146</ele>
        <time>2023-03-05T07:59:52Z</time>
      </trkpt>
      <trkpt lat="44.1259" lon="1.71331">
        <ele>146</ele>
        <time>2023-03-05T07:59:53Z</time>
      </trkpt>
      <trkpt lat="44.12588" lon="1.71336">
        <ele>146</ele>
        <time>2023-03-05T07:59:54Z</time>
      </trkpt>
      <trkpt lat="44.12585" lon="1.7134">
        <ele>146</ele>
        <time>2023-03-05T07:59:55Z</time>
      </trkpt>
      <trkpt lat="44.12583" lon="1.71345">
        <ele>146</ele>
        <time>2023-03-05T07:59:56Z</time>
      </trkpt>
      <trkpt lat="44.1258" lon="1.7135">
        <ele>146.2</ele>
        <time>2023-03-05T07:59:57Z</time>
      </trkpt>
      <trkpt lat="44.12578" lon="1.71355">
        <ele>146.6</ele>
        <time>2023-03-05T07:59:58Z</time>
      </trkpt>
      <trkpt lat="44.12576" lon="1.7136">
        <ele>146.8</ele>
        <time>2023-03-05T07:59:59Z</time>
      </trkpt>
      <trkpt lat="44.12574" lon="1.71365">
        <ele>147.4</ele>
        <time>2023-03-05T08:00:00Z</time>
      </trkpt>
      <trkpt lat="44.12571" lon="1.7137">
        <ele>148</ele>
        <time>2023-03-05T08:00:01Z</time>
      </trkpt>
      <trkpt lat="44.12569" lon="1.71374">
        <ele>148.2</ele>
        <time>2023-03-05T08:00:02Z</time>
      </trkpt>
      <trkpt lat="44.12566" lon="1.71379">
        <ele>148.6</ele>
        <time>2023-03-05T08:00:03Z</time>
      </trkpt>
      <trkpt lat="44.12564" lon="1.71383">
        <ele>148.8</ele>
        <time>2023-03-05T08:00:04Z</time>
      </trkpt>
      <trkpt lat="44.12561" lon="1.71386">
        <ele>149.4</ele>
        <time>2023-03-05T08:00:05Z</time>
      </trkpt>
      <trkpt lat="44.12558" lon="1.7139">
        <ele>149.6</ele>
        <time>2023-03-05T08:00:06Z</time>
      </trkpt>
      <trkpt lat="44.12556" lon="1.71394">
        <ele>150</ele>
        <time>2023-03-05T08:00:07Z</time>
      </trkpt>
      <trkpt lat="44.12553" lon="1.71397">
        <ele>150.2</ele>
        <time>2023-03-05T08:00:08Z</time>
      </trkpt>
      <trkpt lat="44.12551" lon="1.71399">
        <ele>150.6</ele>
        <time>2023-03-05T08:00:09Z</time>
      </trkpt>
      <trkpt lat="44.12548" lon="1.71402">
        <ele>150.8</ele>
        <time>2023-03-05T08:00:10Z</time>
      </trkpt>
      <trkpt lat="44.12546" lon="1.71404">
        <ele>151.4</ele>
        <time>2023-03-05T08:00:11Z</time>
      </trkpt>
      <trkpt lat="44.12543" lon="1.71406">
        <ele>151.6</ele>
        <time>2023-03-05T08:00:12Z</time>
      </trkpt>
      <trkpt lat="44.1254" lon="1.71408">
        <ele>152</ele>
        <time>2023-03-05T08:00:13Z</time>
      </trkpt>
      <trkpt lat="44.12538" lon="1.71409">
        <ele>152.2</ele>
        <time>2023-03-05T08:00:14Z</time>
      </trkpt>
      <trkpt lat="44.12536" lon="1.71411">
        <ele>152.4</ele>
        <time>2023-03-05T08:00:15Z</time>
      </trkpt>
      <trkpt lat="44.12534" lon="1.71412">
        <ele>152.6</ele>
        <time>2023-03-05T08:00:16Z</time>
      </trkpt>
      <trkpt lat="44.12532" lon="1.71414">
        <ele>153</ele>
        <time>2023-03-05T08:00:17Z</time>
      </trkpt>
      <trkpt lat="44.1253" lon="1.71416">
        <ele>153.6</ele>
        <time>2023-03-05T08:00:18Z</time>
      </trkpt>
      <trkpt lat="44.12527" lon="1.71417">
        <ele>153.8</ele>
        <time>2023-03-05T08:00:19Z</time>
      </trkpt>
      <trkpt lat="44.12525" lon="1.7142">
        <ele>154.2</ele>
        <time>2023-03-05T08:00:20Z</time>
      </trkpt>
      <trkpt lat="44.12522" lon="1.71422">
        <ele>154.6</ele>
        <time>2023-03-05T08:00:21Z</time>
      </trkpt>
      <trkpt lat="44.1252" lon="1.71424">
        <ele>155.4</ele>
        <time>2023-03-05T08:00:22Z</time>
      </trkpt>
      <trkpt lat="44.12517" lon="1.71426">
        <ele>155.6</ele>
        <time>2023-03-05T08:00:23Z</time>
      </trkpt>
      <trkpt lat="44.12515" lon="1.71427">
        <ele>156.2</ele>
        <time>2023-03-05T08:00:24Z</time>
      </trkpt>
      <trkpt lat="44.12512" lon="1.71427">
        <ele>156.4</ele>
        <time>2023-03-05T08:00:25Z</time>
      </trkpt>
      <trkpt lat="44.12509" lon="1.71427">
        <ele>156.6</ele>
        <time>2023-03-05T08:00:26Z</time>
      </trkpt>
      <trkpt lat="44.12506" lon="1.71427">
        <ele>157</ele>
        <time>2023-03-05T08:00:27Z</time>
      </trkpt>
      <trkpt lat="44.12503" lon="1.71427">
        <ele>157.2</ele>
        <time>2023-03-05T08:00:28Z</time>
      </trkpt>
      <trkpt lat="44.125" lon="1.71429">
        <ele>157.2</ele>
        <time>2023-03-05T08:00:29Z</time>
      </trkpt>
      <trkpt lat="44.12497" lon="1.71431">
        <ele>157.6</ele>
        <time>2023-03-05T08:00:30Z</time>
      </trkpt>
      <trkpt lat="44.12493" lon="1.71434">
        <ele>157.8</ele>
        <time>2023-03-05T08:00:31Z</time>
      </trkpt>
      <trkpt lat="44.12489" lon="1.71436">
        <ele>158</ele>
        <time>2023-03-05T08:00:32Z</time>
      </trkpt>
      <trkpt lat="44.12485" lon="1.71436">
        <ele>158</ele>
        <time>2023-03-05T08:00:33Z</time>
      </trkpt>
      <trkpt lat="44.12481" lon="1.71434">
        <ele>158</ele>
        <time>2023-03-05T08:00:34Z</time>
      </trkpt>
      <trkpt lat="44.12476" lon="1.7143">
        <ele>158</ele>
        <time>2023-03-05T08:00:35Z</time>
      </trkpt>
      <trkpt lat="44.1247" lon="1.71426">
        <ele>158.2</ele>
        <time>2023-03-05T08:00:36Z</time>
      </trkpt>
      <trkpt lat="44.12463" lon="1.71422">
        <ele>158</ele>
        <time>2023-03-05T08:00:37Z</time>
      </trkpt>
      <trkpt lat="44.12456" lon="1.71416">
        <ele>158</ele>
        <time>2023-03-05T08:00:38Z</time>
      </trkpt>
      <trkpt lat="44.12448" lon="1.71411">
        <ele>158</ele>
        <time>2023-03-05T08:00:39Z</time>
      </trkpt>
      <trkpt lat="44.1244" lon="1.71406">
        <ele>157.8</ele>
        <time>2023-03-05T08:00:40Z</time>
      </trkpt>
      <trkpt lat="44.12431" lon="1.714">
        <ele>157.2</ele>
        <time>2023-03-05T08:00:41Z</time>
      </trkpt>
      <trkpt lat="44.12422" lon="1.71395">
        <ele>156.6</ele>
        <time>2023-03-05T08:00:42Z</time>
      </trkpt>
      <trkpt lat="44.12412" lon="1.7139">
        <ele>155</ele>
        <time>2023-03-05T08:00:43Z</time>
      </trkpt>
      <trkpt lat="44.12403" lon="1.71387">
        <ele>154.4</ele>
        <time>2023-03-05T08:00:44Z</time>
      </trkpt>
      <trkpt lat="44.12394" lon="1.71383">
        <ele>153.2</ele>
        <time>2023-03-05T08:00:45Z</time>
      </trkpt>
      <trkpt lat="44.12384" lon="1.71379">
        <ele>152.8</ele>
        <time>2023-03-05T08:00:46Z</time>
      </trkpt>
      <trkpt lat="44.12375" lon="1.71375">
        <ele>152.2</ele>
        <time>2023-03-05T08:00:47Z</time>
      </trkpt>
      <trkpt lat="44.12366" lon="1.71371">
        <ele>151.6</ele>
        <time>2023-03-05T08:00:48Z</time>
      </trkpt>
      <trkpt lat="44.12357" lon="1.71366">
        <ele>150.4</ele>
        <time>2023-03-05T08:00:49Z</time>
      </trkpt>
      <trkpt lat="44.12349" lon="1.71362">
        <ele>150</ele>
        <time>2023-03-05T08:00:50Z</time>
      </trkpt>
      <trkpt lat="44.12341" lon="1.71358">
        <ele>149.2</ele>
        <time>2023-03-05T08:00:51Z</time>
      </trkpt>
      <trkpt lat="44.12333" lon="1.71355">
        <ele>148.8</ele>
        <time>2023-03-05T08:00:52Z</time>
      </trkpt>
      <trkpt lat="44.12325" lon="1.71352">
        <ele>148.4</ele>
        <time>2023-03-05T08:00:53Z</time>
      </trkpt>
      <trkpt lat="44.12318" lon="1.71349">
        <ele>148</ele>
        <time>2023-03-05T08:00:54Z</time>
      </trkpt>
      <trkpt lat="44.12311" lon="1.71345">
        <ele>147.4</ele>
        <time>2023-03-05T08:00:55Z</time>
      </trkpt>
      <trkpt lat="44.12304" lon="1.71342">
        <ele>147.2</ele>
        <time>2023-03-05T08:00:56Z</time>
      </trkpt>
      <trkpt lat="44.12297" lon="1.71339">
        <ele>147</ele>
        <time>2023-03-05T08:00:57Z</time>
      </trkpt>
      <trkpt lat="44.1229" lon="1.71337">
        <ele>146.8</ele>
        <time>2023-03-05T08:00:58Z</time>
      </trkpt>
      <trkpt lat="44.12284" lon="1.71334">
        <ele>146.6</ele>
        <time>2023-03-05T08:00:59Z</time>
      </trkpt>
      <trkpt lat="44.12277" lon="1.71332">
        <ele>146.6</ele>
        <time>2023-03-05T08:01:00Z</time>
      </trkpt>
      <trkpt lat="44.12272" lon="1.7133">
        <ele>146.4</ele>
        <time>2023-03-05T08:01:01Z</time>
      </trkpt>
      <trkpt lat="44.12266" lon="1.71328">
        <ele>146.4</ele>
        <time>2023-03-05T08:01:02Z</time>
      </trkpt>
      <trkpt lat="44.12261" lon="1.71324">
        <ele>146.4</ele>
        <time>2023-03-05T08:01:03Z</time>
      </trkpt>
      <trkpt lat="44.12257" lon="1.7132">
        <ele>146.4</ele>
        <time>2023-03-05T08:01:04Z</time>
      </trkpt>
      <trkpt lat="44.12255" lon="1.71314">
        <ele>146.4</ele>
        <time>2023-03-05T08:01:05Z</time>
      </trkpt>
      <trkpt lat="44.12254" lon="1.71307">
        <ele>146.4</ele>
        <time>2023-03-05T08:01:06Z</time>
      </trkpt>
      <trkpt lat="44.12253" lon="1.713">
        <ele>146.4</ele>
        <time>2023-03-05T08:01:07Z</time>
      </trkpt>
      <trkpt lat="44.12253" lon="1.71293">
        <ele>146.4</ele>
        <time>2023-03-05T08:01:08Z</time>
      </trkpt>
      <trkpt lat="44.12253" lon="1.71286">
        <ele>146.6</ele>
        <time>2023-03-05T08:01:09Z</time>
      </trkpt>
      <trkpt lat="44.12253" lon="1.7128">
        <ele>146.8</ele>
        <time>2023-03-05T08:01:10Z</time>
      </trkpt>
      <trkpt lat="44.12253" lon="1.71273">
        <ele>147</ele>
        <time>2023-03-05T08:01:11Z</time>
      </trkpt>
      <trkpt lat="44.12252" lon="1.71266">
        <ele>147</ele>
        <time>2023-03-05T08:01:12Z</time>
      </trkpt>
      <trkpt lat="44.12251" lon="1.71259">
        <ele>147</ele>
        <time>2023-03-05T08:01:13Z</time>
      </trkpt>
      <trkpt lat="44.12249" lon="1.71253">
        <ele>147.2</ele>
        <time>2023-03-05T08:01:14Z</time>
      </trkpt>
      <trkpt lat="44.12245" lon="1.71248">
        <ele>147.2</ele>
        <time>2023-03-05T08:01:15Z</time>
      </trkpt>
      <trkpt lat="44.12241" lon="1.71244">
        <ele>147.6</ele>
        <time>2023-03-05T08:01:16Z</time>
      </trkpt>
      <trkpt lat="44.12236" lon="1.71241">
        <ele>147.8</ele>
        <time>2023-03-05T08:01:17Z</time>
      </trkpt>
      <trkpt lat="44.12231" lon="1.71237">
        <ele>148</ele>
        <time>2023-03-05T08:01:18Z</time>
      </trkpt>
      <trkpt lat="44.12226" lon="1.71234">
        <ele>148.2</ele>
        <time>2023-03-05T08:01:19Z</time>
      </trkpt>
      <trkpt lat="44.12221" lon="1.7123">
        <ele>148.2</ele>
        <time>2023-03-05T08:01:20Z</time>
      </trkpt>
      <trkpt lat="44.12216" lon="1.71226">
        <ele>148.4</ele>
        <time>2023-03-05T08:01:21Z</time>
      </trkpt>
      <trkpt lat="44.12212" lon="1.71222">
        <ele>148.4</ele>
        <time>2023-03-05T08:01:22Z</time>
      </trkpt>
      <trkpt lat="44.12208" lon="1.71217">
        <ele>148.8</ele>
        <time>2023-03-05T08:01:23Z</time>
      </trkpt>
      <trkpt lat="44.12204" lon="1.71211">
        <ele>148.8</ele>
        <time>2023-03-05T08:01:24Z</time>
      </trkpt>
      <trkpt lat="44.12201" lon="1.71206">
        <ele>149.2</ele>
        <time>2023-03-05T08:01:25Z</time>
      </trkpt>
      <trkpt lat="44.12197" lon="1.71201">
        <ele>149.4</ele>
        <time>2023-03-05T08:01:26Z</time>
      </trkpt>
      <trkpt lat="44.12193" lon="1.71196">
        <ele>149.6</ele>
        <time>2023-03-05T08:01:27Z</time>
      </trkpt>
      <trkpt lat="44.1219" lon="1.71191">
        <ele>149.6</ele>
        <time>2023-03-05T08:01:28Z</time>
      </trkpt>
      <trkpt lat="44.12186" lon="1.71186">
        <ele>149.8</ele>
        <time>2023-03-05T08:01:29Z</time>
      </trkpt>
      <trkpt lat="44.12182" lon="1.7118">
        <ele>149.8</ele>
        <time>2023-03-05T08:01:30Z</time>
      </trkpt>
      <trkpt lat="44.12179" lon="1.71175">
        <ele>150</ele>
        <time>2023-03-05T08:01:31Z</time>
      </trkpt>
      <trkpt lat="44.12175" lon="1.7117">
        <ele>150.2</ele>
        <time>2023-03-05T08:01:32Z</time>
      </trkpt>
      <trkpt lat="44.12172" lon="1.71165">
        <ele>150.8</ele>
        <time>2023-03-05T08:01:33Z</time>
      </trkpt>
      <trkpt lat="44.12169" lon="1.7116">
        <ele>150.8</ele>
        <time>2023-03-05T08:01:34Z</time>
      </trkpt>
      <trkpt lat="44.12166" lon="1.71155">
        <ele>151</ele>
        <time>2023-03-05T08:01:35Z</time>
      </trkpt>
      <trkpt lat="44.12163" lon="1.7115">
        <ele>151.2</ele>
        <time>2023-03-05T08:01:36Z</time>
      </trkpt>
      <trkpt lat="44.12159" lon="1.71145">
        <ele>151.4</ele>
        <time>2023-03-05T08:01:37Z</time>
      </trkpt>
      <trkpt lat="44.12156" lon="1.71141">
        <ele>151.8</ele>
        <time>2023-03-05T08:01:38Z</time>
      </trkpt>
      <trkpt lat="44.12153" lon="1.71137">
        <ele>152</ele>
        <time>2023-03-05T08:01:39Z</time>
      </trkpt>
      <trkpt lat="44.1215" lon="1.71133">
        <ele>152.2</ele>
        <time>2023-03-05T08:01:40Z</time>
      </trkpt>
      <trkpt lat="44.12147" lon="1.71129">
        <ele>152.4</ele>
        <time>2023-03-05T08:01:41Z</time>
      </trkpt>
      <trkpt lat="44.12144" lon="1.71125">
        <ele>152.6</ele>
        <time>2023-03-05T08:01:42Z</time>
      </trkpt>
      <trkpt lat="44.12141" lon="1.71121">
        <ele>152.6</ele>
        <time>2023-03-05T08:01:43Z</time>
      </trkpt>
      <trkpt lat="44.12138" lon="1.71117">
        <ele>153</ele>
        <time>2023-03-05T08:01:44Z</time>
      </trkpt>
      <trkpt lat="44.12135" lon="1.71113">
        <ele>153.2</ele>
        <time>2023-03-05T08:01:45Z</time>
      </trkpt>
      <trkpt lat="44.12131" lon="1.71109">
        <ele>153.4</ele>
        <time>2023-03-05T08:01:46Z</time>
      </trkpt>
      <trkpt lat="44.12128" lon="1.71104">
        <ele>153.8</ele>
        <time>2023-03-05T08:01:47Z</time>
      </trkpt>
      <trkpt lat="44.12125" lon="1.711">
        <ele>154.2</ele>
        <time>2023-03-05T08:01:48Z</time>
      </trkpt>
      <trkpt lat="44.12121" lon="1.71096">
        <ele>154.4</ele>
        <time>2023-03-05T08:01:49Z</time>
      </trkpt>
      <trkpt lat="44.12118" lon="1.71091">
        <ele>155</ele>
        <time>2023-03-05T08:01:50Z</time>
      </trkpt>
      <trkpt lat="44.12115" lon="1.71088">
        <ele>155.2</ele>
        <time>2023-03-05T08:01:51Z</time>
      </trkpt>
      <trkpt lat="44.12112" lon="1.71084">
        <ele>155.6</ele>
        <time>2023-03-05T08:01:52Z</time>
      </trkpt>
      <trkpt lat="44.12108" lon="1.71081">
        <ele>155.6</ele>
        <time>2023-03-05T08:01:53Z</time>
      </trkpt>
      <trkpt lat="44.12104" lon="1.71079">
        <ele>155.8</ele>
        <time>2023-03-05T08:01:54Z</time>
      </trkpt>
      <trkpt lat="44.12099" lon="1.71078">
        <ele>155.8</ele>
        <time>2023-03-05T08:01:55Z</time>
      </trkpt>
      <trkpt lat="44.12094" lon="1.71078">
        <ele>156</ele>
        <time>2023-03-05T08:01:56Z</time>
      </trkpt>
      <trkpt lat="44.12089" lon="1.71079">
        <ele>156.2</ele>
        <time>2023-03-05T08:01:57Z</time>
      </trkpt>
      <trkpt lat="44.12083" lon="1.71079">
        <ele>156.2</ele>
        <time>2023-03-05T08:01:58Z</time>
      </trkpt>
      <trkpt lat="44.12078" lon="1.71081">
        <ele>156.6</ele>
        <time>2023-03-05T08:01:59Z</time>
      </trkpt>
      <trkpt lat="44.12072" lon="1.71082">
        <ele>156.6</ele>
        <time>2023-03-05T08:02:00Z</time>
      </trkpt>
      <trkpt lat="44.12067" lon="1.71084">
        <ele>156.6</ele>
        <time>2023-03-05T08:02:01Z</time>
      </trkpt>
      <trkpt lat="44.12062" lon="1.71085">
        <ele>156.6</ele>
        <time>2023-03-05T08:02:02Z</time>
      </trkpt>
      <trkpt lat="44.12057" lon="1.71087">
        <ele>156.6</ele>
        <time>2023-03-05T08:02:03Z</time>
      </trkpt>
      <trkpt lat="44.12051" lon="1.71089">
        <ele>156.6</ele>
        <time>2023-03-05T08:02:04Z</time>
      </trkpt>
      <trkpt lat="44.12045" lon="1.71091">
        <ele>156.6</ele>
        <time>2023-03-05T08:02:05Z</time>
      </trkpt>
      <trkpt lat="44.12039" lon="1.71095">
        <ele>156.4</ele>
        <time>2023-03-05T08:02:06Z</time>
      </trkpt>
      <trkpt lat="44.12034" lon="1.71098">
        <ele>156.4</ele>
        <time>2023-03-05T08:02:07Z</time>
      </trkpt>
      <trkpt lat="44.12028" lon="1.71101">
        <ele>156.4</ele>
        <time>2023-03-05T08:02:08Z</time>
      </trkpt>
      <trkpt lat="44.12022" lon="1.71105">
        <ele>156.2</ele>
        <time>2023-03-05T08:02:09Z</time>
      </trkpt>
      <trkpt lat="44.12017" lon="1.71109">
        <ele>156</ele>
        <time>2023-03-05T08:02:10Z</time>
      </trkpt>
      <trkpt lat="44.12011" lon="1.71113">
        <ele>155.8</ele>
        <time>2023-03-05T08:02:11Z</time>
      </trkpt>
      <trkpt lat="44.12005" lon="1.71118">
        <ele>155.6</ele>
        <time>2023-03-05T08:02:12Z</time>
      </trkpt>
      <trkpt lat="44.11999" lon="1.71124">
        <ele>155</ele>
        <time>2023-03-05T08:02:13Z</time>
      </trkpt>
      <trkpt lat="44.11993" lon="1.71129">
        <ele>155</ele>
        <time>2023-03-05T08:02:14Z</time>
      </trkpt>
      <trkpt lat="44.11988" lon="1.71135">
        <ele>154.8</ele>
        <time>2023-03-05T08:02:15Z</time>
      </trkpt>
      <trkpt lat="44.11982" lon="1.71142">
        <ele>154.6</ele>
        <time>2023-03-05T08:02:16Z</time>
      </trkpt>
      <trkpt lat="44.11975" lon="1.71148">
        <ele>154.4</ele>
        <time>2023-03-05T08:02:17Z</time>
      </trkpt>
      <trkpt lat="44.11969" lon="1.71154">
        <ele>154</ele>
        <time>2023-03-05T08:02:18Z</time>
      </trkpt>
      <trkpt lat="44.11962" lon="1.7116">
        <ele>153.8</ele>
        <time>2023-03-05T08:02:19Z</time>
      </trkpt>
      <trkpt lat="44.11956" lon="1.71167">
        <ele>153.2</ele>
        <time>2023-03-05T08:02:20Z</time>
      </trkpt>
      <trkpt lat="44.1195" lon="1.71174">
        <ele>152.8</ele>
        <time>2023-03-05T08:02:21Z</time>
      </trkpt>
      <trkpt lat="44.11944" lon="1.71182">
        <ele>152.4</ele>
        <time>2023-03-05T08:02:22Z</time>
      </trkpt>
      <trkpt lat="44.11938" lon="1.71189">
        <ele>152.2</ele>
        <time>2023-03-05T08:02:23Z</time>
      </trkpt>
      <trkpt lat="44.11932" lon="1.71197">
        <ele>152</ele>
        <time>2023-03-05T08:02:24Z</time>
      </trkpt>
      <trkpt lat="44.11925" lon="1.71204">
        <ele>151.8</ele>
        <time>2023-03-05T08:02:25Z</time>
      </trkpt>
      <trkpt lat="44.1192" lon="1.71213">
        <ele>150.8</ele>
        <time>2023-03-05T08:02:26Z</time>
      </trkpt>
      <trkpt lat="44.11915" lon="1.71223">
        <ele>150.6</ele>
        <time>2023-03-05T08:02:27Z</time>
      </trkpt>
      <trkpt lat="44.11911" lon="1.71233">
        <ele>150</ele>
        <time>2023-03-05T08:02:28Z</time>
      </trkpt>
      <trkpt lat="44.11908" lon="1.71243">
        <ele>149.4</ele>
        <time>2023-03-05T08:02:29Z</time>
      </trkpt>
      <trkpt lat="44.11906" lon="1.71253">
        <ele>148.6</ele>
        <time>2023-03-05T08:02:30Z</time>
      </trkpt>
      <trkpt lat="44.11904" lon="1.71264">
        <ele>148.4</ele>
        <time>2023-03-05T08:02:31Z</time>
      </trkpt>
      <trkpt lat="44.11902" lon="1.71275">
        <ele>147.8</ele>
        <time>2023-03-05T08:02:32Z</time>
      </trkpt>
      <trkpt lat="44.11901" lon="1.71285">
        <ele>147.6</ele>
        <time>2023-03-05T08:02:33Z</time>
      </trkpt>
      <trkpt lat="44.11901" lon="1.71296">
        <ele>147.4</ele>
        <time>2023-03-05T08:02:34Z</time>
      </trkpt>
      <trkpt lat="44.11901" lon="1.71307">
        <ele>147.2</ele>
        <time>2023-03-05T08:02:35Z</time>
      </trkpt>
      <trkpt lat="44.11901" lon="1.71317">
        <ele>147</ele>
        <time>2023-03-05T08:02:36Z</time>
      </trkpt>
      <trkpt lat="44.11902" lon="1.71327">
        <ele>146.6</ele>
        <time>2023-03-05T08:02:37Z</time>
      </trkpt>
      <trkpt lat="44.11902" lon="1.71337">
        <ele>146.4</ele>
        <time>2023-03-05T08:02:38Z</time>
      </trkpt>
      <trkpt lat="44.11902" lon="1.71347">
        <ele>145.8</ele>
        <time>2023-03-05T08:02:39Z</time>
      </trkpt>
      <trkpt lat="44.11903" lon="1.71357">
        <ele>145.6</ele>
        <time>2023-03-05T08:02:40Z</time>
      </trkpt>
      <trkpt lat="44.11903" lon="1.71366">
        <ele>145.2</ele>
        <time>2023-03-05T08:02:41Z</time>
      </trkpt>
      <trkpt lat="44.11903" lon="1.71376">
        <ele>145</ele>
        <time>2023-03-05T08:02:42Z</time>
      </trkpt>
      <trkpt lat="44.11903" lon="1.71385">
        <ele>144.6</ele>
        <time>2023-03-05T08:02:43Z</time>
      </trkpt>
      <trkpt lat="44.11903" lon="1.71394">
        <ele>144.6</ele>
        <time>2023-03-05T08:02:44Z</time>
      </trkpt>
      <trkpt lat="44.11903" lon="1.71403">
        <ele>144.4</ele>
        <time>2023-03-05T08:02:45Z</time>
      </trkpt>
      <trkpt lat="44.11903" lon="1.71412">
        <ele>144.2</ele>
        <time>2023-03-05T08:02:46Z</time>
      </trkpt>
      <trkpt lat="44.11903" lon="1.7142">
        <ele>144</ele>
        <time>2023-03-05T08:02:47Z</time>
      </trkpt>
      <trkpt lat="44.11903" lon="1.71428">
        <ele>144</ele>
        <time>2023-03-05T08:02:48Z</time>
      </trkpt>
      <trkpt lat="44.11903" lon="1.71436">
        <ele>144</ele>
        <time>2023-03-05T08:02:49Z</time>
      </trkpt>
      <trkpt lat="44.11903" lon="1.71444">
        <ele>144</ele>
        <time>2023-03-05T08:02:50Z</time>
      </trkpt>
      <trkpt lat="44.11903" lon="1.71451">
        <ele>143.8</ele>
        <time>2023-03-05T08:02:51Z</time>
      </trkpt>
      <trkpt lat="44.11903" lon="1.71458">
        <ele>143.8</ele>
        <time>2023-03-05T08:02:52Z</time>
      </trkpt>
      <trkpt lat="44.11903" lon="1.71466">
        <ele>143.8</ele>
        <time>2023-03-05T08:02:53Z</time>
      </trkpt>
      <trkpt lat="44.11903" lon="1.71474">
        <ele>143.8</ele>
        <time>2023-03-05T08:02:54Z</time>
      </trkpt>
      <trkpt lat="44.11905" lon="1.71482">
        <ele>143.8</ele>
        <time>2023-03-05T08:02:55Z</time>
      </trkpt>
      <trkpt lat="44.11906" lon="1.71489">
        <ele>143.8</ele>
        <time>2023-03-05T08:02:56Z</time>
      </trkpt>
      <trkpt lat="44.11908" lon="1.71496">
        <ele>143.8</ele>
        <time>2023-03-05T08:02:57Z</time>
      </trkpt>
      <trkpt lat="44.11909" lon="1.71504">
        <ele>143.6</ele>
        <time>2023-03-05T08:02:58Z</time>
      </trkpt>
      <trkpt lat="44.11911" lon="1.71511">
        <ele>143.6</ele>
        <time>2023-03-05T08:02:59Z</time>
      </trkpt>
      <trkpt lat="44.11914" lon="1.71517">
        <ele>143.6</ele>
        <time>2023-03-05T08:03:00Z</time>
      </trkpt>
      <trkpt lat="44.11917" lon="1.71524">
        <ele>143.6</ele>
        <time>2023-03-05T08:03:01Z</time>
      </trkpt>
      <trkpt lat="44.11919" lon="1.7153">
        <ele>143.6</ele>
        <time>2023-03-05T08:03:02Z</time>
      </trkpt>
      <trkpt lat="44.11922" lon="1.71537">
        <ele>143.6</ele>
        <time>2023-03-05T08:03:03Z</time>
      </trkpt>
      <trkpt lat="44.11926" lon="1.71544">
        <ele>143.4</ele>
        <time>2023-03-05T08:03:04Z</time>
      </trkpt>
      <trkpt lat="44.11929" lon="1.7155">
        <ele>143.2</ele>
        <time>2023-03-05T08:03:05Z</time>
      </trkpt>
      <trkpt lat="44.11934" lon="1.71558">
        <ele>143</ele>
        <time>2023-03-05T08:03:06Z</time>
      </trkpt>
      <trkpt lat="44.11939" lon="1.71565">
        <ele>143</ele>
        <time>2023-03-05T08:03:07Z</time>
      </trkpt>
      <trkpt lat="44.11945" lon="1.71572">
        <ele>142.8</ele>
        <time>2023-03-05T08:03:08Z</time>
      </trkpt>
      <trkpt lat="44.11952" lon="1.71579">
        <ele>142.6</ele>
        <time>2023-03-05T08:03:09Z</time>
      </trkpt>
      <trkpt lat="44.11958" lon="1.71587">
        <ele>142.4</ele>
        <time>2023-03-05T08:03:10Z</time>
      </trkpt>
      <trkpt lat="44.11965" lon="1.71595">
        <ele>142.2</ele>
        <time>2023-03-05T08:03:11Z</time>
      </trkpt>
      <trkpt lat="44.11972" lon="1.71604">
        <ele>141.8</ele>
        <time>2023-03-05T08:03:12Z</time>
      </trkpt>
      <trkpt lat="44.1198" lon="1.71612">
        <ele>141.6</ele>
        <time>2023-03-05T08:03:13Z</time>
      </trkpt>
      <trkpt lat="44.11987" lon="1.71621">
        <ele>140.8</ele>
        <time>2023-03-05T08:03:14Z</time>
      </trkpt>
      <trkpt lat="44.11993" lon="1.71631">
        <ele>140.2</ele>
        <time>2023-03-05T08:03:15Z</time>
      </trkpt>
      <trkpt lat="44.11998" lon="1.7164">
        <ele>139.4</ele>
        <time>2023-03-05T08:03:16Z</time>
      </trkpt>
      <trkpt lat="44.12003" lon="1.71649">
        <ele>138.4</ele>
        <time>2023-03-05T08:03:17Z</time>
      </trkpt>
      <trkpt lat="44.12006" lon="1.71658">
        <ele>138</ele>
        <time>2023-03-05T08:03:18Z</time>
      </trkpt>
      <trkpt lat="44.12007" lon="1.71667">
        <ele>137.4</ele>
        <time>2023-03-05T08:03:19Z</time>
      </trkpt>
      <trkpt lat="44.12007" lon="1.71675">
        <ele>137</ele>
        <time>2023-03-05T08:03:20Z</time>
      </trkpt>
      <trkpt lat="44.12005" lon="1.71683">
        <ele>136.6</ele>
        <time>2023-03-05T08:03:21Z</time>
      </trkpt>
      <trkpt lat="44.12001" lon="1.7169">
        <ele>136.2</ele>
        <time>2023-03-05T08:03:22Z</time>
      </trkpt>
      <trkpt lat="44.11997" lon="1.71696">
        <ele>135</ele>
        <time>2023-03-05T08:03:23Z</time>
      </trkpt>
      <trkpt lat="44.11992" lon="1.71704">
        <ele>134.6</ele>
        <time>2023-03-05T08:03:24Z</time>
      </trkpt>
      <trkpt lat="44.11988" lon="1.71711">
        <ele>134</ele>
        <time>2023-03-05T08:03:25Z</time>
      </trkpt>
      <trkpt lat="44.11983" lon="1.71717">
        <ele>134</ele>
        <time>2023-03-05T08:03:26Z</time>
      </trkpt>
      <trkpt lat="44.11978" lon="1.71725">
        <ele>133.6</ele>
        <time>2023-03-05T08:03:27Z</time>
      </trkpt>
      <trkpt lat="44.11973" lon="1.71732">
        <ele>133.6</ele>
        <time>2023-03-05T08:03:28Z</time>
      </trkpt>
      <trkpt lat="44.11968" lon="1.71739">
        <ele>133.4</ele>
        <time>2023-03-05T08:03:29Z</time>
      </trkpt>
      <trkpt lat="44.11964" lon="1.71747">
        <ele>133.2</ele>
        <time>2023-03-05T08:03:30Z</time>
      </trkpt>
      <trkpt lat="44.11959" lon="1.71755">
        <ele>133</ele>
        <time>2023-03-05T08:03:31Z</time>
      </trkpt>
      <trkpt lat="44.11955" lon="1.71763">
        <ele>133</ele>
        <time>2023-03-05T08:03:32Z</time>
      </trkpt>
      <trkpt lat="44.11951" lon="1.7177">
        <ele>132.8</ele>
        <time>2023-03-05T08:03:33Z</time>
      </trkpt>
      <trkpt lat="44.11946" lon="1.71778">
        <ele>132.8</ele>
        <time>2023-03-05T08:03:34Z</time>
      </trkpt>
      <trkpt lat="44.11942" lon="1.71785">
        <ele>132.6</ele>
        <time>2023-03-05T08:03:35Z</time>
      </trkpt>
      <trkpt lat="44.11936" lon="1.71794">
        <ele>132.4</ele>
        <time>2023-03-05T08:03:36Z</time>
      </trkpt>
      <trkpt lat="44.11932" lon="1.71802">
        <ele>132.4</ele>
        <time>2023-03-05T08:03:37Z</time>
      </trkpt>
      <trkpt lat="44.11927" lon="1.71809">
        <ele>132.2</ele>
        <time>2023-03-05T08:03:38Z</time>
      </trkpt>
      <trkpt lat="44.11923" lon="1.71816">
        <ele>132.2</ele>
        <time>2023-03-05T08:03:39Z</time>
      </trkpt>
      <trkpt lat="44.11919" lon="1.71823">
        <ele>132</ele>
        <time>2023-03-05T08:03:40Z</time>
      </trkpt>
      <trkpt lat="44.11912" lon="1.71831">
        <ele>131.8</ele>
        <time>2023-03-05T08:03:41Z</time>
      </trkpt>
      <trkpt lat="44.11907" lon="1.71838">
        <ele>131.8</ele>
        <time>2023-03-05T08:03:42Z</time>
      </trkpt>
      <trkpt lat="44.11901" lon="1.71844">
        <ele>131.6</ele>
        <time>2023-03-05T08:03:43Z</time>
      </trkpt>
      <trkpt lat="44.11896" lon="1.71849">
        <ele>131.4</ele>
        <time>2023-03-05T08:03:44Z</time>
      </trkpt>
      <trkpt lat="44.1189" lon="1.71854">
        <ele>131.4</ele>
        <time>2023-03-05T08:03:45Z</time>
      </trkpt>
      <trkpt lat="44.11882" lon="1.71859">
        <ele>131.2</ele>
        <time>2023-03-05T08:03:46Z</time>
      </trkpt>
      <trkpt lat="44.11876" lon="1.71863">
        <ele>131.2</ele>
        <time>2023-03-05T08:03:47Z</time>
      </trkpt>
      <trkpt lat="44.1187" lon="1.71866">
        <ele>131</ele>
        <time>2023-03-05T08:03:48Z</time>
      </trkpt>
      <trkpt lat="44.11863" lon="1.71868">
        <ele>130.8</ele>
        <time>2023-03-05T08:03:49Z</time>
      </trkpt>
      <trkpt lat="44.11856" lon="1.71871">
        <ele>130.8</ele>
        <time>2023-03-05T08:03:50Z</time>
      </trkpt>
      <trkpt lat="44.11848" lon="1.71873">
        <ele>130.8</ele>
        <time>2023-03-05T08:03:51Z</time>
      </trkpt>
      <trkpt lat="44.11842" lon="1.71874">
        <ele>130.4</ele>
        <time>2023-03-05T08:03:52Z</time>
      </trkpt>
      <trkpt lat="44.11835" lon="1.71876">
        <ele>130.2</ele>
        <time>2023-03-05T08:03:53Z</time>
      </trkpt>
      <trkpt lat="44.11829" lon="1.71878">
        <ele>130</ele>
        <time>2023-03-05T08:03:54Z</time>
      </trkpt>
      <trkpt lat="44.11822" lon="1.71879">
        <ele>130</ele>
        <time>2023-03-05T08:03:55Z</time>
      </trkpt>
      <trkpt lat="44.11814" lon="1.71881">
        <ele>130</ele>
        <time>2023-03-05T08:03:56Z</time>
      </trkpt>
      <trkpt lat="44.11808" lon="1.71883">
        <ele>130</ele>
        <time>2023-03-05T08:03:57Z</time>
      </trkpt>
      <trkpt lat="44.11803" lon="1.71884">
        <ele>129.8</ele>
        <time>2023-03-05T08:03:58Z</time>
      </trkpt>
      <trkpt lat="44.11796" lon="1.71886">
        <ele>129.8</ele>
        <time>2023-03-05T08:03:59Z</time>
      </trkpt>
      <trkpt lat="44.11789" lon="1.71888">
        <ele>129.8</ele>
        <time>2023-03-05T08:04:00Z</time>
      </trkpt>
      <trkpt lat="44.11783" lon="1.71889">
        <ele>129.8</ele>
        <time>2023-03-05T08:04:01Z</time>
      </trkpt>
      <trkpt lat="44.11777" lon="1.7189">
        <ele>129.6</ele>
        <time>2023-03-05T08:04:02Z</time>
      </trkpt>
      <trkpt lat="44.11772" lon="1.71891">
        <ele>129.6</ele>
        <time>2023-03-05T08:04:03Z</time>
      </trkpt>
      <trkpt lat="44.11766" lon="1.71893">
        <ele>129.6</ele>
        <time>2023-03-05T08:04:04Z</time>
      </trkpt>
      <trkpt lat="44.11759" lon="1.71895">
        <ele>129.6</ele>
        <time>2023-03-05T08:04:05Z</time>
      </trkpt>
      <trkpt lat="44.11753" lon="1.71897">
        <ele>129.6</ele>
        <time>2023-03-05T08:04:06Z</time>
      </trkpt>
      <trkpt lat="44.11747" lon="1.71898">
        <ele>129.6</ele>
        <time>2023-03-05T08:04:07Z</time>
      </trkpt>
      <trkpt lat="44.11742" lon="1.719">
        <ele>129.6</ele>
        <time>2023-03-05T08:04:08Z</time>
      </trkpt>
      <trkpt lat="44.11737" lon="1.71902">
        <ele>129.6</ele>
        <time>2023-03-05T08:04:09Z</time>
      </trkpt>
      <trkpt lat="44.11731" lon="1.71905">
        <ele>129.6</ele>
        <time>2023-03-05T08:04:10Z</time>
      </trkpt>
      <trkpt lat="44.11725" lon="1.71909">
        <ele>129.6</ele>
        <time>2023-03-05T08:04:11Z</time>
      </trkpt>
      <trkpt lat="44.1172" lon="1.71913">
        <ele>129.6</ele>
        <time>2023-03-05T08:04:12Z</time>
      </trkpt>
      <trkpt lat="44.11717" lon="1.71916">
        <ele>129.6</ele>
        <time>2023-03-05T08:04:13Z</time>
      </trkpt>
      <trkpt lat="44.11712" lon="1.71921">
        <ele>129.8</ele>
        <time>2023-03-05T08:04:14Z</time>
      </trkpt>
      <trkpt lat="44.11709" lon="1.71927">
        <ele>129.8</ele>
        <time>2023-03-05T08:04:15Z</time>
      </trkpt>
      <trkpt lat="44.11706" lon="1.71935">
        <ele>129.8</ele>
        <time>2023-03-05T08:04:16Z</time>
      </trkpt>
      <trkpt lat="44.11704" lon="1.71943">
        <ele>130</ele>
        <time>2023-03-05T08:04:17Z</time>
      </trkpt>
      <trkpt lat="44.11704" lon="1.7195">
        <ele>130.2</ele>
        <time>2023-03-05T08:04:18Z</time>
      </trkpt>
      <trkpt lat="44.11703" lon="1.7196">
        <ele>130.2</ele>
        <time>2023-03-05T08:04:19Z</time>
      </trkpt>
      <trkpt lat="44.11704" lon="1.71969">
        <ele>130.2</ele>
        <time>2023-03-05T08:04:20Z</time>
      </trkpt>
      <trkpt lat="44.11704" lon="1.71978">
        <ele>130.2</ele>
        <time>2023-03-05T08:04:21Z</time>
      </trkpt>
      <trkpt lat="44.11704" lon="1.71985">
        <ele>130.2</ele>
        <time>2023-03-05T08:04:22Z</time>
      </trkpt>
      <trkpt lat="44.11705" lon="1.71995">
        <ele>130.2</ele>
        <time>2023-03-05T08:04:23Z</time>
      </trkpt>
      <trkpt lat="44.11705" lon="1.72004">
        <ele>130.2</ele>
        <time>2023-03-05T08:04:24Z</time>
      </trkpt>
      <trkpt lat="44.11706" lon="1.72016">
        <ele>130</ele>
        <time>2023-03-05T08:04:25Z</time>
      </trkpt>
      <trkpt lat="44.11706" lon="1.72025">
        <ele>129.8</ele>
        <time>2023-03-05T08:04:26Z</time>
      </trkpt>
      <trkpt lat="44.11707" lon="1.72033">
        <ele>129.6</ele>
        <time>2023-03-05T08:04:27Z</time>
      </trkpt>
      <trkpt lat="44.11707" lon="1.72044">
        <ele>129.4</ele>
        <time>2023-03-05T08:04:28Z</time>
      </trkpt>
      <trkpt lat="44.11708" lon="1.72056">
        <ele>129.2</ele>
        <time>2023-03-05T08:04:29Z</time>
      </trkpt>
      <trkpt lat="44.11708" lon="1.72066">
        <ele>129.2</ele>
        <time>2023-03-05T08:04:30Z</time>
      </trkpt>
      <trkpt lat="44.11708" lon="1.72077">
        <ele>128.8</ele>
        <time>2023-03-05T08:04:31Z</time>
      </trkpt>
      <trkpt lat="44.11709" lon="1.72085">
        <ele>128.6</ele>
        <time>2023-03-05T08:04:32Z</time>
      </trkpt>
      <trkpt lat="44.11709" lon="1.72096">
        <ele>128.4</ele>
        <time>2023-03-05T08:04:33Z</time>
      </trkpt>
      <trkpt lat="44.1171" lon="1.72108">
        <ele>128.2</ele>
        <time>2023-03-05T08:04:34Z</time>
      </trkpt>
      <trkpt lat="44.11711" lon="1.72119">
        <ele>128</ele>
        <time>2023-03-05T08:04:35Z</time>
      </trkpt>
      <trkpt lat="44.11711" lon="1.72128">
        <ele>127.8</ele>
        <time>2023-03-05T08:04:36Z</time>
      </trkpt>
      <trkpt lat="44.11712" lon="1.72138">
        <ele>127.2</ele>
        <time>2023-03-05T08:04:37Z</time>
      </trkpt>
      <trkpt lat="44.11712" lon="1.72151">
        <ele>127.2</ele>
        <time>2023-03-05T08:04:38Z</time>
      </trkpt>
      <trkpt lat="44.11713" lon="1.72161">
        <ele>126.6</ele>
        <time>2023-03-05T08:04:39Z</time>
      </trkpt>
      <trkpt lat="44.11713" lon="1.72171">
        <ele>126.4</ele>
        <time>2023-03-05T08:04:40Z</time>
      </trkpt>
      <trkpt lat="44.11713" lon="1.72179">
        <ele>126.2</ele>
        <time>2023-03-05T08:04:41Z</time>
      </trkpt>
      <trkpt lat="44.11714" lon="1.72188">
        <ele>126</ele>
        <time>2023-03-05T08:04:42Z</time>
      </trkpt>
      <trkpt lat="44.11714" lon="1.72199">
        <ele>125.8</ele>
        <time>2023-03-05T08:04:43Z</time>
      </trkpt>
      <trkpt lat="44.11715" lon="1.72206">
        <ele>125.8</ele>
        <time>2023-03-05T08:04:44Z</time>
      </trkpt>
      <trkpt lat="44.11715" lon="1.72214">
        <ele>125.8</ele>
        <time>2023-03-05T08:04:45Z</time>
      </trkpt>
      <trkpt lat="44.11716" lon="1.72223">
        <ele>125.6</ele>
        <time>2023-03-05T08:04:46Z</time>
      </trkpt>
      <trkpt lat="44.11716" lon="1.72231">
        <ele>125.8</ele>
        <time>2023-03-05T08:04:47Z</time>
      </trkpt>
      <trkpt lat="44.11717" lon="1.72239">
        <ele>125.8</ele>
        <time>2023-03-05T08:04:48Z</time>
      </trkpt>
      <trkpt lat="44.11717" lon="1.72248">
        <ele>125.8</ele>
        <time>2023-03-05T08:04:49Z</time>
      </trkpt>
      <trkpt lat="44.11717" lon="1.72256">
        <ele>125.8</ele>
        <time>2023-03-05T08:04:50Z</time>
      </trkpt>
      <trkpt lat="44.11718" lon="1.72264">
        <ele>126</ele>
        <time>2023-03-05T08:04:51Z</time>
      </trkpt>
      <trkpt lat="44.11718" lon="1.72272">
        <ele>125.8</ele>
        <time>2023-03-05T08:04:52Z</time>
      </trkpt>
      <trkpt lat="44.11719" lon="1.7228">
        <ele>125.8</ele>
        <time>2023-03-05T08:04:53Z</time>
      </trkpt>
      <trkpt lat="44.11719" lon="1.7229">
        <ele>125.8</ele>
        <time>2023-03-05T08:04:54Z</time>
      </trkpt>
      <trkpt lat="44.1172" lon="1.72299">
        <ele>125.8</ele>
        <time>2023-03-05T08:04:55Z</time>
      </trkpt>
      <trkpt lat="44.1172" lon="1.72307">
        <ele>125.8</ele>
        <time>2023-03-05T08:04:56Z</time>
      </trkpt>
      <trkpt lat="44.1172" lon="1.72314">
        <ele>125.8</ele>
        <time>2023-03-05T08:04:57Z</time>
      </trkpt>
      <trkpt lat="44.11721" lon="1.72325">
        <ele>125.8</ele>
        <time>2023-03-05T08:04:58Z</time>
      </trkpt>
      <trkpt lat="44.11721" lon="1.72334">
        <ele>125.8</ele>
        <time>2023-03-05T08:04:59Z</time>
      </trkpt>
      <trkpt lat="44.11721" lon="1.72343">
        <ele>125.6</ele>
        <time>2023-03-05T08:05:00Z</time>
      </trkpt>
      <trkpt lat="44.11721" lon="1.7235">
        <ele>125.6</ele>
        <time>2023-03-05T08:05:01Z</time>
      </trkpt>
      <trkpt lat="44.11722" lon="1.7236">
        <ele>125.6</ele>
        <time>2023-03-05T08:05:02Z</time>
      </trkpt>
      <trkpt lat="44.11722" lon="1.72368">
        <ele>125.6</ele>
        <time>2023-03-05T08:05:03Z</time>
      </trkpt>
      <trkpt lat="44.11723" lon="1.72375">
        <ele>125.6</ele>
        <time>2023-03-05T08:05:04Z</time>
      </trkpt>
      <trkpt lat="44.11725" lon="1.72379">
        <ele>125.6</ele>
        <time>2023-03-05T08:05:05Z</time>
      </trkpt>
      <trkpt lat="44.11727" lon="1.72381">
        <ele>125.4</ele>
        <time>2023-03-05T08:05:06Z</time>
      </trkpt>
      <trkpt lat="44.11728" lon="1.72379">
        <ele>125.4</ele>
        <time>2023-03-05T08:05:07Z</time>
      </trkpt>
      <trkpt lat="44.11728" lon="1.72374">
        <ele>125.2</ele>
        <time>2023-03-05T08:05:08Z</time>
      </trkpt>
      <trkpt lat="44.11727" lon="1.72366">
        <ele>125.2</ele>
        <time>2023-03-05T08:05:09Z</time>
      </trkpt>
      <trkpt lat="44.11727" lon="1.72358">
        <ele>124.8</ele>
        <time>2023-03-05T08:05:10Z</time>
      </trkpt>
      <trkpt lat="44.11727" lon="1.72349">
        <ele>124.8</ele>
        <time>2023-03-05T08:05:11Z</time>
      </trkpt>
      <trkpt lat="44.11729" lon="1.72341">
        <ele>124.4</ele>
        <time>2023-03-05T08:05:12Z</time>
      </trkpt>
      <trkpt lat="44.11733" lon="1.72333">
        <ele>124.2</ele>
        <time>2023-03-05T08:05:13Z</time>
      </trkpt>
      <trkpt lat="44.11737" lon="1.72326">
        <ele>123.8</ele>
        <time>2023-03-05T08:05:14Z</time>
      </trkpt>
      <trkpt lat="44.11742" lon="1.72319">
        <ele>123.6</ele>
        <time>2023-03-05T08:05:15Z</time>
      </trkpt>
      <trkpt lat="44.11748" lon="1.72314">
        <ele>123.2</ele>
        <time>2023-03-05T08:05:16Z</time>
      </trkpt>
      <trkpt lat="44.11754" lon="1.72308">
        <ele>122.6</ele>
        <time>2023-03-05T08:05:17Z</time>
      </trkpt>
      <trkpt lat="44.11762" lon="1.72302">
        <ele>122.2</ele>
        <time>2023-03-05T08:05:18Z</time>
      </trkpt>
      <trkpt lat="44.11768" lon="1.72297">
        <ele>121.4</ele>
        <time>2023-03-05T08:05:19Z</time>
      </trkpt>
      <trkpt lat="44.11775" lon="1.72293">
        <ele>121.2</ele>
        <time>2023-03-05T08:05:20Z</time>
      </trkpt>
      <trkpt lat="44.11781" lon="1.72289">
        <ele>120.6</ele>
        <time>2023-03-05T08:05:21Z</time>
      </trkpt>
      <trkpt lat="44.11788" lon="1.72285">
        <ele>120.6</ele>
        <time>2023-03-05T08:05:22Z</time>
      </trkpt>
      <trkpt lat="44.11795" lon="1.72282">
        <ele>120.4</ele>
        <time>2023-03-05T08:05:23Z</time>
      </trkpt>
      <trkpt lat="44.11801" lon="1.7228">
        <ele>120.2</ele>
        <time>2023-03-05T08:05:24Z</time>
      </trkpt>
      <trkpt lat="44.11807" lon="1.72277">
        <ele>119.8</ele>
        <time>2023-03-05T08:05:25Z</time>
      </trkpt>
      <trkpt lat="44.11812" lon="1.72274">
        <ele>119.8</ele>
        <time>2023-03-05T08:05:26Z</time>
      </trkpt>
      <trkpt lat="44.1182" lon="1.72271">
        <ele>119.4</ele>
        <time>2023-03-05T08:05:27Z</time>
      </trkpt>
      <trkpt lat="44.11826" lon="1.72269">
        <ele>119.2</ele>
        <time>2023-03-05T08:05:28Z</time>
      </trkpt>
      <trkpt lat="44.11833" lon="1.72268">
        <ele>119</ele>
        <time>2023-03-05T08:05:29Z</time>
      </trkpt>
      <trkpt lat="44.1184" lon="1.72266">
        <ele>119</ele>
        <time>2023-03-05T08:05:30Z</time>
      </trkpt>
      <trkpt lat="44.11847" lon="1.72265">
        <ele>118.8</ele>
        <time>2023-03-05T08:05:31Z</time>
      </trkpt>
      <trkpt lat="44.11853" lon="1.72263">
        <ele>118.8</ele>
        <time>2023-03-05T08:05:32Z</time>
      </trkpt>
      <trkpt lat="44.1186" lon="1.7226">
        <ele>118.6</ele>
        <time>2023-03-05T08:05:33Z</time>
      </trkpt>
      <trkpt lat="44.11866" lon="1.72258">
        <ele>118.6</ele>
        <time>2023-03-05T08:05:34Z</time>
      </trkpt>
      <trkpt lat="44.11872" lon="1.72256">
        <ele>118.4</ele>
        <time>2023-03-05T08:05:35Z</time>
      </trkpt>
      <trkpt lat="44.11878" lon="1.72253">
        <ele>118.2</ele>
        <time>2023-03-05T08:05:36Z</time>
      </trkpt>
      <trkpt lat="44.11884" lon="1.7225">
        <ele>118.2</ele>
        <time>2023-03-05T08:05:37Z</time>
      </trkpt>
      <trkpt lat="44.1189" lon="1.72248">
        <ele>118.2</ele>
        <time>2023-03-05T08:05:38Z</time>
      </trkpt>
      <trkpt lat="44.11895" lon="1.72245">
        <ele>118.2</ele>
        <time>2023-03-05T08:05:39Z</time>
      </trkpt>
      <trkpt lat="44.11901" lon="1.72241">
        <ele>118</ele>
        <time>2023-03-05T08:05:40Z</time>
      </trkpt>
      <trkpt lat="44.11907" lon="1.72239">
        <ele>117.8</ele>
        <time>2023-03-05T08:05:41Z</time>
      </trkpt>
      <trkpt lat="44.11913" lon="1.72238">
        <ele>117.6</ele>
        <time>2023-03-05T08:05:42Z</time>
      </trkpt>
      <trkpt lat="44.1192" lon="1.72236">
        <ele>117.6</ele>
        <time>2023-03-05T08:05:43Z</time>
      </trkpt>
      <trkpt lat="44.11925" lon="1.72235">
        <ele>117.6</ele>
        <time>2023-03-05T08:05:44Z</time>
      </trkpt>
      <trkpt lat="44.11931" lon="1.72233">
        <ele>117.6</ele>
        <time>2023-03-05T08:05:45Z</time>
      </trkpt>
      <trkpt lat="44.11936" lon="1.72231">
        <ele>117.6</ele>
        <time>2023-03-05T08:05:46Z</time>
      </trkpt>
      <trkpt lat="44.11942" lon="1.72229">
        <ele>117.6</ele>
        <time>2023-03-05T08:05:47Z</time>
      </trkpt>
      <trkpt lat="44.11948" lon="1.72227">
        <ele>117.4</ele>
        <time>2023-03-05T08:05:48Z</time>
      </trkpt>
      <trkpt lat="44.11952" lon="1.72226">
        <ele>117.4</ele>
        <time>2023-03-05T08:05:49Z</time>
      </trkpt>
      <trkpt lat="44.11959" lon="1.72224">
        <ele>117.6</ele>
        <time>2023-03-05T08:05:50Z</time>
      </trkpt>
      <trkpt lat="44.11964" lon="1.72223">
        <ele>117.4</ele>
        <time>2023-03-05T08:05:51Z</time>
      </trkpt>
      <trkpt lat="44.11969" lon="1.72221">
        <ele>117.4</ele>
        <time>2023-03-05T08:05:52Z</time>
      </trkpt>
      <trkpt lat="44.11975" lon="1.7222">
        <ele>117.4</ele>
        <time>2023-03-05T08:05:53Z</time>
      </trkpt>
      <trkpt lat="44.1198" lon="1.72219">
        <ele>117.4</ele>
        <time>2023-03-05T08:05:54Z</time>
      </trkpt>
      <trkpt lat="44.11987" lon="1.72219">
        <ele>117.4</ele>
        <time>2023-03-05T08:05:55Z</time>
      </trkpt>
      <trkpt lat="44.11993" lon="1.72218">
        <ele>117.4</ele>
        <time>2023-03-05T08:05:56Z</time>
      </trkpt>
      <trkpt lat="44.11998" lon="1.72216">
        <ele>117.4</ele>
        <time>2023-03-05T08:05:57Z</time>
      </trkpt>
      <trkpt lat="44.12004" lon="1.72215">
        <ele>117.4</ele>
        <time>2023-03-05T08:05:58Z</time>
      </trkpt>
      <trkpt lat="44.12009" lon="1.72214">
        <ele>117.6</ele>
        <time>2023-03-05T08:05:59Z</time>
      </trkpt>
      <trkpt lat="44.12015" lon="1.72213">
        <ele>117.6</ele>
        <time>2023-03-05T08:06:00Z</time>
      </trkpt>
      <trkpt lat="44.12021" lon="1.72213">
        <ele>117.4</ele>
        <time>2023-03-05T08:06:01Z</time>
      </trkpt>
      <trkpt lat="44.12027" lon="1.72214">
        <ele>117.4</ele>
        <time>2023-03-05T08:06:02Z</time>
      </trkpt>
      <trkpt lat="44.12033" lon="1.72214">
        <ele>117.4</ele>
        <time>2023-03-05T08:06:03Z</time>
      </trkpt>
      <trkpt lat="44.12039" lon="1.72213">
        <ele>117.4</ele>
        <time>2023-03-05T08:06:04Z</time>
      </trkpt>
      <trkpt lat="44.12044" lon="1.72212">
        <ele>117.4</ele>
        <time>2023-03-05T08:06:05Z</time>
      </trkpt>
      <trkpt lat="44.12051" lon="1.72211">
        <ele>117.4</ele>
        <time>2023-03-05T08:06:06Z</time>
      </trkpt>
      <trkpt lat="44.12055" lon="1.72211">
        <ele>117.4</ele>
        <time>2023-03-05T08:06:07Z</time>
      </trkpt>
      <trkpt lat="44.12061" lon="1.72208">
        <ele>117.4</ele>
        <time>2023-03-05T08:06:08Z</time>
      </trkpt>
      <trkpt lat="44.12067" lon="1.72206">
        <ele>117.2</ele>
        <time>2023-03-05T08:06:09Z</time>
      </trkpt>
      <trkpt lat="44.12072" lon="1.72205">
        <ele>117.2</ele>
        <time>2023-03-05T08:06:10Z</time>
      </trkpt>
      <trkpt lat="44.12077" lon="1.72204">
        <ele>117.2</ele>
        <time>2023-03-05T08:06:11Z</time>
      </trkpt>
      <trkpt lat="44.12081" lon="1.72204">
        <ele>117.2</ele>
        <time>2023-03-05T08:06:12Z</time>
      </trkpt>
      <trkpt lat="44.12085" lon="1.72203">
        <ele>117.4</ele>
        <time>2023-03-05T08:06:13Z</time>
      </trkpt>
      <trkpt lat="44.1209" lon="1.72203">
        <ele>117.4</ele>
        <time>2023-03-05T08:06:14Z</time>
      </trkpt>
      <trkpt lat="44.12094" lon="1.72202">
        <ele>117.4</ele>
        <time>2023-03-05T08:06:15Z</time>
      </trkpt>
      <trkpt lat="44.121" lon="1.72201">
        <ele>117.4</ele>
        <time>2023-03-05T08:06:16Z</time>
      </trkpt>
      <trkpt lat="44.12103" lon="1.722">
        <ele>117.4</ele>
        <time>2023-03-05T08:06:17Z</time>
      </trkpt>
      <trkpt lat="44.12107" lon="1.72198">
        <ele>117.8</ele>
        <time>2023-03-05T08:06:18Z</time>
      </trkpt>
      <trkpt lat="44.12111" lon="1.72197">
        <ele>117.8</ele>
        <time>2023-03-05T08:06:19Z</time>
      </trkpt>
      <trkpt lat="44.12116" lon="1.72195">
        <ele>118.2</ele>
        <time>2023-03-05T08:06:20Z</time>
      </trkpt>
      <trkpt lat="44.1212" lon="1.72195">
        <ele>118.4</ele>
        <time>2023-03-05T08:06:21Z</time>
      </trkpt>
      <trkpt lat="44.12124" lon="1.72194">
        <ele>118.6</ele>
        <time>2023-03-05T08:06:22Z</time>
      </trkpt>
      <trkpt lat="44.12128" lon="1.72193">
        <ele>118.8</ele>
        <time>2023-03-05T08:06:23Z</time>
      </trkpt>
      <trkpt lat="44.12132" lon="1.72192">
        <ele>119</ele>
        <time>2023-03-05T08:06:24Z</time>
      </trkpt>
      <trkpt lat="44.12137" lon="1.72191">
        <ele>119</ele>
        <time>2023-03-05T08:06:25Z</time>
      </trkpt>
      <trkpt lat="44.12142" lon="1.72189">
        <ele>119.2</ele>
        <time>2023-03-05T08:06:26Z</time>
      </trkpt>
      <trkpt lat="44.12145" lon="1.72188">
        <ele>119.2</ele>
        <time>2023-03-05T08:06:27Z</time>
      </trkpt>
      <trkpt lat="44.1215" lon="1.72187">
        <ele>119.4</ele>
        <time>2023-03-05T08:06:28Z</time>
      </trkpt>
      <trkpt lat="44.12154" lon="1.72185">
        <ele>119.4</ele>
        <time>2023-03-05T08:06:29Z</time>
      </trkpt>
      <trkpt lat="44.12158" lon="1.72184">
        <ele>119.4</ele>
        <time>2023-03-05T08:06:30Z</time>
      </trkpt>
      <trkpt lat="44.12163" lon="1.72181">
        <ele>119.6</ele>
        <time>2023-03-05T08:06:31Z</time>
      </trkpt>
      <trkpt lat="44.12166" lon="1.7218">
        <ele>119.8</ele>
        <time>2023-03-05T08:06:32Z</time>
      </trkpt>
      <trkpt lat="44.12169" lon="1.72178">
        <ele>119.8</ele>
        <time>2023-03-05T08:06:33Z</time>
      </trkpt>
      <trkpt lat="44.12173" lon="1.72176">
        <ele>120</ele>
        <time>2023-03-05T08:06:34Z</time>
      </trkpt>
      <trkpt lat="44.12176" lon="1.72175">
        <ele>120.2</ele>
        <time>2023-03-05T08:06:35Z</time>
      </trkpt>
      <trkpt lat="44.12178" lon="1.72174">
        <ele>120.2</ele>
        <time>2023-03-05T08:06:36Z</time>
      </trkpt>
      <trkpt lat="44.1218" lon="1.72175">
        <ele>120.4</ele>
        <time>2023-03-05T08:06:37Z</time>
      </trkpt>
      <trkpt lat="44.12182" lon="1.72177">
        <ele>120.4</ele>
        <time>2023-03-05T08:06:38Z</time>
      </trkpt>
      <trkpt lat="44.12184" lon="1.72179">
        <ele>120.4</ele>
        <time>2023-03-05T08:06:39Z</time>
      </trkpt>
      <trkpt lat="44.12186" lon="1.72182">
        <ele>120.6</ele>
        <time>2023-03-05T08:06:40Z</time>
      </trkpt>
      <trkpt lat="44.12187" lon="1.72184">
        <ele>120.8</ele>
        <time>2023-03-05T08:06:41Z</time>
      </trkpt>
      <trkpt lat="44.12188" lon="1.72185">
        <ele>120.8</ele>
        <time>2023-03-05T08:06:42Z</time>
      </trkpt>
      <trkpt lat="44.12187" lon="1.72185">
        <ele>120.8</ele>
        <time>2023-03-05T08:06:43Z</time>
      </trkpt>
      <trkpt lat="44.12188" lon="1.72186">
        <ele>120.8</ele>
        <time>2023-03-05T08:06:44Z</time>
      </trkpt>
      <trkpt lat="44.12188" lon="1.72187">
        <ele>120.6</ele>
        <time>2023-03-05T08:06:45Z</time>
      </trkpt>
      <trkpt lat="44.12188" lon="1.72187">
        <ele>120.6</ele>
        <time>2023-03-05T08:06:46Z</time>
      </trkpt>
      <trkpt lat="44.12182" lon="1.72222">
        <ele>124.8</ele>
        <time>2023-03-05T08:12:33Z</time>
      </trkpt>
      <trkpt lat="44.12181" lon="1.72225">
        <ele>125</ele>
        <time>2023-03-05T08:12:34Z</time>
      </trkpt>
      <trkpt lat="44.12181" lon="1.72229">
        <ele>125</ele>
        <time>2023-03-05T08:12:35Z</time>
      </trkpt>
      <trkpt lat="44.1218" lon="1.72232">
        <ele>125</ele>
        <time>2023-03-05T08:12:36Z</time>
      </trkpt>
      <trkpt lat="44.1218" lon="1.72235">
        <ele>125.2</ele>
        <time>2023-03-05T08:12:37Z</time>
      </trkpt>
      <trkpt lat="44.12179" lon="1.72238">
        <ele>125.4</ele>
        <time>2023-03-05T08:12:38Z</time>
      </trkpt>
      <trkpt lat="44.12179" lon="1.72241">
        <ele>125.6</ele>
        <time>2023-03-05T08:12:39Z</time>
      </trkpt>
      <trkpt lat="44.12179" lon="1.72244">
        <ele>125.8</ele>
        <time>2023-03-05T08:12:40Z</time>
      </trkpt>
      <trkpt lat="44.12178" lon="1.72247">
        <ele>126</ele>
        <time>2023-03-05T08:12:41Z</time>
      </trkpt>
      <trkpt lat="44.12178" lon="1.7225">
        <ele>126</ele>
        <time>2023-03-05T08:12:42Z</time>
      </trkpt>
      <trkpt lat="44.12178" lon="1.72253">
        <ele>126.4</ele>
        <time>2023-03-05T08:12:43Z</time>
      </trkpt>
      <trkpt lat="44.12179" lon="1.72256">
        <ele>126.6</ele>
        <time>2023-03-05T08:12:44Z</time>
      </trkpt>
      <trkpt lat="44.12179" lon="1.72259">
        <ele>127</ele>
        <time>2023-03-05T08:12:45Z</time>
      </trkpt>
      <trkpt lat="44.1218" lon="1.72262">
        <ele>127.2</ele>
        <time>2023-03-05T08:12:46Z</time>
      </trkpt>
      <trkpt lat="44.1218" lon="1.72264">
        <ele>128</ele>
        <time>2023-03-05T08:12:47Z</time>
      </trkpt>
      <trkpt lat="44.12181" lon="1.72267">
        <ele>128.2</ele>
        <time>2023-03-05T08:12:48Z</time>
      </trkpt>
      <trkpt lat="44.12183" lon="1.72269">
        <ele>128.6</ele>
        <time>2023-03-05T08:12:49Z</time>
      </trkpt>
      <trkpt lat="44.12185" lon="1.72271">
        <ele>128.8</ele>
        <time>2023-03-05T08:12:50Z</time>
      </trkpt>
      <trkpt lat="44.12187" lon="1.72271">
        <ele>129.2</ele>
        <time>2023-03-05T08:12:51Z</time>
      </trkpt>
      <trkpt lat="44.12189" lon="1.72271">
        <ele>129.6</ele>
        <time>2023-03-05T08:12:52Z</time>
      </trkpt>
      <trkpt lat="44.12191" lon="1.7227">
        <ele>129.8</ele>
        <time>2023-03-05T08:12:53Z</time>
      </trkpt>
      <trkpt lat="44.12193" lon="1.72269">
        <ele>130.6</ele>
        <time>2023-03-05T08:12:54Z</time>
      </trkpt>
      <trkpt lat="44.12195" lon="1.72268">
        <ele>131</ele>
        <time>2023-03-05T08:12:55Z</time>
      </trkpt>
      <trkpt lat="44.12198" lon="1.72266">
        <ele>131.8</ele>
        <time>2023-03-05T08:12:56Z</time>
      </trkpt>
      <trkpt lat="44.122" lon="1.72265">
        <ele>132</ele>
        <time>2023-03-05T08:12:57Z</time>
      </trkpt>
      <trkpt lat="44.12202" lon="1.72263">
        <ele>132.2</ele>
        <time>2023-03-05T08:12:58Z</time>
      </trkpt>
      <trkpt lat="44.12202" lon="1.72263">
        <ele>132.4</ele>
        <time>2023-03-05T08:12:59Z</time>
      </trkpt>
      <trkpt lat="44.12204" lon="1.72263">
        <ele>132.6</ele>
        <time>2023-03-05T08:13:00Z</time>
      </trkpt>
      <trkpt lat="44.12209" lon="1.72262">
        <ele>132.6</ele>
        <time>2023-03-05T08:13:01Z</time>
      </trkpt>
      <trkpt lat="44.12211" lon="1.72264">
        <ele>132.8</ele>
        <time>2023-03-05T08:13:02Z</time>
      </trkpt>
      <trkpt lat="44.12212" lon="1.72265">
        <ele>133</ele>
        <time>2023-03-05T08:13:03Z</time>
      </trkpt>
      <trkpt lat="44.12213" lon="1.72268">
        <ele>133.4</ele>
        <time>2023-03-05T08:13:04Z</time>
      </trkpt>
      <trkpt lat="44.12214" lon="1.72271">
        <ele>133.6</ele>
        <time>2023-03-05T08:13:05Z</time>
      </trkpt>
      <trkpt lat="44.12214" lon="1.72274">
        <ele>134</ele>
        <time>2023-03-05T08:13:06Z</time>
      </trkpt>
      <trkpt lat="44.12213" lon="1.72277">
        <ele>134.2</ele>
        <time>2023-03-05T08:13:07Z</time>
      </trkpt>
      <trkpt lat="44.12212" lon="1.7228">
        <ele>134.6</ele>
        <time>2023-03-05T08:13:08Z</time>
      </trkpt>
      <trkpt lat="44.12211" lon="1.72283">
        <ele>134.8</ele>
        <time>2023-03-05T08:13:09Z</time>
      </trkpt>
      <trkpt lat="44.1221" lon="1.72286">
        <ele>135</ele>
        <time>2023-03-05T08:13:10Z</time>
      </trkpt>
      <trkpt lat="44.12209" lon="1.72289">
        <ele>135.2</ele>
        <time>2023-03-05T08:13:11Z</time>
      </trkpt>
      <trkpt lat="44.12208" lon="1.72292">
        <ele>135.4</ele>
        <time>2023-03-05T08:13:12Z</time>
      </trkpt>
      <trkpt lat="44.12207" lon="1.72294">
        <ele>135.8</ele>
        <time>2023-03-05T08:13:13Z</time>
      </trkpt>
      <trkpt lat="44.12206" lon="1.72297">
        <ele>136.2</ele>
        <time>2023-03-05T08:13:14Z</time>
      </trkpt>
      <trkpt lat="44.12206" lon="1.72299">
        <ele>136.8</ele>
        <time>2023-03-05T08:13:15Z</time>
      </trkpt>
      <trkpt lat="44.12204" lon="1.72302">
        <ele>137</ele>
        <time>2023-03-05T08:13:16Z</time>
      </trkpt>
      <trkpt lat="44.12204" lon="1.72304">
        <ele>137.6</ele>
        <time>2023-03-05T08:13:17Z</time>
      </trkpt>
      <trkpt lat="44.12203" lon="1.72307">
        <ele>137.8</ele>
        <time>2023-03-05T08:13:18Z</time>
      </trkpt>
      <trkpt lat="44.12202" lon="1.72309">
        <ele>138.2</ele>
        <time>2023-03-05T08:13:19Z</time>
      </trkpt>
      <trkpt lat="44.12202" lon="1.72312">
        <ele>138.6</ele>
        <time>2023-03-05T08:13:20Z</time>
      </trkpt>
      <trkpt lat="44.12202" lon="1.72316">
        <ele>139.2</ele>
        <time>2023-03-05T08:13:21Z</time>
      </trkpt>
      <trkpt lat="44.12203" lon="1.72319">
        <ele>139.4</ele>
        <time>2023-03-05T08:13:22Z</time>
      </trkpt>
      <trkpt lat="44.12203" lon="1.72323">
        <ele>140</ele>
        <time>2023-03-05T08:13:23Z</time>
      </trkpt>
      <trkpt lat="44.12203" lon="1.72326">
        <ele>140.4</ele>
        <time>2023-03-05T08:13:24Z</time>
      </trkpt>
      <trkpt lat="44.12203" lon="1.7233">
        <ele>141</ele>
        <time>2023-03-05T08:13:25Z</time>
      </trkpt>
      <trkpt lat="44.12203" lon="1.72333">
        <ele>141.2</ele>
        <time>2023-03-05T08:13:26Z</time>
      </trkpt>
      <trkpt lat="44.12204" lon="1.72336">
        <ele>141.6</ele>
        <time>2023-03-05T08:13:27Z</time>
      </trkpt>
      <trkpt lat="44.12204" lon="1.7234">
        <ele>141.8</ele>
        <time>2023-03-05T08:13:28Z</time>
      </trkpt>
      <trkpt lat="44.12205" lon="1.72344">
        <ele>142</ele>
        <time>2023-03-05T08:13:29Z</time>
      </trkpt>
      <trkpt lat="44.12205" lon="1.72347">
        <ele>142.4</ele>
        <time>2023-03-05T08:13:30Z</time>
      </trkpt>
      <trkpt lat="44.12206" lon="1.7235">
        <ele>142.6</ele>
        <time>2023-03-05T08:13:31Z</time>
      </trkpt>
      <trkpt lat="44.12206" lon="1.72354">
        <ele>142.8</ele>
        <time>2023-03-05T08:13:32Z</time>
      </trkpt>
      <trkpt lat="44.12207" lon="1.72357">
        <ele>143</ele>
        <time>2023-03-05T08:13:33Z</time>
      </trkpt>
      <trkpt lat="44.12207" lon="1.7236">
        <ele>143.4</ele>
        <time>2023-03-05T08:13:34Z</time>
      </trkpt>
      <trkpt lat="44.12208" lon="1.72364">
        <ele>143.6</ele>
        <time>2023-03-05T08:13:35Z</time>
      </trkpt>
      <trkpt lat="44.12209" lon="1.72367">
        <ele>144</ele>
        <time>2023-03-05T08:13:36Z</time>
      </trkpt>
      <trkpt lat="44.1221" lon="1.7237">
        <ele>144.2</ele>
        <time>2023-03-05T08:13:37Z</time>
      </trkpt>
      <trkpt lat="44.12211" lon="1.72372">
        <ele>144.4</ele>
        <time>2023-03-05T08:13:38Z</time>
      </trkpt>
      <trkpt lat="44.12213" lon="1.72375">
        <ele>144.4</ele>
        <time>2023-03-05T08:13:39Z</time>
      </trkpt>
      <trkpt lat="44.12214" lon="1.72377">
        <ele>144.6</ele>
        <time>2023-03-05T08:13:40Z</time>
      </trkpt>
      <trkpt lat="44.12216" lon="1.7238">
        <ele>145</ele>
        <time>2023-03-05T08:13:41Z</time>
      </trkpt>
      <trkpt lat="44.12218" lon="1.72383">
        <ele>145.8</ele>
        <time>2023-03-05T08:13:42Z</time>
      </trkpt>
      <trkpt lat="44.12219" lon="1.72386">
        <ele>146</ele>
        <time>2023-03-05T08:13:43Z</time>
      </trkpt>
      <trkpt lat="44.12219" lon="1.72386">
        <ele>146.6</ele>
        <time>2023-03-05T08:13:44Z</time>
      </trkpt>
      <trkpt lat="44.12222" lon="1.72391">
        <ele>146.8</ele>
        <time>2023-03-05T08:13:45Z</time>
      </trkpt>
      <trkpt lat="44.12223" lon="1.72394">
        <ele>147.2</ele>
        <time>2023-03-05T08:13:46Z</time>
      </trkpt>
      <trkpt lat="44.12224" lon="1.72397">
        <ele>147.4</ele>
        <time>2023-03-05T08:13:47Z</time>
      </trkpt>
      <trkpt lat="44.12225" lon="1.724">
        <ele>147.8</ele>
        <time>2023-03-05T08:13:48Z</time>
      </trkpt>
      <trkpt lat="44.12226" lon="1.72403">
        <ele>148.4</ele>
        <time>2023-03-05T08:13:49Z</time>
      </trkpt>
      <trkpt lat="44.12227" lon="1.72406">
        <ele>148.6</ele>
        <time>2023-03-05T08:13:50Z</time>
      </trkpt>
      <trkpt lat="44.12229" lon="1.72409">
        <ele>149.2</ele>
        <time>2023-03-05T08:13:51Z</time>
      </trkpt>
      <trkpt lat="44.1223" lon="1.72412">
        <ele>149.4</ele>
        <time>2023-03-05T08:13:52Z</time>
      </trkpt>
      <trkpt lat="44.12231" lon="1.72415">
        <ele>149.8</ele>
        <time>2023-03-05T08:13:53Z</time>
      </trkpt>
      <trkpt lat="44.12232" lon="1.72417">
        <ele>150</ele>
        <time>2023-03-05T08:13:54Z</time>
      </trkpt>
      <trkpt lat="44.12234" lon="1.7242">
        <ele>150.4</ele>
        <time>2023-03-05T08:13:55Z</time>
      </trkpt>
      <trkpt lat="44.12236" lon="1.72423">
        <ele>150.6</ele>
        <time>2023-03-05T08:13:56Z</time>
      </trkpt>
      <trkpt lat="44.12237" lon="1.72426">
        <ele>150.8</ele>
        <time>2023-03-05T08:13:57Z</time>
      </trkpt>
      <trkpt lat="44.12239" lon="1.72428">
        <ele>151</ele>
        <time>2023-03-05T08:13:58Z</time>
      </trkpt>
      <trkpt lat="44.12241" lon="1.7243">
        <ele>151.2</ele>
        <time>2023-03-05T08:13:59Z</time>
      </trkpt>
      <trkpt lat="44.12242" lon="1.72433">
        <ele>151.4</ele>
        <time>2023-03-05T08:14:00Z</time>
      </trkpt>
      <trkpt lat="44.12244" lon="1.72435">
        <ele>151.8</ele>
        <time>2023-03-05T08:14:01Z</time>
      </trkpt>
      <trkpt lat="44.12246" lon="1.72437">
        <ele>152</ele>
        <time>2023-03-05T08:14:02Z</time>
      </trkpt>
      <trkpt lat="44.12248" lon="1.72439">
        <ele>152.2</ele>
        <time>2023-03-05T08:14:03Z</time>
      </trkpt>
      <trkpt lat="44.1225" lon="1.72442">
        <ele>152.4</ele>
        <time>2023-03-05T08:14:04Z</time>
      </trkpt>
      <trkpt lat="44.12251" lon="1.72444">
        <ele>152.8</ele>
        <time>2023-03-05T08:14:05Z</time>
      </trkpt>
      <trkpt lat="44.12253" lon="1.72446">
        <ele>152.8</ele>
        <time>2023-03-05T08:14:06Z</time>
      </trkpt>
      <trkpt lat="44.12255" lon="1.72448">
        <ele>153.2</ele>
        <time>2023-03-05T08:14:07Z</time>
      </trkpt>
      <trkpt lat="44.12257" lon="1.7245">
        <ele>153.4</ele>
        <time>2023-03-05T08:14:08Z</time>
      </trkpt>
      <trkpt lat="44.12258" lon="1.72452">
        <ele>153.6</ele>
        <time>2023-03-05T08:14:09Z</time>
      </trkpt>
      <trkpt lat="44.1226" lon="1.72455">
        <ele>154.4</ele>
        <time>2023-03-05T08:14:10Z</time>
      </trkpt>
      <trkpt lat="44.12262" lon="1.72457">
        <ele>154.6</ele>
        <time>2023-03-05T08:14:11Z</time>
      </trkpt>
      <trkpt lat="44.12264" lon="1.7246">
        <ele>154.8</ele>
        <time>2023-03-05T08:14:12Z</time>
      </trkpt>
      <trkpt lat="44.12266" lon="1.72462">
        <ele>155</ele>
        <time>2023-03-05T08:14:13Z</time>
      </trkpt>
      <trkpt lat="44.12268" lon="1.72464">
        <ele>155.2</ele>
        <time>2023-03-05T08:14:14Z</time>
      </trkpt>
      <trkpt lat="44.1227" lon="1.72467">
        <ele>155.4</ele>
        <time>2023-03-05T08:14:15Z</time>
      </trkpt>
      <trkpt lat="44.12271" lon="1.72469">
        <ele>155.8</ele>
        <time>2023-03-05T08:14:16Z</time>
      </trkpt>
      <trkpt lat="44.12273" lon="1.72472">
        <ele>156</ele>
        <time>2023-03-05T08:14:17Z</time>
      </trkpt>
      <trkpt lat="44.12275" lon="1.72474">
        <ele>156.4</ele>
        <time>2023-03-05T08:14:18Z</time>
      </trkpt>
      <trkpt lat="44.12277" lon="1.72476">
        <ele>156.6</ele>
        <time>2023-03-05T08:14:19Z</time>
      </trkpt>
      <trkpt lat="44.12279" lon="1.72478">
        <ele>156.8</ele>
        <time>2023-03-05T08:14:20Z</time>
      </trkpt>
      <trkpt lat="44.12281" lon="1.72481">
        <ele>157</ele>
        <time>2023-03-05T08:14:21Z</time>
      </trkpt>
      <trkpt lat="44.12283" lon="1.72483">
        <ele>157.4</ele>
        <time>2023-03-05T08:14:22Z</time>
      </trkpt>
      <trkpt lat="44.12285" lon="1.72485">
        <ele>157.6</ele>
        <time>2023-03-05T08:14:23Z</time>
      </trkpt>
      <trkpt lat="44.12287" lon="1.72488">
        <ele>158</ele>
        <time>2023-03-05T08:14:24Z</time>
      </trkpt>
      <trkpt lat="44.12289" lon="1.72491">
        <ele>158.2</ele>
        <time>2023-03-05T08:14:25Z</time>
      </trkpt>
      <trkpt lat="44.12291" lon="1.72493">
        <ele>158.8</ele>
        <time>2023-03-05T08:14:26Z</time>
      </trkpt>
      <trkpt lat="44.12292" lon="1.72496">
        <ele>159.2</ele>
        <time>2023-03-05T08:14:27Z</time>
      </trkpt>
      <trkpt lat="44.12294" lon="1.72498">
        <ele>159.4</ele>
        <time>2023-03-05T08:14:28Z</time>
      </trkpt>
      <trkpt lat="44.12295" lon="1.72501">
        <ele>159.8</ele>
        <time>2023-03-05T08:14:29Z</time>
      </trkpt>
      <trkpt lat="44.12297" lon="1.72504">
        <ele>160</ele>
        <time>2023-03-05T08:14:30Z</time>
      </trkpt>
      <trkpt lat="44.12299" lon="1.72506">
        <ele>160.2</ele>
        <time>2023-03-05T08:14:31Z</time>
      </trkpt>
      <trkpt lat="44.123" lon="1.72508">
        <ele>160.4</ele>
        <time>2023-03-05T08:14:32Z</time>
      </trkpt>
      <trkpt lat="44.12301" lon="1.72512">
        <ele>160.8</ele>
        <time>2023-03-05T08:14:33Z</time>
      </trkpt>
      <trkpt lat="44.12303" lon="1.72515">
        <ele>161</ele>
        <time>2023-03-05T08:14:34Z</time>
      </trkpt>
      <trkpt lat="44.12304" lon="1.72517">
        <ele>161.4</ele>
        <time>2023-03-05T08:14:35Z</time>
      </trkpt>
      <trkpt lat="44.12305" lon="1.7252">
        <ele>161.6</ele>
        <time>2023-03-05T08:14:36Z</time>
      </trkpt>
      <trkpt lat="44.12305" lon="1.72524">
        <ele>161.8</ele>
        <time>2023-03-05T08:14:37Z</time>
      </trkpt>
      <trkpt lat="44.12306" lon="1.72527">
        <ele>161.8</ele>
        <time>2023-03-05T08:14:38Z</time>
      </trkpt>
      <trkpt lat="44.12306" lon="1.7253">
        <ele>162</ele>
        <time>2023-03-05T08:14:39Z</time>
      </trkpt>
      <trkpt lat="44.12305" lon="1.72533">
        <ele>162</ele>
        <time>2023-03-05T08:14:40Z</time>
      </trkpt>
      <trkpt lat="44.12305" lon="1.72537">
        <ele>162.6</ele>
        <time>2023-03-05T08:14:41Z</time>
      </trkpt>
      <trkpt lat="44.12304" lon="1.72541">
        <ele>162.8</ele>
        <time>2023-03-05T08:14:42Z</time>
      </trkpt>
      <trkpt lat="44.12302" lon="1.72544">
        <ele>163.2</ele>
        <time>2023-03-05T08:14:43Z</time>
      </trkpt>
      <trkpt lat="44.123" lon="1.72547">
        <ele>163.4</ele>
        <time>2023-03-05T08:14:44Z</time>
      </trkpt>
      <trkpt lat="44.12299" lon="1.7255">
        <ele>163.6</ele>
        <time>2023-03-05T08:14:45Z</time>
      </trkpt>
      <trkpt lat="44.12297" lon="1.72553">
        <ele>163.8</ele>
        <time>2023-03-05T08:14:46Z</time>
      </trkpt>
      <trkpt lat="44.12295" lon="1.72556">
        <ele>164</ele>
        <time>2023-03-05T08:14:47Z</time>
      </trkpt>
      <trkpt lat="44.12293" lon="1.7256">
        <ele>164.2</ele>
        <time>2023-03-05T08:14:48Z</time>
      </trkpt>
      <trkpt lat="44.12292" lon="1.72563">
        <ele>164.4</ele>
        <time>2023-03-05T08:14:49Z</time>
      </trkpt>
      <trkpt lat="44.1229" lon="1.72566">
        <ele>164.8</ele>
        <time>2023-03-05T08:14:50Z</time>
      </trkpt>
      <trkpt lat="44.12289" lon="1.7257">
        <ele>165</ele>
        <time>2023-03-05T08:14:51Z</time>
      </trkpt>
      <trkpt lat="44.12288" lon="1.72573">
        <ele>165.4</ele>
        <time>2023-03-05T08:14:52Z</time>
      </trkpt>
      <trkpt lat="44.12287" lon="1.72577">
        <ele>165.4</ele>
        <time>2023-03-05T08:14:53Z</time>
      </trkpt>
      <trkpt lat="44.12286" lon="1.72581">
        <ele>165.8</ele>
        <time>2023-03-05T08:14:54Z</time>
      </trkpt>
      <trkpt lat="44.12286" lon="1.72585">
        <ele>166</ele>
        <time>2023-03-05T08:14:55Z</time>
      </trkpt>
      <trkpt lat="44.12285" lon="1.7259">
        <ele>166.2</ele>
        <time>2023-03-05T08:14:56Z</time>
      </trkpt>
      <trkpt lat="44.12285" lon="1.72594">
        <ele>166.4</ele>
        <time>2023-03-05T08:14:57Z</time>
      </trkpt>
      <trkpt lat="44.12284" lon="1.72598">
        <ele>166.6</ele>
        <time>2023-03-05T08:14:58Z</time>
      </trkpt>
      <trkpt lat="44.12283" lon="1.72602">
        <ele>166.6</ele>
        <time>2023-03-05T08:14:59Z</time>
      </trkpt>
      <trkpt lat="44.12281" lon="1.72606">
        <ele>167</ele>
        <time>2023-03-05T08:15:00Z</time>
      </trkpt>
      <trkpt lat="44.1228" lon="1.72609">
        <ele>167.2</ele>
        <time>2023-03-05T08:15:01Z</time>
      </trkpt>
      <trkpt lat="44.12279" lon="1.72613">
        <ele>167.6</ele>
        <time>2023-03-05T08:15:02Z</time>
      </trkpt>
      <trkpt lat="44.12278" lon="1.72616">
        <ele>167.8</ele>
        <time>2023-03-05T08:15:03Z</time>
      </trkpt>
      <trkpt lat="44.12277" lon="1.7262">
        <ele>168</ele>
        <time>2023-03-05T08:15:04Z</time>
      </trkpt>
      <trkpt lat="44.12276" lon="1.72625">
        <ele>168</ele>
        <time>2023-03-05T08:15:05Z</time>
      </trkpt>
      <trkpt lat="44.12274" lon="1.72628">
        <ele>168.2</ele>
        <time>2023-03-05T08:15:06Z</time>
      </trkpt>
      <trkpt lat="44.12273" lon="1.72632">
        <ele>168.8</ele>
        <time>2023-03-05T08:15:07Z</time>
      </trkpt>
      <trkpt lat="44.12271" lon="1.72636">
        <ele>169</ele>
        <time>2023-03-05T08:15:08Z</time>
      </trkpt>
      <trkpt lat="44.12269" lon="1.72639">
        <ele>169.4</ele>
        <time>2023-03-05T08:15:09Z</time>
      </trkpt>
      <trkpt lat="44.12267" lon="1.72642">
        <ele>169.4</ele>
        <time>2023-03-05T08:15:10Z</time>
      </trkpt>
      <trkpt lat="44.12266" lon="1.72645">
        <ele>169.8</ele>
        <time>2023-03-05T08:15:11Z</time>
      </trkpt>
      <trkpt lat="44.12264" lon="1.72649">
        <ele>169.8</ele>
        <time>2023-03-05T08:15:12Z</time>
      </trkpt>
      <trkpt lat="44.12262" lon="1.72653">
        <ele>170.2</ele>
        <time>2023-03-05T08:15:13Z</time>
      </trkpt>
      <trkpt lat="44.1226" lon="1.72656">
        <ele>170.6</ele>
        <time>2023-03-05T08:15:14Z</time>
      </trkpt>
      <trkpt lat="44.12258" lon="1.7266">
        <ele>170.8</ele>
        <time>2023-03-05T08:15:15Z</time>
      </trkpt>
      <trkpt lat="44.12257" lon="1.72664">
        <ele>171.2</ele>
        <time>2023-03-05T08:15:16Z</time>
      </trkpt>
      <trkpt lat="44.12256" lon="1.72668">
        <ele>171.6</ele>
        <time>2023-03-05T08:15:17Z</time>
      </trkpt>
      <trkpt lat="44.12254" lon="1.72672">
        <ele>171.8</ele>
        <time>2023-03-05T08:15:18Z</time>
      </trkpt>
      <trkpt lat="44.12253" lon="1.72675">
        <ele>172.2</ele>
        <time>2023-03-05T08:15:19Z</time>
      </trkpt>
      <trkpt lat="44.12251" lon="1.72679">
        <ele>172.4</ele>
        <time>2023-03-05T08:15:20Z</time>
      </trkpt>
      <trkpt lat="44.12249" lon="1.72682">
        <ele>172.6</ele>
        <time>2023-03-05T08:15:21Z</time>
      </trkpt>
      <trkpt lat="44.12247" lon="1.72684">
        <ele>172.8</ele>
        <time>2023-03-05T08:15:22Z</time>
      </trkpt>
      <trkpt lat="44.12244" lon="1.72686">
        <ele>173.2</ele>
        <time>2023-03-05T08:15:23Z</time>
      </trkpt>
      <trkpt lat="44.12241" lon="1.72688">
        <ele>173.6</ele>
        <time>2023-03-05T08:15:24Z</time>
      </trkpt>
      <trkpt lat="44.12238" lon="1.72689">
        <ele>173.8</ele>
        <time>2023-03-05T08:15:25Z</time>
      </trkpt>
      <trkpt lat="44.12235" lon="1.72689">
        <ele>174.2</ele>
        <time>2023-03-05T08:15:26Z</time>
      </trkpt>
      <trkpt lat="44.12232" lon="1.72688">
        <ele>174.4</ele>
        <time>2023-03-05T08:15:27Z</time>
      </trkpt>
      <trkpt lat="44.12229" lon="1.72687">
        <ele>174.8</ele>
        <time>2023-03-05T08:15:28Z</time>
      </trkpt>
      <trkpt lat="44.12226" lon="1.72684">
        <ele>175</ele>
        <time>2023-03-05T08:15:29Z</time>
      </trkpt>
      <trkpt lat="44.12224" lon="1.72682">
        <ele>175.4</ele>
        <time>2023-03-05T08:15:30Z</time>
      </trkpt>
      <trkpt lat="44.12221" lon="1.7268">
        <ele>175.6</ele>
        <time>2023-03-05T08:15:31Z</time>
      </trkpt>
      <trkpt lat="44.12218" lon="1.72678">
        <ele>176</ele>
        <time>2023-03-05T08:15:32Z</time>
      </trkpt>
      <trkpt lat="44.12215" lon="1.72676">
        <ele>176.2</ele>
        <time>2023-03-05T08:15:33Z</time>
      </trkpt>
      <trkpt lat="44.12213" lon="1.72675">
        <ele>176.4</ele>
        <time>2023-03-05T08:15:34Z</time>
      </trkpt>
      <trkpt lat="44.12209" lon="1.72673">
        <ele>176.6</ele>
        <time>2023-03-05T08:15:35Z</time>
      </trkpt>
      <trkpt lat="44.12206" lon="1.72672">
        <ele>177.2</ele>
        <time>2023-03-05T08:15:36Z</time>
      </trkpt>
      <trkpt lat="44.12203" lon="1.72672">
        <ele>177.4</ele>
        <time>2023-03-05T08:15:37Z</time>
      </trkpt>
      <trkpt lat="44.122" lon="1.72673">
        <ele>177.8</ele>
        <time>2023-03-05T08:15:38Z</time>
      </trkpt>
      <trkpt lat="44.12197" lon="1.72674">
        <ele>178</ele>
        <time>2023-03-05T08:15:39Z</time>
      </trkpt>
      <trkpt lat="44.12195" lon="1.72675">
        <ele>178.4</ele>
        <time>2023-03-05T08:15:40Z</time>
      </trkpt>
      <trkpt lat="44.12192" lon="1.72676">
        <ele>178.6</ele>
        <time>2023-03-05T08:15:41Z</time>
      </trkpt>
      <trkpt lat="44.12189" lon="1.72677">
        <ele>179</ele>
        <time>2023-03-05T08:15:42Z</time>
      </trkpt>
      <trkpt lat="44.12187" lon="1.72677">
        <ele>179.2</ele>
        <time>2023-03-05T08:15:43Z</time>
      </trkpt>
      <trkpt lat="44.12184" lon="1.72678">
        <ele>179.4</ele>
        <time>2023-03-05T08:15:44Z</time>
      </trkpt>
      <trkpt lat="44.12182" lon="1.72678">
        <ele>179.8</ele>
        <time>2023-03-05T08:15:45Z</time>
      </trkpt>
      <trkpt lat="44.12179" lon="1.72679">
        <ele>179.8</ele>
        <time>2023-03-05T08:15:46Z</time>
      </trkpt>
      <trkpt lat="44.12176" lon="1.7268">
        <ele>180.4</ele>
        <time>2023-03-05T08:15:47Z</time>
      </trkpt>
      <trkpt lat="44.12173" lon="1.7268">
        <ele>180.6</ele>
        <time>2023-03-05T08:15:48Z</time>
      </trkpt>
      <trkpt lat="44.1217" lon="1.72681">
        <ele>181</ele>
        <time>2023-03-05T08:15:49Z</time>
      </trkpt>
      <trkpt lat="44.12167" lon="1.72682">
        <ele>181.2</ele>
        <time>2023-03-05T08:15:50Z</time>
      </trkpt>
      <trkpt lat="44.12164" lon="1.72683">
        <ele>181.4</ele>
        <time>2023-03-05T08:15:51Z</time>
      </trkpt>
      <trkpt lat="44.12162" lon="1.72684">
        <ele>181.6</ele>
        <time>2023-03-05T08:15:52Z</time>
      </trkpt>
      <trkpt lat="44.12159" lon="1.72686">
        <ele>182</ele>
        <time>2023-03-05T08:15:53Z</time>
      </trkpt>
      <trkpt lat="44.12157" lon="1.72689">
        <ele>182.2</ele>
        <time>2023-03-05T08:15:54Z</time>
      </trkpt>
      <trkpt lat="44.12155" lon="1.72693">
        <ele>182.6</ele>
        <time>2023-03-05T08:15:55Z</time>
      </trkpt>
      <trkpt lat="44.12153" lon="1.72696">
        <ele>182.6</ele>
        <time>2023-03-05T08:15:56Z</time>
      </trkpt>
      <trkpt lat="44.12151" lon="1.72699">
        <ele>183</ele>
        <time>2023-03-05T08:15:57Z</time>
      </trkpt>
      <trkpt lat="44.12149" lon="1.72702">
        <ele>183.2</ele>
        <time>2023-03-05T08:15:58Z</time>
      </trkpt>
      <trkpt lat="44.12147" lon="1.72705">
        <ele>183.4</ele>
        <time>2023-03-05T08:15:59Z</time>
      </trkpt>
      <trkpt lat="44.12144" lon="1.72708">
        <ele>183.6</ele>
        <time>2023-03-05T08:16:00Z</time>
      </trkpt>
      <trkpt lat="44.12142" lon="1.7271">
        <ele>183.8</ele>
        <time>2023-03-05T08:16:01Z</time>
      </trkpt>
      <trkpt lat="44.12139" lon="1.72713">
        <ele>184</ele>
        <time>2023-03-05T08:16:02Z</time>
      </trkpt>
      <trkpt lat="44.12137" lon="1.72715">
        <ele>184.2</ele>
        <time>2023-03-05T08:16:03Z</time>
      </trkpt>
      <trkpt lat="44.12134" lon="1.72717">
        <ele>184.6</ele>
        <time>2023-03-05T08:16:04Z</time>
      </trkpt>
      <trkpt lat="44.12131" lon="1.72719">
        <ele>184.8</ele>
        <time>2023-03-05T08:16:05Z</time>
      </trkpt>
      <trkpt lat="44.12129" lon="1.7272">
        <ele>185.2</ele>
        <time>2023-03-05T08:16:06Z</time>
      </trkpt>
      <trkpt lat="44.12126" lon="1.72722">
        <ele>185.4</ele>
        <time>2023-03-05T08:16:07Z</time>
      </trkpt>
      <trkpt lat="44.12123" lon="1.72723">
        <ele>185.6</ele>
        <time>2023-03-05T08:16:08Z</time>
      </trkpt>
      <trkpt lat="44.1212" lon="1.72724">
        <ele>185.8</ele>
        <time>2023-03-05T08:16:09Z</time>
      </trkpt>
      <trkpt lat="44.12118" lon="1.72726">
        <ele>186.2</ele>
        <time>2023-03-05T08:16:10Z</time>
      </trkpt>
      <trkpt lat="44.12115" lon="1.72728">
        <ele>186.4</ele>
        <time>2023-03-05T08:16:11Z</time>
      </trkpt>
      <trkpt lat="44.12113" lon="1.7273">
        <ele>186.6</ele>
        <time>2023-03-05T08:16:12Z</time>
      </trkpt>
      <trkpt lat="44.12111" lon="1.72732">
        <ele>186.8</ele>
        <time>2023-03-05T08:16:13Z</time>
      </trkpt>
      <trkpt lat="44.12109" lon="1.72735">
        <ele>187</ele>
        <time>2023-03-05T08:16:14Z</time>
      </trkpt>
      <trkpt lat="44.12107" lon="1.72738">
        <ele>187</ele>
        <time>2023-03-05T08:16:15Z</time>
      </trkpt>
      <trkpt lat="44.12105" lon="1.72741">
        <ele>187.2</ele>
        <time>2023-03-05T08:16:16Z</time>
      </trkpt>
      <trkpt lat="44.12104" lon="1.72744">
        <ele>187.4</ele>
        <time>2023-03-05T08:16:17Z</time>
      </trkpt>
      <trkpt lat="44.12102" lon="1.72748">
        <ele>187.8</ele>
        <time>2023-03-05T08:16:18Z</time>
      </trkpt>
      <trkpt lat="44.121" lon="1.72752">
        <ele>188</ele>
        <time>2023-03-05T08:16:19Z</time>
      </trkpt>
      <trkpt lat="44.12099" lon="1.72756">
        <ele>188.6</ele>
        <time>2023-03-05T08:16:20Z</time>
      </trkpt>
      <trkpt lat="44.12097" lon="1.72759">
        <ele>188.6</ele>
        <time>2023-03-05T08:16:21Z</time>
      </trkpt>
      <trkpt lat="44.12096" lon="1.72763">
        <ele>189</ele>
        <time>2023-03-05T08:16:22Z</time>
      </trkpt>
      <trkpt lat="44.12094" lon="1.72767">
        <ele>189.2</ele>
        <time>2023-03-05T08:16:23Z</time>
      </trkpt>
      <trkpt lat="44.12092" lon="1.7277">
        <ele>189.4</ele>
        <time>2023-03-05T08:16:24Z</time>
      </trkpt>
      <trkpt lat="44.12091" lon="1.72773">
        <ele>190</ele>
        <time>2023-03-05T08:16:25Z</time>
      </trkpt>
      <trkpt lat="44.12089" lon="1.72775">
        <ele>190</ele>
        <time>2023-03-05T08:16:26Z</time>
      </trkpt>
      <trkpt lat="44.12087" lon="1.72778">
        <ele>190.4</ele>
        <time>2023-03-05T08:16:27Z</time>
      </trkpt>
      <trkpt lat="44.12084" lon="1.7278">
        <ele>190.4</ele>
        <time>2023-03-05T08:16:28Z</time>
      </trkpt>
      <trkpt lat="44.12081" lon="1.72783">
        <ele>190.4</ele>
        <time>2023-03-05T08:16:29Z</time>
      </trkpt>
      <trkpt lat="44.12079" lon="1.72786">
        <ele>190.6</ele>
        <time>2023-03-05T08:16:30Z</time>
      </trkpt>
      <trkpt lat="44.12077" lon="1.72789">
        <ele>190.8</ele>
        <time>2023-03-05T08:16:31Z</time>
      </trkpt>
      <trkpt lat="44.12076" lon="1.72793">
        <ele>191.2</ele>
        <time>2023-03-05T08:16:32Z</time>
      </trkpt>
      <trkpt lat="44.12075" lon="1.72797">
        <ele>191.4</ele>
        <time>2023-03-05T08:16:33Z</time>
      </trkpt>
      <trkpt lat="44.12074" lon="1.72801">
        <ele>191.6</ele>
        <time>2023-03-05T08:16:34Z</time>
      </trkpt>
      <trkpt lat="44.12074" lon="1.72805">
        <ele>192</ele>
        <time>2023-03-05T08:16:35Z</time>
      </trkpt>
      <trkpt lat="44.12074" lon="1.72809">
        <ele>192.2</ele>
        <time>2023-03-05T08:16:36Z</time>
      </trkpt>
      <trkpt lat="44.12074" lon="1.72813">
        <ele>192.4</ele>
        <time>2023-03-05T08:16:37Z</time>
      </trkpt>
      <trkpt lat="44.12074" lon="1.72819">
        <ele>192.6</ele>
        <time>2023-03-05T08:16:38Z</time>
      </trkpt>
      <trkpt lat="44.12074" lon="1.72824">
        <ele>192.8</ele>
        <time>2023-03-05T08:16:39Z</time>
      </trkpt>
      <trkpt lat="44.12075" lon="1.72829">
        <ele>193</ele>
        <time>2023-03-05T08:16:40Z</time>
      </trkpt>
      <trkpt lat="44.12075" lon="1.72834">
        <ele>193.2</ele>
        <time>2023-03-05T08:16:41Z</time>
      </trkpt>
      <trkpt lat="44.12076" lon="1.72838">
        <ele>193.2</ele>
        <time>2023-03-05T08:16:42Z</time>
      </trkpt>
      <trkpt lat="44.12077" lon="1.72844">
        <ele>193.2</ele>
        <time>2023-03-05T08:16:43Z</time>
      </trkpt>
      <trkpt lat="44.12078" lon="1.72849">
        <ele>193.6</ele>
        <time>2023-03-05T08:16:44Z</time>
      </trkpt>
      <trkpt lat="44.12078" lon="1.72854">
        <ele>193.8</ele>
        <time>2023-03-05T08:16:45Z</time>
      </trkpt>
      <trkpt lat="44.12078" lon="1.72859">
        <ele>194.6</ele>
        <time>2023-03-05T08:16:46Z</time>
      </trkpt>
      <trkpt lat="44.12079" lon="1.72864">
        <ele>194.8</ele>
        <time>2023-03-05T08:16:47Z</time>
      </trkpt>
      <trkpt lat="44.12079" lon="1.72869">
        <ele>195.2</ele>
        <time>2023-03-05T08:16:48Z</time>
      </trkpt>
      <trkpt lat="44.12079" lon="1.72874">
        <ele>195.2</ele>
        <time>2023-03-05T08:16:49Z</time>
      </trkpt>
      <trkpt lat="44.12078" lon="1.72878">
        <ele>195.6</ele>
        <time>2023-03-05T08:16:50Z</time>
      </trkpt>
      <trkpt lat="44.12078" lon="1.72883">
        <ele>195.8</ele>
        <time>2023-03-05T08:16:51Z</time>
      </trkpt>
      <trkpt lat="44.12077" lon="1.72888">
        <ele>196.2</ele>
        <time>2023-03-05T08:16:52Z</time>
      </trkpt>
      <trkpt lat="44.12076" lon="1.72892">
        <ele>196.4</ele>
        <time>2023-03-05T08:16:53Z</time>
      </trkpt>
      <trkpt lat="44.12075" lon="1.72897">
        <ele>196.8</ele>
        <time>2023-03-05T08:16:54Z</time>
      </trkpt>
      <trkpt lat="44.12074" lon="1.72902">
        <ele>197</ele>
        <time>2023-03-05T08:16:55Z</time>
      </trkpt>
      <trkpt lat="44.12073" lon="1.72907">
        <ele>197.2</ele>
        <time>2023-03-05T08:16:56Z</time>
      </trkpt>
      <trkpt lat="44.12073" lon="1.72911">
        <ele>197.4</ele>
        <time>2023-03-05T08:16:57Z</time>
      </trkpt>
      <trkpt lat="44.12072" lon="1.72916">
        <ele>198</ele>
        <time>2023-03-05T08:16:58Z</time>
      </trkpt>
      <trkpt lat="44.12072" lon="1.72921">
        <ele>198.4</ele>
        <time>2023-03-05T08:16:59Z</time>
      </trkpt>
      <trkpt lat="44.12073" lon="1.72926">
        <ele>198.8</ele>
        <time>2023-03-05T08:17:00Z</time>
      </trkpt>
      <trkpt lat="44.12074" lon="1.7293">
        <ele>198.8</ele>
        <time>2023-03-05T08:17:01Z</time>
      </trkpt>
      <trkpt lat="44.12075" lon="1.72935">
        <ele>199.2</ele>
        <time>2023-03-05T08:17:02Z</time>
      </trkpt>
      <trkpt lat="44.12077" lon="1.72939">
        <ele>199.8</ele>
        <time>2023-03-05T08:17:03Z</time>
      </trkpt>
      <trkpt lat="44.12079" lon="1.72944">
        <ele>200</ele>
        <time>2023-03-05T08:17:04Z</time>
      </trkpt>
      <trkpt lat="44.12081" lon="1.72949">
        <ele>200.2</ele>
        <time>2023-03-05T08:17:05Z</time>
      </trkpt>
      <trkpt lat="44.12082" lon="1.72953">
        <ele>200.6</ele>
        <time>2023-03-05T08:17:06Z</time>
      </trkpt>
      <trkpt lat="44.12084" lon="1.72957">
        <ele>200.8</ele>
        <time>2023-03-05T08:17:07Z</time>
      </trkpt>
      <trkpt lat="44.12086" lon="1.72961">
        <ele>201</ele>
        <time>2023-03-05T08:17:08Z</time>
      </trkpt>
      <trkpt lat="44.12088" lon="1.72965">
        <ele>201.2</ele>
        <time>2023-03-05T08:17:09Z</time>
      </trkpt>
      <trkpt lat="44.1209" lon="1.72969">
        <ele>201.4</ele>
        <time>2023-03-05T08:17:10Z</time>
      </trkpt>
      <trkpt lat="44.12092" lon="1.72972">
        <ele>201.6</ele>
        <time>2023-03-05T08:17:11Z</time>
      </trkpt>
      <trkpt lat="44.12095" lon="1.72976">
        <ele>201.6</ele>
        <time>2023-03-05T08:17:12Z</time>
      </trkpt>
      <trkpt lat="44.12098" lon="1.72979">
        <ele>201.8</ele>
        <time>2023-03-05T08:17:13Z</time>
      </trkpt>
      <trkpt lat="44.12101" lon="1.72981">
        <ele>202</ele>
        <time>2023-03-05T08:17:14Z</time>
      </trkpt>
      <trkpt lat="44.12104" lon="1.72982">
        <ele>202.4</ele>
        <time>2023-03-05T08:17:15Z</time>
      </trkpt>
      <trkpt lat="44.12107" lon="1.72983">
        <ele>202.6</ele>
        <time>2023-03-05T08:17:16Z</time>
      </trkpt>
      <trkpt lat="44.12111" lon="1.72983">
        <ele>202.8</ele>
        <time>2023-03-05T08:17:17Z</time>
      </trkpt>
      <trkpt lat="44.12114" lon="1.72984">
        <ele>203</ele>
        <time>2023-03-05T08:17:18Z</time>
      </trkpt>
      <trkpt lat="44.12118" lon="1.72985">
        <ele>203.4</ele>
        <time>2023-03-05T08:17:19Z</time>
      </trkpt>
      <trkpt lat="44.12122" lon="1.72986">
        <ele>203.6</ele>
        <time>2023-03-05T08:17:20Z</time>
      </trkpt>
      <trkpt lat="44.12125" lon="1.72987">
        <ele>204.2</ele>
        <time>2023-03-05T08:17:21Z</time>
      </trkpt>
      <trkpt lat="44.12128" lon="1.72988">
        <ele>204.4</ele>
        <time>2023-03-05T08:17:22Z</time>
      </trkpt>
      <trkpt lat="44.12132" lon="1.7299">
        <ele>204.8</ele>
        <time>2023-03-05T08:17:23Z</time>
      </trkpt>
      <trkpt lat="44.12136" lon="1.72991">
        <ele>205.2</ele>
        <time>2023-03-05T08:17:24Z</time>
      </trkpt>
      <trkpt lat="44.12138" lon="1.72993">
        <ele>205.4</ele>
        <time>2023-03-05T08:17:25Z</time>
      </trkpt>
      <trkpt lat="44.12142" lon="1.72995">
        <ele>205.8</ele>
        <time>2023-03-05T08:17:26Z</time>
      </trkpt>
      <trkpt lat="44.12146" lon="1.72998">
        <ele>205.8</ele>
        <time>2023-03-05T08:17:27Z</time>
      </trkpt>
      <trkpt lat="44.12149" lon="1.73">
        <ele>206.2</ele>
        <time>2023-03-05T08:17:28Z</time>
      </trkpt>
      <trkpt lat="44.12152" lon="1.73002">
        <ele>206.2</ele>
        <time>2023-03-05T08:17:29Z</time>
      </trkpt>
      <trkpt lat="44.12155" lon="1.73005">
        <ele>206.4</ele>
        <time>2023-03-05T08:17:30Z</time>
      </trkpt>
      <trkpt lat="44.12158" lon="1.73007">
        <ele>206.4</ele>
        <time>2023-03-05T08:17:31Z</time>
      </trkpt>
      <trkpt lat="44.12161" lon="1.7301">
        <ele>206.6</ele>
        <time>2023-03-05T08:17:32Z</time>
      </trkpt>
      <trkpt lat="44.12164" lon="1.73012">
        <ele>206.8</ele>
        <time>2023-03-05T08:17:33Z</time>
      </trkpt>
      <trkpt lat="44.12167" lon="1.73015">
        <ele>207</ele>
        <time>2023-03-05T08:17:34Z</time>
      </trkpt>
      <trkpt lat="44.1217" lon="1.73018">
        <ele>207.4</ele>
        <time>2023-03-05T08:17:35Z</time>
      </trkpt>
      <trkpt lat="44.12172" lon="1.7302">
        <ele>207.8</ele>
        <time>2023-03-05T08:17:36Z</time>
      </trkpt>
      <trkpt lat="44.12175" lon="1.73023">
        <ele>208</ele>
        <time>2023-03-05T08:17:37Z</time>
      </trkpt>
      <trkpt lat="44.12177" lon="1.73026">
        <ele>208.4</ele>
        <time>2023-03-05T08:17:38Z</time>
      </trkpt>
      <trkpt lat="44.12179" lon="1.73029">
        <ele>208.6</ele>
        <time>2023-03-05T08:17:39Z</time>
      </trkpt>
      <trkpt lat="44.12181" lon="1.73032">
        <ele>209</ele>
        <time>2023-03-05T08:17:40Z</time>
      </trkpt>
      <trkpt lat="44.12183" lon="1.73036">
        <ele>209.2</ele>
        <time>2023-03-05T08:17:41Z</time>
      </trkpt>
      <trkpt lat="44.12185" lon="1.7304">
        <ele>209.6</ele>
        <time>2023-03-05T08:17:42Z</time>
      </trkpt>
      <trkpt lat="44.12187" lon="1.73043">
        <ele>210.2</ele>
        <time>2023-03-05T08:17:43Z</time>
      </trkpt>
      <trkpt lat="44.12188" lon="1.73046">
        <ele>210.4</ele>
        <time>2023-03-05T08:17:44Z</time>
      </trkpt>
      <trkpt lat="44.12189" lon="1.73049">
        <ele>210.6</ele>
        <time>2023-03-05T08:17:45Z</time>
      </trkpt>
      <trkpt lat="44.1219" lon="1.73053">
        <ele>211.2</ele>
        <time>2023-03-05T08:17:46Z</time>
      </trkpt>
      <trkpt lat="44.12191" lon="1.73057">
        <ele>211.6</ele>
        <time>2023-03-05T08:17:47Z</time>
      </trkpt>
      <trkpt lat="44.12192" lon="1.73062">
        <ele>211.8</ele>
        <time>2023-03-05T08:17:48Z</time>
      </trkpt>
      <trkpt lat="44.12193" lon="1.73066">
        <ele>212.2</ele>
        <time>2023-03-05T08:17:49Z</time>
      </trkpt>
      <trkpt lat="44.12193" lon="1.73071">
        <ele>212.4</ele>
        <time>2023-03-05T08:17:50Z</time>
      </trkpt>
      <trkpt lat="44.12193" lon="1.73075">
        <ele>213</ele>
        <time>2023-03-05T08:17:51Z</time>
      </trkpt>
      <trkpt lat="44.12194" lon="1.7308">
        <ele>213.2</ele>
        <time>2023-03-05T08:17:52Z</time>
      </trkpt>
      <trkpt lat="44.12194" lon="1.73085">
        <ele>213.6</ele>
        <time>2023-03-05T08:17:53Z</time>
      </trkpt>
      <trkpt lat="44.12194" lon="1.73089">
        <ele>213.6</ele>
        <time>2023-03-05T08:17:54Z</time>
      </trkpt>
      <trkpt lat="44.12194" lon="1.73093">
        <ele>214</ele>
        <time>2023-03-05T08:17:55Z</time>
      </trkpt>
      <trkpt lat="44.12194" lon="1.73099">
        <ele>214.4</ele>
        <time>2023-03-05T08:17:56Z</time>
      </trkpt>
      <trkpt lat="44.12194" lon="1.73103">
        <ele>214.6</ele>
        <time>2023-03-05T08:17:57Z</time>
      </trkpt>
      <trkpt lat="44.12193" lon="1.73108">
        <ele>214.8</ele>
        <time>2023-03-05T08:17:58Z</time>
      </trkpt>
      <trkpt lat="44.12193" lon="1.73112">
        <ele>215</ele>
        <time>2023-03-05T08:17:59Z</time>
      </trkpt>
      <trkpt lat="44.12193" lon="1.73117">
        <ele>215.2</ele>
        <time>2023-03-05T08:18:00Z</time>
      </trkpt>
      <trkpt lat="44.12193" lon="1.73122">
        <ele>215.2</ele>
        <time>2023-03-05T08:18:01Z</time>
      </trkpt>
      <trkpt lat="44.12193" lon="1.73126">
        <ele>215.6</ele>
        <time>2023-03-05T08:18:02Z</time>
      </trkpt>
      <trkpt lat="44.12193" lon="1.7313">
        <ele>215.8</ele>
        <time>2023-03-05T08:18:03Z</time>
      </trkpt>
      <trkpt lat="44.12192" lon="1.73134">
        <ele>216</ele>
        <time>2023-03-05T08:18:04Z</time>
      </trkpt>
      <trkpt lat="44.12191" lon="1.73138">
        <ele>216.2</ele>
        <time>2023-03-05T08:18:05Z</time>
      </trkpt>
      <trkpt lat="44.12189" lon="1.73142">
        <ele>216.4</ele>
        <time>2023-03-05T08:18:06Z</time>
      </trkpt>
      <trkpt lat="44.12187" lon="1.73146">
        <ele>216.6</ele>
        <time>2023-03-05T08:18:07Z</time>
      </trkpt>
      <trkpt lat="44.12186" lon="1.7315">
        <ele>216.8</ele>
        <time>2023-03-05T08:18:08Z</time>
      </trkpt>
      <trkpt lat="44.12184" lon="1.73153">
        <ele>217.2</ele>
        <time>2023-03-05T08:18:09Z</time>
      </trkpt>
      <trkpt lat="44.12182" lon="1.73158">
        <ele>217.6</ele>
        <time>2023-03-05T08:18:10Z</time>
      </trkpt>
      <trkpt lat="44.12181" lon="1.73162">
        <ele>217.8</ele>
        <time>2023-03-05T08:18:11Z</time>
      </trkpt>
      <trkpt lat="44.12179" lon="1.73167">
        <ele>218.2</ele>
        <time>2023-03-05T08:18:12Z</time>
      </trkpt>
      <trkpt lat="44.12178" lon="1.73172">
        <ele>218.6</ele>
        <time>2023-03-05T08:18:13Z</time>
      </trkpt>
      <trkpt lat="44.12178" lon="1.73176">
        <ele>219</ele>
        <time>2023-03-05T08:18:14Z</time>
      </trkpt>
      <trkpt lat="44.12177" lon="1.73181">
        <ele>219.2</ele>
        <time>2023-03-05T08:18:15Z</time>
      </trkpt>
      <trkpt lat="44.12177" lon="1.73185">
        <ele>219.4</ele>
        <time>2023-03-05T08:18:16Z</time>
      </trkpt>
      <trkpt lat="44.12177" lon="1.73189">
        <ele>219.6</ele>
        <time>2023-03-05T08:18:17Z</time>
      </trkpt>
      <trkpt lat="44.12177" lon="1.73192">
        <ele>219.8</ele>
        <time>2023-03-05T08:18:18Z</time>
      </trkpt>
      <trkpt lat="44.12177" lon="1.73196">
        <ele>220</ele>
        <time>2023-03-05T08:18:19Z</time>
      </trkpt>
      <trkpt lat="44.12178" lon="1.73201">
        <ele>220.2</ele>
        <time>2023-03-05T08:18:20Z</time>
      </trkpt>
      <trkpt lat="44.12178" lon="1.73204">
        <ele>220.4</ele>
        <time>2023-03-05T08:18:21Z</time>
      </trkpt>
      <trkpt lat="44.12179" lon="1.73207">
        <ele>220.6</ele>
        <time>2023-03-05T08:18:22Z</time>
      </trkpt>
      <trkpt lat="44.12179" lon="1.7321">
        <ele>220.8</ele>
        <time>2023-03-05T08:18:23Z</time>
      </trkpt>
      <trkpt lat="44.1218" lon="1.73213">
        <ele>221.2</ele>
        <time>2023-03-05T08:18:24Z</time>
      </trkpt>
      <trkpt lat="44.12182" lon="1.73217">
        <ele>221.6</ele>
        <time>2023-03-05T08:18:25Z</time>
      </trkpt>
      <trkpt lat="44.12183" lon="1.73219">
        <ele>221.8</ele>
        <time>2023-03-05T08:18:26Z</time>
      </trkpt>
      <trkpt lat="44.12184" lon="1.73223">
        <ele>222.2</ele>
        <time>2023-03-05T08:18:27Z</time>
      </trkpt>
      <trkpt lat="44.12185" lon="1.73227">
        <ele>222.4</ele>
        <time>2023-03-05T08:18:28Z</time>
      </trkpt>
      <trkpt lat="44.12186" lon="1.73232">
        <ele>222.6</ele>
        <time>2023-03-05T08:18:29Z</time>
      </trkpt>
      <trkpt lat="44.12187" lon="1.73236">
        <ele>222.8</ele>
        <time>2023-03-05T08:18:30Z</time>
      </trkpt>
      <trkpt lat="44.12188" lon="1.7324">
        <ele>223.4</ele>
        <time>2023-03-05T08:18:31Z</time>
      </trkpt>
      <trkpt lat="44.12188" lon="1.73243">
        <ele>223.6</ele>
        <time>2023-03-05T08:18:32Z</time>
      </trkpt>
      <trkpt lat="44.12188" lon="1.73247">
        <ele>224</ele>
        <time>2023-03-05T08:18:33Z</time>
      </trkpt>
      <trkpt lat="44.12188" lon="1.73252">
        <ele>224.2</ele>
        <time>2023-03-05T08:18:34Z</time>
      </trkpt>
      <trkpt lat="44.12188" lon="1.73255">
        <ele>224.8</ele>
        <time>2023-03-05T08:18:35Z</time>
      </trkpt>
      <trkpt lat="44.12188" lon="1.73259">
        <ele>225</ele>
        <time>2023-03-05T08:18:36Z</time>
      </trkpt>
      <trkpt lat="44.12188" lon="1.73263">
        <ele>225.6</ele>
        <time>2023-03-05T08:18:37Z</time>
      </trkpt>
      <trkpt lat="44.12188" lon="1.73267">
        <ele>225.8</ele>
        <time>2023-03-05T08:18:38Z</time>
      </trkpt>
      <trkpt lat="44.12188" lon="1.73272">
        <ele>226.4</ele>
        <time>2023-03-05T08:18:39Z</time>
      </trkpt>
      <trkpt lat="44.12188" lon="1.73277">
        <ele>226.6</ele>
        <time>2023-03-05T08:18:40Z</time>
      </trkpt>
      <trkpt lat="44.12188" lon="1.73281">
        <ele>227</ele>
        <time>2023-03-05T08:18:41Z</time>
      </trkpt>
      <trkpt lat="44.12187" lon="1.73284">
        <ele>227</ele>
        <time>2023-03-05T08:18:42Z</time>
      </trkpt>
      <trkpt lat="44.12187" lon="1.73288">
        <ele>227.8</ele>
        <time>2023-03-05T08:18:43Z</time>
      </trkpt>
      <trkpt lat="44.12186" lon="1.73293">
        <ele>228</ele>
        <time>2023-03-05T08:18:44Z</time>
      </trkpt>
      <trkpt lat="44.12185" lon="1.73297">
        <ele>228.4</ele>
        <time>2023-03-05T08:18:45Z</time>
      </trkpt>
      <trkpt lat="44.12185" lon="1.73301">
        <ele>228.6</ele>
        <time>2023-03-05T08:18:46Z</time>
      </trkpt>
      <trkpt lat="44.12184" lon="1.73306">
        <ele>229</ele>
        <time>2023-03-05T08:18:47Z</time>
      </trkpt>
      <trkpt lat="44.12184" lon="1.73309">
        <ele>229.2</ele>
        <time>2023-03-05T08:18:48Z</time>
      </trkpt>
      <trkpt lat="44.12182" lon="1.73313">
        <ele>229.4</ele>
        <time>2023-03-05T08:18:49Z</time>
      </trkpt>
      <trkpt lat="44.12181" lon="1.73316">
        <ele>230</ele>
        <time>2023-03-05T08:18:50Z</time>
      </trkpt>
      <trkpt lat="44.1218" lon="1.73319">
        <ele>230</ele>
        <time>2023-03-05T08:18:51Z</time>
      </trkpt>
      <trkpt lat="44.12178" lon="1.73322">
        <ele>230.6</ele>
        <time>2023-03-05T08:18:52Z</time>
      </trkpt>
      <trkpt lat="44.12176" lon="1.73325">
        <ele>231</ele>
        <time>2023-03-05T08:18:53Z</time>
      </trkpt>
      <trkpt lat="44.12174" lon="1.73328">
        <ele>231.4</ele>
        <time>2023-03-05T08:18:54Z</time>
      </trkpt>
      <trkpt lat="44.12172" lon="1.73331">
        <ele>231.8</ele>
        <time>2023-03-05T08:18:55Z</time>
      </trkpt>
      <trkpt lat="44.12171" lon="1.73333">
        <ele>232.2</ele>
        <time>2023-03-05T08:18:56Z</time>
      </trkpt>
      <trkpt lat="44.12169" lon="1.73336">
        <ele>232.2</ele>
        <time>2023-03-05T08:18:57Z</time>
      </trkpt>
      <trkpt lat="44.12167" lon="1.73339">
        <ele>232.6</ele>
        <time>2023-03-05T08:18:58Z</time>
      </trkpt>
      <trkpt lat="44.12166" lon="1.73341">
        <ele>232.8</ele>
        <time>2023-03-05T08:18:59Z</time>
      </trkpt>
      <trkpt lat="44.12165" lon="1.73344">
        <ele>233.2</ele>
        <time>2023-03-05T08:19:00Z</time>
      </trkpt>
      <trkpt lat="44.12163" lon="1.73347">
        <ele>233.6</ele>
        <time>2023-03-05T08:19:01Z</time>
      </trkpt>
      <trkpt lat="44.12162" lon="1.73349">
        <ele>234</ele>
        <time>2023-03-05T08:19:02Z</time>
      </trkpt>
      <trkpt lat="44.1216" lon="1.73352">
        <ele>234.2</ele>
        <time>2023-03-05T08:19:03Z</time>
      </trkpt>
      <trkpt lat="44.12158" lon="1.73354">
        <ele>234.6</ele>
        <time>2023-03-05T08:19:04Z</time>
      </trkpt>
      <trkpt lat="44.12155" lon="1.73357">
        <ele>234.8</ele>
        <time>2023-03-05T08:19:05Z</time>
      </trkpt>
      <trkpt lat="44.12153" lon="1.73358">
        <ele>235.2</ele>
        <time>2023-03-05T08:19:06Z</time>
      </trkpt>
      <trkpt lat="44.12151" lon="1.7336">
        <ele>235.6</ele>
        <time>2023-03-05T08:19:07Z</time>
      </trkpt>
      <trkpt lat="44.12148" lon="1.73362">
        <ele>235.8</ele>
        <time>2023-03-05T08:19:08Z</time>
      </trkpt>
      <trkpt lat="44.12146" lon="1.73364">
        <ele>236.2</ele>
        <time>2023-03-05T08:19:09Z</time>
      </trkpt>
      <trkpt lat="44.12144" lon="1.73365">
        <ele>236.4</ele>
        <time>2023-03-05T08:19:10Z</time>
      </trkpt>
      <trkpt lat="44.12142" lon="1.73366">
        <ele>237</ele>
        <time>2023-03-05T08:19:11Z</time>
      </trkpt>
      <trkpt lat="44.12139" lon="1.73368">
        <ele>237.2</ele>
        <time>2023-03-05T08:19:12Z</time>
      </trkpt>
      <trkpt lat="44.12137" lon="1.73369">
        <ele>237.8</ele>
        <time>2023-03-05T08:19:13Z</time>
      </trkpt>
      <trkpt lat="44.12135" lon="1.73371">
        <ele>238.2</ele>
        <time>2023-03-05T08:19:14Z</time>
      </trkpt>
      <trkpt lat="44.12133" lon="1.73373">
        <ele>238.6</ele>
        <time>2023-03-05T08:19:15Z</time>
      </trkpt>
      <trkpt lat="44.12131" lon="1.73375">
        <ele>239</ele>
        <time>2023-03-05T08:19:16Z</time>
      </trkpt>
      <trkpt lat="44.12129" lon="1.73377">
        <ele>239.4</ele>
        <time>2023-03-05T08:19:17Z</time>
      </trkpt>
      <trkpt lat="44.12127" lon="1.73379">
        <ele>239.6</ele>
        <time>2023-03-05T08:19:18Z</time>
      </trkpt>
      <trkpt lat="44.12124" lon="1.73382">
        <ele>239.8</ele>
        <time>2023-03-05T08:19:19Z</time>
      </trkpt>
      <trkpt lat="44.12122" lon="1.73383">
        <ele>240</ele>
        <time>2023-03-05T08:19:20Z</time>
      </trkpt>
      <trkpt lat="44.1212" lon="1.73386">
        <ele>240.2</ele>
        <time>2023-03-05T08:19:21Z</time>
      </trkpt>
      <trkpt lat="44.12118" lon="1.73388">
        <ele>240.6</ele>
        <time>2023-03-05T08:19:22Z</time>
      </trkpt>
      <trkpt lat="44.12116" lon="1.73392">
        <ele>241.2</ele>
        <time>2023-03-05T08:19:23Z</time>
      </trkpt>
      <trkpt lat="44.12114" lon="1.73395">
        <ele>241.6</ele>
        <time>2023-03-05T08:19:24Z</time>
      </trkpt>
      <trkpt lat="44.12112" lon="1.73397">
        <ele>242</ele>
        <time>2023-03-05T08:19:25Z</time>
      </trkpt>
      <trkpt lat="44.12111" lon="1.73399">
        <ele>242</ele>
        <time>2023-03-05T08:19:26Z</time>
      </trkpt>
      <trkpt lat="44.12109" lon="1.73402">
        <ele>242.6</ele>
        <time>2023-03-05T08:19:27Z</time>
      </trkpt>
      <trkpt lat="44.12107" lon="1.73405">
        <ele>243</ele>
        <time>2023-03-05T08:19:28Z</time>
      </trkpt>
      <trkpt lat="44.12106" lon="1.73409">
        <ele>243</ele>
        <time>2023-03-05T08:19:29Z</time>
      </trkpt>
      <trkpt lat="44.12104" lon="1.73412">
        <ele>243.4</ele>
        <time>2023-03-05T08:19:30Z</time>
      </trkpt>
      <trkpt lat="44.12103" lon="1.73414">
        <ele>243.8</ele>
        <time>2023-03-05T08:19:31Z</time>
      </trkpt>
      <trkpt lat="44.12102" lon="1.73418">
        <ele>243.8</ele>
        <time>2023-03-05T08:19:32Z</time>
      </trkpt>
      <trkpt lat="44.121" lon="1.7342">
        <ele>244.2</ele>
        <time>2023-03-05T08:19:33Z</time>
      </trkpt>
      <trkpt lat="44.12098" lon="1.73422">
        <ele>244.2</ele>
        <time>2023-03-05T08:19:34Z</time>
      </trkpt>
      <trkpt lat="44.12097" lon="1.73425">
        <ele>244.4</ele>
        <time>2023-03-05T08:19:35Z</time>
      </trkpt>
      <trkpt lat="44.12096" lon="1.73428">
        <ele>244.8</ele>
        <time>2023-03-05T08:19:36Z</time>
      </trkpt>
      <trkpt lat="44.12094" lon="1.73432">
        <ele>245</ele>
        <time>2023-03-05T08:19:37Z</time>
      </trkpt>
      <trkpt lat="44.12093" lon="1.73436">
        <ele>245.4</ele>
        <time>2023-03-05T08:19:38Z</time>
      </trkpt>
      <trkpt lat="44.12092" lon="1.73439">
        <ele>245.6</ele>
        <time>2023-03-05T08:19:39Z</time>
      </trkpt>
      <trkpt lat="44.12092" lon="1.73442">
        <ele>246</ele>
        <time>2023-03-05T08:19:40Z</time>
      </trkpt>
      <trkpt lat="44.12091" lon="1.73446">
        <ele>246</ele>
        <time>2023-03-05T08:19:41Z</time>
      </trkpt>
      <trkpt lat="44.12089" lon="1.7345">
        <ele>246.2</ele>
        <time>2023-03-05T08:19:42Z</time>
      </trkpt>
      <trkpt lat="44.12088" lon="1.73453">
        <ele>246.6</ele>
        <time>2023-03-05T08:19:43Z</time>
      </trkpt>
      <trkpt lat="44.12087" lon="1.73456">
        <ele>246.8</ele>
        <time>2023-03-05T08:19:44Z</time>
      </trkpt>
      <trkpt lat="44.12086" lon="1.73459">
        <ele>247</ele>
        <time>2023-03-05T08:19:45Z</time>
      </trkpt>
      <trkpt lat="44.12085" lon="1.73462">
        <ele>247.4</ele>
        <time>2023-03-05T08:19:46Z</time>
      </trkpt>
      <trkpt lat="44.12084" lon="1.73465">
        <ele>247.6</ele>
        <time>2023-03-05T08:19:47Z</time>
      </trkpt>
      <trkpt lat="44.12082" lon="1.73467">
        <ele>247.8</ele>
        <time>2023-03-05T08:19:48Z</time>
      </trkpt>
      <trkpt lat="44.1208" lon="1.73469">
        <ele>248.2</ele>
        <time>2023-03-05T08:19:49Z</time>
      </trkpt>
      <trkpt lat="44.12078" lon="1.73472">
        <ele>248.4</ele>
        <time>2023-03-05T08:19:50Z</time>
      </trkpt>
      <trkpt lat="44.12077" lon="1.73474">
        <ele>249</ele>
        <time>2023-03-05T08:19:51Z</time>
      </trkpt>
      <trkpt lat="44.12075" lon="1.73477">
        <ele>249.2</ele>
        <time>2023-03-05T08:19:52Z</time>
      </trkpt>
      <trkpt lat="44.12073" lon="1.7348">
        <ele>249.6</ele>
        <time>2023-03-05T08:19:53Z</time>
      </trkpt>
      <trkpt lat="44.12072" lon="1.73482">
        <ele>249.8</ele>
        <time>2023-03-05T08:19:54Z</time>
      </trkpt>
      <trkpt lat="44.1207" lon="1.73484">
        <ele>250.2</ele>
        <time>2023-03-05T08:19:55Z</time>
      </trkpt>
      <trkpt lat="44.12069" lon="1.73486">
        <ele>250.4</ele>
        <time>2023-03-05T08:19:56Z</time>
      </trkpt>
      <trkpt lat="44.12067" lon="1.73488">
        <ele>250.6</ele>
        <time>2023-03-05T08:19:57Z</time>
      </trkpt>
      <trkpt lat="44.12065" lon="1.7349">
        <ele>250.8</ele>
        <time>2023-03-05T08:19:58Z</time>
      </trkpt>
      <trkpt lat="44.12063" lon="1.73492">
        <ele>251.4</ele>
        <time>2023-03-05T08:19:59Z</time>
      </trkpt>
      <trkpt lat="44.12061" lon="1.73494">
        <ele>251.8</ele>
        <time>2023-03-05T08:20:00Z</time>
      </trkpt>
      <trkpt lat="44.12059" lon="1.73496">
        <ele>252.4</ele>
        <time>2023-03-05T08:20:01Z</time>
      </trkpt>
      <trkpt lat="44.12057" lon="1.73497">
        <ele>252.6</ele>
        <time>2023-03-05T08:20:02Z</time>
      </trkpt>
      <trkpt lat="44.12054" lon="1.73498">
        <ele>253</ele>
        <time>2023-03-05T08:20:03Z</time>
      </trkpt>
      <trkpt lat="44.12052" lon="1.735">
        <ele>253.2</ele>
        <time>2023-03-05T08:20:04Z</time>
      </trkpt>
      <trkpt lat="44.1205" lon="1.735">
        <ele>253.6</ele>
        <time>2023-03-05T08:20:05Z</time>
      </trkpt>
      <trkpt lat="44.12048" lon="1.73501">
        <ele>253.8</ele>
        <time>2023-03-05T08:20:06Z</time>
      </trkpt>
      <trkpt lat="44.12046" lon="1.73502">
        <ele>254.2</ele>
        <time>2023-03-05T08:20:07Z</time>
      </trkpt>
      <trkpt lat="44.12043" lon="1.73503">
        <ele>254.6</ele>
        <time>2023-03-05T08:20:08Z</time>
      </trkpt>
      <trkpt lat="44.12041" lon="1.73504">
        <ele>255</ele>
        <time>2023-03-05T08:20:09Z</time>
      </trkpt>
      <trkpt lat="44.12038" lon="1.73505">
        <ele>255.4</ele>
        <time>2023-03-05T08:20:10Z</time>
      </trkpt>
      <trkpt lat="44.12036" lon="1.73507">
        <ele>255.4</ele>
        <time>2023-03-05T08:20:11Z</time>
      </trkpt>
      <trkpt lat="44.12035" lon="1.73509">
        <ele>255.8</ele>
        <time>2023-03-05T08:20:12Z</time>
      </trkpt>
      <trkpt lat="44.12033" lon="1.73511">
        <ele>256</ele>
        <time>2023-03-05T08:20:13Z</time>
      </trkpt>
      <trkpt lat="44.12031" lon="1.73513">
        <ele>256.4</ele>
        <time>2023-03-05T08:20:14Z</time>
      </trkpt>
      <trkpt lat="44.12029" lon="1.73515">
        <ele>256.6</ele>
        <time>2023-03-05T08:20:15Z</time>
      </trkpt>
      <trkpt lat="44.12028" lon="1.73518">
        <ele>256.8</ele>
        <time>2023-03-05T08:20:16Z</time>
      </trkpt>
      <trkpt lat="44.12026" lon="1.73521">
        <ele>257</ele>
        <time>2023-03-05T08:20:17Z</time>
      </trkpt>
      <trkpt lat="44.12024" lon="1.73524">
        <ele>257.6</ele>
        <time>2023-03-05T08:20:18Z</time>
      </trkpt>
      <trkpt lat="44.12023" lon="1.73526">
        <ele>257.8</ele>
        <time>2023-03-05T08:20:19Z</time>
      </trkpt>
      <trkpt lat="44.12021" lon="1.7353">
        <ele>258.2</ele>
        <time>2023-03-05T08:20:20Z</time>
      </trkpt>
      <trkpt lat="44.12019" lon="1.73534">
        <ele>258.6</ele>
        <time>2023-03-05T08:20:21Z</time>
      </trkpt>
      <trkpt lat="44.12017" lon="1.73538">
        <ele>258.8</ele>
        <time>2023-03-05T08:20:22Z</time>
      </trkpt>
      <trkpt lat="44.12016" lon="1.73541">
        <ele>259.2</ele>
        <time>2023-03-05T08:20:23Z</time>
      </trkpt>
      <trkpt lat="44.12015" lon="1.73544">
        <ele>259.8</ele>
        <time>2023-03-05T08:20:24Z</time>
      </trkpt>
      <trkpt lat="44.12013" lon="1.73548">
        <ele>260</ele>
        <time>2023-03-05T08:20:25Z</time>
      </trkpt>
      <trkpt lat="44.12012" lon="1.73552">
        <ele>261</ele>
        <time>2023-03-05T08:20:26Z</time>
      </trkpt>
      <trkpt lat="44.12011" lon="1.73555">
        <ele>261.2</ele>
        <time>2023-03-05T08:20:27Z</time>
      </trkpt>
      <trkpt lat="44.1201" lon="1.73558">
        <ele>261.8</ele>
        <time>2023-03-05T08:20:28Z</time>
      </trkpt>
      <trkpt lat="44.12009" lon="1.73562">
        <ele>262.4</ele>
        <time>2023-03-05T08:20:29Z</time>
      </trkpt>
      <trkpt lat="44.12007" lon="1.73566">
        <ele>263.4</ele>
        <time>2023-03-05T08:20:30Z</time>
      </trkpt>
      <trkpt lat="44.12006" lon="1.7357">
        <ele>264.2</ele>
        <time>2023-03-05T08:20:31Z</time>
      </trkpt>
      <trkpt lat="44.12004" lon="1.73574">
        <ele>264.4</ele>
        <time>2023-03-05T08:20:32Z</time>
      </trkpt>
      <trkpt lat="44.12003" lon="1.73577">
        <ele>265.2</ele>
        <time>2023-03-05T08:20:33Z</time>
      </trkpt>
      <trkpt lat="44.12002" lon="1.73579">
        <ele>265.6</ele>
        <time>2023-03-05T08:20:34Z</time>
      </trkpt>
      <trkpt lat="44.12" lon="1.73583">
        <ele>266</ele>
        <time>2023-03-05T08:20:35Z</time>
      </trkpt>
      <trkpt lat="44.11999" lon="1.73586">
        <ele>266.2</ele>
        <time>2023-03-05T08:20:36Z</time>
      </trkpt>
      <trkpt lat="44.11998" lon="1.73589">
        <ele>266.8</ele>
        <time>2023-03-05T08:20:37Z</time>
      </trkpt>
      <trkpt lat="44.11997" lon="1.73592">
        <ele>267</ele>
        <time>2023-03-05T08:20:38Z</time>
      </trkpt>
      <trkpt lat="44.11997" lon="1.73594">
        <ele>268</ele>
        <time>2023-03-05T08:20:39Z</time>
      </trkpt>
      <trkpt lat="44.11996" lon="1.73598">
        <ele>268.2</ele>
        <time>2023-03-05T08:20:40Z</time>
      </trkpt>
      <trkpt lat="44.11994" lon="1.736">
        <ele>268.8</ele>
        <time>2023-03-05T08:20:41Z</time>
      </trkpt>
      <trkpt lat="44.11993" lon="1.73603">
        <ele>268.8</ele>
        <time>2023-03-05T08:20:42Z</time>
      </trkpt>
      <trkpt lat="44.11992" lon="1.73606">
        <ele>269.4</ele>
        <time>2023-03-05T08:20:43Z</time>
      </trkpt>
      <trkpt lat="44.11992" lon="1.7361">
        <ele>269.6</ele>
        <time>2023-03-05T08:20:44Z</time>
      </trkpt>
      <trkpt lat="44.11991" lon="1.73614">
        <ele>270.4</ele>
        <time>2023-03-05T08:20:45Z</time>
      </trkpt>
      <trkpt lat="44.1199" lon="1.73617">
        <ele>270.8</ele>
        <time>2023-03-05T08:20:46Z</time>
      </trkpt>
      <trkpt lat="44.11989" lon="1.7362">
        <ele>271.2</ele>
        <time>2023-03-05T08:20:47Z</time>
      </trkpt>
      <trkpt lat="44.11989" lon="1.73624">
        <ele>271.4</ele>
        <time>2023-03-05T08:20:48Z</time>
      </trkpt>
      <trkpt lat="44.11988" lon="1.73629">
        <ele>271.6</ele>
        <time>2023-03-05T08:20:49Z</time>
      </trkpt>
      <trkpt lat="44.11988" lon="1.73632">
        <ele>272</ele>
        <time>2023-03-05T08:20:50Z</time>
      </trkpt>
      <trkpt lat="44.11987" lon="1.73636">
        <ele>272.4</ele>
        <time>2023-03-05T08:20:51Z</time>
      </trkpt>
      <trkpt lat="44.11987" lon="1.73639">
        <ele>272.6</ele>
        <time>2023-03-05T08:20:52Z</time>
      </trkpt>
      <trkpt lat="44.11987" lon="1.73643">
        <ele>273</ele>
        <time>2023-03-05T08:20:53Z</time>
      </trkpt>
      <trkpt lat="44.11987" lon="1.73647">
        <ele>273.2</ele>
        <time>2023-03-05T08:20:54Z</time>
      </trkpt>
      <trkpt lat="44.11988" lon="1.73651">
        <ele>273.2</ele>
        <time>2023-03-05T08:20:55Z</time>
      </trkpt>
      <trkpt lat="44.11988" lon="1.73654">
        <ele>273.8</ele>
        <time>2023-03-05T08:20:56Z</time>
      </trkpt>
      <trkpt lat="44.11988" lon="1.73657">
        <ele>274</ele>
        <time>2023-03-05T08:20:57Z</time>
      </trkpt>
      <trkpt lat="44.11988" lon="1.73661">
        <ele>274.6</ele>
        <time>2023-03-05T08:20:58Z</time>
      </trkpt>
      <trkpt lat="44.11989" lon="1.73664">
        <ele>274.8</ele>
        <time>2023-03-05T08:20:59Z</time>
      </trkpt>
      <trkpt lat="44.1199" lon="1.73669">
        <ele>275</ele>
        <time>2023-03-05T08:21:00Z</time>
      </trkpt>
      <trkpt lat="44.11991" lon="1.73672">
        <ele>275.2</ele>
        <time>2023-03-05T08:21:01Z</time>
      </trkpt>
      <trkpt lat="44.11992" lon="1.73675">
        <ele>275.6</ele>
        <time>2023-03-05T08:21:02Z</time>
      </trkpt>
      <trkpt lat="44.11993" lon="1.7368">
        <ele>275.8</ele>
        <time>2023-03-05T08:21:03Z</time>
      </trkpt>
      <trkpt lat="44.11994" lon="1.73684">
        <ele>276.2</ele>
        <time>2023-03-05T08:21:04Z</time>
      </trkpt>
      <trkpt lat="44.11995" lon="1.73688">
        <ele>276.2</ele>
        <time>2023-03-05T08:21:05Z</time>
      </trkpt>
      <trkpt lat="44.11995" lon="1.73693">
        <ele>276.6</ele>
        <time>2023-03-05T08:21:06Z</time>
      </trkpt>
      <trkpt lat="44.11995" lon="1.73696">
        <ele>277</ele>
        <time>2023-03-05T08:21:07Z</time>
      </trkpt>
      <trkpt lat="44.11995" lon="1.73702">
        <ele>277.4</ele>
        <time>2023-03-05T08:21:08Z</time>
      </trkpt>
      <trkpt lat="44.11996" lon="1.73706">
        <ele>277.6</ele>
        <time>2023-03-05T08:21:09Z</time>
      </trkpt>
      <trkpt lat="44.11996" lon="1.7371">
        <ele>277.8</ele>
        <time>2023-03-05T08:21:10Z</time>
      </trkpt>
      <trkpt lat="44.11996" lon="1.73714">
        <ele>278.2</ele>
        <time>2023-03-05T08:21:11Z</time>
      </trkpt>
      <trkpt lat="44.11996" lon="1.73718">
        <ele>278.4</ele>
        <time>2023-03-05T08:21:12Z</time>
      </trkpt>
      <trkpt lat="44.11996" lon="1.73723">
        <ele>278.8</ele>
        <time>2023-03-05T08:21:13Z</time>
      </trkpt>
      <trkpt lat="44.11995" lon="1.73727">
        <ele>279</ele>
        <time>2023-03-05T08:21:14Z</time>
      </trkpt>
      <trkpt lat="44.11994" lon="1.73731">
        <ele>279.4</ele>
        <time>2023-03-05T08:21:15Z</time>
      </trkpt>
      <trkpt lat="44.11994" lon="1.73735">
        <ele>279.6</ele>
        <time>2023-03-05T08:21:16Z</time>
      </trkpt>
      <trkpt lat="44.11993" lon="1.73739">
        <ele>280</ele>
        <time>2023-03-05T08:21:17Z</time>
      </trkpt>
      <trkpt lat="44.11992" lon="1.73743">
        <ele>280.4</ele>
        <time>2023-03-05T08:21:18Z</time>
      </trkpt>
      <trkpt lat="44.11991" lon="1.73747">
        <ele>281.2</ele>
        <time>2023-03-05T08:21:19Z</time>
      </trkpt>
      <trkpt lat="44.1199" lon="1.73751">
        <ele>281.6</ele>
        <time>2023-03-05T08:21:20Z</time>
      </trkpt>
      <trkpt lat="44.11989" lon="1.73755">
        <ele>282.2</ele>
        <time>2023-03-05T08:21:21Z</time>
      </trkpt>
      <trkpt lat="44.11988" lon="1.73758">
        <ele>282.4</ele>
        <time>2023-03-05T08:21:22Z</time>
      </trkpt>
      <trkpt lat="44.11986" lon="1.73763">
        <ele>282.8</ele>
        <time>2023-03-05T08:21:23Z</time>
      </trkpt>
      <trkpt lat="44.11985" lon="1.73767">
        <ele>283</ele>
        <time>2023-03-05T08:21:24Z</time>
      </trkpt>
      <trkpt lat="44.11983" lon="1.7377">
        <ele>283.8</ele>
        <time>2023-03-05T08:21:25Z</time>
      </trkpt>
      <trkpt lat="44.11982" lon="1.73774">
        <ele>284</ele>
        <time>2023-03-05T08:21:26Z</time>
      </trkpt>
      <trkpt lat="44.11981" lon="1.73777">
        <ele>284.6</ele>
        <time>2023-03-05T08:21:27Z</time>
      </trkpt>
      <trkpt lat="44.11979" lon="1.7378">
        <ele>284.8</ele>
        <time>2023-03-05T08:21:28Z</time>
      </trkpt>
      <trkpt lat="44.11978" lon="1.73782">
        <ele>285.2</ele>
        <time>2023-03-05T08:21:29Z</time>
      </trkpt>
      <trkpt lat="44.11976" lon="1.73786">
        <ele>285.2</ele>
        <time>2023-03-05T08:21:30Z</time>
      </trkpt>
      <trkpt lat="44.11975" lon="1.73789">
        <ele>285.6</ele>
        <time>2023-03-05T08:21:31Z</time>
      </trkpt>
      <trkpt lat="44.11974" lon="1.73792">
        <ele>286</ele>
        <time>2023-03-05T08:21:32Z</time>
      </trkpt>
      <trkpt lat="44.11973" lon="1.73797">
        <ele>286.4</ele>
        <time>2023-03-05T08:21:33Z</time>
      </trkpt>
      <trkpt lat="44.11972" lon="1.738">
        <ele>287</ele>
        <time>2023-03-05T08:21:34Z</time>
      </trkpt>
      <trkpt lat="44.1197" lon="1.73803">
        <ele>287.2</ele>
        <time>2023-03-05T08:21:35Z</time>
      </trkpt>
      <trkpt lat="44.11969" lon="1.73806">
        <ele>287.6</ele>
        <time>2023-03-05T08:21:36Z</time>
      </trkpt>
      <trkpt lat="44.11968" lon="1.73809">
        <ele>287.8</ele>
        <time>2023-03-05T08:21:37Z</time>
      </trkpt>
      <trkpt lat="44.11966" lon="1.73812">
        <ele>288.4</ele>
        <time>2023-03-05T08:21:38Z</time>
      </trkpt>
      <trkpt lat="44.11963" lon="1.73814">
        <ele>288.8</ele>
        <time>2023-03-05T08:21:39Z</time>
      </trkpt>
      <trkpt lat="44.11961" lon="1.73816">
        <ele>289.4</ele>
        <time>2023-03-05T08:21:40Z</time>
      </trkpt>
      <trkpt lat="44.11958" lon="1.73818">
        <ele>289.8</ele>
        <time>2023-03-05T08:21:41Z</time>
      </trkpt>
      <trkpt lat="44.11955" lon="1.73821">
        <ele>290.2</ele>
        <time>2023-03-05T08:21:42Z</time>
      </trkpt>
      <trkpt lat="44.11953" lon="1.73822">
        <ele>290.6</ele>
        <time>2023-03-05T08:21:43Z</time>
      </trkpt>
      <trkpt lat="44.1195" lon="1.73824">
        <ele>291.2</ele>
        <time>2023-03-05T08:21:44Z</time>
      </trkpt>
      <trkpt lat="44.11948" lon="1.73826">
        <ele>291.6</ele>
        <time>2023-03-05T08:21:45Z</time>
      </trkpt>
      <trkpt lat="44.11946" lon="1.73827">
        <ele>292</ele>
        <time>2023-03-05T08:21:46Z</time>
      </trkpt>
      <trkpt lat="44.11942" lon="1.73829">
        <ele>292.2</ele>
        <time>2023-03-05T08:21:47Z</time>
      </trkpt>
      <trkpt lat="44.1194" lon="1.73832">
        <ele>292.8</ele>
        <time>2023-03-05T08:21:48Z</time>
      </trkpt>
      <trkpt lat="44.11938" lon="1.73834">
        <ele>293</ele>
        <time>2023-03-05T08:21:49Z</time>
      </trkpt>
      <trkpt lat="44.11936" lon="1.73836">
        <ele>294</ele>
        <time>2023-03-05T08:21:50Z</time>
      </trkpt>
      <trkpt lat="44.11934" lon="1.73838">
        <ele>294.8</ele>
        <time>2023-03-05T08:21:51Z</time>
      </trkpt>
      <trkpt lat="44.11932" lon="1.73841">
        <ele>295.6</ele>
        <time>2023-03-05T08:21:52Z</time>
      </trkpt>
      <trkpt lat="44.1193" lon="1.73844">
        <ele>296.6</ele>
        <time>2023-03-05T08:21:53Z</time>
      </trkpt>
      <trkpt lat="44.11928" lon="1.73846">
        <ele>296.8</ele>
        <time>2023-03-05T08:21:54Z</time>
      </trkpt>
      <trkpt lat="44.11927" lon="1.73849">
        <ele>297.2</ele>
        <time>2023-03-05T08:21:55Z</time>
      </trkpt>
      <trkpt lat="44.11925" lon="1.73851">
        <ele>297.8</ele>
        <time>2023-03-05T08:21:56Z</time>
      </trkpt>
      <trkpt lat="44.11924" lon="1.73854">
        <ele>298.6</ele>
        <time>2023-03-05T08:21:57Z</time>
      </trkpt>
      <trkpt lat="44.11923" lon="1.73857">
        <ele>299</ele>
        <time>2023-03-05T08:21:58Z</time>
      </trkpt>
      <trkpt lat="44.11922" lon="1.73859">
        <ele>299.8</ele>
        <time>2023-03-05T08:21:59Z</time>
      </trkpt>
      <trkpt lat="44.11921" lon="1.73861">
        <ele>300</ele>
        <time>2023-03-05T08:22:00Z</time>
      </trkpt>
      <trkpt lat="44.11919" lon="1.73862">
        <ele>300.6</ele>
        <time>2023-03-05T08:22:01Z</time>
      </trkpt>
      <trkpt lat="44.11918" lon="1.73865">
        <ele>301</ele>
        <time>2023-03-05T08:22:02Z</time>
      </trkpt>
      <trkpt lat="44.11918" lon="1.73865">
        <ele>301.6</ele>
        <time>2023-03-05T08:22:03Z</time>
      </trkpt>
      <trkpt lat="44.11916" lon="1.73869">
        <ele>301.8</ele>
        <time>2023-03-05T08:22:04Z</time>
      </trkpt>
      <trkpt lat="44.11914" lon="1.73872">
        <ele>302.8</ele>
        <time>2023-03-05T08:22:05Z</time>
      </trkpt>
      <trkpt lat="44.11913" lon="1.73874">
        <ele>303.2</ele>
        <time>2023-03-05T08:22:06Z</time>
      </trkpt>
      <trkpt lat="44.11911" lon="1.73877">
        <ele>303.8</ele>
        <time>2023-03-05T08:22:07Z</time>
      </trkpt>
      <trkpt lat="44.1191" lon="1.7388">
        <ele>304.2</ele>
        <time>2023-03-05T08:22:08Z</time>
      </trkpt>
      <trkpt lat="44.11909" lon="1.73882">
        <ele>304.6</ele>
        <time>2023-03-05T08:22:09Z</time>
      </trkpt>
      <trkpt lat="44.11908" lon="1.73885">
        <ele>305</ele>
        <time>2023-03-05T08:22:10Z</time>
      </trkpt>
      <trkpt lat="44.11907" lon="1.73888">
        <ele>305.8</ele>
        <time>2023-03-05T08:22:11Z</time>
      </trkpt>
      <trkpt lat="44.11906" lon="1.7389">
        <ele>306.2</ele>
        <time>2023-03-05T08:22:12Z</time>
      </trkpt>
      <trkpt lat="44.11904" lon="1.73893">
        <ele>307.2</ele>
        <time>2023-03-05T08:22:13Z</time>
      </trkpt>
      <trkpt lat="44.11903" lon="1.73896">
        <ele>307.8</ele>
        <time>2023-03-05T08:22:14Z</time>
      </trkpt>
      <trkpt lat="44.11902" lon="1.73899">
        <ele>308.2</ele>
        <time>2023-03-05T08:22:15Z</time>
      </trkpt>
      <trkpt lat="44.11901" lon="1.73901">
        <ele>309</ele>
        <time>2023-03-05T08:22:16Z</time>
      </trkpt>
      <trkpt lat="44.11899" lon="1.73905">
        <ele>309.2</ele>
        <time>2023-03-05T08:22:17Z</time>
      </trkpt>
      <trkpt lat="44.11898" lon="1.73907">
        <ele>310.2</ele>
        <time>2023-03-05T08:22:18Z</time>
      </trkpt>
      <trkpt lat="44.11897" lon="1.7391">
        <ele>310.8</ele>
        <time>2023-03-05T08:22:19Z</time>
      </trkpt>
      <trkpt lat="44.11895" lon="1.73913">
        <ele>311.6</ele>
        <time>2023-03-05T08:22:20Z</time>
      </trkpt>
      <trkpt lat="44.11894" lon="1.73917">
        <ele>312.2</ele>
        <time>2023-03-05T08:22:21Z</time>
      </trkpt>
      <trkpt lat="44.11892" lon="1.7392">
        <ele>312.6</ele>
        <time>2023-03-05T08:22:22Z</time>
      </trkpt>
      <trkpt lat="44.1189" lon="1.73923">
        <ele>313.2</ele>
        <time>2023-03-05T08:22:23Z</time>
      </trkpt>
      <trkpt lat="44.11889" lon="1.73926">
        <ele>314</ele>
        <time>2023-03-05T08:22:24Z</time>
      </trkpt>
      <trkpt lat="44.11887" lon="1.73928">
        <ele>314.4</ele>
        <time>2023-03-05T08:22:25Z</time>
      </trkpt>
      <trkpt lat="44.11885" lon="1.73932">
        <ele>315.2</ele>
        <time>2023-03-05T08:22:26Z</time>
      </trkpt>
      <trkpt lat="44.11883" lon="1.73933">
        <ele>315.4</ele>
        <time>2023-03-05T08:22:27Z</time>
      </trkpt>
      <trkpt lat="44.11882" lon="1.73935">
        <ele>316.4</ele>
        <time>2023-03-05T08:22:28Z</time>
      </trkpt>
      <trkpt lat="44.1188" lon="1.73937">
        <ele>316.8</ele>
        <time>2023-03-05T08:22:29Z</time>
      </trkpt>
      <trkpt lat="44.11879" lon="1.7394">
        <ele>318</ele>
        <time>2023-03-05T08:22:30Z</time>
      </trkpt>
      <trkpt lat="44.11877" lon="1.73942">
        <ele>318.4</ele>
        <time>2023-03-05T08:22:31Z</time>
      </trkpt>
      <trkpt lat="44.11876" lon="1.73944">
        <ele>319</ele>
        <time>2023-03-05T08:22:32Z</time>
      </trkpt>
      <trkpt lat="44.11875" lon="1.73946">
        <ele>319.8</ele>
        <time>2023-03-05T08:22:33Z</time>
      </trkpt>
      <trkpt lat="44.11873" lon="1.73948">
        <ele>320.2</ele>
        <time>2023-03-05T08:22:34Z</time>
      </trkpt>
      <trkpt lat="44.11871" lon="1.73949">
        <ele>320.8</ele>
        <time>2023-03-05T08:22:35Z</time>
      </trkpt>
      <trkpt lat="44.11869" lon="1.73951">
        <ele>321</ele>
        <time>2023-03-05T08:22:36Z</time>
      </trkpt>
      <trkpt lat="44.11867" lon="1.73952">
        <ele>321.4</ele>
        <time>2023-03-05T08:22:37Z</time>
      </trkpt>
      <trkpt lat="44.11866" lon="1.73954">
        <ele>321.8</ele>
        <time>2023-03-05T08:22:38Z</time>
      </trkpt>
      <trkpt lat="44.11865" lon="1.73956">
        <ele>322.4</ele>
        <time>2023-03-05T08:22:39Z</time>
      </trkpt>
      <trkpt lat="44.11863" lon="1.73957">
        <ele>322.8</ele>
        <time>2023-03-05T08:22:40Z</time>
      </trkpt>
      <trkpt lat="44.11861" lon="1.73959">
        <ele>323.4</ele>
        <time>2023-03-05T08:22:41Z</time>
      </trkpt>
      <trkpt lat="44.11859" lon="1.73962">
        <ele>323.8</ele>
        <time>2023-03-05T08:22:42Z</time>
      </trkpt>
      <trkpt lat="44.11858" lon="1.73963">
        <ele>324.2</ele>
        <time>2023-03-05T08:22:43Z</time>
      </trkpt>
      <trkpt lat="44.11857" lon="1.73966">
        <ele>324.6</ele>
        <time>2023-03-05T08:22:44Z</time>
      </trkpt>
      <trkpt lat="44.11856" lon="1.73968">
        <ele>325</ele>
        <time>2023-03-05T08:22:45Z</time>
      </trkpt>
      <trkpt lat="44.11854" lon="1.7397">
        <ele>325.2</ele>
        <time>2023-03-05T08:22:46Z</time>
      </trkpt>
      <trkpt lat="44.11853" lon="1.73972">
        <ele>325.4</ele>
        <time>2023-03-05T08:22:47Z</time>
      </trkpt>
      <trkpt lat="44.11852" lon="1.73975">
        <ele>325.6</ele>
        <time>2023-03-05T08:22:48Z</time>
      </trkpt>
      <trkpt lat="44.11851" lon="1.73977">
        <ele>326.2</ele>
        <time>2023-03-05T08:22:49Z</time>
      </trkpt>
      <trkpt lat="44.1185" lon="1.73979">
        <ele>326.4</ele>
        <time>2023-03-05T08:22:50Z</time>
      </trkpt>
      <trkpt lat="44.11848" lon="1.73982">
        <ele>326.8</ele>
        <time>2023-03-05T08:22:51Z</time>
      </trkpt>
      <trkpt lat="44.11847" lon="1.73984">
        <ele>327.2</ele>
        <time>2023-03-05T08:22:52Z</time>
      </trkpt>
      <trkpt lat="44.11846" lon="1.73986">
        <ele>327.6</ele>
        <time>2023-03-05T08:22:53Z</time>
      </trkpt>
      <trkpt lat="44.11844" lon="1.73988">
        <ele>327.8</ele>
        <time>2023-03-05T08:22:54Z</time>
      </trkpt>
      <trkpt lat="44.11843" lon="1.7399">
        <ele>328</ele>
        <time>2023-03-05T08:22:55Z</time>
      </trkpt>
      <trkpt lat="44.11841" lon="1.73993">
        <ele>328.2</ele>
        <time>2023-03-05T08:22:56Z</time>
      </trkpt>
      <trkpt lat="44.11839" lon="1.73995">
        <ele>328.4</ele>
        <time>2023-03-05T08:22:57Z</time>
      </trkpt>
      <trkpt lat="44.11837" lon="1.73998">
        <ele>328.8</ele>
        <time>2023-03-05T08:22:58Z</time>
      </trkpt>
      <trkpt lat="44.11836" lon="1.74">
        <ele>328.8</ele>
        <time>2023-03-05T08:22:59Z</time>
      </trkpt>
      <trkpt lat="44.11834" lon="1.74003">
        <ele>329.4</ele>
        <time>2023-03-05T08:23:00Z</time>
      </trkpt>
      <trkpt lat="44.11832" lon="1.74006">
        <ele>329.6</ele>
        <time>2023-03-05T08:23:01Z</time>
      </trkpt>
      <trkpt lat="44.1183" lon="1.74009">
        <ele>329.8</ele>
        <time>2023-03-05T08:23:02Z</time>
      </trkpt>
      <trkpt lat="44.11828" lon="1.74012">
        <ele>329.8</ele>
        <time>2023-03-05T08:23:03Z</time>
      </trkpt>
      <trkpt lat="44.11826" lon="1.74013">
        <ele>330.4</ele>
        <time>2023-03-05T08:23:04Z</time>
      </trkpt>
      <trkpt lat="44.11824" lon="1.74016">
        <ele>330.6</ele>
        <time>2023-03-05T08:23:05Z</time>
      </trkpt>
      <trkpt lat="44.11823" lon="1.74017">
        <ele>330.8</ele>
        <time>2023-03-05T08:23:06Z</time>
      </trkpt>
      <trkpt lat="44.11821" lon="1.74019">
        <ele>331</ele>
        <time>2023-03-05T08:23:07Z</time>
      </trkpt>
      <trkpt lat="44.1182" lon="1.74021">
        <ele>331.2</ele>
        <time>2023-03-05T08:23:08Z</time>
      </trkpt>
      <trkpt lat="44.11818" lon="1.74023">
        <ele>331.2</ele>
        <time>2023-03-05T08:23:09Z</time>
      </trkpt>
      <trkpt lat="44.11817" lon="1.74025">
        <ele>331.4</ele>
        <time>2023-03-05T08:23:10Z</time>
      </trkpt>
      <trkpt lat="44.11815" lon="1.74026">
        <ele>331.6</ele>
        <time>2023-03-05T08:23:11Z</time>
      </trkpt>
      <trkpt lat="44.11813" lon="1.74028">
        <ele>331.8</ele>
        <time>2023-03-05T08:23:12Z</time>
      </trkpt>
      <trkpt lat="44.11812" lon="1.74029">
        <ele>332.2</ele>
        <time>2023-03-05T08:23:13Z</time>
      </trkpt>
      <trkpt lat="44.1181" lon="1.74031">
        <ele>332.2</ele>
        <time>2023-03-05T08:23:14Z</time>
      </trkpt>
      <trkpt lat="44.11809" lon="1.74033">
        <ele>332.6</ele>
        <time>2023-03-05T08:23:15Z</time>
      </trkpt>
      <trkpt lat="44.11807" lon="1.74034">
        <ele>332.8</ele>
        <time>2023-03-05T08:23:16Z</time>
      </trkpt>
      <trkpt lat="44.11806" lon="1.74036">
        <ele>333</ele>
        <time>2023-03-05T08:23:17Z</time>
      </trkpt>
      <trkpt lat="44.11804" lon="1.74037">
        <ele>333.2</ele>
        <time>2023-03-05T08:23:18Z</time>
      </trkpt>
      <trkpt lat="44.11803" lon="1.74039">
        <ele>333.4</ele>
        <time>2023-03-05T08:23:19Z</time>
      </trkpt>
      <trkpt lat="44.11801" lon="1.74041">
        <ele>333.4</ele>
        <time>2023-03-05T08:23:20Z</time>
      </trkpt>
      <trkpt lat="44.11799" lon="1.74042">
        <ele>333.8</ele>
        <time>2023-03-05T08:23:21Z</time>
      </trkpt>
      <trkpt lat="44.11798" lon="1.74043">
        <ele>334</ele>
        <time>2023-03-05T08:23:22Z</time>
      </trkpt>
      <trkpt lat="44.11796" lon="1.74045">
        <ele>334.4</ele>
        <time>2023-03-05T08:23:23Z</time>
      </trkpt>
      <trkpt lat="44.11795" lon="1.74047">
        <ele>334.6</ele>
        <time>2023-03-05T08:23:24Z</time>
      </trkpt>
      <trkpt lat="44.11793" lon="1.7405">
        <ele>335</ele>
        <time>2023-03-05T08:23:25Z</time>
      </trkpt>
      <trkpt lat="44.11791" lon="1.74052">
        <ele>335.2</ele>
        <time>2023-03-05T08:23:26Z</time>
      </trkpt>
      <trkpt lat="44.1179" lon="1.74054">
        <ele>335.4</ele>
        <time>2023-03-05T08:23:27Z</time>
      </trkpt>
      <trkpt lat="44.11788" lon="1.74057">
        <ele>335.6</ele>
        <time>2023-03-05T08:23:28Z</time>
      </trkpt>
      <trkpt lat="44.11787" lon="1.74059">
        <ele>335.8</ele>
        <time>2023-03-05T08:23:29Z</time>
      </trkpt>
      <trkpt lat="44.11786" lon="1.74061">
        <ele>336</ele>
        <time>2023-03-05T08:23:30Z</time>
      </trkpt>
      <trkpt lat="44.11784" lon="1.74063">
        <ele>336.2</ele>
        <time>2023-03-05T08:23:31Z</time>
      </trkpt>
      <trkpt lat="44.11782" lon="1.74065">
        <ele>336.4</ele>
        <time>2023-03-05T08:23:32Z</time>
      </trkpt>
      <trkpt lat="44.11781" lon="1.74067">
        <ele>336.6</ele>
        <time>2023-03-05T08:23:33Z</time>
      </trkpt>
      <trkpt lat="44.11779" lon="1.74069">
        <ele>336.8</ele>
        <time>2023-03-05T08:23:34Z</time>
      </trkpt>
      <trkpt lat="44.11778" lon="1.7407">
        <ele>337</ele>
        <time>2023-03-05T08:23:35Z</time>
      </trkpt>
      <trkpt lat="44.11776" lon="1.7407">
        <ele>337.2</ele>
        <time>2023-03-05T08:23:36Z</time>
      </trkpt>
      <trkpt lat="44.11774" lon="1.74069">
        <ele>337.4</ele>
        <time>2023-03-05T08:23:37Z</time>
      </trkpt>
      <trkpt lat="44.11772" lon="1.74068">
        <ele>337.6</ele>
        <time>2023-03-05T08:23:38Z</time>
      </trkpt>
      <trkpt lat="44.11771" lon="1.74065">
        <ele>337.8</ele>
        <time>2023-03-05T08:23:39Z</time>
      </trkpt>
      <trkpt lat="44.1177" lon="1.74062">
        <ele>338</ele>
        <time>2023-03-05T08:23:40Z</time>
      </trkpt>
      <trkpt lat="44.11768" lon="1.74058">
        <ele>338</ele>
        <time>2023-03-05T08:23:41Z</time>
      </trkpt>
      <trkpt lat="44.11767" lon="1.74054">
        <ele>338.2</ele>
        <time>2023-03-05T08:23:42Z</time>
      </trkpt>
      <trkpt lat="44.11765" lon="1.7405">
        <ele>338.4</ele>
        <time>2023-03-05T08:23:43Z</time>
      </trkpt>
      <trkpt lat="44.11764" lon="1.74045">
        <ele>338.6</ele>
        <time>2023-03-05T08:23:44Z</time>
      </trkpt>
      <trkpt lat="44.11762" lon="1.7404">
        <ele>338.8</ele>
        <time>2023-03-05T08:23:45Z</time>
      </trkpt>
      <trkpt lat="44.11761" lon="1.74035">
        <ele>338.8</ele>
        <time>2023-03-05T08:23:46Z</time>
      </trkpt>
      <trkpt lat="44.11759" lon="1.74028">
        <ele>339</ele>
        <time>2023-03-05T08:23:47Z</time>
      </trkpt>
      <trkpt lat="44.11757" lon="1.74021">
        <ele>339</ele>
        <time>2023-03-05T08:23:48Z</time>
      </trkpt>
      <trkpt lat="44.11755" lon="1.74013">
        <ele>339</ele>
        <time>2023-03-05T08:23:49Z</time>
      </trkpt>
      <trkpt lat="44.11752" lon="1.74004">
        <ele>338.8</ele>
        <time>2023-03-05T08:23:50Z</time>
      </trkpt>
      <trkpt lat="44.1175" lon="1.73995">
        <ele>338.8</ele>
        <time>2023-03-05T08:23:51Z</time>
      </trkpt>
      <trkpt lat="44.11747" lon="1.73986">
        <ele>338.6</ele>
        <time>2023-03-05T08:23:52Z</time>
      </trkpt>
      <trkpt lat="44.11745" lon="1.73976">
        <ele>338.2</ele>
        <time>2023-03-05T08:23:53Z</time>
      </trkpt>
      <trkpt lat="44.11743" lon="1.73967">
        <ele>338</ele>
        <time>2023-03-05T08:23:54Z</time>
      </trkpt>
      <trkpt lat="44.11741" lon="1.73959">
        <ele>337.2</ele>
        <time>2023-03-05T08:23:55Z</time>
      </trkpt>
      <trkpt lat="44.1174" lon="1.73952">
        <ele>337</ele>
        <time>2023-03-05T08:23:56Z</time>
      </trkpt>
      <trkpt lat="44.11738" lon="1.73945">
        <ele>336.4</ele>
        <time>2023-03-05T08:23:57Z</time>
      </trkpt>
      <trkpt lat="44.11737" lon="1.7394">
        <ele>336.2</ele>
        <time>2023-03-05T08:23:58Z</time>
      </trkpt>
      <trkpt lat="44.11736" lon="1.73934">
        <ele>336</ele>
        <time>2023-03-05T08:23:59Z</time>
      </trkpt>
      <trkpt lat="44.11734" lon="1.73928">
        <ele>336</ele>
        <time>2023-03-05T08:24:00Z</time>
      </trkpt>
      <trkpt lat="44.11733" lon="1.73923">
        <ele>336</ele>
        <time>2023-03-05T08:24:01Z</time>
      </trkpt>
      <trkpt lat="44.1173" lon="1.73917">
        <ele>336</ele>
        <time>2023-03-05T08:24:02Z</time>
      </trkpt>
      <trkpt lat="44.11728" lon="1.73911">
        <ele>336.2</ele>
        <time>2023-03-05T08:24:03Z</time>
      </trkpt>
      <trkpt lat="44.11726" lon="1.73905">
        <ele>336.2</ele>
        <time>2023-03-05T08:24:04Z</time>
      </trkpt>
      <trkpt lat="44.11724" lon="1.739">
        <ele>336.2</ele>
        <time>2023-03-05T08:24:05Z</time>
      </trkpt>
      <trkpt lat="44.11723" lon="1.73896">
        <ele>336.4</ele>
        <time>2023-03-05T08:24:06Z</time>
      </trkpt>
      <trkpt lat="44.11722" lon="1.73892">
        <ele>336.8</ele>
        <time>2023-03-05T08:24:07Z</time>
      </trkpt>
      <trkpt lat="44.11719" lon="1.73888">
        <ele>336.8</ele>
        <time>2023-03-05T08:24:08Z</time>
      </trkpt>
      <trkpt lat="44.11718" lon="1.73883">
        <ele>337.2</ele>
        <time>2023-03-05T08:24:09Z</time>
      </trkpt>
      <trkpt lat="44.11717" lon="1.73877">
        <ele>337.4</ele>
        <time>2023-03-05T08:24:10Z</time>
      </trkpt>
      <trkpt lat="44.11716" lon="1.73871">
        <ele>337.6</ele>
        <time>2023-03-05T08:24:11Z</time>
      </trkpt>
      <trkpt lat="44.11714" lon="1.73866">
        <ele>337.8</ele>
        <time>2023-03-05T08:24:12Z</time>
      </trkpt>
      <trkpt lat="44.11712" lon="1.7386">
        <ele>337.8</ele>
        <time>2023-03-05T08:24:13Z</time>
      </trkpt>
      <trkpt lat="44.11711" lon="1.73855">
        <ele>338.2</ele>
        <time>2023-03-05T08:24:14Z</time>
      </trkpt>
      <trkpt lat="44.11711" lon="1.73851">
        <ele>338.2</ele>
        <time>2023-03-05T08:24:15Z</time>
      </trkpt>
      <trkpt lat="44.1171" lon="1.73847">
        <ele>338.6</ele>
        <time>2023-03-05T08:24:16Z</time>
      </trkpt>
      <trkpt lat="44.11708" lon="1.73842">
        <ele>338.8</ele>
        <time>2023-03-05T08:24:17Z</time>
      </trkpt>
      <trkpt lat="44.11706" lon="1.73836">
        <ele>338.8</ele>
        <time>2023-03-05T08:24:18Z</time>
      </trkpt>
      <trkpt lat="44.11704" lon="1.7383">
        <ele>339</ele>
        <time>2023-03-05T08:24:19Z</time>
      </trkpt>
      <trkpt lat="44.11702" lon="1.73824">
        <ele>339</ele>
        <time>2023-03-05T08:24:20Z</time>
      </trkpt>
      <trkpt lat="44.11699" lon="1.73818">
        <ele>339</ele>
        <time>2023-03-05T08:24:21Z</time>
      </trkpt>
      <trkpt lat="44.11698" lon="1.73812">
        <ele>339.2</ele>
        <time>2023-03-05T08:24:22Z</time>
      </trkpt>
      <trkpt lat="44.11696" lon="1.73806">
        <ele>339.4</ele>
        <time>2023-03-05T08:24:23Z</time>
      </trkpt>
      <trkpt lat="44.11693" lon="1.738">
        <ele>339.4</ele>
        <time>2023-03-05T08:24:24Z</time>
      </trkpt>
      <trkpt lat="44.11691" lon="1.73794">
        <ele>339.6</ele>
        <time>2023-03-05T08:24:25Z</time>
      </trkpt>
      <trkpt lat="44.11691" lon="1.7379">
        <ele>339.8</ele>
        <time>2023-03-05T08:24:26Z</time>
      </trkpt>
      <trkpt lat="44.11692" lon="1.73786">
        <ele>340</ele>
        <time>2023-03-05T08:24:27Z</time>
      </trkpt>
      <trkpt lat="44.11691" lon="1.7378">
        <ele>340.2</ele>
        <time>2023-03-05T08:24:28Z</time>
      </trkpt>
      <trkpt lat="44.1169" lon="1.73776">
        <ele>340.2</ele>
        <time>2023-03-05T08:24:29Z</time>
      </trkpt>
      <trkpt lat="44.11689" lon="1.73772">
        <ele>340.6</ele>
        <time>2023-03-05T08:24:30Z</time>
      </trkpt>
      <trkpt lat="44.11687" lon="1.73767">
        <ele>340.8</ele>
        <time>2023-03-05T08:24:31Z</time>
      </trkpt>
      <trkpt lat="44.11686" lon="1.73763">
        <ele>341</ele>
        <time>2023-03-05T08:24:32Z</time>
      </trkpt>
      <trkpt lat="44.11686" lon="1.73759">
        <ele>341.4</ele>
        <time>2023-03-05T08:24:33Z</time>
      </trkpt>
      <trkpt lat="44.11685" lon="1.73756">
        <ele>341.6</ele>
        <time>2023-03-05T08:24:34Z</time>
      </trkpt>
      <trkpt lat="44.11684" lon="1.73752">
        <ele>342</ele>
        <time>2023-03-05T08:24:35Z</time>
      </trkpt>
      <trkpt lat="44.11683" lon="1.73747">
        <ele>342.2</ele>
        <time>2023-03-05T08:24:36Z</time>
      </trkpt>
      <trkpt lat="44.11682" lon="1.73744">
        <ele>342.6</ele>
        <time>2023-03-05T08:24:37Z</time>
      </trkpt>
      <trkpt lat="44.11681" lon="1.7374">
        <ele>342.8</ele>
        <time>2023-03-05T08:24:38Z</time>
      </trkpt>
      <trkpt lat="44.1168" lon="1.73735">
        <ele>343.2</ele>
        <time>2023-03-05T08:24:39Z</time>
      </trkpt>
      <trkpt lat="44.11678" lon="1.73731">
        <ele>343.4</ele>
        <time>2023-03-05T08:24:40Z</time>
      </trkpt>
      <trkpt lat="44.11677" lon="1.73726">
        <ele>343.6</ele>
        <time>2023-03-05T08:24:41Z</time>
      </trkpt>
      <trkpt lat="44.11675" lon="1.73722">
        <ele>343.8</ele>
        <time>2023-03-05T08:24:42Z</time>
      </trkpt>
      <trkpt lat="44.11675" lon="1.73718">
        <ele>344</ele>
        <time>2023-03-05T08:24:43Z</time>
      </trkpt>
      <trkpt lat="44.11674" lon="1.73714">
        <ele>344</ele>
        <time>2023-03-05T08:24:44Z</time>
      </trkpt>
      <trkpt lat="44.11674" lon="1.7371">
        <ele>344.2</ele>
        <time>2023-03-05T08:24:45Z</time>
      </trkpt>
      <trkpt lat="44.11673" lon="1.73706">
        <ele>344.4</ele>
        <time>2023-03-05T08:24:46Z</time>
      </trkpt>
      <trkpt lat="44.11671" lon="1.737">
        <ele>344.6</ele>
        <time>2023-03-05T08:24:47Z</time>
      </trkpt>
      <trkpt lat="44.11668" lon="1.73695">
        <ele>345</ele>
        <time>2023-03-05T08:24:48Z</time>
      </trkpt>
      <trkpt lat="44.11666" lon="1.73689">
        <ele>345</ele>
        <time>2023-03-05T08:24:49Z</time>
      </trkpt>
      <trkpt lat="44.11664" lon="1.73683">
        <ele>345.2</ele>
        <time>2023-03-05T08:24:50Z</time>
      </trkpt>
      <trkpt lat="44.11663" lon="1.73677">
        <ele>345.4</ele>
        <time>2023-03-05T08:24:51Z</time>
      </trkpt>
      <trkpt lat="44.11661" lon="1.73671">
        <ele>345.6</ele>
        <time>2023-03-05T08:24:52Z</time>
      </trkpt>
      <trkpt lat="44.1166" lon="1.73666">
        <ele>345.8</ele>
        <time>2023-03-05T08:24:53Z</time>
      </trkpt>
      <trkpt lat="44.11659" lon="1.73662">
        <ele>345.8</ele>
        <time>2023-03-05T08:24:54Z</time>
      </trkpt>
      <trkpt lat="44.11658" lon="1.73658">
        <ele>345.8</ele>
        <time>2023-03-05T08:24:55Z</time>
      </trkpt>
      <trkpt lat="44.11656" lon="1.73654">
        <ele>346</ele>
        <time>2023-03-05T08:24:56Z</time>
      </trkpt>
      <trkpt lat="44.11655" lon="1.73649">
        <ele>346</ele>
        <time>2023-03-05T08:24:57Z</time>
      </trkpt>
      <trkpt lat="44.11653" lon="1.73645">
        <ele>346</ele>
        <time>2023-03-05T08:24:58Z</time>
      </trkpt>
      <trkpt lat="44.11652" lon="1.7364">
        <ele>346</ele>
        <time>2023-03-05T08:24:59Z</time>
      </trkpt>
      <trkpt lat="44.1165" lon="1.73633">
        <ele>346</ele>
        <time>2023-03-05T08:25:00Z</time>
      </trkpt>
      <trkpt lat="44.11649" lon="1.73628">
        <ele>346</ele>
        <time>2023-03-05T08:25:01Z</time>
      </trkpt>
      <trkpt lat="44.11648" lon="1.73624">
        <ele>346</ele>
        <time>2023-03-05T08:25:02Z</time>
      </trkpt>
      <trkpt lat="44.11647" lon="1.73618">
        <ele>346</ele>
        <time>2023-03-05T08:25:03Z</time>
      </trkpt>
      <trkpt lat="44.11645" lon="1.7361">
        <ele>346</ele>
        <time>2023-03-05T08:25:04Z</time>
      </trkpt>
      <trkpt lat="44.11643" lon="1.73604">
        <ele>346.2</ele>
        <time>2023-03-05T08:25:05Z</time>
      </trkpt>
      <trkpt lat="44.11641" lon="1.73598">
        <ele>346.2</ele>
        <time>2023-03-05T08:25:06Z</time>
      </trkpt>
      <trkpt lat="44.11639" lon="1.73592">
        <ele>346.2</ele>
        <time>2023-03-05T08:25:07Z</time>
      </trkpt>
      <trkpt lat="44.11638" lon="1.73587">
        <ele>346.2</ele>
        <time>2023-03-05T08:25:08Z</time>
      </trkpt>
      <trkpt lat="44.11636" lon="1.73581">
        <ele>346.2</ele>
        <time>2023-03-05T08:25:09Z</time>
      </trkpt>
      <trkpt lat="44.11635" lon="1.73576">
        <ele>346.4</ele>
        <time>2023-03-05T08:25:10Z</time>
      </trkpt>
      <trkpt lat="44.11634" lon="1.73571">
        <ele>346.4</ele>
        <time>2023-03-05T08:25:11Z</time>
      </trkpt>
      <trkpt lat="44.11632" lon="1.73565">
        <ele>346.4</ele>
        <time>2023-03-05T08:25:12Z</time>
      </trkpt>
      <trkpt lat="44.1163" lon="1.73559">
        <ele>346.4</ele>
        <time>2023-03-05T08:25:13Z</time>
      </trkpt>
      <trkpt lat="44.11628" lon="1.73554">
        <ele>346.4</ele>
        <time>2023-03-05T08:25:14Z</time>
      </trkpt>
      <trkpt lat="44.11627" lon="1.73548">
        <ele>346.4</ele>
        <time>2023-03-05T08:25:15Z</time>
      </trkpt>
      <trkpt lat="44.11625" lon="1.73543">
        <ele>346.4</ele>
        <time>2023-03-05T08:25:16Z</time>
      </trkpt>
      <trkpt lat="44.11623" lon="1.73536">
        <ele>346.4</ele>
        <time>2023-03-05T08:25:17Z</time>
      </trkpt>
      <trkpt lat="44.11621" lon="1.7353">
        <ele>346.4</ele>
        <time>2023-03-05T08:25:18Z</time>
      </trkpt>
      <trkpt lat="44.1162" lon="1.73523">
        <ele>346.4</ele>
        <time>2023-03-05T08:25:19Z</time>
      </trkpt>
      <trkpt lat="44.11618" lon="1.73517">
        <ele>346.4</ele>
        <time>2023-03-05T08:25:20Z</time>
      </trkpt>
      <trkpt lat="44.11616" lon="1.7351">
        <ele>346.4</ele>
        <time>2023-03-05T08:25:21Z</time>
      </trkpt>
      <trkpt lat="44.11614" lon="1.73503">
        <ele>346</ele>
        <time>2023-03-05T08:25:22Z</time>
      </trkpt>
      <trkpt lat="44.11612" lon="1.73496">
        <ele>345.6</ele>
        <time>2023-03-05T08:25:23Z</time>
      </trkpt>
      <trkpt lat="44.1161" lon="1.73488">
        <ele>345.2</ele>
        <time>2023-03-05T08:25:24Z</time>
      </trkpt>
      <trkpt lat="44.11608" lon="1.7348">
        <ele>345</ele>
        <time>2023-03-05T08:25:25Z</time>
      </trkpt>
      <trkpt lat="44.11606" lon="1.73471">
        <ele>344.8</ele>
        <time>2023-03-05T08:25:26Z</time>
      </trkpt>
      <trkpt lat="44.11605" lon="1.73463">
        <ele>344.4</ele>
        <time>2023-03-05T08:25:27Z</time>
      </trkpt>
      <trkpt lat="44.11603" lon="1.73456">
        <ele>344.4</ele>
        <time>2023-03-05T08:25:28Z</time>
      </trkpt>
      <trkpt lat="44.11602" lon="1.73449">
        <ele>344.2</ele>
        <time>2023-03-05T08:25:29Z</time>
      </trkpt>
      <trkpt lat="44.116" lon="1.73443">
        <ele>343.8</ele>
        <time>2023-03-05T08:25:30Z</time>
      </trkpt>
      <trkpt lat="44.11598" lon="1.73437">
        <ele>343.4</ele>
        <time>2023-03-05T08:25:31Z</time>
      </trkpt>
      <trkpt lat="44.11596" lon="1.73432">
        <ele>343.2</ele>
        <time>2023-03-05T08:25:32Z</time>
      </trkpt>
      <trkpt lat="44.11594" lon="1.73427">
        <ele>343.2</ele>
        <time>2023-03-05T08:25:33Z</time>
      </trkpt>
      <trkpt lat="44.11592" lon="1.73422">
        <ele>343</ele>
        <time>2023-03-05T08:25:34Z</time>
      </trkpt>
      <trkpt lat="44.11591" lon="1.73416">
        <ele>343</ele>
        <time>2023-03-05T08:25:35Z</time>
      </trkpt>
      <trkpt lat="44.11588" lon="1.7341">
        <ele>343</ele>
        <time>2023-03-05T08:25:36Z</time>
      </trkpt>
      <trkpt lat="44.11587" lon="1.73404">
        <ele>343</ele>
        <time>2023-03-05T08:25:37Z</time>
      </trkpt>
      <trkpt lat="44.11586" lon="1.73397">
        <ele>343</ele>
        <time>2023-03-05T08:25:38Z</time>
      </trkpt>
      <trkpt lat="44.11584" lon="1.73392">
        <ele>343</ele>
        <time>2023-03-05T08:25:39Z</time>
      </trkpt>
      <trkpt lat="44.11582" lon="1.73386">
        <ele>343.2</ele>
        <time>2023-03-05T08:25:40Z</time>
      </trkpt>
      <trkpt lat="44.11581" lon="1.73379">
        <ele>343.2</ele>
        <time>2023-03-05T08:25:41Z</time>
      </trkpt>
      <trkpt lat="44.11579" lon="1.73372">
        <ele>343.6</ele>
        <time>2023-03-05T08:25:42Z</time>
      </trkpt>
      <trkpt lat="44.11578" lon="1.73367">
        <ele>343.6</ele>
        <time>2023-03-05T08:25:43Z</time>
      </trkpt>
      <trkpt lat="44.11576" lon="1.7336">
        <ele>343.8</ele>
        <time>2023-03-05T08:25:44Z</time>
      </trkpt>
      <trkpt lat="44.11574" lon="1.73354">
        <ele>343.8</ele>
        <time>2023-03-05T08:25:45Z</time>
      </trkpt>
      <trkpt lat="44.11572" lon="1.73349">
        <ele>343.8</ele>
        <time>2023-03-05T08:25:46Z</time>
      </trkpt>
      <trkpt lat="44.11568" lon="1.73344">
        <ele>343.8</ele>
        <time>2023-03-05T08:25:47Z</time>
      </trkpt>
      <trkpt lat="44.11565" lon="1.73341">
        <ele>344</ele>
        <time>2023-03-05T08:25:48Z</time>
      </trkpt>
      <trkpt lat="44.1156" lon="1.73339">
        <ele>344</ele>
        <time>2023-03-05T08:25:49Z</time>
      </trkpt>
      <trkpt lat="44.11556" lon="1.73338">
        <ele>343.8</ele>
        <time>2023-03-05T08:25:50Z</time>
      </trkpt>
      <trkpt lat="44.11552" lon="1.73337">
        <ele>343.8</ele>
        <time>2023-03-05T08:25:51Z</time>
      </trkpt>
      <trkpt lat="44.11548" lon="1.73337">
        <ele>343.8</ele>
        <time>2023-03-05T08:25:52Z</time>
      </trkpt>
      <trkpt lat="44.11544" lon="1.73337">
        <ele>343.6</ele>
        <time>2023-03-05T08:25:53Z</time>
      </trkpt>
      <trkpt lat="44.11539" lon="1.73336">
        <ele>343.4</ele>
        <time>2023-03-05T08:25:54Z</time>
      </trkpt>
      <trkpt lat="44.11535" lon="1.73336">
        <ele>343.2</ele>
        <time>2023-03-05T08:25:55Z</time>
      </trkpt>
      <trkpt lat="44.11531" lon="1.73337">
        <ele>343.2</ele>
        <time>2023-03-05T08:25:56Z</time>
      </trkpt>
      <trkpt lat="44.11527" lon="1.73338">
        <ele>343.2</ele>
        <time>2023-03-05T08:25:57Z</time>
      </trkpt>
      <trkpt lat="44.11522" lon="1.73339">
        <ele>343.2</ele>
        <time>2023-03-05T08:25:58Z</time>
      </trkpt>
      <trkpt lat="44.11517" lon="1.73341">
        <ele>343</ele>
        <time>2023-03-05T08:25:59Z</time>
      </trkpt>
      <trkpt lat="44.11513" lon="1.73343">
        <ele>343</ele>
        <time>2023-03-05T08:26:00Z</time>
      </trkpt>
      <trkpt lat="44.11508" lon="1.73346">
        <ele>343</ele>
        <time>2023-03-05T08:26:01Z</time>
      </trkpt>
      <trkpt lat="44.11503" lon="1.73349">
        <ele>343</ele>
        <time>2023-03-05T08:26:02Z</time>
      </trkpt>
      <trkpt lat="44.11498" lon="1.73352">
        <ele>342.8</ele>
        <time>2023-03-05T08:26:03Z</time>
      </trkpt>
      <trkpt lat="44.11493" lon="1.73354">
        <ele>342.8</ele>
        <time>2023-03-05T08:26:04Z</time>
      </trkpt>
      <trkpt lat="44.11488" lon="1.73356">
        <ele>342.8</ele>
        <time>2023-03-05T08:26:05Z</time>
      </trkpt>
      <trkpt lat="44.11484" lon="1.73358">
        <ele>342.8</ele>
        <time>2023-03-05T08:26:06Z</time>
      </trkpt>
      <trkpt lat="44.11479" lon="1.7336">
        <ele>342.6</ele>
        <time>2023-03-05T08:26:07Z</time>
      </trkpt>
      <trkpt lat="44.11475" lon="1.73362">
        <ele>342.4</ele>
        <time>2023-03-05T08:26:08Z</time>
      </trkpt>
      <trkpt lat="44.11471" lon="1.73365">
        <ele>342.2</ele>
        <time>2023-03-05T08:26:09Z</time>
      </trkpt>
      <trkpt lat="44.11466" lon="1.73367">
        <ele>342.2</ele>
        <time>2023-03-05T08:26:10Z</time>
      </trkpt>
      <trkpt lat="44.11462" lon="1.7337">
        <ele>342.2</ele>
        <time>2023-03-05T08:26:11Z</time>
      </trkpt>
      <trkpt lat="44.11458" lon="1.73372">
        <ele>342.2</ele>
        <time>2023-03-05T08:26:12Z</time>
      </trkpt>
      <trkpt lat="44.11454" lon="1.73375">
        <ele>342.2</ele>
        <time>2023-03-05T08:26:13Z</time>
      </trkpt>
      <trkpt lat="44.1145" lon="1.73378">
        <ele>342.2</ele>
        <time>2023-03-05T08:26:14Z</time>
      </trkpt>
      <trkpt lat="44.11447" lon="1.73382">
        <ele>342.2</ele>
        <time>2023-03-05T08:26:15Z</time>
      </trkpt>
      <trkpt lat="44.11443" lon="1.73385">
        <ele>342.2</ele>
        <time>2023-03-05T08:26:16Z</time>
      </trkpt>
      <trkpt lat="44.11439" lon="1.73388">
        <ele>342.2</ele>
        <time>2023-03-05T08:26:17Z</time>
      </trkpt>
      <trkpt lat="44.11435" lon="1.73392">
        <ele>342.2</ele>
        <time>2023-03-05T08:26:18Z</time>
      </trkpt>
      <trkpt lat="44.11431" lon="1.73396">
        <ele>342.4</ele>
        <time>2023-03-05T08:26:19Z</time>
      </trkpt>
      <trkpt lat="44.11428" lon="1.734">
        <ele>342.4</ele>
        <time>2023-03-05T08:26:20Z</time>
      </trkpt>
      <trkpt lat="44.11424" lon="1.73404">
        <ele>342.4</ele>
        <time>2023-03-05T08:26:21Z</time>
      </trkpt>
      <trkpt lat="44.1142" lon="1.73407">
        <ele>342.6</ele>
        <time>2023-03-05T08:26:22Z</time>
      </trkpt>
      <trkpt lat="44.11417" lon="1.73411">
        <ele>342.8</ele>
        <time>2023-03-05T08:26:23Z</time>
      </trkpt>
      <trkpt lat="44.11413" lon="1.73413">
        <ele>342.8</ele>
        <time>2023-03-05T08:26:24Z</time>
      </trkpt>
      <trkpt lat="44.1141" lon="1.73416">
        <ele>342.8</ele>
        <time>2023-03-05T08:26:25Z</time>
      </trkpt>
      <trkpt lat="44.11406" lon="1.73418">
        <ele>343</ele>
        <time>2023-03-05T08:26:26Z</time>
      </trkpt>
      <trkpt lat="44.11403" lon="1.7342">
        <ele>343</ele>
        <time>2023-03-05T08:26:27Z</time>
      </trkpt>
      <trkpt lat="44.11399" lon="1.73423">
        <ele>343</ele>
        <time>2023-03-05T08:26:28Z</time>
      </trkpt>
      <trkpt lat="44.11396" lon="1.73425">
        <ele>343.2</ele>
        <time>2023-03-05T08:26:29Z</time>
      </trkpt>
      <trkpt lat="44.11393" lon="1.73428">
        <ele>343.2</ele>
        <time>2023-03-05T08:26:30Z</time>
      </trkpt>
      <trkpt lat="44.1139" lon="1.73431">
        <ele>343.6</ele>
        <time>2023-03-05T08:26:31Z</time>
      </trkpt>
      <trkpt lat="44.11387" lon="1.73433">
        <ele>343.8</ele>
        <time>2023-03-05T08:26:32Z</time>
      </trkpt>
      <trkpt lat="44.11383" lon="1.73435">
        <ele>344.4</ele>
        <time>2023-03-05T08:26:33Z</time>
      </trkpt>
      <trkpt lat="44.1138" lon="1.73436">
        <ele>344.6</ele>
        <time>2023-03-05T08:26:34Z</time>
      </trkpt>
      <trkpt lat="44.11377" lon="1.73436">
        <ele>345</ele>
        <time>2023-03-05T08:26:35Z</time>
      </trkpt>
      <trkpt lat="44.11374" lon="1.73436">
        <ele>345.2</ele>
        <time>2023-03-05T08:26:36Z</time>
      </trkpt>
      <trkpt lat="44.1137" lon="1.73436">
        <ele>345.4</ele>
        <time>2023-03-05T08:26:37Z</time>
      </trkpt>
      <trkpt lat="44.11367" lon="1.73436">
        <ele>345.4</ele>
        <time>2023-03-05T08:26:38Z</time>
      </trkpt>
      <trkpt lat="44.11363" lon="1.73435">
        <ele>345.6</ele>
        <time>2023-03-05T08:26:39Z</time>
      </trkpt>
      <trkpt lat="44.11359" lon="1.73435">
        <ele>345.8</ele>
        <time>2023-03-05T08:26:40Z</time>
      </trkpt>
      <trkpt lat="44.11355" lon="1.73434">
        <ele>346</ele>
        <time>2023-03-05T08:26:41Z</time>
      </trkpt>
      <trkpt lat="44.11351" lon="1.73434">
        <ele>346.2</ele>
        <time>2023-03-05T08:26:42Z</time>
      </trkpt>
      <trkpt lat="44.11347" lon="1.73434">
        <ele>346.2</ele>
        <time>2023-03-05T08:26:43Z</time>
      </trkpt>
      <trkpt lat="44.11343" lon="1.73433">
        <ele>346.4</ele>
        <time>2023-03-05T08:26:44Z</time>
      </trkpt>
      <trkpt lat="44.11339" lon="1.73432">
        <ele>346.6</ele>
        <time>2023-03-05T08:26:45Z</time>
      </trkpt>
      <trkpt lat="44.11334" lon="1.7343">
        <ele>346.8</ele>
        <time>2023-03-05T08:26:46Z</time>
      </trkpt>
      <trkpt lat="44.1133" lon="1.73429">
        <ele>346.8</ele>
        <time>2023-03-05T08:26:47Z</time>
      </trkpt>
      <trkpt lat="44.11325" lon="1.73428">
        <ele>347</ele>
        <time>2023-03-05T08:26:48Z</time>
      </trkpt>
      <trkpt lat="44.11321" lon="1.73428">
        <ele>347</ele>
        <time>2023-03-05T08:26:49Z</time>
      </trkpt>
      <trkpt lat="44.11316" lon="1.73428">
        <ele>346.8</ele>
        <time>2023-03-05T08:26:50Z</time>
      </trkpt>
      <trkpt lat="44.11311" lon="1.73427">
        <ele>346.8</ele>
        <time>2023-03-05T08:26:51Z</time>
      </trkpt>
      <trkpt lat="44.11306" lon="1.73427">
        <ele>346.8</ele>
        <time>2023-03-05T08:26:52Z</time>
      </trkpt>
      <trkpt lat="44.11301" lon="1.73426">
        <ele>346.6</ele>
        <time>2023-03-05T08:26:53Z</time>
      </trkpt>
      <trkpt lat="44.11296" lon="1.73426">
        <ele>346.4</ele>
        <time>2023-03-05T08:26:54Z</time>
      </trkpt>
      <trkpt lat="44.11291" lon="1.73425">
        <ele>346.2</ele>
        <time>2023-03-05T08:26:55Z</time>
      </trkpt>
      <trkpt lat="44.11285" lon="1.73424">
        <ele>346.2</ele>
        <time>2023-03-05T08:26:56Z</time>
      </trkpt>
      <trkpt lat="44.1128" lon="1.73424">
        <ele>346.2</ele>
        <time>2023-03-05T08:26:57Z</time>
      </trkpt>
      <trkpt lat="44.11275" lon="1.73424">
        <ele>346</ele>
        <time>2023-03-05T08:26:58Z</time>
      </trkpt>
      <trkpt lat="44.11269" lon="1.73425">
        <ele>345.8</ele>
        <time>2023-03-05T08:26:59Z</time>
      </trkpt>
      <trkpt lat="44.11263" lon="1.73425">
        <ele>345.6</ele>
        <time>2023-03-05T08:27:00Z</time>
      </trkpt>
      <trkpt lat="44.11258" lon="1.73425">
        <ele>345.2</ele>
        <time>2023-03-05T08:27:01Z</time>
      </trkpt>
      <trkpt lat="44.11252" lon="1.73424">
        <ele>345</ele>
        <time>2023-03-05T08:27:02Z</time>
      </trkpt>
      <trkpt lat="44.11247" lon="1.73423">
        <ele>344.8</ele>
        <time>2023-03-05T08:27:03Z</time>
      </trkpt>
      <trkpt lat="44.11241" lon="1.73421">
        <ele>344.6</ele>
        <time>2023-03-05T08:27:04Z</time>
      </trkpt>
      <trkpt lat="44.11236" lon="1.7342">
        <ele>344.2</ele>
        <time>2023-03-05T08:27:05Z</time>
      </trkpt>
      <trkpt lat="44.1123" lon="1.73419">
        <ele>344.2</ele>
        <time>2023-03-05T08:27:06Z</time>
      </trkpt>
      <trkpt lat="44.11225" lon="1.73418">
        <ele>344</ele>
        <time>2023-03-05T08:27:07Z</time>
      </trkpt>
      <trkpt lat="44.11219" lon="1.73416">
        <ele>344</ele>
        <time>2023-03-05T08:27:08Z</time>
      </trkpt>
      <trkpt lat="44.11214" lon="1.73414">
        <ele>343.6</ele>
        <time>2023-03-05T08:27:09Z</time>
      </trkpt>
      <trkpt lat="44.11208" lon="1.73411">
        <ele>343.4</ele>
        <time>2023-03-05T08:27:10Z</time>
      </trkpt>
      <trkpt lat="44.11202" lon="1.7341">
        <ele>343.2</ele>
        <time>2023-03-05T08:27:11Z</time>
      </trkpt>
      <trkpt lat="44.11196" lon="1.7341">
        <ele>342.8</ele>
        <time>2023-03-05T08:27:12Z</time>
      </trkpt>
      <trkpt lat="44.1119" lon="1.7341">
        <ele>342.6</ele>
        <time>2023-03-05T08:27:13Z</time>
      </trkpt>
      <trkpt lat="44.11184" lon="1.73409">
        <ele>342.4</ele>
        <time>2023-03-05T08:27:14Z</time>
      </trkpt>
      <trkpt lat="44.11178" lon="1.73407">
        <ele>342.2</ele>
        <time>2023-03-05T08:27:15Z</time>
      </trkpt>
      <trkpt lat="44.11173" lon="1.73407">
        <ele>342.2</ele>
        <time>2023-03-05T08:27:16Z</time>
      </trkpt>
      <trkpt lat="44.11167" lon="1.73408">
        <ele>342</ele>
        <time>2023-03-05T08:27:17Z</time>
      </trkpt>
      <trkpt lat="44.11161" lon="1.7341">
        <ele>341.6</ele>
        <time>2023-03-05T08:27:18Z</time>
      </trkpt>
      <trkpt lat="44.11156" lon="1.73413">
        <ele>341.4</ele>
        <time>2023-03-05T08:27:19Z</time>
      </trkpt>
      <trkpt lat="44.1115" lon="1.73414">
        <ele>340.6</ele>
        <time>2023-03-05T08:27:20Z</time>
      </trkpt>
      <trkpt lat="44.11145" lon="1.73415">
        <ele>340.2</ele>
        <time>2023-03-05T08:27:21Z</time>
      </trkpt>
      <trkpt lat="44.11139" lon="1.73414">
        <ele>340</ele>
        <time>2023-03-05T08:27:22Z</time>
      </trkpt>
      <trkpt lat="44.11133" lon="1.73415">
        <ele>339.8</ele>
        <time>2023-03-05T08:27:23Z</time>
      </trkpt>
      <trkpt lat="44.11127" lon="1.73418">
        <ele>339.6</ele>
        <time>2023-03-05T08:27:24Z</time>
      </trkpt>
      <trkpt lat="44.11123" lon="1.73422">
        <ele>339.4</ele>
        <time>2023-03-05T08:27:25Z</time>
      </trkpt>
      <trkpt lat="44.1112" lon="1.73427">
        <ele>339.2</ele>
        <time>2023-03-05T08:27:26Z</time>
      </trkpt>
      <trkpt lat="44.11118" lon="1.73433">
        <ele>339.2</ele>
        <time>2023-03-05T08:27:27Z</time>
      </trkpt>
      <trkpt lat="44.11117" lon="1.73439">
        <ele>339</ele>
        <time>2023-03-05T08:27:28Z</time>
      </trkpt>
      <trkpt lat="44.11117" lon="1.73445">
        <ele>339</ele>
        <time>2023-03-05T08:27:29Z</time>
      </trkpt>
      <trkpt lat="44.11117" lon="1.73451">
        <ele>338.8</ele>
        <time>2023-03-05T08:27:30Z</time>
      </trkpt>
      <trkpt lat="44.11116" lon="1.73457">
        <ele>338.8</ele>
        <time>2023-03-05T08:27:31Z</time>
      </trkpt>
      <trkpt lat="44.11116" lon="1.73463">
        <ele>338.8</ele>
        <time>2023-03-05T08:27:32Z</time>
      </trkpt>
      <trkpt lat="44.11115" lon="1.73469">
        <ele>338.8</ele>
        <time>2023-03-05T08:27:33Z</time>
      </trkpt>
      <trkpt lat="44.11114" lon="1.73476">
        <ele>338.6</ele>
        <time>2023-03-05T08:27:34Z</time>
      </trkpt>
      <trkpt lat="44.11113" lon="1.73482">
        <ele>338.6</ele>
        <time>2023-03-05T08:27:35Z</time>
      </trkpt>
      <trkpt lat="44.11111" lon="1.73488">
        <ele>338.6</ele>
        <time>2023-03-05T08:27:36Z</time>
      </trkpt>
      <trkpt lat="44.11109" lon="1.73494">
        <ele>338.6</ele>
        <time>2023-03-05T08:27:37Z</time>
      </trkpt>
      <trkpt lat="44.11107" lon="1.73499">
        <ele>338.8</ele>
        <time>2023-03-05T08:27:38Z</time>
      </trkpt>
      <trkpt lat="44.11105" lon="1.73504">
        <ele>338.8</ele>
        <time>2023-03-05T08:27:39Z</time>
      </trkpt>
      <trkpt lat="44.11103" lon="1.73509">
        <ele>338.8</ele>
        <time>2023-03-05T08:27:40Z</time>
      </trkpt>
      <trkpt lat="44.11102" lon="1.73515">
        <ele>338.8</ele>
        <time>2023-03-05T08:27:41Z</time>
      </trkpt>
      <trkpt lat="44.11101" lon="1.73521">
        <ele>338.8</ele>
        <time>2023-03-05T08:27:42Z</time>
      </trkpt>
      <trkpt lat="44.111" lon="1.73527">
        <ele>339.2</ele>
        <time>2023-03-05T08:27:43Z</time>
      </trkpt>
      <trkpt lat="44.11099" lon="1.73534">
        <ele>339.2</ele>
        <time>2023-03-05T08:27:44Z</time>
      </trkpt>
      <trkpt lat="44.11098" lon="1.7354">
        <ele>339.2</ele>
        <time>2023-03-05T08:27:45Z</time>
      </trkpt>
      <trkpt lat="44.11097" lon="1.73547">
        <ele>339.4</ele>
        <time>2023-03-05T08:27:46Z</time>
      </trkpt>
      <trkpt lat="44.11096" lon="1.73553">
        <ele>339.6</ele>
        <time>2023-03-05T08:27:47Z</time>
      </trkpt>
      <trkpt lat="44.11096" lon="1.7356">
        <ele>339.8</ele>
        <time>2023-03-05T08:27:48Z</time>
      </trkpt>
      <trkpt lat="44.11096" lon="1.73566">
        <ele>339.8</ele>
        <time>2023-03-05T08:27:49Z</time>
      </trkpt>
      <trkpt lat="44.11097" lon="1.73572">
        <ele>339.8</ele>
        <time>2023-03-05T08:27:50Z</time>
      </trkpt>
      <trkpt lat="44.11097" lon="1.73579">
        <ele>339.8</ele>
        <time>2023-03-05T08:27:51Z</time>
      </trkpt>
      <trkpt lat="44.11096" lon="1.73585">
        <ele>339.8</ele>
        <time>2023-03-05T08:27:52Z</time>
      </trkpt>
      <trkpt lat="44.11095" lon="1.73592">
        <ele>339.8</ele>
        <time>2023-03-05T08:27:53Z</time>
      </trkpt>
      <trkpt lat="44.11094" lon="1.73598">
        <ele>339.8</ele>
        <time>2023-03-05T08:27:54Z</time>
      </trkpt>
      <trkpt lat="44.11093" lon="1.73605">
        <ele>339.8</ele>
        <time>2023-03-05T08:27:55Z</time>
      </trkpt>
      <trkpt lat="44.11092" lon="1.73612">
        <ele>339.8</ele>
        <time>2023-03-05T08:27:56Z</time>
      </trkpt>
      <trkpt lat="44.11091" lon="1.73619">
        <ele>339.8</ele>
        <time>2023-03-05T08:27:57Z</time>
      </trkpt>
      <trkpt lat="44.11091" lon="1.73626">
        <ele>339.6</ele>
        <time>2023-03-05T08:27:58Z</time>
      </trkpt>
      <trkpt lat="44.1109" lon="1.73634">
        <ele>339.6</ele>
        <time>2023-03-05T08:27:59Z</time>
      </trkpt>
      <trkpt lat="44.1109" lon="1.73641">
        <ele>339.4</ele>
        <time>2023-03-05T08:28:00Z</time>
      </trkpt>
      <trkpt lat="44.11089" lon="1.73648">
        <ele>339.2</ele>
        <time>2023-03-05T08:28:01Z</time>
      </trkpt>
      <trkpt lat="44.11089" lon="1.73656">
        <ele>339</ele>
        <time>2023-03-05T08:28:02Z</time>
      </trkpt>
      <trkpt lat="44.11088" lon="1.73663">
        <ele>339</ele>
        <time>2023-03-05T08:28:03Z</time>
      </trkpt>
      <trkpt lat="44.11086" lon="1.73669">
        <ele>339</ele>
        <time>2023-03-05T08:28:04Z</time>
      </trkpt>
      <trkpt lat="44.11084" lon="1.73675">
        <ele>338.8</ele>
        <time>2023-03-05T08:28:05Z</time>
      </trkpt>
      <trkpt lat="44.11082" lon="1.73683">
        <ele>338.6</ele>
        <time>2023-03-05T08:28:06Z</time>
      </trkpt>
      <trkpt lat="44.11079" lon="1.73689">
        <ele>338.6</ele>
        <time>2023-03-05T08:28:07Z</time>
      </trkpt>
      <trkpt lat="44.11078" lon="1.73695">
        <ele>338.4</ele>
        <time>2023-03-05T08:28:08Z</time>
      </trkpt>
      <trkpt lat="44.11076" lon="1.73701">
        <ele>338.4</ele>
        <time>2023-03-05T08:28:09Z</time>
      </trkpt>
      <trkpt lat="44.11074" lon="1.73706">
        <ele>338.4</ele>
        <time>2023-03-05T08:28:10Z</time>
      </trkpt>
      <trkpt lat="44.11073" lon="1.73713">
        <ele>338.2</ele>
        <time>2023-03-05T08:28:11Z</time>
      </trkpt>
      <trkpt lat="44.11072" lon="1.73719">
        <ele>338</ele>
        <time>2023-03-05T08:28:12Z</time>
      </trkpt>
      <trkpt lat="44.1107" lon="1.73728">
        <ele>337.8</ele>
        <time>2023-03-05T08:28:13Z</time>
      </trkpt>
      <trkpt lat="44.11069" lon="1.73735">
        <ele>337.8</ele>
        <time>2023-03-05T08:28:14Z</time>
      </trkpt>
      <trkpt lat="44.11067" lon="1.73742">
        <ele>337.6</ele>
        <time>2023-03-05T08:28:15Z</time>
      </trkpt>
      <trkpt lat="44.11066" lon="1.73749">
        <ele>337.6</ele>
        <time>2023-03-05T08:28:16Z</time>
      </trkpt>
      <trkpt lat="44.11065" lon="1.73756">
        <ele>337.6</ele>
        <time>2023-03-05T08:28:17Z</time>
      </trkpt>
      <trkpt lat="44.11063" lon="1.73763">
        <ele>337.6</ele>
        <time>2023-03-05T08:28:18Z</time>
      </trkpt>
      <trkpt lat="44.11062" lon="1.73771">
        <ele>337.4</ele>
        <time>2023-03-05T08:28:19Z</time>
      </trkpt>
      <trkpt lat="44.1106" lon="1.73778">
        <ele>337.4</ele>
        <time>2023-03-05T08:28:20Z</time>
      </trkpt>
      <trkpt lat="44.11058" lon="1.73784">
        <ele>337.6</ele>
        <time>2023-03-05T08:28:21Z</time>
      </trkpt>
      <trkpt lat="44.11056" lon="1.73789">
        <ele>337.6</ele>
        <time>2023-03-05T08:28:22Z</time>
      </trkpt>
      <trkpt lat="44.11054" lon="1.73796">
        <ele>337.6</ele>
        <time>2023-03-05T08:28:23Z</time>
      </trkpt>
      <trkpt lat="44.11052" lon="1.73803">
        <ele>337.6</ele>
        <time>2023-03-05T08:28:24Z</time>
      </trkpt>
      <trkpt lat="44.1105" lon="1.7381">
        <ele>337.6</ele>
        <time>2023-03-05T08:28:25Z</time>
      </trkpt>
      <trkpt lat="44.11048" lon="1.73816">
        <ele>337.6</ele>
        <time>2023-03-05T08:28:26Z</time>
      </trkpt>
      <trkpt lat="44.11046" lon="1.73821">
        <ele>337.4</ele>
        <time>2023-03-05T08:28:27Z</time>
      </trkpt>
      <trkpt lat="44.11042" lon="1.73824">
        <ele>337.2</ele>
        <time>2023-03-05T08:28:28Z</time>
      </trkpt>
      <trkpt lat="44.11037" lon="1.73824">
        <ele>337</ele>
        <time>2023-03-05T08:28:29Z</time>
      </trkpt>
      <trkpt lat="44.11033" lon="1.73821">
        <ele>336.8</ele>
        <time>2023-03-05T08:28:30Z</time>
      </trkpt>
      <trkpt lat="44.11029" lon="1.73818">
        <ele>336.8</ele>
        <time>2023-03-05T08:28:31Z</time>
      </trkpt>
      <trkpt lat="44.11024" lon="1.73814">
        <ele>336.6</ele>
        <time>2023-03-05T08:28:32Z</time>
      </trkpt>
      <trkpt lat="44.11019" lon="1.73811">
        <ele>336.6</ele>
        <time>2023-03-05T08:28:33Z</time>
      </trkpt>
      <trkpt lat="44.11014" lon="1.73809">
        <ele>336.4</ele>
        <time>2023-03-05T08:28:34Z</time>
      </trkpt>
      <trkpt lat="44.11008" lon="1.73807">
        <ele>336.2</ele>
        <time>2023-03-05T08:28:35Z</time>
      </trkpt>
      <trkpt lat="44.11003" lon="1.73806">
        <ele>336</ele>
        <time>2023-03-05T08:28:36Z</time>
      </trkpt>
      <trkpt lat="44.10998" lon="1.73804">
        <ele>336</ele>
        <time>2023-03-05T08:28:37Z</time>
      </trkpt>
      <trkpt lat="44.10993" lon="1.73802">
        <ele>335.8</ele>
        <time>2023-03-05T08:28:38Z</time>
      </trkpt>
      <trkpt lat="44.10989" lon="1.73799">
        <ele>335.6</ele>
        <time>2023-03-05T08:28:39Z</time>
      </trkpt>
      <trkpt lat="44.10983" lon="1.73796">
        <ele>335.4</ele>
        <time>2023-03-05T08:28:40Z</time>
      </trkpt>
      <trkpt lat="44.10978" lon="1.73792">
        <ele>335.4</ele>
        <time>2023-03-05T08:28:41Z</time>
      </trkpt>
      <trkpt lat="44.10973" lon="1.73789">
        <ele>335.2</ele>
        <time>2023-03-05T08:28:42Z</time>
      </trkpt>
      <trkpt lat="44.10967" lon="1.73786">
        <ele>335</ele>
        <time>2023-03-05T08:28:43Z</time>
      </trkpt>
      <trkpt lat="44.10962" lon="1.73783">
        <ele>335</ele>
        <time>2023-03-05T08:28:44Z</time>
      </trkpt>
      <trkpt lat="44.10956" lon="1.7378">
        <ele>334.6</ele>
        <time>2023-03-05T08:28:45Z</time>
      </trkpt>
      <trkpt lat="44.1095" lon="1.73777">
        <ele>334.6</ele>
        <time>2023-03-05T08:28:46Z</time>
      </trkpt>
      <trkpt lat="44.10945" lon="1.73774">
        <ele>334.2</ele>
        <time>2023-03-05T08:28:47Z</time>
      </trkpt>
      <trkpt lat="44.10939" lon="1.7377">
        <ele>334.2</ele>
        <time>2023-03-05T08:28:48Z</time>
      </trkpt>
      <trkpt lat="44.10933" lon="1.73767">
        <ele>334</ele>
        <time>2023-03-05T08:28:49Z</time>
      </trkpt>
      <trkpt lat="44.10928" lon="1.73763">
        <ele>333.8</ele>
        <time>2023-03-05T08:28:50Z</time>
      </trkpt>
      <trkpt lat="44.10923" lon="1.7376">
        <ele>333.8</ele>
        <time>2023-03-05T08:28:51Z</time>
      </trkpt>
      <trkpt lat="44.10917" lon="1.73757">
        <ele>333.8</ele>
        <time>2023-03-05T08:28:52Z</time>
      </trkpt>
      <trkpt lat="44.10912" lon="1.73754">
        <ele>333.6</ele>
        <time>2023-03-05T08:28:53Z</time>
      </trkpt>
      <trkpt lat="44.10906" lon="1.73752">
        <ele>333.6</ele>
        <time>2023-03-05T08:28:54Z</time>
      </trkpt>
      <trkpt lat="44.109" lon="1.73749">
        <ele>333.2</ele>
        <time>2023-03-05T08:28:55Z</time>
      </trkpt>
      <trkpt lat="44.10895" lon="1.73746">
        <ele>333</ele>
        <time>2023-03-05T08:28:56Z</time>
      </trkpt>
      <trkpt lat="44.10889" lon="1.73743">
        <ele>332.8</ele>
        <time>2023-03-05T08:28:57Z</time>
      </trkpt>
      <trkpt lat="44.10884" lon="1.7374">
        <ele>332.8</ele>
        <time>2023-03-05T08:28:58Z</time>
      </trkpt>
      <trkpt lat="44.10878" lon="1.73737">
        <ele>332.6</ele>
        <time>2023-03-05T08:28:59Z</time>
      </trkpt>
      <trkpt lat="44.10873" lon="1.73733">
        <ele>332.6</ele>
        <time>2023-03-05T08:29:00Z</time>
      </trkpt>
      <trkpt lat="44.10868" lon="1.7373">
        <ele>332.6</ele>
        <time>2023-03-05T08:29:01Z</time>
      </trkpt>
      <trkpt lat="44.10862" lon="1.73727">
        <ele>332.8</ele>
        <time>2023-03-05T08:29:02Z</time>
      </trkpt>
      <trkpt lat="44.10857" lon="1.73723">
        <ele>332.8</ele>
        <time>2023-03-05T08:29:03Z</time>
      </trkpt>
      <trkpt lat="44.10851" lon="1.7372">
        <ele>332.8</ele>
        <time>2023-03-05T08:29:04Z</time>
      </trkpt>
      <trkpt lat="44.10846" lon="1.73716">
        <ele>332.8</ele>
        <time>2023-03-05T08:29:05Z</time>
      </trkpt>
      <trkpt lat="44.1084" lon="1.73713">
        <ele>333</ele>
        <time>2023-03-05T08:29:06Z</time>
      </trkpt>
      <trkpt lat="44.10835" lon="1.73709">
        <ele>333</ele>
        <time>2023-03-05T08:29:07Z</time>
      </trkpt>
      <trkpt lat="44.1083" lon="1.73705">
        <ele>333.2</ele>
        <time>2023-03-05T08:29:08Z</time>
      </trkpt>
      <trkpt lat="44.10824" lon="1.73701">
        <ele>333.2</ele>
        <time>2023-03-05T08:29:09Z</time>
      </trkpt>
      <trkpt lat="44.10819" lon="1.73698">
        <ele>333.4</ele>
        <time>2023-03-05T08:29:10Z</time>
      </trkpt>
      <trkpt lat="44.10813" lon="1.73695">
        <ele>333.4</ele>
        <time>2023-03-05T08:29:11Z</time>
      </trkpt>
      <trkpt lat="44.10808" lon="1.73692">
        <ele>333.6</ele>
        <time>2023-03-05T08:29:12Z</time>
      </trkpt>
      <trkpt lat="44.10802" lon="1.73689">
        <ele>333.6</ele>
        <time>2023-03-05T08:29:13Z</time>
      </trkpt>
      <trkpt lat="44.10796" lon="1.73686">
        <ele>333.6</ele>
        <time>2023-03-05T08:29:14Z</time>
      </trkpt>
      <trkpt lat="44.1079" lon="1.73684">
        <ele>333.6</ele>
        <time>2023-03-05T08:29:15Z</time>
      </trkpt>
      <trkpt lat="44.10784" lon="1.73683">
        <ele>333.6</ele>
        <time>2023-03-05T08:29:16Z</time>
      </trkpt>
      <trkpt lat="44.10778" lon="1.73682">
        <ele>333.8</ele>
        <time>2023-03-05T08:29:17Z</time>
      </trkpt>
      <trkpt lat="44.10772" lon="1.73682">
        <ele>333.8</ele>
        <time>2023-03-05T08:29:18Z</time>
      </trkpt>
      <trkpt lat="44.10766" lon="1.73682">
        <ele>333.8</ele>
        <time>2023-03-05T08:29:19Z</time>
      </trkpt>
      <trkpt lat="44.1076" lon="1.73682">
        <ele>333.6</ele>
        <time>2023-03-05T08:29:20Z</time>
      </trkpt>
      <trkpt lat="44.10753" lon="1.73683">
        <ele>333.6</ele>
        <time>2023-03-05T08:29:21Z</time>
      </trkpt>
      <trkpt lat="44.10747" lon="1.73684">
        <ele>333.6</ele>
        <time>2023-03-05T08:29:22Z</time>
      </trkpt>
      <trkpt lat="44.10741" lon="1.73685">
        <ele>333.2</ele>
        <time>2023-03-05T08:29:23Z</time>
      </trkpt>
      <trkpt lat="44.10735" lon="1.73687">
        <ele>333.2</ele>
        <time>2023-03-05T08:29:24Z</time>
      </trkpt>
      <trkpt lat="44.10728" lon="1.73689">
        <ele>332.8</ele>
        <time>2023-03-05T08:29:25Z</time>
      </trkpt>
      <trkpt lat="44.10722" lon="1.73691">
        <ele>332.6</ele>
        <time>2023-03-05T08:29:26Z</time>
      </trkpt>
      <trkpt lat="44.10715" lon="1.73693">
        <ele>332.4</ele>
        <time>2023-03-05T08:29:27Z</time>
      </trkpt>
      <trkpt lat="44.10709" lon="1.73694">
        <ele>332.4</ele>
        <time>2023-03-05T08:29:28Z</time>
      </trkpt>
      <trkpt lat="44.10702" lon="1.73695">
        <ele>332.4</ele>
        <time>2023-03-05T08:29:29Z</time>
      </trkpt>
      <trkpt lat="44.10696" lon="1.73697">
        <ele>332.2</ele>
        <time>2023-03-05T08:29:30Z</time>
      </trkpt>
      <trkpt lat="44.1069" lon="1.73699">
        <ele>332.2</ele>
        <time>2023-03-05T08:29:31Z</time>
      </trkpt>
      <trkpt lat="44.10683" lon="1.73699">
        <ele>332</ele>
        <time>2023-03-05T08:29:32Z</time>
      </trkpt>
      <trkpt lat="44.10677" lon="1.73698">
        <ele>331.6</ele>
        <time>2023-03-05T08:29:33Z</time>
      </trkpt>
      <trkpt lat="44.10671" lon="1.73696">
        <ele>331.4</ele>
        <time>2023-03-05T08:29:34Z</time>
      </trkpt>
      <trkpt lat="44.10665" lon="1.73694">
        <ele>331.2</ele>
        <time>2023-03-05T08:29:35Z</time>
      </trkpt>
      <trkpt lat="44.10658" lon="1.73692">
        <ele>330.8</ele>
        <time>2023-03-05T08:29:36Z</time>
      </trkpt>
      <trkpt lat="44.10652" lon="1.7369">
        <ele>330.8</ele>
        <time>2023-03-05T08:29:37Z</time>
      </trkpt>
      <trkpt lat="44.10646" lon="1.73687">
        <ele>330.2</ele>
        <time>2023-03-05T08:29:38Z</time>
      </trkpt>
      <trkpt lat="44.1064" lon="1.73683">
        <ele>330</ele>
        <time>2023-03-05T08:29:39Z</time>
      </trkpt>
      <trkpt lat="44.10633" lon="1.73679">
        <ele>329.4</ele>
        <time>2023-03-05T08:29:40Z</time>
      </trkpt>
      <trkpt lat="44.10627" lon="1.73674">
        <ele>329.2</ele>
        <time>2023-03-05T08:29:41Z</time>
      </trkpt>
      <trkpt lat="44.1062" lon="1.7367">
        <ele>329</ele>
        <time>2023-03-05T08:29:42Z</time>
      </trkpt>
      <trkpt lat="44.10614" lon="1.73665">
        <ele>328.8</ele>
        <time>2023-03-05T08:29:43Z</time>
      </trkpt>
      <trkpt lat="44.10607" lon="1.73661">
        <ele>328.4</ele>
        <time>2023-03-05T08:29:44Z</time>
      </trkpt>
      <trkpt lat="44.10601" lon="1.73656">
        <ele>328.2</ele>
        <time>2023-03-05T08:29:45Z</time>
      </trkpt>
      <trkpt lat="44.10594" lon="1.73651">
        <ele>328</ele>
        <time>2023-03-05T08:29:46Z</time>
      </trkpt>
      <trkpt lat="44.10588" lon="1.73646">
        <ele>327.4</ele>
        <time>2023-03-05T08:29:47Z</time>
      </trkpt>
      <trkpt lat="44.10581" lon="1.73641">
        <ele>327</ele>
        <time>2023-03-05T08:29:48Z</time>
      </trkpt>
      <trkpt lat="44.10574" lon="1.73636">
        <ele>326.4</ele>
        <time>2023-03-05T08:29:49Z</time>
      </trkpt>
      <trkpt lat="44.10567" lon="1.73631">
        <ele>326.2</ele>
        <time>2023-03-05T08:29:50Z</time>
      </trkpt>
      <trkpt lat="44.10561" lon="1.73626">
        <ele>325.6</ele>
        <time>2023-03-05T08:29:51Z</time>
      </trkpt>
      <trkpt lat="44.10554" lon="1.73622">
        <ele>325.4</ele>
        <time>2023-03-05T08:29:52Z</time>
      </trkpt>
      <trkpt lat="44.10548" lon="1.73617">
        <ele>325</ele>
        <time>2023-03-05T08:29:53Z</time>
      </trkpt>
      <trkpt lat="44.10542" lon="1.73613">
        <ele>324.8</ele>
        <time>2023-03-05T08:29:54Z</time>
      </trkpt>
      <trkpt lat="44.10535" lon="1.73608">
        <ele>324.8</ele>
        <time>2023-03-05T08:29:55Z</time>
      </trkpt>
      <trkpt lat="44.10529" lon="1.73604">
        <ele>324.6</ele>
        <time>2023-03-05T08:29:56Z</time>
      </trkpt>
      <trkpt lat="44.10523" lon="1.736">
        <ele>324.4</ele>
        <time>2023-03-05T08:29:57Z</time>
      </trkpt>
      <trkpt lat="44.10518" lon="1.73595">
        <ele>324.2</ele>
        <time>2023-03-05T08:29:58Z</time>
      </trkpt>
      <trkpt lat="44.10512" lon="1.73592">
        <ele>324</ele>
        <time>2023-03-05T08:29:59Z</time>
      </trkpt>
      <trkpt lat="44.10507" lon="1.73588">
        <ele>323.8</ele>
        <time>2023-03-05T08:30:00Z</time>
      </trkpt>
      <trkpt lat="44.10502" lon="1.73584">
        <ele>323.8</ele>
        <time>2023-03-05T08:30:01Z</time>
      </trkpt>
      <trkpt lat="44.10496" lon="1.7358">
        <ele>323.8</ele>
        <time>2023-03-05T08:30:02Z</time>
      </trkpt>
      <trkpt lat="44.10491" lon="1.73576">
        <ele>323.8</ele>
        <time>2023-03-05T08:30:03Z</time>
      </trkpt>
      <trkpt lat="44.10486" lon="1.73573">
        <ele>323.8</ele>
        <time>2023-03-05T08:30:04Z</time>
      </trkpt>
      <trkpt lat="44.10481" lon="1.73569">
        <ele>323.8</ele>
        <time>2023-03-05T08:30:05Z</time>
      </trkpt>
      <trkpt lat="44.10476" lon="1.73565">
        <ele>323.6</ele>
        <time>2023-03-05T08:30:06Z</time>
      </trkpt>
      <trkpt lat="44.10471" lon="1.73562">
        <ele>323.6</ele>
        <time>2023-03-05T08:30:07Z</time>
      </trkpt>
      <trkpt lat="44.10466" lon="1.73558">
        <ele>323.6</ele>
        <time>2023-03-05T08:30:08Z</time>
      </trkpt>
      <trkpt lat="44.10461" lon="1.73555">
        <ele>323.6</ele>
        <time>2023-03-05T08:30:09Z</time>
      </trkpt>
      <trkpt lat="44.10456" lon="1.73551">
        <ele>323.8</ele>
        <time>2023-03-05T08:30:10Z</time>
      </trkpt>
      <trkpt lat="44.10452" lon="1.73547">
        <ele>323.8</ele>
        <time>2023-03-05T08:30:11Z</time>
      </trkpt>
      <trkpt lat="44.10447" lon="1.73544">
        <ele>323.8</ele>
        <time>2023-03-05T08:30:12Z</time>
      </trkpt>
      <trkpt lat="44.10442" lon="1.7354">
        <ele>323.8</ele>
        <time>2023-03-05T08:30:13Z</time>
      </trkpt>
      <trkpt lat="44.10438" lon="1.73537">
        <ele>323.8</ele>
        <time>2023-03-05T08:30:14Z</time>
      </trkpt>
      <trkpt lat="44.10434" lon="1.73534">
        <ele>324</ele>
        <time>2023-03-05T08:30:15Z</time>
      </trkpt>
      <trkpt lat="44.10429" lon="1.73531">
        <ele>324</ele>
        <time>2023-03-05T08:30:16Z</time>
      </trkpt>
      <trkpt lat="44.10425" lon="1.73528">
        <ele>324</ele>
        <time>2023-03-05T08:30:17Z</time>
      </trkpt>
      <trkpt lat="44.10421" lon="1.73525">
        <ele>324</ele>
        <time>2023-03-05T08:30:18Z</time>
      </trkpt>
      <trkpt lat="44.10416" lon="1.73521">
        <ele>324.2</ele>
        <time>2023-03-05T08:30:19Z</time>
      </trkpt>
      <trkpt lat="44.10412" lon="1.73518">
        <ele>324.4</ele>
        <time>2023-03-05T08:30:20Z</time>
      </trkpt>
      <trkpt lat="44.10408" lon="1.73515">
        <ele>324.4</ele>
        <time>2023-03-05T08:30:21Z</time>
      </trkpt>
      <trkpt lat="44.10404" lon="1.73512">
        <ele>324.4</ele>
        <time>2023-03-05T08:30:22Z</time>
      </trkpt>
      <trkpt lat="44.10399" lon="1.73509">
        <ele>324.6</ele>
        <time>2023-03-05T08:30:23Z</time>
      </trkpt>
      <trkpt lat="44.10395" lon="1.73506">
        <ele>324.6</ele>
        <time>2023-03-05T08:30:24Z</time>
      </trkpt>
      <trkpt lat="44.10391" lon="1.73503">
        <ele>325</ele>
        <time>2023-03-05T08:30:25Z</time>
      </trkpt>
      <trkpt lat="44.10387" lon="1.73501">
        <ele>325.2</ele>
        <time>2023-03-05T08:30:26Z</time>
      </trkpt>
      <trkpt lat="44.10383" lon="1.73498">
        <ele>325.4</ele>
        <time>2023-03-05T08:30:27Z</time>
      </trkpt>
      <trkpt lat="44.10378" lon="1.73495">
        <ele>325.4</ele>
        <time>2023-03-05T08:30:28Z</time>
      </trkpt>
      <trkpt lat="44.10374" lon="1.73491">
        <ele>326</ele>
        <time>2023-03-05T08:30:29Z</time>
      </trkpt>
      <trkpt lat="44.1037" lon="1.73488">
        <ele>326.2</ele>
        <time>2023-03-05T08:30:30Z</time>
      </trkpt>
      <trkpt lat="44.10366" lon="1.73485">
        <ele>326.4</ele>
        <time>2023-03-05T08:30:31Z</time>
      </trkpt>
      <trkpt lat="44.10362" lon="1.73482">
        <ele>326.6</ele>
        <time>2023-03-05T08:30:32Z</time>
      </trkpt>
      <trkpt lat="44.10358" lon="1.73479">
        <ele>326.8</ele>
        <time>2023-03-05T08:30:33Z</time>
      </trkpt>
      <trkpt lat="44.10354" lon="1.73476">
        <ele>327</ele>
        <time>2023-03-05T08:30:34Z</time>
      </trkpt>
      <trkpt lat="44.1035" lon="1.73473">
        <ele>327</ele>
        <time>2023-03-05T08:30:35Z</time>
      </trkpt>
      <trkpt lat="44.10345" lon="1.7347">
        <ele>327.2</ele>
        <time>2023-03-05T08:30:36Z</time>
      </trkpt>
      <trkpt lat="44.10341" lon="1.73468">
        <ele>327.4</ele>
        <time>2023-03-05T08:30:37Z</time>
      </trkpt>
      <trkpt lat="44.10336" lon="1.73465">
        <ele>327.6</ele>
        <time>2023-03-05T08:30:38Z</time>
      </trkpt>
      <trkpt lat="44.10331" lon="1.73464">
        <ele>327.6</ele>
        <time>2023-03-05T08:30:39Z</time>
      </trkpt>
      <trkpt lat="44.10326" lon="1.73461">
        <ele>327.8</ele>
        <time>2023-03-05T08:30:40Z</time>
      </trkpt>
      <trkpt lat="44.10321" lon="1.7346">
        <ele>328</ele>
        <time>2023-03-05T08:30:41Z</time>
      </trkpt>
      <trkpt lat="44.10316" lon="1.73458">
        <ele>328</ele>
        <time>2023-03-05T08:30:42Z</time>
      </trkpt>
      <trkpt lat="44.10311" lon="1.73457">
        <ele>328</ele>
        <time>2023-03-05T08:30:43Z</time>
      </trkpt>
      <trkpt lat="44.10305" lon="1.73456">
        <ele>328</ele>
        <time>2023-03-05T08:30:44Z</time>
      </trkpt>
      <trkpt lat="44.10299" lon="1.73457">
        <ele>328</ele>
        <time>2023-03-05T08:30:45Z</time>
      </trkpt>
      <trkpt lat="44.10293" lon="1.73457">
        <ele>328</ele>
        <time>2023-03-05T08:30:46Z</time>
      </trkpt>
      <trkpt lat="44.10286" lon="1.73458">
        <ele>327.6</ele>
        <time>2023-03-05T08:30:47Z</time>
      </trkpt>
      <trkpt lat="44.1028" lon="1.73458">
        <ele>327.6</ele>
        <time>2023-03-05T08:30:48Z</time>
      </trkpt>
      <trkpt lat="44.10273" lon="1.73458">
        <ele>327.4</ele>
        <time>2023-03-05T08:30:49Z</time>
      </trkpt>
      <trkpt lat="44.10266" lon="1.73458">
        <ele>327.4</ele>
        <time>2023-03-05T08:30:50Z</time>
      </trkpt>
      <trkpt lat="44.10259" lon="1.73457">
        <ele>327.2</ele>
        <time>2023-03-05T08:30:51Z</time>
      </trkpt>
      <trkpt lat="44.10253" lon="1.73457">
        <ele>327</ele>
        <time>2023-03-05T08:30:52Z</time>
      </trkpt>
      <trkpt lat="44.10245" lon="1.73457">
        <ele>326.8</ele>
        <time>2023-03-05T08:30:53Z</time>
      </trkpt>
      <trkpt lat="44.10238" lon="1.73456">
        <ele>326.6</ele>
        <time>2023-03-05T08:30:54Z</time>
      </trkpt>
      <trkpt lat="44.10231" lon="1.73456">
        <ele>326.2</ele>
        <time>2023-03-05T08:30:55Z</time>
      </trkpt>
      <trkpt lat="44.10223" lon="1.73456">
        <ele>326</ele>
        <time>2023-03-05T08:30:56Z</time>
      </trkpt>
      <trkpt lat="44.10216" lon="1.73455">
        <ele>326</ele>
        <time>2023-03-05T08:30:57Z</time>
      </trkpt>
      <trkpt lat="44.10209" lon="1.73455">
        <ele>325.8</ele>
        <time>2023-03-05T08:30:58Z</time>
      </trkpt>
      <trkpt lat="44.10202" lon="1.73455">
        <ele>325.4</ele>
        <time>2023-03-05T08:30:59Z</time>
      </trkpt>
      <trkpt lat="44.10195" lon="1.73456">
        <ele>325</ele>
        <time>2023-03-05T08:31:00Z</time>
      </trkpt>
      <trkpt lat="44.10188" lon="1.73456">
        <ele>324.6</ele>
        <time>2023-03-05T08:31:01Z</time>
      </trkpt>
      <trkpt lat="44.10181" lon="1.73456">
        <ele>324</ele>
        <time>2023-03-05T08:31:02Z</time>
      </trkpt>
      <trkpt lat="44.10175" lon="1.73455">
        <ele>323.6</ele>
        <time>2023-03-05T08:31:03Z</time>
      </trkpt>
      <trkpt lat="44.10168" lon="1.73453">
        <ele>323</ele>
        <time>2023-03-05T08:31:04Z</time>
      </trkpt>
      <trkpt lat="44.10162" lon="1.7345">
        <ele>322.8</ele>
        <time>2023-03-05T08:31:05Z</time>
      </trkpt>
      <trkpt lat="44.10154" lon="1.73445">
        <ele>322.4</ele>
        <time>2023-03-05T08:31:06Z</time>
      </trkpt>
      <trkpt lat="44.10149" lon="1.7344">
        <ele>322.2</ele>
        <time>2023-03-05T08:31:07Z</time>
      </trkpt>
      <trkpt lat="44.10143" lon="1.73435">
        <ele>322</ele>
        <time>2023-03-05T08:31:08Z</time>
      </trkpt>
      <trkpt lat="44.10136" lon="1.73429">
        <ele>321.8</ele>
        <time>2023-03-05T08:31:09Z</time>
      </trkpt>
      <trkpt lat="44.1013" lon="1.73423">
        <ele>321.4</ele>
        <time>2023-03-05T08:31:10Z</time>
      </trkpt>
      <trkpt lat="44.10124" lon="1.73417">
        <ele>321</ele>
        <time>2023-03-05T08:31:11Z</time>
      </trkpt>
      <trkpt lat="44.10118" lon="1.73409">
        <ele>320.6</ele>
        <time>2023-03-05T08:31:12Z</time>
      </trkpt>
      <trkpt lat="44.10112" lon="1.73402">
        <ele>320.4</ele>
        <time>2023-03-05T08:31:13Z</time>
      </trkpt>
      <trkpt lat="44.10107" lon="1.73395">
        <ele>320</ele>
        <time>2023-03-05T08:31:14Z</time>
      </trkpt>
      <trkpt lat="44.10101" lon="1.73388">
        <ele>319.6</ele>
        <time>2023-03-05T08:31:15Z</time>
      </trkpt>
      <trkpt lat="44.10096" lon="1.73381">
        <ele>319.4</ele>
        <time>2023-03-05T08:31:16Z</time>
      </trkpt>
      <trkpt lat="44.1009" lon="1.73374">
        <ele>318.8</ele>
        <time>2023-03-05T08:31:17Z</time>
      </trkpt>
      <trkpt lat="44.10084" lon="1.73367">
        <ele>318.6</ele>
        <time>2023-03-05T08:31:18Z</time>
      </trkpt>
      <trkpt lat="44.10079" lon="1.73359">
        <ele>318.4</ele>
        <time>2023-03-05T08:31:19Z</time>
      </trkpt>
      <trkpt lat="44.10074" lon="1.73351">
        <ele>318.4</ele>
        <time>2023-03-05T08:31:20Z</time>
      </trkpt>
      <trkpt lat="44.1007" lon="1.73342">
        <ele>318.2</ele>
        <time>2023-03-05T08:31:21Z</time>
      </trkpt>
      <trkpt lat="44.10065" lon="1.73334">
        <ele>318</ele>
        <time>2023-03-05T08:31:22Z</time>
      </trkpt>
      <trkpt lat="44.1006" lon="1.73326">
        <ele>317</ele>
        <time>2023-03-05T08:31:23Z</time>
      </trkpt>
      <trkpt lat="44.10055" lon="1.73319">
        <ele>316.6</ele>
        <time>2023-03-05T08:31:24Z</time>
      </trkpt>
      <trkpt lat="44.1005" lon="1.73311">
        <ele>316</ele>
        <time>2023-03-05T08:31:25Z</time>
      </trkpt>
      <trkpt lat="44.10046" lon="1.73303">
        <ele>316</ele>
        <time>2023-03-05T08:31:26Z</time>
      </trkpt>
      <trkpt lat="44.10042" lon="1.73295">
        <ele>315.6</ele>
        <time>2023-03-05T08:31:27Z</time>
      </trkpt>
      <trkpt lat="44.10037" lon="1.73286">
        <ele>315.6</ele>
        <time>2023-03-05T08:31:28Z</time>
      </trkpt>
      <trkpt lat="44.10033" lon="1.73278">
        <ele>315.4</ele>
        <time>2023-03-05T08:31:29Z</time>
      </trkpt>
      <trkpt lat="44.10029" lon="1.73271">
        <ele>315.2</ele>
        <time>2023-03-05T08:31:30Z</time>
      </trkpt>
      <trkpt lat="44.10025" lon="1.73263">
        <ele>315</ele>
        <time>2023-03-05T08:31:31Z</time>
      </trkpt>
      <trkpt lat="44.10021" lon="1.73255">
        <ele>315</ele>
        <time>2023-03-05T08:31:32Z</time>
      </trkpt>
      <trkpt lat="44.10017" lon="1.73248">
        <ele>314.8</ele>
        <time>2023-03-05T08:31:33Z</time>
      </trkpt>
      <trkpt lat="44.10013" lon="1.7324">
        <ele>314.4</ele>
        <time>2023-03-05T08:31:34Z</time>
      </trkpt>
      <trkpt lat="44.10009" lon="1.73233">
        <ele>314.2</ele>
        <time>2023-03-05T08:31:35Z</time>
      </trkpt>
      <trkpt lat="44.10006" lon="1.73227">
        <ele>314</ele>
        <time>2023-03-05T08:31:36Z</time>
      </trkpt>
      <trkpt lat="44.10001" lon="1.73218">
        <ele>313.8</ele>
        <time>2023-03-05T08:31:37Z</time>
      </trkpt>
      <trkpt lat="44.09997" lon="1.73212">
        <ele>313.8</ele>
        <time>2023-03-05T08:31:38Z</time>
      </trkpt>
      <trkpt lat="44.09992" lon="1.73206">
        <ele>313.6</ele>
        <time>2023-03-05T08:31:39Z</time>
      </trkpt>
      <trkpt lat="44.09988" lon="1.73201">
        <ele>313.6</ele>
        <time>2023-03-05T08:31:40Z</time>
      </trkpt>
      <trkpt lat="44.09983" lon="1.73195">
        <ele>313.6</ele>
        <time>2023-03-05T08:31:41Z</time>
      </trkpt>
      <trkpt lat="44.09977" lon="1.7319">
        <ele>313.6</ele>
        <time>2023-03-05T08:31:42Z</time>
      </trkpt>
      <trkpt lat="44.09971" lon="1.73185">
        <ele>313.4</ele>
        <time>2023-03-05T08:31:43Z</time>
      </trkpt>
      <trkpt lat="44.09966" lon="1.7318">
        <ele>313.4</ele>
        <time>2023-03-05T08:31:44Z</time>
      </trkpt>
      <trkpt lat="44.0996" lon="1.73175">
        <ele>313.2</ele>
        <time>2023-03-05T08:31:45Z</time>
      </trkpt>
      <trkpt lat="44.09954" lon="1.7317">
        <ele>313</ele>
        <time>2023-03-05T08:31:46Z</time>
      </trkpt>
      <trkpt lat="44.09948" lon="1.73165">
        <ele>313</ele>
        <time>2023-03-05T08:31:47Z</time>
      </trkpt>
      <trkpt lat="44.09941" lon="1.7316">
        <ele>312.8</ele>
        <time>2023-03-05T08:31:48Z</time>
      </trkpt>
      <trkpt lat="44.09934" lon="1.73156">
        <ele>312.8</ele>
        <time>2023-03-05T08:31:49Z</time>
      </trkpt>
      <trkpt lat="44.09927" lon="1.73153">
        <ele>312.6</ele>
        <time>2023-03-05T08:31:50Z</time>
      </trkpt>
      <trkpt lat="44.09921" lon="1.73152">
        <ele>312.4</ele>
        <time>2023-03-05T08:31:51Z</time>
      </trkpt>
      <trkpt lat="44.09912" lon="1.73149">
        <ele>312.2</ele>
        <time>2023-03-05T08:31:52Z</time>
      </trkpt>
      <trkpt lat="44.09905" lon="1.73148">
        <ele>311.6</ele>
        <time>2023-03-05T08:31:53Z</time>
      </trkpt>
      <trkpt lat="44.09897" lon="1.73147">
        <ele>311.4</ele>
        <time>2023-03-05T08:31:54Z</time>
      </trkpt>
      <trkpt lat="44.09889" lon="1.73146">
        <ele>311</ele>
        <time>2023-03-05T08:31:55Z</time>
      </trkpt>
      <trkpt lat="44.09882" lon="1.73143">
        <ele>310.6</ele>
        <time>2023-03-05T08:31:56Z</time>
      </trkpt>
      <trkpt lat="44.09875" lon="1.73139">
        <ele>310.4</ele>
        <time>2023-03-05T08:31:57Z</time>
      </trkpt>
      <trkpt lat="44.09869" lon="1.73132">
        <ele>310.2</ele>
        <time>2023-03-05T08:31:58Z</time>
      </trkpt>
      <trkpt lat="44.09864" lon="1.73124">
        <ele>310</ele>
        <time>2023-03-05T08:31:59Z</time>
      </trkpt>
      <trkpt lat="44.09861" lon="1.73116">
        <ele>309.4</ele>
        <time>2023-03-05T08:32:00Z</time>
      </trkpt>
      <trkpt lat="44.09857" lon="1.73104">
        <ele>309</ele>
        <time>2023-03-05T08:32:01Z</time>
      </trkpt>
      <trkpt lat="44.09855" lon="1.73094">
        <ele>308.4</ele>
        <time>2023-03-05T08:32:02Z</time>
      </trkpt>
      <trkpt lat="44.09853" lon="1.73084">
        <ele>308</ele>
        <time>2023-03-05T08:32:03Z</time>
      </trkpt>
      <trkpt lat="44.09851" lon="1.73073">
        <ele>307.2</ele>
        <time>2023-03-05T08:32:04Z</time>
      </trkpt>
      <trkpt lat="44.09851" lon="1.73065">
        <ele>307</ele>
        <time>2023-03-05T08:32:05Z</time>
      </trkpt>
      <trkpt lat="44.0985" lon="1.73052">
        <ele>306.4</ele>
        <time>2023-03-05T08:32:06Z</time>
      </trkpt>
      <trkpt lat="44.09849" lon="1.73042">
        <ele>306.2</ele>
        <time>2023-03-05T08:32:07Z</time>
      </trkpt>
      <trkpt lat="44.09848" lon="1.73032">
        <ele>305.8</ele>
        <time>2023-03-05T08:32:08Z</time>
      </trkpt>
      <trkpt lat="44.09846" lon="1.73024">
        <ele>305.8</ele>
        <time>2023-03-05T08:32:09Z</time>
      </trkpt>
      <trkpt lat="44.09845" lon="1.73012">
        <ele>305.6</ele>
        <time>2023-03-05T08:32:10Z</time>
      </trkpt>
      <trkpt lat="44.09845" lon="1.73002">
        <ele>305.4</ele>
        <time>2023-03-05T08:32:11Z</time>
      </trkpt>
      <trkpt lat="44.09845" lon="1.72994">
        <ele>305</ele>
        <time>2023-03-05T08:32:12Z</time>
      </trkpt>
      <trkpt lat="44.09844" lon="1.72984">
        <ele>304</ele>
        <time>2023-03-05T08:32:13Z</time>
      </trkpt>
      <trkpt lat="44.09843" lon="1.72974">
        <ele>303.4</ele>
        <time>2023-03-05T08:32:14Z</time>
      </trkpt>
      <trkpt lat="44.09841" lon="1.72965">
        <ele>302.6</ele>
        <time>2023-03-05T08:32:15Z</time>
      </trkpt>
      <trkpt lat="44.09838" lon="1.72955">
        <ele>302.4</ele>
        <time>2023-03-05T08:32:16Z</time>
      </trkpt>
      <trkpt lat="44.09836" lon="1.72946">
        <ele>302</ele>
        <time>2023-03-05T08:32:17Z</time>
      </trkpt>
      <trkpt lat="44.09833" lon="1.72936">
        <ele>301.8</ele>
        <time>2023-03-05T08:32:18Z</time>
      </trkpt>
      <trkpt lat="44.0983" lon="1.72927">
        <ele>301.4</ele>
        <time>2023-03-05T08:32:19Z</time>
      </trkpt>
      <trkpt lat="44.09826" lon="1.72918">
        <ele>301.2</ele>
        <time>2023-03-05T08:32:20Z</time>
      </trkpt>
      <trkpt lat="44.09822" lon="1.7291">
        <ele>301</ele>
        <time>2023-03-05T08:32:21Z</time>
      </trkpt>
      <trkpt lat="44.09817" lon="1.72901">
        <ele>300.8</ele>
        <time>2023-03-05T08:32:22Z</time>
      </trkpt>
      <trkpt lat="44.09813" lon="1.72895">
        <ele>300.6</ele>
        <time>2023-03-05T08:32:23Z</time>
      </trkpt>
      <trkpt lat="44.09809" lon="1.72887">
        <ele>300.4</ele>
        <time>2023-03-05T08:32:24Z</time>
      </trkpt>
      <trkpt lat="44.09804" lon="1.72878">
        <ele>299.6</ele>
        <time>2023-03-05T08:32:25Z</time>
      </trkpt>
      <trkpt lat="44.09799" lon="1.7287">
        <ele>299.4</ele>
        <time>2023-03-05T08:32:26Z</time>
      </trkpt>
      <trkpt lat="44.09794" lon="1.72863">
        <ele>298.6</ele>
        <time>2023-03-05T08:32:27Z</time>
      </trkpt>
      <trkpt lat="44.09791" lon="1.72857">
        <ele>298</ele>
        <time>2023-03-05T08:32:28Z</time>
      </trkpt>
      <trkpt lat="44.09786" lon="1.7285">
        <ele>297.8</ele>
        <time>2023-03-05T08:32:29Z</time>
      </trkpt>
      <trkpt lat="44.0978" lon="1.72842">
        <ele>297.6</ele>
        <time>2023-03-05T08:32:30Z</time>
      </trkpt>
      <trkpt lat="44.09777" lon="1.72837">
        <ele>297.4</ele>
        <time>2023-03-05T08:32:31Z</time>
      </trkpt>
      <trkpt lat="44.09772" lon="1.72831">
        <ele>296.6</ele>
        <time>2023-03-05T08:32:32Z</time>
      </trkpt>
      <trkpt lat="44.09767" lon="1.72826">
        <ele>296.2</ele>
        <time>2023-03-05T08:32:33Z</time>
      </trkpt>
      <trkpt lat="44.09761" lon="1.72821">
        <ele>295.8</ele>
        <time>2023-03-05T08:32:34Z</time>
      </trkpt>
      <trkpt lat="44.09755" lon="1.72816">
        <ele>295.4</ele>
        <time>2023-03-05T08:32:35Z</time>
      </trkpt>
      <trkpt lat="44.0975" lon="1.72812">
        <ele>295.2</ele>
        <time>2023-03-05T08:32:36Z</time>
      </trkpt>
      <trkpt lat="44.09744" lon="1.72808">
        <ele>295</ele>
        <time>2023-03-05T08:32:37Z</time>
      </trkpt>
      <trkpt lat="44.09738" lon="1.72806">
        <ele>294</ele>
        <time>2023-03-05T08:32:38Z</time>
      </trkpt>
      <trkpt lat="44.09732" lon="1.72803">
        <ele>293.8</ele>
        <time>2023-03-05T08:32:39Z</time>
      </trkpt>
      <trkpt lat="44.09726" lon="1.72802">
        <ele>293</ele>
        <time>2023-03-05T08:32:40Z</time>
      </trkpt>
      <trkpt lat="44.09719" lon="1.72801">
        <ele>292</ele>
        <time>2023-03-05T08:32:41Z</time>
      </trkpt>
      <trkpt lat="44.09712" lon="1.72799">
        <ele>290.6</ele>
        <time>2023-03-05T08:32:42Z</time>
      </trkpt>
      <trkpt lat="44.09706" lon="1.72797">
        <ele>289.2</ele>
        <time>2023-03-05T08:32:43Z</time>
      </trkpt>
      <trkpt lat="44.097" lon="1.72797">
        <ele>288.8</ele>
        <time>2023-03-05T08:32:44Z</time>
      </trkpt>
      <trkpt lat="44.09694" lon="1.72796">
        <ele>288</ele>
        <time>2023-03-05T08:32:45Z</time>
      </trkpt>
      <trkpt lat="44.09688" lon="1.72794">
        <ele>287.8</ele>
        <time>2023-03-05T08:32:46Z</time>
      </trkpt>
      <trkpt lat="44.09682" lon="1.72793">
        <ele>287.6</ele>
        <time>2023-03-05T08:32:47Z</time>
      </trkpt>
      <trkpt lat="44.09676" lon="1.72792">
        <ele>287</ele>
        <time>2023-03-05T08:32:48Z</time>
      </trkpt>
      <trkpt lat="44.09669" lon="1.72792">
        <ele>286.4</ele>
        <time>2023-03-05T08:32:49Z</time>
      </trkpt>
      <trkpt lat="44.09661" lon="1.72792">
        <ele>286.2</ele>
        <time>2023-03-05T08:32:50Z</time>
      </trkpt>
      <trkpt lat="44.09654" lon="1.72792">
        <ele>285.4</ele>
        <time>2023-03-05T08:32:51Z</time>
      </trkpt>
      <trkpt lat="44.09648" lon="1.72792">
        <ele>285.2</ele>
        <time>2023-03-05T08:32:52Z</time>
      </trkpt>
      <trkpt lat="44.0964" lon="1.72793">
        <ele>284.4</ele>
        <time>2023-03-05T08:32:53Z</time>
      </trkpt>
      <trkpt lat="44.09633" lon="1.72795">
        <ele>284</ele>
        <time>2023-03-05T08:32:54Z</time>
      </trkpt>
      <trkpt lat="44.09626" lon="1.72797">
        <ele>283.6</ele>
        <time>2023-03-05T08:32:55Z</time>
      </trkpt>
      <trkpt lat="44.09619" lon="1.72799">
        <ele>283.2</ele>
        <time>2023-03-05T08:32:56Z</time>
      </trkpt>
      <trkpt lat="44.09614" lon="1.72799">
        <ele>282.8</ele>
        <time>2023-03-05T08:32:57Z</time>
      </trkpt>
      <trkpt lat="44.09606" lon="1.72799">
        <ele>282.4</ele>
        <time>2023-03-05T08:32:58Z</time>
      </trkpt>
      <trkpt lat="44.09599" lon="1.72799">
        <ele>282</ele>
        <time>2023-03-05T08:32:59Z</time>
      </trkpt>
      <trkpt lat="44.09592" lon="1.72799">
        <ele>281.2</ele>
        <time>2023-03-05T08:33:00Z</time>
      </trkpt>
      <trkpt lat="44.09587" lon="1.728">
        <ele>280.8</ele>
        <time>2023-03-05T08:33:01Z</time>
      </trkpt>
      <trkpt lat="44.09579" lon="1.72801">
        <ele>279.2</ele>
        <time>2023-03-05T08:33:02Z</time>
      </trkpt>
      <trkpt lat="44.09572" lon="1.72802">
        <ele>278.4</ele>
        <time>2023-03-05T08:33:03Z</time>
      </trkpt>
      <trkpt lat="44.09564" lon="1.72804">
        <ele>277.4</ele>
        <time>2023-03-05T08:33:04Z</time>
      </trkpt>
      <trkpt lat="44.09555" lon="1.72805">
        <ele>277.2</ele>
        <time>2023-03-05T08:33:05Z</time>
      </trkpt>
      <trkpt lat="44.09549" lon="1.72806">
        <ele>276.4</ele>
        <time>2023-03-05T08:33:06Z</time>
      </trkpt>
      <trkpt lat="44.09542" lon="1.72809">
        <ele>276.2</ele>
        <time>2023-03-05T08:33:07Z</time>
      </trkpt>
      <trkpt lat="44.09535" lon="1.72812">
        <ele>276</ele>
        <time>2023-03-05T08:33:08Z</time>
      </trkpt>
      <trkpt lat="44.09529" lon="1.72815">
        <ele>275.6</ele>
        <time>2023-03-05T08:33:09Z</time>
      </trkpt>
      <trkpt lat="44.09521" lon="1.7282">
        <ele>275.2</ele>
        <time>2023-03-05T08:33:10Z</time>
      </trkpt>
      <trkpt lat="44.09516" lon="1.72823">
        <ele>274.6</ele>
        <time>2023-03-05T08:33:11Z</time>
      </trkpt>
      <trkpt lat="44.09509" lon="1.72828">
        <ele>274.4</ele>
        <time>2023-03-05T08:33:12Z</time>
      </trkpt>
      <trkpt lat="44.09502" lon="1.72834">
        <ele>273.8</ele>
        <time>2023-03-05T08:33:13Z</time>
      </trkpt>
      <trkpt lat="44.09495" lon="1.72839">
        <ele>273.6</ele>
        <time>2023-03-05T08:33:14Z</time>
      </trkpt>
      <trkpt lat="44.09489" lon="1.72843">
        <ele>273</ele>
        <time>2023-03-05T08:33:15Z</time>
      </trkpt>
      <trkpt lat="44.09482" lon="1.72848">
        <ele>272.6</ele>
        <time>2023-03-05T08:33:16Z</time>
      </trkpt>
      <trkpt lat="44.09474" lon="1.72854">
        <ele>271.2</ele>
        <time>2023-03-05T08:33:17Z</time>
      </trkpt>
      <trkpt lat="44.09468" lon="1.72859">
        <ele>270.6</ele>
        <time>2023-03-05T08:33:18Z</time>
      </trkpt>
      <trkpt lat="44.09462" lon="1.72864">
        <ele>269.8</ele>
        <time>2023-03-05T08:33:19Z</time>
      </trkpt>
      <trkpt lat="44.09456" lon="1.72869">
        <ele>269.6</ele>
        <time>2023-03-05T08:33:20Z</time>
      </trkpt>
      <trkpt lat="44.09451" lon="1.72874">
        <ele>268.8</ele>
        <time>2023-03-05T08:33:21Z</time>
      </trkpt>
      <trkpt lat="44.09445" lon="1.72881">
        <ele>268.6</ele>
        <time>2023-03-05T08:33:22Z</time>
      </trkpt>
      <trkpt lat="44.09439" lon="1.72887">
        <ele>266.8</ele>
        <time>2023-03-05T08:33:23Z</time>
      </trkpt>
      <trkpt lat="44.09434" lon="1.72892">
        <ele>266.2</ele>
        <time>2023-03-05T08:33:24Z</time>
      </trkpt>
      <trkpt lat="44.0943" lon="1.72896">
        <ele>265.2</ele>
        <time>2023-03-05T08:33:25Z</time>
      </trkpt>
      <trkpt lat="44.09425" lon="1.72902">
        <ele>264.2</ele>
        <time>2023-03-05T08:33:26Z</time>
      </trkpt>
      <trkpt lat="44.0942" lon="1.72908">
        <ele>263.8</ele>
        <time>2023-03-05T08:33:27Z</time>
      </trkpt>
      <trkpt lat="44.09415" lon="1.72915">
        <ele>263</ele>
        <time>2023-03-05T08:33:28Z</time>
      </trkpt>
      <trkpt lat="44.09409" lon="1.72923">
        <ele>262.8</ele>
        <time>2023-03-05T08:33:29Z</time>
      </trkpt>
      <trkpt lat="44.09405" lon="1.72931">
        <ele>261.8</ele>
        <time>2023-03-05T08:33:30Z</time>
      </trkpt>
      <trkpt lat="44.09401" lon="1.72939">
        <ele>261.4</ele>
        <time>2023-03-05T08:33:31Z</time>
      </trkpt>
      <trkpt lat="44.09398" lon="1.72945">
        <ele>260.8</ele>
        <time>2023-03-05T08:33:32Z</time>
      </trkpt>
      <trkpt lat="44.09392" lon="1.72953">
        <ele>260.4</ele>
        <time>2023-03-05T08:33:33Z</time>
      </trkpt>
      <trkpt lat="44.09387" lon="1.7296">
        <ele>259.8</ele>
        <time>2023-03-05T08:33:34Z</time>
      </trkpt>
      <trkpt lat="44.09383" lon="1.72965">
        <ele>259.6</ele>
        <time>2023-03-05T08:33:35Z</time>
      </trkpt>
      <trkpt lat="44.09377" lon="1.72973">
        <ele>259</ele>
        <time>2023-03-05T08:33:36Z</time>
      </trkpt>
      <trkpt lat="44.09373" lon="1.72979">
        <ele>258.6</ele>
        <time>2023-03-05T08:33:37Z</time>
      </trkpt>
      <trkpt lat="44.09369" lon="1.72986">
        <ele>257.4</ele>
        <time>2023-03-05T08:33:38Z</time>
      </trkpt>
      <trkpt lat="44.09366" lon="1.72992">
        <ele>256.8</ele>
        <time>2023-03-05T08:33:39Z</time>
      </trkpt>
      <trkpt lat="44.09361" lon="1.72999">
        <ele>256</ele>
        <time>2023-03-05T08:33:40Z</time>
      </trkpt>
      <trkpt lat="44.09356" lon="1.73006">
        <ele>255.2</ele>
        <time>2023-03-05T08:33:41Z</time>
      </trkpt>
      <trkpt lat="44.0935" lon="1.73014">
        <ele>255</ele>
        <time>2023-03-05T08:33:42Z</time>
      </trkpt>
      <trkpt lat="44.09345" lon="1.73021">
        <ele>254</ele>
        <time>2023-03-05T08:33:43Z</time>
      </trkpt>
      <trkpt lat="44.09339" lon="1.73028">
        <ele>253.4</ele>
        <time>2023-03-05T08:33:44Z</time>
      </trkpt>
      <trkpt lat="44.09334" lon="1.73035">
        <ele>251.2</ele>
        <time>2023-03-05T08:33:45Z</time>
      </trkpt>
      <trkpt lat="44.09329" lon="1.73039">
        <ele>250.4</ele>
        <time>2023-03-05T08:33:46Z</time>
      </trkpt>
      <trkpt lat="44.09323" lon="1.73047">
        <ele>249.6</ele>
        <time>2023-03-05T08:33:47Z</time>
      </trkpt>
      <trkpt lat="44.09317" lon="1.73053">
        <ele>249.4</ele>
        <time>2023-03-05T08:33:48Z</time>
      </trkpt>
      <trkpt lat="44.09311" lon="1.73059">
        <ele>248.2</ele>
        <time>2023-03-05T08:33:49Z</time>
      </trkpt>
      <trkpt lat="44.09304" lon="1.73065">
        <ele>247.4</ele>
        <time>2023-03-05T08:33:50Z</time>
      </trkpt>
      <trkpt lat="44.09297" lon="1.7307">
        <ele>246.4</ele>
        <time>2023-03-05T08:33:51Z</time>
      </trkpt>
      <trkpt lat="44.09291" lon="1.73076">
        <ele>246</ele>
        <time>2023-03-05T08:33:52Z</time>
      </trkpt>
      <trkpt lat="44.09284" lon="1.73082">
        <ele>245.2</ele>
        <time>2023-03-05T08:33:53Z</time>
      </trkpt>
      <trkpt lat="44.09279" lon="1.73087">
        <ele>245</ele>
        <time>2023-03-05T08:33:54Z</time>
      </trkpt>
      <trkpt lat="44.09271" lon="1.73094">
        <ele>244.4</ele>
        <time>2023-03-05T08:33:55Z</time>
      </trkpt>
      <trkpt lat="44.09264" lon="1.73099">
        <ele>243.4</ele>
        <time>2023-03-05T08:33:56Z</time>
      </trkpt>
      <trkpt lat="44.09258" lon="1.73105">
        <ele>243</ele>
        <time>2023-03-05T08:33:57Z</time>
      </trkpt>
      <trkpt lat="44.09253" lon="1.7311">
        <ele>241.6</ele>
        <time>2023-03-05T08:33:58Z</time>
      </trkpt>
      <trkpt lat="44.09247" lon="1.73115">
        <ele>241</ele>
        <time>2023-03-05T08:33:59Z</time>
      </trkpt>
      <trkpt lat="44.0924" lon="1.73122">
        <ele>240</ele>
        <time>2023-03-05T08:34:00Z</time>
      </trkpt>
      <trkpt lat="44.09235" lon="1.73128">
        <ele>239.2</ele>
        <time>2023-03-05T08:34:01Z</time>
      </trkpt>
      <trkpt lat="44.0923" lon="1.73136">
        <ele>238.4</ele>
        <time>2023-03-05T08:34:02Z</time>
      </trkpt>
      <trkpt lat="44.09227" lon="1.73142">
        <ele>237.8</ele>
        <time>2023-03-05T08:34:03Z</time>
      </trkpt>
      <trkpt lat="44.09223" lon="1.7315">
        <ele>236.4</ele>
        <time>2023-03-05T08:34:04Z</time>
      </trkpt>
      <trkpt lat="44.0922" lon="1.7316">
        <ele>235.8</ele>
        <time>2023-03-05T08:34:05Z</time>
      </trkpt>
      <trkpt lat="44.09219" lon="1.7317">
        <ele>234.4</ele>
        <time>2023-03-05T08:34:06Z</time>
      </trkpt>
      <trkpt lat="44.09218" lon="1.7318">
        <ele>233.8</ele>
        <time>2023-03-05T08:34:07Z</time>
      </trkpt>
      <trkpt lat="44.09218" lon="1.73189">
        <ele>232.2</ele>
        <time>2023-03-05T08:34:08Z</time>
      </trkpt>
      <trkpt lat="44.09217" lon="1.73202">
        <ele>231.6</ele>
        <time>2023-03-05T08:34:09Z</time>
      </trkpt>
      <trkpt lat="44.09216" lon="1.73211">
        <ele>230.8</ele>
        <time>2023-03-05T08:34:10Z</time>
      </trkpt>
      <trkpt lat="44.09215" lon="1.73225">
        <ele>229.8</ele>
        <time>2023-03-05T08:34:11Z</time>
      </trkpt>
      <trkpt lat="44.09215" lon="1.73238">
        <ele>229.6</ele>
        <time>2023-03-05T08:34:12Z</time>
      </trkpt>
      <trkpt lat="44.09214" lon="1.73249">
        <ele>228</ele>
        <time>2023-03-05T08:34:13Z</time>
      </trkpt>
      <trkpt lat="44.09214" lon="1.73261">
        <ele>227.4</ele>
        <time>2023-03-05T08:34:14Z</time>
      </trkpt>
      <trkpt lat="44.09214" lon="1.73274">
        <ele>226.4</ele>
        <time>2023-03-05T08:34:15Z</time>
      </trkpt>
      <trkpt lat="44.09214" lon="1.73287">
        <ele>225.8</ele>
        <time>2023-03-05T08:34:16Z</time>
      </trkpt>
      <trkpt lat="44.09215" lon="1.73299">
        <ele>224.8</ele>
        <time>2023-03-05T08:34:17Z</time>
      </trkpt>
      <trkpt lat="44.09216" lon="1.73308">
        <ele>224</ele>
        <time>2023-03-05T08:34:18Z</time>
      </trkpt>
      <trkpt lat="44.09218" lon="1.73321">
        <ele>222.8</ele>
        <time>2023-03-05T08:34:19Z</time>
      </trkpt>
      <trkpt lat="44.0922" lon="1.7333">
        <ele>221.6</ele>
        <time>2023-03-05T08:34:20Z</time>
      </trkpt>
      <trkpt lat="44.09223" lon="1.73339">
        <ele>220.2</ele>
        <time>2023-03-05T08:34:21Z</time>
      </trkpt>
      <trkpt lat="44.09225" lon="1.73345">
        <ele>220</ele>
        <time>2023-03-05T08:34:22Z</time>
      </trkpt>
      <trkpt lat="44.09224" lon="1.73352">
        <ele>219</ele>
        <time>2023-03-05T08:34:23Z</time>
      </trkpt>
      <trkpt lat="44.09222" lon="1.73358">
        <ele>217.8</ele>
        <time>2023-03-05T08:34:24Z</time>
      </trkpt>
      <trkpt lat="44.09218" lon="1.73361">
        <ele>217.4</ele>
        <time>2023-03-05T08:34:25Z</time>
      </trkpt>
      <trkpt lat="44.09212" lon="1.73361">
        <ele>216.4</ele>
        <time>2023-03-05T08:34:26Z</time>
      </trkpt>
      <trkpt lat="44.09207" lon="1.7336">
        <ele>215.8</ele>
        <time>2023-03-05T08:34:27Z</time>
      </trkpt>
      <trkpt lat="44.09199" lon="1.73358">
        <ele>214.8</ele>
        <time>2023-03-05T08:34:28Z</time>
      </trkpt>
      <trkpt lat="44.09193" lon="1.73356">
        <ele>214.4</ele>
        <time>2023-03-05T08:34:29Z</time>
      </trkpt>
      <trkpt lat="44.09186" lon="1.73352">
        <ele>213.8</ele>
        <time>2023-03-05T08:34:30Z</time>
      </trkpt>
      <trkpt lat="44.0918" lon="1.73349">
        <ele>213.6</ele>
        <time>2023-03-05T08:34:31Z</time>
      </trkpt>
      <trkpt lat="44.09172" lon="1.73345">
        <ele>212.6</ele>
        <time>2023-03-05T08:34:32Z</time>
      </trkpt>
      <trkpt lat="44.09166" lon="1.7334">
        <ele>212.2</ele>
        <time>2023-03-05T08:34:33Z</time>
      </trkpt>
      <trkpt lat="44.09159" lon="1.73337">
        <ele>211.2</ele>
        <time>2023-03-05T08:34:34Z</time>
      </trkpt>
      <trkpt lat="44.09152" lon="1.73333">
        <ele>210.8</ele>
        <time>2023-03-05T08:34:35Z</time>
      </trkpt>
      <trkpt lat="44.09145" lon="1.73328">
        <ele>210.4</ele>
        <time>2023-03-05T08:34:36Z</time>
      </trkpt>
      <trkpt lat="44.09139" lon="1.73325">
        <ele>209.8</ele>
        <time>2023-03-05T08:34:37Z</time>
      </trkpt>
      <trkpt lat="44.09131" lon="1.7332">
        <ele>209</ele>
        <time>2023-03-05T08:34:38Z</time>
      </trkpt>
      <trkpt lat="44.09123" lon="1.73316">
        <ele>208.4</ele>
        <time>2023-03-05T08:34:39Z</time>
      </trkpt>
      <trkpt lat="44.09116" lon="1.73313">
        <ele>208.2</ele>
        <time>2023-03-05T08:34:40Z</time>
      </trkpt>
      <trkpt lat="44.09109" lon="1.7331">
        <ele>207.8</ele>
        <time>2023-03-05T08:34:41Z</time>
      </trkpt>
      <trkpt lat="44.09103" lon="1.73308">
        <ele>207.4</ele>
        <time>2023-03-05T08:34:42Z</time>
      </trkpt>
      <trkpt lat="44.09095" lon="1.73307">
        <ele>206.8</ele>
        <time>2023-03-05T08:34:43Z</time>
      </trkpt>
      <trkpt lat="44.09089" lon="1.73307">
        <ele>206.2</ele>
        <time>2023-03-05T08:34:44Z</time>
      </trkpt>
      <trkpt lat="44.09084" lon="1.73308">
        <ele>205.4</ele>
        <time>2023-03-05T08:34:45Z</time>
      </trkpt>
      <trkpt lat="44.0908" lon="1.7331">
        <ele>205.2</ele>
        <time>2023-03-05T08:34:46Z</time>
      </trkpt>
      <trkpt lat="44.09076" lon="1.73313">
        <ele>203.8</ele>
        <time>2023-03-05T08:34:47Z</time>
      </trkpt>
      <trkpt lat="44.09072" lon="1.73317">
        <ele>203.2</ele>
        <time>2023-03-05T08:34:48Z</time>
      </trkpt>
      <trkpt lat="44.09069" lon="1.73321">
        <ele>202.4</ele>
        <time>2023-03-05T08:34:49Z</time>
      </trkpt>
      <trkpt lat="44.09067" lon="1.73325">
        <ele>202</ele>
        <time>2023-03-05T08:34:50Z</time>
      </trkpt>
      <trkpt lat="44.09064" lon="1.73328">
        <ele>201.2</ele>
        <time>2023-03-05T08:34:51Z</time>
      </trkpt>
      <trkpt lat="44.09062" lon="1.73332">
        <ele>201.2</ele>
        <time>2023-03-05T08:34:52Z</time>
      </trkpt>
      <trkpt lat="44.0906" lon="1.73335">
        <ele>201.2</ele>
        <time>2023-03-05T08:34:53Z</time>
      </trkpt>
      <trkpt lat="44.09058" lon="1.73339">
        <ele>201</ele>
        <time>2023-03-05T08:34:54Z</time>
      </trkpt>
      <trkpt lat="44.09056" lon="1.73343">
        <ele>201</ele>
        <time>2023-03-05T08:34:55Z</time>
      </trkpt>
      <trkpt lat="44.09055" lon="1.73346">
        <ele>200.8</ele>
        <time>2023-03-05T08:34:56Z</time>
      </trkpt>
      <trkpt lat="44.09053" lon="1.73351">
        <ele>200.8</ele>
        <time>2023-03-05T08:34:57Z</time>
      </trkpt>
      <trkpt lat="44.09051" lon="1.73356">
        <ele>201.2</ele>
        <time>2023-03-05T08:34:58Z</time>
      </trkpt>
      <trkpt lat="44.09049" lon="1.7336">
        <ele>201.4</ele>
        <time>2023-03-05T08:34:59Z</time>
      </trkpt>
      <trkpt lat="44.09047" lon="1.73365">
        <ele>202.4</ele>
        <time>2023-03-05T08:35:00Z</time>
      </trkpt>
      <trkpt lat="44.09045" lon="1.73369">
        <ele>202.8</ele>
        <time>2023-03-05T08:35:01Z</time>
      </trkpt>
      <trkpt lat="44.09043" lon="1.73373">
        <ele>203.8</ele>
        <time>2023-03-05T08:35:02Z</time>
      </trkpt>
      <trkpt lat="44.09041" lon="1.73377">
        <ele>204.2</ele>
        <time>2023-03-05T08:35:03Z</time>
      </trkpt>
      <trkpt lat="44.09039" lon="1.7338">
        <ele>204.6</ele>
        <time>2023-03-05T08:35:04Z</time>
      </trkpt>
      <trkpt lat="44.09036" lon="1.73384">
        <ele>205</ele>
        <time>2023-03-05T08:35:05Z</time>
      </trkpt>
      <trkpt lat="44.09034" lon="1.73387">
        <ele>205.6</ele>
        <time>2023-03-05T08:35:06Z</time>
      </trkpt>
      <trkpt lat="44.09032" lon="1.73391">
        <ele>206</ele>
        <time>2023-03-05T08:35:07Z</time>
      </trkpt>
      <trkpt lat="44.09031" lon="1.73396">
        <ele>206.6</ele>
        <time>2023-03-05T08:35:08Z</time>
      </trkpt>
      <trkpt lat="44.09029" lon="1.73399">
        <ele>207.4</ele>
        <time>2023-03-05T08:35:09Z</time>
      </trkpt>
      <trkpt lat="44.09027" lon="1.73403">
        <ele>207.4</ele>
        <time>2023-03-05T08:35:10Z</time>
      </trkpt>
      <trkpt lat="44.09025" lon="1.73405">
        <ele>208.4</ele>
        <time>2023-03-05T08:35:11Z</time>
      </trkpt>
      <trkpt lat="44.09024" lon="1.73409">
        <ele>208.8</ele>
        <time>2023-03-05T08:35:12Z</time>
      </trkpt>
      <trkpt lat="44.09022" lon="1.73413">
        <ele>209.4</ele>
        <time>2023-03-05T08:35:13Z</time>
      </trkpt>
      <trkpt lat="44.0902" lon="1.73416">
        <ele>209.6</ele>
        <time>2023-03-05T08:35:14Z</time>
      </trkpt>
      <trkpt lat="44.09018" lon="1.7342">
        <ele>210</ele>
        <time>2023-03-05T08:35:15Z</time>
      </trkpt>
      <trkpt lat="44.09017" lon="1.73423">
        <ele>210.4</ele>
        <time>2023-03-05T08:35:16Z</time>
      </trkpt>
      <trkpt lat="44.09016" lon="1.73426">
        <ele>211.4</ele>
        <time>2023-03-05T08:35:17Z</time>
      </trkpt>
      <trkpt lat="44.09014" lon="1.7343">
        <ele>212</ele>
        <time>2023-03-05T08:35:18Z</time>
      </trkpt>
      <trkpt lat="44.09013" lon="1.73433">
        <ele>212.4</ele>
        <time>2023-03-05T08:35:19Z</time>
      </trkpt>
      <trkpt lat="44.09011" lon="1.73436">
        <ele>212.6</ele>
        <time>2023-03-05T08:35:20Z</time>
      </trkpt>
      <trkpt lat="44.09009" lon="1.73439">
        <ele>213</ele>
        <time>2023-03-05T08:35:21Z</time>
      </trkpt>
      <trkpt lat="44.09007" lon="1.73443">
        <ele>213.6</ele>
        <time>2023-03-05T08:35:22Z</time>
      </trkpt>
      <trkpt lat="44.09006" lon="1.73446">
        <ele>214.4</ele>
        <time>2023-03-05T08:35:23Z</time>
      </trkpt>
      <trkpt lat="44.09004" lon="1.73449">
        <ele>215.2</ele>
        <time>2023-03-05T08:35:24Z</time>
      </trkpt>
      <trkpt lat="44.09002" lon="1.73452">
        <ele>215.4</ele>
        <time>2023-03-05T08:35:25Z</time>
      </trkpt>
      <trkpt lat="44.09001" lon="1.73455">
        <ele>216</ele>
        <time>2023-03-05T08:35:26Z</time>
      </trkpt>
      <trkpt lat="44.09" lon="1.73458">
        <ele>216.2</ele>
        <time>2023-03-05T08:35:27Z</time>
      </trkpt>
      <trkpt lat="44.08999" lon="1.73461">
        <ele>216.6</ele>
        <time>2023-03-05T08:35:28Z</time>
      </trkpt>
      <trkpt lat="44.08998" lon="1.73464">
        <ele>217</ele>
        <time>2023-03-05T08:35:29Z</time>
      </trkpt>
      <trkpt lat="44.08997" lon="1.73467">
        <ele>217.8</ele>
        <time>2023-03-05T08:35:30Z</time>
      </trkpt>
      <trkpt lat="44.08996" lon="1.7347">
        <ele>218.2</ele>
        <time>2023-03-05T08:35:31Z</time>
      </trkpt>
      <trkpt lat="44.08995" lon="1.73473">
        <ele>218.6</ele>
        <time>2023-03-05T08:35:32Z</time>
      </trkpt>
      <trkpt lat="44.08994" lon="1.73476">
        <ele>218.8</ele>
        <time>2023-03-05T08:35:33Z</time>
      </trkpt>
      <trkpt lat="44.08992" lon="1.73479">
        <ele>219</ele>
        <time>2023-03-05T08:35:34Z</time>
      </trkpt>
      <trkpt lat="44.08991" lon="1.73482">
        <ele>219.2</ele>
        <time>2023-03-05T08:35:35Z</time>
      </trkpt>
      <trkpt lat="44.0899" lon="1.73485">
        <ele>219.8</ele>
        <time>2023-03-05T08:35:36Z</time>
      </trkpt>
      <trkpt lat="44.08989" lon="1.73488">
        <ele>220.4</ele>
        <time>2023-03-05T08:35:37Z</time>
      </trkpt>
      <trkpt lat="44.08987" lon="1.73491">
        <ele>220.8</ele>
        <time>2023-03-05T08:35:38Z</time>
      </trkpt>
      <trkpt lat="44.08986" lon="1.73494">
        <ele>221.2</ele>
        <time>2023-03-05T08:35:39Z</time>
      </trkpt>
      <trkpt lat="44.08985" lon="1.73497">
        <ele>221.8</ele>
        <time>2023-03-05T08:35:40Z</time>
      </trkpt>
      <trkpt lat="44.08984" lon="1.73501">
        <ele>222.8</ele>
        <time>2023-03-05T08:35:41Z</time>
      </trkpt>
      <trkpt lat="44.08983" lon="1.73504">
        <ele>223.2</ele>
        <time>2023-03-05T08:35:42Z</time>
      </trkpt>
      <trkpt lat="44.08982" lon="1.73507">
        <ele>223.8</ele>
        <time>2023-03-05T08:35:43Z</time>
      </trkpt>
      <trkpt lat="44.08981" lon="1.7351">
        <ele>224.2</ele>
        <time>2023-03-05T08:35:44Z</time>
      </trkpt>
      <trkpt lat="44.08979" lon="1.73513">
        <ele>224.6</ele>
        <time>2023-03-05T08:35:45Z</time>
      </trkpt>
      <trkpt lat="44.08978" lon="1.73516">
        <ele>224.6</ele>
        <time>2023-03-05T08:35:46Z</time>
      </trkpt>
      <trkpt lat="44.08977" lon="1.73518">
        <ele>225.2</ele>
        <time>2023-03-05T08:35:47Z</time>
      </trkpt>
      <trkpt lat="44.08976" lon="1.73521">
        <ele>225.4</ele>
        <time>2023-03-05T08:35:48Z</time>
      </trkpt>
      <trkpt lat="44.08975" lon="1.73524">
        <ele>226</ele>
        <time>2023-03-05T08:35:49Z</time>
      </trkpt>
      <trkpt lat="44.08974" lon="1.73527">
        <ele>226.2</ele>
        <time>2023-03-05T08:35:50Z</time>
      </trkpt>
      <trkpt lat="44.08972" lon="1.73529">
        <ele>227</ele>
        <time>2023-03-05T08:35:51Z</time>
      </trkpt>
      <trkpt lat="44.08971" lon="1.73532">
        <ele>227.2</ele>
        <time>2023-03-05T08:35:52Z</time>
      </trkpt>
      <trkpt lat="44.08971" lon="1.73535">
        <ele>227.8</ele>
        <time>2023-03-05T08:35:53Z</time>
      </trkpt>
      <trkpt lat="44.0897" lon="1.73538">
        <ele>228.4</ele>
        <time>2023-03-05T08:35:54Z</time>
      </trkpt>
      <trkpt lat="44.08968" lon="1.73541">
        <ele>228.6</ele>
        <time>2023-03-05T08:35:55Z</time>
      </trkpt>
      <trkpt lat="44.08967" lon="1.73543">
        <ele>229.4</ele>
        <time>2023-03-05T08:35:56Z</time>
      </trkpt>
      <trkpt lat="44.08965" lon="1.73546">
        <ele>229.8</ele>
        <time>2023-03-05T08:35:57Z</time>
      </trkpt>
      <trkpt lat="44.08964" lon="1.73548">
        <ele>230.4</ele>
        <time>2023-03-05T08:35:58Z</time>
      </trkpt>
      <trkpt lat="44.08963" lon="1.73551">
        <ele>230.6</ele>
        <time>2023-03-05T08:35:59Z</time>
      </trkpt>
      <trkpt lat="44.08962" lon="1.73554">
        <ele>231.4</ele>
        <time>2023-03-05T08:36:00Z</time>
      </trkpt>
      <trkpt lat="44.08961" lon="1.73556">
        <ele>231.8</ele>
        <time>2023-03-05T08:36:01Z</time>
      </trkpt>
      <trkpt lat="44.0896" lon="1.73559">
        <ele>232.2</ele>
        <time>2023-03-05T08:36:02Z</time>
      </trkpt>
      <trkpt lat="44.08958" lon="1.73562">
        <ele>232.4</ele>
        <time>2023-03-05T08:36:03Z</time>
      </trkpt>
      <trkpt lat="44.08957" lon="1.73564">
        <ele>232.6</ele>
        <time>2023-03-05T08:36:04Z</time>
      </trkpt>
      <trkpt lat="44.08956" lon="1.73567">
        <ele>232.8</ele>
        <time>2023-03-05T08:36:05Z</time>
      </trkpt>
      <trkpt lat="44.08955" lon="1.7357">
        <ele>233</ele>
        <time>2023-03-05T08:36:06Z</time>
      </trkpt>
      <trkpt lat="44.08954" lon="1.73573">
        <ele>233.2</ele>
        <time>2023-03-05T08:36:07Z</time>
      </trkpt>
      <trkpt lat="44.08952" lon="1.73575">
        <ele>233.4</ele>
        <time>2023-03-05T08:36:08Z</time>
      </trkpt>
      <trkpt lat="44.08951" lon="1.73578">
        <ele>234</ele>
        <time>2023-03-05T08:36:09Z</time>
      </trkpt>
      <trkpt lat="44.0895" lon="1.73581">
        <ele>234.2</ele>
        <time>2023-03-05T08:36:10Z</time>
      </trkpt>
      <trkpt lat="44.08948" lon="1.73584">
        <ele>234.6</ele>
        <time>2023-03-05T08:36:11Z</time>
      </trkpt>
      <trkpt lat="44.08947" lon="1.73587">
        <ele>234.8</ele>
        <time>2023-03-05T08:36:12Z</time>
      </trkpt>
      <trkpt lat="44.08946" lon="1.73589">
        <ele>235</ele>
        <time>2023-03-05T08:36:13Z</time>
      </trkpt>
      <trkpt lat="44.08944" lon="1.73593">
        <ele>235</ele>
        <time>2023-03-05T08:36:14Z</time>
      </trkpt>
      <trkpt lat="44.08943" lon="1.73595">
        <ele>235.4</ele>
        <time>2023-03-05T08:36:15Z</time>
      </trkpt>
      <trkpt lat="44.08941" lon="1.73598">
        <ele>235.6</ele>
        <time>2023-03-05T08:36:16Z</time>
      </trkpt>
      <trkpt lat="44.0894" lon="1.736">
        <ele>236.2</ele>
        <time>2023-03-05T08:36:17Z</time>
      </trkpt>
      <trkpt lat="44.08938" lon="1.73603">
        <ele>236.4</ele>
        <time>2023-03-05T08:36:18Z</time>
      </trkpt>
      <trkpt lat="44.08937" lon="1.73606">
        <ele>236.8</ele>
        <time>2023-03-05T08:36:19Z</time>
      </trkpt>
      <trkpt lat="44.08936" lon="1.73609">
        <ele>237</ele>
        <time>2023-03-05T08:36:20Z</time>
      </trkpt>
      <trkpt lat="44.08935" lon="1.73612">
        <ele>237.4</ele>
        <time>2023-03-05T08:36:21Z</time>
      </trkpt>
      <trkpt lat="44.08933" lon="1.73615">
        <ele>237.6</ele>
        <time>2023-03-05T08:36:22Z</time>
      </trkpt>
      <trkpt lat="44.08932" lon="1.73618">
        <ele>237.8</ele>
        <time>2023-03-05T08:36:23Z</time>
      </trkpt>
      <trkpt lat="44.08931" lon="1.73621">
        <ele>238</ele>
        <time>2023-03-05T08:36:24Z</time>
      </trkpt>
      <trkpt lat="44.08929" lon="1.73624">
        <ele>238.4</ele>
        <time>2023-03-05T08:36:25Z</time>
      </trkpt>
      <trkpt lat="44.08928" lon="1.73627">
        <ele>238.8</ele>
        <time>2023-03-05T08:36:26Z</time>
      </trkpt>
      <trkpt lat="44.08927" lon="1.73629">
        <ele>239</ele>
        <time>2023-03-05T08:36:27Z</time>
      </trkpt>
      <trkpt lat="44.08926" lon="1.73633">
        <ele>239.6</ele>
        <time>2023-03-05T08:36:28Z</time>
      </trkpt>
      <trkpt lat="44.08924" lon="1.73635">
        <ele>239.8</ele>
        <time>2023-03-05T08:36:29Z</time>
      </trkpt>
      <trkpt lat="44.08923" lon="1.73638">
        <ele>240.4</ele>
        <time>2023-03-05T08:36:30Z</time>
      </trkpt>
      <trkpt lat="44.08922" lon="1.73641">
        <ele>240.6</ele>
        <time>2023-03-05T08:36:31Z</time>
      </trkpt>
      <trkpt lat="44.08921" lon="1.73644">
        <ele>241</ele>
        <time>2023-03-05T08:36:32Z</time>
      </trkpt>
      <trkpt lat="44.0892" lon="1.73646">
        <ele>241.2</ele>
        <time>2023-03-05T08:36:33Z</time>
      </trkpt>
      <trkpt lat="44.08918" lon="1.7365">
        <ele>242</ele>
        <time>2023-03-05T08:36:34Z</time>
      </trkpt>
      <trkpt lat="44.08917" lon="1.73653">
        <ele>242.4</ele>
        <time>2023-03-05T08:36:35Z</time>
      </trkpt>
      <trkpt lat="44.08916" lon="1.73655">
        <ele>242.8</ele>
        <time>2023-03-05T08:36:36Z</time>
      </trkpt>
      <trkpt lat="44.08915" lon="1.73658">
        <ele>243</ele>
        <time>2023-03-05T08:36:37Z</time>
      </trkpt>
      <trkpt lat="44.08913" lon="1.73661">
        <ele>243.2</ele>
        <time>2023-03-05T08:36:38Z</time>
      </trkpt>
      <trkpt lat="44.08912" lon="1.73664">
        <ele>243.4</ele>
        <time>2023-03-05T08:36:39Z</time>
      </trkpt>
      <trkpt lat="44.08911" lon="1.73666">
        <ele>243.8</ele>
        <time>2023-03-05T08:36:40Z</time>
      </trkpt>
      <trkpt lat="44.0891" lon="1.73669">
        <ele>244</ele>
        <time>2023-03-05T08:36:41Z</time>
      </trkpt>
      <trkpt lat="44.08909" lon="1.73672">
        <ele>244.2</ele>
        <time>2023-03-05T08:36:42Z</time>
      </trkpt>
      <trkpt lat="44.08907" lon="1.73674">
        <ele>245</ele>
        <time>2023-03-05T08:36:43Z</time>
      </trkpt>
      <trkpt lat="44.08906" lon="1.73677">
        <ele>245.2</ele>
        <time>2023-03-05T08:36:44Z</time>
      </trkpt>
      <trkpt lat="44.08905" lon="1.7368">
        <ele>245.8</ele>
        <time>2023-03-05T08:36:45Z</time>
      </trkpt>
      <trkpt lat="44.08903" lon="1.73682">
        <ele>246</ele>
        <time>2023-03-05T08:36:46Z</time>
      </trkpt>
      <trkpt lat="44.08902" lon="1.73685">
        <ele>246.4</ele>
        <time>2023-03-05T08:36:47Z</time>
      </trkpt>
      <trkpt lat="44.08901" lon="1.73687">
        <ele>246.8</ele>
        <time>2023-03-05T08:36:48Z</time>
      </trkpt>
      <trkpt lat="44.089" lon="1.7369">
        <ele>247.2</ele>
        <time>2023-03-05T08:36:49Z</time>
      </trkpt>
      <trkpt lat="44.08898" lon="1.73693">
        <ele>247.6</ele>
        <time>2023-03-05T08:36:50Z</time>
      </trkpt>
      <trkpt lat="44.08897" lon="1.73695">
        <ele>248.2</ele>
        <time>2023-03-05T08:36:51Z</time>
      </trkpt>
      <trkpt lat="44.08896" lon="1.73698">
        <ele>248.2</ele>
        <time>2023-03-05T08:36:52Z</time>
      </trkpt>
      <trkpt lat="44.08894" lon="1.737">
        <ele>248.4</ele>
        <time>2023-03-05T08:36:53Z</time>
      </trkpt>
      <trkpt lat="44.08893" lon="1.73703">
        <ele>248.6</ele>
        <time>2023-03-05T08:36:54Z</time>
      </trkpt>
      <trkpt lat="44.08891" lon="1.73705">
        <ele>249.2</ele>
        <time>2023-03-05T08:36:55Z</time>
      </trkpt>
      <trkpt lat="44.0889" lon="1.73707">
        <ele>249.8</ele>
        <time>2023-03-05T08:36:56Z</time>
      </trkpt>
      <trkpt lat="44.08889" lon="1.7371">
        <ele>250</ele>
        <time>2023-03-05T08:36:57Z</time>
      </trkpt>
      <trkpt lat="44.08888" lon="1.73713">
        <ele>250.4</ele>
        <time>2023-03-05T08:36:58Z</time>
      </trkpt>
      <trkpt lat="44.08886" lon="1.73716">
        <ele>250.6</ele>
        <time>2023-03-05T08:36:59Z</time>
      </trkpt>
      <trkpt lat="44.08885" lon="1.7372">
        <ele>251.2</ele>
        <time>2023-03-05T08:37:00Z</time>
      </trkpt>
      <trkpt lat="44.08884" lon="1.73723">
        <ele>251.4</ele>
        <time>2023-03-05T08:37:01Z</time>
      </trkpt>
      <trkpt lat="44.08882" lon="1.73726">
        <ele>252</ele>
        <time>2023-03-05T08:37:02Z</time>
      </trkpt>
      <trkpt lat="44.0888" lon="1.73728">
        <ele>252.2</ele>
        <time>2023-03-05T08:37:03Z</time>
      </trkpt>
      <trkpt lat="44.08879" lon="1.73731">
        <ele>252.6</ele>
        <time>2023-03-05T08:37:04Z</time>
      </trkpt>
      <trkpt lat="44.08879" lon="1.73733">
        <ele>253</ele>
        <time>2023-03-05T08:37:05Z</time>
      </trkpt>
      <trkpt lat="44.08881" lon="1.73735">
        <ele>253.8</ele>
        <time>2023-03-05T08:37:06Z</time>
      </trkpt>
      <trkpt lat="44.08883" lon="1.73734">
        <ele>254</ele>
        <time>2023-03-05T08:37:07Z</time>
      </trkpt>
      <trkpt lat="44.08885" lon="1.73733">
        <ele>254.6</ele>
        <time>2023-03-05T08:37:08Z</time>
      </trkpt>
      <trkpt lat="44.08887" lon="1.73731">
        <ele>254.8</ele>
        <time>2023-03-05T08:37:09Z</time>
      </trkpt>
      <trkpt lat="44.0889" lon="1.73729">
        <ele>255</ele>
        <time>2023-03-05T08:37:10Z</time>
      </trkpt>
      <trkpt lat="44.08892" lon="1.73728">
        <ele>255.6</ele>
        <time>2023-03-05T08:37:11Z</time>
      </trkpt>
      <trkpt lat="44.08894" lon="1.73726">
        <ele>255.8</ele>
        <time>2023-03-05T08:37:12Z</time>
      </trkpt>
      <trkpt lat="44.08897" lon="1.73725">
        <ele>256.6</ele>
        <time>2023-03-05T08:37:13Z</time>
      </trkpt>
      <trkpt lat="44.08899" lon="1.73724">
        <ele>256.8</ele>
        <time>2023-03-05T08:37:14Z</time>
      </trkpt>
      <trkpt lat="44.08901" lon="1.73723">
        <ele>257</ele>
        <time>2023-03-05T08:37:15Z</time>
      </trkpt>
      <trkpt lat="44.08903" lon="1.73722">
        <ele>257.2</ele>
        <time>2023-03-05T08:37:16Z</time>
      </trkpt>
      <trkpt lat="44.08905" lon="1.73721">
        <ele>257.6</ele>
        <time>2023-03-05T08:37:17Z</time>
      </trkpt>
      <trkpt lat="44.08907" lon="1.7372">
        <ele>257.8</ele>
        <time>2023-03-05T08:37:18Z</time>
      </trkpt>
      <trkpt lat="44.08908" lon="1.7372">
        <ele>258.2</ele>
        <time>2023-03-05T08:37:19Z</time>
      </trkpt>
      <trkpt lat="44.08909" lon="1.73722">
        <ele>258.4</ele>
        <time>2023-03-05T08:37:20Z</time>
      </trkpt>
      <trkpt lat="44.08908" lon="1.73724">
        <ele>259</ele>
        <time>2023-03-05T08:37:21Z</time>
      </trkpt>
      <trkpt lat="44.08907" lon="1.73726">
        <ele>259.2</ele>
        <time>2023-03-05T08:37:22Z</time>
      </trkpt>
      <trkpt lat="44.08906" lon="1.73728">
        <ele>259.6</ele>
        <time>2023-03-05T08:37:23Z</time>
      </trkpt>
      <trkpt lat="44.08905" lon="1.7373">
        <ele>259.8</ele>
        <time>2023-03-05T08:37:24Z</time>
      </trkpt>
      <trkpt lat="44.08904" lon="1.73732">
        <ele>260</ele>
        <time>2023-03-05T08:37:25Z</time>
      </trkpt>
      <trkpt lat="44.08903" lon="1.73734">
        <ele>260.8</ele>
        <time>2023-03-05T08:37:26Z</time>
      </trkpt>
      <trkpt lat="44.08902" lon="1.73736">
        <ele>261.2</ele>
        <time>2023-03-05T08:37:27Z</time>
      </trkpt>
      <trkpt lat="44.08901" lon="1.73738">
        <ele>261.6</ele>
        <time>2023-03-05T08:37:28Z</time>
      </trkpt>
      <trkpt lat="44.089" lon="1.73741">
        <ele>261.8</ele>
        <time>2023-03-05T08:37:29Z</time>
      </trkpt>
      <trkpt lat="44.08899" lon="1.73743">
        <ele>262</ele>
        <time>2023-03-05T08:37:30Z</time>
      </trkpt>
      <trkpt lat="44.08898" lon="1.73746">
        <ele>262.2</ele>
        <time>2023-03-05T08:37:31Z</time>
      </trkpt>
      <trkpt lat="44.08897" lon="1.73748">
        <ele>263</ele>
        <time>2023-03-05T08:37:32Z</time>
      </trkpt>
      <trkpt lat="44.08895" lon="1.73751">
        <ele>263.2</ele>
        <time>2023-03-05T08:37:33Z</time>
      </trkpt>
      <trkpt lat="44.08894" lon="1.73753">
        <ele>264</ele>
        <time>2023-03-05T08:37:34Z</time>
      </trkpt>
      <trkpt lat="44.08893" lon="1.73756">
        <ele>264.2</ele>
        <time>2023-03-05T08:37:35Z</time>
      </trkpt>
      <trkpt lat="44.08891" lon="1.73759">
        <ele>264.4</ele>
        <time>2023-03-05T08:37:36Z</time>
      </trkpt>
      <trkpt lat="44.0889" lon="1.73761">
        <ele>264.4</ele>
        <time>2023-03-05T08:37:37Z</time>
      </trkpt>
      <trkpt lat="44.08889" lon="1.73763">
        <ele>265.6</ele>
        <time>2023-03-05T08:37:38Z</time>
      </trkpt>
      <trkpt lat="44.08887" lon="1.73767">
        <ele>266</ele>
        <time>2023-03-05T08:37:39Z</time>
      </trkpt>
      <trkpt lat="44.08886" lon="1.7377">
        <ele>266.8</ele>
        <time>2023-03-05T08:37:40Z</time>
      </trkpt>
      <trkpt lat="44.08885" lon="1.73772">
        <ele>267</ele>
        <time>2023-03-05T08:37:41Z</time>
      </trkpt>
      <trkpt lat="44.08883" lon="1.73775">
        <ele>267.4</ele>
        <time>2023-03-05T08:37:42Z</time>
      </trkpt>
      <trkpt lat="44.08882" lon="1.73777">
        <ele>267.8</ele>
        <time>2023-03-05T08:37:43Z</time>
      </trkpt>
      <trkpt lat="44.0888" lon="1.7378">
        <ele>267.8</ele>
        <time>2023-03-05T08:37:44Z</time>
      </trkpt>
      <trkpt lat="44.08879" lon="1.73782">
        <ele>268.6</ele>
        <time>2023-03-05T08:37:45Z</time>
      </trkpt>
      <trkpt lat="44.08877" lon="1.73784">
        <ele>268.8</ele>
        <time>2023-03-05T08:37:46Z</time>
      </trkpt>
      <trkpt lat="44.08876" lon="1.73787">
        <ele>269.6</ele>
        <time>2023-03-05T08:37:47Z</time>
      </trkpt>
      <trkpt lat="44.08875" lon="1.73789">
        <ele>270</ele>
        <time>2023-03-05T08:37:48Z</time>
      </trkpt>
      <trkpt lat="44.08873" lon="1.73792">
        <ele>270.4</ele>
        <time>2023-03-05T08:37:49Z</time>
      </trkpt>
      <trkpt lat="44.08872" lon="1.73794">
        <ele>271</ele>
        <time>2023-03-05T08:37:50Z</time>
      </trkpt>
      <trkpt lat="44.08871" lon="1.73796">
        <ele>271.8</ele>
        <time>2023-03-05T08:37:51Z</time>
      </trkpt>
      <trkpt lat="44.08869" lon="1.73798">
        <ele>272.2</ele>
        <time>2023-03-05T08:37:52Z</time>
      </trkpt>
      <trkpt lat="44.08868" lon="1.73801">
        <ele>272.6</ele>
        <time>2023-03-05T08:37:53Z</time>
      </trkpt>
      <trkpt lat="44.08866" lon="1.73803">
        <ele>272.8</ele>
        <time>2023-03-05T08:37:54Z</time>
      </trkpt>
      <trkpt lat="44.08864" lon="1.73806">
        <ele>273.2</ele>
        <time>2023-03-05T08:37:55Z</time>
      </trkpt>
      <trkpt lat="44.08863" lon="1.73808">
        <ele>273.4</ele>
        <time>2023-03-05T08:37:56Z</time>
      </trkpt>
      <trkpt lat="44.08862" lon="1.73811">
        <ele>273.8</ele>
        <time>2023-03-05T08:37:57Z</time>
      </trkpt>
      <trkpt lat="44.0886" lon="1.73813">
        <ele>274.2</ele>
        <time>2023-03-05T08:37:58Z</time>
      </trkpt>
      <trkpt lat="44.08858" lon="1.73815">
        <ele>274.6</ele>
        <time>2023-03-05T08:37:59Z</time>
      </trkpt>
      <trkpt lat="44.08857" lon="1.73818">
        <ele>275.4</ele>
        <time>2023-03-05T08:38:00Z</time>
      </trkpt>
      <trkpt lat="44.08855" lon="1.7382">
        <ele>275.6</ele>
        <time>2023-03-05T08:38:01Z</time>
      </trkpt>
      <trkpt lat="44.08853" lon="1.73822">
        <ele>276</ele>
        <time>2023-03-05T08:38:02Z</time>
      </trkpt>
      <trkpt lat="44.08852" lon="1.73825">
        <ele>276.4</ele>
        <time>2023-03-05T08:38:03Z</time>
      </trkpt>
      <trkpt lat="44.08851" lon="1.73827">
        <ele>277</ele>
        <time>2023-03-05T08:38:04Z</time>
      </trkpt>
      <trkpt lat="44.08849" lon="1.73829">
        <ele>277.2</ele>
        <time>2023-03-05T08:38:05Z</time>
      </trkpt>
      <trkpt lat="44.08848" lon="1.73832">
        <ele>277.6</ele>
        <time>2023-03-05T08:38:06Z</time>
      </trkpt>
      <trkpt lat="44.08847" lon="1.73833">
        <ele>277.8</ele>
        <time>2023-03-05T08:38:07Z</time>
      </trkpt>
      <trkpt lat="44.08845" lon="1.73836">
        <ele>278.6</ele>
        <time>2023-03-05T08:38:08Z</time>
      </trkpt>
      <trkpt lat="44.08844" lon="1.73838">
        <ele>279.6</ele>
        <time>2023-03-05T08:38:09Z</time>
      </trkpt>
      <trkpt lat="44.08842" lon="1.73841">
        <ele>280.2</ele>
        <time>2023-03-05T08:38:10Z</time>
      </trkpt>
      <trkpt lat="44.08841" lon="1.73843">
        <ele>280.4</ele>
        <time>2023-03-05T08:38:11Z</time>
      </trkpt>
      <trkpt lat="44.08839" lon="1.73845">
        <ele>280.6</ele>
        <time>2023-03-05T08:38:12Z</time>
      </trkpt>
      <trkpt lat="44.08838" lon="1.73848">
        <ele>281</ele>
        <time>2023-03-05T08:38:13Z</time>
      </trkpt>
      <trkpt lat="44.08836" lon="1.7385">
        <ele>281.2</ele>
        <time>2023-03-05T08:38:14Z</time>
      </trkpt>
      <trkpt lat="44.08834" lon="1.73852">
        <ele>281.6</ele>
        <time>2023-03-05T08:38:15Z</time>
      </trkpt>
      <trkpt lat="44.08833" lon="1.73854">
        <ele>281.8</ele>
        <time>2023-03-05T08:38:16Z</time>
      </trkpt>
      <trkpt lat="44.0883" lon="1.73856">
        <ele>282.2</ele>
        <time>2023-03-05T08:38:17Z</time>
      </trkpt>
      <trkpt lat="44.08829" lon="1.73859">
        <ele>282.6</ele>
        <time>2023-03-05T08:38:18Z</time>
      </trkpt>
      <trkpt lat="44.08827" lon="1.73861">
        <ele>282.8</ele>
        <time>2023-03-05T08:38:19Z</time>
      </trkpt>
      <trkpt lat="44.08825" lon="1.73863">
        <ele>283</ele>
        <time>2023-03-05T08:38:20Z</time>
      </trkpt>
      <trkpt lat="44.08824" lon="1.73865">
        <ele>283.4</ele>
        <time>2023-03-05T08:38:21Z</time>
      </trkpt>
      <trkpt lat="44.08821" lon="1.73867">
        <ele>283.6</ele>
        <time>2023-03-05T08:38:22Z</time>
      </trkpt>
      <trkpt lat="44.08819" lon="1.7387">
        <ele>284</ele>
        <time>2023-03-05T08:38:23Z</time>
      </trkpt>
      <trkpt lat="44.08818" lon="1.73872">
        <ele>284.6</ele>
        <time>2023-03-05T08:38:24Z</time>
      </trkpt>
      <trkpt lat="44.08816" lon="1.73874">
        <ele>285.2</ele>
        <time>2023-03-05T08:38:25Z</time>
      </trkpt>
      <trkpt lat="44.08815" lon="1.73875">
        <ele>285.4</ele>
        <time>2023-03-05T08:38:26Z</time>
      </trkpt>
      <trkpt lat="44.08814" lon="1.73877">
        <ele>285.6</ele>
        <time>2023-03-05T08:38:27Z</time>
      </trkpt>
      <trkpt lat="44.08812" lon="1.7388">
        <ele>286</ele>
        <time>2023-03-05T08:38:28Z</time>
      </trkpt>
      <trkpt lat="44.08811" lon="1.73882">
        <ele>286.4</ele>
        <time>2023-03-05T08:38:29Z</time>
      </trkpt>
      <trkpt lat="44.08809" lon="1.73884">
        <ele>287</ele>
        <time>2023-03-05T08:38:30Z</time>
      </trkpt>
      <trkpt lat="44.08808" lon="1.73885">
        <ele>287.2</ele>
        <time>2023-03-05T08:38:31Z</time>
      </trkpt>
      <trkpt lat="44.08806" lon="1.73887">
        <ele>287.6</ele>
        <time>2023-03-05T08:38:32Z</time>
      </trkpt>
      <trkpt lat="44.08804" lon="1.73889">
        <ele>287.8</ele>
        <time>2023-03-05T08:38:33Z</time>
      </trkpt>
      <trkpt lat="44.08803" lon="1.73891">
        <ele>288</ele>
        <time>2023-03-05T08:38:34Z</time>
      </trkpt>
      <trkpt lat="44.08801" lon="1.73893">
        <ele>288.2</ele>
        <time>2023-03-05T08:38:35Z</time>
      </trkpt>
      <trkpt lat="44.08799" lon="1.73895">
        <ele>288.8</ele>
        <time>2023-03-05T08:38:36Z</time>
      </trkpt>
      <trkpt lat="44.08797" lon="1.73897">
        <ele>289</ele>
        <time>2023-03-05T08:38:37Z</time>
      </trkpt>
      <trkpt lat="44.08795" lon="1.73899">
        <ele>289.2</ele>
        <time>2023-03-05T08:38:38Z</time>
      </trkpt>
      <trkpt lat="44.08793" lon="1.739">
        <ele>289.2</ele>
        <time>2023-03-05T08:38:39Z</time>
      </trkpt>
      <trkpt lat="44.08791" lon="1.73902">
        <ele>289.8</ele>
        <time>2023-03-05T08:38:40Z</time>
      </trkpt>
      <trkpt lat="44.08789" lon="1.73905">
        <ele>290.2</ele>
        <time>2023-03-05T08:38:41Z</time>
      </trkpt>
      <trkpt lat="44.08787" lon="1.73907">
        <ele>290.6</ele>
        <time>2023-03-05T08:38:42Z</time>
      </trkpt>
      <trkpt lat="44.08785" lon="1.73909">
        <ele>291</ele>
        <time>2023-03-05T08:38:43Z</time>
      </trkpt>
      <trkpt lat="44.08784" lon="1.73911">
        <ele>291.2</ele>
        <time>2023-03-05T08:38:44Z</time>
      </trkpt>
      <trkpt lat="44.08782" lon="1.73913">
        <ele>291.6</ele>
        <time>2023-03-05T08:38:45Z</time>
      </trkpt>
      <trkpt lat="44.0878" lon="1.73914">
        <ele>291.8</ele>
        <time>2023-03-05T08:38:46Z</time>
      </trkpt>
      <trkpt lat="44.08778" lon="1.73917">
        <ele>292.6</ele>
        <time>2023-03-05T08:38:47Z</time>
      </trkpt>
      <trkpt lat="44.08775" lon="1.73919">
        <ele>292.8</ele>
        <time>2023-03-05T08:38:48Z</time>
      </trkpt>
      <trkpt lat="44.08773" lon="1.73921">
        <ele>293.6</ele>
        <time>2023-03-05T08:38:49Z</time>
      </trkpt>
      <trkpt lat="44.08771" lon="1.73923">
        <ele>293.8</ele>
        <time>2023-03-05T08:38:50Z</time>
      </trkpt>
      <trkpt lat="44.08769" lon="1.73924">
        <ele>294.2</ele>
        <time>2023-03-05T08:38:51Z</time>
      </trkpt>
      <trkpt lat="44.08766" lon="1.73926">
        <ele>294.4</ele>
        <time>2023-03-05T08:38:52Z</time>
      </trkpt>
      <trkpt lat="44.08764" lon="1.73928">
        <ele>294.6</ele>
        <time>2023-03-05T08:38:53Z</time>
      </trkpt>
      <trkpt lat="44.08762" lon="1.7393">
        <ele>295</ele>
        <time>2023-03-05T08:38:54Z</time>
      </trkpt>
      <trkpt lat="44.08759" lon="1.73932">
        <ele>295.8</ele>
        <time>2023-03-05T08:38:55Z</time>
      </trkpt>
      <trkpt lat="44.08757" lon="1.73934">
        <ele>296.2</ele>
        <time>2023-03-05T08:38:56Z</time>
      </trkpt>
      <trkpt lat="44.08755" lon="1.73936">
        <ele>296.6</ele>
        <time>2023-03-05T08:38:57Z</time>
      </trkpt>
      <trkpt lat="44.08752" lon="1.73938">
        <ele>297</ele>
        <time>2023-03-05T08:38:58Z</time>
      </trkpt>
      <trkpt lat="44.0875" lon="1.7394">
        <ele>297.4</ele>
        <time>2023-03-05T08:38:59Z</time>
      </trkpt>
      <trkpt lat="44.08747" lon="1.73942">
        <ele>298</ele>
        <time>2023-03-05T08:39:00Z</time>
      </trkpt>
      <trkpt lat="44.08745" lon="1.73945">
        <ele>298.2</ele>
        <time>2023-03-05T08:39:01Z</time>
      </trkpt>
      <trkpt lat="44.08743" lon="1.73947">
        <ele>298.6</ele>
        <time>2023-03-05T08:39:02Z</time>
      </trkpt>
      <trkpt lat="44.08741" lon="1.73949">
        <ele>298.8</ele>
        <time>2023-03-05T08:39:03Z</time>
      </trkpt>
      <trkpt lat="44.08739" lon="1.73951">
        <ele>299.2</ele>
        <time>2023-03-05T08:39:04Z</time>
      </trkpt>
      <trkpt lat="44.08737" lon="1.73954">
        <ele>299.6</ele>
        <time>2023-03-05T08:39:05Z</time>
      </trkpt>
      <trkpt lat="44.08736" lon="1.73956">
        <ele>299.8</ele>
        <time>2023-03-05T08:39:06Z</time>
      </trkpt>
      <trkpt lat="44.08734" lon="1.73958">
        <ele>300</ele>
        <time>2023-03-05T08:39:07Z</time>
      </trkpt>
      <trkpt lat="44.08733" lon="1.7396">
        <ele>300.4</ele>
        <time>2023-03-05T08:39:08Z</time>
      </trkpt>
      <trkpt lat="44.08732" lon="1.73961">
        <ele>300.8</ele>
        <time>2023-03-05T08:39:09Z</time>
      </trkpt>
      <trkpt lat="44.0873" lon="1.73964">
        <ele>301.6</ele>
        <time>2023-03-05T08:39:10Z</time>
      </trkpt>
      <trkpt lat="44.08727" lon="1.73965">
        <ele>301.8</ele>
        <time>2023-03-05T08:39:11Z</time>
      </trkpt>
      <trkpt lat="44.08725" lon="1.73967">
        <ele>302.4</ele>
        <time>2023-03-05T08:39:12Z</time>
      </trkpt>
      <trkpt lat="44.08723" lon="1.73968">
        <ele>302.6</ele>
        <time>2023-03-05T08:39:13Z</time>
      </trkpt>
      <trkpt lat="44.0872" lon="1.73969">
        <ele>303</ele>
        <time>2023-03-05T08:39:14Z</time>
      </trkpt>
      <trkpt lat="44.08717" lon="1.73969">
        <ele>303.4</ele>
        <time>2023-03-05T08:39:15Z</time>
      </trkpt>
      <trkpt lat="44.08714" lon="1.73969">
        <ele>303.6</ele>
        <time>2023-03-05T08:39:16Z</time>
      </trkpt>
      <trkpt lat="44.08711" lon="1.7397">
        <ele>303.8</ele>
        <time>2023-03-05T08:39:17Z</time>
      </trkpt>
      <trkpt lat="44.08708" lon="1.73971">
        <ele>304</ele>
        <time>2023-03-05T08:39:18Z</time>
      </trkpt>
      <trkpt lat="44.08705" lon="1.73971">
        <ele>304.2</ele>
        <time>2023-03-05T08:39:19Z</time>
      </trkpt>
      <trkpt lat="44.08702" lon="1.73972">
        <ele>304.4</ele>
        <time>2023-03-05T08:39:20Z</time>
      </trkpt>
      <trkpt lat="44.08698" lon="1.73972">
        <ele>304.6</ele>
        <time>2023-03-05T08:39:21Z</time>
      </trkpt>
      <trkpt lat="44.08695" lon="1.73972">
        <ele>304.6</ele>
        <time>2023-03-05T08:39:22Z</time>
      </trkpt>
      <trkpt lat="44.08691" lon="1.73972">
        <ele>304.8</ele>
        <time>2023-03-05T08:39:23Z</time>
      </trkpt>
      <trkpt lat="44.08687" lon="1.73972">
        <ele>304.8</ele>
        <time>2023-03-05T08:39:24Z</time>
      </trkpt>
      <trkpt lat="44.08683" lon="1.73973">
        <ele>305</ele>
        <time>2023-03-05T08:39:25Z</time>
      </trkpt>
      <trkpt lat="44.08679" lon="1.73974">
        <ele>305</ele>
        <time>2023-03-05T08:39:26Z</time>
      </trkpt>
      <trkpt lat="44.08676" lon="1.73975">
        <ele>305.2</ele>
        <time>2023-03-05T08:39:27Z</time>
      </trkpt>
      <trkpt lat="44.08673" lon="1.73976">
        <ele>305.4</ele>
        <time>2023-03-05T08:39:28Z</time>
      </trkpt>
      <trkpt lat="44.08669" lon="1.73978">
        <ele>305.6</ele>
        <time>2023-03-05T08:39:29Z</time>
      </trkpt>
      <trkpt lat="44.08666" lon="1.73979">
        <ele>305.6</ele>
        <time>2023-03-05T08:39:30Z</time>
      </trkpt>
      <trkpt lat="44.08662" lon="1.7398">
        <ele>305.6</ele>
        <time>2023-03-05T08:39:31Z</time>
      </trkpt>
      <trkpt lat="44.08659" lon="1.73981">
        <ele>305.8</ele>
        <time>2023-03-05T08:39:32Z</time>
      </trkpt>
      <trkpt lat="44.08655" lon="1.73982">
        <ele>305.8</ele>
        <time>2023-03-05T08:39:33Z</time>
      </trkpt>
      <trkpt lat="44.08652" lon="1.73983">
        <ele>306</ele>
        <time>2023-03-05T08:39:34Z</time>
      </trkpt>
      <trkpt lat="44.08648" lon="1.73983">
        <ele>306</ele>
        <time>2023-03-05T08:39:35Z</time>
      </trkpt>
      <trkpt lat="44.08645" lon="1.73984">
        <ele>306.2</ele>
        <time>2023-03-05T08:39:36Z</time>
      </trkpt>
      <trkpt lat="44.08641" lon="1.73984">
        <ele>306.2</ele>
        <time>2023-03-05T08:39:37Z</time>
      </trkpt>
      <trkpt lat="44.08637" lon="1.73985">
        <ele>306.2</ele>
        <time>2023-03-05T08:39:38Z</time>
      </trkpt>
      <trkpt lat="44.08634" lon="1.73985">
        <ele>306.2</ele>
        <time>2023-03-05T08:39:39Z</time>
      </trkpt>
      <trkpt lat="44.0863" lon="1.73986">
        <ele>306.4</ele>
        <time>2023-03-05T08:39:40Z</time>
      </trkpt>
      <trkpt lat="44.08627" lon="1.73986">
        <ele>306.4</ele>
        <time>2023-03-05T08:39:41Z</time>
      </trkpt>
      <trkpt lat="44.08623" lon="1.73987">
        <ele>306.6</ele>
        <time>2023-03-05T08:39:42Z</time>
      </trkpt>
      <trkpt lat="44.0862" lon="1.73988">
        <ele>306.8</ele>
        <time>2023-03-05T08:39:43Z</time>
      </trkpt>
      <trkpt lat="44.08616" lon="1.73989">
        <ele>307</ele>
        <time>2023-03-05T08:39:44Z</time>
      </trkpt>
      <trkpt lat="44.08613" lon="1.7399">
        <ele>307</ele>
        <time>2023-03-05T08:39:45Z</time>
      </trkpt>
      <trkpt lat="44.0861" lon="1.73991">
        <ele>307.2</ele>
        <time>2023-03-05T08:39:46Z</time>
      </trkpt>
      <trkpt lat="44.08607" lon="1.73992">
        <ele>307.6</ele>
        <time>2023-03-05T08:39:47Z</time>
      </trkpt>
      <trkpt lat="44.08604" lon="1.73994">
        <ele>307.6</ele>
        <time>2023-03-05T08:39:48Z</time>
      </trkpt>
      <trkpt lat="44.08602" lon="1.73996">
        <ele>307.8</ele>
        <time>2023-03-05T08:39:49Z</time>
      </trkpt>
      <trkpt lat="44.08601" lon="1.73997">
        <ele>307.8</ele>
        <time>2023-03-05T08:39:50Z</time>
      </trkpt>
      <trkpt lat="44.08601" lon="1.73998">
        <ele>308</ele>
        <time>2023-03-05T08:39:51Z</time>
      </trkpt>
      <trkpt lat="44.08601" lon="1.73998">
        <ele>308.2</ele>
        <time>2023-03-05T08:39:52Z</time>
      </trkpt>
      <trkpt lat="44.08602" lon="1.73999">
        <ele>308.4</ele>
        <time>2023-03-05T08:39:53Z</time>
      </trkpt>
      <trkpt lat="44.08602" lon="1.74">
        <ele>308.6</ele>
        <time>2023-03-05T08:39:54Z</time>
      </trkpt>
      <trkpt lat="44.08603" lon="1.74002">
        <ele>308.6</ele>
        <time>2023-03-05T08:39:55Z</time>
      </trkpt>
      <trkpt lat="44.08604" lon="1.74004">
        <ele>308.6</ele>
        <time>2023-03-05T08:39:56Z</time>
      </trkpt>
      <trkpt lat="44.08605" lon="1.74007">
        <ele>308.8</ele>
        <time>2023-03-05T08:39:57Z</time>
      </trkpt>
      <trkpt lat="44.08606" lon="1.7401">
        <ele>308.8</ele>
        <time>2023-03-05T08:39:58Z</time>
      </trkpt>
      <trkpt lat="44.08609" lon="1.74012">
        <ele>308.8</ele>
        <time>2023-03-05T08:39:59Z</time>
      </trkpt>
      <trkpt lat="44.08611" lon="1.74015">
        <ele>308.8</ele>
        <time>2023-03-05T08:40:00Z</time>
      </trkpt>
      <trkpt lat="44.08613" lon="1.74016">
        <ele>308.8</ele>
        <time>2023-03-05T08:40:01Z</time>
      </trkpt>
      <trkpt lat="44.08615" lon="1.74018">
        <ele>308.8</ele>
        <time>2023-03-05T08:40:02Z</time>
      </trkpt>
      <trkpt lat="44.08617" lon="1.7402">
        <ele>308.8</ele>
        <time>2023-03-05T08:40:03Z</time>
      </trkpt>
      <trkpt lat="44.08619" lon="1.74022">
        <ele>308.8</ele>
        <time>2023-03-05T08:40:04Z</time>
      </trkpt>
      <trkpt lat="44.08621" lon="1.74024">
        <ele>308.8</ele>
        <time>2023-03-05T08:40:05Z</time>
      </trkpt>
      <trkpt lat="44.08623" lon="1.74026">
        <ele>308.8</ele>
        <time>2023-03-05T08:40:06Z</time>
      </trkpt>
      <trkpt lat="44.08625" lon="1.74028">
        <ele>308.8</ele>
        <time>2023-03-05T08:40:07Z</time>
      </trkpt>
      <trkpt lat="44.08627" lon="1.7403">
        <ele>309</ele>
        <time>2023-03-05T08:40:08Z</time>
      </trkpt>
      <trkpt lat="44.08629" lon="1.74033">
        <ele>309</ele>
        <time>2023-03-05T08:40:09Z</time>
      </trkpt>
      <trkpt lat="44.0863" lon="1.74036">
        <ele>309</ele>
        <time>2023-03-05T08:40:10Z</time>
      </trkpt>
      <trkpt lat="44.08632" lon="1.7404">
        <ele>308.8</ele>
        <time>2023-03-05T08:40:11Z</time>
      </trkpt>
      <trkpt lat="44.08634" lon="1.74042">
        <ele>308.8</ele>
        <time>2023-03-05T08:40:12Z</time>
      </trkpt>
      <trkpt lat="44.08637" lon="1.74045">
        <ele>308.8</ele>
        <time>2023-03-05T08:40:13Z</time>
      </trkpt>
      <trkpt lat="44.08639" lon="1.74046">
        <ele>308.8</ele>
        <time>2023-03-05T08:40:14Z</time>
      </trkpt>
      <trkpt lat="44.08641" lon="1.74048">
        <ele>308.8</ele>
        <time>2023-03-05T08:40:15Z</time>
      </trkpt>
      <trkpt lat="44.08644" lon="1.7405">
        <ele>308.2</ele>
        <time>2023-03-05T08:40:16Z</time>
      </trkpt>
      <trkpt lat="44.08646" lon="1.74052">
        <ele>308.2</ele>
        <time>2023-03-05T08:40:17Z</time>
      </trkpt>
      <trkpt lat="44.08648" lon="1.74054">
        <ele>307.8</ele>
        <time>2023-03-05T08:40:18Z</time>
      </trkpt>
      <trkpt lat="44.08651" lon="1.74056">
        <ele>307.6</ele>
        <time>2023-03-05T08:40:19Z</time>
      </trkpt>
      <trkpt lat="44.08654" lon="1.74059">
        <ele>307.6</ele>
        <time>2023-03-05T08:40:20Z</time>
      </trkpt>
      <trkpt lat="44.08657" lon="1.7406">
        <ele>307.4</ele>
        <time>2023-03-05T08:40:21Z</time>
      </trkpt>
      <trkpt lat="44.0866" lon="1.74062">
        <ele>307.4</ele>
        <time>2023-03-05T08:40:22Z</time>
      </trkpt>
      <trkpt lat="44.08664" lon="1.74063">
        <ele>307.2</ele>
        <time>2023-03-05T08:40:23Z</time>
      </trkpt>
      <trkpt lat="44.08667" lon="1.74067">
        <ele>307.2</ele>
        <time>2023-03-05T08:40:24Z</time>
      </trkpt>
      <trkpt lat="44.0867" lon="1.74071">
        <ele>307</ele>
        <time>2023-03-05T08:40:25Z</time>
      </trkpt>
      <trkpt lat="44.08673" lon="1.74074">
        <ele>306.8</ele>
        <time>2023-03-05T08:40:26Z</time>
      </trkpt>
      <trkpt lat="44.08676" lon="1.74077">
        <ele>306.8</ele>
        <time>2023-03-05T08:40:27Z</time>
      </trkpt>
      <trkpt lat="44.08681" lon="1.74079">
        <ele>306.6</ele>
        <time>2023-03-05T08:40:28Z</time>
      </trkpt>
      <trkpt lat="44.08685" lon="1.74081">
        <ele>306.6</ele>
        <time>2023-03-05T08:40:29Z</time>
      </trkpt>
      <trkpt lat="44.08689" lon="1.74084">
        <ele>306.6</ele>
        <time>2023-03-05T08:40:30Z</time>
      </trkpt>
      <trkpt lat="44.08693" lon="1.74087">
        <ele>306.6</ele>
        <time>2023-03-05T08:40:31Z</time>
      </trkpt>
      <trkpt lat="44.08696" lon="1.74092">
        <ele>306.4</ele>
        <time>2023-03-05T08:40:32Z</time>
      </trkpt>
      <trkpt lat="44.08699" lon="1.74097">
        <ele>306.2</ele>
        <time>2023-03-05T08:40:33Z</time>
      </trkpt>
      <trkpt lat="44.08703" lon="1.741">
        <ele>306.2</ele>
        <time>2023-03-05T08:40:34Z</time>
      </trkpt>
      <trkpt lat="44.08706" lon="1.74103">
        <ele>306.2</ele>
        <time>2023-03-05T08:40:35Z</time>
      </trkpt>
      <trkpt lat="44.08709" lon="1.74107">
        <ele>306.2</ele>
        <time>2023-03-05T08:40:36Z</time>
      </trkpt>
      <trkpt lat="44.08711" lon="1.74109">
        <ele>306.2</ele>
        <time>2023-03-05T08:40:37Z</time>
      </trkpt>
      <trkpt lat="44.08714" lon="1.74113">
        <ele>306.2</ele>
        <time>2023-03-05T08:40:38Z</time>
      </trkpt>
      <trkpt lat="44.08717" lon="1.74116">
        <ele>306.2</ele>
        <time>2023-03-05T08:40:39Z</time>
      </trkpt>
      <trkpt lat="44.08721" lon="1.74116">
        <ele>306.2</ele>
        <time>2023-03-05T08:40:40Z</time>
      </trkpt>
      <trkpt lat="44.08724" lon="1.74114">
        <ele>306.2</ele>
        <time>2023-03-05T08:40:41Z</time>
      </trkpt>
      <trkpt lat="44.08726" lon="1.74113">
        <ele>306</ele>
        <time>2023-03-05T08:40:42Z</time>
      </trkpt>
      <trkpt lat="44.08729" lon="1.74113">
        <ele>306</ele>
        <time>2023-03-05T08:40:43Z</time>
      </trkpt>
      <trkpt lat="44.08732" lon="1.74114">
        <ele>306</ele>
        <time>2023-03-05T08:40:44Z</time>
      </trkpt>
      <trkpt lat="44.08735" lon="1.74117">
        <ele>306</ele>
        <time>2023-03-05T08:40:45Z</time>
      </trkpt>
      <trkpt lat="44.08738" lon="1.74121">
        <ele>306</ele>
        <time>2023-03-05T08:40:46Z</time>
      </trkpt>
      <trkpt lat="44.08741" lon="1.74125">
        <ele>306.4</ele>
        <time>2023-03-05T08:40:47Z</time>
      </trkpt>
      <trkpt lat="44.08744" lon="1.7413">
        <ele>306.6</ele>
        <time>2023-03-05T08:40:48Z</time>
      </trkpt>
      <trkpt lat="44.08747" lon="1.74133">
        <ele>306.6</ele>
        <time>2023-03-05T08:40:49Z</time>
      </trkpt>
      <trkpt lat="44.0875" lon="1.74136">
        <ele>306.6</ele>
        <time>2023-03-05T08:40:50Z</time>
      </trkpt>
      <trkpt lat="44.08753" lon="1.74137">
        <ele>306.8</ele>
        <time>2023-03-05T08:40:51Z</time>
      </trkpt>
      <trkpt lat="44.08756" lon="1.74138">
        <ele>306.8</ele>
        <time>2023-03-05T08:40:52Z</time>
      </trkpt>
      <trkpt lat="44.08759" lon="1.7414">
        <ele>306.8</ele>
        <time>2023-03-05T08:40:53Z</time>
      </trkpt>
      <trkpt lat="44.08762" lon="1.74142">
        <ele>306.8</ele>
        <time>2023-03-05T08:40:54Z</time>
      </trkpt>
      <trkpt lat="44.08764" lon="1.74146">
        <ele>306.8</ele>
        <time>2023-03-05T08:40:55Z</time>
      </trkpt>
      <trkpt lat="44.08767" lon="1.7415">
        <ele>307</ele>
        <time>2023-03-05T08:40:56Z</time>
      </trkpt>
      <trkpt lat="44.08769" lon="1.74154">
        <ele>307</ele>
        <time>2023-03-05T08:40:57Z</time>
      </trkpt>
      <trkpt lat="44.08772" lon="1.7416">
        <ele>307.2</ele>
        <time>2023-03-05T08:40:58Z</time>
      </trkpt>
      <trkpt lat="44.08775" lon="1.74164">
        <ele>307.4</ele>
        <time>2023-03-05T08:40:59Z</time>
      </trkpt>
      <trkpt lat="44.08778" lon="1.74167">
        <ele>307.4</ele>
        <time>2023-03-05T08:41:00Z</time>
      </trkpt>
      <trkpt lat="44.0878" lon="1.7417">
        <ele>307.8</ele>
        <time>2023-03-05T08:41:01Z</time>
      </trkpt>
      <trkpt lat="44.08783" lon="1.74173">
        <ele>307.8</ele>
        <time>2023-03-05T08:41:02Z</time>
      </trkpt>
      <trkpt lat="44.08786" lon="1.74178">
        <ele>308</ele>
        <time>2023-03-05T08:41:03Z</time>
      </trkpt>
      <trkpt lat="44.08788" lon="1.74183">
        <ele>308</ele>
        <time>2023-03-05T08:41:04Z</time>
      </trkpt>
      <trkpt lat="44.08789" lon="1.74188">
        <ele>308.4</ele>
        <time>2023-03-05T08:41:05Z</time>
      </trkpt>
      <trkpt lat="44.0879" lon="1.74192">
        <ele>308.4</ele>
        <time>2023-03-05T08:41:06Z</time>
      </trkpt>
      <trkpt lat="44.08791" lon="1.74197">
        <ele>308.6</ele>
        <time>2023-03-05T08:41:07Z</time>
      </trkpt>
      <trkpt lat="44.08792" lon="1.74201">
        <ele>308.6</ele>
        <time>2023-03-05T08:41:08Z</time>
      </trkpt>
      <trkpt lat="44.08793" lon="1.74207">
        <ele>308.6</ele>
        <time>2023-03-05T08:41:09Z</time>
      </trkpt>
      <trkpt lat="44.08796" lon="1.74212">
        <ele>308.6</ele>
        <time>2023-03-05T08:41:10Z</time>
      </trkpt>
      <trkpt lat="44.08799" lon="1.74215">
        <ele>308.6</ele>
        <time>2023-03-05T08:41:11Z</time>
      </trkpt>
      <trkpt lat="44.08802" lon="1.74219">
        <ele>308.4</ele>
        <time>2023-03-05T08:41:12Z</time>
      </trkpt>
      <trkpt lat="44.08804" lon="1.74222">
        <ele>308.2</ele>
        <time>2023-03-05T08:41:13Z</time>
      </trkpt>
      <trkpt lat="44.08806" lon="1.74226">
        <ele>308</ele>
        <time>2023-03-05T08:41:14Z</time>
      </trkpt>
      <trkpt lat="44.08809" lon="1.74231">
        <ele>308</ele>
        <time>2023-03-05T08:41:15Z</time>
      </trkpt>
      <trkpt lat="44.08811" lon="1.74236">
        <ele>308.2</ele>
        <time>2023-03-05T08:41:16Z</time>
      </trkpt>
      <trkpt lat="44.08813" lon="1.7424">
        <ele>308</ele>
        <time>2023-03-05T08:41:17Z</time>
      </trkpt>
      <trkpt lat="44.08816" lon="1.74243">
        <ele>308</ele>
        <time>2023-03-05T08:41:18Z</time>
      </trkpt>
      <trkpt lat="44.08819" lon="1.74245">
        <ele>308.2</ele>
        <time>2023-03-05T08:41:19Z</time>
      </trkpt>
      <trkpt lat="44.08821" lon="1.74246">
        <ele>308.2</ele>
        <time>2023-03-05T08:41:20Z</time>
      </trkpt>
      <trkpt lat="44.08823" lon="1.74248">
        <ele>308.2</ele>
        <time>2023-03-05T08:41:21Z</time>
      </trkpt>
      <trkpt lat="44.08826" lon="1.74251">
        <ele>308.2</ele>
        <time>2023-03-05T08:41:22Z</time>
      </trkpt>
      <trkpt lat="44.08828" lon="1.74255">
        <ele>308.2</ele>
        <time>2023-03-05T08:41:23Z</time>
      </trkpt>
      <trkpt lat="44.08831" lon="1.74259">
        <ele>308.4</ele>
        <time>2023-03-05T08:41:24Z</time>
      </trkpt>
      <trkpt lat="44.08833" lon="1.74262">
        <ele>308.6</ele>
        <time>2023-03-05T08:41:25Z</time>
      </trkpt>
      <trkpt lat="44.08836" lon="1.74266">
        <ele>308.6</ele>
        <time>2023-03-05T08:41:26Z</time>
      </trkpt>
      <trkpt lat="44.08839" lon="1.7427">
        <ele>308.8</ele>
        <time>2023-03-05T08:41:27Z</time>
      </trkpt>
      <trkpt lat="44.08842" lon="1.74273">
        <ele>308.8</ele>
        <time>2023-03-05T08:41:28Z</time>
      </trkpt>
      <trkpt lat="44.08845" lon="1.74277">
        <ele>309</ele>
        <time>2023-03-05T08:41:29Z</time>
      </trkpt>
      <trkpt lat="44.08847" lon="1.74279">
        <ele>309</ele>
        <time>2023-03-05T08:41:30Z</time>
      </trkpt>
      <trkpt lat="44.0885" lon="1.74282">
        <ele>309</ele>
        <time>2023-03-05T08:41:31Z</time>
      </trkpt>
      <trkpt lat="44.08854" lon="1.74285">
        <ele>309</ele>
        <time>2023-03-05T08:41:32Z</time>
      </trkpt>
      <trkpt lat="44.08857" lon="1.74288">
        <ele>309</ele>
        <time>2023-03-05T08:41:33Z</time>
      </trkpt>
      <trkpt lat="44.0886" lon="1.74292">
        <ele>309</ele>
        <time>2023-03-05T08:41:34Z</time>
      </trkpt>
      <trkpt lat="44.08863" lon="1.74295">
        <ele>309</ele>
        <time>2023-03-05T08:41:35Z</time>
      </trkpt>
      <trkpt lat="44.08865" lon="1.74298">
        <ele>309</ele>
        <time>2023-03-05T08:41:36Z</time>
      </trkpt>
      <trkpt lat="44.08868" lon="1.74301">
        <ele>309</ele>
        <time>2023-03-05T08:41:37Z</time>
      </trkpt>
      <trkpt lat="44.08871" lon="1.74305">
        <ele>309.4</ele>
        <time>2023-03-05T08:41:38Z</time>
      </trkpt>
      <trkpt lat="44.08874" lon="1.74308">
        <ele>309.8</ele>
        <time>2023-03-05T08:41:39Z</time>
      </trkpt>
      <trkpt lat="44.08876" lon="1.74312">
        <ele>310</ele>
        <time>2023-03-05T08:41:40Z</time>
      </trkpt>
      <trkpt lat="44.08879" lon="1.74315">
        <ele>310.2</ele>
        <time>2023-03-05T08:41:41Z</time>
      </trkpt>
      <trkpt lat="44.08882" lon="1.74319">
        <ele>310.4</ele>
        <time>2023-03-05T08:41:42Z</time>
      </trkpt>
      <trkpt lat="44.08886" lon="1.74322">
        <ele>310.6</ele>
        <time>2023-03-05T08:41:43Z</time>
      </trkpt>
      <trkpt lat="44.08889" lon="1.74325">
        <ele>310.6</ele>
        <time>2023-03-05T08:41:44Z</time>
      </trkpt>
      <trkpt lat="44.08892" lon="1.74329">
        <ele>310.6</ele>
        <time>2023-03-05T08:41:45Z</time>
      </trkpt>
      <trkpt lat="44.08895" lon="1.74331">
        <ele>310.6</ele>
        <time>2023-03-05T08:41:46Z</time>
      </trkpt>
      <trkpt lat="44.08898" lon="1.74332">
        <ele>310.6</ele>
        <time>2023-03-05T08:41:47Z</time>
      </trkpt>
      <trkpt lat="44.089" lon="1.74333">
        <ele>310.6</ele>
        <time>2023-03-05T08:41:48Z</time>
      </trkpt>
      <trkpt lat="44.08901" lon="1.74335">
        <ele>310.6</ele>
        <time>2023-03-05T08:41:49Z</time>
      </trkpt>
      <trkpt lat="44.08902" lon="1.74337">
        <ele>310.8</ele>
        <time>2023-03-05T08:41:50Z</time>
      </trkpt>
      <trkpt lat="44.08902" lon="1.74341">
        <ele>310.8</ele>
        <time>2023-03-05T08:41:51Z</time>
      </trkpt>
      <trkpt lat="44.08902" lon="1.74344">
        <ele>310.8</ele>
        <time>2023-03-05T08:41:52Z</time>
      </trkpt>
      <trkpt lat="44.08902" lon="1.74348">
        <ele>311.2</ele>
        <time>2023-03-05T08:41:53Z</time>
      </trkpt>
      <trkpt lat="44.08901" lon="1.74351">
        <ele>311.2</ele>
        <time>2023-03-05T08:41:54Z</time>
      </trkpt>
      <trkpt lat="44.08901" lon="1.74354">
        <ele>312</ele>
        <time>2023-03-05T08:41:55Z</time>
      </trkpt>
      <trkpt lat="44.08901" lon="1.74358">
        <ele>312.2</ele>
        <time>2023-03-05T08:41:56Z</time>
      </trkpt>
      <trkpt lat="44.089" lon="1.74361">
        <ele>312.8</ele>
        <time>2023-03-05T08:41:57Z</time>
      </trkpt>
      <trkpt lat="44.08898" lon="1.74365">
        <ele>313</ele>
        <time>2023-03-05T08:41:58Z</time>
      </trkpt>
      <trkpt lat="44.08896" lon="1.74368">
        <ele>313.2</ele>
        <time>2023-03-05T08:41:59Z</time>
      </trkpt>
      <trkpt lat="44.08895" lon="1.74372">
        <ele>313.2</ele>
        <time>2023-03-05T08:42:00Z</time>
      </trkpt>
      <trkpt lat="44.08894" lon="1.74376">
        <ele>313.4</ele>
        <time>2023-03-05T08:42:01Z</time>
      </trkpt>
      <trkpt lat="44.08893" lon="1.7438">
        <ele>313.4</ele>
        <time>2023-03-05T08:42:02Z</time>
      </trkpt>
      <trkpt lat="44.08891" lon="1.74385">
        <ele>313.6</ele>
        <time>2023-03-05T08:42:03Z</time>
      </trkpt>
      <trkpt lat="44.0889" lon="1.7439">
        <ele>313.6</ele>
        <time>2023-03-05T08:42:04Z</time>
      </trkpt>
      <trkpt lat="44.08889" lon="1.74396">
        <ele>313.6</ele>
        <time>2023-03-05T08:42:05Z</time>
      </trkpt>
      <trkpt lat="44.08888" lon="1.74401">
        <ele>313.6</ele>
        <time>2023-03-05T08:42:06Z</time>
      </trkpt>
      <trkpt lat="44.08887" lon="1.74406">
        <ele>313.6</ele>
        <time>2023-03-05T08:42:07Z</time>
      </trkpt>
      <trkpt lat="44.08886" lon="1.74412">
        <ele>313.6</ele>
        <time>2023-03-05T08:42:08Z</time>
      </trkpt>
      <trkpt lat="44.08886" lon="1.74417">
        <ele>313.6</ele>
        <time>2023-03-05T08:42:09Z</time>
      </trkpt>
      <trkpt lat="44.08886" lon="1.74421">
        <ele>313.6</ele>
        <time>2023-03-05T08:42:10Z</time>
      </trkpt>
      <trkpt lat="44.08885" lon="1.74425">
        <ele>313.6</ele>
        <time>2023-03-05T08:42:11Z</time>
      </trkpt>
      <trkpt lat="44.08884" lon="1.74428">
        <ele>313.6</ele>
        <time>2023-03-05T08:42:12Z</time>
      </trkpt>
      <trkpt lat="44.08882" lon="1.74432">
        <ele>313.6</ele>
        <time>2023-03-05T08:42:13Z</time>
      </trkpt>
      <trkpt lat="44.08881" lon="1.74435">
        <ele>313.8</ele>
        <time>2023-03-05T08:42:14Z</time>
      </trkpt>
      <trkpt lat="44.08882" lon="1.7444">
        <ele>313.8</ele>
        <time>2023-03-05T08:42:15Z</time>
      </trkpt>
      <trkpt lat="44.08883" lon="1.74445">
        <ele>313.6</ele>
        <time>2023-03-05T08:42:16Z</time>
      </trkpt>
      <trkpt lat="44.08884" lon="1.7445">
        <ele>313.6</ele>
        <time>2023-03-05T08:42:17Z</time>
      </trkpt>
      <trkpt lat="44.08886" lon="1.74453">
        <ele>313.6</ele>
        <time>2023-03-05T08:42:18Z</time>
      </trkpt>
      <trkpt lat="44.08888" lon="1.74457">
        <ele>313.6</ele>
        <time>2023-03-05T08:42:19Z</time>
      </trkpt>
      <trkpt lat="44.08889" lon="1.7446">
        <ele>313.6</ele>
        <time>2023-03-05T08:42:20Z</time>
      </trkpt>
      <trkpt lat="44.0889" lon="1.74464">
        <ele>313.6</ele>
        <time>2023-03-05T08:42:21Z</time>
      </trkpt>
      <trkpt lat="44.08891" lon="1.74468">
        <ele>313.6</ele>
        <time>2023-03-05T08:42:22Z</time>
      </trkpt>
      <trkpt lat="44.08891" lon="1.74472">
        <ele>313.8</ele>
        <time>2023-03-05T08:42:23Z</time>
      </trkpt>
      <trkpt lat="44.08892" lon="1.74476">
        <ele>313.8</ele>
        <time>2023-03-05T08:42:24Z</time>
      </trkpt>
      <trkpt lat="44.08894" lon="1.74479">
        <ele>314</ele>
        <time>2023-03-05T08:42:25Z</time>
      </trkpt>
      <trkpt lat="44.08895" lon="1.74482">
        <ele>314</ele>
        <time>2023-03-05T08:42:26Z</time>
      </trkpt>
      <trkpt lat="44.08896" lon="1.74485">
        <ele>314</ele>
        <time>2023-03-05T08:42:27Z</time>
      </trkpt>
      <trkpt lat="44.08898" lon="1.74489">
        <ele>314</ele>
        <time>2023-03-05T08:42:28Z</time>
      </trkpt>
      <trkpt lat="44.08899" lon="1.74493">
        <ele>314.2</ele>
        <time>2023-03-05T08:42:29Z</time>
      </trkpt>
      <trkpt lat="44.08899" lon="1.74498">
        <ele>314.2</ele>
        <time>2023-03-05T08:42:30Z</time>
      </trkpt>
      <trkpt lat="44.08899" lon="1.74504">
        <ele>314.4</ele>
        <time>2023-03-05T08:42:31Z</time>
      </trkpt>
      <trkpt lat="44.089" lon="1.74511">
        <ele>314.6</ele>
        <time>2023-03-05T08:42:32Z</time>
      </trkpt>
      <trkpt lat="44.089" lon="1.74517">
        <ele>314.8</ele>
        <time>2023-03-05T08:42:33Z</time>
      </trkpt>
      <trkpt lat="44.089" lon="1.74523">
        <ele>315</ele>
        <time>2023-03-05T08:42:34Z</time>
      </trkpt>
      <trkpt lat="44.08901" lon="1.74529">
        <ele>315</ele>
        <time>2023-03-05T08:42:35Z</time>
      </trkpt>
      <trkpt lat="44.08903" lon="1.74536">
        <ele>315.2</ele>
        <time>2023-03-05T08:42:36Z</time>
      </trkpt>
      <trkpt lat="44.08904" lon="1.74542">
        <ele>315.2</ele>
        <time>2023-03-05T08:42:37Z</time>
      </trkpt>
      <trkpt lat="44.08904" lon="1.74547">
        <ele>315.4</ele>
        <time>2023-03-05T08:42:38Z</time>
      </trkpt>
      <trkpt lat="44.08905" lon="1.74554">
        <ele>315.4</ele>
        <time>2023-03-05T08:42:39Z</time>
      </trkpt>
      <trkpt lat="44.08906" lon="1.7456">
        <ele>315.6</ele>
        <time>2023-03-05T08:42:40Z</time>
      </trkpt>
      <trkpt lat="44.08906" lon="1.74566">
        <ele>315.6</ele>
        <time>2023-03-05T08:42:41Z</time>
      </trkpt>
      <trkpt lat="44.08907" lon="1.74571">
        <ele>315.8</ele>
        <time>2023-03-05T08:42:42Z</time>
      </trkpt>
      <trkpt lat="44.08907" lon="1.74573">
        <ele>315.8</ele>
        <time>2023-03-05T08:42:43Z</time>
      </trkpt>
      <trkpt lat="44.08907" lon="1.74574">
        <ele>316</ele>
        <time>2023-03-05T08:42:44Z</time>
      </trkpt>
      <trkpt lat="44.08907" lon="1.74574">
        <ele>316</ele>
        <time>2023-03-05T08:42:45Z</time>
      </trkpt>
      <trkpt lat="44.08907" lon="1.74574">
        <ele>316</ele>
        <time>2023-03-05T08:42:46Z</time>
      </trkpt>
      <trkpt lat="44.08907" lon="1.7458">
        <ele>315.8</ele>
        <time>2023-03-05T08:43:01Z</time>
      </trkpt>
      <trkpt lat="44.08907" lon="1.74582">
        <ele>315.8</ele>
        <time>2023-03-05T08:43:02Z</time>
      </trkpt>
      <trkpt lat="44.08906" lon="1.74586">
        <ele>315.8</ele>
        <time>2023-03-05T08:43:03Z</time>
      </trkpt>
      <trkpt lat="44.08906" lon="1.7459">
        <ele>315.8</ele>
        <time>2023-03-05T08:43:04Z</time>
      </trkpt>
      <trkpt lat="44.08906" lon="1.74595">
        <ele>315.8</ele>
        <time>2023-03-05T08:43:05Z</time>
      </trkpt>
      <trkpt lat="44.08906" lon="1.74601">
        <ele>316</ele>
        <time>2023-03-05T08:43:06Z</time>
      </trkpt>
      <trkpt lat="44.08907" lon="1.74606">
        <ele>316</ele>
        <time>2023-03-05T08:43:07Z</time>
      </trkpt>
      <trkpt lat="44.08907" lon="1.74612">
        <ele>316</ele>
        <time>2023-03-05T08:43:08Z</time>
      </trkpt>
      <trkpt lat="44.08907" lon="1.74617">
        <ele>316</ele>
        <time>2023-03-05T08:43:09Z</time>
      </trkpt>
      <trkpt lat="44.08907" lon="1.74623">
        <ele>316.2</ele>
        <time>2023-03-05T08:43:10Z</time>
      </trkpt>
      <trkpt lat="44.08907" lon="1.74628">
        <ele>316.2</ele>
        <time>2023-03-05T08:43:11Z</time>
      </trkpt>
      <trkpt lat="44.08907" lon="1.74636">
        <ele>316.2</ele>
        <time>2023-03-05T08:43:12Z</time>
      </trkpt>
      <trkpt lat="44.08908" lon="1.74642">
        <ele>316.2</ele>
        <time>2023-03-05T08:43:13Z</time>
      </trkpt>
      <trkpt lat="44.08908" lon="1.7465">
        <ele>316.2</ele>
        <time>2023-03-05T08:43:14Z</time>
      </trkpt>
      <trkpt lat="44.08909" lon="1.74657">
        <ele>316.2</ele>
        <time>2023-03-05T08:43:15Z</time>
      </trkpt>
      <trkpt lat="44.0891" lon="1.74663">
        <ele>316.2</ele>
        <time>2023-03-05T08:43:16Z</time>
      </trkpt>
      <trkpt lat="44.0891" lon="1.7467">
        <ele>316.2</ele>
        <time>2023-03-05T08:43:17Z</time>
      </trkpt>
      <trkpt lat="44.0891" lon="1.74677">
        <ele>316.2</ele>
        <time>2023-03-05T08:43:18Z</time>
      </trkpt>
      <trkpt lat="44.08908" lon="1.74683">
        <ele>316.2</ele>
        <time>2023-03-05T08:43:19Z</time>
      </trkpt>
      <trkpt lat="44.08908" lon="1.74688">
        <ele>316.2</ele>
        <time>2023-03-05T08:43:20Z</time>
      </trkpt>
      <trkpt lat="44.08906" lon="1.74694">
        <ele>316.4</ele>
        <time>2023-03-05T08:43:21Z</time>
      </trkpt>
      <trkpt lat="44.08904" lon="1.74699">
        <ele>316.4</ele>
        <time>2023-03-05T08:43:22Z</time>
      </trkpt>
      <trkpt lat="44.08901" lon="1.74705">
        <ele>316.4</ele>
        <time>2023-03-05T08:43:23Z</time>
      </trkpt>
      <trkpt lat="44.08898" lon="1.74709">
        <ele>316.2</ele>
        <time>2023-03-05T08:43:24Z</time>
      </trkpt>
      <trkpt lat="44.08894" lon="1.74715">
        <ele>316.2</ele>
        <time>2023-03-05T08:43:25Z</time>
      </trkpt>
      <trkpt lat="44.0889" lon="1.74721">
        <ele>316.2</ele>
        <time>2023-03-05T08:43:26Z</time>
      </trkpt>
      <trkpt lat="44.0889" lon="1.74726">
        <ele>315.6</ele>
        <time>2023-03-05T08:43:27Z</time>
      </trkpt>
      <trkpt lat="44.08891" lon="1.74731">
        <ele>315.6</ele>
        <time>2023-03-05T08:43:28Z</time>
      </trkpt>
      <trkpt lat="44.08892" lon="1.74737">
        <ele>315</ele>
        <time>2023-03-05T08:43:29Z</time>
      </trkpt>
      <trkpt lat="44.08892" lon="1.74743">
        <ele>314.8</ele>
        <time>2023-03-05T08:43:30Z</time>
      </trkpt>
      <trkpt lat="44.08893" lon="1.7475">
        <ele>314</ele>
        <time>2023-03-05T08:43:31Z</time>
      </trkpt>
      <trkpt lat="44.08893" lon="1.74756">
        <ele>313.2</ele>
        <time>2023-03-05T08:43:32Z</time>
      </trkpt>
      <trkpt lat="44.08892" lon="1.74762">
        <ele>313</ele>
        <time>2023-03-05T08:43:33Z</time>
      </trkpt>
      <trkpt lat="44.08892" lon="1.74769">
        <ele>312.8</ele>
        <time>2023-03-05T08:43:34Z</time>
      </trkpt>
      <trkpt lat="44.08892" lon="1.74776">
        <ele>312.8</ele>
        <time>2023-03-05T08:43:35Z</time>
      </trkpt>
      <trkpt lat="44.08893" lon="1.74782">
        <ele>312.4</ele>
        <time>2023-03-05T08:43:36Z</time>
      </trkpt>
      <trkpt lat="44.08893" lon="1.74788">
        <ele>312.2</ele>
        <time>2023-03-05T08:43:37Z</time>
      </trkpt>
      <trkpt lat="44.08893" lon="1.74794">
        <ele>312.2</ele>
        <time>2023-03-05T08:43:38Z</time>
      </trkpt>
      <trkpt lat="44.08892" lon="1.74802">
        <ele>312.2</ele>
        <time>2023-03-05T08:43:39Z</time>
      </trkpt>
      <trkpt lat="44.0889" lon="1.7481">
        <ele>312.2</ele>
        <time>2023-03-05T08:43:40Z</time>
      </trkpt>
      <trkpt lat="44.08888" lon="1.74818">
        <ele>312.2</ele>
        <time>2023-03-05T08:43:41Z</time>
      </trkpt>
      <trkpt lat="44.08886" lon="1.74824">
        <ele>312.2</ele>
        <time>2023-03-05T08:43:42Z</time>
      </trkpt>
      <trkpt lat="44.08884" lon="1.74832">
        <ele>312.2</ele>
        <time>2023-03-05T08:43:43Z</time>
      </trkpt>
      <trkpt lat="44.08881" lon="1.74842">
        <ele>312.2</ele>
        <time>2023-03-05T08:43:44Z</time>
      </trkpt>
      <trkpt lat="44.08878" lon="1.74851">
        <ele>312.2</ele>
        <time>2023-03-05T08:43:45Z</time>
      </trkpt>
      <trkpt lat="44.08877" lon="1.74859">
        <ele>312</ele>
        <time>2023-03-05T08:43:46Z</time>
      </trkpt>
      <trkpt lat="44.08875" lon="1.74868">
        <ele>311.6</ele>
        <time>2023-03-05T08:43:47Z</time>
      </trkpt>
      <trkpt lat="44.08875" lon="1.74876">
        <ele>311.4</ele>
        <time>2023-03-05T08:43:48Z</time>
      </trkpt>
      <trkpt lat="44.08874" lon="1.74886">
        <ele>310.8</ele>
        <time>2023-03-05T08:43:49Z</time>
      </trkpt>
      <trkpt lat="44.08873" lon="1.74893">
        <ele>310.6</ele>
        <time>2023-03-05T08:43:50Z</time>
      </trkpt>
      <trkpt lat="44.08872" lon="1.74901">
        <ele>310.4</ele>
        <time>2023-03-05T08:43:51Z</time>
      </trkpt>
      <trkpt lat="44.08872" lon="1.74908">
        <ele>310.4</ele>
        <time>2023-03-05T08:43:52Z</time>
      </trkpt>
      <trkpt lat="44.08874" lon="1.74915">
        <ele>310</ele>
        <time>2023-03-05T08:43:53Z</time>
      </trkpt>
      <trkpt lat="44.08875" lon="1.74922">
        <ele>310</ele>
        <time>2023-03-05T08:43:54Z</time>
      </trkpt>
      <trkpt lat="44.08875" lon="1.74929">
        <ele>309.8</ele>
        <time>2023-03-05T08:43:55Z</time>
      </trkpt>
      <trkpt lat="44.08875" lon="1.74936">
        <ele>309.8</ele>
        <time>2023-03-05T08:43:56Z</time>
      </trkpt>
      <trkpt lat="44.08876" lon="1.74941">
        <ele>309.6</ele>
        <time>2023-03-05T08:43:57Z</time>
      </trkpt>
      <trkpt lat="44.08877" lon="1.74949">
        <ele>309.8</ele>
        <time>2023-03-05T08:43:58Z</time>
      </trkpt>
      <trkpt lat="44.08878" lon="1.74956">
        <ele>309.6</ele>
        <time>2023-03-05T08:43:59Z</time>
      </trkpt>
      <trkpt lat="44.08878" lon="1.74962">
        <ele>309.6</ele>
        <time>2023-03-05T08:44:00Z</time>
      </trkpt>
      <trkpt lat="44.08878" lon="1.74966">
        <ele>309.6</ele>
        <time>2023-03-05T08:44:01Z</time>
      </trkpt>
      <trkpt lat="44.08878" lon="1.7497">
        <ele>309.6</ele>
        <time>2023-03-05T08:44:02Z</time>
      </trkpt>
      <trkpt lat="44.08878" lon="1.74975">
        <ele>309.6</ele>
        <time>2023-03-05T08:44:03Z</time>
      </trkpt>
      <trkpt lat="44.08879" lon="1.74978">
        <ele>309.6</ele>
        <time>2023-03-05T08:44:04Z</time>
      </trkpt>
      <trkpt lat="44.0888" lon="1.74982">
        <ele>309.6</ele>
        <time>2023-03-05T08:44:05Z</time>
      </trkpt>
      <trkpt lat="44.08881" lon="1.74986">
        <ele>309.6</ele>
        <time>2023-03-05T08:44:06Z</time>
      </trkpt>
      <trkpt lat="44.0888" lon="1.7499">
        <ele>309.4</ele>
        <time>2023-03-05T08:44:07Z</time>
      </trkpt>
      <trkpt lat="44.08879" lon="1.74995">
        <ele>309.4</ele>
        <time>2023-03-05T08:44:08Z</time>
      </trkpt>
      <trkpt lat="44.08878" lon="1.75002">
        <ele>309.4</ele>
        <time>2023-03-05T08:44:09Z</time>
      </trkpt>
      <trkpt lat="44.08877" lon="1.75009">
        <ele>309.4</ele>
        <time>2023-03-05T08:44:10Z</time>
      </trkpt>
      <trkpt lat="44.08875" lon="1.75015">
        <ele>309.4</ele>
        <time>2023-03-05T08:44:11Z</time>
      </trkpt>
      <trkpt lat="44.08873" lon="1.75023">
        <ele>309.4</ele>
        <time>2023-03-05T08:44:12Z</time>
      </trkpt>
      <trkpt lat="44.0887" lon="1.7503">
        <ele>309.4</ele>
        <time>2023-03-05T08:44:13Z</time>
      </trkpt>
      <trkpt lat="44.08869" lon="1.75037">
        <ele>309.4</ele>
        <time>2023-03-05T08:44:14Z</time>
      </trkpt>
      <trkpt lat="44.08867" lon="1.75044">
        <ele>309.4</ele>
        <time>2023-03-05T08:44:15Z</time>
      </trkpt>
      <trkpt lat="44.08866" lon="1.75052">
        <ele>309.4</ele>
        <time>2023-03-05T08:44:16Z</time>
      </trkpt>
      <trkpt lat="44.08865" lon="1.75059">
        <ele>309.6</ele>
        <time>2023-03-05T08:44:17Z</time>
      </trkpt>
      <trkpt lat="44.08864" lon="1.75066">
        <ele>309.4</ele>
        <time>2023-03-05T08:44:18Z</time>
      </trkpt>
      <trkpt lat="44.08864" lon="1.75073">
        <ele>309.4</ele>
        <time>2023-03-05T08:44:19Z</time>
      </trkpt>
      <trkpt lat="44.08863" lon="1.7508">
        <ele>309.4</ele>
        <time>2023-03-05T08:44:20Z</time>
      </trkpt>
      <trkpt lat="44.08863" lon="1.75088">
        <ele>309.2</ele>
        <time>2023-03-05T08:44:21Z</time>
      </trkpt>
      <trkpt lat="44.08862" lon="1.75095">
        <ele>309</ele>
        <time>2023-03-05T08:44:22Z</time>
      </trkpt>
      <trkpt lat="44.0886" lon="1.75101">
        <ele>308.8</ele>
        <time>2023-03-05T08:44:23Z</time>
      </trkpt>
      <trkpt lat="44.0886" lon="1.75105">
        <ele>308.6</ele>
        <time>2023-03-05T08:44:24Z</time>
      </trkpt>
      <trkpt lat="44.0886" lon="1.7511">
        <ele>308.6</ele>
        <time>2023-03-05T08:44:25Z</time>
      </trkpt>
      <trkpt lat="44.0886" lon="1.75114">
        <ele>308.6</ele>
        <time>2023-03-05T08:44:26Z</time>
      </trkpt>
      <trkpt lat="44.08859" lon="1.75118">
        <ele>308.4</ele>
        <time>2023-03-05T08:44:27Z</time>
      </trkpt>
      <trkpt lat="44.0886" lon="1.75122">
        <ele>308.4</ele>
        <time>2023-03-05T08:44:28Z</time>
      </trkpt>
      <trkpt lat="44.08861" lon="1.75126">
        <ele>308</ele>
        <time>2023-03-05T08:44:29Z</time>
      </trkpt>
      <trkpt lat="44.08862" lon="1.7513">
        <ele>307.8</ele>
        <time>2023-03-05T08:44:30Z</time>
      </trkpt>
      <trkpt lat="44.08861" lon="1.75135">
        <ele>307.4</ele>
        <time>2023-03-05T08:44:31Z</time>
      </trkpt>
      <trkpt lat="44.0886" lon="1.75141">
        <ele>307.2</ele>
        <time>2023-03-05T08:44:32Z</time>
      </trkpt>
      <trkpt lat="44.08859" lon="1.75148">
        <ele>307.4</ele>
        <time>2023-03-05T08:44:33Z</time>
      </trkpt>
      <trkpt lat="44.08859" lon="1.75157">
        <ele>306.8</ele>
        <time>2023-03-05T08:44:34Z</time>
      </trkpt>
      <trkpt lat="44.08858" lon="1.75163">
        <ele>306.8</ele>
        <time>2023-03-05T08:44:35Z</time>
      </trkpt>
      <trkpt lat="44.08858" lon="1.75168">
        <ele>306.4</ele>
        <time>2023-03-05T08:44:36Z</time>
      </trkpt>
      <trkpt lat="44.08857" lon="1.75173">
        <ele>306.4</ele>
        <time>2023-03-05T08:44:37Z</time>
      </trkpt>
      <trkpt lat="44.08855" lon="1.75178">
        <ele>306.2</ele>
        <time>2023-03-05T08:44:38Z</time>
      </trkpt>
      <trkpt lat="44.08853" lon="1.75185">
        <ele>306.2</ele>
        <time>2023-03-05T08:44:39Z</time>
      </trkpt>
      <trkpt lat="44.08851" lon="1.75192">
        <ele>305.8</ele>
        <time>2023-03-05T08:44:40Z</time>
      </trkpt>
      <trkpt lat="44.08849" lon="1.75199">
        <ele>305.6</ele>
        <time>2023-03-05T08:44:41Z</time>
      </trkpt>
      <trkpt lat="44.08847" lon="1.75206">
        <ele>305.4</ele>
        <time>2023-03-05T08:44:42Z</time>
      </trkpt>
      <trkpt lat="44.08846" lon="1.75212">
        <ele>304.6</ele>
        <time>2023-03-05T08:44:43Z</time>
      </trkpt>
      <trkpt lat="44.08844" lon="1.75219">
        <ele>304.4</ele>
        <time>2023-03-05T08:44:44Z</time>
      </trkpt>
      <trkpt lat="44.08843" lon="1.75226">
        <ele>304</ele>
        <time>2023-03-05T08:44:45Z</time>
      </trkpt>
      <trkpt lat="44.08842" lon="1.75233">
        <ele>304</ele>
        <time>2023-03-05T08:44:46Z</time>
      </trkpt>
      <trkpt lat="44.08841" lon="1.75239">
        <ele>303.8</ele>
        <time>2023-03-05T08:44:47Z</time>
      </trkpt>
      <trkpt lat="44.0884" lon="1.75246">
        <ele>303.8</ele>
        <time>2023-03-05T08:44:48Z</time>
      </trkpt>
      <trkpt lat="44.08841" lon="1.75251">
        <ele>304</ele>
        <time>2023-03-05T08:44:49Z</time>
      </trkpt>
      <trkpt lat="44.08841" lon="1.75256">
        <ele>304.2</ele>
        <time>2023-03-05T08:44:50Z</time>
      </trkpt>
      <trkpt lat="44.0884" lon="1.75261">
        <ele>304.2</ele>
        <time>2023-03-05T08:44:51Z</time>
      </trkpt>
      <trkpt lat="44.0884" lon="1.75266">
        <ele>304.4</ele>
        <time>2023-03-05T08:44:52Z</time>
      </trkpt>
      <trkpt lat="44.08839" lon="1.75269">
        <ele>304.6</ele>
        <time>2023-03-05T08:44:53Z</time>
      </trkpt>
      <trkpt lat="44.08838" lon="1.75274">
        <ele>304.8</ele>
        <time>2023-03-05T08:44:54Z</time>
      </trkpt>
      <trkpt lat="44.08837" lon="1.75279">
        <ele>305.2</ele>
        <time>2023-03-05T08:44:55Z</time>
      </trkpt>
      <trkpt lat="44.08836" lon="1.75283">
        <ele>305.8</ele>
        <time>2023-03-05T08:44:56Z</time>
      </trkpt>
      <trkpt lat="44.08835" lon="1.75288">
        <ele>306</ele>
        <time>2023-03-05T08:44:57Z</time>
      </trkpt>
      <trkpt lat="44.08834" lon="1.75293">
        <ele>307</ele>
        <time>2023-03-05T08:44:58Z</time>
      </trkpt>
      <trkpt lat="44.08832" lon="1.75299">
        <ele>307.4</ele>
        <time>2023-03-05T08:44:59Z</time>
      </trkpt>
      <trkpt lat="44.08831" lon="1.75304">
        <ele>307.8</ele>
        <time>2023-03-05T08:45:00Z</time>
      </trkpt>
      <trkpt lat="44.08831" lon="1.75309">
        <ele>308</ele>
        <time>2023-03-05T08:45:01Z</time>
      </trkpt>
      <trkpt lat="44.0883" lon="1.75313">
        <ele>308.6</ele>
        <time>2023-03-05T08:45:02Z</time>
      </trkpt>
      <trkpt lat="44.08829" lon="1.75319">
        <ele>308.8</ele>
        <time>2023-03-05T08:45:03Z</time>
      </trkpt>
      <trkpt lat="44.08829" lon="1.75325">
        <ele>309.2</ele>
        <time>2023-03-05T08:45:04Z</time>
      </trkpt>
      <trkpt lat="44.08828" lon="1.7533">
        <ele>309.6</ele>
        <time>2023-03-05T08:45:05Z</time>
      </trkpt>
      <trkpt lat="44.08827" lon="1.75334">
        <ele>309.8</ele>
        <time>2023-03-05T08:45:06Z</time>
      </trkpt>
      <trkpt lat="44.08826" lon="1.75339">
        <ele>310</ele>
        <time>2023-03-05T08:45:07Z</time>
      </trkpt>
      <trkpt lat="44.08824" lon="1.75346">
        <ele>310</ele>
        <time>2023-03-05T08:45:08Z</time>
      </trkpt>
      <trkpt lat="44.08822" lon="1.75352">
        <ele>310.4</ele>
        <time>2023-03-05T08:45:09Z</time>
      </trkpt>
      <trkpt lat="44.0882" lon="1.75357">
        <ele>310.4</ele>
        <time>2023-03-05T08:45:10Z</time>
      </trkpt>
      <trkpt lat="44.08818" lon="1.75362">
        <ele>311.2</ele>
        <time>2023-03-05T08:45:11Z</time>
      </trkpt>
      <trkpt lat="44.08815" lon="1.75369">
        <ele>311.4</ele>
        <time>2023-03-05T08:45:12Z</time>
      </trkpt>
      <trkpt lat="44.08813" lon="1.75375">
        <ele>311.8</ele>
        <time>2023-03-05T08:45:13Z</time>
      </trkpt>
      <trkpt lat="44.08812" lon="1.75381">
        <ele>311.8</ele>
        <time>2023-03-05T08:45:14Z</time>
      </trkpt>
      <trkpt lat="44.08811" lon="1.75387">
        <ele>312</ele>
        <time>2023-03-05T08:45:15Z</time>
      </trkpt>
      <trkpt lat="44.0881" lon="1.75392">
        <ele>312</ele>
        <time>2023-03-05T08:45:16Z</time>
      </trkpt>
      <trkpt lat="44.08809" lon="1.75398">
        <ele>312</ele>
        <time>2023-03-05T08:45:17Z</time>
      </trkpt>
      <trkpt lat="44.08807" lon="1.75404">
        <ele>312</ele>
        <time>2023-03-05T08:45:18Z</time>
      </trkpt>
      <trkpt lat="44.08807" lon="1.75411">
        <ele>312</ele>
        <time>2023-03-05T08:45:19Z</time>
      </trkpt>
      <trkpt lat="44.08806" lon="1.75416">
        <ele>311.8</ele>
        <time>2023-03-05T08:45:20Z</time>
      </trkpt>
      <trkpt lat="44.08804" lon="1.75424">
        <ele>311.8</ele>
        <time>2023-03-05T08:45:21Z</time>
      </trkpt>
      <trkpt lat="44.08803" lon="1.75431">
        <ele>311.8</ele>
        <time>2023-03-05T08:45:22Z</time>
      </trkpt>
      <trkpt lat="44.08802" lon="1.75438">
        <ele>311.8</ele>
        <time>2023-03-05T08:45:23Z</time>
      </trkpt>
      <trkpt lat="44.08801" lon="1.75444">
        <ele>311.8</ele>
        <time>2023-03-05T08:45:24Z</time>
      </trkpt>
      <trkpt lat="44.088" lon="1.75451">
        <ele>311.8</ele>
        <time>2023-03-05T08:45:25Z</time>
      </trkpt>
      <trkpt lat="44.08798" lon="1.75459">
        <ele>311.8</ele>
        <time>2023-03-05T08:45:26Z</time>
      </trkpt>
      <trkpt lat="44.08798" lon="1.75466">
        <ele>311.8</ele>
        <time>2023-03-05T08:45:27Z</time>
      </trkpt>
      <trkpt lat="44.08797" lon="1.75472">
        <ele>312</ele>
        <time>2023-03-05T08:45:28Z</time>
      </trkpt>
      <trkpt lat="44.08795" lon="1.7548">
        <ele>312</ele>
        <time>2023-03-05T08:45:29Z</time>
      </trkpt>
      <trkpt lat="44.08794" lon="1.75488">
        <ele>312</ele>
        <time>2023-03-05T08:45:30Z</time>
      </trkpt>
      <trkpt lat="44.08793" lon="1.75494">
        <ele>312</ele>
        <time>2023-03-05T08:45:31Z</time>
      </trkpt>
      <trkpt lat="44.08791" lon="1.755">
        <ele>312</ele>
        <time>2023-03-05T08:45:32Z</time>
      </trkpt>
      <trkpt lat="44.08789" lon="1.75507">
        <ele>311.8</ele>
        <time>2023-03-05T08:45:33Z</time>
      </trkpt>
      <trkpt lat="44.08787" lon="1.75515">
        <ele>311.8</ele>
        <time>2023-03-05T08:45:34Z</time>
      </trkpt>
      <trkpt lat="44.08784" lon="1.75522">
        <ele>311.8</ele>
        <time>2023-03-05T08:45:35Z</time>
      </trkpt>
      <trkpt lat="44.08783" lon="1.75527">
        <ele>311.8</ele>
        <time>2023-03-05T08:45:36Z</time>
      </trkpt>
      <trkpt lat="44.08782" lon="1.75534">
        <ele>312</ele>
        <time>2023-03-05T08:45:37Z</time>
      </trkpt>
      <trkpt lat="44.0878" lon="1.75539">
        <ele>312</ele>
        <time>2023-03-05T08:45:38Z</time>
      </trkpt>
      <trkpt lat="44.08778" lon="1.75545">
        <ele>311.8</ele>
        <time>2023-03-05T08:45:39Z</time>
      </trkpt>
      <trkpt lat="44.08777" lon="1.75551">
        <ele>311.8</ele>
        <time>2023-03-05T08:45:40Z</time>
      </trkpt>
      <trkpt lat="44.08776" lon="1.75556">
        <ele>311.8</ele>
        <time>2023-03-05T08:45:41Z</time>
      </trkpt>
      <trkpt lat="44.08775" lon="1.7556">
        <ele>311.8</ele>
        <time>2023-03-05T08:45:42Z</time>
      </trkpt>
      <trkpt lat="44.08774" lon="1.75564">
        <ele>311.6</ele>
        <time>2023-03-05T08:45:43Z</time>
      </trkpt>
      <trkpt lat="44.08773" lon="1.75568">
        <ele>311.6</ele>
        <time>2023-03-05T08:45:44Z</time>
      </trkpt>
      <trkpt lat="44.08772" lon="1.75571">
        <ele>311.6</ele>
        <time>2023-03-05T08:45:45Z</time>
      </trkpt>
      <trkpt lat="44.08771" lon="1.75575">
        <ele>311.6</ele>
        <time>2023-03-05T08:45:46Z</time>
      </trkpt>
      <trkpt lat="44.08771" lon="1.75579">
        <ele>311.6</ele>
        <time>2023-03-05T08:45:47Z</time>
      </trkpt>
      <trkpt lat="44.0877" lon="1.75583">
        <ele>311.8</ele>
        <time>2023-03-05T08:45:48Z</time>
      </trkpt>
      <trkpt lat="44.08769" lon="1.75588">
        <ele>312.2</ele>
        <time>2023-03-05T08:45:49Z</time>
      </trkpt>
      <trkpt lat="44.08769" lon="1.7559">
        <ele>312.4</ele>
        <time>2023-03-05T08:45:50Z</time>
      </trkpt>
      <trkpt lat="44.08768" lon="1.75593">
        <ele>312.4</ele>
        <time>2023-03-05T08:45:51Z</time>
      </trkpt>
      <trkpt lat="44.08768" lon="1.75596">
        <ele>312.8</ele>
        <time>2023-03-05T08:45:52Z</time>
      </trkpt>
      <trkpt lat="44.08768" lon="1.756">
        <ele>312.8</ele>
        <time>2023-03-05T08:45:53Z</time>
      </trkpt>
      <trkpt lat="44.08768" lon="1.75604">
        <ele>313</ele>
        <time>2023-03-05T08:45:54Z</time>
      </trkpt>
      <trkpt lat="44.08768" lon="1.75608">
        <ele>313.2</ele>
        <time>2023-03-05T08:45:55Z</time>
      </trkpt>
      <trkpt lat="44.08767" lon="1.75611">
        <ele>313.6</ele>
        <time>2023-03-05T08:45:56Z</time>
      </trkpt>
      <trkpt lat="44.08766" lon="1.75615">
        <ele>313.8</ele>
        <time>2023-03-05T08:45:57Z</time>
      </trkpt>
      <trkpt lat="44.08765" lon="1.75619">
        <ele>314.2</ele>
        <time>2023-03-05T08:45:58Z</time>
      </trkpt>
      <trkpt lat="44.08764" lon="1.75623">
        <ele>314.4</ele>
        <time>2023-03-05T08:45:59Z</time>
      </trkpt>
      <trkpt lat="44.08763" lon="1.75627">
        <ele>315</ele>
        <time>2023-03-05T08:46:00Z</time>
      </trkpt>
      <trkpt lat="44.08762" lon="1.7563">
        <ele>315</ele>
        <time>2023-03-05T08:46:01Z</time>
      </trkpt>
      <trkpt lat="44.0876" lon="1.75634">
        <ele>315.4</ele>
        <time>2023-03-05T08:46:02Z</time>
      </trkpt>
      <trkpt lat="44.08759" lon="1.75637">
        <ele>315.6</ele>
        <time>2023-03-05T08:46:03Z</time>
      </trkpt>
      <trkpt lat="44.08758" lon="1.7564">
        <ele>316</ele>
        <time>2023-03-05T08:46:04Z</time>
      </trkpt>
      <trkpt lat="44.08756" lon="1.75643">
        <ele>316.2</ele>
        <time>2023-03-05T08:46:05Z</time>
      </trkpt>
      <trkpt lat="44.08754" lon="1.75647">
        <ele>316.4</ele>
        <time>2023-03-05T08:46:06Z</time>
      </trkpt>
      <trkpt lat="44.08751" lon="1.75651">
        <ele>316.4</ele>
        <time>2023-03-05T08:46:07Z</time>
      </trkpt>
      <trkpt lat="44.08749" lon="1.75655">
        <ele>316.4</ele>
        <time>2023-03-05T08:46:08Z</time>
      </trkpt>
      <trkpt lat="44.08747" lon="1.75659">
        <ele>316.4</ele>
        <time>2023-03-05T08:46:09Z</time>
      </trkpt>
      <trkpt lat="44.08745" lon="1.75662">
        <ele>316.4</ele>
        <time>2023-03-05T08:46:10Z</time>
      </trkpt>
      <trkpt lat="44.08742" lon="1.75666">
        <ele>316.4</ele>
        <time>2023-03-05T08:46:11Z</time>
      </trkpt>
      <trkpt lat="44.0874" lon="1.75669">
        <ele>316.4</ele>
        <time>2023-03-05T08:46:12Z</time>
      </trkpt>
      <trkpt lat="44.08737" lon="1.75672">
        <ele>315.6</ele>
        <time>2023-03-05T08:46:13Z</time>
      </trkpt>
      <trkpt lat="44.08735" lon="1.75675">
        <ele>315.2</ele>
        <time>2023-03-05T08:46:14Z</time>
      </trkpt>
      <trkpt lat="44.08734" lon="1.75678">
        <ele>314.6</ele>
        <time>2023-03-05T08:46:15Z</time>
      </trkpt>
      <trkpt lat="44.08731" lon="1.7568">
        <ele>314</ele>
        <time>2023-03-05T08:46:16Z</time>
      </trkpt>
      <trkpt lat="44.0873" lon="1.75682">
        <ele>313.2</ele>
        <time>2023-03-05T08:46:17Z</time>
      </trkpt>
      <trkpt lat="44.08729" lon="1.75684">
        <ele>312</ele>
        <time>2023-03-05T08:46:18Z</time>
      </trkpt>
      <trkpt lat="44.08727" lon="1.75685">
        <ele>311.6</ele>
        <time>2023-03-05T08:46:19Z</time>
      </trkpt>
      <trkpt lat="44.08725" lon="1.75684">
        <ele>310.8</ele>
        <time>2023-03-05T08:46:20Z</time>
      </trkpt>
      <trkpt lat="44.08723" lon="1.75683">
        <ele>310.6</ele>
        <time>2023-03-05T08:46:21Z</time>
      </trkpt>
      <trkpt lat="44.08723" lon="1.75681">
        <ele>309.8</ele>
        <time>2023-03-05T08:46:22Z</time>
      </trkpt>
      <trkpt lat="44.08724" lon="1.75679">
        <ele>309.4</ele>
        <time>2023-03-05T08:46:23Z</time>
      </trkpt>
      <trkpt lat="44.08724" lon="1.75676">
        <ele>309</ele>
        <time>2023-03-05T08:46:24Z</time>
      </trkpt>
      <trkpt lat="44.08726" lon="1.75672">
        <ele>308.6</ele>
        <time>2023-03-05T08:46:25Z</time>
      </trkpt>
      <trkpt lat="44.08726" lon="1.75668">
        <ele>308.2</ele>
        <time>2023-03-05T08:46:26Z</time>
      </trkpt>
      <trkpt lat="44.08726" lon="1.75664">
        <ele>308</ele>
        <time>2023-03-05T08:46:27Z</time>
      </trkpt>
      <trkpt lat="44.08726" lon="1.75662">
        <ele>307.4</ele>
        <time>2023-03-05T08:46:28Z</time>
      </trkpt>
      <trkpt lat="44.08727" lon="1.75658">
        <ele>307.2</ele>
        <time>2023-03-05T08:46:29Z</time>
      </trkpt>
      <trkpt lat="44.08728" lon="1.75653">
        <ele>306.6</ele>
        <time>2023-03-05T08:46:30Z</time>
      </trkpt>
      <trkpt lat="44.08728" lon="1.75648">
        <ele>306.4</ele>
        <time>2023-03-05T08:46:31Z</time>
      </trkpt>
      <trkpt lat="44.08729" lon="1.75643">
        <ele>305.2</ele>
        <time>2023-03-05T08:46:32Z</time>
      </trkpt>
      <trkpt lat="44.08729" lon="1.75638">
        <ele>304</ele>
        <time>2023-03-05T08:46:33Z</time>
      </trkpt>
      <trkpt lat="44.0873" lon="1.75633">
        <ele>303.6</ele>
        <time>2023-03-05T08:46:34Z</time>
      </trkpt>
      <trkpt lat="44.0873" lon="1.75626">
        <ele>303.2</ele>
        <time>2023-03-05T08:46:35Z</time>
      </trkpt>
      <trkpt lat="44.0873" lon="1.75619">
        <ele>303</ele>
        <time>2023-03-05T08:46:36Z</time>
      </trkpt>
      <trkpt lat="44.08731" lon="1.75613">
        <ele>302.2</ele>
        <time>2023-03-05T08:46:37Z</time>
      </trkpt>
      <trkpt lat="44.08731" lon="1.75607">
        <ele>301.2</ele>
        <time>2023-03-05T08:46:38Z</time>
      </trkpt>
      <trkpt lat="44.08732" lon="1.75602">
        <ele>299.8</ele>
        <time>2023-03-05T08:46:39Z</time>
      </trkpt>
      <trkpt lat="44.08732" lon="1.75597">
        <ele>299.2</ele>
        <time>2023-03-05T08:46:40Z</time>
      </trkpt>
      <trkpt lat="44.08733" lon="1.75593">
        <ele>298</ele>
        <time>2023-03-05T08:46:41Z</time>
      </trkpt>
      <trkpt lat="44.08734" lon="1.75589">
        <ele>297.6</ele>
        <time>2023-03-05T08:46:42Z</time>
      </trkpt>
      <trkpt lat="44.08734" lon="1.75584">
        <ele>296</ele>
        <time>2023-03-05T08:46:43Z</time>
      </trkpt>
      <trkpt lat="44.08734" lon="1.7558">
        <ele>295.4</ele>
        <time>2023-03-05T08:46:44Z</time>
      </trkpt>
      <trkpt lat="44.08732" lon="1.75578">
        <ele>294</ele>
        <time>2023-03-05T08:46:45Z</time>
      </trkpt>
      <trkpt lat="44.0873" lon="1.75577">
        <ele>292.8</ele>
        <time>2023-03-05T08:46:46Z</time>
      </trkpt>
      <trkpt lat="44.08729" lon="1.75578">
        <ele>292</ele>
        <time>2023-03-05T08:46:47Z</time>
      </trkpt>
      <trkpt lat="44.08727" lon="1.75581">
        <ele>291</ele>
        <time>2023-03-05T08:46:48Z</time>
      </trkpt>
      <trkpt lat="44.08724" lon="1.75586">
        <ele>290.6</ele>
        <time>2023-03-05T08:46:49Z</time>
      </trkpt>
      <trkpt lat="44.08721" lon="1.75591">
        <ele>289.6</ele>
        <time>2023-03-05T08:46:50Z</time>
      </trkpt>
      <trkpt lat="44.08718" lon="1.75596">
        <ele>289</ele>
        <time>2023-03-05T08:46:51Z</time>
      </trkpt>
      <trkpt lat="44.08714" lon="1.75601">
        <ele>287.8</ele>
        <time>2023-03-05T08:46:52Z</time>
      </trkpt>
      <trkpt lat="44.08711" lon="1.75605">
        <ele>287.6</ele>
        <time>2023-03-05T08:46:53Z</time>
      </trkpt>
      <trkpt lat="44.08708" lon="1.7561">
        <ele>286.8</ele>
        <time>2023-03-05T08:46:54Z</time>
      </trkpt>
      <trkpt lat="44.08706" lon="1.75613">
        <ele>286.6</ele>
        <time>2023-03-05T08:46:55Z</time>
      </trkpt>
      <trkpt lat="44.08705" lon="1.75615">
        <ele>284.2</ele>
        <time>2023-03-05T08:46:56Z</time>
      </trkpt>
      <trkpt lat="44.08703" lon="1.75616">
        <ele>283.4</ele>
        <time>2023-03-05T08:46:57Z</time>
      </trkpt>
      <trkpt lat="44.08702" lon="1.75616">
        <ele>282.2</ele>
        <time>2023-03-05T08:46:58Z</time>
      </trkpt>
      <trkpt lat="44.08702" lon="1.75614">
        <ele>281.4</ele>
        <time>2023-03-05T08:46:59Z</time>
      </trkpt>
      <trkpt lat="44.08702" lon="1.75611">
        <ele>280.6</ele>
        <time>2023-03-05T08:47:00Z</time>
      </trkpt>
      <trkpt lat="44.08702" lon="1.75607">
        <ele>279.4</ele>
        <time>2023-03-05T08:47:01Z</time>
      </trkpt>
      <trkpt lat="44.08703" lon="1.75602">
        <ele>278.8</ele>
        <time>2023-03-05T08:47:02Z</time>
      </trkpt>
      <trkpt lat="44.08703" lon="1.75596">
        <ele>278.2</ele>
        <time>2023-03-05T08:47:03Z</time>
      </trkpt>
      <trkpt lat="44.08703" lon="1.75591">
        <ele>277.8</ele>
        <time>2023-03-05T08:47:04Z</time>
      </trkpt>
      <trkpt lat="44.08704" lon="1.75584">
        <ele>277.4</ele>
        <time>2023-03-05T08:47:05Z</time>
      </trkpt>
      <trkpt lat="44.08704" lon="1.75578">
        <ele>277.2</ele>
        <time>2023-03-05T08:47:06Z</time>
      </trkpt>
      <trkpt lat="44.08705" lon="1.75572">
        <ele>276</ele>
        <time>2023-03-05T08:47:07Z</time>
      </trkpt>
      <trkpt lat="44.08706" lon="1.75565">
        <ele>275.2</ele>
        <time>2023-03-05T08:47:08Z</time>
      </trkpt>
      <trkpt lat="44.08707" lon="1.75559">
        <ele>274</ele>
        <time>2023-03-05T08:47:09Z</time>
      </trkpt>
      <trkpt lat="44.08707" lon="1.75553">
        <ele>273.6</ele>
        <time>2023-03-05T08:47:10Z</time>
      </trkpt>
      <trkpt lat="44.08708" lon="1.75546">
        <ele>272.4</ele>
        <time>2023-03-05T08:47:11Z</time>
      </trkpt>
      <trkpt lat="44.08709" lon="1.75541">
        <ele>271.8</ele>
        <time>2023-03-05T08:47:12Z</time>
      </trkpt>
      <trkpt lat="44.08709" lon="1.75534">
        <ele>270.2</ele>
        <time>2023-03-05T08:47:13Z</time>
      </trkpt>
      <trkpt lat="44.08709" lon="1.75527">
        <ele>268.4</ele>
        <time>2023-03-05T08:47:14Z</time>
      </trkpt>
      <trkpt lat="44.0871" lon="1.75522">
        <ele>267.8</ele>
        <time>2023-03-05T08:47:15Z</time>
      </trkpt>
      <trkpt lat="44.0871" lon="1.75516">
        <ele>266.8</ele>
        <time>2023-03-05T08:47:16Z</time>
      </trkpt>
      <trkpt lat="44.08712" lon="1.75509">
        <ele>266.4</ele>
        <time>2023-03-05T08:47:17Z</time>
      </trkpt>
      <trkpt lat="44.08713" lon="1.75503">
        <ele>264.6</ele>
        <time>2023-03-05T08:47:18Z</time>
      </trkpt>
      <trkpt lat="44.08714" lon="1.75497">
        <ele>264</ele>
        <time>2023-03-05T08:47:19Z</time>
      </trkpt>
      <trkpt lat="44.08714" lon="1.75491">
        <ele>262.4</ele>
        <time>2023-03-05T08:47:20Z</time>
      </trkpt>
      <trkpt lat="44.08714" lon="1.75485">
        <ele>261.4</ele>
        <time>2023-03-05T08:47:21Z</time>
      </trkpt>
      <trkpt lat="44.08713" lon="1.7548">
        <ele>259.6</ele>
        <time>2023-03-05T08:47:22Z</time>
      </trkpt>
      <trkpt lat="44.08714" lon="1.75475">
        <ele>258.8</ele>
        <time>2023-03-05T08:47:23Z</time>
      </trkpt>
      <trkpt lat="44.08715" lon="1.7547">
        <ele>257.8</ele>
        <time>2023-03-05T08:47:24Z</time>
      </trkpt>
      <trkpt lat="44.08715" lon="1.75465">
        <ele>256.4</ele>
        <time>2023-03-05T08:47:25Z</time>
      </trkpt>
      <trkpt lat="44.08716" lon="1.7546">
        <ele>255</ele>
        <time>2023-03-05T08:47:26Z</time>
      </trkpt>
      <trkpt lat="44.08716" lon="1.75454">
        <ele>254.2</ele>
        <time>2023-03-05T08:47:27Z</time>
      </trkpt>
      <trkpt lat="44.08715" lon="1.75449">
        <ele>253.8</ele>
        <time>2023-03-05T08:47:28Z</time>
      </trkpt>
      <trkpt lat="44.08715" lon="1.75442">
        <ele>252.6</ele>
        <time>2023-03-05T08:47:29Z</time>
      </trkpt>
      <trkpt lat="44.08715" lon="1.75436">
        <ele>252</ele>
        <time>2023-03-05T08:47:30Z</time>
      </trkpt>
      <trkpt lat="44.08715" lon="1.75431">
        <ele>250.4</ele>
        <time>2023-03-05T08:47:31Z</time>
      </trkpt>
      <trkpt lat="44.08715" lon="1.75425">
        <ele>250</ele>
        <time>2023-03-05T08:47:32Z</time>
      </trkpt>
      <trkpt lat="44.08714" lon="1.75418">
        <ele>248.8</ele>
        <time>2023-03-05T08:47:33Z</time>
      </trkpt>
      <trkpt lat="44.08714" lon="1.75412">
        <ele>248.2</ele>
        <time>2023-03-05T08:47:34Z</time>
      </trkpt>
      <trkpt lat="44.08713" lon="1.75407">
        <ele>247.2</ele>
        <time>2023-03-05T08:47:35Z</time>
      </trkpt>
      <trkpt lat="44.08712" lon="1.75402">
        <ele>246.8</ele>
        <time>2023-03-05T08:47:36Z</time>
      </trkpt>
      <trkpt lat="44.08711" lon="1.75399">
        <ele>246</ele>
        <time>2023-03-05T08:47:37Z</time>
      </trkpt>
      <trkpt lat="44.0871" lon="1.75395">
        <ele>244.8</ele>
        <time>2023-03-05T08:47:38Z</time>
      </trkpt>
      <trkpt lat="44.08709" lon="1.75391">
        <ele>242.6</ele>
        <time>2023-03-05T08:47:39Z</time>
      </trkpt>
      <trkpt lat="44.08709" lon="1.75387">
        <ele>241.8</ele>
        <time>2023-03-05T08:47:40Z</time>
      </trkpt>
      <trkpt lat="44.08709" lon="1.75382">
        <ele>240</ele>
        <time>2023-03-05T08:47:41Z</time>
      </trkpt>
      <trkpt lat="44.08708" lon="1.75377">
        <ele>238.4</ele>
        <time>2023-03-05T08:47:42Z</time>
      </trkpt>
      <trkpt lat="44.08708" lon="1.75373">
        <ele>237.8</ele>
        <time>2023-03-05T08:47:43Z</time>
      </trkpt>
      <trkpt lat="44.08708" lon="1.75369">
        <ele>237</ele>
        <time>2023-03-05T08:47:44Z</time>
      </trkpt>
      <trkpt lat="44.08707" lon="1.75366">
        <ele>236.6</ele>
        <time>2023-03-05T08:47:45Z</time>
      </trkpt>
      <trkpt lat="44.08707" lon="1.75362">
        <ele>235</ele>
        <time>2023-03-05T08:47:46Z</time>
      </trkpt>
      <trkpt lat="44.08706" lon="1.75358">
        <ele>234.4</ele>
        <time>2023-03-05T08:47:47Z</time>
      </trkpt>
      <trkpt lat="44.08705" lon="1.75354">
        <ele>233.2</ele>
        <time>2023-03-05T08:47:48Z</time>
      </trkpt>
      <trkpt lat="44.08704" lon="1.75351">
        <ele>232.6</ele>
        <time>2023-03-05T08:47:49Z</time>
      </trkpt>
      <trkpt lat="44.08703" lon="1.75348">
        <ele>231.4</ele>
        <time>2023-03-05T08:47:50Z</time>
      </trkpt>
      <trkpt lat="44.08701" lon="1.75344">
        <ele>231</ele>
        <time>2023-03-05T08:47:51Z</time>
      </trkpt>
      <trkpt lat="44.087" lon="1.7534">
        <ele>229.8</ele>
        <time>2023-03-05T08:47:52Z</time>
      </trkpt>
      <trkpt lat="44.08699" lon="1.75336">
        <ele>229.2</ele>
        <time>2023-03-05T08:47:53Z</time>
      </trkpt>
      <trkpt lat="44.08698" lon="1.75335">
        <ele>228.2</ele>
        <time>2023-03-05T08:47:54Z</time>
      </trkpt>
      <trkpt lat="44.08698" lon="1.75335">
        <ele>226.8</ele>
        <time>2023-03-05T08:47:55Z</time>
      </trkpt>
      <trkpt lat="44.08698" lon="1.75335">
        <ele>226</ele>
        <time>2023-03-05T08:47:56Z</time>
      </trkpt>
      <trkpt lat="44.08698" lon="1.75327">
        <ele>221.6</ele>
        <time>2023-03-05T08:48:00Z</time>
      </trkpt>
      <trkpt lat="44.08697" lon="1.75323">
        <ele>220.8</ele>
        <time>2023-03-05T08:48:01Z</time>
      </trkpt>
      <trkpt lat="44.08696" lon="1.7532">
        <ele>220.6</ele>
        <time>2023-03-05T08:48:02Z</time>
      </trkpt>
      <trkpt lat="44.08694" lon="1.75319">
        <ele>219.8</ele>
        <time>2023-03-05T08:48:03Z</time>
      </trkpt>
      <trkpt lat="44.08692" lon="1.75318">
        <ele>219.6</ele>
        <time>2023-03-05T08:48:04Z</time>
      </trkpt>
      <trkpt lat="44.0869" lon="1.75319">
        <ele>219.2</ele>
        <time>2023-03-05T08:48:05Z</time>
      </trkpt>
      <trkpt lat="44.08687" lon="1.75321">
        <ele>219.2</ele>
        <time>2023-03-05T08:48:06Z</time>
      </trkpt>
      <trkpt lat="44.08684" lon="1.75324">
        <ele>218.8</ele>
        <time>2023-03-05T08:48:07Z</time>
      </trkpt>
      <trkpt lat="44.08681" lon="1.75327">
        <ele>217.8</ele>
        <time>2023-03-05T08:48:08Z</time>
      </trkpt>
      <trkpt lat="44.08677" lon="1.75329">
        <ele>217.4</ele>
        <time>2023-03-05T08:48:09Z</time>
      </trkpt>
      <trkpt lat="44.08673" lon="1.75333">
        <ele>216.4</ele>
        <time>2023-03-05T08:48:10Z</time>
      </trkpt>
      <trkpt lat="44.08669" lon="1.75337">
        <ele>215.8</ele>
        <time>2023-03-05T08:48:11Z</time>
      </trkpt>
      <trkpt lat="44.08665" lon="1.75341">
        <ele>214.4</ele>
        <time>2023-03-05T08:48:12Z</time>
      </trkpt>
      <trkpt lat="44.08661" lon="1.75345">
        <ele>213.8</ele>
        <time>2023-03-05T08:48:13Z</time>
      </trkpt>
      <trkpt lat="44.08657" lon="1.75349">
        <ele>213</ele>
        <time>2023-03-05T08:48:14Z</time>
      </trkpt>
      <trkpt lat="44.08654" lon="1.75354">
        <ele>212.8</ele>
        <time>2023-03-05T08:48:15Z</time>
      </trkpt>
      <trkpt lat="44.08651" lon="1.7536">
        <ele>212</ele>
        <time>2023-03-05T08:48:16Z</time>
      </trkpt>
      <trkpt lat="44.08648" lon="1.75365">
        <ele>211.8</ele>
        <time>2023-03-05T08:48:17Z</time>
      </trkpt>
      <trkpt lat="44.08646" lon="1.75369">
        <ele>210.8</ele>
        <time>2023-03-05T08:48:18Z</time>
      </trkpt>
      <trkpt lat="44.08645" lon="1.75372">
        <ele>210.4</ele>
        <time>2023-03-05T08:48:19Z</time>
      </trkpt>
      <trkpt lat="44.08644" lon="1.75373">
        <ele>209.4</ele>
        <time>2023-03-05T08:48:20Z</time>
      </trkpt>
      <trkpt lat="44.08643" lon="1.75373">
        <ele>208.6</ele>
        <time>2023-03-05T08:48:21Z</time>
      </trkpt>
      <trkpt lat="44.08642" lon="1.75373">
        <ele>208.2</ele>
        <time>2023-03-05T08:48:22Z</time>
      </trkpt>
      <trkpt lat="44.0864" lon="1.75372">
        <ele>207.8</ele>
        <time>2023-03-05T08:48:23Z</time>
      </trkpt>
      <trkpt lat="44.08638" lon="1.7537">
        <ele>207.8</ele>
        <time>2023-03-05T08:48:24Z</time>
      </trkpt>
      <trkpt lat="44.08635" lon="1.75367">
        <ele>206.6</ele>
        <time>2023-03-05T08:48:25Z</time>
      </trkpt>
      <trkpt lat="44.08634" lon="1.75364">
        <ele>206</ele>
        <time>2023-03-05T08:48:26Z</time>
      </trkpt>
      <trkpt lat="44.08634" lon="1.75359">
        <ele>205.6</ele>
        <time>2023-03-05T08:48:27Z</time>
      </trkpt>
      <trkpt lat="44.08634" lon="1.75355">
        <ele>205</ele>
        <time>2023-03-05T08:48:28Z</time>
      </trkpt>
      <trkpt lat="44.08633" lon="1.75352">
        <ele>203.8</ele>
        <time>2023-03-05T08:48:29Z</time>
      </trkpt>
      <trkpt lat="44.0863" lon="1.7535">
        <ele>203.2</ele>
        <time>2023-03-05T08:48:30Z</time>
      </trkpt>
      <trkpt lat="44.08627" lon="1.75348">
        <ele>202</ele>
        <time>2023-03-05T08:48:31Z</time>
      </trkpt>
      <trkpt lat="44.08624" lon="1.75346">
        <ele>201</ele>
        <time>2023-03-05T08:48:32Z</time>
      </trkpt>
      <trkpt lat="44.08621" lon="1.75343">
        <ele>200.4</ele>
        <time>2023-03-05T08:48:33Z</time>
      </trkpt>
      <trkpt lat="44.08619" lon="1.75339">
        <ele>200</ele>
        <time>2023-03-05T08:48:34Z</time>
      </trkpt>
      <trkpt lat="44.08616" lon="1.75335">
        <ele>199.4</ele>
        <time>2023-03-05T08:48:35Z</time>
      </trkpt>
      <trkpt lat="44.08613" lon="1.75331">
        <ele>198.2</ele>
        <time>2023-03-05T08:48:36Z</time>
      </trkpt>
      <trkpt lat="44.0861" lon="1.75326">
        <ele>197.6</ele>
        <time>2023-03-05T08:48:37Z</time>
      </trkpt>
      <trkpt lat="44.08609" lon="1.75321">
        <ele>196.6</ele>
        <time>2023-03-05T08:48:38Z</time>
      </trkpt>
      <trkpt lat="44.08607" lon="1.75314">
        <ele>196</ele>
        <time>2023-03-05T08:48:39Z</time>
      </trkpt>
      <trkpt lat="44.08607" lon="1.75308">
        <ele>194.6</ele>
        <time>2023-03-05T08:48:40Z</time>
      </trkpt>
      <trkpt lat="44.08606" lon="1.75303">
        <ele>193.8</ele>
        <time>2023-03-05T08:48:41Z</time>
      </trkpt>
      <trkpt lat="44.08606" lon="1.75298">
        <ele>192.2</ele>
        <time>2023-03-05T08:48:42Z</time>
      </trkpt>
      <trkpt lat="44.08606" lon="1.75295">
        <ele>191.6</ele>
        <time>2023-03-05T08:48:43Z</time>
      </trkpt>
      <trkpt lat="44.08604" lon="1.75291">
        <ele>190</ele>
        <time>2023-03-05T08:48:44Z</time>
      </trkpt>
      <trkpt lat="44.08603" lon="1.75288">
        <ele>189</ele>
        <time>2023-03-05T08:48:45Z</time>
      </trkpt>
      <trkpt lat="44.08601" lon="1.75285">
        <ele>187.6</ele>
        <time>2023-03-05T08:48:46Z</time>
      </trkpt>
      <trkpt lat="44.08601" lon="1.75282">
        <ele>187</ele>
        <time>2023-03-05T08:48:47Z</time>
      </trkpt>
      <trkpt lat="44.08601" lon="1.75278">
        <ele>186.2</ele>
        <time>2023-03-05T08:48:48Z</time>
      </trkpt>
      <trkpt lat="44.086" lon="1.75275">
        <ele>185.4</ele>
        <time>2023-03-05T08:48:49Z</time>
      </trkpt>
      <trkpt lat="44.08599" lon="1.75274">
        <ele>184.8</ele>
        <time>2023-03-05T08:48:50Z</time>
      </trkpt>
      <trkpt lat="44.08596" lon="1.75273">
        <ele>183.6</ele>
        <time>2023-03-05T08:48:51Z</time>
      </trkpt>
      <trkpt lat="44.08594" lon="1.75271">
        <ele>183</ele>
        <time>2023-03-05T08:48:52Z</time>
      </trkpt>
      <trkpt lat="44.08591" lon="1.75268">
        <ele>182.2</ele>
        <time>2023-03-05T08:48:53Z</time>
      </trkpt>
      <trkpt lat="44.08587" lon="1.75265">
        <ele>181.6</ele>
        <time>2023-03-05T08:48:54Z</time>
      </trkpt>
      <trkpt lat="44.08584" lon="1.75261">
        <ele>181</ele>
        <time>2023-03-05T08:48:55Z</time>
      </trkpt>
      <trkpt lat="44.08582" lon="1.75258">
        <ele>180.4</ele>
        <time>2023-03-05T08:48:56Z</time>
      </trkpt>
      <trkpt lat="44.08582" lon="1.75255">
        <ele>179.4</ele>
        <time>2023-03-05T08:48:57Z</time>
      </trkpt>
      <trkpt lat="44.08582" lon="1.75252">
        <ele>178.8</ele>
        <time>2023-03-05T08:48:58Z</time>
      </trkpt>
      <trkpt lat="44.08584" lon="1.75247">
        <ele>177.8</ele>
        <time>2023-03-05T08:48:59Z</time>
      </trkpt>
      <trkpt lat="44.08586" lon="1.75242">
        <ele>177.6</ele>
        <time>2023-03-05T08:49:00Z</time>
      </trkpt>
      <trkpt lat="44.08587" lon="1.75237">
        <ele>177</ele>
        <time>2023-03-05T08:49:01Z</time>
      </trkpt>
      <trkpt lat="44.08589" lon="1.75231">
        <ele>176.6</ele>
        <time>2023-03-05T08:49:02Z</time>
      </trkpt>
      <trkpt lat="44.0859" lon="1.75227">
        <ele>176.4</ele>
        <time>2023-03-05T08:49:03Z</time>
      </trkpt>
      <trkpt lat="44.08592" lon="1.75222">
        <ele>176.2</ele>
        <time>2023-03-05T08:49:04Z</time>
      </trkpt>
      <trkpt lat="44.08594" lon="1.75217">
        <ele>176.2</ele>
        <time>2023-03-05T08:49:05Z</time>
      </trkpt>
      <trkpt lat="44.08596" lon="1.75212">
        <ele>176</ele>
        <time>2023-03-05T08:49:06Z</time>
      </trkpt>
      <trkpt lat="44.08597" lon="1.75206">
        <ele>175.8</ele>
        <time>2023-03-05T08:49:07Z</time>
      </trkpt>
      <trkpt lat="44.08598" lon="1.75201">
        <ele>175.6</ele>
        <time>2023-03-05T08:49:08Z</time>
      </trkpt>
      <trkpt lat="44.086" lon="1.75195">
        <ele>175.6</ele>
        <time>2023-03-05T08:49:09Z</time>
      </trkpt>
      <trkpt lat="44.08601" lon="1.75189">
        <ele>175.4</ele>
        <time>2023-03-05T08:49:10Z</time>
      </trkpt>
      <trkpt lat="44.08603" lon="1.75183">
        <ele>175.4</ele>
        <time>2023-03-05T08:49:11Z</time>
      </trkpt>
      <trkpt lat="44.08606" lon="1.75177">
        <ele>175.4</ele>
        <time>2023-03-05T08:49:12Z</time>
      </trkpt>
      <trkpt lat="44.08608" lon="1.75171">
        <ele>175.4</ele>
        <time>2023-03-05T08:49:13Z</time>
      </trkpt>
      <trkpt lat="44.08611" lon="1.75165">
        <ele>175.2</ele>
        <time>2023-03-05T08:49:14Z</time>
      </trkpt>
      <trkpt lat="44.08613" lon="1.75158">
        <ele>175.2</ele>
        <time>2023-03-05T08:49:15Z</time>
      </trkpt>
      <trkpt lat="44.08616" lon="1.75151">
        <ele>175.2</ele>
        <time>2023-03-05T08:49:16Z</time>
      </trkpt>
      <trkpt lat="44.08619" lon="1.75144">
        <ele>174.8</ele>
        <time>2023-03-05T08:49:17Z</time>
      </trkpt>
      <trkpt lat="44.08624" lon="1.75138">
        <ele>174.8</ele>
        <time>2023-03-05T08:49:18Z</time>
      </trkpt>
      <trkpt lat="44.08628" lon="1.75132">
        <ele>174.6</ele>
        <time>2023-03-05T08:49:19Z</time>
      </trkpt>
      <trkpt lat="44.08633" lon="1.75126">
        <ele>174.4</ele>
        <time>2023-03-05T08:49:20Z</time>
      </trkpt>
      <trkpt lat="44.08638" lon="1.75119">
        <ele>174</ele>
        <time>2023-03-05T08:49:21Z</time>
      </trkpt>
      <trkpt lat="44.08643" lon="1.75112">
        <ele>173.8</ele>
        <time>2023-03-05T08:49:22Z</time>
      </trkpt>
      <trkpt lat="44.08647" lon="1.75103">
        <ele>173.4</ele>
        <time>2023-03-05T08:49:23Z</time>
      </trkpt>
      <trkpt lat="44.0865" lon="1.75093">
        <ele>173.4</ele>
        <time>2023-03-05T08:49:24Z</time>
      </trkpt>
      <trkpt lat="44.08653" lon="1.75082">
        <ele>172.8</ele>
        <time>2023-03-05T08:49:25Z</time>
      </trkpt>
      <trkpt lat="44.08655" lon="1.75071">
        <ele>172.6</ele>
        <time>2023-03-05T08:49:26Z</time>
      </trkpt>
      <trkpt lat="44.08658" lon="1.75059">
        <ele>172.4</ele>
        <time>2023-03-05T08:49:27Z</time>
      </trkpt>
      <trkpt lat="44.0866" lon="1.75047">
        <ele>172.2</ele>
        <time>2023-03-05T08:49:28Z</time>
      </trkpt>
      <trkpt lat="44.08663" lon="1.75035">
        <ele>171.4</ele>
        <time>2023-03-05T08:49:29Z</time>
      </trkpt>
      <trkpt lat="44.08665" lon="1.75023">
        <ele>170.2</ele>
        <time>2023-03-05T08:49:30Z</time>
      </trkpt>
      <trkpt lat="44.08667" lon="1.75011">
        <ele>170</ele>
        <time>2023-03-05T08:49:31Z</time>
      </trkpt>
      <trkpt lat="44.08669" lon="1.75">
        <ele>169.4</ele>
        <time>2023-03-05T08:49:32Z</time>
      </trkpt>
      <trkpt lat="44.0867" lon="1.74989">
        <ele>169</ele>
        <time>2023-03-05T08:49:33Z</time>
      </trkpt>
      <trkpt lat="44.08671" lon="1.74979">
        <ele>168.2</ele>
        <time>2023-03-05T08:49:34Z</time>
      </trkpt>
      <trkpt lat="44.08672" lon="1.7497">
        <ele>167.8</ele>
        <time>2023-03-05T08:49:35Z</time>
      </trkpt>
      <trkpt lat="44.08672" lon="1.74964">
        <ele>167</ele>
        <time>2023-03-05T08:49:36Z</time>
      </trkpt>
      <trkpt lat="44.08671" lon="1.7496">
        <ele>166.4</ele>
        <time>2023-03-05T08:49:37Z</time>
      </trkpt>
      <trkpt lat="44.0867" lon="1.74959">
        <ele>165.6</ele>
        <time>2023-03-05T08:49:38Z</time>
      </trkpt>
      <trkpt lat="44.08667" lon="1.74961">
        <ele>165</ele>
        <time>2023-03-05T08:49:39Z</time>
      </trkpt>
      <trkpt lat="44.08664" lon="1.74964">
        <ele>163.8</ele>
        <time>2023-03-05T08:49:40Z</time>
      </trkpt>
      <trkpt lat="44.08662" lon="1.74967">
        <ele>163.4</ele>
        <time>2023-03-05T08:49:41Z</time>
      </trkpt>
      <trkpt lat="44.08659" lon="1.7497">
        <ele>162.6</ele>
        <time>2023-03-05T08:49:42Z</time>
      </trkpt>
      <trkpt lat="44.08657" lon="1.7497">
        <ele>161.8</ele>
        <time>2023-03-05T08:49:43Z</time>
      </trkpt>
      <trkpt lat="44.08656" lon="1.74968">
        <ele>161</ele>
        <time>2023-03-05T08:49:44Z</time>
      </trkpt>
      <trkpt lat="44.08654" lon="1.74965">
        <ele>160.2</ele>
        <time>2023-03-05T08:49:45Z</time>
      </trkpt>
      <trkpt lat="44.08652" lon="1.7496">
        <ele>159.8</ele>
        <time>2023-03-05T08:49:46Z</time>
      </trkpt>
      <trkpt lat="44.08651" lon="1.74953">
        <ele>159</ele>
        <time>2023-03-05T08:49:47Z</time>
      </trkpt>
      <trkpt lat="44.08651" lon="1.74946">
        <ele>158.8</ele>
        <time>2023-03-05T08:49:48Z</time>
      </trkpt>
      <trkpt lat="44.0865" lon="1.7494">
        <ele>157.8</ele>
        <time>2023-03-05T08:49:49Z</time>
      </trkpt>
      <trkpt lat="44.08648" lon="1.74935">
        <ele>157.6</ele>
        <time>2023-03-05T08:49:50Z</time>
      </trkpt>
      <trkpt lat="44.08645" lon="1.74931">
        <ele>156.8</ele>
        <time>2023-03-05T08:49:51Z</time>
      </trkpt>
      <trkpt lat="44.0864" lon="1.74929">
        <ele>156.4</ele>
        <time>2023-03-05T08:49:52Z</time>
      </trkpt>
      <trkpt lat="44.08635" lon="1.74928">
        <ele>155.8</ele>
        <time>2023-03-05T08:49:53Z</time>
      </trkpt>
      <trkpt lat="44.0863" lon="1.74926">
        <ele>155.2</ele>
        <time>2023-03-05T08:49:54Z</time>
      </trkpt>
      <trkpt lat="44.08625" lon="1.74924">
        <ele>154.2</ele>
        <time>2023-03-05T08:49:55Z</time>
      </trkpt>
      <trkpt lat="44.08622" lon="1.74923">
        <ele>154</ele>
        <time>2023-03-05T08:49:56Z</time>
      </trkpt>
      <trkpt lat="44.08619" lon="1.74922">
        <ele>153.2</ele>
        <time>2023-03-05T08:49:57Z</time>
      </trkpt>
      <trkpt lat="44.08616" lon="1.74921">
        <ele>152.8</ele>
        <time>2023-03-05T08:49:58Z</time>
      </trkpt>
      <trkpt lat="44.08613" lon="1.74922">
        <ele>152.6</ele>
        <time>2023-03-05T08:49:59Z</time>
      </trkpt>
      <trkpt lat="44.0861" lon="1.74921">
        <ele>152.6</ele>
        <time>2023-03-05T08:50:00Z</time>
      </trkpt>
      <trkpt lat="44.08607" lon="1.74921">
        <ele>152.4</ele>
        <time>2023-03-05T08:50:01Z</time>
      </trkpt>
      <trkpt lat="44.08604" lon="1.74921">
        <ele>152.4</ele>
        <time>2023-03-05T08:50:02Z</time>
      </trkpt>
      <trkpt lat="44.08602" lon="1.74921">
        <ele>152.6</ele>
        <time>2023-03-05T08:50:03Z</time>
      </trkpt>
      <trkpt lat="44.08599" lon="1.74921">
        <ele>153.2</ele>
        <time>2023-03-05T08:50:04Z</time>
      </trkpt>
      <trkpt lat="44.08596" lon="1.7492">
        <ele>153.6</ele>
        <time>2023-03-05T08:50:05Z</time>
      </trkpt>
      <trkpt lat="44.08593" lon="1.74919">
        <ele>154.6</ele>
        <time>2023-03-05T08:50:06Z</time>
      </trkpt>
      <trkpt lat="44.08591" lon="1.74917">
        <ele>155</ele>
        <time>2023-03-05T08:50:07Z</time>
      </trkpt>
      <trkpt lat="44.08588" lon="1.74917">
        <ele>155.8</ele>
        <time>2023-03-05T08:50:08Z</time>
      </trkpt>
      <trkpt lat="44.08585" lon="1.74917">
        <ele>156.2</ele>
        <time>2023-03-05T08:50:09Z</time>
      </trkpt>
      <trkpt lat="44.08582" lon="1.74916">
        <ele>156.8</ele>
        <time>2023-03-05T08:50:10Z</time>
      </trkpt>
      <trkpt lat="44.0858" lon="1.74915">
        <ele>157.6</ele>
        <time>2023-03-05T08:50:11Z</time>
      </trkpt>
      <trkpt lat="44.08577" lon="1.74914">
        <ele>158</ele>
        <time>2023-03-05T08:50:12Z</time>
      </trkpt>
      <trkpt lat="44.08574" lon="1.74913">
        <ele>158.6</ele>
        <time>2023-03-05T08:50:13Z</time>
      </trkpt>
      <trkpt lat="44.08572" lon="1.74912">
        <ele>158.8</ele>
        <time>2023-03-05T08:50:14Z</time>
      </trkpt>
      <trkpt lat="44.08569" lon="1.74912">
        <ele>159.4</ele>
        <time>2023-03-05T08:50:15Z</time>
      </trkpt>
      <trkpt lat="44.08567" lon="1.7491">
        <ele>159.6</ele>
        <time>2023-03-05T08:50:16Z</time>
      </trkpt>
      <trkpt lat="44.08565" lon="1.74909">
        <ele>160.2</ele>
        <time>2023-03-05T08:50:17Z</time>
      </trkpt>
      <trkpt lat="44.08564" lon="1.74906">
        <ele>160.8</ele>
        <time>2023-03-05T08:50:18Z</time>
      </trkpt>
      <trkpt lat="44.08562" lon="1.74902">
        <ele>161.6</ele>
        <time>2023-03-05T08:50:19Z</time>
      </trkpt>
      <trkpt lat="44.08562" lon="1.74898">
        <ele>162</ele>
        <time>2023-03-05T08:50:20Z</time>
      </trkpt>
      <trkpt lat="44.08561" lon="1.74894">
        <ele>162.6</ele>
        <time>2023-03-05T08:50:21Z</time>
      </trkpt>
      <trkpt lat="44.08561" lon="1.7489">
        <ele>162.8</ele>
        <time>2023-03-05T08:50:22Z</time>
      </trkpt>
      <trkpt lat="44.08562" lon="1.74887">
        <ele>163.6</ele>
        <time>2023-03-05T08:50:23Z</time>
      </trkpt>
      <trkpt lat="44.08562" lon="1.74883">
        <ele>163.8</ele>
        <time>2023-03-05T08:50:24Z</time>
      </trkpt>
      <trkpt lat="44.08563" lon="1.7488">
        <ele>164.2</ele>
        <time>2023-03-05T08:50:25Z</time>
      </trkpt>
      <trkpt lat="44.08563" lon="1.74877">
        <ele>164.6</ele>
        <time>2023-03-05T08:50:26Z</time>
      </trkpt>
      <trkpt lat="44.08563" lon="1.74873">
        <ele>164.8</ele>
        <time>2023-03-05T08:50:27Z</time>
      </trkpt>
      <trkpt lat="44.08563" lon="1.7487">
        <ele>165</ele>
        <time>2023-03-05T08:50:28Z</time>
      </trkpt>
      <trkpt lat="44.08563" lon="1.74867">
        <ele>165.2</ele>
        <time>2023-03-05T08:50:29Z</time>
      </trkpt>
      <trkpt lat="44.08562" lon="1.74864">
        <ele>165.4</ele>
        <time>2023-03-05T08:50:30Z</time>
      </trkpt>
      <trkpt lat="44.08562" lon="1.74861">
        <ele>165.6</ele>
        <time>2023-03-05T08:50:31Z</time>
      </trkpt>
      <trkpt lat="44.08561" lon="1.74858">
        <ele>166</ele>
        <time>2023-03-05T08:50:32Z</time>
      </trkpt>
      <trkpt lat="44.0856" lon="1.74855">
        <ele>166</ele>
        <time>2023-03-05T08:50:33Z</time>
      </trkpt>
      <trkpt lat="44.08559" lon="1.74852">
        <ele>166.2</ele>
        <time>2023-03-05T08:50:34Z</time>
      </trkpt>
      <trkpt lat="44.08558" lon="1.74848">
        <ele>166.2</ele>
        <time>2023-03-05T08:50:35Z</time>
      </trkpt>
      <trkpt lat="44.08556" lon="1.74844">
        <ele>166.2</ele>
        <time>2023-03-05T08:50:36Z</time>
      </trkpt>
      <trkpt lat="44.08555" lon="1.7484">
        <ele>166.4</ele>
        <time>2023-03-05T08:50:37Z</time>
      </trkpt>
      <trkpt lat="44.08555" lon="1.74837">
        <ele>166.6</ele>
        <time>2023-03-05T08:50:38Z</time>
      </trkpt>
      <trkpt lat="44.08555" lon="1.74834">
        <ele>166.6</ele>
        <time>2023-03-05T08:50:39Z</time>
      </trkpt>
      <trkpt lat="44.08555" lon="1.74831">
        <ele>166.6</ele>
        <time>2023-03-05T08:50:40Z</time>
      </trkpt>
      <trkpt lat="44.08555" lon="1.74829">
        <ele>167</ele>
        <time>2023-03-05T08:50:41Z</time>
      </trkpt>
      <trkpt lat="44.08554" lon="1.74826">
        <ele>167</ele>
        <time>2023-03-05T08:50:42Z</time>
      </trkpt>
      <trkpt lat="44.08554" lon="1.74826">
        <ele>167.2</ele>
        <time>2023-03-05T08:50:43Z</time>
      </trkpt>
      <trkpt lat="44.08553" lon="1.74824">
        <ele>167.2</ele>
        <time>2023-03-05T08:50:44Z</time>
      </trkpt>
      <trkpt lat="44.08552" lon="1.74821">
        <ele>167.4</ele>
        <time>2023-03-05T08:50:45Z</time>
      </trkpt>
      <trkpt lat="44.08551" lon="1.74818">
        <ele>167.8</ele>
        <time>2023-03-05T08:50:46Z</time>
      </trkpt>
      <trkpt lat="44.0855" lon="1.74816">
        <ele>168.2</ele>
        <time>2023-03-05T08:50:47Z</time>
      </trkpt>
      <trkpt lat="44.08549" lon="1.74813">
        <ele>168.4</ele>
        <time>2023-03-05T08:50:48Z</time>
      </trkpt>
      <trkpt lat="44.08547" lon="1.7481">
        <ele>168.8</ele>
        <time>2023-03-05T08:50:49Z</time>
      </trkpt>
      <trkpt lat="44.08545" lon="1.74807">
        <ele>169</ele>
        <time>2023-03-05T08:50:50Z</time>
      </trkpt>
      <trkpt lat="44.08543" lon="1.74804">
        <ele>169.8</ele>
        <time>2023-03-05T08:50:51Z</time>
      </trkpt>
      <trkpt lat="44.08542" lon="1.74801">
        <ele>170</ele>
        <time>2023-03-05T08:50:52Z</time>
      </trkpt>
      <trkpt lat="44.0854" lon="1.74799">
        <ele>170.8</ele>
        <time>2023-03-05T08:50:53Z</time>
      </trkpt>
      <trkpt lat="44.08539" lon="1.74796">
        <ele>171.4</ele>
        <time>2023-03-05T08:50:54Z</time>
      </trkpt>
      <trkpt lat="44.08538" lon="1.74793">
        <ele>171.6</ele>
        <time>2023-03-05T08:50:55Z</time>
      </trkpt>
      <trkpt lat="44.08536" lon="1.74791">
        <ele>172.2</ele>
        <time>2023-03-05T08:50:56Z</time>
      </trkpt>
      <trkpt lat="44.08534" lon="1.74788">
        <ele>172.6</ele>
        <time>2023-03-05T08:50:57Z</time>
      </trkpt>
      <trkpt lat="44.08532" lon="1.74784">
        <ele>173.4</ele>
        <time>2023-03-05T08:50:58Z</time>
      </trkpt>
      <trkpt lat="44.0853" lon="1.7478">
        <ele>173.6</ele>
        <time>2023-03-05T08:50:59Z</time>
      </trkpt>
      <trkpt lat="44.08529" lon="1.74774">
        <ele>174.4</ele>
        <time>2023-03-05T08:51:00Z</time>
      </trkpt>
      <trkpt lat="44.08527" lon="1.7477">
        <ele>174.4</ele>
        <time>2023-03-05T08:51:01Z</time>
      </trkpt>
      <trkpt lat="44.08524" lon="1.74767">
        <ele>175</ele>
        <time>2023-03-05T08:51:02Z</time>
      </trkpt>
      <trkpt lat="44.08522" lon="1.74763">
        <ele>175.2</ele>
        <time>2023-03-05T08:51:03Z</time>
      </trkpt>
      <trkpt lat="44.08521" lon="1.7476">
        <ele>176.2</ele>
        <time>2023-03-05T08:51:04Z</time>
      </trkpt>
      <trkpt lat="44.0852" lon="1.74757">
        <ele>176.4</ele>
        <time>2023-03-05T08:51:05Z</time>
      </trkpt>
      <trkpt lat="44.08519" lon="1.74754">
        <ele>177.8</ele>
        <time>2023-03-05T08:51:06Z</time>
      </trkpt>
      <trkpt lat="44.08519" lon="1.74752">
        <ele>178.2</ele>
        <time>2023-03-05T08:51:07Z</time>
      </trkpt>
      <trkpt lat="44.08517" lon="1.7475">
        <ele>178.8</ele>
        <time>2023-03-05T08:51:08Z</time>
      </trkpt>
      <trkpt lat="44.08515" lon="1.74747">
        <ele>180</ele>
        <time>2023-03-05T08:51:09Z</time>
      </trkpt>
      <trkpt lat="44.08514" lon="1.74745">
        <ele>180.4</ele>
        <time>2023-03-05T08:51:10Z</time>
      </trkpt>
      <trkpt lat="44.08513" lon="1.74743">
        <ele>181.2</ele>
        <time>2023-03-05T08:51:11Z</time>
      </trkpt>
      <trkpt lat="44.08512" lon="1.7474">
        <ele>181.6</ele>
        <time>2023-03-05T08:51:12Z</time>
      </trkpt>
      <trkpt lat="44.08511" lon="1.74738">
        <ele>182.6</ele>
        <time>2023-03-05T08:51:13Z</time>
      </trkpt>
      <trkpt lat="44.08509" lon="1.74735">
        <ele>183</ele>
        <time>2023-03-05T08:51:14Z</time>
      </trkpt>
      <trkpt lat="44.08508" lon="1.74733">
        <ele>183.6</ele>
        <time>2023-03-05T08:51:15Z</time>
      </trkpt>
      <trkpt lat="44.08507" lon="1.7473">
        <ele>183.8</ele>
        <time>2023-03-05T08:51:16Z</time>
      </trkpt>
      <trkpt lat="44.08507" lon="1.74728">
        <ele>185</ele>
        <time>2023-03-05T08:51:17Z</time>
      </trkpt>
      <trkpt lat="44.08506" lon="1.74726">
        <ele>185.4</ele>
        <time>2023-03-05T08:51:18Z</time>
      </trkpt>
      <trkpt lat="44.08506" lon="1.74723">
        <ele>186</ele>
        <time>2023-03-05T08:51:19Z</time>
      </trkpt>
      <trkpt lat="44.08506" lon="1.7472">
        <ele>186.2</ele>
        <time>2023-03-05T08:51:20Z</time>
      </trkpt>
      <trkpt lat="44.08505" lon="1.74717">
        <ele>187</ele>
        <time>2023-03-05T08:51:21Z</time>
      </trkpt>
      <trkpt lat="44.08505" lon="1.74714">
        <ele>188</ele>
        <time>2023-03-05T08:51:22Z</time>
      </trkpt>
      <trkpt lat="44.08505" lon="1.74711">
        <ele>188.2</ele>
        <time>2023-03-05T08:51:23Z</time>
      </trkpt>
      <trkpt lat="44.08505" lon="1.74706">
        <ele>188.8</ele>
        <time>2023-03-05T08:51:24Z</time>
      </trkpt>
      <trkpt lat="44.08505" lon="1.74703">
        <ele>189</ele>
        <time>2023-03-05T08:51:25Z</time>
      </trkpt>
      <trkpt lat="44.08506" lon="1.74699">
        <ele>189.6</ele>
        <time>2023-03-05T08:51:26Z</time>
      </trkpt>
      <trkpt lat="44.08507" lon="1.74694">
        <ele>190</ele>
        <time>2023-03-05T08:51:27Z</time>
      </trkpt>
      <trkpt lat="44.08507" lon="1.7469">
        <ele>190.8</ele>
        <time>2023-03-05T08:51:28Z</time>
      </trkpt>
      <trkpt lat="44.08508" lon="1.74686">
        <ele>191.2</ele>
        <time>2023-03-05T08:51:29Z</time>
      </trkpt>
      <trkpt lat="44.08509" lon="1.74682">
        <ele>191.8</ele>
        <time>2023-03-05T08:51:30Z</time>
      </trkpt>
      <trkpt lat="44.08509" lon="1.74677">
        <ele>191.8</ele>
        <time>2023-03-05T08:51:31Z</time>
      </trkpt>
      <trkpt lat="44.0851" lon="1.74674">
        <ele>192.2</ele>
        <time>2023-03-05T08:51:32Z</time>
      </trkpt>
      <trkpt lat="44.0851" lon="1.74669">
        <ele>192.4</ele>
        <time>2023-03-05T08:51:33Z</time>
      </trkpt>
      <trkpt lat="44.0851" lon="1.74666">
        <ele>192.8</ele>
        <time>2023-03-05T08:51:34Z</time>
      </trkpt>
      <trkpt lat="44.0851" lon="1.74662">
        <ele>193</ele>
        <time>2023-03-05T08:51:35Z</time>
      </trkpt>
      <trkpt lat="44.0851" lon="1.74658">
        <ele>193.6</ele>
        <time>2023-03-05T08:51:36Z</time>
      </trkpt>
      <trkpt lat="44.08509" lon="1.74654">
        <ele>193.8</ele>
        <time>2023-03-05T08:51:37Z</time>
      </trkpt>
      <trkpt lat="44.08509" lon="1.7465">
        <ele>194.2</ele>
        <time>2023-03-05T08:51:38Z</time>
      </trkpt>
      <trkpt lat="44.08508" lon="1.74646">
        <ele>194.4</ele>
        <time>2023-03-05T08:51:39Z</time>
      </trkpt>
      <trkpt lat="44.08507" lon="1.74643">
        <ele>194.6</ele>
        <time>2023-03-05T08:51:40Z</time>
      </trkpt>
      <trkpt lat="44.08506" lon="1.74639">
        <ele>194.8</ele>
        <time>2023-03-05T08:51:41Z</time>
      </trkpt>
      <trkpt lat="44.08505" lon="1.74635">
        <ele>195</ele>
        <time>2023-03-05T08:51:42Z</time>
      </trkpt>
      <trkpt lat="44.08505" lon="1.74632">
        <ele>195.2</ele>
        <time>2023-03-05T08:51:43Z</time>
      </trkpt>
      <trkpt lat="44.08504" lon="1.74628">
        <ele>195.4</ele>
        <time>2023-03-05T08:51:44Z</time>
      </trkpt>
      <trkpt lat="44.08502" lon="1.74624">
        <ele>196</ele>
        <time>2023-03-05T08:51:45Z</time>
      </trkpt>
      <trkpt lat="44.08501" lon="1.7462">
        <ele>196</ele>
        <time>2023-03-05T08:51:46Z</time>
      </trkpt>
      <trkpt lat="44.085" lon="1.74616">
        <ele>196.2</ele>
        <time>2023-03-05T08:51:47Z</time>
      </trkpt>
      <trkpt lat="44.08498" lon="1.74613">
        <ele>196.2</ele>
        <time>2023-03-05T08:51:48Z</time>
      </trkpt>
      <trkpt lat="44.08496" lon="1.74609">
        <ele>196.6</ele>
        <time>2023-03-05T08:51:49Z</time>
      </trkpt>
      <trkpt lat="44.08494" lon="1.74605">
        <ele>196.8</ele>
        <time>2023-03-05T08:51:50Z</time>
      </trkpt>
      <trkpt lat="44.0849" lon="1.74601">
        <ele>197</ele>
        <time>2023-03-05T08:51:51Z</time>
      </trkpt>
      <trkpt lat="44.08487" lon="1.74597">
        <ele>197.2</ele>
        <time>2023-03-05T08:51:52Z</time>
      </trkpt>
      <trkpt lat="44.08484" lon="1.74594">
        <ele>197.4</ele>
        <time>2023-03-05T08:51:53Z</time>
      </trkpt>
      <trkpt lat="44.08481" lon="1.74591">
        <ele>197.4</ele>
        <time>2023-03-05T08:51:54Z</time>
      </trkpt>
      <trkpt lat="44.08479" lon="1.74587">
        <ele>197.6</ele>
        <time>2023-03-05T08:51:55Z</time>
      </trkpt>
      <trkpt lat="44.08478" lon="1.74584">
        <ele>197.6</ele>
        <time>2023-03-05T08:51:56Z</time>
      </trkpt>
      <trkpt lat="44.08477" lon="1.7458">
        <ele>197.8</ele>
        <time>2023-03-05T08:51:57Z</time>
      </trkpt>
      <trkpt lat="44.08478" lon="1.74576">
        <ele>198</ele>
        <time>2023-03-05T08:51:58Z</time>
      </trkpt>
      <trkpt lat="44.08478" lon="1.74572">
        <ele>198.2</ele>
        <time>2023-03-05T08:51:59Z</time>
      </trkpt>
      <trkpt lat="44.08479" lon="1.74568">
        <ele>198.4</ele>
        <time>2023-03-05T08:52:00Z</time>
      </trkpt>
      <trkpt lat="44.0848" lon="1.74564">
        <ele>198.6</ele>
        <time>2023-03-05T08:52:01Z</time>
      </trkpt>
      <trkpt lat="44.08481" lon="1.74559">
        <ele>198.8</ele>
        <time>2023-03-05T08:52:02Z</time>
      </trkpt>
      <trkpt lat="44.08482" lon="1.74555">
        <ele>199</ele>
        <time>2023-03-05T08:52:03Z</time>
      </trkpt>
      <trkpt lat="44.08482" lon="1.74551">
        <ele>199.4</ele>
        <time>2023-03-05T08:52:04Z</time>
      </trkpt>
      <trkpt lat="44.08483" lon="1.74547">
        <ele>199.8</ele>
        <time>2023-03-05T08:52:05Z</time>
      </trkpt>
      <trkpt lat="44.08482" lon="1.74543">
        <ele>200</ele>
        <time>2023-03-05T08:52:06Z</time>
      </trkpt>
      <trkpt lat="44.08481" lon="1.74539">
        <ele>200.2</ele>
        <time>2023-03-05T08:52:07Z</time>
      </trkpt>
      <trkpt lat="44.08479" lon="1.74536">
        <ele>200.4</ele>
        <time>2023-03-05T08:52:08Z</time>
      </trkpt>
      <trkpt lat="44.08477" lon="1.74533">
        <ele>200.6</ele>
        <time>2023-03-05T08:52:09Z</time>
      </trkpt>
      <trkpt lat="44.08474" lon="1.7453">
        <ele>200.6</ele>
        <time>2023-03-05T08:52:10Z</time>
      </trkpt>
      <trkpt lat="44.08471" lon="1.74528">
        <ele>201</ele>
        <time>2023-03-05T08:52:11Z</time>
      </trkpt>
      <trkpt lat="44.08468" lon="1.74526">
        <ele>201</ele>
        <time>2023-03-05T08:52:12Z</time>
      </trkpt>
      <trkpt lat="44.08465" lon="1.74525">
        <ele>201.4</ele>
        <time>2023-03-05T08:52:13Z</time>
      </trkpt>
      <trkpt lat="44.08461" lon="1.74524">
        <ele>201.6</ele>
        <time>2023-03-05T08:52:14Z</time>
      </trkpt>
      <trkpt lat="44.08457" lon="1.74523">
        <ele>201.8</ele>
        <time>2023-03-05T08:52:15Z</time>
      </trkpt>
      <trkpt lat="44.08454" lon="1.7452">
        <ele>202</ele>
        <time>2023-03-05T08:52:16Z</time>
      </trkpt>
      <trkpt lat="44.08451" lon="1.74517">
        <ele>202.4</ele>
        <time>2023-03-05T08:52:17Z</time>
      </trkpt>
      <trkpt lat="44.08448" lon="1.74513">
        <ele>202.8</ele>
        <time>2023-03-05T08:52:18Z</time>
      </trkpt>
      <trkpt lat="44.08446" lon="1.74509">
        <ele>203</ele>
        <time>2023-03-05T08:52:19Z</time>
      </trkpt>
      <trkpt lat="44.08444" lon="1.74503">
        <ele>203</ele>
        <time>2023-03-05T08:52:20Z</time>
      </trkpt>
      <trkpt lat="44.08442" lon="1.74497">
        <ele>203.2</ele>
        <time>2023-03-05T08:52:21Z</time>
      </trkpt>
      <trkpt lat="44.08439" lon="1.7449">
        <ele>203.2</ele>
        <time>2023-03-05T08:52:22Z</time>
      </trkpt>
      <trkpt lat="44.08436" lon="1.74483">
        <ele>203.2</ele>
        <time>2023-03-05T08:52:23Z</time>
      </trkpt>
      <trkpt lat="44.08431" lon="1.74477">
        <ele>203.2</ele>
        <time>2023-03-05T08:52:24Z</time>
      </trkpt>
      <trkpt lat="44.08427" lon="1.74473">
        <ele>203.4</ele>
        <time>2023-03-05T08:52:25Z</time>
      </trkpt>
      <trkpt lat="44.08422" lon="1.74469">
        <ele>203.2</ele>
        <time>2023-03-05T08:52:26Z</time>
      </trkpt>
      <trkpt lat="44.08417" lon="1.74465">
        <ele>203.2</ele>
        <time>2023-03-05T08:52:27Z</time>
      </trkpt>
      <trkpt lat="44.08413" lon="1.7446">
        <ele>202.8</ele>
        <time>2023-03-05T08:52:28Z</time>
      </trkpt>
      <trkpt lat="44.0841" lon="1.74455">
        <ele>202.6</ele>
        <time>2023-03-05T08:52:29Z</time>
      </trkpt>
      <trkpt lat="44.08406" lon="1.7445">
        <ele>202</ele>
        <time>2023-03-05T08:52:30Z</time>
      </trkpt>
      <trkpt lat="44.08402" lon="1.74446">
        <ele>201.4</ele>
        <time>2023-03-05T08:52:31Z</time>
      </trkpt>
      <trkpt lat="44.08399" lon="1.74442">
        <ele>200.8</ele>
        <time>2023-03-05T08:52:32Z</time>
      </trkpt>
      <trkpt lat="44.08395" lon="1.74438">
        <ele>200.2</ele>
        <time>2023-03-05T08:52:33Z</time>
      </trkpt>
      <trkpt lat="44.08392" lon="1.74434">
        <ele>199.4</ele>
        <time>2023-03-05T08:52:34Z</time>
      </trkpt>
      <trkpt lat="44.08388" lon="1.7443">
        <ele>198.8</ele>
        <time>2023-03-05T08:52:35Z</time>
      </trkpt>
      <trkpt lat="44.08384" lon="1.74425">
        <ele>198.6</ele>
        <time>2023-03-05T08:52:36Z</time>
      </trkpt>
      <trkpt lat="44.08381" lon="1.74421">
        <ele>197.8</ele>
        <time>2023-03-05T08:52:37Z</time>
      </trkpt>
      <trkpt lat="44.08377" lon="1.74416">
        <ele>197.6</ele>
        <time>2023-03-05T08:52:38Z</time>
      </trkpt>
      <trkpt lat="44.08374" lon="1.74413">
        <ele>196.4</ele>
        <time>2023-03-05T08:52:39Z</time>
      </trkpt>
      <trkpt lat="44.08371" lon="1.74411">
        <ele>195.8</ele>
        <time>2023-03-05T08:52:40Z</time>
      </trkpt>
      <trkpt lat="44.08369" lon="1.74409">
        <ele>195.2</ele>
        <time>2023-03-05T08:52:41Z</time>
      </trkpt>
      <trkpt lat="44.08368" lon="1.74409">
        <ele>195.2</ele>
        <time>2023-03-05T08:52:42Z</time>
      </trkpt>
      <trkpt lat="44.08367" lon="1.74408">
        <ele>194.6</ele>
        <time>2023-03-05T08:52:43Z</time>
      </trkpt>
      <trkpt lat="44.08365" lon="1.74408">
        <ele>194.2</ele>
        <time>2023-03-05T08:52:44Z</time>
      </trkpt>
      <trkpt lat="44.08364" lon="1.74408">
        <ele>193.4</ele>
        <time>2023-03-05T08:52:45Z</time>
      </trkpt>
      <trkpt lat="44.08362" lon="1.74408">
        <ele>193.2</ele>
        <time>2023-03-05T08:52:46Z</time>
      </trkpt>
      <trkpt lat="44.0836" lon="1.74407">
        <ele>192.6</ele>
        <time>2023-03-05T08:52:47Z</time>
      </trkpt>
      <trkpt lat="44.08358" lon="1.74405">
        <ele>192.4</ele>
        <time>2023-03-05T08:52:48Z</time>
      </trkpt>
      <trkpt lat="44.08356" lon="1.74404">
        <ele>192.2</ele>
        <time>2023-03-05T08:52:49Z</time>
      </trkpt>
      <trkpt lat="44.08354" lon="1.74404">
        <ele>191.8</ele>
        <time>2023-03-05T08:52:50Z</time>
      </trkpt>
      <trkpt lat="44.08352" lon="1.74403">
        <ele>191.8</ele>
        <time>2023-03-05T08:52:51Z</time>
      </trkpt>
      <trkpt lat="44.0835" lon="1.74403">
        <ele>191.6</ele>
        <time>2023-03-05T08:52:52Z</time>
      </trkpt>
      <trkpt lat="44.08348" lon="1.74403">
        <ele>191.4</ele>
        <time>2023-03-05T08:52:53Z</time>
      </trkpt>
      <trkpt lat="44.08345" lon="1.74403">
        <ele>191.2</ele>
        <time>2023-03-05T08:52:54Z</time>
      </trkpt>
      <trkpt lat="44.08342" lon="1.74403">
        <ele>191.2</ele>
        <time>2023-03-05T08:52:55Z</time>
      </trkpt>
      <trkpt lat="44.08338" lon="1.74403">
        <ele>191</ele>
        <time>2023-03-05T08:52:56Z</time>
      </trkpt>
      <trkpt lat="44.08333" lon="1.74402">
        <ele>191</ele>
        <time>2023-03-05T08:52:57Z</time>
      </trkpt>
      <trkpt lat="44.08329" lon="1.74402">
        <ele>190.6</ele>
        <time>2023-03-05T08:52:58Z</time>
      </trkpt>
      <trkpt lat="44.08325" lon="1.74402">
        <ele>190.4</ele>
        <time>2023-03-05T08:52:59Z</time>
      </trkpt>
      <trkpt lat="44.08321" lon="1.74403">
        <ele>190</ele>
        <time>2023-03-05T08:53:00Z</time>
      </trkpt>
      <trkpt lat="44.08318" lon="1.74402">
        <ele>190</ele>
        <time>2023-03-05T08:53:01Z</time>
      </trkpt>
      <trkpt lat="44.08314" lon="1.74402">
        <ele>189.8</ele>
        <time>2023-03-05T08:53:02Z</time>
      </trkpt>
      <trkpt lat="44.0831" lon="1.74402">
        <ele>189.6</ele>
        <time>2023-03-05T08:53:03Z</time>
      </trkpt>
      <trkpt lat="44.08307" lon="1.74402">
        <ele>189.4</ele>
        <time>2023-03-05T08:53:04Z</time>
      </trkpt>
      <trkpt lat="44.08304" lon="1.74402">
        <ele>189.2</ele>
        <time>2023-03-05T08:53:05Z</time>
      </trkpt>
      <trkpt lat="44.08301" lon="1.74401">
        <ele>189.2</ele>
        <time>2023-03-05T08:53:06Z</time>
      </trkpt>
      <trkpt lat="44.08298" lon="1.74401">
        <ele>189</ele>
        <time>2023-03-05T08:53:07Z</time>
      </trkpt>
      <trkpt lat="44.08295" lon="1.74401">
        <ele>189</ele>
        <time>2023-03-05T08:53:08Z</time>
      </trkpt>
      <trkpt lat="44.08291" lon="1.74401">
        <ele>189</ele>
        <time>2023-03-05T08:53:09Z</time>
      </trkpt>
      <trkpt lat="44.08288" lon="1.744">
        <ele>188.8</ele>
        <time>2023-03-05T08:53:10Z</time>
      </trkpt>
      <trkpt lat="44.08284" lon="1.744">
        <ele>189</ele>
        <time>2023-03-05T08:53:11Z</time>
      </trkpt>
      <trkpt lat="44.0828" lon="1.744">
        <ele>189</ele>
        <time>2023-03-05T08:53:12Z</time>
      </trkpt>
      <trkpt lat="44.08277" lon="1.744">
        <ele>189</ele>
        <time>2023-03-05T08:53:13Z</time>
      </trkpt>
      <trkpt lat="44.08273" lon="1.744">
        <ele>189</ele>
        <time>2023-03-05T08:53:14Z</time>
      </trkpt>
      <trkpt lat="44.08269" lon="1.744">
        <ele>189</ele>
        <time>2023-03-05T08:53:15Z</time>
      </trkpt>
      <trkpt lat="44.08265" lon="1.744">
        <ele>189</ele>
        <time>2023-03-05T08:53:16Z</time>
      </trkpt>
      <trkpt lat="44.08262" lon="1.744">
        <ele>189.2</ele>
        <time>2023-03-05T08:53:17Z</time>
      </trkpt>
      <trkpt lat="44.08259" lon="1.74401">
        <ele>189.2</ele>
        <time>2023-03-05T08:53:18Z</time>
      </trkpt>
      <trkpt lat="44.08255" lon="1.74401">
        <ele>189.4</ele>
        <time>2023-03-05T08:53:19Z</time>
      </trkpt>
      <trkpt lat="44.08252" lon="1.74401">
        <ele>189.6</ele>
        <time>2023-03-05T08:53:20Z</time>
      </trkpt>
      <trkpt lat="44.08248" lon="1.74402">
        <ele>189.6</ele>
        <time>2023-03-05T08:53:21Z</time>
      </trkpt>
      <trkpt lat="44.08245" lon="1.74402">
        <ele>189.8</ele>
        <time>2023-03-05T08:53:22Z</time>
      </trkpt>
      <trkpt lat="44.08241" lon="1.74402">
        <ele>190</ele>
        <time>2023-03-05T08:53:23Z</time>
      </trkpt>
      <trkpt lat="44.08238" lon="1.74403">
        <ele>190.2</ele>
        <time>2023-03-05T08:53:24Z</time>
      </trkpt>
      <trkpt lat="44.08234" lon="1.74403">
        <ele>190.4</ele>
        <time>2023-03-05T08:53:25Z</time>
      </trkpt>
      <trkpt lat="44.0823" lon="1.74403">
        <ele>190.6</ele>
        <time>2023-03-05T08:53:26Z</time>
      </trkpt>
      <trkpt lat="44.08227" lon="1.74404">
        <ele>190.8</ele>
        <time>2023-03-05T08:53:27Z</time>
      </trkpt>
      <trkpt lat="44.08224" lon="1.74404">
        <ele>191.2</ele>
        <time>2023-03-05T08:53:28Z</time>
      </trkpt>
      <trkpt lat="44.0822" lon="1.74404">
        <ele>191.2</ele>
        <time>2023-03-05T08:53:29Z</time>
      </trkpt>
      <trkpt lat="44.08217" lon="1.74405">
        <ele>191.4</ele>
        <time>2023-03-05T08:53:30Z</time>
      </trkpt>
      <trkpt lat="44.08214" lon="1.74404">
        <ele>191.4</ele>
        <time>2023-03-05T08:53:31Z</time>
      </trkpt>
      <trkpt lat="44.0821" lon="1.74404">
        <ele>191.6</ele>
        <time>2023-03-05T08:53:32Z</time>
      </trkpt>
      <trkpt lat="44.08207" lon="1.74405">
        <ele>191.8</ele>
        <time>2023-03-05T08:53:33Z</time>
      </trkpt>
      <trkpt lat="44.08203" lon="1.74405">
        <ele>191.8</ele>
        <time>2023-03-05T08:53:34Z</time>
      </trkpt>
      <trkpt lat="44.082" lon="1.74405">
        <ele>192</ele>
        <time>2023-03-05T08:53:35Z</time>
      </trkpt>
      <trkpt lat="44.08197" lon="1.74405">
        <ele>192.2</ele>
        <time>2023-03-05T08:53:36Z</time>
      </trkpt>
      <trkpt lat="44.08193" lon="1.74405">
        <ele>192.6</ele>
        <time>2023-03-05T08:53:37Z</time>
      </trkpt>
      <trkpt lat="44.0819" lon="1.74405">
        <ele>192.6</ele>
        <time>2023-03-05T08:53:38Z</time>
      </trkpt>
      <trkpt lat="44.08187" lon="1.74406">
        <ele>193</ele>
        <time>2023-03-05T08:53:39Z</time>
      </trkpt>
      <trkpt lat="44.08183" lon="1.74406">
        <ele>193.2</ele>
        <time>2023-03-05T08:53:40Z</time>
      </trkpt>
      <trkpt lat="44.0818" lon="1.74406">
        <ele>193.4</ele>
        <time>2023-03-05T08:53:41Z</time>
      </trkpt>
      <trkpt lat="44.08177" lon="1.74406">
        <ele>193.4</ele>
        <time>2023-03-05T08:53:42Z</time>
      </trkpt>
      <trkpt lat="44.08174" lon="1.74406">
        <ele>193.8</ele>
        <time>2023-03-05T08:53:43Z</time>
      </trkpt>
      <trkpt lat="44.08172" lon="1.74405">
        <ele>193.8</ele>
        <time>2023-03-05T08:53:44Z</time>
      </trkpt>
      <trkpt lat="44.08169" lon="1.74405">
        <ele>194.2</ele>
        <time>2023-03-05T08:53:45Z</time>
      </trkpt>
      <trkpt lat="44.08166" lon="1.74405">
        <ele>194.2</ele>
        <time>2023-03-05T08:53:46Z</time>
      </trkpt>
      <trkpt lat="44.08164" lon="1.74405">
        <ele>194.6</ele>
        <time>2023-03-05T08:53:47Z</time>
      </trkpt>
      <trkpt lat="44.08161" lon="1.74404">
        <ele>194.8</ele>
        <time>2023-03-05T08:53:48Z</time>
      </trkpt>
      <trkpt lat="44.08159" lon="1.74404">
        <ele>195</ele>
        <time>2023-03-05T08:53:49Z</time>
      </trkpt>
      <trkpt lat="44.08156" lon="1.74404">
        <ele>195.4</ele>
        <time>2023-03-05T08:53:50Z</time>
      </trkpt>
      <trkpt lat="44.08153" lon="1.74403">
        <ele>195.6</ele>
        <time>2023-03-05T08:53:51Z</time>
      </trkpt>
      <trkpt lat="44.08151" lon="1.74402">
        <ele>196</ele>
        <time>2023-03-05T08:53:52Z</time>
      </trkpt>
      <trkpt lat="44.08148" lon="1.74401">
        <ele>196.4</ele>
        <time>2023-03-05T08:53:53Z</time>
      </trkpt>
      <trkpt lat="44.08146" lon="1.744">
        <ele>196.6</ele>
        <time>2023-03-05T08:53:54Z</time>
      </trkpt>
      <trkpt lat="44.08143" lon="1.744">
        <ele>196.8</ele>
        <time>2023-03-05T08:53:55Z</time>
      </trkpt>
      <trkpt lat="44.0814" lon="1.74399">
        <ele>197.2</ele>
        <time>2023-03-05T08:53:56Z</time>
      </trkpt>
      <trkpt lat="44.08137" lon="1.74398">
        <ele>197.6</ele>
        <time>2023-03-05T08:53:57Z</time>
      </trkpt>
      <trkpt lat="44.08135" lon="1.74397">
        <ele>198</ele>
        <time>2023-03-05T08:53:58Z</time>
      </trkpt>
      <trkpt lat="44.08132" lon="1.74396">
        <ele>198.2</ele>
        <time>2023-03-05T08:53:59Z</time>
      </trkpt>
      <trkpt lat="44.08129" lon="1.74395">
        <ele>198.6</ele>
        <time>2023-03-05T08:54:00Z</time>
      </trkpt>
      <trkpt lat="44.08126" lon="1.74394">
        <ele>198.8</ele>
        <time>2023-03-05T08:54:01Z</time>
      </trkpt>
      <trkpt lat="44.08124" lon="1.74394">
        <ele>199</ele>
        <time>2023-03-05T08:54:02Z</time>
      </trkpt>
      <trkpt lat="44.08122" lon="1.74393">
        <ele>199.2</ele>
        <time>2023-03-05T08:54:03Z</time>
      </trkpt>
      <trkpt lat="44.0812" lon="1.74393">
        <ele>199.4</ele>
        <time>2023-03-05T08:54:04Z</time>
      </trkpt>
      <trkpt lat="44.08119" lon="1.74393">
        <ele>199.6</ele>
        <time>2023-03-05T08:54:05Z</time>
      </trkpt>
      <trkpt lat="44.08117" lon="1.74393">
        <ele>199.6</ele>
        <time>2023-03-05T08:54:06Z</time>
      </trkpt>
      <trkpt lat="44.08116" lon="1.74393">
        <ele>200</ele>
        <time>2023-03-05T08:54:07Z</time>
      </trkpt>
      <trkpt lat="44.08115" lon="1.74393">
        <ele>200</ele>
        <time>2023-03-05T08:54:08Z</time>
      </trkpt>
      <trkpt lat="44.08114" lon="1.74391">
        <ele>200.2</ele>
        <time>2023-03-05T08:54:09Z</time>
      </trkpt>
      <trkpt lat="44.08112" lon="1.7439">
        <ele>200.2</ele>
        <time>2023-03-05T08:54:10Z</time>
      </trkpt>
      <trkpt lat="44.08109" lon="1.74389">
        <ele>200.2</ele>
        <time>2023-03-05T08:54:11Z</time>
      </trkpt>
      <trkpt lat="44.08105" lon="1.74388">
        <ele>200.4</ele>
        <time>2023-03-05T08:54:12Z</time>
      </trkpt>
      <trkpt lat="44.08101" lon="1.74387">
        <ele>200.4</ele>
        <time>2023-03-05T08:54:13Z</time>
      </trkpt>
      <trkpt lat="44.08097" lon="1.74386">
        <ele>200.4</ele>
        <time>2023-03-05T08:54:14Z</time>
      </trkpt>
      <trkpt lat="44.08093" lon="1.74384">
        <ele>200.4</ele>
        <time>2023-03-05T08:54:15Z</time>
      </trkpt>
      <trkpt lat="44.08089" lon="1.74383">
        <ele>200.6</ele>
        <time>2023-03-05T08:54:16Z</time>
      </trkpt>
      <trkpt lat="44.08085" lon="1.74382">
        <ele>200.8</ele>
        <time>2023-03-05T08:54:17Z</time>
      </trkpt>
      <trkpt lat="44.08082" lon="1.74381">
        <ele>200.8</ele>
        <time>2023-03-05T08:54:18Z</time>
      </trkpt>
      <trkpt lat="44.08078" lon="1.74381">
        <ele>201.2</ele>
        <time>2023-03-05T08:54:19Z</time>
      </trkpt>
      <trkpt lat="44.08074" lon="1.7438">
        <ele>201.6</ele>
        <time>2023-03-05T08:54:20Z</time>
      </trkpt>
      <trkpt lat="44.0807" lon="1.74379">
        <ele>201.6</ele>
        <time>2023-03-05T08:54:21Z</time>
      </trkpt>
      <trkpt lat="44.08066" lon="1.7438">
        <ele>202.2</ele>
        <time>2023-03-05T08:54:22Z</time>
      </trkpt>
      <trkpt lat="44.08063" lon="1.7438">
        <ele>202.4</ele>
        <time>2023-03-05T08:54:23Z</time>
      </trkpt>
      <trkpt lat="44.08059" lon="1.7438">
        <ele>202.6</ele>
        <time>2023-03-05T08:54:24Z</time>
      </trkpt>
      <trkpt lat="44.08056" lon="1.74381">
        <ele>202.8</ele>
        <time>2023-03-05T08:54:25Z</time>
      </trkpt>
      <trkpt lat="44.08053" lon="1.74381">
        <ele>203</ele>
        <time>2023-03-05T08:54:26Z</time>
      </trkpt>
      <trkpt lat="44.08049" lon="1.74381">
        <ele>203.4</ele>
        <time>2023-03-05T08:54:27Z</time>
      </trkpt>
      <trkpt lat="44.08046" lon="1.74382">
        <ele>203.6</ele>
        <time>2023-03-05T08:54:28Z</time>
      </trkpt>
      <trkpt lat="44.08043" lon="1.74382">
        <ele>203.8</ele>
        <time>2023-03-05T08:54:29Z</time>
      </trkpt>
      <trkpt lat="44.08039" lon="1.74382">
        <ele>204.2</ele>
        <time>2023-03-05T08:54:30Z</time>
      </trkpt>
      <trkpt lat="44.08036" lon="1.74383">
        <ele>204.2</ele>
        <time>2023-03-05T08:54:31Z</time>
      </trkpt>
      <trkpt lat="44.08033" lon="1.74383">
        <ele>204.8</ele>
        <time>2023-03-05T08:54:32Z</time>
      </trkpt>
      <trkpt lat="44.08029" lon="1.74383">
        <ele>205</ele>
        <time>2023-03-05T08:54:33Z</time>
      </trkpt>
      <trkpt lat="44.08026" lon="1.74384">
        <ele>205.6</ele>
        <time>2023-03-05T08:54:34Z</time>
      </trkpt>
      <trkpt lat="44.08022" lon="1.74385">
        <ele>206</ele>
        <time>2023-03-05T08:54:35Z</time>
      </trkpt>
      <trkpt lat="44.08018" lon="1.74386">
        <ele>206.2</ele>
        <time>2023-03-05T08:54:36Z</time>
      </trkpt>
      <trkpt lat="44.08015" lon="1.74387">
        <ele>206.4</ele>
        <time>2023-03-05T08:54:37Z</time>
      </trkpt>
      <trkpt lat="44.08011" lon="1.74388">
        <ele>206.6</ele>
        <time>2023-03-05T08:54:38Z</time>
      </trkpt>
      <trkpt lat="44.08007" lon="1.74388">
        <ele>206.8</ele>
        <time>2023-03-05T08:54:39Z</time>
      </trkpt>
      <trkpt lat="44.08004" lon="1.74388">
        <ele>206.8</ele>
        <time>2023-03-05T08:54:40Z</time>
      </trkpt>
      <trkpt lat="44.08" lon="1.74388">
        <ele>207.2</ele>
        <time>2023-03-05T08:54:41Z</time>
      </trkpt>
      <trkpt lat="44.07997" lon="1.74388">
        <ele>207.2</ele>
        <time>2023-03-05T08:54:42Z</time>
      </trkpt>
      <trkpt lat="44.07993" lon="1.74388">
        <ele>208</ele>
        <time>2023-03-05T08:54:43Z</time>
      </trkpt>
      <trkpt lat="44.0799" lon="1.74388">
        <ele>208.2</ele>
        <time>2023-03-05T08:54:44Z</time>
      </trkpt>
      <trkpt lat="44.07986" lon="1.74388">
        <ele>208.6</ele>
        <time>2023-03-05T08:54:45Z</time>
      </trkpt>
      <trkpt lat="44.07982" lon="1.74389">
        <ele>208.8</ele>
        <time>2023-03-05T08:54:46Z</time>
      </trkpt>
      <trkpt lat="44.07978" lon="1.74389">
        <ele>209.2</ele>
        <time>2023-03-05T08:54:47Z</time>
      </trkpt>
      <trkpt lat="44.07973" lon="1.74389">
        <ele>209.4</ele>
        <time>2023-03-05T08:54:48Z</time>
      </trkpt>
      <trkpt lat="44.07969" lon="1.74389">
        <ele>209.8</ele>
        <time>2023-03-05T08:54:49Z</time>
      </trkpt>
      <trkpt lat="44.07965" lon="1.74389">
        <ele>210.2</ele>
        <time>2023-03-05T08:54:50Z</time>
      </trkpt>
      <trkpt lat="44.07961" lon="1.7439">
        <ele>210.4</ele>
        <time>2023-03-05T08:54:51Z</time>
      </trkpt>
      <trkpt lat="44.07957" lon="1.7439">
        <ele>210.8</ele>
        <time>2023-03-05T08:54:52Z</time>
      </trkpt>
      <trkpt lat="44.07952" lon="1.7439">
        <ele>211</ele>
        <time>2023-03-05T08:54:53Z</time>
      </trkpt>
      <trkpt lat="44.07948" lon="1.7439">
        <ele>211.2</ele>
        <time>2023-03-05T08:54:54Z</time>
      </trkpt>
      <trkpt lat="44.07944" lon="1.74391">
        <ele>211.2</ele>
        <time>2023-03-05T08:54:55Z</time>
      </trkpt>
      <trkpt lat="44.0794" lon="1.74391">
        <ele>211.4</ele>
        <time>2023-03-05T08:54:56Z</time>
      </trkpt>
      <trkpt lat="44.07936" lon="1.74392">
        <ele>211.4</ele>
        <time>2023-03-05T08:54:57Z</time>
      </trkpt>
      <trkpt lat="44.07932" lon="1.74392">
        <ele>211.8</ele>
        <time>2023-03-05T08:54:58Z</time>
      </trkpt>
      <trkpt lat="44.07927" lon="1.74393">
        <ele>211.8</ele>
        <time>2023-03-05T08:54:59Z</time>
      </trkpt>
      <trkpt lat="44.07923" lon="1.74393">
        <ele>212.2</ele>
        <time>2023-03-05T08:55:00Z</time>
      </trkpt>
      <trkpt lat="44.07918" lon="1.74394">
        <ele>212.4</ele>
        <time>2023-03-05T08:55:01Z</time>
      </trkpt>
      <trkpt lat="44.07913" lon="1.74395">
        <ele>212.6</ele>
        <time>2023-03-05T08:55:02Z</time>
      </trkpt>
      <trkpt lat="44.07909" lon="1.74396">
        <ele>212.8</ele>
        <time>2023-03-05T08:55:03Z</time>
      </trkpt>
      <trkpt lat="44.07904" lon="1.74397">
        <ele>212.8</ele>
        <time>2023-03-05T08:55:04Z</time>
      </trkpt>
      <trkpt lat="44.07899" lon="1.74397">
        <ele>213</ele>
        <time>2023-03-05T08:55:05Z</time>
      </trkpt>
      <trkpt lat="44.07894" lon="1.74398">
        <ele>213</ele>
        <time>2023-03-05T08:55:06Z</time>
      </trkpt>
      <trkpt lat="44.0789" lon="1.74399">
        <ele>213.2</ele>
        <time>2023-03-05T08:55:07Z</time>
      </trkpt>
      <trkpt lat="44.07885" lon="1.744">
        <ele>213.2</ele>
        <time>2023-03-05T08:55:08Z</time>
      </trkpt>
      <trkpt lat="44.07881" lon="1.74402">
        <ele>213.4</ele>
        <time>2023-03-05T08:55:09Z</time>
      </trkpt>
      <trkpt lat="44.07877" lon="1.74404">
        <ele>213.4</ele>
        <time>2023-03-05T08:55:10Z</time>
      </trkpt>
      <trkpt lat="44.07873" lon="1.74407">
        <ele>213.4</ele>
        <time>2023-03-05T08:55:11Z</time>
      </trkpt>
      <trkpt lat="44.07869" lon="1.74409">
        <ele>213.4</ele>
        <time>2023-03-05T08:55:12Z</time>
      </trkpt>
      <trkpt lat="44.07865" lon="1.74411">
        <ele>213.4</ele>
        <time>2023-03-05T08:55:13Z</time>
      </trkpt>
      <trkpt lat="44.07861" lon="1.74414">
        <ele>213.4</ele>
        <time>2023-03-05T08:55:14Z</time>
      </trkpt>
      <trkpt lat="44.07857" lon="1.74417">
        <ele>213.6</ele>
        <time>2023-03-05T08:55:15Z</time>
      </trkpt>
      <trkpt lat="44.07853" lon="1.74421">
        <ele>213.6</ele>
        <time>2023-03-05T08:55:16Z</time>
      </trkpt>
      <trkpt lat="44.0785" lon="1.74424">
        <ele>213.8</ele>
        <time>2023-03-05T08:55:17Z</time>
      </trkpt>
      <trkpt lat="44.07846" lon="1.74427">
        <ele>213.8</ele>
        <time>2023-03-05T08:55:18Z</time>
      </trkpt>
      <trkpt lat="44.07844" lon="1.74431">
        <ele>214.2</ele>
        <time>2023-03-05T08:55:19Z</time>
      </trkpt>
      <trkpt lat="44.07841" lon="1.74435">
        <ele>214.4</ele>
        <time>2023-03-05T08:55:20Z</time>
      </trkpt>
      <trkpt lat="44.07838" lon="1.74438">
        <ele>214.6</ele>
        <time>2023-03-05T08:55:21Z</time>
      </trkpt>
      <trkpt lat="44.07835" lon="1.74442">
        <ele>214.8</ele>
        <time>2023-03-05T08:55:22Z</time>
      </trkpt>
      <trkpt lat="44.07832" lon="1.74446">
        <ele>215</ele>
        <time>2023-03-05T08:55:23Z</time>
      </trkpt>
      <trkpt lat="44.07829" lon="1.7445">
        <ele>215.2</ele>
        <time>2023-03-05T08:55:24Z</time>
      </trkpt>
      <trkpt lat="44.07825" lon="1.74453">
        <ele>215.4</ele>
        <time>2023-03-05T08:55:25Z</time>
      </trkpt>
      <trkpt lat="44.07821" lon="1.74456">
        <ele>215.8</ele>
        <time>2023-03-05T08:55:26Z</time>
      </trkpt>
      <trkpt lat="44.07817" lon="1.74459">
        <ele>215.8</ele>
        <time>2023-03-05T08:55:27Z</time>
      </trkpt>
      <trkpt lat="44.07813" lon="1.74461">
        <ele>216.2</ele>
        <time>2023-03-05T08:55:28Z</time>
      </trkpt>
      <trkpt lat="44.0781" lon="1.74463">
        <ele>216.2</ele>
        <time>2023-03-05T08:55:29Z</time>
      </trkpt>
      <trkpt lat="44.07806" lon="1.74465">
        <ele>216.4</ele>
        <time>2023-03-05T08:55:30Z</time>
      </trkpt>
      <trkpt lat="44.07802" lon="1.74467">
        <ele>216.4</ele>
        <time>2023-03-05T08:55:31Z</time>
      </trkpt>
      <trkpt lat="44.07799" lon="1.74468">
        <ele>216.8</ele>
        <time>2023-03-05T08:55:32Z</time>
      </trkpt>
      <trkpt lat="44.07795" lon="1.7447">
        <ele>216.8</ele>
        <time>2023-03-05T08:55:33Z</time>
      </trkpt>
      <trkpt lat="44.07791" lon="1.74472">
        <ele>217.4</ele>
        <time>2023-03-05T08:55:34Z</time>
      </trkpt>
      <trkpt lat="44.07787" lon="1.74473">
        <ele>217.6</ele>
        <time>2023-03-05T08:55:35Z</time>
      </trkpt>
      <trkpt lat="44.07783" lon="1.74474">
        <ele>217.8</ele>
        <time>2023-03-05T08:55:36Z</time>
      </trkpt>
      <trkpt lat="44.0778" lon="1.74476">
        <ele>218.2</ele>
        <time>2023-03-05T08:55:37Z</time>
      </trkpt>
      <trkpt lat="44.07776" lon="1.74477">
        <ele>218.4</ele>
        <time>2023-03-05T08:55:38Z</time>
      </trkpt>
      <trkpt lat="44.07772" lon="1.74479">
        <ele>218.8</ele>
        <time>2023-03-05T08:55:39Z</time>
      </trkpt>
      <trkpt lat="44.07768" lon="1.7448">
        <ele>218.8</ele>
        <time>2023-03-05T08:55:40Z</time>
      </trkpt>
      <trkpt lat="44.07764" lon="1.74481">
        <ele>219</ele>
        <time>2023-03-05T08:55:41Z</time>
      </trkpt>
      <trkpt lat="44.0776" lon="1.74482">
        <ele>219.4</ele>
        <time>2023-03-05T08:55:42Z</time>
      </trkpt>
      <trkpt lat="44.07755" lon="1.74484">
        <ele>219.4</ele>
        <time>2023-03-05T08:55:43Z</time>
      </trkpt>
      <trkpt lat="44.07751" lon="1.74485">
        <ele>219.4</ele>
        <time>2023-03-05T08:55:44Z</time>
      </trkpt>
      <trkpt lat="44.07747" lon="1.74486">
        <ele>219.6</ele>
        <time>2023-03-05T08:55:45Z</time>
      </trkpt>
      <trkpt lat="44.07743" lon="1.74488">
        <ele>219.8</ele>
        <time>2023-03-05T08:55:46Z</time>
      </trkpt>
      <trkpt lat="44.0774" lon="1.74489">
        <ele>219.8</ele>
        <time>2023-03-05T08:55:47Z</time>
      </trkpt>
      <trkpt lat="44.07736" lon="1.7449">
        <ele>220</ele>
        <time>2023-03-05T08:55:48Z</time>
      </trkpt>
      <trkpt lat="44.07732" lon="1.74491">
        <ele>220.4</ele>
        <time>2023-03-05T08:55:49Z</time>
      </trkpt>
      <trkpt lat="44.07728" lon="1.74492">
        <ele>220.6</ele>
        <time>2023-03-05T08:55:50Z</time>
      </trkpt>
      <trkpt lat="44.07724" lon="1.74492">
        <ele>220.8</ele>
        <time>2023-03-05T08:55:51Z</time>
      </trkpt>
      <trkpt lat="44.0772" lon="1.74493">
        <ele>221</ele>
        <time>2023-03-05T08:55:52Z</time>
      </trkpt>
      <trkpt lat="44.07716" lon="1.74493">
        <ele>221.2</ele>
        <time>2023-03-05T08:55:53Z</time>
      </trkpt>
      <trkpt lat="44.07712" lon="1.74494">
        <ele>221.2</ele>
        <time>2023-03-05T08:55:54Z</time>
      </trkpt>
      <trkpt lat="44.07708" lon="1.74494">
        <ele>221.2</ele>
        <time>2023-03-05T08:55:55Z</time>
      </trkpt>
      <trkpt lat="44.07703" lon="1.74494">
        <ele>221.6</ele>
        <time>2023-03-05T08:55:56Z</time>
      </trkpt>
      <trkpt lat="44.07699" lon="1.74494">
        <ele>221.8</ele>
        <time>2023-03-05T08:55:57Z</time>
      </trkpt>
      <trkpt lat="44.07695" lon="1.74493">
        <ele>222</ele>
        <time>2023-03-05T08:55:58Z</time>
      </trkpt>
      <trkpt lat="44.07691" lon="1.74493">
        <ele>222</ele>
        <time>2023-03-05T08:55:59Z</time>
      </trkpt>
      <trkpt lat="44.07687" lon="1.74494">
        <ele>222.2</ele>
        <time>2023-03-05T08:56:00Z</time>
      </trkpt>
      <trkpt lat="44.07682" lon="1.74494">
        <ele>222.4</ele>
        <time>2023-03-05T08:56:01Z</time>
      </trkpt>
      <trkpt lat="44.07678" lon="1.74495">
        <ele>222.8</ele>
        <time>2023-03-05T08:56:02Z</time>
      </trkpt>
      <trkpt lat="44.07673" lon="1.74496">
        <ele>222.8</ele>
        <time>2023-03-05T08:56:03Z</time>
      </trkpt>
      <trkpt lat="44.07669" lon="1.74498">
        <ele>223.2</ele>
        <time>2023-03-05T08:56:04Z</time>
      </trkpt>
      <trkpt lat="44.07665" lon="1.74499">
        <ele>223.2</ele>
        <time>2023-03-05T08:56:05Z</time>
      </trkpt>
      <trkpt lat="44.07662" lon="1.74499">
        <ele>223.2</ele>
        <time>2023-03-05T08:56:06Z</time>
      </trkpt>
      <trkpt lat="44.07659" lon="1.74498">
        <ele>223.4</ele>
        <time>2023-03-05T08:56:07Z</time>
      </trkpt>
      <trkpt lat="44.07657" lon="1.74495">
        <ele>223.4</ele>
        <time>2023-03-05T08:56:08Z</time>
      </trkpt>
      <trkpt lat="44.07655" lon="1.74492">
        <ele>223.2</ele>
        <time>2023-03-05T08:56:09Z</time>
      </trkpt>
      <trkpt lat="44.07653" lon="1.74489">
        <ele>223.2</ele>
        <time>2023-03-05T08:56:10Z</time>
      </trkpt>
      <trkpt lat="44.07649" lon="1.74487">
        <ele>223</ele>
        <time>2023-03-05T08:56:11Z</time>
      </trkpt>
      <trkpt lat="44.07644" lon="1.74488">
        <ele>223</ele>
        <time>2023-03-05T08:56:12Z</time>
      </trkpt>
      <trkpt lat="44.07638" lon="1.7449">
        <ele>222.8</ele>
        <time>2023-03-05T08:56:13Z</time>
      </trkpt>
      <trkpt lat="44.07632" lon="1.74493">
        <ele>222.6</ele>
        <time>2023-03-05T08:56:14Z</time>
      </trkpt>
      <trkpt lat="44.07627" lon="1.74496">
        <ele>222.2</ele>
        <time>2023-03-05T08:56:15Z</time>
      </trkpt>
      <trkpt lat="44.07623" lon="1.745">
        <ele>222</ele>
        <time>2023-03-05T08:56:16Z</time>
      </trkpt>
      <trkpt lat="44.07618" lon="1.74506">
        <ele>221.6</ele>
        <time>2023-03-05T08:56:17Z</time>
      </trkpt>
      <trkpt lat="44.07612" lon="1.74514">
        <ele>221.2</ele>
        <time>2023-03-05T08:56:18Z</time>
      </trkpt>
      <trkpt lat="44.07607" lon="1.74522">
        <ele>219.6</ele>
        <time>2023-03-05T08:56:19Z</time>
      </trkpt>
      <trkpt lat="44.07602" lon="1.7453">
        <ele>218.4</ele>
        <time>2023-03-05T08:56:20Z</time>
      </trkpt>
      <trkpt lat="44.07598" lon="1.74538">
        <ele>217.8</ele>
        <time>2023-03-05T08:56:21Z</time>
      </trkpt>
      <trkpt lat="44.07594" lon="1.74545">
        <ele>216.6</ele>
        <time>2023-03-05T08:56:22Z</time>
      </trkpt>
      <trkpt lat="44.07589" lon="1.7455">
        <ele>215.4</ele>
        <time>2023-03-05T08:56:23Z</time>
      </trkpt>
      <trkpt lat="44.07585" lon="1.74555">
        <ele>213.8</ele>
        <time>2023-03-05T08:56:24Z</time>
      </trkpt>
      <trkpt lat="44.07582" lon="1.7456">
        <ele>213.2</ele>
        <time>2023-03-05T08:56:25Z</time>
      </trkpt>
      <trkpt lat="44.0758" lon="1.74566">
        <ele>212</ele>
        <time>2023-03-05T08:56:26Z</time>
      </trkpt>
      <trkpt lat="44.07578" lon="1.74572">
        <ele>211.8</ele>
        <time>2023-03-05T08:56:27Z</time>
      </trkpt>
      <trkpt lat="44.07575" lon="1.74578">
        <ele>211.4</ele>
        <time>2023-03-05T08:56:28Z</time>
      </trkpt>
      <trkpt lat="44.07573" lon="1.74584">
        <ele>211.2</ele>
        <time>2023-03-05T08:56:29Z</time>
      </trkpt>
      <trkpt lat="44.07571" lon="1.74589">
        <ele>210.2</ele>
        <time>2023-03-05T08:56:30Z</time>
      </trkpt>
      <trkpt lat="44.07569" lon="1.74595">
        <ele>209</ele>
        <time>2023-03-05T08:56:31Z</time>
      </trkpt>
      <trkpt lat="44.07566" lon="1.74601">
        <ele>207.2</ele>
        <time>2023-03-05T08:56:32Z</time>
      </trkpt>
      <trkpt lat="44.07563" lon="1.74608">
        <ele>206</ele>
        <time>2023-03-05T08:56:33Z</time>
      </trkpt>
      <trkpt lat="44.07561" lon="1.74615">
        <ele>204.8</ele>
        <time>2023-03-05T08:56:34Z</time>
      </trkpt>
      <trkpt lat="44.07558" lon="1.74622">
        <ele>203.4</ele>
        <time>2023-03-05T08:56:35Z</time>
      </trkpt>
      <trkpt lat="44.07556" lon="1.74628">
        <ele>202.8</ele>
        <time>2023-03-05T08:56:36Z</time>
      </trkpt>
      <trkpt lat="44.07553" lon="1.74634">
        <ele>201.6</ele>
        <time>2023-03-05T08:56:37Z</time>
      </trkpt>
      <trkpt lat="44.0755" lon="1.7464">
        <ele>201.2</ele>
        <time>2023-03-05T08:56:38Z</time>
      </trkpt>
      <trkpt lat="44.07546" lon="1.74646">
        <ele>200</ele>
        <time>2023-03-05T08:56:39Z</time>
      </trkpt>
      <trkpt lat="44.07543" lon="1.74653">
        <ele>199.4</ele>
        <time>2023-03-05T08:56:40Z</time>
      </trkpt>
      <trkpt lat="44.07539" lon="1.74659">
        <ele>198.4</ele>
        <time>2023-03-05T08:56:41Z</time>
      </trkpt>
      <trkpt lat="44.07536" lon="1.74666">
        <ele>197.8</ele>
        <time>2023-03-05T08:56:42Z</time>
      </trkpt>
      <trkpt lat="44.07533" lon="1.74673">
        <ele>197</ele>
        <time>2023-03-05T08:56:43Z</time>
      </trkpt>
      <trkpt lat="44.07531" lon="1.74679">
        <ele>196.8</ele>
        <time>2023-03-05T08:56:44Z</time>
      </trkpt>
      <trkpt lat="44.07528" lon="1.74684">
        <ele>196.2</ele>
        <time>2023-03-05T08:56:45Z</time>
      </trkpt>
      <trkpt lat="44.07524" lon="1.74689">
        <ele>196</ele>
        <time>2023-03-05T08:56:46Z</time>
      </trkpt>
      <trkpt lat="44.07519" lon="1.74693">
        <ele>195.6</ele>
        <time>2023-03-05T08:56:47Z</time>
      </trkpt>
      <trkpt lat="44.07514" lon="1.74696">
        <ele>195</ele>
        <time>2023-03-05T08:56:48Z</time>
      </trkpt>
      <trkpt lat="44.07509" lon="1.747">
        <ele>194</ele>
        <time>2023-03-05T08:56:49Z</time>
      </trkpt>
      <trkpt lat="44.07504" lon="1.74704">
        <ele>192.6</ele>
        <time>2023-03-05T08:56:50Z</time>
      </trkpt>
      <trkpt lat="44.07498" lon="1.74709">
        <ele>192.2</ele>
        <time>2023-03-05T08:56:51Z</time>
      </trkpt>
      <trkpt lat="44.07492" lon="1.74712">
        <ele>190.6</ele>
        <time>2023-03-05T08:56:52Z</time>
      </trkpt>
      <trkpt lat="44.07486" lon="1.74716">
        <ele>189.8</ele>
        <time>2023-03-05T08:56:53Z</time>
      </trkpt>
      <trkpt lat="44.0748" lon="1.7472">
        <ele>188.8</ele>
        <time>2023-03-05T08:56:54Z</time>
      </trkpt>
      <trkpt lat="44.07474" lon="1.74724">
        <ele>188.4</ele>
        <time>2023-03-05T08:56:55Z</time>
      </trkpt>
      <trkpt lat="44.07468" lon="1.74726">
        <ele>187</ele>
        <time>2023-03-05T08:56:56Z</time>
      </trkpt>
      <trkpt lat="44.07461" lon="1.74727">
        <ele>186.6</ele>
        <time>2023-03-05T08:56:57Z</time>
      </trkpt>
      <trkpt lat="44.07456" lon="1.74727">
        <ele>186</ele>
        <time>2023-03-05T08:56:58Z</time>
      </trkpt>
      <trkpt lat="44.07451" lon="1.74728">
        <ele>185.8</ele>
        <time>2023-03-05T08:56:59Z</time>
      </trkpt>
      <trkpt lat="44.07448" lon="1.74726">
        <ele>185.2</ele>
        <time>2023-03-05T08:57:00Z</time>
      </trkpt>
      <trkpt lat="44.07446" lon="1.74724">
        <ele>184.8</ele>
        <time>2023-03-05T08:57:01Z</time>
      </trkpt>
      <trkpt lat="44.07444" lon="1.74721">
        <ele>183.6</ele>
        <time>2023-03-05T08:57:02Z</time>
      </trkpt>
      <trkpt lat="44.07442" lon="1.7472">
        <ele>182.8</ele>
        <time>2023-03-05T08:57:03Z</time>
      </trkpt>
      <trkpt lat="44.07439" lon="1.74722">
        <ele>181.8</ele>
        <time>2023-03-05T08:57:04Z</time>
      </trkpt>
      <trkpt lat="44.07436" lon="1.74725">
        <ele>181.2</ele>
        <time>2023-03-05T08:57:05Z</time>
      </trkpt>
      <trkpt lat="44.07434" lon="1.74729">
        <ele>180.8</ele>
        <time>2023-03-05T08:57:06Z</time>
      </trkpt>
      <trkpt lat="44.07432" lon="1.74732">
        <ele>180.2</ele>
        <time>2023-03-05T08:57:07Z</time>
      </trkpt>
      <trkpt lat="44.0743" lon="1.74735">
        <ele>180</ele>
        <time>2023-03-05T08:57:08Z</time>
      </trkpt>
      <trkpt lat="44.07428" lon="1.74739">
        <ele>179.2</ele>
        <time>2023-03-05T08:57:09Z</time>
      </trkpt>
      <trkpt lat="44.07426" lon="1.74743">
        <ele>179</ele>
        <time>2023-03-05T08:57:10Z</time>
      </trkpt>
      <trkpt lat="44.07423" lon="1.74748">
        <ele>178.2</ele>
        <time>2023-03-05T08:57:11Z</time>
      </trkpt>
      <trkpt lat="44.0742" lon="1.74754">
        <ele>178</ele>
        <time>2023-03-05T08:57:12Z</time>
      </trkpt>
      <trkpt lat="44.07417" lon="1.7476">
        <ele>177.4</ele>
        <time>2023-03-05T08:57:13Z</time>
      </trkpt>
      <trkpt lat="44.07413" lon="1.74767">
        <ele>177.2</ele>
        <time>2023-03-05T08:57:14Z</time>
      </trkpt>
      <trkpt lat="44.07409" lon="1.74775">
        <ele>176.8</ele>
        <time>2023-03-05T08:57:15Z</time>
      </trkpt>
      <trkpt lat="44.07405" lon="1.74784">
        <ele>176.6</ele>
        <time>2023-03-05T08:57:16Z</time>
      </trkpt>
      <trkpt lat="44.07402" lon="1.74794">
        <ele>176.4</ele>
        <time>2023-03-05T08:57:17Z</time>
      </trkpt>
      <trkpt lat="44.07399" lon="1.74805">
        <ele>176.2</ele>
        <time>2023-03-05T08:57:18Z</time>
      </trkpt>
      <trkpt lat="44.07397" lon="1.74815">
        <ele>175.4</ele>
        <time>2023-03-05T08:57:19Z</time>
      </trkpt>
      <trkpt lat="44.07395" lon="1.74826">
        <ele>174.6</ele>
        <time>2023-03-05T08:57:20Z</time>
      </trkpt>
      <trkpt lat="44.07394" lon="1.74837">
        <ele>174.2</ele>
        <time>2023-03-05T08:57:21Z</time>
      </trkpt>
      <trkpt lat="44.07393" lon="1.74848">
        <ele>173.6</ele>
        <time>2023-03-05T08:57:22Z</time>
      </trkpt>
      <trkpt lat="44.07393" lon="1.74859">
        <ele>173.4</ele>
        <time>2023-03-05T08:57:23Z</time>
      </trkpt>
      <trkpt lat="44.07391" lon="1.74868">
        <ele>172.8</ele>
        <time>2023-03-05T08:57:24Z</time>
      </trkpt>
      <trkpt lat="44.07389" lon="1.74876">
        <ele>172.6</ele>
        <time>2023-03-05T08:57:25Z</time>
      </trkpt>
      <trkpt lat="44.07385" lon="1.7488">
        <ele>172.2</ele>
        <time>2023-03-05T08:57:26Z</time>
      </trkpt>
      <trkpt lat="44.07382" lon="1.7488">
        <ele>172.2</ele>
        <time>2023-03-05T08:57:27Z</time>
      </trkpt>
      <trkpt lat="44.07379" lon="1.74879">
        <ele>172.2</ele>
        <time>2023-03-05T08:57:28Z</time>
      </trkpt>
      <trkpt lat="44.07376" lon="1.74878">
        <ele>172.2</ele>
        <time>2023-03-05T08:57:29Z</time>
      </trkpt>
      <trkpt lat="44.07373" lon="1.74876">
        <ele>172</ele>
        <time>2023-03-05T08:57:30Z</time>
      </trkpt>
      <trkpt lat="44.07371" lon="1.74874">
        <ele>172</ele>
        <time>2023-03-05T08:57:31Z</time>
      </trkpt>
      <trkpt lat="44.07368" lon="1.74873">
        <ele>172</ele>
        <time>2023-03-05T08:57:32Z</time>
      </trkpt>
      <trkpt lat="44.07365" lon="1.74872">
        <ele>172</ele>
        <time>2023-03-05T08:57:33Z</time>
      </trkpt>
      <trkpt lat="44.07362" lon="1.74871">
        <ele>172.4</ele>
        <time>2023-03-05T08:57:34Z</time>
      </trkpt>
      <trkpt lat="44.07359" lon="1.7487">
        <ele>172.8</ele>
        <time>2023-03-05T08:57:35Z</time>
      </trkpt>
      <trkpt lat="44.07356" lon="1.7487">
        <ele>173</ele>
        <time>2023-03-05T08:57:36Z</time>
      </trkpt>
      <trkpt lat="44.07353" lon="1.74871">
        <ele>173.8</ele>
        <time>2023-03-05T08:57:37Z</time>
      </trkpt>
      <trkpt lat="44.07351" lon="1.74873">
        <ele>174.2</ele>
        <time>2023-03-05T08:57:38Z</time>
      </trkpt>
      <trkpt lat="44.07348" lon="1.74874">
        <ele>174.4</ele>
        <time>2023-03-05T08:57:39Z</time>
      </trkpt>
      <trkpt lat="44.07345" lon="1.74876">
        <ele>174.8</ele>
        <time>2023-03-05T08:57:40Z</time>
      </trkpt>
      <trkpt lat="44.07342" lon="1.74878">
        <ele>175.4</ele>
        <time>2023-03-05T08:57:41Z</time>
      </trkpt>
      <trkpt lat="44.0734" lon="1.7488">
        <ele>175.6</ele>
        <time>2023-03-05T08:57:42Z</time>
      </trkpt>
      <trkpt lat="44.07338" lon="1.74882">
        <ele>176.2</ele>
        <time>2023-03-05T08:57:43Z</time>
      </trkpt>
      <trkpt lat="44.07336" lon="1.74884">
        <ele>176.4</ele>
        <time>2023-03-05T08:57:44Z</time>
      </trkpt>
      <trkpt lat="44.07334" lon="1.74886">
        <ele>177</ele>
        <time>2023-03-05T08:57:45Z</time>
      </trkpt>
      <trkpt lat="44.07332" lon="1.74888">
        <ele>177.2</ele>
        <time>2023-03-05T08:57:46Z</time>
      </trkpt>
      <trkpt lat="44.07329" lon="1.7489">
        <ele>177.6</ele>
        <time>2023-03-05T08:57:47Z</time>
      </trkpt>
      <trkpt lat="44.07327" lon="1.74892">
        <ele>177.8</ele>
        <time>2023-03-05T08:57:48Z</time>
      </trkpt>
      <trkpt lat="44.07324" lon="1.74895">
        <ele>178.2</ele>
        <time>2023-03-05T08:57:49Z</time>
      </trkpt>
      <trkpt lat="44.07322" lon="1.74897">
        <ele>178.6</ele>
        <time>2023-03-05T08:57:50Z</time>
      </trkpt>
      <trkpt lat="44.0732" lon="1.749">
        <ele>178.8</ele>
        <time>2023-03-05T08:57:51Z</time>
      </trkpt>
      <trkpt lat="44.07318" lon="1.74902">
        <ele>179.6</ele>
        <time>2023-03-05T08:57:52Z</time>
      </trkpt>
      <trkpt lat="44.07315" lon="1.74904">
        <ele>179.8</ele>
        <time>2023-03-05T08:57:53Z</time>
      </trkpt>
      <trkpt lat="44.07313" lon="1.74906">
        <ele>180.2</ele>
        <time>2023-03-05T08:57:54Z</time>
      </trkpt>
      <trkpt lat="44.07311" lon="1.74908">
        <ele>180.2</ele>
        <time>2023-03-05T08:57:55Z</time>
      </trkpt>
      <trkpt lat="44.07309" lon="1.74909">
        <ele>180.8</ele>
        <time>2023-03-05T08:57:56Z</time>
      </trkpt>
      <trkpt lat="44.07306" lon="1.7491">
        <ele>181</ele>
        <time>2023-03-05T08:57:57Z</time>
      </trkpt>
      <trkpt lat="44.07304" lon="1.74911">
        <ele>181.6</ele>
        <time>2023-03-05T08:57:58Z</time>
      </trkpt>
      <trkpt lat="44.07301" lon="1.74913">
        <ele>182</ele>
        <time>2023-03-05T08:57:59Z</time>
      </trkpt>
      <trkpt lat="44.07298" lon="1.74914">
        <ele>182.6</ele>
        <time>2023-03-05T08:58:00Z</time>
      </trkpt>
      <trkpt lat="44.07296" lon="1.74915">
        <ele>182.8</ele>
        <time>2023-03-05T08:58:01Z</time>
      </trkpt>
      <trkpt lat="44.07293" lon="1.74916">
        <ele>183.2</ele>
        <time>2023-03-05T08:58:02Z</time>
      </trkpt>
      <trkpt lat="44.07291" lon="1.74918">
        <ele>183.4</ele>
        <time>2023-03-05T08:58:03Z</time>
      </trkpt>
      <trkpt lat="44.07288" lon="1.74919">
        <ele>183.8</ele>
        <time>2023-03-05T08:58:04Z</time>
      </trkpt>
      <trkpt lat="44.07286" lon="1.7492">
        <ele>184.4</ele>
        <time>2023-03-05T08:58:05Z</time>
      </trkpt>
      <trkpt lat="44.07284" lon="1.74921">
        <ele>184.6</ele>
        <time>2023-03-05T08:58:06Z</time>
      </trkpt>
      <trkpt lat="44.07281" lon="1.74923">
        <ele>185</ele>
        <time>2023-03-05T08:58:07Z</time>
      </trkpt>
      <trkpt lat="44.07279" lon="1.74924">
        <ele>185.2</ele>
        <time>2023-03-05T08:58:08Z</time>
      </trkpt>
      <trkpt lat="44.07276" lon="1.74926">
        <ele>185.8</ele>
        <time>2023-03-05T08:58:09Z</time>
      </trkpt>
      <trkpt lat="44.07274" lon="1.74927">
        <ele>186</ele>
        <time>2023-03-05T08:58:10Z</time>
      </trkpt>
      <trkpt lat="44.07272" lon="1.74929">
        <ele>186.2</ele>
        <time>2023-03-05T08:58:11Z</time>
      </trkpt>
      <trkpt lat="44.0727" lon="1.7493">
        <ele>186.4</ele>
        <time>2023-03-05T08:58:12Z</time>
      </trkpt>
      <trkpt lat="44.07267" lon="1.74932">
        <ele>187</ele>
        <time>2023-03-05T08:58:13Z</time>
      </trkpt>
      <trkpt lat="44.07265" lon="1.74933">
        <ele>187.2</ele>
        <time>2023-03-05T08:58:14Z</time>
      </trkpt>
      <trkpt lat="44.07263" lon="1.74935">
        <ele>187.6</ele>
        <time>2023-03-05T08:58:15Z</time>
      </trkpt>
      <trkpt lat="44.0726" lon="1.74936">
        <ele>187.8</ele>
        <time>2023-03-05T08:58:16Z</time>
      </trkpt>
      <trkpt lat="44.07258" lon="1.74938">
        <ele>188.2</ele>
        <time>2023-03-05T08:58:17Z</time>
      </trkpt>
      <trkpt lat="44.07256" lon="1.74938">
        <ele>188.4</ele>
        <time>2023-03-05T08:58:18Z</time>
      </trkpt>
      <trkpt lat="44.07253" lon="1.7494">
        <ele>188.8</ele>
        <time>2023-03-05T08:58:19Z</time>
      </trkpt>
      <trkpt lat="44.07251" lon="1.74943">
        <ele>189</ele>
        <time>2023-03-05T08:58:20Z</time>
      </trkpt>
      <trkpt lat="44.07249" lon="1.74945">
        <ele>189.2</ele>
        <time>2023-03-05T08:58:21Z</time>
      </trkpt>
      <trkpt lat="44.07247" lon="1.74948">
        <ele>189.8</ele>
        <time>2023-03-05T08:58:22Z</time>
      </trkpt>
      <trkpt lat="44.07245" lon="1.7495">
        <ele>190</ele>
        <time>2023-03-05T08:58:23Z</time>
      </trkpt>
      <trkpt lat="44.07242" lon="1.74952">
        <ele>190.4</ele>
        <time>2023-03-05T08:58:24Z</time>
      </trkpt>
      <trkpt lat="44.0724" lon="1.74953">
        <ele>190.6</ele>
        <time>2023-03-05T08:58:25Z</time>
      </trkpt>
      <trkpt lat="44.07238" lon="1.74955">
        <ele>191</ele>
        <time>2023-03-05T08:58:26Z</time>
      </trkpt>
      <trkpt lat="44.07236" lon="1.74958">
        <ele>191.2</ele>
        <time>2023-03-05T08:58:27Z</time>
      </trkpt>
      <trkpt lat="44.07234" lon="1.74961">
        <ele>191.6</ele>
        <time>2023-03-05T08:58:28Z</time>
      </trkpt>
      <trkpt lat="44.07232" lon="1.74963">
        <ele>191.8</ele>
        <time>2023-03-05T08:58:29Z</time>
      </trkpt>
      <trkpt lat="44.0723" lon="1.74965">
        <ele>192.2</ele>
        <time>2023-03-05T08:58:30Z</time>
      </trkpt>
      <trkpt lat="44.07228" lon="1.74967">
        <ele>192.4</ele>
        <time>2023-03-05T08:58:31Z</time>
      </trkpt>
      <trkpt lat="44.07226" lon="1.74969">
        <ele>192.8</ele>
        <time>2023-03-05T08:58:32Z</time>
      </trkpt>
      <trkpt lat="44.07224" lon="1.74971">
        <ele>193</ele>
        <time>2023-03-05T08:58:33Z</time>
      </trkpt>
      <trkpt lat="44.07222" lon="1.74973">
        <ele>193.2</ele>
        <time>2023-03-05T08:58:34Z</time>
      </trkpt>
      <trkpt lat="44.0722" lon="1.74975">
        <ele>193.4</ele>
        <time>2023-03-05T08:58:35Z</time>
      </trkpt>
      <trkpt lat="44.07218" lon="1.74978">
        <ele>193.6</ele>
        <time>2023-03-05T08:58:36Z</time>
      </trkpt>
      <trkpt lat="44.07216" lon="1.7498">
        <ele>194.2</ele>
        <time>2023-03-05T08:58:37Z</time>
      </trkpt>
      <trkpt lat="44.07214" lon="1.74982">
        <ele>194</ele>
        <time>2023-03-05T08:58:38Z</time>
      </trkpt>
      <trkpt lat="44.07212" lon="1.74984">
        <ele>194.6</ele>
        <time>2023-03-05T08:58:39Z</time>
      </trkpt>
      <trkpt lat="44.0721" lon="1.74986">
        <ele>194.8</ele>
        <time>2023-03-05T08:58:40Z</time>
      </trkpt>
      <trkpt lat="44.07209" lon="1.74988">
        <ele>195.2</ele>
        <time>2023-03-05T08:58:41Z</time>
      </trkpt>
      <trkpt lat="44.07207" lon="1.74991">
        <ele>195.2</ele>
        <time>2023-03-05T08:58:42Z</time>
      </trkpt>
      <trkpt lat="44.07206" lon="1.74993">
        <ele>195.8</ele>
        <time>2023-03-05T08:58:43Z</time>
      </trkpt>
      <trkpt lat="44.07204" lon="1.74995">
        <ele>196</ele>
        <time>2023-03-05T08:58:44Z</time>
      </trkpt>
      <trkpt lat="44.07203" lon="1.74996">
        <ele>196.4</ele>
        <time>2023-03-05T08:58:45Z</time>
      </trkpt>
      <trkpt lat="44.07201" lon="1.74998">
        <ele>196.6</ele>
        <time>2023-03-05T08:58:46Z</time>
      </trkpt>
      <trkpt lat="44.07199" lon="1.75">
        <ele>196.8</ele>
        <time>2023-03-05T08:58:47Z</time>
      </trkpt>
      <trkpt lat="44.07197" lon="1.75002">
        <ele>197</ele>
        <time>2023-03-05T08:58:48Z</time>
      </trkpt>
      <trkpt lat="44.07196" lon="1.75004">
        <ele>197.4</ele>
        <time>2023-03-05T08:58:49Z</time>
      </trkpt>
      <trkpt lat="44.07195" lon="1.75006">
        <ele>197.6</ele>
        <time>2023-03-05T08:58:50Z</time>
      </trkpt>
      <trkpt lat="44.07193" lon="1.75008">
        <ele>198</ele>
        <time>2023-03-05T08:58:51Z</time>
      </trkpt>
      <trkpt lat="44.07191" lon="1.7501">
        <ele>198.6</ele>
        <time>2023-03-05T08:58:52Z</time>
      </trkpt>
      <trkpt lat="44.07189" lon="1.75011">
        <ele>198.8</ele>
        <time>2023-03-05T08:58:53Z</time>
      </trkpt>
      <trkpt lat="44.07186" lon="1.75013">
        <ele>199.2</ele>
        <time>2023-03-05T08:58:54Z</time>
      </trkpt>
      <trkpt lat="44.07184" lon="1.75015">
        <ele>199.2</ele>
        <time>2023-03-05T08:58:55Z</time>
      </trkpt>
      <trkpt lat="44.07182" lon="1.75017">
        <ele>199.6</ele>
        <time>2023-03-05T08:58:56Z</time>
      </trkpt>
      <trkpt lat="44.0718" lon="1.75019">
        <ele>199.8</ele>
        <time>2023-03-05T08:58:57Z</time>
      </trkpt>
      <trkpt lat="44.07179" lon="1.75022">
        <ele>200</ele>
        <time>2023-03-05T08:58:58Z</time>
      </trkpt>
      <trkpt lat="44.07177" lon="1.75024">
        <ele>200.2</ele>
        <time>2023-03-05T08:58:59Z</time>
      </trkpt>
      <trkpt lat="44.07175" lon="1.75028">
        <ele>200.6</ele>
        <time>2023-03-05T08:59:00Z</time>
      </trkpt>
      <trkpt lat="44.07174" lon="1.75031">
        <ele>201</ele>
        <time>2023-03-05T08:59:01Z</time>
      </trkpt>
      <trkpt lat="44.07172" lon="1.75032">
        <ele>201.4</ele>
        <time>2023-03-05T08:59:02Z</time>
      </trkpt>
      <trkpt lat="44.07171" lon="1.75034">
        <ele>201.6</ele>
        <time>2023-03-05T08:59:03Z</time>
      </trkpt>
      <trkpt lat="44.07169" lon="1.75036">
        <ele>201.8</ele>
        <time>2023-03-05T08:59:04Z</time>
      </trkpt>
      <trkpt lat="44.07167" lon="1.75039">
        <ele>202</ele>
        <time>2023-03-05T08:59:05Z</time>
      </trkpt>
      <trkpt lat="44.07166" lon="1.75043">
        <ele>202.4</ele>
        <time>2023-03-05T08:59:06Z</time>
      </trkpt>
      <trkpt lat="44.07165" lon="1.75045">
        <ele>202.6</ele>
        <time>2023-03-05T08:59:07Z</time>
      </trkpt>
      <trkpt lat="44.07164" lon="1.75047">
        <ele>202.8</ele>
        <time>2023-03-05T08:59:08Z</time>
      </trkpt>
      <trkpt lat="44.07163" lon="1.75049">
        <ele>203.2</ele>
        <time>2023-03-05T08:59:09Z</time>
      </trkpt>
      <trkpt lat="44.07162" lon="1.75051">
        <ele>203.4</ele>
        <time>2023-03-05T08:59:10Z</time>
      </trkpt>
      <trkpt lat="44.07159" lon="1.75053">
        <ele>203.8</ele>
        <time>2023-03-05T08:59:11Z</time>
      </trkpt>
      <trkpt lat="44.07158" lon="1.75057">
        <ele>204</ele>
        <time>2023-03-05T08:59:12Z</time>
      </trkpt>
      <trkpt lat="44.07157" lon="1.75059">
        <ele>204.2</ele>
        <time>2023-03-05T08:59:13Z</time>
      </trkpt>
      <trkpt lat="44.07156" lon="1.7506">
        <ele>204.4</ele>
        <time>2023-03-05T08:59:14Z</time>
      </trkpt>
      <trkpt lat="44.07155" lon="1.75062">
        <ele>204.8</ele>
        <time>2023-03-05T08:59:15Z</time>
      </trkpt>
      <trkpt lat="44.07154" lon="1.75063">
        <ele>205</ele>
        <time>2023-03-05T08:59:16Z</time>
      </trkpt>
      <trkpt lat="44.07152" lon="1.75065">
        <ele>205.4</ele>
        <time>2023-03-05T08:59:17Z</time>
      </trkpt>
      <trkpt lat="44.0715" lon="1.75067">
        <ele>205.6</ele>
        <time>2023-03-05T08:59:18Z</time>
      </trkpt>
      <trkpt lat="44.07148" lon="1.75068">
        <ele>206</ele>
        <time>2023-03-05T08:59:19Z</time>
      </trkpt>
      <trkpt lat="44.07147" lon="1.7507">
        <ele>206.2</ele>
        <time>2023-03-05T08:59:20Z</time>
      </trkpt>
      <trkpt lat="44.07145" lon="1.75071">
        <ele>206.6</ele>
        <time>2023-03-05T08:59:21Z</time>
      </trkpt>
      <trkpt lat="44.07143" lon="1.75073">
        <ele>206.8</ele>
        <time>2023-03-05T08:59:22Z</time>
      </trkpt>
      <trkpt lat="44.07141" lon="1.75075">
        <ele>207</ele>
        <time>2023-03-05T08:59:23Z</time>
      </trkpt>
      <trkpt lat="44.0714" lon="1.75077">
        <ele>207.6</ele>
        <time>2023-03-05T08:59:24Z</time>
      </trkpt>
      <trkpt lat="44.07138" lon="1.75079">
        <ele>207.8</ele>
        <time>2023-03-05T08:59:25Z</time>
      </trkpt>
      <trkpt lat="44.07136" lon="1.75081">
        <ele>208.2</ele>
        <time>2023-03-05T08:59:26Z</time>
      </trkpt>
      <trkpt lat="44.07134" lon="1.75083">
        <ele>208.4</ele>
        <time>2023-03-05T08:59:27Z</time>
      </trkpt>
      <trkpt lat="44.07132" lon="1.75085">
        <ele>208.8</ele>
        <time>2023-03-05T08:59:28Z</time>
      </trkpt>
      <trkpt lat="44.0713" lon="1.75087">
        <ele>208.8</ele>
        <time>2023-03-05T08:59:29Z</time>
      </trkpt>
      <trkpt lat="44.07128" lon="1.75088">
        <ele>209.2</ele>
        <time>2023-03-05T08:59:30Z</time>
      </trkpt>
      <trkpt lat="44.07127" lon="1.7509">
        <ele>209.4</ele>
        <time>2023-03-05T08:59:31Z</time>
      </trkpt>
      <trkpt lat="44.07125" lon="1.75092">
        <ele>209.8</ele>
        <time>2023-03-05T08:59:32Z</time>
      </trkpt>
      <trkpt lat="44.07123" lon="1.75095">
        <ele>210</ele>
        <time>2023-03-05T08:59:33Z</time>
      </trkpt>
      <trkpt lat="44.0712" lon="1.75096">
        <ele>210.2</ele>
        <time>2023-03-05T08:59:34Z</time>
      </trkpt>
      <trkpt lat="44.07118" lon="1.75098">
        <ele>210.4</ele>
        <time>2023-03-05T08:59:35Z</time>
      </trkpt>
      <trkpt lat="44.07116" lon="1.75099">
        <ele>210.6</ele>
        <time>2023-03-05T08:59:36Z</time>
      </trkpt>
      <trkpt lat="44.07115" lon="1.75101">
        <ele>210.8</ele>
        <time>2023-03-05T08:59:37Z</time>
      </trkpt>
      <trkpt lat="44.07113" lon="1.75103">
        <ele>211.2</ele>
        <time>2023-03-05T08:59:38Z</time>
      </trkpt>
      <trkpt lat="44.07112" lon="1.75104">
        <ele>211.6</ele>
        <time>2023-03-05T08:59:39Z</time>
      </trkpt>
      <trkpt lat="44.0711" lon="1.75105">
        <ele>211.8</ele>
        <time>2023-03-05T08:59:40Z</time>
      </trkpt>
      <trkpt lat="44.07108" lon="1.75107">
        <ele>212</ele>
        <time>2023-03-05T08:59:41Z</time>
      </trkpt>
      <trkpt lat="44.07105" lon="1.75108">
        <ele>212.2</ele>
        <time>2023-03-05T08:59:42Z</time>
      </trkpt>
      <trkpt lat="44.07103" lon="1.7511">
        <ele>212.6</ele>
        <time>2023-03-05T08:59:43Z</time>
      </trkpt>
      <trkpt lat="44.07101" lon="1.75112">
        <ele>212.6</ele>
        <time>2023-03-05T08:59:44Z</time>
      </trkpt>
      <trkpt lat="44.07099" lon="1.75114">
        <ele>212.8</ele>
        <time>2023-03-05T08:59:45Z</time>
      </trkpt>
      <trkpt lat="44.07098" lon="1.75116">
        <ele>213.2</ele>
        <time>2023-03-05T08:59:46Z</time>
      </trkpt>
      <trkpt lat="44.07098" lon="1.75118">
        <ele>213.4</ele>
        <time>2023-03-05T08:59:47Z</time>
      </trkpt>
      <trkpt lat="44.07098" lon="1.7512">
        <ele>213.8</ele>
        <time>2023-03-05T08:59:48Z</time>
      </trkpt>
      <trkpt lat="44.071" lon="1.75121">
        <ele>214.4</ele>
        <time>2023-03-05T08:59:49Z</time>
      </trkpt>
      <trkpt lat="44.07101" lon="1.75122">
        <ele>214.2</ele>
        <time>2023-03-05T08:59:50Z</time>
      </trkpt>
      <trkpt lat="44.07103" lon="1.75123">
        <ele>214.8</ele>
        <time>2023-03-05T08:59:51Z</time>
      </trkpt>
      <trkpt lat="44.07105" lon="1.75123">
        <ele>215</ele>
        <time>2023-03-05T08:59:52Z</time>
      </trkpt>
      <trkpt lat="44.07107" lon="1.75122">
        <ele>215</ele>
        <time>2023-03-05T08:59:53Z</time>
      </trkpt>
      <trkpt lat="44.07109" lon="1.75122">
        <ele>215.2</ele>
        <time>2023-03-05T08:59:54Z</time>
      </trkpt>
      <trkpt lat="44.07111" lon="1.75122">
        <ele>215.4</ele>
        <time>2023-03-05T08:59:55Z</time>
      </trkpt>
      <trkpt lat="44.07113" lon="1.75121">
        <ele>215.8</ele>
        <time>2023-03-05T08:59:56Z</time>
      </trkpt>
      <trkpt lat="44.07115" lon="1.75121">
        <ele>215.8</ele>
        <time>2023-03-05T08:59:57Z</time>
      </trkpt>
      <trkpt lat="44.07117" lon="1.7512">
        <ele>216.2</ele>
        <time>2023-03-05T08:59:58Z</time>
      </trkpt>
      <trkpt lat="44.07119" lon="1.75119">
        <ele>216.2</ele>
        <time>2023-03-05T08:59:59Z</time>
      </trkpt>
      <trkpt lat="44.07122" lon="1.75118">
        <ele>216.8</ele>
        <time>2023-03-05T09:00:00Z</time>
      </trkpt>
      <trkpt lat="44.07124" lon="1.75118">
        <ele>217</ele>
        <time>2023-03-05T09:00:01Z</time>
      </trkpt>
      <trkpt lat="44.07126" lon="1.75117">
        <ele>217.4</ele>
        <time>2023-03-05T09:00:02Z</time>
      </trkpt>
      <trkpt lat="44.07128" lon="1.75116">
        <ele>217.6</ele>
        <time>2023-03-05T09:00:03Z</time>
      </trkpt>
      <trkpt lat="44.0713" lon="1.75116">
        <ele>218</ele>
        <time>2023-03-05T09:00:04Z</time>
      </trkpt>
      <trkpt lat="44.07133" lon="1.75115">
        <ele>218.2</ele>
        <time>2023-03-05T09:00:05Z</time>
      </trkpt>
      <trkpt lat="44.07135" lon="1.75114">
        <ele>218.8</ele>
        <time>2023-03-05T09:00:06Z</time>
      </trkpt>
      <trkpt lat="44.07137" lon="1.75112">
        <ele>219</ele>
        <time>2023-03-05T09:00:07Z</time>
      </trkpt>
      <trkpt lat="44.07139" lon="1.75112">
        <ele>219.4</ele>
        <time>2023-03-05T09:00:08Z</time>
      </trkpt>
      <trkpt lat="44.07141" lon="1.75111">
        <ele>219.8</ele>
        <time>2023-03-05T09:00:09Z</time>
      </trkpt>
      <trkpt lat="44.07143" lon="1.7511">
        <ele>220.2</ele>
        <time>2023-03-05T09:00:10Z</time>
      </trkpt>
      <trkpt lat="44.07146" lon="1.75109">
        <ele>220.8</ele>
        <time>2023-03-05T09:00:11Z</time>
      </trkpt>
      <trkpt lat="44.07148" lon="1.75109">
        <ele>221</ele>
        <time>2023-03-05T09:00:12Z</time>
      </trkpt>
      <trkpt lat="44.0715" lon="1.75108">
        <ele>221.2</ele>
        <time>2023-03-05T09:00:13Z</time>
      </trkpt>
      <trkpt lat="44.07152" lon="1.75107">
        <ele>221.6</ele>
        <time>2023-03-05T09:00:14Z</time>
      </trkpt>
      <trkpt lat="44.07154" lon="1.75106">
        <ele>222</ele>
        <time>2023-03-05T09:00:15Z</time>
      </trkpt>
      <trkpt lat="44.07156" lon="1.75105">
        <ele>222.4</ele>
        <time>2023-03-05T09:00:16Z</time>
      </trkpt>
      <trkpt lat="44.07159" lon="1.75104">
        <ele>222.8</ele>
        <time>2023-03-05T09:00:17Z</time>
      </trkpt>
      <trkpt lat="44.07161" lon="1.75103">
        <ele>222.8</ele>
        <time>2023-03-05T09:00:18Z</time>
      </trkpt>
      <trkpt lat="44.07163" lon="1.75102">
        <ele>223.2</ele>
        <time>2023-03-05T09:00:19Z</time>
      </trkpt>
      <trkpt lat="44.07165" lon="1.75101">
        <ele>223.6</ele>
        <time>2023-03-05T09:00:20Z</time>
      </trkpt>
      <trkpt lat="44.07168" lon="1.751">
        <ele>224</ele>
        <time>2023-03-05T09:00:21Z</time>
      </trkpt>
      <trkpt lat="44.0717" lon="1.75099">
        <ele>224.2</ele>
        <time>2023-03-05T09:00:22Z</time>
      </trkpt>
      <trkpt lat="44.07172" lon="1.75098">
        <ele>224.6</ele>
        <time>2023-03-05T09:00:23Z</time>
      </trkpt>
      <trkpt lat="44.07174" lon="1.75097">
        <ele>225</ele>
        <time>2023-03-05T09:00:24Z</time>
      </trkpt>
      <trkpt lat="44.07176" lon="1.75096">
        <ele>225.4</ele>
        <time>2023-03-05T09:00:25Z</time>
      </trkpt>
      <trkpt lat="44.07178" lon="1.75095">
        <ele>225.6</ele>
        <time>2023-03-05T09:00:26Z</time>
      </trkpt>
      <trkpt lat="44.0718" lon="1.75094">
        <ele>225.6</ele>
        <time>2023-03-05T09:00:27Z</time>
      </trkpt>
      <trkpt lat="44.07182" lon="1.75093">
        <ele>226</ele>
        <time>2023-03-05T09:00:28Z</time>
      </trkpt>
      <trkpt lat="44.07184" lon="1.75092">
        <ele>226.4</ele>
        <time>2023-03-05T09:00:29Z</time>
      </trkpt>
      <trkpt lat="44.07186" lon="1.75091">
        <ele>226.8</ele>
        <time>2023-03-05T09:00:30Z</time>
      </trkpt>
      <trkpt lat="44.07188" lon="1.7509">
        <ele>227</ele>
        <time>2023-03-05T09:00:31Z</time>
      </trkpt>
      <trkpt lat="44.0719" lon="1.75089">
        <ele>227.2</ele>
        <time>2023-03-05T09:00:32Z</time>
      </trkpt>
      <trkpt lat="44.07192" lon="1.75088">
        <ele>227.4</ele>
        <time>2023-03-05T09:00:33Z</time>
      </trkpt>
      <trkpt lat="44.07194" lon="1.75087">
        <ele>227.6</ele>
        <time>2023-03-05T09:00:34Z</time>
      </trkpt>
      <trkpt lat="44.07196" lon="1.75087">
        <ele>227.8</ele>
        <time>2023-03-05T09:00:35Z</time>
      </trkpt>
      <trkpt lat="44.07198" lon="1.75086">
        <ele>228.2</ele>
        <time>2023-03-05T09:00:36Z</time>
      </trkpt>
      <trkpt lat="44.07199" lon="1.75085">
        <ele>228.2</ele>
        <time>2023-03-05T09:00:37Z</time>
      </trkpt>
      <trkpt lat="44.07201" lon="1.75085">
        <ele>228.8</ele>
        <time>2023-03-05T09:00:38Z</time>
      </trkpt>
      <trkpt lat="44.07203" lon="1.75085">
        <ele>229</ele>
        <time>2023-03-05T09:00:39Z</time>
      </trkpt>
      <trkpt lat="44.07205" lon="1.75085">
        <ele>229.4</ele>
        <time>2023-03-05T09:00:40Z</time>
      </trkpt>
      <trkpt lat="44.07207" lon="1.75084">
        <ele>229.8</ele>
        <time>2023-03-05T09:00:41Z</time>
      </trkpt>
      <trkpt lat="44.07209" lon="1.75084">
        <ele>230.2</ele>
        <time>2023-03-05T09:00:42Z</time>
      </trkpt>
      <trkpt lat="44.07211" lon="1.75084">
        <ele>230.8</ele>
        <time>2023-03-05T09:00:43Z</time>
      </trkpt>
      <trkpt lat="44.07213" lon="1.75083">
        <ele>231</ele>
        <time>2023-03-05T09:00:44Z</time>
      </trkpt>
      <trkpt lat="44.07215" lon="1.75083">
        <ele>231.4</ele>
        <time>2023-03-05T09:00:45Z</time>
      </trkpt>
      <trkpt lat="44.07217" lon="1.75082">
        <ele>231.6</ele>
        <time>2023-03-05T09:00:46Z</time>
      </trkpt>
      <trkpt lat="44.07219" lon="1.75082">
        <ele>231.8</ele>
        <time>2023-03-05T09:00:47Z</time>
      </trkpt>
      <trkpt lat="44.07221" lon="1.75082">
        <ele>232</ele>
        <time>2023-03-05T09:00:48Z</time>
      </trkpt>
      <trkpt lat="44.07223" lon="1.75082">
        <ele>232.4</ele>
        <time>2023-03-05T09:00:49Z</time>
      </trkpt>
      <trkpt lat="44.07225" lon="1.75081">
        <ele>232.6</ele>
        <time>2023-03-05T09:00:50Z</time>
      </trkpt>
      <trkpt lat="44.07227" lon="1.75081">
        <ele>233.2</ele>
        <time>2023-03-05T09:00:51Z</time>
      </trkpt>
      <trkpt lat="44.07229" lon="1.7508">
        <ele>233.2</ele>
        <time>2023-03-05T09:00:52Z</time>
      </trkpt>
      <trkpt lat="44.07231" lon="1.7508">
        <ele>233.8</ele>
        <time>2023-03-05T09:00:53Z</time>
      </trkpt>
      <trkpt lat="44.07233" lon="1.7508">
        <ele>234</ele>
        <time>2023-03-05T09:00:54Z</time>
      </trkpt>
      <trkpt lat="44.07236" lon="1.75079">
        <ele>234.4</ele>
        <time>2023-03-05T09:00:55Z</time>
      </trkpt>
      <trkpt lat="44.07238" lon="1.75079">
        <ele>234.6</ele>
        <time>2023-03-05T09:00:56Z</time>
      </trkpt>
      <trkpt lat="44.07241" lon="1.75078">
        <ele>235</ele>
        <time>2023-03-05T09:00:57Z</time>
      </trkpt>
      <trkpt lat="44.07243" lon="1.75078">
        <ele>235.4</ele>
        <time>2023-03-05T09:00:58Z</time>
      </trkpt>
      <trkpt lat="44.07245" lon="1.75077">
        <ele>235.6</ele>
        <time>2023-03-05T09:00:59Z</time>
      </trkpt>
      <trkpt lat="44.07247" lon="1.75078">
        <ele>236</ele>
        <time>2023-03-05T09:01:00Z</time>
      </trkpt>
      <trkpt lat="44.0725" lon="1.75078">
        <ele>236.2</ele>
        <time>2023-03-05T09:01:01Z</time>
      </trkpt>
      <trkpt lat="44.07252" lon="1.75079">
        <ele>236.6</ele>
        <time>2023-03-05T09:01:02Z</time>
      </trkpt>
      <trkpt lat="44.07254" lon="1.75081">
        <ele>236.6</ele>
        <time>2023-03-05T09:01:03Z</time>
      </trkpt>
      <trkpt lat="44.07256" lon="1.75084">
        <ele>236.8</ele>
        <time>2023-03-05T09:01:04Z</time>
      </trkpt>
      <trkpt lat="44.07257" lon="1.75087">
        <ele>237</ele>
        <time>2023-03-05T09:01:05Z</time>
      </trkpt>
      <trkpt lat="44.07259" lon="1.7509">
        <ele>237.4</ele>
        <time>2023-03-05T09:01:06Z</time>
      </trkpt>
      <trkpt lat="44.0726" lon="1.75093">
        <ele>237.4</ele>
        <time>2023-03-05T09:01:07Z</time>
      </trkpt>
      <trkpt lat="44.07262" lon="1.75096">
        <ele>237.8</ele>
        <time>2023-03-05T09:01:08Z</time>
      </trkpt>
      <trkpt lat="44.07264" lon="1.75099">
        <ele>238</ele>
        <time>2023-03-05T09:01:09Z</time>
      </trkpt>
      <trkpt lat="44.07266" lon="1.75102">
        <ele>238.4</ele>
        <time>2023-03-05T09:01:10Z</time>
      </trkpt>
      <trkpt lat="44.07268" lon="1.75106">
        <ele>238.6</ele>
        <time>2023-03-05T09:01:11Z</time>
      </trkpt>
      <trkpt lat="44.0727" lon="1.75109">
        <ele>238.8</ele>
        <time>2023-03-05T09:01:12Z</time>
      </trkpt>
      <trkpt lat="44.07271" lon="1.75112">
        <ele>238.8</ele>
        <time>2023-03-05T09:01:13Z</time>
      </trkpt>
      <trkpt lat="44.07272" lon="1.75115">
        <ele>238.8</ele>
        <time>2023-03-05T09:01:14Z</time>
      </trkpt>
      <trkpt lat="44.07273" lon="1.7512">
        <ele>239</ele>
        <time>2023-03-05T09:01:15Z</time>
      </trkpt>
      <trkpt lat="44.07273" lon="1.75125">
        <ele>239.2</ele>
        <time>2023-03-05T09:01:16Z</time>
      </trkpt>
      <trkpt lat="44.07272" lon="1.75129">
        <ele>239.2</ele>
        <time>2023-03-05T09:01:17Z</time>
      </trkpt>
      <trkpt lat="44.07272" lon="1.7513">
        <ele>239.4</ele>
        <time>2023-03-05T09:01:18Z</time>
      </trkpt>
      <trkpt lat="44.07272" lon="1.75131">
        <ele>239.4</ele>
        <time>2023-03-05T09:01:19Z</time>
      </trkpt>
      <trkpt lat="44.07272" lon="1.75131">
        <ele>239.4</ele>
        <time>2023-03-05T09:01:20Z</time>
      </trkpt>
      <trkpt lat="44.07272" lon="1.75131">
        <ele>239.4</ele>
        <time>2023-03-05T09:01:21Z</time>
      </trkpt>
      <trkpt lat="44.07272" lon="1.7513">
        <ele>239.4</ele>
        <time>2023-03-05T09:01:22Z</time>
      </trkpt>
      <trkpt lat="44.07271" lon="1.75123">
        <ele>239.4</ele>
        <time>2023-03-05T09:01:25Z</time>
      </trkpt>
      <trkpt lat="44.07269" lon="1.7512">
        <ele>239.4</ele>
        <time>2023-03-05T09:01:26Z</time>
      </trkpt>
      <trkpt lat="44.07267" lon="1.75119">
        <ele>239.4</ele>
        <time>2023-03-05T09:01:27Z</time>
      </trkpt>
      <trkpt lat="44.07264" lon="1.75119">
        <ele>239.4</ele>
        <time>2023-03-05T09:01:28Z</time>
      </trkpt>
      <trkpt lat="44.07262" lon="1.7512">
        <ele>239.4</ele>
        <time>2023-03-05T09:01:29Z</time>
      </trkpt>
      <trkpt lat="44.07259" lon="1.75122">
        <ele>239.2</ele>
        <time>2023-03-05T09:01:30Z</time>
      </trkpt>
      <trkpt lat="44.07256" lon="1.75125">
        <ele>239.2</ele>
        <time>2023-03-05T09:01:31Z</time>
      </trkpt>
      <trkpt lat="44.07253" lon="1.75129">
        <ele>239</ele>
        <time>2023-03-05T09:01:32Z</time>
      </trkpt>
      <trkpt lat="44.0725" lon="1.75133">
        <ele>239</ele>
        <time>2023-03-05T09:01:33Z</time>
      </trkpt>
      <trkpt lat="44.07248" lon="1.75137">
        <ele>239</ele>
        <time>2023-03-05T09:01:34Z</time>
      </trkpt>
      <trkpt lat="44.07245" lon="1.75141">
        <ele>239</ele>
        <time>2023-03-05T09:01:35Z</time>
      </trkpt>
      <trkpt lat="44.07243" lon="1.75145">
        <ele>238.8</ele>
        <time>2023-03-05T09:01:36Z</time>
      </trkpt>
      <trkpt lat="44.0724" lon="1.7515">
        <ele>238.8</ele>
        <time>2023-03-05T09:01:37Z</time>
      </trkpt>
      <trkpt lat="44.07238" lon="1.75155">
        <ele>238.8</ele>
        <time>2023-03-05T09:01:38Z</time>
      </trkpt>
      <trkpt lat="44.07236" lon="1.7516">
        <ele>238.8</ele>
        <time>2023-03-05T09:01:39Z</time>
      </trkpt>
      <trkpt lat="44.07234" lon="1.75165">
        <ele>238.8</ele>
        <time>2023-03-05T09:01:40Z</time>
      </trkpt>
      <trkpt lat="44.07232" lon="1.7517">
        <ele>239</ele>
        <time>2023-03-05T09:01:41Z</time>
      </trkpt>
      <trkpt lat="44.07231" lon="1.75176">
        <ele>239</ele>
        <time>2023-03-05T09:01:42Z</time>
      </trkpt>
      <trkpt lat="44.07229" lon="1.75181">
        <ele>239</ele>
        <time>2023-03-05T09:01:43Z</time>
      </trkpt>
      <trkpt lat="44.07226" lon="1.75187">
        <ele>239</ele>
        <time>2023-03-05T09:01:44Z</time>
      </trkpt>
      <trkpt lat="44.07224" lon="1.75193">
        <ele>239</ele>
        <time>2023-03-05T09:01:45Z</time>
      </trkpt>
      <trkpt lat="44.07223" lon="1.75199">
        <ele>239</ele>
        <time>2023-03-05T09:01:46Z</time>
      </trkpt>
      <trkpt lat="44.07221" lon="1.75204">
        <ele>239</ele>
        <time>2023-03-05T09:01:47Z</time>
      </trkpt>
      <trkpt lat="44.07219" lon="1.75209">
        <ele>239</ele>
        <time>2023-03-05T09:01:48Z</time>
      </trkpt>
      <trkpt lat="44.07217" lon="1.75215">
        <ele>239</ele>
        <time>2023-03-05T09:01:49Z</time>
      </trkpt>
      <trkpt lat="44.07215" lon="1.75221">
        <ele>239</ele>
        <time>2023-03-05T09:01:50Z</time>
      </trkpt>
      <trkpt lat="44.07213" lon="1.75227">
        <ele>239</ele>
        <time>2023-03-05T09:01:51Z</time>
      </trkpt>
      <trkpt lat="44.07211" lon="1.75233">
        <ele>239</ele>
        <time>2023-03-05T09:01:52Z</time>
      </trkpt>
      <trkpt lat="44.07209" lon="1.75239">
        <ele>239</ele>
        <time>2023-03-05T09:01:53Z</time>
      </trkpt>
      <trkpt lat="44.07207" lon="1.75245">
        <ele>239</ele>
        <time>2023-03-05T09:01:54Z</time>
      </trkpt>
      <trkpt lat="44.07205" lon="1.7525">
        <ele>239</ele>
        <time>2023-03-05T09:01:55Z</time>
      </trkpt>
      <trkpt lat="44.07203" lon="1.75256">
        <ele>239</ele>
        <time>2023-03-05T09:01:56Z</time>
      </trkpt>
      <trkpt lat="44.07201" lon="1.75261">
        <ele>239</ele>
        <time>2023-03-05T09:01:57Z</time>
      </trkpt>
      <trkpt lat="44.07199" lon="1.75267">
        <ele>239</ele>
        <time>2023-03-05T09:01:58Z</time>
      </trkpt>
      <trkpt lat="44.07199" lon="1.75272">
        <ele>239</ele>
        <time>2023-03-05T09:01:59Z</time>
      </trkpt>
      <trkpt lat="44.07198" lon="1.75277">
        <ele>239.2</ele>
        <time>2023-03-05T09:02:00Z</time>
      </trkpt>
      <trkpt lat="44.07198" lon="1.75282">
        <ele>239.2</ele>
        <time>2023-03-05T09:02:01Z</time>
      </trkpt>
      <trkpt lat="44.07197" lon="1.75289">
        <ele>239.2</ele>
        <time>2023-03-05T09:02:02Z</time>
      </trkpt>
      <trkpt lat="44.07196" lon="1.75294">
        <ele>239.2</ele>
        <time>2023-03-05T09:02:03Z</time>
      </trkpt>
      <trkpt lat="44.07195" lon="1.75301">
        <ele>239.2</ele>
        <time>2023-03-05T09:02:04Z</time>
      </trkpt>
      <trkpt lat="44.07194" lon="1.75308">
        <ele>239.2</ele>
        <time>2023-03-05T09:02:05Z</time>
      </trkpt>
      <trkpt lat="44.07192" lon="1.75314">
        <ele>239.4</ele>
        <time>2023-03-05T09:02:06Z</time>
      </trkpt>
      <trkpt lat="44.07191" lon="1.75321">
        <ele>239.4</ele>
        <time>2023-03-05T09:02:07Z</time>
      </trkpt>
      <trkpt lat="44.07191" lon="1.75327">
        <ele>239.4</ele>
        <time>2023-03-05T09:02:08Z</time>
      </trkpt>
      <trkpt lat="44.0719" lon="1.75333">
        <ele>239.6</ele>
        <time>2023-03-05T09:02:09Z</time>
      </trkpt>
      <trkpt lat="44.07188" lon="1.75339">
        <ele>239.8</ele>
        <time>2023-03-05T09:02:10Z</time>
      </trkpt>
      <trkpt lat="44.07187" lon="1.75345">
        <ele>240</ele>
        <time>2023-03-05T09:02:11Z</time>
      </trkpt>
      <trkpt lat="44.07187" lon="1.7535">
        <ele>240</ele>
        <time>2023-03-05T09:02:12Z</time>
      </trkpt>
      <trkpt lat="44.07186" lon="1.75355">
        <ele>240.2</ele>
        <time>2023-03-05T09:02:13Z</time>
      </trkpt>
      <trkpt lat="44.07186" lon="1.75359">
        <ele>240.2</ele>
        <time>2023-03-05T09:02:14Z</time>
      </trkpt>
      <trkpt lat="44.07185" lon="1.75363">
        <ele>240.4</ele>
        <time>2023-03-05T09:02:15Z</time>
      </trkpt>
      <trkpt lat="44.07184" lon="1.75367">
        <ele>240.6</ele>
        <time>2023-03-05T09:02:16Z</time>
      </trkpt>
      <trkpt lat="44.07183" lon="1.7537">
        <ele>240.8</ele>
        <time>2023-03-05T09:02:17Z</time>
      </trkpt>
      <trkpt lat="44.07183" lon="1.75373">
        <ele>241</ele>
        <time>2023-03-05T09:02:18Z</time>
      </trkpt>
      <trkpt lat="44.07182" lon="1.75377">
        <ele>241.2</ele>
        <time>2023-03-05T09:02:19Z</time>
      </trkpt>
      <trkpt lat="44.07182" lon="1.7538">
        <ele>241.6</ele>
        <time>2023-03-05T09:02:20Z</time>
      </trkpt>
      <trkpt lat="44.07181" lon="1.75384">
        <ele>241.8</ele>
        <time>2023-03-05T09:02:21Z</time>
      </trkpt>
      <trkpt lat="44.0718" lon="1.75387">
        <ele>242</ele>
        <time>2023-03-05T09:02:22Z</time>
      </trkpt>
      <trkpt lat="44.0718" lon="1.75391">
        <ele>242.4</ele>
        <time>2023-03-05T09:02:23Z</time>
      </trkpt>
      <trkpt lat="44.07179" lon="1.75394">
        <ele>242.6</ele>
        <time>2023-03-05T09:02:24Z</time>
      </trkpt>
      <trkpt lat="44.07178" lon="1.75397">
        <ele>243</ele>
        <time>2023-03-05T09:02:25Z</time>
      </trkpt>
      <trkpt lat="44.07177" lon="1.75401">
        <ele>243</ele>
        <time>2023-03-05T09:02:26Z</time>
      </trkpt>
      <trkpt lat="44.07176" lon="1.75405">
        <ele>243.2</ele>
        <time>2023-03-05T09:02:27Z</time>
      </trkpt>
      <trkpt lat="44.07175" lon="1.75407">
        <ele>243.4</ele>
        <time>2023-03-05T09:02:28Z</time>
      </trkpt>
      <trkpt lat="44.07174" lon="1.75411">
        <ele>243.8</ele>
        <time>2023-03-05T09:02:29Z</time>
      </trkpt>
      <trkpt lat="44.07173" lon="1.75414">
        <ele>244.6</ele>
        <time>2023-03-05T09:02:30Z</time>
      </trkpt>
      <trkpt lat="44.07172" lon="1.75417">
        <ele>245</ele>
        <time>2023-03-05T09:02:31Z</time>
      </trkpt>
      <trkpt lat="44.07171" lon="1.75421">
        <ele>245.4</ele>
        <time>2023-03-05T09:02:32Z</time>
      </trkpt>
      <trkpt lat="44.0717" lon="1.75425">
        <ele>245.6</ele>
        <time>2023-03-05T09:02:33Z</time>
      </trkpt>
      <trkpt lat="44.07169" lon="1.75429">
        <ele>246</ele>
        <time>2023-03-05T09:02:34Z</time>
      </trkpt>
      <trkpt lat="44.07168" lon="1.75431">
        <ele>246.2</ele>
        <time>2023-03-05T09:02:35Z</time>
      </trkpt>
      <trkpt lat="44.07168" lon="1.75434">
        <ele>246.6</ele>
        <time>2023-03-05T09:02:36Z</time>
      </trkpt>
      <trkpt lat="44.07167" lon="1.75437">
        <ele>246.8</ele>
        <time>2023-03-05T09:02:37Z</time>
      </trkpt>
      <trkpt lat="44.07166" lon="1.7544">
        <ele>247.2</ele>
        <time>2023-03-05T09:02:38Z</time>
      </trkpt>
      <trkpt lat="44.07165" lon="1.75444">
        <ele>247.6</ele>
        <time>2023-03-05T09:02:39Z</time>
      </trkpt>
      <trkpt lat="44.07164" lon="1.75448">
        <ele>248</ele>
        <time>2023-03-05T09:02:40Z</time>
      </trkpt>
      <trkpt lat="44.07162" lon="1.75452">
        <ele>248.2</ele>
        <time>2023-03-05T09:02:41Z</time>
      </trkpt>
      <trkpt lat="44.07161" lon="1.75455">
        <ele>248.6</ele>
        <time>2023-03-05T09:02:42Z</time>
      </trkpt>
      <trkpt lat="44.0716" lon="1.75458">
        <ele>249.2</ele>
        <time>2023-03-05T09:02:43Z</time>
      </trkpt>
      <trkpt lat="44.0716" lon="1.75462">
        <ele>249.8</ele>
        <time>2023-03-05T09:02:44Z</time>
      </trkpt>
      <trkpt lat="44.07159" lon="1.75465">
        <ele>250.4</ele>
        <time>2023-03-05T09:02:45Z</time>
      </trkpt>
      <trkpt lat="44.07158" lon="1.75468">
        <ele>250.8</ele>
        <time>2023-03-05T09:02:46Z</time>
      </trkpt>
      <trkpt lat="44.07158" lon="1.75471">
        <ele>251.4</ele>
        <time>2023-03-05T09:02:47Z</time>
      </trkpt>
      <trkpt lat="44.07157" lon="1.75475">
        <ele>251.6</ele>
        <time>2023-03-05T09:02:48Z</time>
      </trkpt>
      <trkpt lat="44.07155" lon="1.75477">
        <ele>252.4</ele>
        <time>2023-03-05T09:02:49Z</time>
      </trkpt>
      <trkpt lat="44.07154" lon="1.7548">
        <ele>252.6</ele>
        <time>2023-03-05T09:02:50Z</time>
      </trkpt>
      <trkpt lat="44.07153" lon="1.75483">
        <ele>253</ele>
        <time>2023-03-05T09:02:51Z</time>
      </trkpt>
      <trkpt lat="44.07152" lon="1.75485">
        <ele>253.2</ele>
        <time>2023-03-05T09:02:52Z</time>
      </trkpt>
      <trkpt lat="44.07151" lon="1.75488">
        <ele>253.4</ele>
        <time>2023-03-05T09:02:53Z</time>
      </trkpt>
      <trkpt lat="44.07149" lon="1.7549">
        <ele>253.6</ele>
        <time>2023-03-05T09:02:54Z</time>
      </trkpt>
      <trkpt lat="44.07148" lon="1.75493">
        <ele>254.2</ele>
        <time>2023-03-05T09:02:55Z</time>
      </trkpt>
      <trkpt lat="44.07146" lon="1.75496">
        <ele>254.4</ele>
        <time>2023-03-05T09:02:56Z</time>
      </trkpt>
      <trkpt lat="44.07144" lon="1.75499">
        <ele>254.8</ele>
        <time>2023-03-05T09:02:57Z</time>
      </trkpt>
      <trkpt lat="44.07142" lon="1.755">
        <ele>255.2</ele>
        <time>2023-03-05T09:02:58Z</time>
      </trkpt>
      <trkpt lat="44.07141" lon="1.75501">
        <ele>255.6</ele>
        <time>2023-03-05T09:02:59Z</time>
      </trkpt>
      <trkpt lat="44.07139" lon="1.75502">
        <ele>255.8</ele>
        <time>2023-03-05T09:03:00Z</time>
      </trkpt>
      <trkpt lat="44.07137" lon="1.75502">
        <ele>256</ele>
        <time>2023-03-05T09:03:01Z</time>
      </trkpt>
      <trkpt lat="44.07135" lon="1.75503">
        <ele>256.6</ele>
        <time>2023-03-05T09:03:02Z</time>
      </trkpt>
      <trkpt lat="44.07133" lon="1.75505">
        <ele>257</ele>
        <time>2023-03-05T09:03:03Z</time>
      </trkpt>
      <trkpt lat="44.07131" lon="1.75506">
        <ele>257.6</ele>
        <time>2023-03-05T09:03:04Z</time>
      </trkpt>
      <trkpt lat="44.0713" lon="1.75508">
        <ele>258.2</ele>
        <time>2023-03-05T09:03:05Z</time>
      </trkpt>
      <trkpt lat="44.07128" lon="1.75509">
        <ele>258.8</ele>
        <time>2023-03-05T09:03:06Z</time>
      </trkpt>
      <trkpt lat="44.07126" lon="1.75511">
        <ele>259</ele>
        <time>2023-03-05T09:03:07Z</time>
      </trkpt>
      <trkpt lat="44.07124" lon="1.75512">
        <ele>259.4</ele>
        <time>2023-03-05T09:03:08Z</time>
      </trkpt>
      <trkpt lat="44.07122" lon="1.75513">
        <ele>259.6</ele>
        <time>2023-03-05T09:03:09Z</time>
      </trkpt>
      <trkpt lat="44.07121" lon="1.75514">
        <ele>260</ele>
        <time>2023-03-05T09:03:10Z</time>
      </trkpt>
      <trkpt lat="44.0712" lon="1.75516">
        <ele>260</ele>
        <time>2023-03-05T09:03:11Z</time>
      </trkpt>
      <trkpt lat="44.07118" lon="1.75518">
        <ele>260.4</ele>
        <time>2023-03-05T09:03:12Z</time>
      </trkpt>
      <trkpt lat="44.07116" lon="1.75521">
        <ele>260.6</ele>
        <time>2023-03-05T09:03:13Z</time>
      </trkpt>
      <trkpt lat="44.07114" lon="1.75523">
        <ele>260.8</ele>
        <time>2023-03-05T09:03:14Z</time>
      </trkpt>
      <trkpt lat="44.07113" lon="1.75525">
        <ele>261</ele>
        <time>2023-03-05T09:03:15Z</time>
      </trkpt>
      <trkpt lat="44.07111" lon="1.75527">
        <ele>261.2</ele>
        <time>2023-03-05T09:03:16Z</time>
      </trkpt>
      <trkpt lat="44.07109" lon="1.75529">
        <ele>261.4</ele>
        <time>2023-03-05T09:03:17Z</time>
      </trkpt>
      <trkpt lat="44.07107" lon="1.75532">
        <ele>261.6</ele>
        <time>2023-03-05T09:03:18Z</time>
      </trkpt>
      <trkpt lat="44.07105" lon="1.75534">
        <ele>262.2</ele>
        <time>2023-03-05T09:03:19Z</time>
      </trkpt>
      <trkpt lat="44.07104" lon="1.75537">
        <ele>262.2</ele>
        <time>2023-03-05T09:03:20Z</time>
      </trkpt>
      <trkpt lat="44.07101" lon="1.7554">
        <ele>262.8</ele>
        <time>2023-03-05T09:03:21Z</time>
      </trkpt>
      <trkpt lat="44.071" lon="1.75542">
        <ele>262.8</ele>
        <time>2023-03-05T09:03:22Z</time>
      </trkpt>
      <trkpt lat="44.07098" lon="1.75544">
        <ele>263.2</ele>
        <time>2023-03-05T09:03:23Z</time>
      </trkpt>
      <trkpt lat="44.07096" lon="1.75547">
        <ele>263.2</ele>
        <time>2023-03-05T09:03:24Z</time>
      </trkpt>
      <trkpt lat="44.07093" lon="1.7555">
        <ele>263.6</ele>
        <time>2023-03-05T09:03:25Z</time>
      </trkpt>
      <trkpt lat="44.07092" lon="1.75553">
        <ele>263.8</ele>
        <time>2023-03-05T09:03:26Z</time>
      </trkpt>
      <trkpt lat="44.07092" lon="1.75555">
        <ele>264</ele>
        <time>2023-03-05T09:03:27Z</time>
      </trkpt>
      <trkpt lat="44.0709" lon="1.75557">
        <ele>264.4</ele>
        <time>2023-03-05T09:03:28Z</time>
      </trkpt>
      <trkpt lat="44.07089" lon="1.7556">
        <ele>264.6</ele>
        <time>2023-03-05T09:03:29Z</time>
      </trkpt>
      <trkpt lat="44.07087" lon="1.75563">
        <ele>264.8</ele>
        <time>2023-03-05T09:03:30Z</time>
      </trkpt>
      <trkpt lat="44.07086" lon="1.75566">
        <ele>264.8</ele>
        <time>2023-03-05T09:03:31Z</time>
      </trkpt>
      <trkpt lat="44.07084" lon="1.75569">
        <ele>265</ele>
        <time>2023-03-05T09:03:32Z</time>
      </trkpt>
      <trkpt lat="44.07083" lon="1.75572">
        <ele>265.2</ele>
        <time>2023-03-05T09:03:33Z</time>
      </trkpt>
      <trkpt lat="44.07081" lon="1.75575">
        <ele>265.2</ele>
        <time>2023-03-05T09:03:34Z</time>
      </trkpt>
      <trkpt lat="44.07079" lon="1.75578">
        <ele>265.6</ele>
        <time>2023-03-05T09:03:35Z</time>
      </trkpt>
      <trkpt lat="44.07078" lon="1.75581">
        <ele>266</ele>
        <time>2023-03-05T09:03:36Z</time>
      </trkpt>
      <trkpt lat="44.07076" lon="1.75584">
        <ele>266.2</ele>
        <time>2023-03-05T09:03:37Z</time>
      </trkpt>
      <trkpt lat="44.07073" lon="1.75587">
        <ele>266.6</ele>
        <time>2023-03-05T09:03:38Z</time>
      </trkpt>
      <trkpt lat="44.07071" lon="1.75591">
        <ele>266.8</ele>
        <time>2023-03-05T09:03:39Z</time>
      </trkpt>
      <trkpt lat="44.0707" lon="1.75593">
        <ele>267</ele>
        <time>2023-03-05T09:03:40Z</time>
      </trkpt>
      <trkpt lat="44.07068" lon="1.75595">
        <ele>267.2</ele>
        <time>2023-03-05T09:03:41Z</time>
      </trkpt>
      <trkpt lat="44.07066" lon="1.75596">
        <ele>267.4</ele>
        <time>2023-03-05T09:03:42Z</time>
      </trkpt>
      <trkpt lat="44.07063" lon="1.75598">
        <ele>267.4</ele>
        <time>2023-03-05T09:03:43Z</time>
      </trkpt>
      <trkpt lat="44.07059" lon="1.75601">
        <ele>267.6</ele>
        <time>2023-03-05T09:03:44Z</time>
      </trkpt>
      <trkpt lat="44.07056" lon="1.75605">
        <ele>267.6</ele>
        <time>2023-03-05T09:03:45Z</time>
      </trkpt>
      <trkpt lat="44.07054" lon="1.75606">
        <ele>267.6</ele>
        <time>2023-03-05T09:03:46Z</time>
      </trkpt>
      <trkpt lat="44.07052" lon="1.75606">
        <ele>267.8</ele>
        <time>2023-03-05T09:03:47Z</time>
      </trkpt>
      <trkpt lat="44.07049" lon="1.75606">
        <ele>267.8</ele>
        <time>2023-03-05T09:03:48Z</time>
      </trkpt>
      <trkpt lat="44.07048" lon="1.75606">
        <ele>268</ele>
        <time>2023-03-05T09:03:49Z</time>
      </trkpt>
      <trkpt lat="44.07046" lon="1.75606">
        <ele>268.2</ele>
        <time>2023-03-05T09:03:50Z</time>
      </trkpt>
      <trkpt lat="44.07044" lon="1.75608">
        <ele>268.6</ele>
        <time>2023-03-05T09:03:51Z</time>
      </trkpt>
      <trkpt lat="44.07042" lon="1.75607">
        <ele>269</ele>
        <time>2023-03-05T09:03:52Z</time>
      </trkpt>
      <trkpt lat="44.0704" lon="1.75607">
        <ele>269.4</ele>
        <time>2023-03-05T09:03:53Z</time>
      </trkpt>
      <trkpt lat="44.07038" lon="1.75606">
        <ele>269.4</ele>
        <time>2023-03-05T09:03:54Z</time>
      </trkpt>
      <trkpt lat="44.07035" lon="1.75606">
        <ele>269.6</ele>
        <time>2023-03-05T09:03:55Z</time>
      </trkpt>
      <trkpt lat="44.07033" lon="1.75605">
        <ele>269.8</ele>
        <time>2023-03-05T09:03:56Z</time>
      </trkpt>
      <trkpt lat="44.07031" lon="1.75605">
        <ele>270.2</ele>
        <time>2023-03-05T09:03:57Z</time>
      </trkpt>
      <trkpt lat="44.07028" lon="1.75603">
        <ele>270.8</ele>
        <time>2023-03-05T09:03:58Z</time>
      </trkpt>
      <trkpt lat="44.07026" lon="1.75603">
        <ele>271</ele>
        <time>2023-03-05T09:03:59Z</time>
      </trkpt>
      <trkpt lat="44.07024" lon="1.75602">
        <ele>271.2</ele>
        <time>2023-03-05T09:04:00Z</time>
      </trkpt>
      <trkpt lat="44.07021" lon="1.75601">
        <ele>271.4</ele>
        <time>2023-03-05T09:04:01Z</time>
      </trkpt>
      <trkpt lat="44.07019" lon="1.75601">
        <ele>271.8</ele>
        <time>2023-03-05T09:04:02Z</time>
      </trkpt>
      <trkpt lat="44.07018" lon="1.756">
        <ele>272</ele>
        <time>2023-03-05T09:04:03Z</time>
      </trkpt>
      <trkpt lat="44.07016" lon="1.756">
        <ele>272.4</ele>
        <time>2023-03-05T09:04:04Z</time>
      </trkpt>
      <trkpt lat="44.07014" lon="1.756">
        <ele>272.6</ele>
        <time>2023-03-05T09:04:05Z</time>
      </trkpt>
      <trkpt lat="44.07012" lon="1.756">
        <ele>273</ele>
        <time>2023-03-05T09:04:06Z</time>
      </trkpt>
      <trkpt lat="44.0701" lon="1.756">
        <ele>273.4</ele>
        <time>2023-03-05T09:04:07Z</time>
      </trkpt>
      <trkpt lat="44.07009" lon="1.75599">
        <ele>273.8</ele>
        <time>2023-03-05T09:04:08Z</time>
      </trkpt>
      <trkpt lat="44.07007" lon="1.75599">
        <ele>274</ele>
        <time>2023-03-05T09:04:09Z</time>
      </trkpt>
      <trkpt lat="44.07005" lon="1.75599">
        <ele>274.4</ele>
        <time>2023-03-05T09:04:10Z</time>
      </trkpt>
      <trkpt lat="44.07003" lon="1.75599">
        <ele>275</ele>
        <time>2023-03-05T09:04:11Z</time>
      </trkpt>
      <trkpt lat="44.07001" lon="1.75599">
        <ele>275.4</ele>
        <time>2023-03-05T09:04:12Z</time>
      </trkpt>
      <trkpt lat="44.06999" lon="1.75599">
        <ele>276</ele>
        <time>2023-03-05T09:04:13Z</time>
      </trkpt>
      <trkpt lat="44.06997" lon="1.75599">
        <ele>276.4</ele>
        <time>2023-03-05T09:04:14Z</time>
      </trkpt>
      <trkpt lat="44.06995" lon="1.75599">
        <ele>276.8</ele>
        <time>2023-03-05T09:04:15Z</time>
      </trkpt>
      <trkpt lat="44.06993" lon="1.75599">
        <ele>276.8</ele>
        <time>2023-03-05T09:04:16Z</time>
      </trkpt>
      <trkpt lat="44.06991" lon="1.75599">
        <ele>277.2</ele>
        <time>2023-03-05T09:04:17Z</time>
      </trkpt>
      <trkpt lat="44.06989" lon="1.75599">
        <ele>277.6</ele>
        <time>2023-03-05T09:04:18Z</time>
      </trkpt>
      <trkpt lat="44.06987" lon="1.75599">
        <ele>278</ele>
        <time>2023-03-05T09:04:19Z</time>
      </trkpt>
      <trkpt lat="44.06985" lon="1.756">
        <ele>278.6</ele>
        <time>2023-03-05T09:04:20Z</time>
      </trkpt>
      <trkpt lat="44.06982" lon="1.75601">
        <ele>279.2</ele>
        <time>2023-03-05T09:04:21Z</time>
      </trkpt>
      <trkpt lat="44.0698" lon="1.75601">
        <ele>279.4</ele>
        <time>2023-03-05T09:04:22Z</time>
      </trkpt>
      <trkpt lat="44.06979" lon="1.75601">
        <ele>280.2</ele>
        <time>2023-03-05T09:04:23Z</time>
      </trkpt>
      <trkpt lat="44.06977" lon="1.75601">
        <ele>280.6</ele>
        <time>2023-03-05T09:04:24Z</time>
      </trkpt>
      <trkpt lat="44.06976" lon="1.75601">
        <ele>281.4</ele>
        <time>2023-03-05T09:04:25Z</time>
      </trkpt>
      <trkpt lat="44.06974" lon="1.75601">
        <ele>282</ele>
        <time>2023-03-05T09:04:26Z</time>
      </trkpt>
      <trkpt lat="44.06972" lon="1.75601">
        <ele>282.4</ele>
        <time>2023-03-05T09:04:27Z</time>
      </trkpt>
      <trkpt lat="44.0697" lon="1.75602">
        <ele>282.6</ele>
        <time>2023-03-05T09:04:28Z</time>
      </trkpt>
      <trkpt lat="44.06968" lon="1.75602">
        <ele>282.8</ele>
        <time>2023-03-05T09:04:29Z</time>
      </trkpt>
      <trkpt lat="44.06965" lon="1.75604">
        <ele>283.4</ele>
        <time>2023-03-05T09:04:30Z</time>
      </trkpt>
      <trkpt lat="44.06963" lon="1.75606">
        <ele>283.8</ele>
        <time>2023-03-05T09:04:31Z</time>
      </trkpt>
      <trkpt lat="44.06961" lon="1.75608">
        <ele>284.8</ele>
        <time>2023-03-05T09:04:32Z</time>
      </trkpt>
      <trkpt lat="44.06959" lon="1.75609">
        <ele>285.2</ele>
        <time>2023-03-05T09:04:33Z</time>
      </trkpt>
      <trkpt lat="44.06957" lon="1.75611">
        <ele>285.6</ele>
        <time>2023-03-05T09:04:34Z</time>
      </trkpt>
      <trkpt lat="44.06955" lon="1.75612">
        <ele>286</ele>
        <time>2023-03-05T09:04:35Z</time>
      </trkpt>
      <trkpt lat="44.06953" lon="1.75614">
        <ele>286.6</ele>
        <time>2023-03-05T09:04:36Z</time>
      </trkpt>
      <trkpt lat="44.06952" lon="1.75615">
        <ele>286.8</ele>
        <time>2023-03-05T09:04:37Z</time>
      </trkpt>
      <trkpt lat="44.06951" lon="1.75617">
        <ele>287.4</ele>
        <time>2023-03-05T09:04:38Z</time>
      </trkpt>
      <trkpt lat="44.06949" lon="1.75619">
        <ele>288</ele>
        <time>2023-03-05T09:04:39Z</time>
      </trkpt>
      <trkpt lat="44.06948" lon="1.75621">
        <ele>288.2</ele>
        <time>2023-03-05T09:04:40Z</time>
      </trkpt>
      <trkpt lat="44.06947" lon="1.75623">
        <ele>288.6</ele>
        <time>2023-03-05T09:04:41Z</time>
      </trkpt>
      <trkpt lat="44.06945" lon="1.75626">
        <ele>288.8</ele>
        <time>2023-03-05T09:04:42Z</time>
      </trkpt>
      <trkpt lat="44.06944" lon="1.75628">
        <ele>289.2</ele>
        <time>2023-03-05T09:04:43Z</time>
      </trkpt>
      <trkpt lat="44.06941" lon="1.75632">
        <ele>289.6</ele>
        <time>2023-03-05T09:04:44Z</time>
      </trkpt>
      <trkpt lat="44.06939" lon="1.75634">
        <ele>290.2</ele>
        <time>2023-03-05T09:04:45Z</time>
      </trkpt>
      <trkpt lat="44.06937" lon="1.75638">
        <ele>290.4</ele>
        <time>2023-03-05T09:04:46Z</time>
      </trkpt>
      <trkpt lat="44.06936" lon="1.7564">
        <ele>290.8</ele>
        <time>2023-03-05T09:04:47Z</time>
      </trkpt>
      <trkpt lat="44.06933" lon="1.75642">
        <ele>291</ele>
        <time>2023-03-05T09:04:48Z</time>
      </trkpt>
      <trkpt lat="44.06932" lon="1.75643">
        <ele>291.6</ele>
        <time>2023-03-05T09:04:49Z</time>
      </trkpt>
      <trkpt lat="44.0693" lon="1.75644">
        <ele>291.8</ele>
        <time>2023-03-05T09:04:50Z</time>
      </trkpt>
      <trkpt lat="44.06928" lon="1.75646">
        <ele>292</ele>
        <time>2023-03-05T09:04:51Z</time>
      </trkpt>
      <trkpt lat="44.06927" lon="1.75647">
        <ele>292.4</ele>
        <time>2023-03-05T09:04:52Z</time>
      </trkpt>
      <trkpt lat="44.06925" lon="1.75648">
        <ele>293</ele>
        <time>2023-03-05T09:04:53Z</time>
      </trkpt>
      <trkpt lat="44.06924" lon="1.75649">
        <ele>293.6</ele>
        <time>2023-03-05T09:04:54Z</time>
      </trkpt>
      <trkpt lat="44.06923" lon="1.7565">
        <ele>293.6</ele>
        <time>2023-03-05T09:04:55Z</time>
      </trkpt>
      <trkpt lat="44.06921" lon="1.75651">
        <ele>294</ele>
        <time>2023-03-05T09:04:56Z</time>
      </trkpt>
      <trkpt lat="44.06919" lon="1.75653">
        <ele>294.4</ele>
        <time>2023-03-05T09:04:57Z</time>
      </trkpt>
      <trkpt lat="44.06918" lon="1.75654">
        <ele>295</ele>
        <time>2023-03-05T09:04:58Z</time>
      </trkpt>
      <trkpt lat="44.06917" lon="1.75654">
        <ele>295.2</ele>
        <time>2023-03-05T09:04:59Z</time>
      </trkpt>
      <trkpt lat="44.06915" lon="1.75655">
        <ele>295.6</ele>
        <time>2023-03-05T09:05:00Z</time>
      </trkpt>
      <trkpt lat="44.06914" lon="1.75656">
        <ele>295.8</ele>
        <time>2023-03-05T09:05:01Z</time>
      </trkpt>
      <trkpt lat="44.06912" lon="1.75657">
        <ele>296.2</ele>
        <time>2023-03-05T09:05:02Z</time>
      </trkpt>
      <trkpt lat="44.0691" lon="1.75658">
        <ele>296.4</ele>
        <time>2023-03-05T09:05:03Z</time>
      </trkpt>
      <trkpt lat="44.06909" lon="1.75658">
        <ele>297</ele>
        <time>2023-03-05T09:05:04Z</time>
      </trkpt>
      <trkpt lat="44.06907" lon="1.75658">
        <ele>297.2</ele>
        <time>2023-03-05T09:05:05Z</time>
      </trkpt>
      <trkpt lat="44.06905" lon="1.75659">
        <ele>297.4</ele>
        <time>2023-03-05T09:05:06Z</time>
      </trkpt>
      <trkpt lat="44.06903" lon="1.7566">
        <ele>297.6</ele>
        <time>2023-03-05T09:05:07Z</time>
      </trkpt>
      <trkpt lat="44.06901" lon="1.75661">
        <ele>298</ele>
        <time>2023-03-05T09:05:08Z</time>
      </trkpt>
      <trkpt lat="44.06899" lon="1.75661">
        <ele>298.6</ele>
        <time>2023-03-05T09:05:09Z</time>
      </trkpt>
      <trkpt lat="44.06898" lon="1.75661">
        <ele>298.8</ele>
        <time>2023-03-05T09:05:10Z</time>
      </trkpt>
      <trkpt lat="44.06896" lon="1.75661">
        <ele>299</ele>
        <time>2023-03-05T09:05:11Z</time>
      </trkpt>
      <trkpt lat="44.06894" lon="1.75662">
        <ele>299.2</ele>
        <time>2023-03-05T09:05:12Z</time>
      </trkpt>
      <trkpt lat="44.06892" lon="1.75662">
        <ele>300</ele>
        <time>2023-03-05T09:05:13Z</time>
      </trkpt>
      <trkpt lat="44.06891" lon="1.75662">
        <ele>300.2</ele>
        <time>2023-03-05T09:05:14Z</time>
      </trkpt>
      <trkpt lat="44.06889" lon="1.75661">
        <ele>300.6</ele>
        <time>2023-03-05T09:05:15Z</time>
      </trkpt>
      <trkpt lat="44.06886" lon="1.75662">
        <ele>300.8</ele>
        <time>2023-03-05T09:05:16Z</time>
      </trkpt>
      <trkpt lat="44.06884" lon="1.75662">
        <ele>301</ele>
        <time>2023-03-05T09:05:17Z</time>
      </trkpt>
      <trkpt lat="44.06882" lon="1.75662">
        <ele>301.2</ele>
        <time>2023-03-05T09:05:18Z</time>
      </trkpt>
      <trkpt lat="44.0688" lon="1.75662">
        <ele>301.8</ele>
        <time>2023-03-05T09:05:19Z</time>
      </trkpt>
      <trkpt lat="44.06879" lon="1.75661">
        <ele>302</ele>
        <time>2023-03-05T09:05:20Z</time>
      </trkpt>
      <trkpt lat="44.06877" lon="1.75661">
        <ele>302.2</ele>
        <time>2023-03-05T09:05:21Z</time>
      </trkpt>
      <trkpt lat="44.06875" lon="1.7566">
        <ele>302.4</ele>
        <time>2023-03-05T09:05:22Z</time>
      </trkpt>
      <trkpt lat="44.06873" lon="1.7566">
        <ele>302.6</ele>
        <time>2023-03-05T09:05:23Z</time>
      </trkpt>
      <trkpt lat="44.06871" lon="1.7566">
        <ele>303</ele>
        <time>2023-03-05T09:05:24Z</time>
      </trkpt>
      <trkpt lat="44.06868" lon="1.75659">
        <ele>303.4</ele>
        <time>2023-03-05T09:05:25Z</time>
      </trkpt>
      <trkpt lat="44.06866" lon="1.75659">
        <ele>303.8</ele>
        <time>2023-03-05T09:05:26Z</time>
      </trkpt>
      <trkpt lat="44.06863" lon="1.75658">
        <ele>303.8</ele>
        <time>2023-03-05T09:05:27Z</time>
      </trkpt>
      <trkpt lat="44.06861" lon="1.75658">
        <ele>304.2</ele>
        <time>2023-03-05T09:05:28Z</time>
      </trkpt>
      <trkpt lat="44.06858" lon="1.75658">
        <ele>304.2</ele>
        <time>2023-03-05T09:05:29Z</time>
      </trkpt>
      <trkpt lat="44.06856" lon="1.75658">
        <ele>304.6</ele>
        <time>2023-03-05T09:05:30Z</time>
      </trkpt>
      <trkpt lat="44.06854" lon="1.75657">
        <ele>304.6</ele>
        <time>2023-03-05T09:05:31Z</time>
      </trkpt>
      <trkpt lat="44.06852" lon="1.75657">
        <ele>304.8</ele>
        <time>2023-03-05T09:05:32Z</time>
      </trkpt>
      <trkpt lat="44.06851" lon="1.75657">
        <ele>305</ele>
        <time>2023-03-05T09:05:33Z</time>
      </trkpt>
      <trkpt lat="44.06848" lon="1.75657">
        <ele>305.4</ele>
        <time>2023-03-05T09:05:34Z</time>
      </trkpt>
      <trkpt lat="44.06846" lon="1.75655">
        <ele>305.6</ele>
        <time>2023-03-05T09:05:35Z</time>
      </trkpt>
      <trkpt lat="44.06845" lon="1.75654">
        <ele>305.8</ele>
        <time>2023-03-05T09:05:36Z</time>
      </trkpt>
      <trkpt lat="44.06843" lon="1.75653">
        <ele>306</ele>
        <time>2023-03-05T09:05:37Z</time>
      </trkpt>
      <trkpt lat="44.06842" lon="1.75653">
        <ele>306.2</ele>
        <time>2023-03-05T09:05:38Z</time>
      </trkpt>
      <trkpt lat="44.06841" lon="1.75653">
        <ele>306.6</ele>
        <time>2023-03-05T09:05:39Z</time>
      </trkpt>
      <trkpt lat="44.0684" lon="1.75653">
        <ele>306.8</ele>
        <time>2023-03-05T09:05:40Z</time>
      </trkpt>
      <trkpt lat="44.06838" lon="1.75653">
        <ele>307</ele>
        <time>2023-03-05T09:05:41Z</time>
      </trkpt>
      <trkpt lat="44.06836" lon="1.75653">
        <ele>307.2</ele>
        <time>2023-03-05T09:05:42Z</time>
      </trkpt>
      <trkpt lat="44.06834" lon="1.75654">
        <ele>307.4</ele>
        <time>2023-03-05T09:05:43Z</time>
      </trkpt>
      <trkpt lat="44.06833" lon="1.75653">
        <ele>307.8</ele>
        <time>2023-03-05T09:05:44Z</time>
      </trkpt>
      <trkpt lat="44.06831" lon="1.75653">
        <ele>308.2</ele>
        <time>2023-03-05T09:05:45Z</time>
      </trkpt>
      <trkpt lat="44.0683" lon="1.75653">
        <ele>308.4</ele>
        <time>2023-03-05T09:05:46Z</time>
      </trkpt>
      <trkpt lat="44.06828" lon="1.75653">
        <ele>308.8</ele>
        <time>2023-03-05T09:05:47Z</time>
      </trkpt>
      <trkpt lat="44.06826" lon="1.75654">
        <ele>309</ele>
        <time>2023-03-05T09:05:48Z</time>
      </trkpt>
      <trkpt lat="44.06824" lon="1.75654">
        <ele>309.6</ele>
        <time>2023-03-05T09:05:49Z</time>
      </trkpt>
      <trkpt lat="44.06822" lon="1.75654">
        <ele>310</ele>
        <time>2023-03-05T09:05:50Z</time>
      </trkpt>
      <trkpt lat="44.0682" lon="1.75654">
        <ele>310.2</ele>
        <time>2023-03-05T09:05:51Z</time>
      </trkpt>
      <trkpt lat="44.06818" lon="1.75655">
        <ele>310.4</ele>
        <time>2023-03-05T09:05:52Z</time>
      </trkpt>
      <trkpt lat="44.06817" lon="1.75655">
        <ele>310.6</ele>
        <time>2023-03-05T09:05:53Z</time>
      </trkpt>
      <trkpt lat="44.06815" lon="1.75655">
        <ele>311</ele>
        <time>2023-03-05T09:05:54Z</time>
      </trkpt>
      <trkpt lat="44.06813" lon="1.75654">
        <ele>311.2</ele>
        <time>2023-03-05T09:05:55Z</time>
      </trkpt>
      <trkpt lat="44.06811" lon="1.75654">
        <ele>311.6</ele>
        <time>2023-03-05T09:05:56Z</time>
      </trkpt>
      <trkpt lat="44.06809" lon="1.75655">
        <ele>311.6</ele>
        <time>2023-03-05T09:05:57Z</time>
      </trkpt>
      <trkpt lat="44.06807" lon="1.75656">
        <ele>311.8</ele>
        <time>2023-03-05T09:05:58Z</time>
      </trkpt>
      <trkpt lat="44.06805" lon="1.75657">
        <ele>312</ele>
        <time>2023-03-05T09:05:59Z</time>
      </trkpt>
      <trkpt lat="44.06803" lon="1.75658">
        <ele>312</ele>
        <time>2023-03-05T09:06:00Z</time>
      </trkpt>
      <trkpt lat="44.068" lon="1.75659">
        <ele>312.2</ele>
        <time>2023-03-05T09:06:01Z</time>
      </trkpt>
      <trkpt lat="44.06797" lon="1.75661">
        <ele>312.4</ele>
        <time>2023-03-05T09:06:02Z</time>
      </trkpt>
      <trkpt lat="44.06795" lon="1.75663">
        <ele>312.6</ele>
        <time>2023-03-05T09:06:03Z</time>
      </trkpt>
      <trkpt lat="44.06793" lon="1.75664">
        <ele>312.6</ele>
        <time>2023-03-05T09:06:04Z</time>
      </trkpt>
      <trkpt lat="44.0679" lon="1.75666">
        <ele>313</ele>
        <time>2023-03-05T09:06:05Z</time>
      </trkpt>
      <trkpt lat="44.06787" lon="1.75669">
        <ele>313</ele>
        <time>2023-03-05T09:06:06Z</time>
      </trkpt>
      <trkpt lat="44.06785" lon="1.75671">
        <ele>313.2</ele>
        <time>2023-03-05T09:06:07Z</time>
      </trkpt>
      <trkpt lat="44.06782" lon="1.75673">
        <ele>313.2</ele>
        <time>2023-03-05T09:06:08Z</time>
      </trkpt>
      <trkpt lat="44.06779" lon="1.75676">
        <ele>313.4</ele>
        <time>2023-03-05T09:06:09Z</time>
      </trkpt>
      <trkpt lat="44.06775" lon="1.75679">
        <ele>313.4</ele>
        <time>2023-03-05T09:06:10Z</time>
      </trkpt>
      <trkpt lat="44.06772" lon="1.75681">
        <ele>313.4</ele>
        <time>2023-03-05T09:06:11Z</time>
      </trkpt>
      <trkpt lat="44.0677" lon="1.75682">
        <ele>313.6</ele>
        <time>2023-03-05T09:06:12Z</time>
      </trkpt>
      <trkpt lat="44.06768" lon="1.75683">
        <ele>313.6</ele>
        <time>2023-03-05T09:06:13Z</time>
      </trkpt>
      <trkpt lat="44.06765" lon="1.75685">
        <ele>313.8</ele>
        <time>2023-03-05T09:06:14Z</time>
      </trkpt>
      <trkpt lat="44.06762" lon="1.75686">
        <ele>314</ele>
        <time>2023-03-05T09:06:15Z</time>
      </trkpt>
      <trkpt lat="44.06759" lon="1.75688">
        <ele>314</ele>
        <time>2023-03-05T09:06:16Z</time>
      </trkpt>
      <trkpt lat="44.06757" lon="1.75691">
        <ele>314</ele>
        <time>2023-03-05T09:06:17Z</time>
      </trkpt>
      <trkpt lat="44.06754" lon="1.75693">
        <ele>314.2</ele>
        <time>2023-03-05T09:06:18Z</time>
      </trkpt>
      <trkpt lat="44.06752" lon="1.75692">
        <ele>314.2</ele>
        <time>2023-03-05T09:06:19Z</time>
      </trkpt>
      <trkpt lat="44.0675" lon="1.75693">
        <ele>314.4</ele>
        <time>2023-03-05T09:06:20Z</time>
      </trkpt>
      <trkpt lat="44.06747" lon="1.75695">
        <ele>314.6</ele>
        <time>2023-03-05T09:06:21Z</time>
      </trkpt>
      <trkpt lat="44.06745" lon="1.75697">
        <ele>314.8</ele>
        <time>2023-03-05T09:06:22Z</time>
      </trkpt>
      <trkpt lat="44.06743" lon="1.75697">
        <ele>315</ele>
        <time>2023-03-05T09:06:23Z</time>
      </trkpt>
      <trkpt lat="44.06741" lon="1.75696">
        <ele>315.2</ele>
        <time>2023-03-05T09:06:24Z</time>
      </trkpt>
      <trkpt lat="44.0674" lon="1.75697">
        <ele>315.4</ele>
        <time>2023-03-05T09:06:25Z</time>
      </trkpt>
      <trkpt lat="44.06738" lon="1.75698">
        <ele>315.6</ele>
        <time>2023-03-05T09:06:26Z</time>
      </trkpt>
      <trkpt lat="44.06736" lon="1.75698">
        <ele>315.6</ele>
        <time>2023-03-05T09:06:27Z</time>
      </trkpt>
      <trkpt lat="44.06734" lon="1.75698">
        <ele>316</ele>
        <time>2023-03-05T09:06:28Z</time>
      </trkpt>
      <trkpt lat="44.06732" lon="1.75699">
        <ele>316.2</ele>
        <time>2023-03-05T09:06:29Z</time>
      </trkpt>
      <trkpt lat="44.0673" lon="1.75699">
        <ele>316.8</ele>
        <time>2023-03-05T09:06:30Z</time>
      </trkpt>
      <trkpt lat="44.06728" lon="1.75699">
        <ele>317.2</ele>
        <time>2023-03-05T09:06:31Z</time>
      </trkpt>
      <trkpt lat="44.06726" lon="1.75699">
        <ele>317.8</ele>
        <time>2023-03-05T09:06:32Z</time>
      </trkpt>
      <trkpt lat="44.06724" lon="1.75699">
        <ele>318</ele>
        <time>2023-03-05T09:06:33Z</time>
      </trkpt>
      <trkpt lat="44.06721" lon="1.75699">
        <ele>318.2</ele>
        <time>2023-03-05T09:06:34Z</time>
      </trkpt>
      <trkpt lat="44.06719" lon="1.75698">
        <ele>318.4</ele>
        <time>2023-03-05T09:06:35Z</time>
      </trkpt>
      <trkpt lat="44.06718" lon="1.75697">
        <ele>318.6</ele>
        <time>2023-03-05T09:06:36Z</time>
      </trkpt>
      <trkpt lat="44.06715" lon="1.75697">
        <ele>318.8</ele>
        <time>2023-03-05T09:06:37Z</time>
      </trkpt>
      <trkpt lat="44.06712" lon="1.75697">
        <ele>318.8</ele>
        <time>2023-03-05T09:06:38Z</time>
      </trkpt>
      <trkpt lat="44.06709" lon="1.75697">
        <ele>318.8</ele>
        <time>2023-03-05T09:06:39Z</time>
      </trkpt>
      <trkpt lat="44.06706" lon="1.75697">
        <ele>319</ele>
        <time>2023-03-05T09:06:40Z</time>
      </trkpt>
      <trkpt lat="44.06703" lon="1.75697">
        <ele>319</ele>
        <time>2023-03-05T09:06:41Z</time>
      </trkpt>
      <trkpt lat="44.067" lon="1.75698">
        <ele>319</ele>
        <time>2023-03-05T09:06:42Z</time>
      </trkpt>
      <trkpt lat="44.06698" lon="1.75698">
        <ele>318.8</ele>
        <time>2023-03-05T09:06:43Z</time>
      </trkpt>
      <trkpt lat="44.06696" lon="1.75699">
        <ele>318.6</ele>
        <time>2023-03-05T09:06:44Z</time>
      </trkpt>
      <trkpt lat="44.06694" lon="1.75698">
        <ele>318.6</ele>
        <time>2023-03-05T09:06:45Z</time>
      </trkpt>
      <trkpt lat="44.06691" lon="1.75699">
        <ele>318.6</ele>
        <time>2023-03-05T09:06:46Z</time>
      </trkpt>
      <trkpt lat="44.06687" lon="1.75699">
        <ele>318.6</ele>
        <time>2023-03-05T09:06:47Z</time>
      </trkpt>
      <trkpt lat="44.06684" lon="1.75698">
        <ele>318.6</ele>
        <time>2023-03-05T09:06:48Z</time>
      </trkpt>
      <trkpt lat="44.06681" lon="1.75698">
        <ele>318.8</ele>
        <time>2023-03-05T09:06:49Z</time>
      </trkpt>
      <trkpt lat="44.06676" lon="1.757">
        <ele>318.8</ele>
        <time>2023-03-05T09:06:50Z</time>
      </trkpt>
      <trkpt lat="44.06672" lon="1.75702">
        <ele>319</ele>
        <time>2023-03-05T09:06:51Z</time>
      </trkpt>
      <trkpt lat="44.06669" lon="1.75705">
        <ele>319.2</ele>
        <time>2023-03-05T09:06:52Z</time>
      </trkpt>
      <trkpt lat="44.06665" lon="1.75708">
        <ele>319.2</ele>
        <time>2023-03-05T09:06:53Z</time>
      </trkpt>
      <trkpt lat="44.06662" lon="1.75709">
        <ele>319.2</ele>
        <time>2023-03-05T09:06:54Z</time>
      </trkpt>
      <trkpt lat="44.06659" lon="1.7571">
        <ele>319.4</ele>
        <time>2023-03-05T09:06:55Z</time>
      </trkpt>
      <trkpt lat="44.06656" lon="1.75711">
        <ele>319.4</ele>
        <time>2023-03-05T09:06:56Z</time>
      </trkpt>
      <trkpt lat="44.06653" lon="1.75711">
        <ele>319.6</ele>
        <time>2023-03-05T09:06:57Z</time>
      </trkpt>
      <trkpt lat="44.0665" lon="1.75711">
        <ele>319.8</ele>
        <time>2023-03-05T09:06:58Z</time>
      </trkpt>
      <trkpt lat="44.06648" lon="1.7571">
        <ele>319.8</ele>
        <time>2023-03-05T09:06:59Z</time>
      </trkpt>
      <trkpt lat="44.06646" lon="1.7571">
        <ele>320</ele>
        <time>2023-03-05T09:07:00Z</time>
      </trkpt>
      <trkpt lat="44.06643" lon="1.7571">
        <ele>320</ele>
        <time>2023-03-05T09:07:01Z</time>
      </trkpt>
      <trkpt lat="44.06641" lon="1.7571">
        <ele>320.2</ele>
        <time>2023-03-05T09:07:02Z</time>
      </trkpt>
      <trkpt lat="44.06636" lon="1.7571">
        <ele>320.4</ele>
        <time>2023-03-05T09:07:03Z</time>
      </trkpt>
      <trkpt lat="44.06634" lon="1.7571">
        <ele>320.6</ele>
        <time>2023-03-05T09:07:04Z</time>
      </trkpt>
      <trkpt lat="44.06631" lon="1.75708">
        <ele>321</ele>
        <time>2023-03-05T09:07:05Z</time>
      </trkpt>
      <trkpt lat="44.0663" lon="1.75707">
        <ele>321</ele>
        <time>2023-03-05T09:07:06Z</time>
      </trkpt>
      <trkpt lat="44.06628" lon="1.75707">
        <ele>321.6</ele>
        <time>2023-03-05T09:07:07Z</time>
      </trkpt>
      <trkpt lat="44.06625" lon="1.75707">
        <ele>321.8</ele>
        <time>2023-03-05T09:07:08Z</time>
      </trkpt>
      <trkpt lat="44.06621" lon="1.75708">
        <ele>322.2</ele>
        <time>2023-03-05T09:07:09Z</time>
      </trkpt>
      <trkpt lat="44.06619" lon="1.75712">
        <ele>322.4</ele>
        <time>2023-03-05T09:07:10Z</time>
      </trkpt>
      <trkpt lat="44.06616" lon="1.75714">
        <ele>322.8</ele>
        <time>2023-03-05T09:07:11Z</time>
      </trkpt>
      <trkpt lat="44.06614" lon="1.75714">
        <ele>323.2</ele>
        <time>2023-03-05T09:07:12Z</time>
      </trkpt>
      <trkpt lat="44.06612" lon="1.75713">
        <ele>323.6</ele>
        <time>2023-03-05T09:07:13Z</time>
      </trkpt>
      <trkpt lat="44.06611" lon="1.75713">
        <ele>324</ele>
        <time>2023-03-05T09:07:14Z</time>
      </trkpt>
      <trkpt lat="44.06608" lon="1.75713">
        <ele>324</ele>
        <time>2023-03-05T09:07:15Z</time>
      </trkpt>
      <trkpt lat="44.06606" lon="1.75713">
        <ele>324.4</ele>
        <time>2023-03-05T09:07:16Z</time>
      </trkpt>
      <trkpt lat="44.06603" lon="1.75714">
        <ele>324.8</ele>
        <time>2023-03-05T09:07:17Z</time>
      </trkpt>
      <trkpt lat="44.06601" lon="1.75715">
        <ele>325</ele>
        <time>2023-03-05T09:07:18Z</time>
      </trkpt>
      <trkpt lat="44.06598" lon="1.75716">
        <ele>325.2</ele>
        <time>2023-03-05T09:07:19Z</time>
      </trkpt>
      <trkpt lat="44.06596" lon="1.75717">
        <ele>326</ele>
        <time>2023-03-05T09:07:20Z</time>
      </trkpt>
      <trkpt lat="44.06594" lon="1.75718">
        <ele>326.4</ele>
        <time>2023-03-05T09:07:21Z</time>
      </trkpt>
      <trkpt lat="44.06592" lon="1.75719">
        <ele>326.6</ele>
        <time>2023-03-05T09:07:22Z</time>
      </trkpt>
      <trkpt lat="44.0659" lon="1.75719">
        <ele>326.8</ele>
        <time>2023-03-05T09:07:23Z</time>
      </trkpt>
      <trkpt lat="44.06589" lon="1.7572">
        <ele>327.2</ele>
        <time>2023-03-05T09:07:24Z</time>
      </trkpt>
      <trkpt lat="44.06587" lon="1.75721">
        <ele>327.4</ele>
        <time>2023-03-05T09:07:25Z</time>
      </trkpt>
      <trkpt lat="44.06584" lon="1.75722">
        <ele>327.8</ele>
        <time>2023-03-05T09:07:26Z</time>
      </trkpt>
      <trkpt lat="44.06583" lon="1.75724">
        <ele>328.6</ele>
        <time>2023-03-05T09:07:27Z</time>
      </trkpt>
      <trkpt lat="44.06581" lon="1.75725">
        <ele>328.8</ele>
        <time>2023-03-05T09:07:28Z</time>
      </trkpt>
      <trkpt lat="44.0658" lon="1.75726">
        <ele>329.4</ele>
        <time>2023-03-05T09:07:29Z</time>
      </trkpt>
      <trkpt lat="44.06579" lon="1.75728">
        <ele>329.6</ele>
        <time>2023-03-05T09:07:30Z</time>
      </trkpt>
      <trkpt lat="44.06578" lon="1.7573">
        <ele>330</ele>
        <time>2023-03-05T09:07:31Z</time>
      </trkpt>
      <trkpt lat="44.06577" lon="1.75733">
        <ele>330</ele>
        <time>2023-03-05T09:07:32Z</time>
      </trkpt>
      <trkpt lat="44.06577" lon="1.75735">
        <ele>330.2</ele>
        <time>2023-03-05T09:07:33Z</time>
      </trkpt>
      <trkpt lat="44.06575" lon="1.75737">
        <ele>330.4</ele>
        <time>2023-03-05T09:07:34Z</time>
      </trkpt>
      <trkpt lat="44.06574" lon="1.75738">
        <ele>330.6</ele>
        <time>2023-03-05T09:07:35Z</time>
      </trkpt>
      <trkpt lat="44.06573" lon="1.7574">
        <ele>330.8</ele>
        <time>2023-03-05T09:07:36Z</time>
      </trkpt>
      <trkpt lat="44.0657" lon="1.75742">
        <ele>331.2</ele>
        <time>2023-03-05T09:07:37Z</time>
      </trkpt>
      <trkpt lat="44.06568" lon="1.75744">
        <ele>331.2</ele>
        <time>2023-03-05T09:07:38Z</time>
      </trkpt>
      <trkpt lat="44.06567" lon="1.75746">
        <ele>331.6</ele>
        <time>2023-03-05T09:07:39Z</time>
      </trkpt>
      <trkpt lat="44.06565" lon="1.75748">
        <ele>331.6</ele>
        <time>2023-03-05T09:07:40Z</time>
      </trkpt>
      <trkpt lat="44.06563" lon="1.75749">
        <ele>332</ele>
        <time>2023-03-05T09:07:41Z</time>
      </trkpt>
      <trkpt lat="44.06562" lon="1.75751">
        <ele>332.4</ele>
        <time>2023-03-05T09:07:42Z</time>
      </trkpt>
      <trkpt lat="44.0656" lon="1.75753">
        <ele>332.6</ele>
        <time>2023-03-05T09:07:43Z</time>
      </trkpt>
      <trkpt lat="44.06558" lon="1.75755">
        <ele>333</ele>
        <time>2023-03-05T09:07:44Z</time>
      </trkpt>
      <trkpt lat="44.06557" lon="1.75756">
        <ele>333.2</ele>
        <time>2023-03-05T09:07:45Z</time>
      </trkpt>
      <trkpt lat="44.06556" lon="1.75758">
        <ele>333.6</ele>
        <time>2023-03-05T09:07:46Z</time>
      </trkpt>
      <trkpt lat="44.06554" lon="1.7576">
        <ele>334</ele>
        <time>2023-03-05T09:07:47Z</time>
      </trkpt>
      <trkpt lat="44.06552" lon="1.75763">
        <ele>334.6</ele>
        <time>2023-03-05T09:07:48Z</time>
      </trkpt>
      <trkpt lat="44.0655" lon="1.75766">
        <ele>334.8</ele>
        <time>2023-03-05T09:07:49Z</time>
      </trkpt>
      <trkpt lat="44.06548" lon="1.75768">
        <ele>335.4</ele>
        <time>2023-03-05T09:07:50Z</time>
      </trkpt>
      <trkpt lat="44.06546" lon="1.7577">
        <ele>335.4</ele>
        <time>2023-03-05T09:07:51Z</time>
      </trkpt>
      <trkpt lat="44.06544" lon="1.75772">
        <ele>335.8</ele>
        <time>2023-03-05T09:07:52Z</time>
      </trkpt>
      <trkpt lat="44.06543" lon="1.75773">
        <ele>336.2</ele>
        <time>2023-03-05T09:07:53Z</time>
      </trkpt>
      <trkpt lat="44.06541" lon="1.75775">
        <ele>336.8</ele>
        <time>2023-03-05T09:07:54Z</time>
      </trkpt>
      <trkpt lat="44.0654" lon="1.75777">
        <ele>337.6</ele>
        <time>2023-03-05T09:07:55Z</time>
      </trkpt>
      <trkpt lat="44.06539" lon="1.75778">
        <ele>337.8</ele>
        <time>2023-03-05T09:07:56Z</time>
      </trkpt>
      <trkpt lat="44.06537" lon="1.7578">
        <ele>338.2</ele>
        <time>2023-03-05T09:07:57Z</time>
      </trkpt>
      <trkpt lat="44.06537" lon="1.75781">
        <ele>338.4</ele>
        <time>2023-03-05T09:07:58Z</time>
      </trkpt>
      <trkpt lat="44.06536" lon="1.75783">
        <ele>339.4</ele>
        <time>2023-03-05T09:07:59Z</time>
      </trkpt>
      <trkpt lat="44.06535" lon="1.75784">
        <ele>339.8</ele>
        <time>2023-03-05T09:08:00Z</time>
      </trkpt>
      <trkpt lat="44.06534" lon="1.75786">
        <ele>340.4</ele>
        <time>2023-03-05T09:08:01Z</time>
      </trkpt>
      <trkpt lat="44.06532" lon="1.75788">
        <ele>340.6</ele>
        <time>2023-03-05T09:08:02Z</time>
      </trkpt>
      <trkpt lat="44.06531" lon="1.7579">
        <ele>341.4</ele>
        <time>2023-03-05T09:08:03Z</time>
      </trkpt>
      <trkpt lat="44.0653" lon="1.75791">
        <ele>341.8</ele>
        <time>2023-03-05T09:08:04Z</time>
      </trkpt>
      <trkpt lat="44.06529" lon="1.75793">
        <ele>342.4</ele>
        <time>2023-03-05T09:08:05Z</time>
      </trkpt>
      <trkpt lat="44.06528" lon="1.75796">
        <ele>342.6</ele>
        <time>2023-03-05T09:08:06Z</time>
      </trkpt>
      <trkpt lat="44.06527" lon="1.75798">
        <ele>343.2</ele>
        <time>2023-03-05T09:08:07Z</time>
      </trkpt>
      <trkpt lat="44.06526" lon="1.758">
        <ele>343.4</ele>
        <time>2023-03-05T09:08:08Z</time>
      </trkpt>
      <trkpt lat="44.06525" lon="1.75802">
        <ele>343.6</ele>
        <time>2023-03-05T09:08:09Z</time>
      </trkpt>
      <trkpt lat="44.06524" lon="1.75803">
        <ele>343.8</ele>
        <time>2023-03-05T09:08:10Z</time>
      </trkpt>
      <trkpt lat="44.06523" lon="1.75805">
        <ele>344</ele>
        <time>2023-03-05T09:08:11Z</time>
      </trkpt>
      <trkpt lat="44.06521" lon="1.75806">
        <ele>344.2</ele>
        <time>2023-03-05T09:08:12Z</time>
      </trkpt>
      <trkpt lat="44.06521" lon="1.75808">
        <ele>344.4</ele>
        <time>2023-03-05T09:08:13Z</time>
      </trkpt>
      <trkpt lat="44.0652" lon="1.7581">
        <ele>344.8</ele>
        <time>2023-03-05T09:08:14Z</time>
      </trkpt>
      <trkpt lat="44.06519" lon="1.75812">
        <ele>345.2</ele>
        <time>2023-03-05T09:08:15Z</time>
      </trkpt>
      <trkpt lat="44.06518" lon="1.75813">
        <ele>345.8</ele>
        <time>2023-03-05T09:08:16Z</time>
      </trkpt>
      <trkpt lat="44.06516" lon="1.75815">
        <ele>346</ele>
        <time>2023-03-05T09:08:17Z</time>
      </trkpt>
      <trkpt lat="44.06515" lon="1.75816">
        <ele>346.4</ele>
        <time>2023-03-05T09:08:18Z</time>
      </trkpt>
      <trkpt lat="44.06513" lon="1.75818">
        <ele>346.6</ele>
        <time>2023-03-05T09:08:19Z</time>
      </trkpt>
      <trkpt lat="44.06511" lon="1.7582">
        <ele>346.8</ele>
        <time>2023-03-05T09:08:20Z</time>
      </trkpt>
      <trkpt lat="44.0651" lon="1.75822">
        <ele>347.2</ele>
        <time>2023-03-05T09:08:21Z</time>
      </trkpt>
      <trkpt lat="44.06508" lon="1.75824">
        <ele>347.8</ele>
        <time>2023-03-05T09:08:22Z</time>
      </trkpt>
      <trkpt lat="44.06507" lon="1.75825">
        <ele>348.4</ele>
        <time>2023-03-05T09:08:23Z</time>
      </trkpt>
      <trkpt lat="44.06506" lon="1.75827">
        <ele>348.8</ele>
        <time>2023-03-05T09:08:24Z</time>
      </trkpt>
      <trkpt lat="44.06505" lon="1.75829">
        <ele>349.2</ele>
        <time>2023-03-05T09:08:25Z</time>
      </trkpt>
      <trkpt lat="44.06504" lon="1.75832">
        <ele>349.2</ele>
        <time>2023-03-05T09:08:26Z</time>
      </trkpt>
      <trkpt lat="44.06503" lon="1.75834">
        <ele>349.8</ele>
        <time>2023-03-05T09:08:27Z</time>
      </trkpt>
      <trkpt lat="44.06502" lon="1.75836">
        <ele>350.2</ele>
        <time>2023-03-05T09:08:28Z</time>
      </trkpt>
      <trkpt lat="44.06501" lon="1.75837">
        <ele>350.6</ele>
        <time>2023-03-05T09:08:29Z</time>
      </trkpt>
      <trkpt lat="44.065" lon="1.75839">
        <ele>350.8</ele>
        <time>2023-03-05T09:08:30Z</time>
      </trkpt>
      <trkpt lat="44.06497" lon="1.75841">
        <ele>351.2</ele>
        <time>2023-03-05T09:08:31Z</time>
      </trkpt>
      <trkpt lat="44.06496" lon="1.75843">
        <ele>351.4</ele>
        <time>2023-03-05T09:08:32Z</time>
      </trkpt>
      <trkpt lat="44.06495" lon="1.75844">
        <ele>351.8</ele>
        <time>2023-03-05T09:08:33Z</time>
      </trkpt>
      <trkpt lat="44.06494" lon="1.75846">
        <ele>352</ele>
        <time>2023-03-05T09:08:34Z</time>
      </trkpt>
      <trkpt lat="44.06493" lon="1.75848">
        <ele>352.4</ele>
        <time>2023-03-05T09:08:35Z</time>
      </trkpt>
      <trkpt lat="44.06492" lon="1.7585">
        <ele>353.2</ele>
        <time>2023-03-05T09:08:36Z</time>
      </trkpt>
      <trkpt lat="44.06491" lon="1.75852">
        <ele>353.4</ele>
        <time>2023-03-05T09:08:37Z</time>
      </trkpt>
      <trkpt lat="44.0649" lon="1.75854">
        <ele>353.8</ele>
        <time>2023-03-05T09:08:38Z</time>
      </trkpt>
      <trkpt lat="44.06489" lon="1.75855">
        <ele>354</ele>
        <time>2023-03-05T09:08:39Z</time>
      </trkpt>
      <trkpt lat="44.06487" lon="1.75856">
        <ele>354.4</ele>
        <time>2023-03-05T09:08:40Z</time>
      </trkpt>
      <trkpt lat="44.06486" lon="1.75858">
        <ele>354.4</ele>
        <time>2023-03-05T09:08:41Z</time>
      </trkpt>
      <trkpt lat="44.06485" lon="1.7586">
        <ele>355.2</ele>
        <time>2023-03-05T09:08:42Z</time>
      </trkpt>
      <trkpt lat="44.06483" lon="1.75861">
        <ele>355.4</ele>
        <time>2023-03-05T09:08:43Z</time>
      </trkpt>
      <trkpt lat="44.06482" lon="1.75863">
        <ele>355.8</ele>
        <time>2023-03-05T09:08:44Z</time>
      </trkpt>
      <trkpt lat="44.06481" lon="1.75864">
        <ele>356</ele>
        <time>2023-03-05T09:08:45Z</time>
      </trkpt>
      <trkpt lat="44.0648" lon="1.75866">
        <ele>356.6</ele>
        <time>2023-03-05T09:08:46Z</time>
      </trkpt>
      <trkpt lat="44.06479" lon="1.75868">
        <ele>356.8</ele>
        <time>2023-03-05T09:08:47Z</time>
      </trkpt>
      <trkpt lat="44.06478" lon="1.7587">
        <ele>357.4</ele>
        <time>2023-03-05T09:08:48Z</time>
      </trkpt>
      <trkpt lat="44.06477" lon="1.75871">
        <ele>358.2</ele>
        <time>2023-03-05T09:08:49Z</time>
      </trkpt>
      <trkpt lat="44.06476" lon="1.75873">
        <ele>358.4</ele>
        <time>2023-03-05T09:08:50Z</time>
      </trkpt>
      <trkpt lat="44.06474" lon="1.75875">
        <ele>358.6</ele>
        <time>2023-03-05T09:08:51Z</time>
      </trkpt>
      <trkpt lat="44.06473" lon="1.75876">
        <ele>358.8</ele>
        <time>2023-03-05T09:08:52Z</time>
      </trkpt>
      <trkpt lat="44.06472" lon="1.75878">
        <ele>359.2</ele>
        <time>2023-03-05T09:08:53Z</time>
      </trkpt>
      <trkpt lat="44.0647" lon="1.7588">
        <ele>359.4</ele>
        <time>2023-03-05T09:08:54Z</time>
      </trkpt>
      <trkpt lat="44.06469" lon="1.75881">
        <ele>360.4</ele>
        <time>2023-03-05T09:08:55Z</time>
      </trkpt>
      <trkpt lat="44.06467" lon="1.75883">
        <ele>360.6</ele>
        <time>2023-03-05T09:08:56Z</time>
      </trkpt>
      <trkpt lat="44.06467" lon="1.75885">
        <ele>361</ele>
        <time>2023-03-05T09:08:57Z</time>
      </trkpt>
      <trkpt lat="44.06465" lon="1.75887">
        <ele>361.2</ele>
        <time>2023-03-05T09:08:58Z</time>
      </trkpt>
      <trkpt lat="44.06464" lon="1.75889">
        <ele>361.6</ele>
        <time>2023-03-05T09:08:59Z</time>
      </trkpt>
      <trkpt lat="44.06463" lon="1.75891">
        <ele>362.2</ele>
        <time>2023-03-05T09:09:00Z</time>
      </trkpt>
      <trkpt lat="44.06461" lon="1.75893">
        <ele>362.6</ele>
        <time>2023-03-05T09:09:01Z</time>
      </trkpt>
      <trkpt lat="44.0646" lon="1.75895">
        <ele>363</ele>
        <time>2023-03-05T09:09:02Z</time>
      </trkpt>
      <trkpt lat="44.06459" lon="1.75897">
        <ele>363.2</ele>
        <time>2023-03-05T09:09:03Z</time>
      </trkpt>
      <trkpt lat="44.06458" lon="1.75899">
        <ele>363.8</ele>
        <time>2023-03-05T09:09:04Z</time>
      </trkpt>
      <trkpt lat="44.06457" lon="1.75901">
        <ele>364</ele>
        <time>2023-03-05T09:09:05Z</time>
      </trkpt>
      <trkpt lat="44.06455" lon="1.75904">
        <ele>364.4</ele>
        <time>2023-03-05T09:09:06Z</time>
      </trkpt>
      <trkpt lat="44.06453" lon="1.75905">
        <ele>364.6</ele>
        <time>2023-03-05T09:09:07Z</time>
      </trkpt>
      <trkpt lat="44.06452" lon="1.75905">
        <ele>365.2</ele>
        <time>2023-03-05T09:09:08Z</time>
      </trkpt>
      <trkpt lat="44.0645" lon="1.75907">
        <ele>365.6</ele>
        <time>2023-03-05T09:09:09Z</time>
      </trkpt>
      <trkpt lat="44.06449" lon="1.75909">
        <ele>366.4</ele>
        <time>2023-03-05T09:09:10Z</time>
      </trkpt>
      <trkpt lat="44.06447" lon="1.75911">
        <ele>366.6</ele>
        <time>2023-03-05T09:09:11Z</time>
      </trkpt>
      <trkpt lat="44.06446" lon="1.75913">
        <ele>367</ele>
        <time>2023-03-05T09:09:12Z</time>
      </trkpt>
      <trkpt lat="44.06445" lon="1.75914">
        <ele>367.4</ele>
        <time>2023-03-05T09:09:13Z</time>
      </trkpt>
      <trkpt lat="44.06444" lon="1.75915">
        <ele>367.8</ele>
        <time>2023-03-05T09:09:14Z</time>
      </trkpt>
      <trkpt lat="44.06443" lon="1.75916">
        <ele>368</ele>
        <time>2023-03-05T09:09:15Z</time>
      </trkpt>
      <trkpt lat="44.06442" lon="1.75917">
        <ele>368.4</ele>
        <time>2023-03-05T09:09:16Z</time>
      </trkpt>
      <trkpt lat="44.06441" lon="1.75919">
        <ele>369</ele>
        <time>2023-03-05T09:09:17Z</time>
      </trkpt>
      <trkpt lat="44.0644" lon="1.75921">
        <ele>369.2</ele>
        <time>2023-03-05T09:09:18Z</time>
      </trkpt>
      <trkpt lat="44.06439" lon="1.75923">
        <ele>369.6</ele>
        <time>2023-03-05T09:09:19Z</time>
      </trkpt>
      <trkpt lat="44.06438" lon="1.75924">
        <ele>369.8</ele>
        <time>2023-03-05T09:09:20Z</time>
      </trkpt>
      <trkpt lat="44.06436" lon="1.75926">
        <ele>370.2</ele>
        <time>2023-03-05T09:09:21Z</time>
      </trkpt>
      <trkpt lat="44.06435" lon="1.75928">
        <ele>370.4</ele>
        <time>2023-03-05T09:09:22Z</time>
      </trkpt>
      <trkpt lat="44.06434" lon="1.75929">
        <ele>370.8</ele>
        <time>2023-03-05T09:09:23Z</time>
      </trkpt>
      <trkpt lat="44.06433" lon="1.75931">
        <ele>370.8</ele>
        <time>2023-03-05T09:09:24Z</time>
      </trkpt>
      <trkpt lat="44.06431" lon="1.75932">
        <ele>371</ele>
        <time>2023-03-05T09:09:25Z</time>
      </trkpt>
      <trkpt lat="44.0643" lon="1.75934">
        <ele>371.2</ele>
        <time>2023-03-05T09:09:26Z</time>
      </trkpt>
      <trkpt lat="44.06428" lon="1.75935">
        <ele>371.4</ele>
        <time>2023-03-05T09:09:27Z</time>
      </trkpt>
      <trkpt lat="44.06426" lon="1.75937">
        <ele>371.6</ele>
        <time>2023-03-05T09:09:28Z</time>
      </trkpt>
      <trkpt lat="44.06424" lon="1.75938">
        <ele>372</ele>
        <time>2023-03-05T09:09:29Z</time>
      </trkpt>
      <trkpt lat="44.06423" lon="1.75939">
        <ele>372.4</ele>
        <time>2023-03-05T09:09:30Z</time>
      </trkpt>
      <trkpt lat="44.06421" lon="1.75941">
        <ele>372.6</ele>
        <time>2023-03-05T09:09:31Z</time>
      </trkpt>
      <trkpt lat="44.06419" lon="1.75941">
        <ele>372.8</ele>
        <time>2023-03-05T09:09:32Z</time>
      </trkpt>
      <trkpt lat="44.06418" lon="1.75941">
        <ele>373</ele>
        <time>2023-03-05T09:09:33Z</time>
      </trkpt>
      <trkpt lat="44.06416" lon="1.75942">
        <ele>373.4</ele>
        <time>2023-03-05T09:09:34Z</time>
      </trkpt>
      <trkpt lat="44.06413" lon="1.75942">
        <ele>373.8</ele>
        <time>2023-03-05T09:09:35Z</time>
      </trkpt>
      <trkpt lat="44.06411" lon="1.75941">
        <ele>374.4</ele>
        <time>2023-03-05T09:09:36Z</time>
      </trkpt>
      <trkpt lat="44.0641" lon="1.7594">
        <ele>374.6</ele>
        <time>2023-03-05T09:09:37Z</time>
      </trkpt>
      <trkpt lat="44.06408" lon="1.75939">
        <ele>374.8</ele>
        <time>2023-03-05T09:09:38Z</time>
      </trkpt>
      <trkpt lat="44.06406" lon="1.75938">
        <ele>375</ele>
        <time>2023-03-05T09:09:39Z</time>
      </trkpt>
      <trkpt lat="44.06404" lon="1.75936">
        <ele>375.6</ele>
        <time>2023-03-05T09:09:40Z</time>
      </trkpt>
      <trkpt lat="44.06402" lon="1.75936">
        <ele>375.8</ele>
        <time>2023-03-05T09:09:41Z</time>
      </trkpt>
      <trkpt lat="44.064" lon="1.75936">
        <ele>376.2</ele>
        <time>2023-03-05T09:09:42Z</time>
      </trkpt>
      <trkpt lat="44.06398" lon="1.75936">
        <ele>376.4</ele>
        <time>2023-03-05T09:09:43Z</time>
      </trkpt>
      <trkpt lat="44.06395" lon="1.75936">
        <ele>376.6</ele>
        <time>2023-03-05T09:09:44Z</time>
      </trkpt>
      <trkpt lat="44.06393" lon="1.75936">
        <ele>376.8</ele>
        <time>2023-03-05T09:09:45Z</time>
      </trkpt>
      <trkpt lat="44.06391" lon="1.75936">
        <ele>377</ele>
        <time>2023-03-05T09:09:46Z</time>
      </trkpt>
      <trkpt lat="44.06388" lon="1.75934">
        <ele>377.2</ele>
        <time>2023-03-05T09:09:47Z</time>
      </trkpt>
      <trkpt lat="44.06387" lon="1.75932">
        <ele>377.2</ele>
        <time>2023-03-05T09:09:48Z</time>
      </trkpt>
      <trkpt lat="44.06386" lon="1.75928">
        <ele>377.2</ele>
        <time>2023-03-05T09:09:49Z</time>
      </trkpt>
      <trkpt lat="44.06387" lon="1.75925">
        <ele>377.2</ele>
        <time>2023-03-05T09:09:50Z</time>
      </trkpt>
      <trkpt lat="44.06388" lon="1.75922">
        <ele>377.2</ele>
        <time>2023-03-05T09:09:51Z</time>
      </trkpt>
      <trkpt lat="44.06389" lon="1.75919">
        <ele>377.2</ele>
        <time>2023-03-05T09:09:52Z</time>
      </trkpt>
      <trkpt lat="44.06391" lon="1.75916">
        <ele>377.4</ele>
        <time>2023-03-05T09:09:53Z</time>
      </trkpt>
      <trkpt lat="44.06393" lon="1.75913">
        <ele>377.6</ele>
        <time>2023-03-05T09:09:54Z</time>
      </trkpt>
      <trkpt lat="44.06396" lon="1.7591">
        <ele>377.8</ele>
        <time>2023-03-05T09:09:55Z</time>
      </trkpt>
      <trkpt lat="44.06398" lon="1.75907">
        <ele>378</ele>
        <time>2023-03-05T09:09:56Z</time>
      </trkpt>
      <trkpt lat="44.064" lon="1.75903">
        <ele>378.2</ele>
        <time>2023-03-05T09:09:57Z</time>
      </trkpt>
      <trkpt lat="44.06402" lon="1.759">
        <ele>378.4</ele>
        <time>2023-03-05T09:09:58Z</time>
      </trkpt>
      <trkpt lat="44.06404" lon="1.75897">
        <ele>378.4</ele>
        <time>2023-03-05T09:09:59Z</time>
      </trkpt>
      <trkpt lat="44.06405" lon="1.75893">
        <ele>378.6</ele>
        <time>2023-03-05T09:10:00Z</time>
      </trkpt>
      <trkpt lat="44.06406" lon="1.75891">
        <ele>378.6</ele>
        <time>2023-03-05T09:10:01Z</time>
      </trkpt>
      <trkpt lat="44.06408" lon="1.75888">
        <ele>378.8</ele>
        <time>2023-03-05T09:10:02Z</time>
      </trkpt>
      <trkpt lat="44.06409" lon="1.75885">
        <ele>378.8</ele>
        <time>2023-03-05T09:10:03Z</time>
      </trkpt>
      <trkpt lat="44.06411" lon="1.75883">
        <ele>379</ele>
        <time>2023-03-05T09:10:04Z</time>
      </trkpt>
      <trkpt lat="44.06412" lon="1.7588">
        <ele>379.2</ele>
        <time>2023-03-05T09:10:05Z</time>
      </trkpt>
      <trkpt lat="44.06413" lon="1.75878">
        <ele>379.2</ele>
        <time>2023-03-05T09:10:06Z</time>
      </trkpt>
      <trkpt lat="44.06414" lon="1.75875">
        <ele>379.4</ele>
        <time>2023-03-05T09:10:07Z</time>
      </trkpt>
      <trkpt lat="44.06415" lon="1.75872">
        <ele>379.8</ele>
        <time>2023-03-05T09:10:08Z</time>
      </trkpt>
      <trkpt lat="44.06416" lon="1.7587">
        <ele>380</ele>
        <time>2023-03-05T09:10:09Z</time>
      </trkpt>
      <trkpt lat="44.06417" lon="1.75868">
        <ele>380</ele>
        <time>2023-03-05T09:10:10Z</time>
      </trkpt>
      <trkpt lat="44.06419" lon="1.75867">
        <ele>380.4</ele>
        <time>2023-03-05T09:10:11Z</time>
      </trkpt>
      <trkpt lat="44.0642" lon="1.75866">
        <ele>380.6</ele>
        <time>2023-03-05T09:10:12Z</time>
      </trkpt>
      <trkpt lat="44.06421" lon="1.75864">
        <ele>381</ele>
        <time>2023-03-05T09:10:13Z</time>
      </trkpt>
      <trkpt lat="44.06422" lon="1.75862">
        <ele>381</ele>
        <time>2023-03-05T09:10:14Z</time>
      </trkpt>
      <trkpt lat="44.06423" lon="1.75859">
        <ele>381.6</ele>
        <time>2023-03-05T09:10:15Z</time>
      </trkpt>
      <trkpt lat="44.06424" lon="1.75857">
        <ele>381.8</ele>
        <time>2023-03-05T09:10:16Z</time>
      </trkpt>
      <trkpt lat="44.06424" lon="1.75855">
        <ele>382.2</ele>
        <time>2023-03-05T09:10:17Z</time>
      </trkpt>
      <trkpt lat="44.06424" lon="1.75852">
        <ele>382.4</ele>
        <time>2023-03-05T09:10:18Z</time>
      </trkpt>
      <trkpt lat="44.06423" lon="1.75849">
        <ele>382.6</ele>
        <time>2023-03-05T09:10:19Z</time>
      </trkpt>
      <trkpt lat="44.06423" lon="1.75847">
        <ele>382.8</ele>
        <time>2023-03-05T09:10:20Z</time>
      </trkpt>
      <trkpt lat="44.06423" lon="1.75844">
        <ele>383</ele>
        <time>2023-03-05T09:10:21Z</time>
      </trkpt>
      <trkpt lat="44.06422" lon="1.75842">
        <ele>383.2</ele>
        <time>2023-03-05T09:10:22Z</time>
      </trkpt>
      <trkpt lat="44.06421" lon="1.75839">
        <ele>383.4</ele>
        <time>2023-03-05T09:10:23Z</time>
      </trkpt>
      <trkpt lat="44.0642" lon="1.75837">
        <ele>383.6</ele>
        <time>2023-03-05T09:10:24Z</time>
      </trkpt>
      <trkpt lat="44.0642" lon="1.75835">
        <ele>383.8</ele>
        <time>2023-03-05T09:10:25Z</time>
      </trkpt>
      <trkpt lat="44.06419" lon="1.75832">
        <ele>384.4</ele>
        <time>2023-03-05T09:10:26Z</time>
      </trkpt>
      <trkpt lat="44.06418" lon="1.7583">
        <ele>384.8</ele>
        <time>2023-03-05T09:10:27Z</time>
      </trkpt>
      <trkpt lat="44.06417" lon="1.75828">
        <ele>385.2</ele>
        <time>2023-03-05T09:10:28Z</time>
      </trkpt>
      <trkpt lat="44.06416" lon="1.75826">
        <ele>385.4</ele>
        <time>2023-03-05T09:10:29Z</time>
      </trkpt>
      <trkpt lat="44.06415" lon="1.75823">
        <ele>386</ele>
        <time>2023-03-05T09:10:30Z</time>
      </trkpt>
      <trkpt lat="44.06414" lon="1.7582">
        <ele>386.2</ele>
        <time>2023-03-05T09:10:31Z</time>
      </trkpt>
      <trkpt lat="44.06413" lon="1.75817">
        <ele>387</ele>
        <time>2023-03-05T09:10:32Z</time>
      </trkpt>
      <trkpt lat="44.06411" lon="1.75814">
        <ele>387.4</ele>
        <time>2023-03-05T09:10:33Z</time>
      </trkpt>
      <trkpt lat="44.06409" lon="1.75812">
        <ele>387.8</ele>
        <time>2023-03-05T09:10:34Z</time>
      </trkpt>
      <trkpt lat="44.06407" lon="1.75809">
        <ele>388.2</ele>
        <time>2023-03-05T09:10:35Z</time>
      </trkpt>
      <trkpt lat="44.06406" lon="1.75808">
        <ele>388.4</ele>
        <time>2023-03-05T09:10:36Z</time>
      </trkpt>
      <trkpt lat="44.06404" lon="1.75807">
        <ele>388.8</ele>
        <time>2023-03-05T09:10:37Z</time>
      </trkpt>
      <trkpt lat="44.06402" lon="1.75805">
        <ele>389</ele>
        <time>2023-03-05T09:10:38Z</time>
      </trkpt>
      <trkpt lat="44.06401" lon="1.75803">
        <ele>389.8</ele>
        <time>2023-03-05T09:10:39Z</time>
      </trkpt>
      <trkpt lat="44.064" lon="1.75801">
        <ele>390</ele>
        <time>2023-03-05T09:10:40Z</time>
      </trkpt>
      <trkpt lat="44.06399" lon="1.758">
        <ele>390.4</ele>
        <time>2023-03-05T09:10:41Z</time>
      </trkpt>
      <trkpt lat="44.06397" lon="1.75798">
        <ele>390.6</ele>
        <time>2023-03-05T09:10:42Z</time>
      </trkpt>
      <trkpt lat="44.06396" lon="1.75797">
        <ele>391.2</ele>
        <time>2023-03-05T09:10:43Z</time>
      </trkpt>
      <trkpt lat="44.06395" lon="1.75795">
        <ele>391.4</ele>
        <time>2023-03-05T09:10:44Z</time>
      </trkpt>
      <trkpt lat="44.06393" lon="1.75794">
        <ele>391.8</ele>
        <time>2023-03-05T09:10:45Z</time>
      </trkpt>
      <trkpt lat="44.06391" lon="1.75793">
        <ele>392</ele>
        <time>2023-03-05T09:10:46Z</time>
      </trkpt>
      <trkpt lat="44.0639" lon="1.75792">
        <ele>392.4</ele>
        <time>2023-03-05T09:10:47Z</time>
      </trkpt>
      <trkpt lat="44.06388" lon="1.7579">
        <ele>392.8</ele>
        <time>2023-03-05T09:10:48Z</time>
      </trkpt>
      <trkpt lat="44.06387" lon="1.75789">
        <ele>393</ele>
        <time>2023-03-05T09:10:49Z</time>
      </trkpt>
      <trkpt lat="44.06385" lon="1.75788">
        <ele>393.6</ele>
        <time>2023-03-05T09:10:50Z</time>
      </trkpt>
      <trkpt lat="44.06383" lon="1.75786">
        <ele>393.8</ele>
        <time>2023-03-05T09:10:51Z</time>
      </trkpt>
      <trkpt lat="44.06382" lon="1.75784">
        <ele>394.4</ele>
        <time>2023-03-05T09:10:52Z</time>
      </trkpt>
      <trkpt lat="44.0638" lon="1.75783">
        <ele>394.6</ele>
        <time>2023-03-05T09:10:53Z</time>
      </trkpt>
      <trkpt lat="44.06379" lon="1.75781">
        <ele>395.2</ele>
        <time>2023-03-05T09:10:54Z</time>
      </trkpt>
      <trkpt lat="44.06377" lon="1.7578">
        <ele>395.4</ele>
        <time>2023-03-05T09:10:55Z</time>
      </trkpt>
      <trkpt lat="44.06376" lon="1.75778">
        <ele>395.8</ele>
        <time>2023-03-05T09:10:56Z</time>
      </trkpt>
      <trkpt lat="44.06374" lon="1.75776">
        <ele>395.8</ele>
        <time>2023-03-05T09:10:57Z</time>
      </trkpt>
      <trkpt lat="44.06373" lon="1.75775">
        <ele>396.2</ele>
        <time>2023-03-05T09:10:58Z</time>
      </trkpt>
      <trkpt lat="44.06371" lon="1.75774">
        <ele>396.4</ele>
        <time>2023-03-05T09:10:59Z</time>
      </trkpt>
      <trkpt lat="44.0637" lon="1.75772">
        <ele>396.8</ele>
        <time>2023-03-05T09:11:00Z</time>
      </trkpt>
      <trkpt lat="44.06369" lon="1.7577">
        <ele>397</ele>
        <time>2023-03-05T09:11:01Z</time>
      </trkpt>
      <trkpt lat="44.06367" lon="1.75769">
        <ele>397.2</ele>
        <time>2023-03-05T09:11:02Z</time>
      </trkpt>
      <trkpt lat="44.06366" lon="1.75768">
        <ele>397.6</ele>
        <time>2023-03-05T09:11:03Z</time>
      </trkpt>
      <trkpt lat="44.06364" lon="1.75767">
        <ele>397.8</ele>
        <time>2023-03-05T09:11:04Z</time>
      </trkpt>
      <trkpt lat="44.06363" lon="1.75766">
        <ele>398.4</ele>
        <time>2023-03-05T09:11:05Z</time>
      </trkpt>
      <trkpt lat="44.06361" lon="1.75764">
        <ele>398.6</ele>
        <time>2023-03-05T09:11:06Z</time>
      </trkpt>
      <trkpt lat="44.06359" lon="1.75763">
        <ele>399</ele>
        <time>2023-03-05T09:11:07Z</time>
      </trkpt>
      <trkpt lat="44.06357" lon="1.75761">
        <ele>399.2</ele>
        <time>2023-03-05T09:11:08Z</time>
      </trkpt>
      <trkpt lat="44.06356" lon="1.7576">
        <ele>399.6</ele>
        <time>2023-03-05T09:11:09Z</time>
      </trkpt>
      <trkpt lat="44.06354" lon="1.75759">
        <ele>400</ele>
        <time>2023-03-05T09:11:10Z</time>
      </trkpt>
      <trkpt lat="44.06353" lon="1.75758">
        <ele>400.4</ele>
        <time>2023-03-05T09:11:11Z</time>
      </trkpt>
      <trkpt lat="44.06351" lon="1.75757">
        <ele>400.4</ele>
        <time>2023-03-05T09:11:12Z</time>
      </trkpt>
      <trkpt lat="44.06349" lon="1.75755">
        <ele>401</ele>
        <time>2023-03-05T09:11:13Z</time>
      </trkpt>
      <trkpt lat="44.06348" lon="1.75754">
        <ele>401.4</ele>
        <time>2023-03-05T09:11:14Z</time>
      </trkpt>
      <trkpt lat="44.06346" lon="1.75753">
        <ele>401.4</ele>
        <time>2023-03-05T09:11:15Z</time>
      </trkpt>
      <trkpt lat="44.06344" lon="1.75752">
        <ele>401.6</ele>
        <time>2023-03-05T09:11:16Z</time>
      </trkpt>
      <trkpt lat="44.06343" lon="1.75751">
        <ele>401.8</ele>
        <time>2023-03-05T09:11:17Z</time>
      </trkpt>
      <trkpt lat="44.06341" lon="1.7575">
        <ele>402.2</ele>
        <time>2023-03-05T09:11:18Z</time>
      </trkpt>
      <trkpt lat="44.06338" lon="1.75748">
        <ele>402.4</ele>
        <time>2023-03-05T09:11:19Z</time>
      </trkpt>
      <trkpt lat="44.06336" lon="1.75747">
        <ele>402.8</ele>
        <time>2023-03-05T09:11:20Z</time>
      </trkpt>
      <trkpt lat="44.06334" lon="1.75746">
        <ele>403</ele>
        <time>2023-03-05T09:11:21Z</time>
      </trkpt>
      <trkpt lat="44.06331" lon="1.75745">
        <ele>403.2</ele>
        <time>2023-03-05T09:11:22Z</time>
      </trkpt>
      <trkpt lat="44.06329" lon="1.75744">
        <ele>403.2</ele>
        <time>2023-03-05T09:11:23Z</time>
      </trkpt>
      <trkpt lat="44.06327" lon="1.75743">
        <ele>403.8</ele>
        <time>2023-03-05T09:11:24Z</time>
      </trkpt>
      <trkpt lat="44.06325" lon="1.75742">
        <ele>404.2</ele>
        <time>2023-03-05T09:11:25Z</time>
      </trkpt>
      <trkpt lat="44.06323" lon="1.75741">
        <ele>404.8</ele>
        <time>2023-03-05T09:11:26Z</time>
      </trkpt>
      <trkpt lat="44.0632" lon="1.7574">
        <ele>405.4</ele>
        <time>2023-03-05T09:11:27Z</time>
      </trkpt>
      <trkpt lat="44.06318" lon="1.7574">
        <ele>405.6</ele>
        <time>2023-03-05T09:11:28Z</time>
      </trkpt>
      <trkpt lat="44.06316" lon="1.75739">
        <ele>405.8</ele>
        <time>2023-03-05T09:11:29Z</time>
      </trkpt>
      <trkpt lat="44.06313" lon="1.75738">
        <ele>406</ele>
        <time>2023-03-05T09:11:30Z</time>
      </trkpt>
      <trkpt lat="44.06311" lon="1.75737">
        <ele>406.2</ele>
        <time>2023-03-05T09:11:31Z</time>
      </trkpt>
      <trkpt lat="44.06308" lon="1.75736">
        <ele>406.4</ele>
        <time>2023-03-05T09:11:32Z</time>
      </trkpt>
      <trkpt lat="44.06306" lon="1.75735">
        <ele>406.6</ele>
        <time>2023-03-05T09:11:33Z</time>
      </trkpt>
      <trkpt lat="44.06303" lon="1.75734">
        <ele>406.8</ele>
        <time>2023-03-05T09:11:34Z</time>
      </trkpt>
      <trkpt lat="44.06301" lon="1.75733">
        <ele>407.4</ele>
        <time>2023-03-05T09:11:35Z</time>
      </trkpt>
      <trkpt lat="44.06299" lon="1.75733">
        <ele>407.6</ele>
        <time>2023-03-05T09:11:36Z</time>
      </trkpt>
      <trkpt lat="44.06297" lon="1.75732">
        <ele>408</ele>
        <time>2023-03-05T09:11:37Z</time>
      </trkpt>
      <trkpt lat="44.06294" lon="1.75731">
        <ele>408</ele>
        <time>2023-03-05T09:11:38Z</time>
      </trkpt>
      <trkpt lat="44.06292" lon="1.7573">
        <ele>408.4</ele>
        <time>2023-03-05T09:11:39Z</time>
      </trkpt>
      <trkpt lat="44.0629" lon="1.75728">
        <ele>408.8</ele>
        <time>2023-03-05T09:11:40Z</time>
      </trkpt>
      <trkpt lat="44.06288" lon="1.75727">
        <ele>409</ele>
        <time>2023-03-05T09:11:41Z</time>
      </trkpt>
      <trkpt lat="44.06286" lon="1.75726">
        <ele>409.4</ele>
        <time>2023-03-05T09:11:42Z</time>
      </trkpt>
      <trkpt lat="44.06283" lon="1.75725">
        <ele>409.6</ele>
        <time>2023-03-05T09:11:43Z</time>
      </trkpt>
      <trkpt lat="44.06281" lon="1.75724">
        <ele>409.8</ele>
        <time>2023-03-05T09:11:44Z</time>
      </trkpt>
      <trkpt lat="44.06279" lon="1.75723">
        <ele>410</ele>
        <time>2023-03-05T09:11:45Z</time>
      </trkpt>
      <trkpt lat="44.06277" lon="1.75722">
        <ele>410.2</ele>
        <time>2023-03-05T09:11:46Z</time>
      </trkpt>
      <trkpt lat="44.06275" lon="1.75721">
        <ele>410.4</ele>
        <time>2023-03-05T09:11:47Z</time>
      </trkpt>
      <trkpt lat="44.06273" lon="1.7572">
        <ele>410.8</ele>
        <time>2023-03-05T09:11:48Z</time>
      </trkpt>
      <trkpt lat="44.06271" lon="1.75719">
        <ele>410.8</ele>
        <time>2023-03-05T09:11:49Z</time>
      </trkpt>
      <trkpt lat="44.06268" lon="1.75718">
        <ele>411</ele>
        <time>2023-03-05T09:11:50Z</time>
      </trkpt>
      <trkpt lat="44.06266" lon="1.75716">
        <ele>411</ele>
        <time>2023-03-05T09:11:51Z</time>
      </trkpt>
      <trkpt lat="44.06264" lon="1.75715">
        <ele>411.2</ele>
        <time>2023-03-05T09:11:52Z</time>
      </trkpt>
      <trkpt lat="44.06262" lon="1.75714">
        <ele>411.4</ele>
        <time>2023-03-05T09:11:53Z</time>
      </trkpt>
      <trkpt lat="44.0626" lon="1.75712">
        <ele>411.6</ele>
        <time>2023-03-05T09:11:54Z</time>
      </trkpt>
      <trkpt lat="44.06258" lon="1.75711">
        <ele>412</ele>
        <time>2023-03-05T09:11:55Z</time>
      </trkpt>
      <trkpt lat="44.06256" lon="1.7571">
        <ele>412.2</ele>
        <time>2023-03-05T09:11:56Z</time>
      </trkpt>
      <trkpt lat="44.06254" lon="1.75709">
        <ele>412.6</ele>
        <time>2023-03-05T09:11:57Z</time>
      </trkpt>
      <trkpt lat="44.06252" lon="1.75708">
        <ele>412.8</ele>
        <time>2023-03-05T09:11:58Z</time>
      </trkpt>
      <trkpt lat="44.0625" lon="1.75706">
        <ele>413.2</ele>
        <time>2023-03-05T09:11:59Z</time>
      </trkpt>
      <trkpt lat="44.06248" lon="1.75706">
        <ele>413.2</ele>
        <time>2023-03-05T09:12:00Z</time>
      </trkpt>
      <trkpt lat="44.06246" lon="1.75705">
        <ele>413.6</ele>
        <time>2023-03-05T09:12:01Z</time>
      </trkpt>
      <trkpt lat="44.06244" lon="1.75704">
        <ele>413.8</ele>
        <time>2023-03-05T09:12:02Z</time>
      </trkpt>
      <trkpt lat="44.06243" lon="1.75704">
        <ele>414</ele>
        <time>2023-03-05T09:12:03Z</time>
      </trkpt>
      <trkpt lat="44.06241" lon="1.75703">
        <ele>414.2</ele>
        <time>2023-03-05T09:12:04Z</time>
      </trkpt>
      <trkpt lat="44.06239" lon="1.75703">
        <ele>414.2</ele>
        <time>2023-03-05T09:12:05Z</time>
      </trkpt>
      <trkpt lat="44.06237" lon="1.75703">
        <ele>414.4</ele>
        <time>2023-03-05T09:12:06Z</time>
      </trkpt>
      <trkpt lat="44.06235" lon="1.75702">
        <ele>414.8</ele>
        <time>2023-03-05T09:12:07Z</time>
      </trkpt>
      <trkpt lat="44.06233" lon="1.75702">
        <ele>415</ele>
        <time>2023-03-05T09:12:08Z</time>
      </trkpt>
      <trkpt lat="44.06231" lon="1.75702">
        <ele>415.2</ele>
        <time>2023-03-05T09:12:09Z</time>
      </trkpt>
      <trkpt lat="44.06228" lon="1.75702">
        <ele>415.4</ele>
        <time>2023-03-05T09:12:10Z</time>
      </trkpt>
      <trkpt lat="44.06227" lon="1.75701">
        <ele>415.6</ele>
        <time>2023-03-05T09:12:11Z</time>
      </trkpt>
      <trkpt lat="44.06225" lon="1.75701">
        <ele>415.8</ele>
        <time>2023-03-05T09:12:12Z</time>
      </trkpt>
      <trkpt lat="44.06222" lon="1.757">
        <ele>416</ele>
        <time>2023-03-05T09:12:13Z</time>
      </trkpt>
      <trkpt lat="44.0622" lon="1.757">
        <ele>416.2</ele>
        <time>2023-03-05T09:12:14Z</time>
      </trkpt>
      <trkpt lat="44.06218" lon="1.757">
        <ele>416.6</ele>
        <time>2023-03-05T09:12:15Z</time>
      </trkpt>
      <trkpt lat="44.06215" lon="1.75701">
        <ele>417</ele>
        <time>2023-03-05T09:12:16Z</time>
      </trkpt>
      <trkpt lat="44.06213" lon="1.75701">
        <ele>417.2</ele>
        <time>2023-03-05T09:12:17Z</time>
      </trkpt>
      <trkpt lat="44.06211" lon="1.75701">
        <ele>417.2</ele>
        <time>2023-03-05T09:12:18Z</time>
      </trkpt>
      <trkpt lat="44.06209" lon="1.75701">
        <ele>417.6</ele>
        <time>2023-03-05T09:12:19Z</time>
      </trkpt>
      <trkpt lat="44.06206" lon="1.75702">
        <ele>418</ele>
        <time>2023-03-05T09:12:20Z</time>
      </trkpt>
      <trkpt lat="44.06204" lon="1.75702">
        <ele>418.2</ele>
        <time>2023-03-05T09:12:21Z</time>
      </trkpt>
      <trkpt lat="44.06202" lon="1.75702">
        <ele>418.4</ele>
        <time>2023-03-05T09:12:22Z</time>
      </trkpt>
      <trkpt lat="44.06199" lon="1.75702">
        <ele>418.6</ele>
        <time>2023-03-05T09:12:23Z</time>
      </trkpt>
      <trkpt lat="44.06197" lon="1.75701">
        <ele>418.6</ele>
        <time>2023-03-05T09:12:24Z</time>
      </trkpt>
      <trkpt lat="44.06194" lon="1.75701">
        <ele>419</ele>
        <time>2023-03-05T09:12:25Z</time>
      </trkpt>
      <trkpt lat="44.06192" lon="1.757">
        <ele>419.2</ele>
        <time>2023-03-05T09:12:26Z</time>
      </trkpt>
      <trkpt lat="44.0619" lon="1.757">
        <ele>419.4</ele>
        <time>2023-03-05T09:12:27Z</time>
      </trkpt>
      <trkpt lat="44.06188" lon="1.75699">
        <ele>419.4</ele>
        <time>2023-03-05T09:12:28Z</time>
      </trkpt>
      <trkpt lat="44.06185" lon="1.75699">
        <ele>419.8</ele>
        <time>2023-03-05T09:12:29Z</time>
      </trkpt>
      <trkpt lat="44.06183" lon="1.757">
        <ele>420.2</ele>
        <time>2023-03-05T09:12:30Z</time>
      </trkpt>
      <trkpt lat="44.0618" lon="1.757">
        <ele>420.2</ele>
        <time>2023-03-05T09:12:31Z</time>
      </trkpt>
      <trkpt lat="44.06177" lon="1.757">
        <ele>420.4</ele>
        <time>2023-03-05T09:12:32Z</time>
      </trkpt>
      <trkpt lat="44.06175" lon="1.757">
        <ele>420.6</ele>
        <time>2023-03-05T09:12:33Z</time>
      </trkpt>
      <trkpt lat="44.06173" lon="1.757">
        <ele>421</ele>
        <time>2023-03-05T09:12:34Z</time>
      </trkpt>
      <trkpt lat="44.0617" lon="1.757">
        <ele>421.2</ele>
        <time>2023-03-05T09:12:35Z</time>
      </trkpt>
      <trkpt lat="44.06168" lon="1.75699">
        <ele>421.8</ele>
        <time>2023-03-05T09:12:36Z</time>
      </trkpt>
      <trkpt lat="44.06166" lon="1.75699">
        <ele>422</ele>
        <time>2023-03-05T09:12:37Z</time>
      </trkpt>
      <trkpt lat="44.06164" lon="1.75698">
        <ele>422.2</ele>
        <time>2023-03-05T09:12:38Z</time>
      </trkpt>
      <trkpt lat="44.06161" lon="1.75699">
        <ele>422.2</ele>
        <time>2023-03-05T09:12:39Z</time>
      </trkpt>
      <trkpt lat="44.06159" lon="1.75699">
        <ele>422.4</ele>
        <time>2023-03-05T09:12:40Z</time>
      </trkpt>
      <trkpt lat="44.06157" lon="1.757">
        <ele>422.6</ele>
        <time>2023-03-05T09:12:41Z</time>
      </trkpt>
      <trkpt lat="44.06155" lon="1.75701">
        <ele>422.6</ele>
        <time>2023-03-05T09:12:42Z</time>
      </trkpt>
      <trkpt lat="44.06153" lon="1.75701">
        <ele>423.2</ele>
        <time>2023-03-05T09:12:43Z</time>
      </trkpt>
      <trkpt lat="44.06151" lon="1.757">
        <ele>423.4</ele>
        <time>2023-03-05T09:12:44Z</time>
      </trkpt>
      <trkpt lat="44.06149" lon="1.75701">
        <ele>423.6</ele>
        <time>2023-03-05T09:12:45Z</time>
      </trkpt>
      <trkpt lat="44.06147" lon="1.75701">
        <ele>423.6</ele>
        <time>2023-03-05T09:12:46Z</time>
      </trkpt>
      <trkpt lat="44.06145" lon="1.75701">
        <ele>423.8</ele>
        <time>2023-03-05T09:12:47Z</time>
      </trkpt>
      <trkpt lat="44.06142" lon="1.75701">
        <ele>424</ele>
        <time>2023-03-05T09:12:48Z</time>
      </trkpt>
      <trkpt lat="44.0614" lon="1.75701">
        <ele>424.2</ele>
        <time>2023-03-05T09:12:49Z</time>
      </trkpt>
      <trkpt lat="44.06137" lon="1.75701">
        <ele>424.6</ele>
        <time>2023-03-05T09:12:50Z</time>
      </trkpt>
      <trkpt lat="44.06135" lon="1.75702">
        <ele>425</ele>
        <time>2023-03-05T09:12:51Z</time>
      </trkpt>
      <trkpt lat="44.06132" lon="1.75702">
        <ele>425.2</ele>
        <time>2023-03-05T09:12:52Z</time>
      </trkpt>
      <trkpt lat="44.0613" lon="1.75702">
        <ele>425.4</ele>
        <time>2023-03-05T09:12:53Z</time>
      </trkpt>
      <trkpt lat="44.06127" lon="1.75702">
        <ele>425.6</ele>
        <time>2023-03-05T09:12:54Z</time>
      </trkpt>
      <trkpt lat="44.06124" lon="1.75702">
        <ele>425.8</ele>
        <time>2023-03-05T09:12:55Z</time>
      </trkpt>
      <trkpt lat="44.06122" lon="1.75702">
        <ele>426</ele>
        <time>2023-03-05T09:12:56Z</time>
      </trkpt>
      <trkpt lat="44.06119" lon="1.75702">
        <ele>426.2</ele>
        <time>2023-03-05T09:12:57Z</time>
      </trkpt>
      <trkpt lat="44.06118" lon="1.75702">
        <ele>426.4</ele>
        <time>2023-03-05T09:12:58Z</time>
      </trkpt>
      <trkpt lat="44.06116" lon="1.75702">
        <ele>426.4</ele>
        <time>2023-03-05T09:12:59Z</time>
      </trkpt>
      <trkpt lat="44.06114" lon="1.75702">
        <ele>426.6</ele>
        <time>2023-03-05T09:13:00Z</time>
      </trkpt>
      <trkpt lat="44.06111" lon="1.75702">
        <ele>426.8</ele>
        <time>2023-03-05T09:13:01Z</time>
      </trkpt>
      <trkpt lat="44.06108" lon="1.75701">
        <ele>427</ele>
        <time>2023-03-05T09:13:02Z</time>
      </trkpt>
      <trkpt lat="44.06105" lon="1.75701">
        <ele>427.2</ele>
        <time>2023-03-05T09:13:03Z</time>
      </trkpt>
      <trkpt lat="44.06103" lon="1.757">
        <ele>427.6</ele>
        <time>2023-03-05T09:13:04Z</time>
      </trkpt>
      <trkpt lat="44.06101" lon="1.757">
        <ele>427.6</ele>
        <time>2023-03-05T09:13:05Z</time>
      </trkpt>
      <trkpt lat="44.06099" lon="1.75701">
        <ele>428</ele>
        <time>2023-03-05T09:13:06Z</time>
      </trkpt>
      <trkpt lat="44.06097" lon="1.75701">
        <ele>428.2</ele>
        <time>2023-03-05T09:13:07Z</time>
      </trkpt>
      <trkpt lat="44.06095" lon="1.75702">
        <ele>428.2</ele>
        <time>2023-03-05T09:13:08Z</time>
      </trkpt>
      <trkpt lat="44.06093" lon="1.75702">
        <ele>428.6</ele>
        <time>2023-03-05T09:13:09Z</time>
      </trkpt>
      <trkpt lat="44.06091" lon="1.75702">
        <ele>428.8</ele>
        <time>2023-03-05T09:13:10Z</time>
      </trkpt>
      <trkpt lat="44.06088" lon="1.75703">
        <ele>429</ele>
        <time>2023-03-05T09:13:11Z</time>
      </trkpt>
      <trkpt lat="44.06086" lon="1.75703">
        <ele>429</ele>
        <time>2023-03-05T09:13:12Z</time>
      </trkpt>
      <trkpt lat="44.06083" lon="1.75704">
        <ele>429.4</ele>
        <time>2023-03-05T09:13:13Z</time>
      </trkpt>
      <trkpt lat="44.0608" lon="1.75704">
        <ele>429.6</ele>
        <time>2023-03-05T09:13:14Z</time>
      </trkpt>
      <trkpt lat="44.06078" lon="1.75704">
        <ele>429.8</ele>
        <time>2023-03-05T09:13:15Z</time>
      </trkpt>
      <trkpt lat="44.06075" lon="1.75704">
        <ele>430</ele>
        <time>2023-03-05T09:13:16Z</time>
      </trkpt>
      <trkpt lat="44.06072" lon="1.75704">
        <ele>430.2</ele>
        <time>2023-03-05T09:13:17Z</time>
      </trkpt>
      <trkpt lat="44.06068" lon="1.75705">
        <ele>430.4</ele>
        <time>2023-03-05T09:13:18Z</time>
      </trkpt>
      <trkpt lat="44.06066" lon="1.75706">
        <ele>430.6</ele>
        <time>2023-03-05T09:13:19Z</time>
      </trkpt>
      <trkpt lat="44.06063" lon="1.75707">
        <ele>431</ele>
        <time>2023-03-05T09:13:20Z</time>
      </trkpt>
      <trkpt lat="44.0606" lon="1.75708">
        <ele>431</ele>
        <time>2023-03-05T09:13:21Z</time>
      </trkpt>
      <trkpt lat="44.06058" lon="1.75709">
        <ele>431.4</ele>
        <time>2023-03-05T09:13:22Z</time>
      </trkpt>
      <trkpt lat="44.06055" lon="1.7571">
        <ele>431.6</ele>
        <time>2023-03-05T09:13:23Z</time>
      </trkpt>
      <trkpt lat="44.06053" lon="1.75711">
        <ele>432.2</ele>
        <time>2023-03-05T09:13:24Z</time>
      </trkpt>
      <trkpt lat="44.06051" lon="1.75711">
        <ele>432.2</ele>
        <time>2023-03-05T09:13:25Z</time>
      </trkpt>
      <trkpt lat="44.06048" lon="1.75712">
        <ele>432.8</ele>
        <time>2023-03-05T09:13:26Z</time>
      </trkpt>
      <trkpt lat="44.06046" lon="1.75714">
        <ele>433</ele>
        <time>2023-03-05T09:13:27Z</time>
      </trkpt>
      <trkpt lat="44.06044" lon="1.75714">
        <ele>433.4</ele>
        <time>2023-03-05T09:13:28Z</time>
      </trkpt>
      <trkpt lat="44.06042" lon="1.75715">
        <ele>433.4</ele>
        <time>2023-03-05T09:13:29Z</time>
      </trkpt>
      <trkpt lat="44.06039" lon="1.75715">
        <ele>434</ele>
        <time>2023-03-05T09:13:30Z</time>
      </trkpt>
      <trkpt lat="44.06036" lon="1.75714">
        <ele>434.2</ele>
        <time>2023-03-05T09:13:31Z</time>
      </trkpt>
      <trkpt lat="44.06034" lon="1.75713">
        <ele>434.6</ele>
        <time>2023-03-05T09:13:32Z</time>
      </trkpt>
      <trkpt lat="44.06031" lon="1.75712">
        <ele>435</ele>
        <time>2023-03-05T09:13:33Z</time>
      </trkpt>
      <trkpt lat="44.06028" lon="1.75712">
        <ele>435.2</ele>
        <time>2023-03-05T09:13:34Z</time>
      </trkpt>
      <trkpt lat="44.06025" lon="1.75712">
        <ele>435.6</ele>
        <time>2023-03-05T09:13:35Z</time>
      </trkpt>
      <trkpt lat="44.06022" lon="1.75713">
        <ele>435.6</ele>
        <time>2023-03-05T09:13:36Z</time>
      </trkpt>
      <trkpt lat="44.06019" lon="1.75713">
        <ele>436</ele>
        <time>2023-03-05T09:13:37Z</time>
      </trkpt>
      <trkpt lat="44.06017" lon="1.75714">
        <ele>436.2</ele>
        <time>2023-03-05T09:13:38Z</time>
      </trkpt>
      <trkpt lat="44.06014" lon="1.75715">
        <ele>436.6</ele>
        <time>2023-03-05T09:13:39Z</time>
      </trkpt>
      <trkpt lat="44.06012" lon="1.75716">
        <ele>437</ele>
        <time>2023-03-05T09:13:40Z</time>
      </trkpt>
      <trkpt lat="44.0601" lon="1.75716">
        <ele>437.8</ele>
        <time>2023-03-05T09:13:41Z</time>
      </trkpt>
      <trkpt lat="44.06007" lon="1.75716">
        <ele>438.2</ele>
        <time>2023-03-05T09:13:42Z</time>
      </trkpt>
      <trkpt lat="44.06005" lon="1.75717">
        <ele>438.6</ele>
        <time>2023-03-05T09:13:43Z</time>
      </trkpt>
      <trkpt lat="44.06002" lon="1.75717">
        <ele>438.8</ele>
        <time>2023-03-05T09:13:44Z</time>
      </trkpt>
      <trkpt lat="44.06" lon="1.75718">
        <ele>439.4</ele>
        <time>2023-03-05T09:13:45Z</time>
      </trkpt>
      <trkpt lat="44.05997" lon="1.75719">
        <ele>440.2</ele>
        <time>2023-03-05T09:13:46Z</time>
      </trkpt>
      <trkpt lat="44.05995" lon="1.7572">
        <ele>440.4</ele>
        <time>2023-03-05T09:13:47Z</time>
      </trkpt>
      <trkpt lat="44.05992" lon="1.75721">
        <ele>440.8</ele>
        <time>2023-03-05T09:13:48Z</time>
      </trkpt>
      <trkpt lat="44.05989" lon="1.75721">
        <ele>441</ele>
        <time>2023-03-05T09:13:49Z</time>
      </trkpt>
      <trkpt lat="44.05986" lon="1.75722">
        <ele>441.4</ele>
        <time>2023-03-05T09:13:50Z</time>
      </trkpt>
      <trkpt lat="44.05983" lon="1.75722">
        <ele>441.8</ele>
        <time>2023-03-05T09:13:51Z</time>
      </trkpt>
      <trkpt lat="44.0598" lon="1.75723">
        <ele>442.2</ele>
        <time>2023-03-05T09:13:52Z</time>
      </trkpt>
      <trkpt lat="44.05977" lon="1.75724">
        <ele>442.6</ele>
        <time>2023-03-05T09:13:53Z</time>
      </trkpt>
      <trkpt lat="44.05975" lon="1.75725">
        <ele>443.4</ele>
        <time>2023-03-05T09:13:54Z</time>
      </trkpt>
      <trkpt lat="44.05972" lon="1.75725">
        <ele>443.6</ele>
        <time>2023-03-05T09:13:55Z</time>
      </trkpt>
      <trkpt lat="44.0597" lon="1.75726">
        <ele>444.2</ele>
        <time>2023-03-05T09:13:56Z</time>
      </trkpt>
      <trkpt lat="44.05967" lon="1.75727">
        <ele>445</ele>
        <time>2023-03-05T09:13:57Z</time>
      </trkpt>
      <trkpt lat="44.05965" lon="1.75728">
        <ele>445.4</ele>
        <time>2023-03-05T09:13:58Z</time>
      </trkpt>
      <trkpt lat="44.05963" lon="1.75729">
        <ele>446.2</ele>
        <time>2023-03-05T09:13:59Z</time>
      </trkpt>
      <trkpt lat="44.0596" lon="1.75729">
        <ele>446.6</ele>
        <time>2023-03-05T09:14:00Z</time>
      </trkpt>
      <trkpt lat="44.05957" lon="1.7573">
        <ele>447.6</ele>
        <time>2023-03-05T09:14:01Z</time>
      </trkpt>
      <trkpt lat="44.05955" lon="1.75731">
        <ele>448</ele>
        <time>2023-03-05T09:14:02Z</time>
      </trkpt>
      <trkpt lat="44.05952" lon="1.75731">
        <ele>448.4</ele>
        <time>2023-03-05T09:14:03Z</time>
      </trkpt>
      <trkpt lat="44.0595" lon="1.75732">
        <ele>448.4</ele>
        <time>2023-03-05T09:14:04Z</time>
      </trkpt>
      <trkpt lat="44.05947" lon="1.75732">
        <ele>449</ele>
        <time>2023-03-05T09:14:05Z</time>
      </trkpt>
      <trkpt lat="44.05944" lon="1.75732">
        <ele>449.4</ele>
        <time>2023-03-05T09:14:06Z</time>
      </trkpt>
      <trkpt lat="44.05942" lon="1.75732">
        <ele>449.8</ele>
        <time>2023-03-05T09:14:07Z</time>
      </trkpt>
      <trkpt lat="44.0594" lon="1.75732">
        <ele>450</ele>
        <time>2023-03-05T09:14:08Z</time>
      </trkpt>
      <trkpt lat="44.05938" lon="1.75732">
        <ele>450.4</ele>
        <time>2023-03-05T09:14:09Z</time>
      </trkpt>
      <trkpt lat="44.05936" lon="1.75732">
        <ele>450.8</ele>
        <time>2023-03-05T09:14:10Z</time>
      </trkpt>
      <trkpt lat="44.05934" lon="1.75733">
        <ele>451</ele>
        <time>2023-03-05T09:14:11Z</time>
      </trkpt>
      <trkpt lat="44.05932" lon="1.75734">
        <ele>451.6</ele>
        <time>2023-03-05T09:14:12Z</time>
      </trkpt>
      <trkpt lat="44.05929" lon="1.75734">
        <ele>451.8</ele>
        <time>2023-03-05T09:14:13Z</time>
      </trkpt>
      <trkpt lat="44.05927" lon="1.75735">
        <ele>452</ele>
        <time>2023-03-05T09:14:14Z</time>
      </trkpt>
      <trkpt lat="44.05926" lon="1.75735">
        <ele>452.2</ele>
        <time>2023-03-05T09:14:15Z</time>
      </trkpt>
      <trkpt lat="44.05924" lon="1.75736">
        <ele>452.6</ele>
        <time>2023-03-05T09:14:16Z</time>
      </trkpt>
      <trkpt lat="44.05922" lon="1.75736">
        <ele>452.8</ele>
        <time>2023-03-05T09:14:17Z</time>
      </trkpt>
      <trkpt lat="44.0592" lon="1.75737">
        <ele>453.2</ele>
        <time>2023-03-05T09:14:18Z</time>
      </trkpt>
      <trkpt lat="44.05918" lon="1.75738">
        <ele>453.4</ele>
        <time>2023-03-05T09:14:19Z</time>
      </trkpt>
      <trkpt lat="44.05916" lon="1.75738">
        <ele>453.8</ele>
        <time>2023-03-05T09:14:20Z</time>
      </trkpt>
      <trkpt lat="44.05915" lon="1.75739">
        <ele>454</ele>
        <time>2023-03-05T09:14:21Z</time>
      </trkpt>
      <trkpt lat="44.05913" lon="1.7574">
        <ele>454.4</ele>
        <time>2023-03-05T09:14:22Z</time>
      </trkpt>
      <trkpt lat="44.0591" lon="1.75741">
        <ele>454.8</ele>
        <time>2023-03-05T09:14:23Z</time>
      </trkpt>
      <trkpt lat="44.05909" lon="1.75741">
        <ele>455</ele>
        <time>2023-03-05T09:14:24Z</time>
      </trkpt>
      <trkpt lat="44.05906" lon="1.75742">
        <ele>455.2</ele>
        <time>2023-03-05T09:14:25Z</time>
      </trkpt>
      <trkpt lat="44.05905" lon="1.75742">
        <ele>455.4</ele>
        <time>2023-03-05T09:14:26Z</time>
      </trkpt>
      <trkpt lat="44.05903" lon="1.75743">
        <ele>455.6</ele>
        <time>2023-03-05T09:14:27Z</time>
      </trkpt>
      <trkpt lat="44.05901" lon="1.75743">
        <ele>455.6</ele>
        <time>2023-03-05T09:14:28Z</time>
      </trkpt>
      <trkpt lat="44.05899" lon="1.75743">
        <ele>456.2</ele>
        <time>2023-03-05T09:14:29Z</time>
      </trkpt>
      <trkpt lat="44.05897" lon="1.75744">
        <ele>456.6</ele>
        <time>2023-03-05T09:14:30Z</time>
      </trkpt>
      <trkpt lat="44.05896" lon="1.75745">
        <ele>457.2</ele>
        <time>2023-03-05T09:14:31Z</time>
      </trkpt>
      <trkpt lat="44.05893" lon="1.75746">
        <ele>457.2</ele>
        <time>2023-03-05T09:14:32Z</time>
      </trkpt>
      <trkpt lat="44.05892" lon="1.75747">
        <ele>457.6</ele>
        <time>2023-03-05T09:14:33Z</time>
      </trkpt>
      <trkpt lat="44.0589" lon="1.75748">
        <ele>457.8</ele>
        <time>2023-03-05T09:14:34Z</time>
      </trkpt>
      <trkpt lat="44.05888" lon="1.75749">
        <ele>458</ele>
        <time>2023-03-05T09:14:35Z</time>
      </trkpt>
      <trkpt lat="44.05886" lon="1.7575">
        <ele>458.2</ele>
        <time>2023-03-05T09:14:36Z</time>
      </trkpt>
      <trkpt lat="44.05883" lon="1.7575">
        <ele>458.4</ele>
        <time>2023-03-05T09:14:37Z</time>
      </trkpt>
      <trkpt lat="44.05881" lon="1.75752">
        <ele>459</ele>
        <time>2023-03-05T09:14:38Z</time>
      </trkpt>
      <trkpt lat="44.05878" lon="1.75752">
        <ele>459</ele>
        <time>2023-03-05T09:14:39Z</time>
      </trkpt>
      <trkpt lat="44.05876" lon="1.75753">
        <ele>459.4</ele>
        <time>2023-03-05T09:14:40Z</time>
      </trkpt>
      <trkpt lat="44.05873" lon="1.75753">
        <ele>459.6</ele>
        <time>2023-03-05T09:14:41Z</time>
      </trkpt>
      <trkpt lat="44.05871" lon="1.75753">
        <ele>459.6</ele>
        <time>2023-03-05T09:14:42Z</time>
      </trkpt>
      <trkpt lat="44.05868" lon="1.75753">
        <ele>459.8</ele>
        <time>2023-03-05T09:14:43Z</time>
      </trkpt>
      <trkpt lat="44.05866" lon="1.75754">
        <ele>459.8</ele>
        <time>2023-03-05T09:14:44Z</time>
      </trkpt>
      <trkpt lat="44.05864" lon="1.75755">
        <ele>459.8</ele>
        <time>2023-03-05T09:14:45Z</time>
      </trkpt>
      <trkpt lat="44.05862" lon="1.75756">
        <ele>460</ele>
        <time>2023-03-05T09:14:46Z</time>
      </trkpt>
      <trkpt lat="44.0586" lon="1.75757">
        <ele>460.2</ele>
        <time>2023-03-05T09:14:47Z</time>
      </trkpt>
      <trkpt lat="44.05857" lon="1.75758">
        <ele>460.2</ele>
        <time>2023-03-05T09:14:48Z</time>
      </trkpt>
      <trkpt lat="44.05855" lon="1.75758">
        <ele>460.4</ele>
        <time>2023-03-05T09:14:49Z</time>
      </trkpt>
      <trkpt lat="44.05853" lon="1.75759">
        <ele>460.6</ele>
        <time>2023-03-05T09:14:50Z</time>
      </trkpt>
      <trkpt lat="44.05851" lon="1.7576">
        <ele>460.6</ele>
        <time>2023-03-05T09:14:51Z</time>
      </trkpt>
      <trkpt lat="44.05849" lon="1.75761">
        <ele>460.8</ele>
        <time>2023-03-05T09:14:52Z</time>
      </trkpt>
      <trkpt lat="44.05847" lon="1.75763">
        <ele>461</ele>
        <time>2023-03-05T09:14:53Z</time>
      </trkpt>
      <trkpt lat="44.05845" lon="1.75764">
        <ele>461.2</ele>
        <time>2023-03-05T09:14:54Z</time>
      </trkpt>
      <trkpt lat="44.05843" lon="1.75765">
        <ele>461.4</ele>
        <time>2023-03-05T09:14:55Z</time>
      </trkpt>
      <trkpt lat="44.05841" lon="1.75766">
        <ele>461.4</ele>
        <time>2023-03-05T09:14:56Z</time>
      </trkpt>
      <trkpt lat="44.05839" lon="1.75768">
        <ele>461.8</ele>
        <time>2023-03-05T09:14:57Z</time>
      </trkpt>
      <trkpt lat="44.05838" lon="1.75769">
        <ele>462</ele>
        <time>2023-03-05T09:14:58Z</time>
      </trkpt>
      <trkpt lat="44.05836" lon="1.75771">
        <ele>462.2</ele>
        <time>2023-03-05T09:14:59Z</time>
      </trkpt>
      <trkpt lat="44.05834" lon="1.75772">
        <ele>462.8</ele>
        <time>2023-03-05T09:15:00Z</time>
      </trkpt>
      <trkpt lat="44.05832" lon="1.75774">
        <ele>462.8</ele>
        <time>2023-03-05T09:15:01Z</time>
      </trkpt>
      <trkpt lat="44.05831" lon="1.75775">
        <ele>463</ele>
        <time>2023-03-05T09:15:02Z</time>
      </trkpt>
      <trkpt lat="44.05829" lon="1.75777">
        <ele>463.2</ele>
        <time>2023-03-05T09:15:03Z</time>
      </trkpt>
      <trkpt lat="44.05828" lon="1.75779">
        <ele>463.4</ele>
        <time>2023-03-05T09:15:04Z</time>
      </trkpt>
      <trkpt lat="44.05826" lon="1.7578">
        <ele>463.4</ele>
        <time>2023-03-05T09:15:05Z</time>
      </trkpt>
      <trkpt lat="44.05825" lon="1.75782">
        <ele>463.6</ele>
        <time>2023-03-05T09:15:06Z</time>
      </trkpt>
      <trkpt lat="44.05823" lon="1.75784">
        <ele>463.6</ele>
        <time>2023-03-05T09:15:07Z</time>
      </trkpt>
      <trkpt lat="44.05822" lon="1.75785">
        <ele>464.2</ele>
        <time>2023-03-05T09:15:08Z</time>
      </trkpt>
      <trkpt lat="44.0582" lon="1.75788">
        <ele>464.4</ele>
        <time>2023-03-05T09:15:09Z</time>
      </trkpt>
      <trkpt lat="44.05819" lon="1.7579">
        <ele>464.6</ele>
        <time>2023-03-05T09:15:10Z</time>
      </trkpt>
      <trkpt lat="44.05818" lon="1.75792">
        <ele>464.8</ele>
        <time>2023-03-05T09:15:11Z</time>
      </trkpt>
      <trkpt lat="44.05816" lon="1.75795">
        <ele>465.2</ele>
        <time>2023-03-05T09:15:12Z</time>
      </trkpt>
      <trkpt lat="44.05815" lon="1.75798">
        <ele>465.4</ele>
        <time>2023-03-05T09:15:13Z</time>
      </trkpt>
      <trkpt lat="44.05813" lon="1.758">
        <ele>465.6</ele>
        <time>2023-03-05T09:15:14Z</time>
      </trkpt>
      <trkpt lat="44.05812" lon="1.75803">
        <ele>465.8</ele>
        <time>2023-03-05T09:15:15Z</time>
      </trkpt>
      <trkpt lat="44.0581" lon="1.75805">
        <ele>465.8</ele>
        <time>2023-03-05T09:15:16Z</time>
      </trkpt>
      <trkpt lat="44.05809" lon="1.75808">
        <ele>466</ele>
        <time>2023-03-05T09:15:17Z</time>
      </trkpt>
      <trkpt lat="44.05807" lon="1.7581">
        <ele>466.2</ele>
        <time>2023-03-05T09:15:18Z</time>
      </trkpt>
      <trkpt lat="44.05806" lon="1.75813">
        <ele>466.4</ele>
        <time>2023-03-05T09:15:19Z</time>
      </trkpt>
      <trkpt lat="44.05805" lon="1.75815">
        <ele>466.4</ele>
        <time>2023-03-05T09:15:20Z</time>
      </trkpt>
      <trkpt lat="44.05803" lon="1.75817">
        <ele>466.6</ele>
        <time>2023-03-05T09:15:21Z</time>
      </trkpt>
      <trkpt lat="44.058" lon="1.75819">
        <ele>466.6</ele>
        <time>2023-03-05T09:15:22Z</time>
      </trkpt>
      <trkpt lat="44.05798" lon="1.75822">
        <ele>466.8</ele>
        <time>2023-03-05T09:15:23Z</time>
      </trkpt>
      <trkpt lat="44.05795" lon="1.75825">
        <ele>467</ele>
        <time>2023-03-05T09:15:24Z</time>
      </trkpt>
      <trkpt lat="44.05793" lon="1.75828">
        <ele>467</ele>
        <time>2023-03-05T09:15:25Z</time>
      </trkpt>
      <trkpt lat="44.0579" lon="1.75831">
        <ele>467.2</ele>
        <time>2023-03-05T09:15:26Z</time>
      </trkpt>
      <trkpt lat="44.05788" lon="1.75833">
        <ele>467.2</ele>
        <time>2023-03-05T09:15:27Z</time>
      </trkpt>
      <trkpt lat="44.05785" lon="1.75835">
        <ele>467.6</ele>
        <time>2023-03-05T09:15:28Z</time>
      </trkpt>
      <trkpt lat="44.05783" lon="1.75837">
        <ele>467.6</ele>
        <time>2023-03-05T09:15:29Z</time>
      </trkpt>
      <trkpt lat="44.05781" lon="1.75839">
        <ele>468</ele>
        <time>2023-03-05T09:15:30Z</time>
      </trkpt>
      <trkpt lat="44.05778" lon="1.75841">
        <ele>468.2</ele>
        <time>2023-03-05T09:15:31Z</time>
      </trkpt>
      <trkpt lat="44.05776" lon="1.75843">
        <ele>468.4</ele>
        <time>2023-03-05T09:15:32Z</time>
      </trkpt>
      <trkpt lat="44.05773" lon="1.75845">
        <ele>468.6</ele>
        <time>2023-03-05T09:15:33Z</time>
      </trkpt>
      <trkpt lat="44.05771" lon="1.75847">
        <ele>469</ele>
        <time>2023-03-05T09:15:34Z</time>
      </trkpt>
      <trkpt lat="44.05768" lon="1.75849">
        <ele>469.2</ele>
        <time>2023-03-05T09:15:35Z</time>
      </trkpt>
      <trkpt lat="44.05766" lon="1.75852">
        <ele>469.4</ele>
        <time>2023-03-05T09:15:36Z</time>
      </trkpt>
      <trkpt lat="44.05764" lon="1.75856">
        <ele>469.8</ele>
        <time>2023-03-05T09:15:37Z</time>
      </trkpt>
      <trkpt lat="44.05763" lon="1.75858">
        <ele>470</ele>
        <time>2023-03-05T09:15:38Z</time>
      </trkpt>
      <trkpt lat="44.05761" lon="1.75859">
        <ele>470.2</ele>
        <time>2023-03-05T09:15:39Z</time>
      </trkpt>
      <trkpt lat="44.05759" lon="1.7586">
        <ele>470.4</ele>
        <time>2023-03-05T09:15:40Z</time>
      </trkpt>
      <trkpt lat="44.05756" lon="1.75864">
        <ele>470.6</ele>
        <time>2023-03-05T09:15:41Z</time>
      </trkpt>
      <trkpt lat="44.05752" lon="1.75866">
        <ele>470.8</ele>
        <time>2023-03-05T09:15:42Z</time>
      </trkpt>
      <trkpt lat="44.05749" lon="1.7587">
        <ele>470.8</ele>
        <time>2023-03-05T09:15:43Z</time>
      </trkpt>
      <trkpt lat="44.05748" lon="1.75873">
        <ele>470.8</ele>
        <time>2023-03-05T09:15:44Z</time>
      </trkpt>
      <trkpt lat="44.05746" lon="1.75878">
        <ele>471.2</ele>
        <time>2023-03-05T09:15:45Z</time>
      </trkpt>
      <trkpt lat="44.05744" lon="1.75884">
        <ele>471.2</ele>
        <time>2023-03-05T09:15:46Z</time>
      </trkpt>
      <trkpt lat="44.0574" lon="1.7589">
        <ele>471.2</ele>
        <time>2023-03-05T09:15:47Z</time>
      </trkpt>
      <trkpt lat="44.05738" lon="1.75898">
        <ele>471.2</ele>
        <time>2023-03-05T09:15:48Z</time>
      </trkpt>
      <trkpt lat="44.05736" lon="1.75905">
        <ele>471.2</ele>
        <time>2023-03-05T09:15:49Z</time>
      </trkpt>
      <trkpt lat="44.05734" lon="1.75913">
        <ele>471</ele>
        <time>2023-03-05T09:15:50Z</time>
      </trkpt>
      <trkpt lat="44.05731" lon="1.7592">
        <ele>470.8</ele>
        <time>2023-03-05T09:15:51Z</time>
      </trkpt>
      <trkpt lat="44.05731" lon="1.75926">
        <ele>470.8</ele>
        <time>2023-03-05T09:15:52Z</time>
      </trkpt>
      <trkpt lat="44.05732" lon="1.75931">
        <ele>470.8</ele>
        <time>2023-03-05T09:15:53Z</time>
      </trkpt>
      <trkpt lat="44.05732" lon="1.75937">
        <ele>470.6</ele>
        <time>2023-03-05T09:15:54Z</time>
      </trkpt>
      <trkpt lat="44.05733" lon="1.75942">
        <ele>470.6</ele>
        <time>2023-03-05T09:15:55Z</time>
      </trkpt>
      <trkpt lat="44.05735" lon="1.75947">
        <ele>470.6</ele>
        <time>2023-03-05T09:15:56Z</time>
      </trkpt>
      <trkpt lat="44.05736" lon="1.7595">
        <ele>470.6</ele>
        <time>2023-03-05T09:15:57Z</time>
      </trkpt>
      <trkpt lat="44.05737" lon="1.75954">
        <ele>470.6</ele>
        <time>2023-03-05T09:15:58Z</time>
      </trkpt>
      <trkpt lat="44.05736" lon="1.75958">
        <ele>470.6</ele>
        <time>2023-03-05T09:15:59Z</time>
      </trkpt>
      <trkpt lat="44.05735" lon="1.75963">
        <ele>470.6</ele>
        <time>2023-03-05T09:16:00Z</time>
      </trkpt>
      <trkpt lat="44.05732" lon="1.75969">
        <ele>470.8</ele>
        <time>2023-03-05T09:16:01Z</time>
      </trkpt>
      <trkpt lat="44.05731" lon="1.75974">
        <ele>471</ele>
        <time>2023-03-05T09:16:02Z</time>
      </trkpt>
      <trkpt lat="44.05729" lon="1.75981">
        <ele>471.2</ele>
        <time>2023-03-05T09:16:03Z</time>
      </trkpt>
      <trkpt lat="44.05728" lon="1.75986">
        <ele>471.4</ele>
        <time>2023-03-05T09:16:04Z</time>
      </trkpt>
      <trkpt lat="44.05727" lon="1.75992">
        <ele>471.6</ele>
        <time>2023-03-05T09:16:05Z</time>
      </trkpt>
      <trkpt lat="44.05727" lon="1.75998">
        <ele>471.8</ele>
        <time>2023-03-05T09:16:06Z</time>
      </trkpt>
      <trkpt lat="44.05726" lon="1.76003">
        <ele>471.8</ele>
        <time>2023-03-05T09:16:07Z</time>
      </trkpt>
      <trkpt lat="44.05725" lon="1.76009">
        <ele>471.8</ele>
        <time>2023-03-05T09:16:08Z</time>
      </trkpt>
      <trkpt lat="44.05725" lon="1.76015">
        <ele>471.8</ele>
        <time>2023-03-05T09:16:09Z</time>
      </trkpt>
      <trkpt lat="44.05725" lon="1.76021">
        <ele>472</ele>
        <time>2023-03-05T09:16:10Z</time>
      </trkpt>
      <trkpt lat="44.05725" lon="1.76026">
        <ele>472</ele>
        <time>2023-03-05T09:16:11Z</time>
      </trkpt>
      <trkpt lat="44.05725" lon="1.76032">
        <ele>472.2</ele>
        <time>2023-03-05T09:16:12Z</time>
      </trkpt>
      <trkpt lat="44.05724" lon="1.76036">
        <ele>472.4</ele>
        <time>2023-03-05T09:16:13Z</time>
      </trkpt>
      <trkpt lat="44.05723" lon="1.76041">
        <ele>472.6</ele>
        <time>2023-03-05T09:16:14Z</time>
      </trkpt>
      <trkpt lat="44.05722" lon="1.76046">
        <ele>472.6</ele>
        <time>2023-03-05T09:16:15Z</time>
      </trkpt>
      <trkpt lat="44.05721" lon="1.76052">
        <ele>472.8</ele>
        <time>2023-03-05T09:16:16Z</time>
      </trkpt>
      <trkpt lat="44.05719" lon="1.76058">
        <ele>473</ele>
        <time>2023-03-05T09:16:17Z</time>
      </trkpt>
      <trkpt lat="44.05716" lon="1.76064">
        <ele>473.2</ele>
        <time>2023-03-05T09:16:18Z</time>
      </trkpt>
      <trkpt lat="44.05715" lon="1.76072">
        <ele>473.4</ele>
        <time>2023-03-05T09:16:19Z</time>
      </trkpt>
      <trkpt lat="44.05713" lon="1.76078">
        <ele>474</ele>
        <time>2023-03-05T09:16:20Z</time>
      </trkpt>
      <trkpt lat="44.05711" lon="1.76084">
        <ele>474.2</ele>
        <time>2023-03-05T09:16:21Z</time>
      </trkpt>
      <trkpt lat="44.05711" lon="1.76089">
        <ele>474.4</ele>
        <time>2023-03-05T09:16:22Z</time>
      </trkpt>
      <trkpt lat="44.05711" lon="1.76095">
        <ele>474.4</ele>
        <time>2023-03-05T09:16:23Z</time>
      </trkpt>
      <trkpt lat="44.05713" lon="1.76101">
        <ele>474.8</ele>
        <time>2023-03-05T09:16:24Z</time>
      </trkpt>
      <trkpt lat="44.05714" lon="1.76108">
        <ele>474.6</ele>
        <time>2023-03-05T09:16:25Z</time>
      </trkpt>
      <trkpt lat="44.05714" lon="1.76116">
        <ele>474.8</ele>
        <time>2023-03-05T09:16:26Z</time>
      </trkpt>
      <trkpt lat="44.05714" lon="1.76125">
        <ele>474.8</ele>
        <time>2023-03-05T09:16:27Z</time>
      </trkpt>
      <trkpt lat="44.05713" lon="1.76132">
        <ele>474.8</ele>
        <time>2023-03-05T09:16:28Z</time>
      </trkpt>
      <trkpt lat="44.05712" lon="1.7614">
        <ele>475.2</ele>
        <time>2023-03-05T09:16:29Z</time>
      </trkpt>
      <trkpt lat="44.05711" lon="1.76149">
        <ele>475.2</ele>
        <time>2023-03-05T09:16:30Z</time>
      </trkpt>
      <trkpt lat="44.0571" lon="1.76156">
        <ele>475.2</ele>
        <time>2023-03-05T09:16:31Z</time>
      </trkpt>
      <trkpt lat="44.05709" lon="1.76164">
        <ele>475.2</ele>
        <time>2023-03-05T09:16:32Z</time>
      </trkpt>
      <trkpt lat="44.05706" lon="1.76171">
        <ele>475.4</ele>
        <time>2023-03-05T09:16:33Z</time>
      </trkpt>
      <trkpt lat="44.05704" lon="1.76177">
        <ele>475.4</ele>
        <time>2023-03-05T09:16:34Z</time>
      </trkpt>
      <trkpt lat="44.05703" lon="1.76181">
        <ele>475.6</ele>
        <time>2023-03-05T09:16:35Z</time>
      </trkpt>
      <trkpt lat="44.05702" lon="1.76186">
        <ele>475.6</ele>
        <time>2023-03-05T09:16:36Z</time>
      </trkpt>
      <trkpt lat="44.057" lon="1.76191">
        <ele>475.6</ele>
        <time>2023-03-05T09:16:37Z</time>
      </trkpt>
      <trkpt lat="44.05698" lon="1.76196">
        <ele>475.8</ele>
        <time>2023-03-05T09:16:38Z</time>
      </trkpt>
      <trkpt lat="44.05697" lon="1.76201">
        <ele>475.8</ele>
        <time>2023-03-05T09:16:39Z</time>
      </trkpt>
      <trkpt lat="44.05696" lon="1.76205">
        <ele>476</ele>
        <time>2023-03-05T09:16:40Z</time>
      </trkpt>
      <trkpt lat="44.05695" lon="1.76208">
        <ele>476</ele>
        <time>2023-03-05T09:16:41Z</time>
      </trkpt>
      <trkpt lat="44.05693" lon="1.76212">
        <ele>476.4</ele>
        <time>2023-03-05T09:16:42Z</time>
      </trkpt>
      <trkpt lat="44.05692" lon="1.76216">
        <ele>476.4</ele>
        <time>2023-03-05T09:16:43Z</time>
      </trkpt>
      <trkpt lat="44.05691" lon="1.7622">
        <ele>476.8</ele>
        <time>2023-03-05T09:16:44Z</time>
      </trkpt>
      <trkpt lat="44.05691" lon="1.76223">
        <ele>477.2</ele>
        <time>2023-03-05T09:16:45Z</time>
      </trkpt>
      <trkpt lat="44.05691" lon="1.76227">
        <ele>477.8</ele>
        <time>2023-03-05T09:16:46Z</time>
      </trkpt>
      <trkpt lat="44.0569" lon="1.7623">
        <ele>478</ele>
        <time>2023-03-05T09:16:47Z</time>
      </trkpt>
      <trkpt lat="44.05689" lon="1.76235">
        <ele>478.4</ele>
        <time>2023-03-05T09:16:48Z</time>
      </trkpt>
      <trkpt lat="44.05689" lon="1.7624">
        <ele>478.8</ele>
        <time>2023-03-05T09:16:49Z</time>
      </trkpt>
      <trkpt lat="44.05688" lon="1.76246">
        <ele>479</ele>
        <time>2023-03-05T09:16:50Z</time>
      </trkpt>
      <trkpt lat="44.05688" lon="1.76251">
        <ele>479.4</ele>
        <time>2023-03-05T09:16:51Z</time>
      </trkpt>
      <trkpt lat="44.05688" lon="1.76256">
        <ele>479.6</ele>
        <time>2023-03-05T09:16:52Z</time>
      </trkpt>
      <trkpt lat="44.05687" lon="1.76262">
        <ele>480.2</ele>
        <time>2023-03-05T09:16:53Z</time>
      </trkpt>
      <trkpt lat="44.05686" lon="1.76268">
        <ele>480.4</ele>
        <time>2023-03-05T09:16:54Z</time>
      </trkpt>
      <trkpt lat="44.05686" lon="1.76273">
        <ele>480.8</ele>
        <time>2023-03-05T09:16:55Z</time>
      </trkpt>
      <trkpt lat="44.05685" lon="1.76279">
        <ele>481</ele>
        <time>2023-03-05T09:16:56Z</time>
      </trkpt>
      <trkpt lat="44.05684" lon="1.76286">
        <ele>481.4</ele>
        <time>2023-03-05T09:16:57Z</time>
      </trkpt>
      <trkpt lat="44.05684" lon="1.76292">
        <ele>481.4</ele>
        <time>2023-03-05T09:16:58Z</time>
      </trkpt>
      <trkpt lat="44.05683" lon="1.76297">
        <ele>481.6</ele>
        <time>2023-03-05T09:16:59Z</time>
      </trkpt>
      <trkpt lat="44.05682" lon="1.76303">
        <ele>481.6</ele>
        <time>2023-03-05T09:17:00Z</time>
      </trkpt>
      <trkpt lat="44.05683" lon="1.76309">
        <ele>481.8</ele>
        <time>2023-03-05T09:17:01Z</time>
      </trkpt>
      <trkpt lat="44.05683" lon="1.76315">
        <ele>481.8</ele>
        <time>2023-03-05T09:17:02Z</time>
      </trkpt>
      <trkpt lat="44.05682" lon="1.76322">
        <ele>481.8</ele>
        <time>2023-03-05T09:17:03Z</time>
      </trkpt>
      <trkpt lat="44.05682" lon="1.76328">
        <ele>481.8</ele>
        <time>2023-03-05T09:17:04Z</time>
      </trkpt>
      <trkpt lat="44.05682" lon="1.76334">
        <ele>482</ele>
        <time>2023-03-05T09:17:05Z</time>
      </trkpt>
      <trkpt lat="44.05682" lon="1.7634">
        <ele>482</ele>
        <time>2023-03-05T09:17:06Z</time>
      </trkpt>
      <trkpt lat="44.05681" lon="1.76346">
        <ele>482</ele>
        <time>2023-03-05T09:17:07Z</time>
      </trkpt>
      <trkpt lat="44.0568" lon="1.76353">
        <ele>482</ele>
        <time>2023-03-05T09:17:08Z</time>
      </trkpt>
      <trkpt lat="44.05681" lon="1.7636">
        <ele>482</ele>
        <time>2023-03-05T09:17:09Z</time>
      </trkpt>
      <trkpt lat="44.05681" lon="1.76366">
        <ele>481.8</ele>
        <time>2023-03-05T09:17:10Z</time>
      </trkpt>
      <trkpt lat="44.05681" lon="1.76372">
        <ele>481.8</ele>
        <time>2023-03-05T09:17:11Z</time>
      </trkpt>
      <trkpt lat="44.05682" lon="1.7638">
        <ele>481.8</ele>
        <time>2023-03-05T09:17:12Z</time>
      </trkpt>
      <trkpt lat="44.05683" lon="1.76387">
        <ele>481.6</ele>
        <time>2023-03-05T09:17:13Z</time>
      </trkpt>
      <trkpt lat="44.05683" lon="1.76394">
        <ele>481.6</ele>
        <time>2023-03-05T09:17:14Z</time>
      </trkpt>
      <trkpt lat="44.05683" lon="1.76402">
        <ele>481.6</ele>
        <time>2023-03-05T09:17:15Z</time>
      </trkpt>
      <trkpt lat="44.05683" lon="1.76411">
        <ele>481.6</ele>
        <time>2023-03-05T09:17:16Z</time>
      </trkpt>
      <trkpt lat="44.05683" lon="1.76419">
        <ele>481.4</ele>
        <time>2023-03-05T09:17:17Z</time>
      </trkpt>
      <trkpt lat="44.05684" lon="1.76428">
        <ele>481.4</ele>
        <time>2023-03-05T09:17:18Z</time>
      </trkpt>
      <trkpt lat="44.05685" lon="1.76437">
        <ele>480.8</ele>
        <time>2023-03-05T09:17:19Z</time>
      </trkpt>
      <trkpt lat="44.05686" lon="1.76445">
        <ele>480.6</ele>
        <time>2023-03-05T09:17:20Z</time>
      </trkpt>
      <trkpt lat="44.05687" lon="1.76452">
        <ele>480.2</ele>
        <time>2023-03-05T09:17:21Z</time>
      </trkpt>
      <trkpt lat="44.05688" lon="1.76458">
        <ele>480</ele>
        <time>2023-03-05T09:17:22Z</time>
      </trkpt>
      <trkpt lat="44.05689" lon="1.76463">
        <ele>479.4</ele>
        <time>2023-03-05T09:17:23Z</time>
      </trkpt>
      <trkpt lat="44.05692" lon="1.76467">
        <ele>479.2</ele>
        <time>2023-03-05T09:17:24Z</time>
      </trkpt>
      <trkpt lat="44.05695" lon="1.76471">
        <ele>479</ele>
        <time>2023-03-05T09:17:25Z</time>
      </trkpt>
      <trkpt lat="44.05699" lon="1.76475">
        <ele>478.6</ele>
        <time>2023-03-05T09:17:26Z</time>
      </trkpt>
      <trkpt lat="44.05703" lon="1.7648">
        <ele>478.6</ele>
        <time>2023-03-05T09:17:27Z</time>
      </trkpt>
      <trkpt lat="44.05707" lon="1.76485">
        <ele>478.6</ele>
        <time>2023-03-05T09:17:28Z</time>
      </trkpt>
      <trkpt lat="44.05711" lon="1.76492">
        <ele>478.4</ele>
        <time>2023-03-05T09:17:29Z</time>
      </trkpt>
      <trkpt lat="44.05714" lon="1.765">
        <ele>477.8</ele>
        <time>2023-03-05T09:17:30Z</time>
      </trkpt>
      <trkpt lat="44.05716" lon="1.76507">
        <ele>477.8</ele>
        <time>2023-03-05T09:17:31Z</time>
      </trkpt>
      <trkpt lat="44.05717" lon="1.76515">
        <ele>477.2</ele>
        <time>2023-03-05T09:17:32Z</time>
      </trkpt>
      <trkpt lat="44.05719" lon="1.76523">
        <ele>477.2</ele>
        <time>2023-03-05T09:17:33Z</time>
      </trkpt>
      <trkpt lat="44.0572" lon="1.7653">
        <ele>476.8</ele>
        <time>2023-03-05T09:17:34Z</time>
      </trkpt>
      <trkpt lat="44.05722" lon="1.76537">
        <ele>476.4</ele>
        <time>2023-03-05T09:17:35Z</time>
      </trkpt>
      <trkpt lat="44.05723" lon="1.76544">
        <ele>476</ele>
        <time>2023-03-05T09:17:36Z</time>
      </trkpt>
      <trkpt lat="44.05725" lon="1.76551">
        <ele>475.8</ele>
        <time>2023-03-05T09:17:37Z</time>
      </trkpt>
      <trkpt lat="44.05727" lon="1.76557">
        <ele>475.8</ele>
        <time>2023-03-05T09:17:38Z</time>
      </trkpt>
      <trkpt lat="44.05728" lon="1.76565">
        <ele>475.4</ele>
        <time>2023-03-05T09:17:39Z</time>
      </trkpt>
      <trkpt lat="44.05729" lon="1.76572">
        <ele>475.2</ele>
        <time>2023-03-05T09:17:40Z</time>
      </trkpt>
      <trkpt lat="44.0573" lon="1.7658">
        <ele>474.8</ele>
        <time>2023-03-05T09:17:41Z</time>
      </trkpt>
      <trkpt lat="44.0573" lon="1.76588">
        <ele>474.8</ele>
        <time>2023-03-05T09:17:42Z</time>
      </trkpt>
      <trkpt lat="44.05731" lon="1.76595">
        <ele>474.2</ele>
        <time>2023-03-05T09:17:43Z</time>
      </trkpt>
      <trkpt lat="44.05732" lon="1.76603">
        <ele>473.8</ele>
        <time>2023-03-05T09:17:44Z</time>
      </trkpt>
      <trkpt lat="44.05734" lon="1.7661">
        <ele>473.4</ele>
        <time>2023-03-05T09:17:45Z</time>
      </trkpt>
      <trkpt lat="44.05736" lon="1.76616">
        <ele>473</ele>
        <time>2023-03-05T09:17:46Z</time>
      </trkpt>
      <trkpt lat="44.0574" lon="1.76621">
        <ele>472.4</ele>
        <time>2023-03-05T09:17:47Z</time>
      </trkpt>
      <trkpt lat="44.05745" lon="1.76624">
        <ele>472</ele>
        <time>2023-03-05T09:17:48Z</time>
      </trkpt>
      <trkpt lat="44.0575" lon="1.76626">
        <ele>470.8</ele>
        <time>2023-03-05T09:17:49Z</time>
      </trkpt>
      <trkpt lat="44.05754" lon="1.76629">
        <ele>470</ele>
        <time>2023-03-05T09:17:50Z</time>
      </trkpt>
      <trkpt lat="44.05757" lon="1.76633">
        <ele>469.4</ele>
        <time>2023-03-05T09:17:51Z</time>
      </trkpt>
      <trkpt lat="44.05759" lon="1.76639">
        <ele>468.6</ele>
        <time>2023-03-05T09:17:52Z</time>
      </trkpt>
      <trkpt lat="44.05758" lon="1.76646">
        <ele>468.4</ele>
        <time>2023-03-05T09:17:53Z</time>
      </trkpt>
      <trkpt lat="44.05755" lon="1.76652">
        <ele>467.6</ele>
        <time>2023-03-05T09:17:54Z</time>
      </trkpt>
      <trkpt lat="44.05751" lon="1.76659">
        <ele>467.4</ele>
        <time>2023-03-05T09:17:55Z</time>
      </trkpt>
      <trkpt lat="44.05745" lon="1.76664">
        <ele>466.6</ele>
        <time>2023-03-05T09:17:56Z</time>
      </trkpt>
      <trkpt lat="44.05739" lon="1.76668">
        <ele>466.4</ele>
        <time>2023-03-05T09:17:57Z</time>
      </trkpt>
      <trkpt lat="44.05733" lon="1.76674">
        <ele>466</ele>
        <time>2023-03-05T09:17:58Z</time>
      </trkpt>
      <trkpt lat="44.05728" lon="1.76679">
        <ele>465.6</ele>
        <time>2023-03-05T09:17:59Z</time>
      </trkpt>
      <trkpt lat="44.05725" lon="1.76687">
        <ele>464.8</ele>
        <time>2023-03-05T09:18:00Z</time>
      </trkpt>
      <trkpt lat="44.05723" lon="1.76694">
        <ele>464.6</ele>
        <time>2023-03-05T09:18:01Z</time>
      </trkpt>
      <trkpt lat="44.05721" lon="1.76702">
        <ele>464</ele>
        <time>2023-03-05T09:18:02Z</time>
      </trkpt>
      <trkpt lat="44.05722" lon="1.76709">
        <ele>463.6</ele>
        <time>2023-03-05T09:18:03Z</time>
      </trkpt>
      <trkpt lat="44.05722" lon="1.76716">
        <ele>463.6</ele>
        <time>2023-03-05T09:18:04Z</time>
      </trkpt>
      <trkpt lat="44.05723" lon="1.76721">
        <ele>463.4</ele>
        <time>2023-03-05T09:18:05Z</time>
      </trkpt>
      <trkpt lat="44.05724" lon="1.76727">
        <ele>463.2</ele>
        <time>2023-03-05T09:18:06Z</time>
      </trkpt>
      <trkpt lat="44.05724" lon="1.76733">
        <ele>463</ele>
        <time>2023-03-05T09:18:07Z</time>
      </trkpt>
      <trkpt lat="44.05725" lon="1.76739">
        <ele>462.8</ele>
        <time>2023-03-05T09:18:08Z</time>
      </trkpt>
      <trkpt lat="44.05725" lon="1.76744">
        <ele>462.8</ele>
        <time>2023-03-05T09:18:09Z</time>
      </trkpt>
      <trkpt lat="44.05726" lon="1.76748">
        <ele>462.8</ele>
        <time>2023-03-05T09:18:10Z</time>
      </trkpt>
      <trkpt lat="44.05726" lon="1.76754">
        <ele>463</ele>
        <time>2023-03-05T09:18:11Z</time>
      </trkpt>
      <trkpt lat="44.05726" lon="1.76759">
        <ele>463</ele>
        <time>2023-03-05T09:18:12Z</time>
      </trkpt>
      <trkpt lat="44.05727" lon="1.76765">
        <ele>463.4</ele>
        <time>2023-03-05T09:18:13Z</time>
      </trkpt>
      <trkpt lat="44.05728" lon="1.7677">
        <ele>464.2</ele>
        <time>2023-03-05T09:18:14Z</time>
      </trkpt>
      <trkpt lat="44.05729" lon="1.76775">
        <ele>464.4</ele>
        <time>2023-03-05T09:18:15Z</time>
      </trkpt>
      <trkpt lat="44.05729" lon="1.76779">
        <ele>464.8</ele>
        <time>2023-03-05T09:18:16Z</time>
      </trkpt>
      <trkpt lat="44.05729" lon="1.76784">
        <ele>465</ele>
        <time>2023-03-05T09:18:17Z</time>
      </trkpt>
      <trkpt lat="44.05729" lon="1.76789">
        <ele>465.8</ele>
        <time>2023-03-05T09:18:18Z</time>
      </trkpt>
      <trkpt lat="44.05729" lon="1.76793">
        <ele>466</ele>
        <time>2023-03-05T09:18:19Z</time>
      </trkpt>
      <trkpt lat="44.0573" lon="1.76798">
        <ele>466.6</ele>
        <time>2023-03-05T09:18:20Z</time>
      </trkpt>
      <trkpt lat="44.0573" lon="1.76803">
        <ele>466.8</ele>
        <time>2023-03-05T09:18:21Z</time>
      </trkpt>
      <trkpt lat="44.0573" lon="1.76808">
        <ele>467.6</ele>
        <time>2023-03-05T09:18:22Z</time>
      </trkpt>
      <trkpt lat="44.0573" lon="1.76814">
        <ele>468</ele>
        <time>2023-03-05T09:18:23Z</time>
      </trkpt>
      <trkpt lat="44.0573" lon="1.7682">
        <ele>468.8</ele>
        <time>2023-03-05T09:18:24Z</time>
      </trkpt>
      <trkpt lat="44.0573" lon="1.76825">
        <ele>469</ele>
        <time>2023-03-05T09:18:25Z</time>
      </trkpt>
      <trkpt lat="44.0573" lon="1.7683">
        <ele>469.6</ele>
        <time>2023-03-05T09:18:26Z</time>
      </trkpt>
      <trkpt lat="44.05731" lon="1.76837">
        <ele>470</ele>
        <time>2023-03-05T09:18:27Z</time>
      </trkpt>
      <trkpt lat="44.05731" lon="1.76842">
        <ele>470.2</ele>
        <time>2023-03-05T09:18:28Z</time>
      </trkpt>
      <trkpt lat="44.05731" lon="1.76848">
        <ele>470.6</ele>
        <time>2023-03-05T09:18:29Z</time>
      </trkpt>
      <trkpt lat="44.05731" lon="1.76854">
        <ele>470.8</ele>
        <time>2023-03-05T09:18:30Z</time>
      </trkpt>
      <trkpt lat="44.05732" lon="1.76859">
        <ele>471.2</ele>
        <time>2023-03-05T09:18:31Z</time>
      </trkpt>
      <trkpt lat="44.05733" lon="1.76865">
        <ele>471.4</ele>
        <time>2023-03-05T09:18:32Z</time>
      </trkpt>
      <trkpt lat="44.05734" lon="1.76871">
        <ele>471.8</ele>
        <time>2023-03-05T09:18:33Z</time>
      </trkpt>
      <trkpt lat="44.05734" lon="1.76876">
        <ele>472</ele>
        <time>2023-03-05T09:18:34Z</time>
      </trkpt>
      <trkpt lat="44.05735" lon="1.76882">
        <ele>472.2</ele>
        <time>2023-03-05T09:18:35Z</time>
      </trkpt>
      <trkpt lat="44.05736" lon="1.76888">
        <ele>472.4</ele>
        <time>2023-03-05T09:18:36Z</time>
      </trkpt>
      <trkpt lat="44.05736" lon="1.76894">
        <ele>472.6</ele>
        <time>2023-03-05T09:18:37Z</time>
      </trkpt>
      <trkpt lat="44.05736" lon="1.76901">
        <ele>472.8</ele>
        <time>2023-03-05T09:18:38Z</time>
      </trkpt>
      <trkpt lat="44.05736" lon="1.76906">
        <ele>472.8</ele>
        <time>2023-03-05T09:18:39Z</time>
      </trkpt>
      <trkpt lat="44.05736" lon="1.76911">
        <ele>473</ele>
        <time>2023-03-05T09:18:40Z</time>
      </trkpt>
      <trkpt lat="44.05736" lon="1.76917">
        <ele>473.2</ele>
        <time>2023-03-05T09:18:41Z</time>
      </trkpt>
      <trkpt lat="44.05737" lon="1.76922">
        <ele>473.4</ele>
        <time>2023-03-05T09:18:42Z</time>
      </trkpt>
      <trkpt lat="44.05737" lon="1.76927">
        <ele>473.4</ele>
        <time>2023-03-05T09:18:43Z</time>
      </trkpt>
      <trkpt lat="44.05738" lon="1.76932">
        <ele>473.6</ele>
        <time>2023-03-05T09:18:44Z</time>
      </trkpt>
      <trkpt lat="44.05739" lon="1.76937">
        <ele>473.6</ele>
        <time>2023-03-05T09:18:45Z</time>
      </trkpt>
      <trkpt lat="44.05739" lon="1.76941">
        <ele>473.6</ele>
        <time>2023-03-05T09:18:46Z</time>
      </trkpt>
      <trkpt lat="44.0574" lon="1.76947">
        <ele>473.6</ele>
        <time>2023-03-05T09:18:47Z</time>
      </trkpt>
      <trkpt lat="44.05741" lon="1.76953">
        <ele>473.6</ele>
        <time>2023-03-05T09:18:48Z</time>
      </trkpt>
      <trkpt lat="44.05741" lon="1.7696">
        <ele>473.6</ele>
        <time>2023-03-05T09:18:49Z</time>
      </trkpt>
      <trkpt lat="44.05742" lon="1.76968">
        <ele>473.6</ele>
        <time>2023-03-05T09:18:50Z</time>
      </trkpt>
      <trkpt lat="44.05742" lon="1.76977">
        <ele>473.4</ele>
        <time>2023-03-05T09:18:51Z</time>
      </trkpt>
      <trkpt lat="44.05742" lon="1.76986">
        <ele>473.2</ele>
        <time>2023-03-05T09:18:52Z</time>
      </trkpt>
      <trkpt lat="44.05742" lon="1.76996">
        <ele>473.2</ele>
        <time>2023-03-05T09:18:53Z</time>
      </trkpt>
      <trkpt lat="44.05742" lon="1.77006">
        <ele>473</ele>
        <time>2023-03-05T09:18:54Z</time>
      </trkpt>
      <trkpt lat="44.05742" lon="1.77016">
        <ele>473</ele>
        <time>2023-03-05T09:18:55Z</time>
      </trkpt>
      <trkpt lat="44.05743" lon="1.77026">
        <ele>473</ele>
        <time>2023-03-05T09:18:56Z</time>
      </trkpt>
      <trkpt lat="44.05745" lon="1.77035">
        <ele>472.4</ele>
        <time>2023-03-05T09:18:57Z</time>
      </trkpt>
      <trkpt lat="44.05747" lon="1.77045">
        <ele>472.2</ele>
        <time>2023-03-05T09:18:58Z</time>
      </trkpt>
      <trkpt lat="44.0575" lon="1.77056">
        <ele>471.8</ele>
        <time>2023-03-05T09:18:59Z</time>
      </trkpt>
      <trkpt lat="44.05754" lon="1.77066">
        <ele>471.6</ele>
        <time>2023-03-05T09:19:00Z</time>
      </trkpt>
      <trkpt lat="44.05758" lon="1.77077">
        <ele>471</ele>
        <time>2023-03-05T09:19:01Z</time>
      </trkpt>
      <trkpt lat="44.05763" lon="1.77087">
        <ele>470.4</ele>
        <time>2023-03-05T09:19:02Z</time>
      </trkpt>
      <trkpt lat="44.05768" lon="1.77096">
        <ele>470</ele>
        <time>2023-03-05T09:19:03Z</time>
      </trkpt>
      <trkpt lat="44.05773" lon="1.77105">
        <ele>469</ele>
        <time>2023-03-05T09:19:04Z</time>
      </trkpt>
      <trkpt lat="44.05778" lon="1.77114">
        <ele>468.8</ele>
        <time>2023-03-05T09:19:05Z</time>
      </trkpt>
      <trkpt lat="44.05782" lon="1.77123">
        <ele>468</ele>
        <time>2023-03-05T09:19:06Z</time>
      </trkpt>
      <trkpt lat="44.05786" lon="1.77132">
        <ele>467.6</ele>
        <time>2023-03-05T09:19:07Z</time>
      </trkpt>
      <trkpt lat="44.0579" lon="1.77139">
        <ele>466.6</ele>
        <time>2023-03-05T09:19:08Z</time>
      </trkpt>
      <trkpt lat="44.05794" lon="1.77146">
        <ele>466.2</ele>
        <time>2023-03-05T09:19:09Z</time>
      </trkpt>
      <trkpt lat="44.05799" lon="1.77153">
        <ele>465.8</ele>
        <time>2023-03-05T09:19:10Z</time>
      </trkpt>
      <trkpt lat="44.05804" lon="1.77159">
        <ele>465.8</ele>
        <time>2023-03-05T09:19:11Z</time>
      </trkpt>
      <trkpt lat="44.0581" lon="1.77164">
        <ele>465.2</ele>
        <time>2023-03-05T09:19:12Z</time>
      </trkpt>
      <trkpt lat="44.05815" lon="1.77169">
        <ele>465</ele>
        <time>2023-03-05T09:19:13Z</time>
      </trkpt>
      <trkpt lat="44.0582" lon="1.77173">
        <ele>464.6</ele>
        <time>2023-03-05T09:19:14Z</time>
      </trkpt>
      <trkpt lat="44.05825" lon="1.77178">
        <ele>464.4</ele>
        <time>2023-03-05T09:19:15Z</time>
      </trkpt>
      <trkpt lat="44.0583" lon="1.77183">
        <ele>464.2</ele>
        <time>2023-03-05T09:19:16Z</time>
      </trkpt>
      <trkpt lat="44.05834" lon="1.77187">
        <ele>464.2</ele>
        <time>2023-03-05T09:19:17Z</time>
      </trkpt>
      <trkpt lat="44.05837" lon="1.77191">
        <ele>464</ele>
        <time>2023-03-05T09:19:18Z</time>
      </trkpt>
      <trkpt lat="44.05838" lon="1.77194">
        <ele>464</ele>
        <time>2023-03-05T09:19:19Z</time>
      </trkpt>
      <trkpt lat="44.05837" lon="1.77196">
        <ele>464</ele>
        <time>2023-03-05T09:19:20Z</time>
      </trkpt>
      <trkpt lat="44.05835" lon="1.77197">
        <ele>464</ele>
        <time>2023-03-05T09:19:21Z</time>
      </trkpt>
      <trkpt lat="44.05832" lon="1.77197">
        <ele>464.2</ele>
        <time>2023-03-05T09:19:22Z</time>
      </trkpt>
      <trkpt lat="44.05829" lon="1.77197">
        <ele>464.2</ele>
        <time>2023-03-05T09:19:23Z</time>
      </trkpt>
      <trkpt lat="44.05825" lon="1.77196">
        <ele>464.2</ele>
        <time>2023-03-05T09:19:24Z</time>
      </trkpt>
      <trkpt lat="44.05821" lon="1.77195">
        <ele>464.4</ele>
        <time>2023-03-05T09:19:25Z</time>
      </trkpt>
      <trkpt lat="44.05817" lon="1.77194">
        <ele>464.4</ele>
        <time>2023-03-05T09:19:26Z</time>
      </trkpt>
      <trkpt lat="44.05812" lon="1.77193">
        <ele>464.6</ele>
        <time>2023-03-05T09:19:27Z</time>
      </trkpt>
      <trkpt lat="44.05808" lon="1.77192">
        <ele>464.8</ele>
        <time>2023-03-05T09:19:28Z</time>
      </trkpt>
      <trkpt lat="44.05804" lon="1.77191">
        <ele>465</ele>
        <time>2023-03-05T09:19:29Z</time>
      </trkpt>
      <trkpt lat="44.05799" lon="1.77191">
        <ele>465.2</ele>
        <time>2023-03-05T09:19:30Z</time>
      </trkpt>
      <trkpt lat="44.05795" lon="1.7719">
        <ele>465.2</ele>
        <time>2023-03-05T09:19:31Z</time>
      </trkpt>
      <trkpt lat="44.0579" lon="1.77189">
        <ele>465.6</ele>
        <time>2023-03-05T09:19:32Z</time>
      </trkpt>
      <trkpt lat="44.05786" lon="1.77189">
        <ele>465.6</ele>
        <time>2023-03-05T09:19:33Z</time>
      </trkpt>
      <trkpt lat="44.05781" lon="1.77188">
        <ele>465.8</ele>
        <time>2023-03-05T09:19:34Z</time>
      </trkpt>
      <trkpt lat="44.05777" lon="1.77187">
        <ele>465.8</ele>
        <time>2023-03-05T09:19:35Z</time>
      </trkpt>
      <trkpt lat="44.05773" lon="1.77186">
        <ele>466</ele>
        <time>2023-03-05T09:19:36Z</time>
      </trkpt>
      <trkpt lat="44.05769" lon="1.77185">
        <ele>466</ele>
        <time>2023-03-05T09:19:37Z</time>
      </trkpt>
      <trkpt lat="44.05765" lon="1.77184">
        <ele>466.2</ele>
        <time>2023-03-05T09:19:38Z</time>
      </trkpt>
      <trkpt lat="44.05762" lon="1.77183">
        <ele>466.6</ele>
        <time>2023-03-05T09:19:39Z</time>
      </trkpt>
      <trkpt lat="44.05758" lon="1.77182">
        <ele>466.6</ele>
        <time>2023-03-05T09:19:40Z</time>
      </trkpt>
      <trkpt lat="44.05755" lon="1.77181">
        <ele>466.8</ele>
        <time>2023-03-05T09:19:41Z</time>
      </trkpt>
      <trkpt lat="44.05752" lon="1.77179">
        <ele>467</ele>
        <time>2023-03-05T09:19:42Z</time>
      </trkpt>
      <trkpt lat="44.05749" lon="1.77178">
        <ele>467.4</ele>
        <time>2023-03-05T09:19:43Z</time>
      </trkpt>
      <trkpt lat="44.05745" lon="1.77177">
        <ele>467.6</ele>
        <time>2023-03-05T09:19:44Z</time>
      </trkpt>
      <trkpt lat="44.05743" lon="1.77176">
        <ele>468</ele>
        <time>2023-03-05T09:19:45Z</time>
      </trkpt>
      <trkpt lat="44.0574" lon="1.77175">
        <ele>468.2</ele>
        <time>2023-03-05T09:19:46Z</time>
      </trkpt>
      <trkpt lat="44.05737" lon="1.77174">
        <ele>468.4</ele>
        <time>2023-03-05T09:19:47Z</time>
      </trkpt>
      <trkpt lat="44.05735" lon="1.77172">
        <ele>468.6</ele>
        <time>2023-03-05T09:19:48Z</time>
      </trkpt>
      <trkpt lat="44.05732" lon="1.77171">
        <ele>468.8</ele>
        <time>2023-03-05T09:19:49Z</time>
      </trkpt>
      <trkpt lat="44.05729" lon="1.77171">
        <ele>469</ele>
        <time>2023-03-05T09:19:50Z</time>
      </trkpt>
      <trkpt lat="44.05727" lon="1.7717">
        <ele>469.4</ele>
        <time>2023-03-05T09:19:51Z</time>
      </trkpt>
      <trkpt lat="44.05724" lon="1.77169">
        <ele>470</ele>
        <time>2023-03-05T09:19:52Z</time>
      </trkpt>
      <trkpt lat="44.05722" lon="1.77168">
        <ele>470.2</ele>
        <time>2023-03-05T09:19:53Z</time>
      </trkpt>
      <trkpt lat="44.05719" lon="1.77167">
        <ele>470.6</ele>
        <time>2023-03-05T09:19:54Z</time>
      </trkpt>
      <trkpt lat="44.05716" lon="1.77166">
        <ele>470.8</ele>
        <time>2023-03-05T09:19:55Z</time>
      </trkpt>
      <trkpt lat="44.05713" lon="1.77166">
        <ele>471.2</ele>
        <time>2023-03-05T09:19:56Z</time>
      </trkpt>
      <trkpt lat="44.05711" lon="1.77165">
        <ele>471.6</ele>
        <time>2023-03-05T09:19:57Z</time>
      </trkpt>
      <trkpt lat="44.05708" lon="1.77165">
        <ele>472.2</ele>
        <time>2023-03-05T09:19:58Z</time>
      </trkpt>
      <trkpt lat="44.05706" lon="1.77164">
        <ele>472.4</ele>
        <time>2023-03-05T09:19:59Z</time>
      </trkpt>
      <trkpt lat="44.05703" lon="1.77163">
        <ele>473</ele>
        <time>2023-03-05T09:20:00Z</time>
      </trkpt>
      <trkpt lat="44.057" lon="1.77162">
        <ele>473.2</ele>
        <time>2023-03-05T09:20:01Z</time>
      </trkpt>
      <trkpt lat="44.05698" lon="1.77162">
        <ele>474</ele>
        <time>2023-03-05T09:20:02Z</time>
      </trkpt>
      <trkpt lat="44.05695" lon="1.77162">
        <ele>474.2</ele>
        <time>2023-03-05T09:20:03Z</time>
      </trkpt>
      <trkpt lat="44.05692" lon="1.77162">
        <ele>474.6</ele>
        <time>2023-03-05T09:20:04Z</time>
      </trkpt>
      <trkpt lat="44.0569" lon="1.77162">
        <ele>475.2</ele>
        <time>2023-03-05T09:20:05Z</time>
      </trkpt>
      <trkpt lat="44.05687" lon="1.77161">
        <ele>475.4</ele>
        <time>2023-03-05T09:20:06Z</time>
      </trkpt>
      <trkpt lat="44.05685" lon="1.77161">
        <ele>476</ele>
        <time>2023-03-05T09:20:07Z</time>
      </trkpt>
      <trkpt lat="44.05682" lon="1.77161">
        <ele>476.2</ele>
        <time>2023-03-05T09:20:08Z</time>
      </trkpt>
      <trkpt lat="44.0568" lon="1.7716">
        <ele>476.4</ele>
        <time>2023-03-05T09:20:09Z</time>
      </trkpt>
      <trkpt lat="44.05677" lon="1.7716">
        <ele>476.8</ele>
        <time>2023-03-05T09:20:10Z</time>
      </trkpt>
      <trkpt lat="44.05675" lon="1.7716">
        <ele>477.2</ele>
        <time>2023-03-05T09:20:11Z</time>
      </trkpt>
      <trkpt lat="44.05672" lon="1.77159">
        <ele>477.6</ele>
        <time>2023-03-05T09:20:12Z</time>
      </trkpt>
      <trkpt lat="44.0567" lon="1.77159">
        <ele>478.2</ele>
        <time>2023-03-05T09:20:13Z</time>
      </trkpt>
      <trkpt lat="44.05667" lon="1.77159">
        <ele>478.4</ele>
        <time>2023-03-05T09:20:14Z</time>
      </trkpt>
      <trkpt lat="44.05665" lon="1.77158">
        <ele>478.8</ele>
        <time>2023-03-05T09:20:15Z</time>
      </trkpt>
      <trkpt lat="44.05663" lon="1.77158">
        <ele>479.2</ele>
        <time>2023-03-05T09:20:16Z</time>
      </trkpt>
      <trkpt lat="44.0566" lon="1.77158">
        <ele>479.4</ele>
        <time>2023-03-05T09:20:17Z</time>
      </trkpt>
      <trkpt lat="44.05658" lon="1.77158">
        <ele>480</ele>
        <time>2023-03-05T09:20:18Z</time>
      </trkpt>
      <trkpt lat="44.05655" lon="1.77158">
        <ele>480.2</ele>
        <time>2023-03-05T09:20:19Z</time>
      </trkpt>
      <trkpt lat="44.05653" lon="1.77157">
        <ele>480.4</ele>
        <time>2023-03-05T09:20:20Z</time>
      </trkpt>
      <trkpt lat="44.05651" lon="1.77157">
        <ele>480.6</ele>
        <time>2023-03-05T09:20:21Z</time>
      </trkpt>
      <trkpt lat="44.05649" lon="1.77157">
        <ele>481.2</ele>
        <time>2023-03-05T09:20:22Z</time>
      </trkpt>
      <trkpt lat="44.05646" lon="1.77157">
        <ele>481.4</ele>
        <time>2023-03-05T09:20:23Z</time>
      </trkpt>
      <trkpt lat="44.05644" lon="1.77157">
        <ele>481.8</ele>
        <time>2023-03-05T09:20:24Z</time>
      </trkpt>
      <trkpt lat="44.05642" lon="1.77157">
        <ele>482</ele>
        <time>2023-03-05T09:20:25Z</time>
      </trkpt>
      <trkpt lat="44.05639" lon="1.77156">
        <ele>482.4</ele>
        <time>2023-03-05T09:20:26Z</time>
      </trkpt>
      <trkpt lat="44.05637" lon="1.77156">
        <ele>482.6</ele>
        <time>2023-03-05T09:20:27Z</time>
      </trkpt>
      <trkpt lat="44.05635" lon="1.77155">
        <ele>483</ele>
        <time>2023-03-05T09:20:28Z</time>
      </trkpt>
      <trkpt lat="44.05633" lon="1.77155">
        <ele>483.4</ele>
        <time>2023-03-05T09:20:29Z</time>
      </trkpt>
      <trkpt lat="44.0563" lon="1.77154">
        <ele>483.6</ele>
        <time>2023-03-05T09:20:30Z</time>
      </trkpt>
      <trkpt lat="44.05628" lon="1.77154">
        <ele>484</ele>
        <time>2023-03-05T09:20:31Z</time>
      </trkpt>
      <trkpt lat="44.05626" lon="1.77154">
        <ele>484</ele>
        <time>2023-03-05T09:20:32Z</time>
      </trkpt>
      <trkpt lat="44.05623" lon="1.77154">
        <ele>484.4</ele>
        <time>2023-03-05T09:20:33Z</time>
      </trkpt>
      <trkpt lat="44.0562" lon="1.77154">
        <ele>484.6</ele>
        <time>2023-03-05T09:20:34Z</time>
      </trkpt>
      <trkpt lat="44.05618" lon="1.77154">
        <ele>484.8</ele>
        <time>2023-03-05T09:20:35Z</time>
      </trkpt>
      <trkpt lat="44.05615" lon="1.77155">
        <ele>485</ele>
        <time>2023-03-05T09:20:36Z</time>
      </trkpt>
      <trkpt lat="44.05613" lon="1.77155">
        <ele>485.4</ele>
        <time>2023-03-05T09:20:37Z</time>
      </trkpt>
      <trkpt lat="44.0561" lon="1.77156">
        <ele>485.4</ele>
        <time>2023-03-05T09:20:38Z</time>
      </trkpt>
      <trkpt lat="44.05608" lon="1.77157">
        <ele>485.8</ele>
        <time>2023-03-05T09:20:39Z</time>
      </trkpt>
      <trkpt lat="44.05606" lon="1.77159">
        <ele>486.2</ele>
        <time>2023-03-05T09:20:40Z</time>
      </trkpt>
      <trkpt lat="44.05604" lon="1.77161">
        <ele>486.4</ele>
        <time>2023-03-05T09:20:41Z</time>
      </trkpt>
      <trkpt lat="44.05602" lon="1.77163">
        <ele>486.8</ele>
        <time>2023-03-05T09:20:42Z</time>
      </trkpt>
      <trkpt lat="44.056" lon="1.77166">
        <ele>486.8</ele>
        <time>2023-03-05T09:20:43Z</time>
      </trkpt>
      <trkpt lat="44.05599" lon="1.7717">
        <ele>487</ele>
        <time>2023-03-05T09:20:44Z</time>
      </trkpt>
      <trkpt lat="44.05598" lon="1.77173">
        <ele>487.4</ele>
        <time>2023-03-05T09:20:45Z</time>
      </trkpt>
      <trkpt lat="44.05597" lon="1.77178">
        <ele>487.6</ele>
        <time>2023-03-05T09:20:46Z</time>
      </trkpt>
      <trkpt lat="44.05597" lon="1.77182">
        <ele>487.8</ele>
        <time>2023-03-05T09:20:47Z</time>
      </trkpt>
      <trkpt lat="44.05597" lon="1.77186">
        <ele>487.8</ele>
        <time>2023-03-05T09:20:48Z</time>
      </trkpt>
      <trkpt lat="44.05597" lon="1.77189">
        <ele>488</ele>
        <time>2023-03-05T09:20:49Z</time>
      </trkpt>
      <trkpt lat="44.05597" lon="1.77195">
        <ele>488.2</ele>
        <time>2023-03-05T09:20:50Z</time>
      </trkpt>
      <trkpt lat="44.05597" lon="1.772">
        <ele>488.2</ele>
        <time>2023-03-05T09:20:51Z</time>
      </trkpt>
      <trkpt lat="44.05596" lon="1.77205">
        <ele>488.4</ele>
        <time>2023-03-05T09:20:52Z</time>
      </trkpt>
      <trkpt lat="44.05596" lon="1.7721">
        <ele>488.4</ele>
        <time>2023-03-05T09:20:53Z</time>
      </trkpt>
      <trkpt lat="44.05595" lon="1.77214">
        <ele>488.4</ele>
        <time>2023-03-05T09:20:54Z</time>
      </trkpt>
      <trkpt lat="44.05595" lon="1.77219">
        <ele>488.6</ele>
        <time>2023-03-05T09:20:55Z</time>
      </trkpt>
      <trkpt lat="44.05595" lon="1.77225">
        <ele>488.6</ele>
        <time>2023-03-05T09:20:56Z</time>
      </trkpt>
      <trkpt lat="44.05594" lon="1.77229">
        <ele>488.8</ele>
        <time>2023-03-05T09:20:57Z</time>
      </trkpt>
      <trkpt lat="44.05594" lon="1.77233">
        <ele>488.8</ele>
        <time>2023-03-05T09:20:58Z</time>
      </trkpt>
      <trkpt lat="44.05594" lon="1.77239">
        <ele>489</ele>
        <time>2023-03-05T09:20:59Z</time>
      </trkpt>
      <trkpt lat="44.05593" lon="1.77244">
        <ele>489</ele>
        <time>2023-03-05T09:21:00Z</time>
      </trkpt>
      <trkpt lat="44.05593" lon="1.77248">
        <ele>489</ele>
        <time>2023-03-05T09:21:01Z</time>
      </trkpt>
      <trkpt lat="44.05593" lon="1.77251">
        <ele>489.2</ele>
        <time>2023-03-05T09:21:02Z</time>
      </trkpt>
      <trkpt lat="44.05593" lon="1.77256">
        <ele>489.4</ele>
        <time>2023-03-05T09:21:03Z</time>
      </trkpt>
      <trkpt lat="44.05592" lon="1.77259">
        <ele>489.4</ele>
        <time>2023-03-05T09:21:04Z</time>
      </trkpt>
      <trkpt lat="44.05592" lon="1.77263">
        <ele>489.6</ele>
        <time>2023-03-05T09:21:05Z</time>
      </trkpt>
      <trkpt lat="44.05593" lon="1.77266">
        <ele>489.8</ele>
        <time>2023-03-05T09:21:06Z</time>
      </trkpt>
      <trkpt lat="44.05593" lon="1.77269">
        <ele>489.8</ele>
        <time>2023-03-05T09:21:07Z</time>
      </trkpt>
      <trkpt lat="44.05593" lon="1.77273">
        <ele>489.8</ele>
        <time>2023-03-05T09:21:08Z</time>
      </trkpt>
      <trkpt lat="44.05593" lon="1.77277">
        <ele>490</ele>
        <time>2023-03-05T09:21:09Z</time>
      </trkpt>
      <trkpt lat="44.05593" lon="1.7728">
        <ele>490</ele>
        <time>2023-03-05T09:21:10Z</time>
      </trkpt>
      <trkpt lat="44.05593" lon="1.77284">
        <ele>490.2</ele>
        <time>2023-03-05T09:21:11Z</time>
      </trkpt>
      <trkpt lat="44.05593" lon="1.77289">
        <ele>490.2</ele>
        <time>2023-03-05T09:21:12Z</time>
      </trkpt>
      <trkpt lat="44.05593" lon="1.77292">
        <ele>490.4</ele>
        <time>2023-03-05T09:21:13Z</time>
      </trkpt>
      <trkpt lat="44.05593" lon="1.77295">
        <ele>490.4</ele>
        <time>2023-03-05T09:21:14Z</time>
      </trkpt>
      <trkpt lat="44.05593" lon="1.77298">
        <ele>490.6</ele>
        <time>2023-03-05T09:21:15Z</time>
      </trkpt>
      <trkpt lat="44.05594" lon="1.77301">
        <ele>490.6</ele>
        <time>2023-03-05T09:21:16Z</time>
      </trkpt>
      <trkpt lat="44.05593" lon="1.77304">
        <ele>490.6</ele>
        <time>2023-03-05T09:21:17Z</time>
      </trkpt>
      <trkpt lat="44.05591" lon="1.77305">
        <ele>490.6</ele>
        <time>2023-03-05T09:21:18Z</time>
      </trkpt>
      <trkpt lat="44.05591" lon="1.77305">
        <ele>490.6</ele>
        <time>2023-03-05T09:21:19Z</time>
      </trkpt>
      <trkpt lat="44.05591" lon="1.77305">
        <ele>490.6</ele>
        <time>2023-03-05T09:21:20Z</time>
      </trkpt>
      <trkpt lat="44.05591" lon="1.77305">
        <ele>490.6</ele>
        <time>2023-03-05T09:21:21Z</time>
      </trkpt>
      <trkpt lat="44.05592" lon="1.77312">
        <ele>490.2</ele>
        <time>2023-03-05T09:27:20Z</time>
      </trkpt>
      <trkpt lat="44.05592" lon="1.77316">
        <ele>490.2</ele>
        <time>2023-03-05T09:27:21Z</time>
      </trkpt>
      <trkpt lat="44.05591" lon="1.7732">
        <ele>490.2</ele>
        <time>2023-03-05T09:27:22Z</time>
      </trkpt>
      <trkpt lat="44.05591" lon="1.77324">
        <ele>490.2</ele>
        <time>2023-03-05T09:27:23Z</time>
      </trkpt>
      <trkpt lat="44.0559" lon="1.77328">
        <ele>490</ele>
        <time>2023-03-05T09:27:24Z</time>
      </trkpt>
      <trkpt lat="44.05589" lon="1.77334">
        <ele>490</ele>
        <time>2023-03-05T09:27:25Z</time>
      </trkpt>
      <trkpt lat="44.05588" lon="1.7734">
        <ele>490</ele>
        <time>2023-03-05T09:27:26Z</time>
      </trkpt>
      <trkpt lat="44.05588" lon="1.77347">
        <ele>490</ele>
        <time>2023-03-05T09:27:27Z</time>
      </trkpt>
      <trkpt lat="44.05586" lon="1.77354">
        <ele>489.8</ele>
        <time>2023-03-05T09:27:28Z</time>
      </trkpt>
      <trkpt lat="44.05585" lon="1.77361">
        <ele>489.8</ele>
        <time>2023-03-05T09:27:29Z</time>
      </trkpt>
      <trkpt lat="44.05584" lon="1.77369">
        <ele>489.8</ele>
        <time>2023-03-05T09:27:30Z</time>
      </trkpt>
      <trkpt lat="44.05582" lon="1.77377">
        <ele>489.8</ele>
        <time>2023-03-05T09:27:31Z</time>
      </trkpt>
      <trkpt lat="44.0558" lon="1.77385">
        <ele>489.6</ele>
        <time>2023-03-05T09:27:32Z</time>
      </trkpt>
      <trkpt lat="44.05578" lon="1.77393">
        <ele>489.4</ele>
        <time>2023-03-05T09:27:33Z</time>
      </trkpt>
      <trkpt lat="44.05575" lon="1.774">
        <ele>489.4</ele>
        <time>2023-03-05T09:27:34Z</time>
      </trkpt>
      <trkpt lat="44.05571" lon="1.77407">
        <ele>489.2</ele>
        <time>2023-03-05T09:27:35Z</time>
      </trkpt>
      <trkpt lat="44.05568" lon="1.77411">
        <ele>489</ele>
        <time>2023-03-05T09:27:36Z</time>
      </trkpt>
      <trkpt lat="44.05563" lon="1.77414">
        <ele>488.6</ele>
        <time>2023-03-05T09:27:37Z</time>
      </trkpt>
      <trkpt lat="44.05559" lon="1.77414">
        <ele>488.2</ele>
        <time>2023-03-05T09:27:38Z</time>
      </trkpt>
      <trkpt lat="44.05555" lon="1.77412">
        <ele>488.2</ele>
        <time>2023-03-05T09:27:39Z</time>
      </trkpt>
      <trkpt lat="44.0555" lon="1.77411">
        <ele>487.8</ele>
        <time>2023-03-05T09:27:40Z</time>
      </trkpt>
      <trkpt lat="44.05546" lon="1.77411">
        <ele>487.6</ele>
        <time>2023-03-05T09:27:41Z</time>
      </trkpt>
      <trkpt lat="44.05543" lon="1.77412">
        <ele>487.6</ele>
        <time>2023-03-05T09:27:42Z</time>
      </trkpt>
      <trkpt lat="44.05541" lon="1.77415">
        <ele>487.6</ele>
        <time>2023-03-05T09:27:43Z</time>
      </trkpt>
      <trkpt lat="44.0554" lon="1.77419">
        <ele>487.4</ele>
        <time>2023-03-05T09:27:44Z</time>
      </trkpt>
      <trkpt lat="44.0554" lon="1.77423">
        <ele>487.4</ele>
        <time>2023-03-05T09:27:45Z</time>
      </trkpt>
      <trkpt lat="44.0554" lon="1.77429">
        <ele>487.2</ele>
        <time>2023-03-05T09:27:46Z</time>
      </trkpt>
      <trkpt lat="44.0554" lon="1.77434">
        <ele>487.2</ele>
        <time>2023-03-05T09:27:47Z</time>
      </trkpt>
      <trkpt lat="44.0554" lon="1.77439">
        <ele>486.8</ele>
        <time>2023-03-05T09:27:48Z</time>
      </trkpt>
      <trkpt lat="44.05541" lon="1.77443">
        <ele>486.8</ele>
        <time>2023-03-05T09:27:49Z</time>
      </trkpt>
      <trkpt lat="44.05541" lon="1.77448">
        <ele>486.6</ele>
        <time>2023-03-05T09:27:50Z</time>
      </trkpt>
      <trkpt lat="44.05541" lon="1.77453">
        <ele>486.6</ele>
        <time>2023-03-05T09:27:51Z</time>
      </trkpt>
      <trkpt lat="44.05541" lon="1.77459">
        <ele>486.6</ele>
        <time>2023-03-05T09:27:52Z</time>
      </trkpt>
      <trkpt lat="44.05542" lon="1.77464">
        <ele>486.6</ele>
        <time>2023-03-05T09:27:53Z</time>
      </trkpt>
      <trkpt lat="44.05542" lon="1.7747">
        <ele>486.8</ele>
        <time>2023-03-05T09:27:54Z</time>
      </trkpt>
      <trkpt lat="44.05542" lon="1.77476">
        <ele>486.8</ele>
        <time>2023-03-05T09:27:55Z</time>
      </trkpt>
      <trkpt lat="44.05543" lon="1.77482">
        <ele>486.8</ele>
        <time>2023-03-05T09:27:56Z</time>
      </trkpt>
      <trkpt lat="44.05543" lon="1.77488">
        <ele>486.8</ele>
        <time>2023-03-05T09:27:57Z</time>
      </trkpt>
      <trkpt lat="44.05543" lon="1.77494">
        <ele>487</ele>
        <time>2023-03-05T09:27:58Z</time>
      </trkpt>
      <trkpt lat="44.05543" lon="1.775">
        <ele>487</ele>
        <time>2023-03-05T09:27:59Z</time>
      </trkpt>
      <trkpt lat="44.05544" lon="1.77506">
        <ele>487</ele>
        <time>2023-03-05T09:28:00Z</time>
      </trkpt>
      <trkpt lat="44.05544" lon="1.77512">
        <ele>487</ele>
        <time>2023-03-05T09:28:01Z</time>
      </trkpt>
      <trkpt lat="44.05544" lon="1.77519">
        <ele>487</ele>
        <time>2023-03-05T09:28:02Z</time>
      </trkpt>
      <trkpt lat="44.05544" lon="1.77526">
        <ele>486.8</ele>
        <time>2023-03-05T09:28:03Z</time>
      </trkpt>
      <trkpt lat="44.05544" lon="1.77533">
        <ele>486.8</ele>
        <time>2023-03-05T09:28:04Z</time>
      </trkpt>
      <trkpt lat="44.05544" lon="1.7754">
        <ele>486.8</ele>
        <time>2023-03-05T09:28:05Z</time>
      </trkpt>
      <trkpt lat="44.05544" lon="1.77546">
        <ele>486.6</ele>
        <time>2023-03-05T09:28:06Z</time>
      </trkpt>
      <trkpt lat="44.05544" lon="1.77554">
        <ele>486.6</ele>
        <time>2023-03-05T09:28:07Z</time>
      </trkpt>
      <trkpt lat="44.05544" lon="1.77561">
        <ele>486.4</ele>
        <time>2023-03-05T09:28:08Z</time>
      </trkpt>
      <trkpt lat="44.05544" lon="1.77569">
        <ele>486.4</ele>
        <time>2023-03-05T09:28:09Z</time>
      </trkpt>
      <trkpt lat="44.05544" lon="1.77576">
        <ele>486.2</ele>
        <time>2023-03-05T09:28:10Z</time>
      </trkpt>
      <trkpt lat="44.05545" lon="1.77583">
        <ele>486.2</ele>
        <time>2023-03-05T09:28:11Z</time>
      </trkpt>
      <trkpt lat="44.05545" lon="1.7759">
        <ele>486.2</ele>
        <time>2023-03-05T09:28:12Z</time>
      </trkpt>
      <trkpt lat="44.05545" lon="1.77598">
        <ele>486</ele>
        <time>2023-03-05T09:28:13Z</time>
      </trkpt>
      <trkpt lat="44.05545" lon="1.77605">
        <ele>486</ele>
        <time>2023-03-05T09:28:14Z</time>
      </trkpt>
      <trkpt lat="44.05545" lon="1.77613">
        <ele>486</ele>
        <time>2023-03-05T09:28:15Z</time>
      </trkpt>
      <trkpt lat="44.05546" lon="1.77621">
        <ele>485.8</ele>
        <time>2023-03-05T09:28:16Z</time>
      </trkpt>
      <trkpt lat="44.05547" lon="1.77629">
        <ele>485.8</ele>
        <time>2023-03-05T09:28:17Z</time>
      </trkpt>
      <trkpt lat="44.05547" lon="1.77637">
        <ele>485.8</ele>
        <time>2023-03-05T09:28:18Z</time>
      </trkpt>
      <trkpt lat="44.05547" lon="1.77645">
        <ele>485.6</ele>
        <time>2023-03-05T09:28:19Z</time>
      </trkpt>
      <trkpt lat="44.05547" lon="1.77653">
        <ele>485.6</ele>
        <time>2023-03-05T09:28:20Z</time>
      </trkpt>
      <trkpt lat="44.05547" lon="1.77661">
        <ele>485.4</ele>
        <time>2023-03-05T09:28:21Z</time>
      </trkpt>
      <trkpt lat="44.05548" lon="1.7767">
        <ele>485.2</ele>
        <time>2023-03-05T09:28:22Z</time>
      </trkpt>
      <trkpt lat="44.05548" lon="1.7768">
        <ele>485.2</ele>
        <time>2023-03-05T09:28:23Z</time>
      </trkpt>
      <trkpt lat="44.05548" lon="1.77687">
        <ele>485</ele>
        <time>2023-03-05T09:28:24Z</time>
      </trkpt>
      <trkpt lat="44.05548" lon="1.77695">
        <ele>484.8</ele>
        <time>2023-03-05T09:28:25Z</time>
      </trkpt>
      <trkpt lat="44.05549" lon="1.77703">
        <ele>484.8</ele>
        <time>2023-03-05T09:28:26Z</time>
      </trkpt>
      <trkpt lat="44.05549" lon="1.77712">
        <ele>484.8</ele>
        <time>2023-03-05T09:28:27Z</time>
      </trkpt>
      <trkpt lat="44.05549" lon="1.7772">
        <ele>484.6</ele>
        <time>2023-03-05T09:28:28Z</time>
      </trkpt>
      <trkpt lat="44.05549" lon="1.77729">
        <ele>484.6</ele>
        <time>2023-03-05T09:28:29Z</time>
      </trkpt>
      <trkpt lat="44.0555" lon="1.77738">
        <ele>484.6</ele>
        <time>2023-03-05T09:28:30Z</time>
      </trkpt>
      <trkpt lat="44.0555" lon="1.77746">
        <ele>484.6</ele>
        <time>2023-03-05T09:28:31Z</time>
      </trkpt>
      <trkpt lat="44.0555" lon="1.77756">
        <ele>484.4</ele>
        <time>2023-03-05T09:28:32Z</time>
      </trkpt>
      <trkpt lat="44.0555" lon="1.77765">
        <ele>484.4</ele>
        <time>2023-03-05T09:28:33Z</time>
      </trkpt>
      <trkpt lat="44.0555" lon="1.77774">
        <ele>484.2</ele>
        <time>2023-03-05T09:28:34Z</time>
      </trkpt>
      <trkpt lat="44.05549" lon="1.77784">
        <ele>484</ele>
        <time>2023-03-05T09:28:35Z</time>
      </trkpt>
      <trkpt lat="44.05548" lon="1.77794">
        <ele>483.8</ele>
        <time>2023-03-05T09:28:36Z</time>
      </trkpt>
      <trkpt lat="44.05547" lon="1.77803">
        <ele>483.6</ele>
        <time>2023-03-05T09:28:37Z</time>
      </trkpt>
      <trkpt lat="44.05546" lon="1.77812">
        <ele>483.4</ele>
        <time>2023-03-05T09:28:38Z</time>
      </trkpt>
      <trkpt lat="44.05545" lon="1.77822">
        <ele>483</ele>
        <time>2023-03-05T09:28:39Z</time>
      </trkpt>
      <trkpt lat="44.05543" lon="1.7783">
        <ele>482.8</ele>
        <time>2023-03-05T09:28:40Z</time>
      </trkpt>
      <trkpt lat="44.05542" lon="1.77838">
        <ele>482.6</ele>
        <time>2023-03-05T09:28:41Z</time>
      </trkpt>
      <trkpt lat="44.0554" lon="1.77844">
        <ele>482.4</ele>
        <time>2023-03-05T09:28:42Z</time>
      </trkpt>
      <trkpt lat="44.0554" lon="1.77849">
        <ele>482.2</ele>
        <time>2023-03-05T09:28:43Z</time>
      </trkpt>
      <trkpt lat="44.05541" lon="1.77854">
        <ele>482.2</ele>
        <time>2023-03-05T09:28:44Z</time>
      </trkpt>
      <trkpt lat="44.05542" lon="1.77858">
        <ele>482</ele>
        <time>2023-03-05T09:28:45Z</time>
      </trkpt>
      <trkpt lat="44.05545" lon="1.77857">
        <ele>481.6</ele>
        <time>2023-03-05T09:28:46Z</time>
      </trkpt>
      <trkpt lat="44.05549" lon="1.77855">
        <ele>481.6</ele>
        <time>2023-03-05T09:28:47Z</time>
      </trkpt>
      <trkpt lat="44.05552" lon="1.7785">
        <ele>481.4</ele>
        <time>2023-03-05T09:28:48Z</time>
      </trkpt>
      <trkpt lat="44.05554" lon="1.77844">
        <ele>481.2</ele>
        <time>2023-03-05T09:28:49Z</time>
      </trkpt>
      <trkpt lat="44.05557" lon="1.77838">
        <ele>481</ele>
        <time>2023-03-05T09:28:50Z</time>
      </trkpt>
      <trkpt lat="44.0556" lon="1.77831">
        <ele>481</ele>
        <time>2023-03-05T09:28:51Z</time>
      </trkpt>
      <trkpt lat="44.05565" lon="1.77825">
        <ele>480.8</ele>
        <time>2023-03-05T09:28:52Z</time>
      </trkpt>
      <trkpt lat="44.05569" lon="1.77819">
        <ele>480.6</ele>
        <time>2023-03-05T09:28:53Z</time>
      </trkpt>
      <trkpt lat="44.05573" lon="1.77814">
        <ele>480.4</ele>
        <time>2023-03-05T09:28:54Z</time>
      </trkpt>
      <trkpt lat="44.05578" lon="1.77808">
        <ele>480.2</ele>
        <time>2023-03-05T09:28:55Z</time>
      </trkpt>
      <trkpt lat="44.05582" lon="1.77803">
        <ele>479.8</ele>
        <time>2023-03-05T09:28:56Z</time>
      </trkpt>
      <trkpt lat="44.05585" lon="1.77801">
        <ele>479.4</ele>
        <time>2023-03-05T09:28:57Z</time>
      </trkpt>
      <trkpt lat="44.05587" lon="1.778">
        <ele>479.2</ele>
        <time>2023-03-05T09:28:58Z</time>
      </trkpt>
      <trkpt lat="44.05588" lon="1.77801">
        <ele>478.8</ele>
        <time>2023-03-05T09:28:59Z</time>
      </trkpt>
      <trkpt lat="44.05588" lon="1.77804">
        <ele>478</ele>
        <time>2023-03-05T09:29:00Z</time>
      </trkpt>
      <trkpt lat="44.05587" lon="1.77808">
        <ele>477</ele>
        <time>2023-03-05T09:29:01Z</time>
      </trkpt>
      <trkpt lat="44.05587" lon="1.77811">
        <ele>476.4</ele>
        <time>2023-03-05T09:29:02Z</time>
      </trkpt>
      <trkpt lat="44.05586" lon="1.77815">
        <ele>475.6</ele>
        <time>2023-03-05T09:29:03Z</time>
      </trkpt>
      <trkpt lat="44.05586" lon="1.77821">
        <ele>475.4</ele>
        <time>2023-03-05T09:29:04Z</time>
      </trkpt>
      <trkpt lat="44.05584" lon="1.77829">
        <ele>475</ele>
        <time>2023-03-05T09:29:05Z</time>
      </trkpt>
      <trkpt lat="44.05583" lon="1.77836">
        <ele>474.8</ele>
        <time>2023-03-05T09:29:06Z</time>
      </trkpt>
      <trkpt lat="44.05582" lon="1.77845">
        <ele>474.4</ele>
        <time>2023-03-05T09:29:07Z</time>
      </trkpt>
      <trkpt lat="44.05582" lon="1.77854">
        <ele>473.8</ele>
        <time>2023-03-05T09:29:08Z</time>
      </trkpt>
      <trkpt lat="44.05581" lon="1.77863">
        <ele>473.6</ele>
        <time>2023-03-05T09:29:09Z</time>
      </trkpt>
      <trkpt lat="44.05579" lon="1.77872">
        <ele>473.2</ele>
        <time>2023-03-05T09:29:10Z</time>
      </trkpt>
      <trkpt lat="44.05578" lon="1.77881">
        <ele>472.8</ele>
        <time>2023-03-05T09:29:11Z</time>
      </trkpt>
      <trkpt lat="44.05576" lon="1.77889">
        <ele>472.6</ele>
        <time>2023-03-05T09:29:12Z</time>
      </trkpt>
      <trkpt lat="44.05575" lon="1.77899">
        <ele>472.4</ele>
        <time>2023-03-05T09:29:13Z</time>
      </trkpt>
      <trkpt lat="44.05576" lon="1.77908">
        <ele>472.2</ele>
        <time>2023-03-05T09:29:14Z</time>
      </trkpt>
      <trkpt lat="44.05577" lon="1.77918">
        <ele>472</ele>
        <time>2023-03-05T09:29:15Z</time>
      </trkpt>
      <trkpt lat="44.05577" lon="1.77929">
        <ele>472</ele>
        <time>2023-03-05T09:29:16Z</time>
      </trkpt>
      <trkpt lat="44.05578" lon="1.77942">
        <ele>471.8</ele>
        <time>2023-03-05T09:29:17Z</time>
      </trkpt>
      <trkpt lat="44.05578" lon="1.77953">
        <ele>471.8</ele>
        <time>2023-03-05T09:29:18Z</time>
      </trkpt>
      <trkpt lat="44.05579" lon="1.77965">
        <ele>471.2</ele>
        <time>2023-03-05T09:29:19Z</time>
      </trkpt>
      <trkpt lat="44.0558" lon="1.77977">
        <ele>471</ele>
        <time>2023-03-05T09:29:20Z</time>
      </trkpt>
      <trkpt lat="44.0558" lon="1.7799">
        <ele>470.4</ele>
        <time>2023-03-05T09:29:21Z</time>
      </trkpt>
      <trkpt lat="44.0558" lon="1.78003">
        <ele>469.8</ele>
        <time>2023-03-05T09:29:22Z</time>
      </trkpt>
      <trkpt lat="44.05579" lon="1.78017">
        <ele>469</ele>
        <time>2023-03-05T09:29:23Z</time>
      </trkpt>
      <trkpt lat="44.05578" lon="1.78028">
        <ele>468.4</ele>
        <time>2023-03-05T09:29:24Z</time>
      </trkpt>
      <trkpt lat="44.05575" lon="1.78038">
        <ele>467.8</ele>
        <time>2023-03-05T09:29:25Z</time>
      </trkpt>
      <trkpt lat="44.05572" lon="1.78047">
        <ele>467.4</ele>
        <time>2023-03-05T09:29:26Z</time>
      </trkpt>
      <trkpt lat="44.05569" lon="1.78056">
        <ele>467</ele>
        <time>2023-03-05T09:29:27Z</time>
      </trkpt>
      <trkpt lat="44.05565" lon="1.78065">
        <ele>466.6</ele>
        <time>2023-03-05T09:29:28Z</time>
      </trkpt>
      <trkpt lat="44.05561" lon="1.78074">
        <ele>466</ele>
        <time>2023-03-05T09:29:29Z</time>
      </trkpt>
      <trkpt lat="44.05557" lon="1.78084">
        <ele>465.4</ele>
        <time>2023-03-05T09:29:30Z</time>
      </trkpt>
      <trkpt lat="44.05552" lon="1.78094">
        <ele>465.2</ele>
        <time>2023-03-05T09:29:31Z</time>
      </trkpt>
      <trkpt lat="44.0555" lon="1.78104">
        <ele>464.8</ele>
        <time>2023-03-05T09:29:32Z</time>
      </trkpt>
      <trkpt lat="44.05548" lon="1.78114">
        <ele>464.4</ele>
        <time>2023-03-05T09:29:33Z</time>
      </trkpt>
      <trkpt lat="44.05547" lon="1.78125">
        <ele>463.2</ele>
        <time>2023-03-05T09:29:34Z</time>
      </trkpt>
      <trkpt lat="44.05547" lon="1.78135">
        <ele>462.6</ele>
        <time>2023-03-05T09:29:35Z</time>
      </trkpt>
      <trkpt lat="44.05547" lon="1.78145">
        <ele>461.6</ele>
        <time>2023-03-05T09:29:36Z</time>
      </trkpt>
      <trkpt lat="44.05546" lon="1.78154">
        <ele>461.2</ele>
        <time>2023-03-05T09:29:37Z</time>
      </trkpt>
      <trkpt lat="44.05546" lon="1.78162">
        <ele>460.6</ele>
        <time>2023-03-05T09:29:38Z</time>
      </trkpt>
      <trkpt lat="44.05544" lon="1.78169">
        <ele>460.4</ele>
        <time>2023-03-05T09:29:39Z</time>
      </trkpt>
      <trkpt lat="44.05542" lon="1.78176">
        <ele>460.2</ele>
        <time>2023-03-05T09:29:40Z</time>
      </trkpt>
      <trkpt lat="44.05539" lon="1.78184">
        <ele>460</ele>
        <time>2023-03-05T09:29:41Z</time>
      </trkpt>
      <trkpt lat="44.05536" lon="1.78189">
        <ele>459.8</ele>
        <time>2023-03-05T09:29:42Z</time>
      </trkpt>
      <trkpt lat="44.05534" lon="1.78194">
        <ele>459.6</ele>
        <time>2023-03-05T09:29:43Z</time>
      </trkpt>
      <trkpt lat="44.0553" lon="1.78205">
        <ele>459.6</ele>
        <time>2023-03-05T09:29:44Z</time>
      </trkpt>
      <trkpt lat="44.05527" lon="1.78212">
        <ele>459.4</ele>
        <time>2023-03-05T09:29:45Z</time>
      </trkpt>
      <trkpt lat="44.05526" lon="1.78219">
        <ele>459.4</ele>
        <time>2023-03-05T09:29:46Z</time>
      </trkpt>
      <trkpt lat="44.05525" lon="1.78226">
        <ele>459.2</ele>
        <time>2023-03-05T09:29:47Z</time>
      </trkpt>
      <trkpt lat="44.05525" lon="1.78234">
        <ele>459.2</ele>
        <time>2023-03-05T09:29:48Z</time>
      </trkpt>
      <trkpt lat="44.05527" lon="1.78243">
        <ele>459.2</ele>
        <time>2023-03-05T09:29:49Z</time>
      </trkpt>
      <trkpt lat="44.05529" lon="1.78252">
        <ele>459.2</ele>
        <time>2023-03-05T09:29:50Z</time>
      </trkpt>
      <trkpt lat="44.0553" lon="1.7826">
        <ele>458.6</ele>
        <time>2023-03-05T09:29:51Z</time>
      </trkpt>
      <trkpt lat="44.0553" lon="1.78268">
        <ele>458.4</ele>
        <time>2023-03-05T09:29:52Z</time>
      </trkpt>
      <trkpt lat="44.05529" lon="1.78276">
        <ele>458</ele>
        <time>2023-03-05T09:29:53Z</time>
      </trkpt>
      <trkpt lat="44.0553" lon="1.78281">
        <ele>457.4</ele>
        <time>2023-03-05T09:29:54Z</time>
      </trkpt>
      <trkpt lat="44.05533" lon="1.78286">
        <ele>457</ele>
        <time>2023-03-05T09:29:55Z</time>
      </trkpt>
      <trkpt lat="44.05537" lon="1.78291">
        <ele>456</ele>
        <time>2023-03-05T09:29:56Z</time>
      </trkpt>
      <trkpt lat="44.05542" lon="1.78294">
        <ele>455</ele>
        <time>2023-03-05T09:29:57Z</time>
      </trkpt>
      <trkpt lat="44.05546" lon="1.78297">
        <ele>453.6</ele>
        <time>2023-03-05T09:29:58Z</time>
      </trkpt>
      <trkpt lat="44.05549" lon="1.78302">
        <ele>453</ele>
        <time>2023-03-05T09:29:59Z</time>
      </trkpt>
      <trkpt lat="44.05552" lon="1.78308">
        <ele>452</ele>
        <time>2023-03-05T09:30:00Z</time>
      </trkpt>
      <trkpt lat="44.05555" lon="1.78314">
        <ele>451.6</ele>
        <time>2023-03-05T09:30:01Z</time>
      </trkpt>
      <trkpt lat="44.05557" lon="1.7832">
        <ele>451.2</ele>
        <time>2023-03-05T09:30:02Z</time>
      </trkpt>
      <trkpt lat="44.05559" lon="1.78326">
        <ele>451</ele>
        <time>2023-03-05T09:30:03Z</time>
      </trkpt>
      <trkpt lat="44.05562" lon="1.78332">
        <ele>450.6</ele>
        <time>2023-03-05T09:30:04Z</time>
      </trkpt>
      <trkpt lat="44.05565" lon="1.78337">
        <ele>450.4</ele>
        <time>2023-03-05T09:30:05Z</time>
      </trkpt>
      <trkpt lat="44.05569" lon="1.78343">
        <ele>450.4</ele>
        <time>2023-03-05T09:30:06Z</time>
      </trkpt>
      <trkpt lat="44.05573" lon="1.7835">
        <ele>449.8</ele>
        <time>2023-03-05T09:30:07Z</time>
      </trkpt>
      <trkpt lat="44.05578" lon="1.78357">
        <ele>449.8</ele>
        <time>2023-03-05T09:30:08Z</time>
      </trkpt>
      <trkpt lat="44.05581" lon="1.78365">
        <ele>449.6</ele>
        <time>2023-03-05T09:30:09Z</time>
      </trkpt>
      <trkpt lat="44.05585" lon="1.78373">
        <ele>449.6</ele>
        <time>2023-03-05T09:30:10Z</time>
      </trkpt>
      <trkpt lat="44.05589" lon="1.7838">
        <ele>449.4</ele>
        <time>2023-03-05T09:30:11Z</time>
      </trkpt>
      <trkpt lat="44.05594" lon="1.78386">
        <ele>449.4</ele>
        <time>2023-03-05T09:30:12Z</time>
      </trkpt>
      <trkpt lat="44.05598" lon="1.78392">
        <ele>449.2</ele>
        <time>2023-03-05T09:30:13Z</time>
      </trkpt>
      <trkpt lat="44.05603" lon="1.78398">
        <ele>449</ele>
        <time>2023-03-05T09:30:14Z</time>
      </trkpt>
      <trkpt lat="44.05607" lon="1.78404">
        <ele>448.4</ele>
        <time>2023-03-05T09:30:15Z</time>
      </trkpt>
      <trkpt lat="44.0561" lon="1.78409">
        <ele>448</ele>
        <time>2023-03-05T09:30:16Z</time>
      </trkpt>
      <trkpt lat="44.05613" lon="1.78414">
        <ele>448</ele>
        <time>2023-03-05T09:30:17Z</time>
      </trkpt>
      <trkpt lat="44.05617" lon="1.78419">
        <ele>447.8</ele>
        <time>2023-03-05T09:30:18Z</time>
      </trkpt>
      <trkpt lat="44.0562" lon="1.78424">
        <ele>447.8</ele>
        <time>2023-03-05T09:30:19Z</time>
      </trkpt>
      <trkpt lat="44.05623" lon="1.78429">
        <ele>448</ele>
        <time>2023-03-05T09:30:20Z</time>
      </trkpt>
      <trkpt lat="44.05626" lon="1.78433">
        <ele>448</ele>
        <time>2023-03-05T09:30:21Z</time>
      </trkpt>
      <trkpt lat="44.05629" lon="1.78436">
        <ele>448.4</ele>
        <time>2023-03-05T09:30:22Z</time>
      </trkpt>
      <trkpt lat="44.05632" lon="1.78438">
        <ele>448.8</ele>
        <time>2023-03-05T09:30:23Z</time>
      </trkpt>
      <trkpt lat="44.05634" lon="1.78442">
        <ele>449.4</ele>
        <time>2023-03-05T09:30:24Z</time>
      </trkpt>
      <trkpt lat="44.05636" lon="1.78445">
        <ele>449.6</ele>
        <time>2023-03-05T09:30:25Z</time>
      </trkpt>
      <trkpt lat="44.05637" lon="1.78448">
        <ele>450.2</ele>
        <time>2023-03-05T09:30:26Z</time>
      </trkpt>
      <trkpt lat="44.05638" lon="1.78451">
        <ele>450.6</ele>
        <time>2023-03-05T09:30:27Z</time>
      </trkpt>
      <trkpt lat="44.05639" lon="1.78453">
        <ele>451</ele>
        <time>2023-03-05T09:30:28Z</time>
      </trkpt>
      <trkpt lat="44.0564" lon="1.78455">
        <ele>451.4</ele>
        <time>2023-03-05T09:30:29Z</time>
      </trkpt>
      <trkpt lat="44.05641" lon="1.78458">
        <ele>451.6</ele>
        <time>2023-03-05T09:30:30Z</time>
      </trkpt>
      <trkpt lat="44.05642" lon="1.78462">
        <ele>452.2</ele>
        <time>2023-03-05T09:30:31Z</time>
      </trkpt>
      <trkpt lat="44.05642" lon="1.78465">
        <ele>452.6</ele>
        <time>2023-03-05T09:30:32Z</time>
      </trkpt>
      <trkpt lat="44.05643" lon="1.78468">
        <ele>453.2</ele>
        <time>2023-03-05T09:30:33Z</time>
      </trkpt>
      <trkpt lat="44.05644" lon="1.78472">
        <ele>453.6</ele>
        <time>2023-03-05T09:30:34Z</time>
      </trkpt>
      <trkpt lat="44.05644" lon="1.78476">
        <ele>454.2</ele>
        <time>2023-03-05T09:30:35Z</time>
      </trkpt>
      <trkpt lat="44.05645" lon="1.78481">
        <ele>454.6</ele>
        <time>2023-03-05T09:30:36Z</time>
      </trkpt>
      <trkpt lat="44.05644" lon="1.78485">
        <ele>455.2</ele>
        <time>2023-03-05T09:30:37Z</time>
      </trkpt>
      <trkpt lat="44.05642" lon="1.7849">
        <ele>455.6</ele>
        <time>2023-03-05T09:30:38Z</time>
      </trkpt>
      <trkpt lat="44.05642" lon="1.78494">
        <ele>456.4</ele>
        <time>2023-03-05T09:30:39Z</time>
      </trkpt>
      <trkpt lat="44.05639" lon="1.785">
        <ele>456.8</ele>
        <time>2023-03-05T09:30:40Z</time>
      </trkpt>
      <trkpt lat="44.05638" lon="1.78505">
        <ele>457</ele>
        <time>2023-03-05T09:30:41Z</time>
      </trkpt>
      <trkpt lat="44.05637" lon="1.78509">
        <ele>457.6</ele>
        <time>2023-03-05T09:30:42Z</time>
      </trkpt>
      <trkpt lat="44.05639" lon="1.78512">
        <ele>457.8</ele>
        <time>2023-03-05T09:30:43Z</time>
      </trkpt>
      <trkpt lat="44.0564" lon="1.78516">
        <ele>458</ele>
        <time>2023-03-05T09:30:44Z</time>
      </trkpt>
      <trkpt lat="44.05642" lon="1.7852">
        <ele>458.2</ele>
        <time>2023-03-05T09:30:45Z</time>
      </trkpt>
      <trkpt lat="44.05644" lon="1.78525">
        <ele>458.4</ele>
        <time>2023-03-05T09:30:46Z</time>
      </trkpt>
      <trkpt lat="44.05645" lon="1.7853">
        <ele>458.4</ele>
        <time>2023-03-05T09:30:47Z</time>
      </trkpt>
      <trkpt lat="44.05645" lon="1.78535">
        <ele>458.4</ele>
        <time>2023-03-05T09:30:48Z</time>
      </trkpt>
      <trkpt lat="44.05646" lon="1.78541">
        <ele>458.4</ele>
        <time>2023-03-05T09:30:49Z</time>
      </trkpt>
      <trkpt lat="44.05647" lon="1.78546">
        <ele>458.6</ele>
        <time>2023-03-05T09:30:50Z</time>
      </trkpt>
      <trkpt lat="44.05646" lon="1.78551">
        <ele>458.6</ele>
        <time>2023-03-05T09:30:51Z</time>
      </trkpt>
      <trkpt lat="44.05645" lon="1.78554">
        <ele>458.6</ele>
        <time>2023-03-05T09:30:52Z</time>
      </trkpt>
      <trkpt lat="44.05645" lon="1.78556">
        <ele>458.6</ele>
        <time>2023-03-05T09:30:53Z</time>
      </trkpt>
      <trkpt lat="44.05644" lon="1.7856">
        <ele>458.6</ele>
        <time>2023-03-05T09:30:54Z</time>
      </trkpt>
      <trkpt lat="44.05643" lon="1.78563">
        <ele>458.6</ele>
        <time>2023-03-05T09:30:55Z</time>
      </trkpt>
      <trkpt lat="44.05642" lon="1.78566">
        <ele>458.6</ele>
        <time>2023-03-05T09:30:56Z</time>
      </trkpt>
      <trkpt lat="44.05643" lon="1.78568">
        <ele>458.8</ele>
        <time>2023-03-05T09:30:57Z</time>
      </trkpt>
      <trkpt lat="44.05645" lon="1.78569">
        <ele>458.8</ele>
        <time>2023-03-05T09:30:58Z</time>
      </trkpt>
      <trkpt lat="44.05648" lon="1.78569">
        <ele>458.8</ele>
        <time>2023-03-05T09:30:59Z</time>
      </trkpt>
      <trkpt lat="44.05651" lon="1.78567">
        <ele>458.8</ele>
        <time>2023-03-05T09:31:00Z</time>
      </trkpt>
      <trkpt lat="44.05654" lon="1.78564">
        <ele>458.8</ele>
        <time>2023-03-05T09:31:01Z</time>
      </trkpt>
      <trkpt lat="44.05657" lon="1.78561">
        <ele>458.6</ele>
        <time>2023-03-05T09:31:02Z</time>
      </trkpt>
      <trkpt lat="44.0566" lon="1.78558">
        <ele>458.6</ele>
        <time>2023-03-05T09:31:03Z</time>
      </trkpt>
      <trkpt lat="44.05664" lon="1.78555">
        <ele>458.4</ele>
        <time>2023-03-05T09:31:04Z</time>
      </trkpt>
      <trkpt lat="44.05668" lon="1.78552">
        <ele>458.4</ele>
        <time>2023-03-05T09:31:05Z</time>
      </trkpt>
      <trkpt lat="44.05673" lon="1.78553">
        <ele>458.2</ele>
        <time>2023-03-05T09:31:06Z</time>
      </trkpt>
      <trkpt lat="44.05676" lon="1.78554">
        <ele>458.2</ele>
        <time>2023-03-05T09:31:07Z</time>
      </trkpt>
      <trkpt lat="44.0568" lon="1.78556">
        <ele>458</ele>
        <time>2023-03-05T09:31:08Z</time>
      </trkpt>
      <trkpt lat="44.05686" lon="1.78558">
        <ele>458</ele>
        <time>2023-03-05T09:31:09Z</time>
      </trkpt>
      <trkpt lat="44.05691" lon="1.78561">
        <ele>458</ele>
        <time>2023-03-05T09:31:10Z</time>
      </trkpt>
      <trkpt lat="44.05698" lon="1.78563">
        <ele>457.8</ele>
        <time>2023-03-05T09:31:11Z</time>
      </trkpt>
      <trkpt lat="44.05704" lon="1.78565">
        <ele>457.6</ele>
        <time>2023-03-05T09:31:12Z</time>
      </trkpt>
      <trkpt lat="44.05711" lon="1.78568">
        <ele>457.4</ele>
        <time>2023-03-05T09:31:13Z</time>
      </trkpt>
      <trkpt lat="44.05718" lon="1.78571">
        <ele>457.2</ele>
        <time>2023-03-05T09:31:14Z</time>
      </trkpt>
      <trkpt lat="44.05727" lon="1.78576">
        <ele>457</ele>
        <time>2023-03-05T09:31:15Z</time>
      </trkpt>
      <trkpt lat="44.05734" lon="1.7858">
        <ele>457</ele>
        <time>2023-03-05T09:31:16Z</time>
      </trkpt>
      <trkpt lat="44.05743" lon="1.78585">
        <ele>456</ele>
        <time>2023-03-05T09:31:17Z</time>
      </trkpt>
      <trkpt lat="44.05751" lon="1.78588">
        <ele>455.6</ele>
        <time>2023-03-05T09:31:18Z</time>
      </trkpt>
      <trkpt lat="44.05761" lon="1.78588">
        <ele>454.8</ele>
        <time>2023-03-05T09:31:19Z</time>
      </trkpt>
      <trkpt lat="44.0577" lon="1.78587">
        <ele>454.6</ele>
        <time>2023-03-05T09:31:20Z</time>
      </trkpt>
      <trkpt lat="44.0578" lon="1.78583">
        <ele>453.6</ele>
        <time>2023-03-05T09:31:21Z</time>
      </trkpt>
      <trkpt lat="44.05788" lon="1.78578">
        <ele>453</ele>
        <time>2023-03-05T09:31:22Z</time>
      </trkpt>
      <trkpt lat="44.05792" lon="1.78571">
        <ele>452</ele>
        <time>2023-03-05T09:31:23Z</time>
      </trkpt>
      <trkpt lat="44.05796" lon="1.78566">
        <ele>451.4</ele>
        <time>2023-03-05T09:31:24Z</time>
      </trkpt>
      <trkpt lat="44.05799" lon="1.78562">
        <ele>450.8</ele>
        <time>2023-03-05T09:31:25Z</time>
      </trkpt>
      <trkpt lat="44.05801" lon="1.78562">
        <ele>449.4</ele>
        <time>2023-03-05T09:31:26Z</time>
      </trkpt>
      <trkpt lat="44.05802" lon="1.78564">
        <ele>448.8</ele>
        <time>2023-03-05T09:31:27Z</time>
      </trkpt>
      <trkpt lat="44.05802" lon="1.78567">
        <ele>447.4</ele>
        <time>2023-03-05T09:31:28Z</time>
      </trkpt>
      <trkpt lat="44.05801" lon="1.78571">
        <ele>446.4</ele>
        <time>2023-03-05T09:31:29Z</time>
      </trkpt>
      <trkpt lat="44.058" lon="1.78576">
        <ele>444.8</ele>
        <time>2023-03-05T09:31:30Z</time>
      </trkpt>
      <trkpt lat="44.05798" lon="1.78583">
        <ele>444.2</ele>
        <time>2023-03-05T09:31:31Z</time>
      </trkpt>
      <trkpt lat="44.05797" lon="1.7859">
        <ele>443.6</ele>
        <time>2023-03-05T09:31:32Z</time>
      </trkpt>
      <trkpt lat="44.05796" lon="1.78598">
        <ele>443.4</ele>
        <time>2023-03-05T09:31:33Z</time>
      </trkpt>
      <trkpt lat="44.05794" lon="1.78607">
        <ele>443</ele>
        <time>2023-03-05T09:31:34Z</time>
      </trkpt>
      <trkpt lat="44.05793" lon="1.78616">
        <ele>442.8</ele>
        <time>2023-03-05T09:31:35Z</time>
      </trkpt>
      <trkpt lat="44.05791" lon="1.78626">
        <ele>442.4</ele>
        <time>2023-03-05T09:31:36Z</time>
      </trkpt>
      <trkpt lat="44.05789" lon="1.78636">
        <ele>441.8</ele>
        <time>2023-03-05T09:31:37Z</time>
      </trkpt>
      <trkpt lat="44.05788" lon="1.78647">
        <ele>441.6</ele>
        <time>2023-03-05T09:31:38Z</time>
      </trkpt>
      <trkpt lat="44.05787" lon="1.78658">
        <ele>440.6</ele>
        <time>2023-03-05T09:31:39Z</time>
      </trkpt>
      <trkpt lat="44.05785" lon="1.7867">
        <ele>440.4</ele>
        <time>2023-03-05T09:31:40Z</time>
      </trkpt>
      <trkpt lat="44.05783" lon="1.78683">
        <ele>439.8</ele>
        <time>2023-03-05T09:31:41Z</time>
      </trkpt>
      <trkpt lat="44.05781" lon="1.78695">
        <ele>439.8</ele>
        <time>2023-03-05T09:31:42Z</time>
      </trkpt>
      <trkpt lat="44.05778" lon="1.78706">
        <ele>439.4</ele>
        <time>2023-03-05T09:31:43Z</time>
      </trkpt>
      <trkpt lat="44.05773" lon="1.78716">
        <ele>439</ele>
        <time>2023-03-05T09:31:44Z</time>
      </trkpt>
      <trkpt lat="44.05767" lon="1.78725">
        <ele>438.2</ele>
        <time>2023-03-05T09:31:45Z</time>
      </trkpt>
      <trkpt lat="44.05759" lon="1.78734">
        <ele>437.8</ele>
        <time>2023-03-05T09:31:46Z</time>
      </trkpt>
      <trkpt lat="44.05751" lon="1.78742">
        <ele>437.4</ele>
        <time>2023-03-05T09:31:47Z</time>
      </trkpt>
      <trkpt lat="44.05743" lon="1.78751">
        <ele>436.8</ele>
        <time>2023-03-05T09:31:48Z</time>
      </trkpt>
      <trkpt lat="44.05736" lon="1.7876">
        <ele>436.4</ele>
        <time>2023-03-05T09:31:49Z</time>
      </trkpt>
      <trkpt lat="44.05729" lon="1.7877">
        <ele>435.4</ele>
        <time>2023-03-05T09:31:50Z</time>
      </trkpt>
      <trkpt lat="44.05723" lon="1.7878">
        <ele>435</ele>
        <time>2023-03-05T09:31:51Z</time>
      </trkpt>
      <trkpt lat="44.05718" lon="1.7879">
        <ele>434</ele>
        <time>2023-03-05T09:31:52Z</time>
      </trkpt>
      <trkpt lat="44.05713" lon="1.788">
        <ele>433.6</ele>
        <time>2023-03-05T09:31:53Z</time>
      </trkpt>
      <trkpt lat="44.05709" lon="1.78809">
        <ele>433.2</ele>
        <time>2023-03-05T09:31:54Z</time>
      </trkpt>
      <trkpt lat="44.05705" lon="1.78818">
        <ele>433</ele>
        <time>2023-03-05T09:31:55Z</time>
      </trkpt>
      <trkpt lat="44.05703" lon="1.78828">
        <ele>432.2</ele>
        <time>2023-03-05T09:31:56Z</time>
      </trkpt>
      <trkpt lat="44.05702" lon="1.78838">
        <ele>431.8</ele>
        <time>2023-03-05T09:31:57Z</time>
      </trkpt>
      <trkpt lat="44.05701" lon="1.78847">
        <ele>431.4</ele>
        <time>2023-03-05T09:31:58Z</time>
      </trkpt>
      <trkpt lat="44.057" lon="1.78857">
        <ele>431</ele>
        <time>2023-03-05T09:31:59Z</time>
      </trkpt>
      <trkpt lat="44.05699" lon="1.78867">
        <ele>430.2</ele>
        <time>2023-03-05T09:32:00Z</time>
      </trkpt>
      <trkpt lat="44.05697" lon="1.78877">
        <ele>429.8</ele>
        <time>2023-03-05T09:32:01Z</time>
      </trkpt>
      <trkpt lat="44.05694" lon="1.78887">
        <ele>429.6</ele>
        <time>2023-03-05T09:32:02Z</time>
      </trkpt>
      <trkpt lat="44.05691" lon="1.78897">
        <ele>429.2</ele>
        <time>2023-03-05T09:32:03Z</time>
      </trkpt>
      <trkpt lat="44.05687" lon="1.78907">
        <ele>429.2</ele>
        <time>2023-03-05T09:32:04Z</time>
      </trkpt>
      <trkpt lat="44.05683" lon="1.78917">
        <ele>428.6</ele>
        <time>2023-03-05T09:32:05Z</time>
      </trkpt>
      <trkpt lat="44.0568" lon="1.78927">
        <ele>428.2</ele>
        <time>2023-03-05T09:32:06Z</time>
      </trkpt>
      <trkpt lat="44.05678" lon="1.78936">
        <ele>427.8</ele>
        <time>2023-03-05T09:32:07Z</time>
      </trkpt>
      <trkpt lat="44.05677" lon="1.78946">
        <ele>427.4</ele>
        <time>2023-03-05T09:32:08Z</time>
      </trkpt>
      <trkpt lat="44.05678" lon="1.78958">
        <ele>427</ele>
        <time>2023-03-05T09:32:09Z</time>
      </trkpt>
      <trkpt lat="44.0568" lon="1.78968">
        <ele>426.4</ele>
        <time>2023-03-05T09:32:10Z</time>
      </trkpt>
      <trkpt lat="44.05684" lon="1.78977">
        <ele>425.4</ele>
        <time>2023-03-05T09:32:11Z</time>
      </trkpt>
      <trkpt lat="44.0569" lon="1.78983">
        <ele>425</ele>
        <time>2023-03-05T09:32:12Z</time>
      </trkpt>
      <trkpt lat="44.05698" lon="1.78987">
        <ele>424.8</ele>
        <time>2023-03-05T09:32:13Z</time>
      </trkpt>
      <trkpt lat="44.05706" lon="1.7899">
        <ele>423.8</ele>
        <time>2023-03-05T09:32:14Z</time>
      </trkpt>
      <trkpt lat="44.05714" lon="1.78993">
        <ele>423.2</ele>
        <time>2023-03-05T09:32:15Z</time>
      </trkpt>
      <trkpt lat="44.05723" lon="1.78996">
        <ele>422.6</ele>
        <time>2023-03-05T09:32:16Z</time>
      </trkpt>
      <trkpt lat="44.05732" lon="1.79">
        <ele>422.2</ele>
        <time>2023-03-05T09:32:17Z</time>
      </trkpt>
      <trkpt lat="44.05741" lon="1.79004">
        <ele>421.4</ele>
        <time>2023-03-05T09:32:18Z</time>
      </trkpt>
      <trkpt lat="44.05751" lon="1.79009">
        <ele>420.6</ele>
        <time>2023-03-05T09:32:19Z</time>
      </trkpt>
      <trkpt lat="44.05761" lon="1.79014">
        <ele>419.6</ele>
        <time>2023-03-05T09:32:20Z</time>
      </trkpt>
      <trkpt lat="44.05771" lon="1.79019">
        <ele>419</ele>
        <time>2023-03-05T09:32:21Z</time>
      </trkpt>
      <trkpt lat="44.05781" lon="1.79025">
        <ele>417.4</ele>
        <time>2023-03-05T09:32:22Z</time>
      </trkpt>
      <trkpt lat="44.05791" lon="1.79029">
        <ele>417</ele>
        <time>2023-03-05T09:32:23Z</time>
      </trkpt>
      <trkpt lat="44.05801" lon="1.79034">
        <ele>415.8</ele>
        <time>2023-03-05T09:32:24Z</time>
      </trkpt>
      <trkpt lat="44.05811" lon="1.79038">
        <ele>414.4</ele>
        <time>2023-03-05T09:32:25Z</time>
      </trkpt>
      <trkpt lat="44.05822" lon="1.7904">
        <ele>414</ele>
        <time>2023-03-05T09:32:26Z</time>
      </trkpt>
      <trkpt lat="44.05833" lon="1.79044">
        <ele>412.4</ele>
        <time>2023-03-05T09:32:27Z</time>
      </trkpt>
      <trkpt lat="44.05843" lon="1.79047">
        <ele>411.8</ele>
        <time>2023-03-05T09:32:28Z</time>
      </trkpt>
      <trkpt lat="44.05853" lon="1.79053">
        <ele>410.4</ele>
        <time>2023-03-05T09:32:29Z</time>
      </trkpt>
      <trkpt lat="44.05863" lon="1.79059">
        <ele>408.8</ele>
        <time>2023-03-05T09:32:30Z</time>
      </trkpt>
      <trkpt lat="44.05873" lon="1.79065">
        <ele>406.4</ele>
        <time>2023-03-05T09:32:31Z</time>
      </trkpt>
      <trkpt lat="44.05883" lon="1.79072">
        <ele>405.8</ele>
        <time>2023-03-05T09:32:32Z</time>
      </trkpt>
      <trkpt lat="44.05894" lon="1.79079">
        <ele>404.8</ele>
        <time>2023-03-05T09:32:33Z</time>
      </trkpt>
      <trkpt lat="44.05905" lon="1.79086">
        <ele>404</ele>
        <time>2023-03-05T09:32:34Z</time>
      </trkpt>
      <trkpt lat="44.05915" lon="1.79093">
        <ele>401.6</ele>
        <time>2023-03-05T09:32:35Z</time>
      </trkpt>
      <trkpt lat="44.05925" lon="1.791">
        <ele>399.8</ele>
        <time>2023-03-05T09:32:36Z</time>
      </trkpt>
      <trkpt lat="44.05934" lon="1.79106">
        <ele>398.8</ele>
        <time>2023-03-05T09:32:37Z</time>
      </trkpt>
      <trkpt lat="44.05943" lon="1.79112">
        <ele>397.4</ele>
        <time>2023-03-05T09:32:38Z</time>
      </trkpt>
      <trkpt lat="44.0595" lon="1.79116">
        <ele>397</ele>
        <time>2023-03-05T09:32:39Z</time>
      </trkpt>
      <trkpt lat="44.05954" lon="1.7912">
        <ele>394.8</ele>
        <time>2023-03-05T09:32:40Z</time>
      </trkpt>
      <trkpt lat="44.05957" lon="1.79123">
        <ele>393.8</ele>
        <time>2023-03-05T09:32:41Z</time>
      </trkpt>
      <trkpt lat="44.0596" lon="1.79125">
        <ele>392.8</ele>
        <time>2023-03-05T09:32:42Z</time>
      </trkpt>
      <trkpt lat="44.05963" lon="1.79127">
        <ele>391.4</ele>
        <time>2023-03-05T09:32:43Z</time>
      </trkpt>
      <trkpt lat="44.05967" lon="1.79128">
        <ele>389.6</ele>
        <time>2023-03-05T09:32:44Z</time>
      </trkpt>
      <trkpt lat="44.05971" lon="1.79126">
        <ele>389.2</ele>
        <time>2023-03-05T09:32:45Z</time>
      </trkpt>
      <trkpt lat="44.05976" lon="1.79122">
        <ele>388.6</ele>
        <time>2023-03-05T09:32:46Z</time>
      </trkpt>
      <trkpt lat="44.05981" lon="1.79117">
        <ele>387.8</ele>
        <time>2023-03-05T09:32:47Z</time>
      </trkpt>
      <trkpt lat="44.05986" lon="1.79113">
        <ele>387.6</ele>
        <time>2023-03-05T09:32:48Z</time>
      </trkpt>
      <trkpt lat="44.05991" lon="1.79108">
        <ele>387.2</ele>
        <time>2023-03-05T09:32:49Z</time>
      </trkpt>
      <trkpt lat="44.05997" lon="1.79104">
        <ele>387</ele>
        <time>2023-03-05T09:32:50Z</time>
      </trkpt>
      <trkpt lat="44.06003" lon="1.79099">
        <ele>386.8</ele>
        <time>2023-03-05T09:32:51Z</time>
      </trkpt>
      <trkpt lat="44.06009" lon="1.79093">
        <ele>386.6</ele>
        <time>2023-03-05T09:32:52Z</time>
      </trkpt>
      <trkpt lat="44.06014" lon="1.79086">
        <ele>386.4</ele>
        <time>2023-03-05T09:32:53Z</time>
      </trkpt>
      <trkpt lat="44.0602" lon="1.79079">
        <ele>386.4</ele>
        <time>2023-03-05T09:32:54Z</time>
      </trkpt>
      <trkpt lat="44.06025" lon="1.79071">
        <ele>386</ele>
        <time>2023-03-05T09:32:55Z</time>
      </trkpt>
      <trkpt lat="44.0603" lon="1.79064">
        <ele>386</ele>
        <time>2023-03-05T09:32:56Z</time>
      </trkpt>
      <trkpt lat="44.06036" lon="1.79057">
        <ele>385.4</ele>
        <time>2023-03-05T09:32:57Z</time>
      </trkpt>
      <trkpt lat="44.06041" lon="1.7905">
        <ele>385.2</ele>
        <time>2023-03-05T09:32:58Z</time>
      </trkpt>
      <trkpt lat="44.06045" lon="1.79044">
        <ele>385.2</ele>
        <time>2023-03-05T09:32:59Z</time>
      </trkpt>
      <trkpt lat="44.0605" lon="1.79039">
        <ele>384.8</ele>
        <time>2023-03-05T09:33:00Z</time>
      </trkpt>
      <trkpt lat="44.06054" lon="1.79033">
        <ele>384.6</ele>
        <time>2023-03-05T09:33:01Z</time>
      </trkpt>
      <trkpt lat="44.06058" lon="1.79028">
        <ele>384.6</ele>
        <time>2023-03-05T09:33:02Z</time>
      </trkpt>
      <trkpt lat="44.06062" lon="1.79023">
        <ele>384.6</ele>
        <time>2023-03-05T09:33:03Z</time>
      </trkpt>
      <trkpt lat="44.06066" lon="1.79018">
        <ele>384.4</ele>
        <time>2023-03-05T09:33:04Z</time>
      </trkpt>
      <trkpt lat="44.06069" lon="1.79013">
        <ele>384.4</ele>
        <time>2023-03-05T09:33:05Z</time>
      </trkpt>
      <trkpt lat="44.06072" lon="1.79008">
        <ele>384.6</ele>
        <time>2023-03-05T09:33:06Z</time>
      </trkpt>
      <trkpt lat="44.06075" lon="1.79004">
        <ele>384.6</ele>
        <time>2023-03-05T09:33:07Z</time>
      </trkpt>
      <trkpt lat="44.06079" lon="1.79">
        <ele>384.6</ele>
        <time>2023-03-05T09:33:08Z</time>
      </trkpt>
      <trkpt lat="44.06082" lon="1.78996">
        <ele>384.8</ele>
        <time>2023-03-05T09:33:09Z</time>
      </trkpt>
      <trkpt lat="44.06085" lon="1.78993">
        <ele>385</ele>
        <time>2023-03-05T09:33:10Z</time>
      </trkpt>
      <trkpt lat="44.06089" lon="1.7899">
        <ele>385.2</ele>
        <time>2023-03-05T09:33:11Z</time>
      </trkpt>
      <trkpt lat="44.06092" lon="1.78987">
        <ele>385.4</ele>
        <time>2023-03-05T09:33:12Z</time>
      </trkpt>
      <trkpt lat="44.06095" lon="1.78984">
        <ele>385.6</ele>
        <time>2023-03-05T09:33:13Z</time>
      </trkpt>
      <trkpt lat="44.06098" lon="1.7898">
        <ele>385.8</ele>
        <time>2023-03-05T09:33:14Z</time>
      </trkpt>
      <trkpt lat="44.06102" lon="1.78977">
        <ele>386</ele>
        <time>2023-03-05T09:33:15Z</time>
      </trkpt>
      <trkpt lat="44.06105" lon="1.78974">
        <ele>386.2</ele>
        <time>2023-03-05T09:33:16Z</time>
      </trkpt>
      <trkpt lat="44.06108" lon="1.78971">
        <ele>386.6</ele>
        <time>2023-03-05T09:33:17Z</time>
      </trkpt>
      <trkpt lat="44.06111" lon="1.78968">
        <ele>386.8</ele>
        <time>2023-03-05T09:33:18Z</time>
      </trkpt>
      <trkpt lat="44.06114" lon="1.78965">
        <ele>387.2</ele>
        <time>2023-03-05T09:33:19Z</time>
      </trkpt>
      <trkpt lat="44.06117" lon="1.78961">
        <ele>387.6</ele>
        <time>2023-03-05T09:33:20Z</time>
      </trkpt>
      <trkpt lat="44.06121" lon="1.78958">
        <ele>387.8</ele>
        <time>2023-03-05T09:33:21Z</time>
      </trkpt>
      <trkpt lat="44.06124" lon="1.78955">
        <ele>388.2</ele>
        <time>2023-03-05T09:33:22Z</time>
      </trkpt>
      <trkpt lat="44.06127" lon="1.78952">
        <ele>388.2</ele>
        <time>2023-03-05T09:33:23Z</time>
      </trkpt>
      <trkpt lat="44.0613" lon="1.78949">
        <ele>388.6</ele>
        <time>2023-03-05T09:33:24Z</time>
      </trkpt>
      <trkpt lat="44.06133" lon="1.78946">
        <ele>388.6</ele>
        <time>2023-03-05T09:33:25Z</time>
      </trkpt>
      <trkpt lat="44.06137" lon="1.78943">
        <ele>389</ele>
        <time>2023-03-05T09:33:26Z</time>
      </trkpt>
      <trkpt lat="44.06141" lon="1.7894">
        <ele>389.2</ele>
        <time>2023-03-05T09:33:27Z</time>
      </trkpt>
      <trkpt lat="44.06145" lon="1.78937">
        <ele>389.4</ele>
        <time>2023-03-05T09:33:28Z</time>
      </trkpt>
      <trkpt lat="44.06149" lon="1.78935">
        <ele>389.6</ele>
        <time>2023-03-05T09:33:29Z</time>
      </trkpt>
      <trkpt lat="44.06153" lon="1.78932">
        <ele>390</ele>
        <time>2023-03-05T09:33:30Z</time>
      </trkpt>
      <trkpt lat="44.06157" lon="1.7893">
        <ele>390.2</ele>
        <time>2023-03-05T09:33:31Z</time>
      </trkpt>
      <trkpt lat="44.06161" lon="1.78928">
        <ele>390.4</ele>
        <time>2023-03-05T09:33:32Z</time>
      </trkpt>
      <trkpt lat="44.06166" lon="1.78925">
        <ele>390.6</ele>
        <time>2023-03-05T09:33:33Z</time>
      </trkpt>
      <trkpt lat="44.0617" lon="1.78923">
        <ele>390.6</ele>
        <time>2023-03-05T09:33:34Z</time>
      </trkpt>
      <trkpt lat="44.06175" lon="1.7892">
        <ele>390.8</ele>
        <time>2023-03-05T09:33:35Z</time>
      </trkpt>
      <trkpt lat="44.0618" lon="1.78918">
        <ele>390.8</ele>
        <time>2023-03-05T09:33:36Z</time>
      </trkpt>
      <trkpt lat="44.06184" lon="1.78916">
        <ele>391</ele>
        <time>2023-03-05T09:33:37Z</time>
      </trkpt>
      <trkpt lat="44.06189" lon="1.78914">
        <ele>391</ele>
        <time>2023-03-05T09:33:38Z</time>
      </trkpt>
      <trkpt lat="44.06194" lon="1.78912">
        <ele>391</ele>
        <time>2023-03-05T09:33:39Z</time>
      </trkpt>
      <trkpt lat="44.06198" lon="1.7891">
        <ele>391</ele>
        <time>2023-03-05T09:33:40Z</time>
      </trkpt>
      <trkpt lat="44.06202" lon="1.78908">
        <ele>391.2</ele>
        <time>2023-03-05T09:33:41Z</time>
      </trkpt>
      <trkpt lat="44.06207" lon="1.78905">
        <ele>391.2</ele>
        <time>2023-03-05T09:33:42Z</time>
      </trkpt>
      <trkpt lat="44.06211" lon="1.78903">
        <ele>391.2</ele>
        <time>2023-03-05T09:33:43Z</time>
      </trkpt>
      <trkpt lat="44.06215" lon="1.789">
        <ele>391.4</ele>
        <time>2023-03-05T09:33:44Z</time>
      </trkpt>
      <trkpt lat="44.06219" lon="1.78897">
        <ele>391.4</ele>
        <time>2023-03-05T09:33:45Z</time>
      </trkpt>
      <trkpt lat="44.06223" lon="1.78893">
        <ele>391.6</ele>
        <time>2023-03-05T09:33:46Z</time>
      </trkpt>
      <trkpt lat="44.06228" lon="1.7889">
        <ele>391.6</ele>
        <time>2023-03-05T09:33:47Z</time>
      </trkpt>
      <trkpt lat="44.06232" lon="1.78887">
        <ele>391.6</ele>
        <time>2023-03-05T09:33:48Z</time>
      </trkpt>
      <trkpt lat="44.06237" lon="1.78884">
        <ele>391.6</ele>
        <time>2023-03-05T09:33:49Z</time>
      </trkpt>
      <trkpt lat="44.06242" lon="1.78882">
        <ele>391.8</ele>
        <time>2023-03-05T09:33:50Z</time>
      </trkpt>
      <trkpt lat="44.06248" lon="1.78879">
        <ele>391.8</ele>
        <time>2023-03-05T09:33:51Z</time>
      </trkpt>
      <trkpt lat="44.06253" lon="1.78877">
        <ele>391.8</ele>
        <time>2023-03-05T09:33:52Z</time>
      </trkpt>
      <trkpt lat="44.06259" lon="1.78876">
        <ele>391.8</ele>
        <time>2023-03-05T09:33:53Z</time>
      </trkpt>
      <trkpt lat="44.06264" lon="1.78874">
        <ele>391.8</ele>
        <time>2023-03-05T09:33:54Z</time>
      </trkpt>
      <trkpt lat="44.0627" lon="1.78872">
        <ele>391.8</ele>
        <time>2023-03-05T09:33:55Z</time>
      </trkpt>
      <trkpt lat="44.06275" lon="1.7887">
        <ele>392</ele>
        <time>2023-03-05T09:33:56Z</time>
      </trkpt>
      <trkpt lat="44.0628" lon="1.78869">
        <ele>392</ele>
        <time>2023-03-05T09:33:57Z</time>
      </trkpt>
      <trkpt lat="44.06286" lon="1.78868">
        <ele>392</ele>
        <time>2023-03-05T09:33:58Z</time>
      </trkpt>
      <trkpt lat="44.06291" lon="1.78868">
        <ele>392</ele>
        <time>2023-03-05T09:33:59Z</time>
      </trkpt>
      <trkpt lat="44.06296" lon="1.78868">
        <ele>392</ele>
        <time>2023-03-05T09:34:00Z</time>
      </trkpt>
      <trkpt lat="44.063" lon="1.78868">
        <ele>392</ele>
        <time>2023-03-05T09:34:01Z</time>
      </trkpt>
      <trkpt lat="44.06305" lon="1.78869">
        <ele>392</ele>
        <time>2023-03-05T09:34:02Z</time>
      </trkpt>
      <trkpt lat="44.06309" lon="1.7887">
        <ele>392.2</ele>
        <time>2023-03-05T09:34:03Z</time>
      </trkpt>
      <trkpt lat="44.06313" lon="1.78871">
        <ele>392.2</ele>
        <time>2023-03-05T09:34:04Z</time>
      </trkpt>
      <trkpt lat="44.06316" lon="1.78872">
        <ele>392.2</ele>
        <time>2023-03-05T09:34:05Z</time>
      </trkpt>
      <trkpt lat="44.06321" lon="1.78873">
        <ele>392.4</ele>
        <time>2023-03-05T09:34:06Z</time>
      </trkpt>
      <trkpt lat="44.06325" lon="1.78872">
        <ele>392.4</ele>
        <time>2023-03-05T09:34:07Z</time>
      </trkpt>
      <trkpt lat="44.06329" lon="1.78871">
        <ele>392.6</ele>
        <time>2023-03-05T09:34:08Z</time>
      </trkpt>
      <trkpt lat="44.06332" lon="1.78869">
        <ele>392.6</ele>
        <time>2023-03-05T09:34:09Z</time>
      </trkpt>
      <trkpt lat="44.06335" lon="1.78864">
        <ele>392.8</ele>
        <time>2023-03-05T09:34:10Z</time>
      </trkpt>
      <trkpt lat="44.06337" lon="1.78859">
        <ele>392.8</ele>
        <time>2023-03-05T09:34:11Z</time>
      </trkpt>
      <trkpt lat="44.06338" lon="1.78853">
        <ele>393</ele>
        <time>2023-03-05T09:34:12Z</time>
      </trkpt>
      <trkpt lat="44.06339" lon="1.78847">
        <ele>393</ele>
        <time>2023-03-05T09:34:13Z</time>
      </trkpt>
      <trkpt lat="44.0634" lon="1.78842">
        <ele>393.2</ele>
        <time>2023-03-05T09:34:14Z</time>
      </trkpt>
      <trkpt lat="44.06341" lon="1.78838">
        <ele>393.2</ele>
        <time>2023-03-05T09:34:15Z</time>
      </trkpt>
      <trkpt lat="44.06343" lon="1.78835">
        <ele>393.4</ele>
        <time>2023-03-05T09:34:16Z</time>
      </trkpt>
      <trkpt lat="44.06345" lon="1.78833">
        <ele>393.4</ele>
        <time>2023-03-05T09:34:17Z</time>
      </trkpt>
      <trkpt lat="44.06349" lon="1.78832">
        <ele>393.6</ele>
        <time>2023-03-05T09:34:18Z</time>
      </trkpt>
      <trkpt lat="44.06352" lon="1.78832">
        <ele>393.8</ele>
        <time>2023-03-05T09:34:19Z</time>
      </trkpt>
      <trkpt lat="44.06356" lon="1.78833">
        <ele>393.8</ele>
        <time>2023-03-05T09:34:20Z</time>
      </trkpt>
      <trkpt lat="44.06361" lon="1.78833">
        <ele>393.8</ele>
        <time>2023-03-05T09:34:21Z</time>
      </trkpt>
      <trkpt lat="44.06366" lon="1.78833">
        <ele>393.8</ele>
        <time>2023-03-05T09:34:22Z</time>
      </trkpt>
      <trkpt lat="44.06372" lon="1.78834">
        <ele>393.8</ele>
        <time>2023-03-05T09:34:23Z</time>
      </trkpt>
      <trkpt lat="44.06379" lon="1.78834">
        <ele>393.8</ele>
        <time>2023-03-05T09:34:24Z</time>
      </trkpt>
      <trkpt lat="44.06386" lon="1.78834">
        <ele>393.8</ele>
        <time>2023-03-05T09:34:25Z</time>
      </trkpt>
      <trkpt lat="44.06393" lon="1.78834">
        <ele>393.6</ele>
        <time>2023-03-05T09:34:26Z</time>
      </trkpt>
      <trkpt lat="44.06402" lon="1.78833">
        <ele>393.2</ele>
        <time>2023-03-05T09:34:27Z</time>
      </trkpt>
      <trkpt lat="44.0641" lon="1.78833">
        <ele>393.2</ele>
        <time>2023-03-05T09:34:28Z</time>
      </trkpt>
      <trkpt lat="44.06418" lon="1.78832">
        <ele>392.8</ele>
        <time>2023-03-05T09:34:29Z</time>
      </trkpt>
      <trkpt lat="44.06427" lon="1.78831">
        <ele>392.2</ele>
        <time>2023-03-05T09:34:30Z</time>
      </trkpt>
      <trkpt lat="44.06434" lon="1.7883">
        <ele>392</ele>
        <time>2023-03-05T09:34:31Z</time>
      </trkpt>
      <trkpt lat="44.06442" lon="1.78828">
        <ele>390.8</ele>
        <time>2023-03-05T09:34:32Z</time>
      </trkpt>
      <trkpt lat="44.0645" lon="1.78827">
        <ele>390.4</ele>
        <time>2023-03-05T09:34:33Z</time>
      </trkpt>
      <trkpt lat="44.06458" lon="1.78826">
        <ele>389.8</ele>
        <time>2023-03-05T09:34:34Z</time>
      </trkpt>
      <trkpt lat="44.06467" lon="1.78827">
        <ele>389.4</ele>
        <time>2023-03-05T09:34:35Z</time>
      </trkpt>
      <trkpt lat="44.06475" lon="1.78828">
        <ele>388.8</ele>
        <time>2023-03-05T09:34:36Z</time>
      </trkpt>
      <trkpt lat="44.06483" lon="1.78829">
        <ele>388.4</ele>
        <time>2023-03-05T09:34:37Z</time>
      </trkpt>
      <trkpt lat="44.06492" lon="1.78829">
        <ele>387.2</ele>
        <time>2023-03-05T09:34:38Z</time>
      </trkpt>
      <trkpt lat="44.065" lon="1.78829">
        <ele>386.6</ele>
        <time>2023-03-05T09:34:39Z</time>
      </trkpt>
      <trkpt lat="44.06506" lon="1.7883">
        <ele>385.6</ele>
        <time>2023-03-05T09:34:40Z</time>
      </trkpt>
      <trkpt lat="44.0651" lon="1.78832">
        <ele>384.4</ele>
        <time>2023-03-05T09:34:41Z</time>
      </trkpt>
      <trkpt lat="44.06513" lon="1.78835">
        <ele>383.4</ele>
        <time>2023-03-05T09:34:42Z</time>
      </trkpt>
      <trkpt lat="44.06516" lon="1.78841">
        <ele>382.4</ele>
        <time>2023-03-05T09:34:43Z</time>
      </trkpt>
      <trkpt lat="44.06517" lon="1.78849">
        <ele>380.8</ele>
        <time>2023-03-05T09:34:44Z</time>
      </trkpt>
      <trkpt lat="44.0652" lon="1.78857">
        <ele>378.6</ele>
        <time>2023-03-05T09:34:45Z</time>
      </trkpt>
      <trkpt lat="44.06524" lon="1.78863">
        <ele>377.4</ele>
        <time>2023-03-05T09:34:46Z</time>
      </trkpt>
      <trkpt lat="44.06529" lon="1.78868">
        <ele>375</ele>
        <time>2023-03-05T09:34:47Z</time>
      </trkpt>
      <trkpt lat="44.06536" lon="1.7887">
        <ele>374.2</ele>
        <time>2023-03-05T09:34:48Z</time>
      </trkpt>
      <trkpt lat="44.06543" lon="1.78872">
        <ele>372.4</ele>
        <time>2023-03-05T09:34:49Z</time>
      </trkpt>
      <trkpt lat="44.06551" lon="1.78872">
        <ele>371.8</ele>
        <time>2023-03-05T09:34:50Z</time>
      </trkpt>
      <trkpt lat="44.06559" lon="1.78872">
        <ele>370.6</ele>
        <time>2023-03-05T09:34:51Z</time>
      </trkpt>
      <trkpt lat="44.06566" lon="1.78873">
        <ele>368</ele>
        <time>2023-03-05T09:34:52Z</time>
      </trkpt>
      <trkpt lat="44.06575" lon="1.78874">
        <ele>367.4</ele>
        <time>2023-03-05T09:34:53Z</time>
      </trkpt>
      <trkpt lat="44.06583" lon="1.78875">
        <ele>366.4</ele>
        <time>2023-03-05T09:34:54Z</time>
      </trkpt>
      <trkpt lat="44.06592" lon="1.78876">
        <ele>366.2</ele>
        <time>2023-03-05T09:34:55Z</time>
      </trkpt>
      <trkpt lat="44.06599" lon="1.78876">
        <ele>365.2</ele>
        <time>2023-03-05T09:34:56Z</time>
      </trkpt>
      <trkpt lat="44.0661" lon="1.78877">
        <ele>364.8</ele>
        <time>2023-03-05T09:34:57Z</time>
      </trkpt>
      <trkpt lat="44.0662" lon="1.78878">
        <ele>363.8</ele>
        <time>2023-03-05T09:34:58Z</time>
      </trkpt>
      <trkpt lat="44.06627" lon="1.78878">
        <ele>363.4</ele>
        <time>2023-03-05T09:34:59Z</time>
      </trkpt>
      <trkpt lat="44.06637" lon="1.78877">
        <ele>362.2</ele>
        <time>2023-03-05T09:35:00Z</time>
      </trkpt>
      <trkpt lat="44.06647" lon="1.78877">
        <ele>361.6</ele>
        <time>2023-03-05T09:35:01Z</time>
      </trkpt>
      <trkpt lat="44.06655" lon="1.78877">
        <ele>360.6</ele>
        <time>2023-03-05T09:35:02Z</time>
      </trkpt>
      <trkpt lat="44.0666" lon="1.78877">
        <ele>359.6</ele>
        <time>2023-03-05T09:35:03Z</time>
      </trkpt>
      <trkpt lat="44.06665" lon="1.78877">
        <ele>358.8</ele>
        <time>2023-03-05T09:35:04Z</time>
      </trkpt>
      <trkpt lat="44.0667" lon="1.78878">
        <ele>358</ele>
        <time>2023-03-05T09:35:05Z</time>
      </trkpt>
      <trkpt lat="44.06677" lon="1.78881">
        <ele>357.6</ele>
        <time>2023-03-05T09:35:06Z</time>
      </trkpt>
      <trkpt lat="44.06681" lon="1.7888">
        <ele>355.8</ele>
        <time>2023-03-05T09:35:07Z</time>
      </trkpt>
      <trkpt lat="44.06685" lon="1.78879">
        <ele>355.2</ele>
        <time>2023-03-05T09:35:08Z</time>
      </trkpt>
      <trkpt lat="44.06688" lon="1.78876">
        <ele>354.2</ele>
        <time>2023-03-05T09:35:09Z</time>
      </trkpt>
      <trkpt lat="44.06692" lon="1.78872">
        <ele>353.8</ele>
        <time>2023-03-05T09:35:10Z</time>
      </trkpt>
      <trkpt lat="44.06696" lon="1.78864">
        <ele>353</ele>
        <time>2023-03-05T09:35:11Z</time>
      </trkpt>
      <trkpt lat="44.06699" lon="1.78858">
        <ele>352.2</ele>
        <time>2023-03-05T09:35:12Z</time>
      </trkpt>
      <trkpt lat="44.06701" lon="1.78851">
        <ele>351.2</ele>
        <time>2023-03-05T09:35:13Z</time>
      </trkpt>
      <trkpt lat="44.06704" lon="1.78845">
        <ele>350.6</ele>
        <time>2023-03-05T09:35:14Z</time>
      </trkpt>
      <trkpt lat="44.06707" lon="1.78839">
        <ele>350.2</ele>
        <time>2023-03-05T09:35:15Z</time>
      </trkpt>
      <trkpt lat="44.0671" lon="1.78834">
        <ele>349.8</ele>
        <time>2023-03-05T09:35:16Z</time>
      </trkpt>
      <trkpt lat="44.06713" lon="1.7883">
        <ele>349.6</ele>
        <time>2023-03-05T09:35:17Z</time>
      </trkpt>
      <trkpt lat="44.06716" lon="1.7883">
        <ele>349.2</ele>
        <time>2023-03-05T09:35:18Z</time>
      </trkpt>
      <trkpt lat="44.06717" lon="1.78831">
        <ele>349.2</ele>
        <time>2023-03-05T09:35:19Z</time>
      </trkpt>
      <trkpt lat="44.06717" lon="1.78834">
        <ele>348.8</ele>
        <time>2023-03-05T09:35:20Z</time>
      </trkpt>
      <trkpt lat="44.06717" lon="1.78836">
        <ele>348.6</ele>
        <time>2023-03-05T09:35:21Z</time>
      </trkpt>
      <trkpt lat="44.06718" lon="1.78841">
        <ele>348.6</ele>
        <time>2023-03-05T09:35:22Z</time>
      </trkpt>
      <trkpt lat="44.06719" lon="1.78846">
        <ele>348.4</ele>
        <time>2023-03-05T09:35:23Z</time>
      </trkpt>
      <trkpt lat="44.06721" lon="1.78851">
        <ele>348.4</ele>
        <time>2023-03-05T09:35:24Z</time>
      </trkpt>
      <trkpt lat="44.06722" lon="1.78857">
        <ele>348.4</ele>
        <time>2023-03-05T09:35:25Z</time>
      </trkpt>
      <trkpt lat="44.06724" lon="1.78862">
        <ele>348.4</ele>
        <time>2023-03-05T09:35:26Z</time>
      </trkpt>
      <trkpt lat="44.06725" lon="1.78868">
        <ele>348.4</ele>
        <time>2023-03-05T09:35:27Z</time>
      </trkpt>
      <trkpt lat="44.06726" lon="1.78873">
        <ele>348.6</ele>
        <time>2023-03-05T09:35:28Z</time>
      </trkpt>
      <trkpt lat="44.06727" lon="1.78878">
        <ele>348.8</ele>
        <time>2023-03-05T09:35:29Z</time>
      </trkpt>
      <trkpt lat="44.06728" lon="1.78883">
        <ele>348.8</ele>
        <time>2023-03-05T09:35:30Z</time>
      </trkpt>
      <trkpt lat="44.06729" lon="1.78889">
        <ele>349.2</ele>
        <time>2023-03-05T09:35:31Z</time>
      </trkpt>
      <trkpt lat="44.06729" lon="1.78896">
        <ele>349.4</ele>
        <time>2023-03-05T09:35:32Z</time>
      </trkpt>
      <trkpt lat="44.06729" lon="1.78906">
        <ele>349.6</ele>
        <time>2023-03-05T09:35:33Z</time>
      </trkpt>
      <trkpt lat="44.0673" lon="1.78914">
        <ele>349.8</ele>
        <time>2023-03-05T09:35:34Z</time>
      </trkpt>
      <trkpt lat="44.0673" lon="1.78921">
        <ele>349.8</ele>
        <time>2023-03-05T09:35:35Z</time>
      </trkpt>
      <trkpt lat="44.0673" lon="1.78928">
        <ele>350</ele>
        <time>2023-03-05T09:35:36Z</time>
      </trkpt>
      <trkpt lat="44.06729" lon="1.78933">
        <ele>350</ele>
        <time>2023-03-05T09:35:37Z</time>
      </trkpt>
      <trkpt lat="44.06728" lon="1.78937">
        <ele>350</ele>
        <time>2023-03-05T09:35:38Z</time>
      </trkpt>
      <trkpt lat="44.06727" lon="1.78941">
        <ele>350</ele>
        <time>2023-03-05T09:35:39Z</time>
      </trkpt>
      <trkpt lat="44.06725" lon="1.78945">
        <ele>350</ele>
        <time>2023-03-05T09:35:40Z</time>
      </trkpt>
      <trkpt lat="44.06726" lon="1.78947">
        <ele>350</ele>
        <time>2023-03-05T09:35:41Z</time>
      </trkpt>
      <trkpt lat="44.06726" lon="1.7895">
        <ele>350</ele>
        <time>2023-03-05T09:35:42Z</time>
      </trkpt>
      <trkpt lat="44.06724" lon="1.78952">
        <ele>350</ele>
        <time>2023-03-05T09:35:43Z</time>
      </trkpt>
      <trkpt lat="44.06724" lon="1.78955">
        <ele>349.8</ele>
        <time>2023-03-05T09:35:44Z</time>
      </trkpt>
      <trkpt lat="44.06723" lon="1.78959">
        <ele>350</ele>
        <time>2023-03-05T09:35:45Z</time>
      </trkpt>
      <trkpt lat="44.06721" lon="1.78963">
        <ele>350</ele>
        <time>2023-03-05T09:35:46Z</time>
      </trkpt>
      <trkpt lat="44.0672" lon="1.78968">
        <ele>350</ele>
        <time>2023-03-05T09:35:47Z</time>
      </trkpt>
      <trkpt lat="44.06717" lon="1.78973">
        <ele>350</ele>
        <time>2023-03-05T09:35:48Z</time>
      </trkpt>
      <trkpt lat="44.06717" lon="1.78977">
        <ele>350.2</ele>
        <time>2023-03-05T09:35:49Z</time>
      </trkpt>
      <trkpt lat="44.06717" lon="1.78981">
        <ele>350.2</ele>
        <time>2023-03-05T09:35:50Z</time>
      </trkpt>
      <trkpt lat="44.06719" lon="1.78984">
        <ele>350.4</ele>
        <time>2023-03-05T09:35:51Z</time>
      </trkpt>
      <trkpt lat="44.06721" lon="1.78988">
        <ele>350.4</ele>
        <time>2023-03-05T09:35:52Z</time>
      </trkpt>
      <trkpt lat="44.06723" lon="1.78992">
        <ele>350.6</ele>
        <time>2023-03-05T09:35:53Z</time>
      </trkpt>
      <trkpt lat="44.06724" lon="1.78996">
        <ele>350.8</ele>
        <time>2023-03-05T09:35:54Z</time>
      </trkpt>
      <trkpt lat="44.06725" lon="1.79002">
        <ele>351.2</ele>
        <time>2023-03-05T09:35:55Z</time>
      </trkpt>
      <trkpt lat="44.06726" lon="1.79007">
        <ele>351.4</ele>
        <time>2023-03-05T09:35:56Z</time>
      </trkpt>
      <trkpt lat="44.06728" lon="1.79013">
        <ele>351.6</ele>
        <time>2023-03-05T09:35:57Z</time>
      </trkpt>
      <trkpt lat="44.0673" lon="1.79016">
        <ele>351.6</ele>
        <time>2023-03-05T09:35:58Z</time>
      </trkpt>
      <trkpt lat="44.06732" lon="1.79019">
        <ele>352</ele>
        <time>2023-03-05T09:35:59Z</time>
      </trkpt>
      <trkpt lat="44.06734" lon="1.79023">
        <ele>352.2</ele>
        <time>2023-03-05T09:36:00Z</time>
      </trkpt>
      <trkpt lat="44.06736" lon="1.79027">
        <ele>352.4</ele>
        <time>2023-03-05T09:36:01Z</time>
      </trkpt>
      <trkpt lat="44.06738" lon="1.7903">
        <ele>352.8</ele>
        <time>2023-03-05T09:36:02Z</time>
      </trkpt>
      <trkpt lat="44.06741" lon="1.79036">
        <ele>353</ele>
        <time>2023-03-05T09:36:03Z</time>
      </trkpt>
      <trkpt lat="44.06742" lon="1.79041">
        <ele>353.6</ele>
        <time>2023-03-05T09:36:04Z</time>
      </trkpt>
      <trkpt lat="44.06744" lon="1.79045">
        <ele>353.6</ele>
        <time>2023-03-05T09:36:05Z</time>
      </trkpt>
      <trkpt lat="44.06746" lon="1.79048">
        <ele>354</ele>
        <time>2023-03-05T09:36:06Z</time>
      </trkpt>
      <trkpt lat="44.06747" lon="1.79052">
        <ele>354</ele>
        <time>2023-03-05T09:36:07Z</time>
      </trkpt>
      <trkpt lat="44.0675" lon="1.79056">
        <ele>354.2</ele>
        <time>2023-03-05T09:36:08Z</time>
      </trkpt>
      <trkpt lat="44.06752" lon="1.7906">
        <ele>354.2</ele>
        <time>2023-03-05T09:36:09Z</time>
      </trkpt>
      <trkpt lat="44.06755" lon="1.79062">
        <ele>354.4</ele>
        <time>2023-03-05T09:36:10Z</time>
      </trkpt>
      <trkpt lat="44.06757" lon="1.79065">
        <ele>354.8</ele>
        <time>2023-03-05T09:36:11Z</time>
      </trkpt>
      <trkpt lat="44.06758" lon="1.79069">
        <ele>354.8</ele>
        <time>2023-03-05T09:36:12Z</time>
      </trkpt>
      <trkpt lat="44.0676" lon="1.79072">
        <ele>355</ele>
        <time>2023-03-05T09:36:13Z</time>
      </trkpt>
      <trkpt lat="44.06763" lon="1.79076">
        <ele>355.2</ele>
        <time>2023-03-05T09:36:14Z</time>
      </trkpt>
      <trkpt lat="44.06766" lon="1.7908">
        <ele>355.4</ele>
        <time>2023-03-05T09:36:15Z</time>
      </trkpt>
      <trkpt lat="44.06769" lon="1.79083">
        <ele>355.6</ele>
        <time>2023-03-05T09:36:16Z</time>
      </trkpt>
      <trkpt lat="44.06771" lon="1.79085">
        <ele>356</ele>
        <time>2023-03-05T09:36:17Z</time>
      </trkpt>
      <trkpt lat="44.06774" lon="1.79087">
        <ele>356.2</ele>
        <time>2023-03-05T09:36:18Z</time>
      </trkpt>
      <trkpt lat="44.06778" lon="1.7909">
        <ele>356.4</ele>
        <time>2023-03-05T09:36:19Z</time>
      </trkpt>
      <trkpt lat="44.06781" lon="1.79093">
        <ele>356.6</ele>
        <time>2023-03-05T09:36:20Z</time>
      </trkpt>
      <trkpt lat="44.06784" lon="1.79096">
        <ele>356.8</ele>
        <time>2023-03-05T09:36:21Z</time>
      </trkpt>
      <trkpt lat="44.06787" lon="1.791">
        <ele>357.2</ele>
        <time>2023-03-05T09:36:22Z</time>
      </trkpt>
      <trkpt lat="44.06791" lon="1.79104">
        <ele>357.2</ele>
        <time>2023-03-05T09:36:23Z</time>
      </trkpt>
      <trkpt lat="44.06794" lon="1.79107">
        <ele>357.4</ele>
        <time>2023-03-05T09:36:24Z</time>
      </trkpt>
      <trkpt lat="44.06797" lon="1.79111">
        <ele>357.6</ele>
        <time>2023-03-05T09:36:25Z</time>
      </trkpt>
      <trkpt lat="44.068" lon="1.79116">
        <ele>357.6</ele>
        <time>2023-03-05T09:36:26Z</time>
      </trkpt>
      <trkpt lat="44.06803" lon="1.7912">
        <ele>357.8</ele>
        <time>2023-03-05T09:36:27Z</time>
      </trkpt>
      <trkpt lat="44.06806" lon="1.79123">
        <ele>357.8</ele>
        <time>2023-03-05T09:36:28Z</time>
      </trkpt>
      <trkpt lat="44.06808" lon="1.79126">
        <ele>357.8</ele>
        <time>2023-03-05T09:36:29Z</time>
      </trkpt>
      <trkpt lat="44.06811" lon="1.79129">
        <ele>358</ele>
        <time>2023-03-05T09:36:30Z</time>
      </trkpt>
      <trkpt lat="44.06814" lon="1.79132">
        <ele>358</ele>
        <time>2023-03-05T09:36:31Z</time>
      </trkpt>
      <trkpt lat="44.06817" lon="1.79135">
        <ele>358.2</ele>
        <time>2023-03-05T09:36:32Z</time>
      </trkpt>
      <trkpt lat="44.06821" lon="1.79138">
        <ele>358.2</ele>
        <time>2023-03-05T09:36:33Z</time>
      </trkpt>
      <trkpt lat="44.06825" lon="1.79141">
        <ele>358.4</ele>
        <time>2023-03-05T09:36:34Z</time>
      </trkpt>
      <trkpt lat="44.06828" lon="1.79144">
        <ele>358.6</ele>
        <time>2023-03-05T09:36:35Z</time>
      </trkpt>
      <trkpt lat="44.06832" lon="1.79146">
        <ele>358.6</ele>
        <time>2023-03-05T09:36:36Z</time>
      </trkpt>
      <trkpt lat="44.06836" lon="1.79149">
        <ele>358.8</ele>
        <time>2023-03-05T09:36:37Z</time>
      </trkpt>
      <trkpt lat="44.06839" lon="1.79152">
        <ele>358.8</ele>
        <time>2023-03-05T09:36:38Z</time>
      </trkpt>
      <trkpt lat="44.06843" lon="1.79156">
        <ele>359</ele>
        <time>2023-03-05T09:36:39Z</time>
      </trkpt>
      <trkpt lat="44.06846" lon="1.7916">
        <ele>359</ele>
        <time>2023-03-05T09:36:40Z</time>
      </trkpt>
      <trkpt lat="44.0685" lon="1.79164">
        <ele>359</ele>
        <time>2023-03-05T09:36:41Z</time>
      </trkpt>
      <trkpt lat="44.06854" lon="1.79167">
        <ele>359</ele>
        <time>2023-03-05T09:36:42Z</time>
      </trkpt>
      <trkpt lat="44.06857" lon="1.79172">
        <ele>359.2</ele>
        <time>2023-03-05T09:36:43Z</time>
      </trkpt>
      <trkpt lat="44.0686" lon="1.79176">
        <ele>359.2</ele>
        <time>2023-03-05T09:36:44Z</time>
      </trkpt>
      <trkpt lat="44.06863" lon="1.79179">
        <ele>359.2</ele>
        <time>2023-03-05T09:36:45Z</time>
      </trkpt>
      <trkpt lat="44.06866" lon="1.79182">
        <ele>359.2</ele>
        <time>2023-03-05T09:36:46Z</time>
      </trkpt>
      <trkpt lat="44.06868" lon="1.79186">
        <ele>359.2</ele>
        <time>2023-03-05T09:36:47Z</time>
      </trkpt>
      <trkpt lat="44.06871" lon="1.79189">
        <ele>359.4</ele>
        <time>2023-03-05T09:36:48Z</time>
      </trkpt>
      <trkpt lat="44.06874" lon="1.79192">
        <ele>359.6</ele>
        <time>2023-03-05T09:36:49Z</time>
      </trkpt>
      <trkpt lat="44.06876" lon="1.79194">
        <ele>360</ele>
        <time>2023-03-05T09:36:50Z</time>
      </trkpt>
      <trkpt lat="44.06879" lon="1.79197">
        <ele>360.2</ele>
        <time>2023-03-05T09:36:51Z</time>
      </trkpt>
      <trkpt lat="44.06881" lon="1.79199">
        <ele>360.6</ele>
        <time>2023-03-05T09:36:52Z</time>
      </trkpt>
      <trkpt lat="44.06883" lon="1.79201">
        <ele>360.8</ele>
        <time>2023-03-05T09:36:53Z</time>
      </trkpt>
      <trkpt lat="44.06886" lon="1.79204">
        <ele>361</ele>
        <time>2023-03-05T09:36:54Z</time>
      </trkpt>
      <trkpt lat="44.06888" lon="1.79206">
        <ele>361.2</ele>
        <time>2023-03-05T09:36:55Z</time>
      </trkpt>
      <trkpt lat="44.0689" lon="1.79208">
        <ele>361.6</ele>
        <time>2023-03-05T09:36:56Z</time>
      </trkpt>
      <trkpt lat="44.06892" lon="1.7921">
        <ele>361.8</ele>
        <time>2023-03-05T09:36:57Z</time>
      </trkpt>
      <trkpt lat="44.06894" lon="1.79213">
        <ele>361.8</ele>
        <time>2023-03-05T09:36:58Z</time>
      </trkpt>
      <trkpt lat="44.06897" lon="1.79215">
        <ele>362</ele>
        <time>2023-03-05T09:36:59Z</time>
      </trkpt>
      <trkpt lat="44.06899" lon="1.79218">
        <ele>362.2</ele>
        <time>2023-03-05T09:37:00Z</time>
      </trkpt>
      <trkpt lat="44.06902" lon="1.7922">
        <ele>363.2</ele>
        <time>2023-03-05T09:37:01Z</time>
      </trkpt>
      <trkpt lat="44.06904" lon="1.79224">
        <ele>363.4</ele>
        <time>2023-03-05T09:37:02Z</time>
      </trkpt>
      <trkpt lat="44.06906" lon="1.79226">
        <ele>364</ele>
        <time>2023-03-05T09:37:03Z</time>
      </trkpt>
      <trkpt lat="44.06908" lon="1.7923">
        <ele>364.2</ele>
        <time>2023-03-05T09:37:04Z</time>
      </trkpt>
      <trkpt lat="44.0691" lon="1.79233">
        <ele>364.4</ele>
        <time>2023-03-05T09:37:05Z</time>
      </trkpt>
      <trkpt lat="44.06912" lon="1.79235">
        <ele>364.6</ele>
        <time>2023-03-05T09:37:06Z</time>
      </trkpt>
      <trkpt lat="44.06914" lon="1.79238">
        <ele>365</ele>
        <time>2023-03-05T09:37:07Z</time>
      </trkpt>
      <trkpt lat="44.06916" lon="1.7924">
        <ele>364.8</ele>
        <time>2023-03-05T09:37:08Z</time>
      </trkpt>
      <trkpt lat="44.06918" lon="1.79243">
        <ele>365.2</ele>
        <time>2023-03-05T09:37:09Z</time>
      </trkpt>
      <trkpt lat="44.06919" lon="1.79246">
        <ele>365.4</ele>
        <time>2023-03-05T09:37:10Z</time>
      </trkpt>
      <trkpt lat="44.06921" lon="1.79248">
        <ele>365.6</ele>
        <time>2023-03-05T09:37:11Z</time>
      </trkpt>
      <trkpt lat="44.06923" lon="1.79251">
        <ele>366.2</ele>
        <time>2023-03-05T09:37:12Z</time>
      </trkpt>
      <trkpt lat="44.06924" lon="1.79254">
        <ele>366.4</ele>
        <time>2023-03-05T09:37:13Z</time>
      </trkpt>
      <trkpt lat="44.06926" lon="1.79257">
        <ele>366.8</ele>
        <time>2023-03-05T09:37:14Z</time>
      </trkpt>
      <trkpt lat="44.06927" lon="1.79261">
        <ele>367.2</ele>
        <time>2023-03-05T09:37:15Z</time>
      </trkpt>
      <trkpt lat="44.06929" lon="1.79264">
        <ele>368</ele>
        <time>2023-03-05T09:37:16Z</time>
      </trkpt>
      <trkpt lat="44.0693" lon="1.79267">
        <ele>368.2</ele>
        <time>2023-03-05T09:37:17Z</time>
      </trkpt>
      <trkpt lat="44.06931" lon="1.7927">
        <ele>368.4</ele>
        <time>2023-03-05T09:37:18Z</time>
      </trkpt>
      <trkpt lat="44.06932" lon="1.79274">
        <ele>368.6</ele>
        <time>2023-03-05T09:37:19Z</time>
      </trkpt>
      <trkpt lat="44.06933" lon="1.79277">
        <ele>369.2</ele>
        <time>2023-03-05T09:37:20Z</time>
      </trkpt>
      <trkpt lat="44.06935" lon="1.7928">
        <ele>369.4</ele>
        <time>2023-03-05T09:37:21Z</time>
      </trkpt>
      <trkpt lat="44.06936" lon="1.79284">
        <ele>369.6</ele>
        <time>2023-03-05T09:37:22Z</time>
      </trkpt>
      <trkpt lat="44.06937" lon="1.79287">
        <ele>369.8</ele>
        <time>2023-03-05T09:37:23Z</time>
      </trkpt>
      <trkpt lat="44.06937" lon="1.79291">
        <ele>370</ele>
        <time>2023-03-05T09:37:24Z</time>
      </trkpt>
      <trkpt lat="44.06938" lon="1.79294">
        <ele>370.4</ele>
        <time>2023-03-05T09:37:25Z</time>
      </trkpt>
      <trkpt lat="44.06938" lon="1.79298">
        <ele>370.8</ele>
        <time>2023-03-05T09:37:26Z</time>
      </trkpt>
      <trkpt lat="44.06937" lon="1.79302">
        <ele>371.2</ele>
        <time>2023-03-05T09:37:27Z</time>
      </trkpt>
      <trkpt lat="44.06937" lon="1.79305">
        <ele>371.6</ele>
        <time>2023-03-05T09:37:28Z</time>
      </trkpt>
      <trkpt lat="44.06936" lon="1.7931">
        <ele>372</ele>
        <time>2023-03-05T09:37:29Z</time>
      </trkpt>
      <trkpt lat="44.06936" lon="1.79314">
        <ele>372.2</ele>
        <time>2023-03-05T09:37:30Z</time>
      </trkpt>
      <trkpt lat="44.06935" lon="1.79318">
        <ele>372.6</ele>
        <time>2023-03-05T09:37:31Z</time>
      </trkpt>
      <trkpt lat="44.06934" lon="1.79322">
        <ele>372.8</ele>
        <time>2023-03-05T09:37:32Z</time>
      </trkpt>
      <trkpt lat="44.06933" lon="1.79326">
        <ele>373</ele>
        <time>2023-03-05T09:37:33Z</time>
      </trkpt>
      <trkpt lat="44.06932" lon="1.79331">
        <ele>373.4</ele>
        <time>2023-03-05T09:37:34Z</time>
      </trkpt>
      <trkpt lat="44.0693" lon="1.79336">
        <ele>373.6</ele>
        <time>2023-03-05T09:37:35Z</time>
      </trkpt>
      <trkpt lat="44.06929" lon="1.7934">
        <ele>373.8</ele>
        <time>2023-03-05T09:37:36Z</time>
      </trkpt>
      <trkpt lat="44.06928" lon="1.79345">
        <ele>373.8</ele>
        <time>2023-03-05T09:37:37Z</time>
      </trkpt>
      <trkpt lat="44.06927" lon="1.79351">
        <ele>373.8</ele>
        <time>2023-03-05T09:37:38Z</time>
      </trkpt>
      <trkpt lat="44.06925" lon="1.79356">
        <ele>373.8</ele>
        <time>2023-03-05T09:37:39Z</time>
      </trkpt>
      <trkpt lat="44.06924" lon="1.79362">
        <ele>374</ele>
        <time>2023-03-05T09:37:40Z</time>
      </trkpt>
      <trkpt lat="44.06924" lon="1.79366">
        <ele>374.2</ele>
        <time>2023-03-05T09:37:41Z</time>
      </trkpt>
      <trkpt lat="44.06924" lon="1.7937">
        <ele>374.2</ele>
        <time>2023-03-05T09:37:42Z</time>
      </trkpt>
      <trkpt lat="44.06925" lon="1.79375">
        <ele>374</ele>
        <time>2023-03-05T09:37:43Z</time>
      </trkpt>
      <trkpt lat="44.06926" lon="1.79379">
        <ele>374.2</ele>
        <time>2023-03-05T09:37:44Z</time>
      </trkpt>
      <trkpt lat="44.06928" lon="1.79382">
        <ele>374.2</ele>
        <time>2023-03-05T09:37:45Z</time>
      </trkpt>
      <trkpt lat="44.06929" lon="1.79385">
        <ele>374.2</ele>
        <time>2023-03-05T09:37:46Z</time>
      </trkpt>
      <trkpt lat="44.06931" lon="1.79387">
        <ele>374.2</ele>
        <time>2023-03-05T09:37:47Z</time>
      </trkpt>
      <trkpt lat="44.06933" lon="1.7939">
        <ele>374.2</ele>
        <time>2023-03-05T09:37:48Z</time>
      </trkpt>
      <trkpt lat="44.06935" lon="1.79392">
        <ele>374.6</ele>
        <time>2023-03-05T09:37:49Z</time>
      </trkpt>
      <trkpt lat="44.06938" lon="1.79395">
        <ele>374.6</ele>
        <time>2023-03-05T09:37:50Z</time>
      </trkpt>
      <trkpt lat="44.0694" lon="1.79397">
        <ele>374.8</ele>
        <time>2023-03-05T09:37:51Z</time>
      </trkpt>
      <trkpt lat="44.06942" lon="1.79398">
        <ele>374.8</ele>
        <time>2023-03-05T09:37:52Z</time>
      </trkpt>
      <trkpt lat="44.06944" lon="1.79401">
        <ele>375</ele>
        <time>2023-03-05T09:37:53Z</time>
      </trkpt>
      <trkpt lat="44.06947" lon="1.79402">
        <ele>375.2</ele>
        <time>2023-03-05T09:37:54Z</time>
      </trkpt>
      <trkpt lat="44.06949" lon="1.79404">
        <ele>375.6</ele>
        <time>2023-03-05T09:37:55Z</time>
      </trkpt>
      <trkpt lat="44.06952" lon="1.79406">
        <ele>376</ele>
        <time>2023-03-05T09:37:56Z</time>
      </trkpt>
      <trkpt lat="44.06954" lon="1.79409">
        <ele>376.4</ele>
        <time>2023-03-05T09:37:57Z</time>
      </trkpt>
      <trkpt lat="44.06956" lon="1.79412">
        <ele>376.8</ele>
        <time>2023-03-05T09:37:58Z</time>
      </trkpt>
      <trkpt lat="44.06958" lon="1.79415">
        <ele>377.2</ele>
        <time>2023-03-05T09:37:59Z</time>
      </trkpt>
      <trkpt lat="44.06959" lon="1.79418">
        <ele>377.8</ele>
        <time>2023-03-05T09:38:00Z</time>
      </trkpt>
      <trkpt lat="44.06961" lon="1.79421">
        <ele>378</ele>
        <time>2023-03-05T09:38:01Z</time>
      </trkpt>
      <trkpt lat="44.06962" lon="1.79424">
        <ele>378.6</ele>
        <time>2023-03-05T09:38:02Z</time>
      </trkpt>
      <trkpt lat="44.06963" lon="1.79427">
        <ele>379</ele>
        <time>2023-03-05T09:38:03Z</time>
      </trkpt>
      <trkpt lat="44.06964" lon="1.79431">
        <ele>379.4</ele>
        <time>2023-03-05T09:38:04Z</time>
      </trkpt>
      <trkpt lat="44.06965" lon="1.79434">
        <ele>379.6</ele>
        <time>2023-03-05T09:38:05Z</time>
      </trkpt>
      <trkpt lat="44.06966" lon="1.79436">
        <ele>379.8</ele>
        <time>2023-03-05T09:38:06Z</time>
      </trkpt>
      <trkpt lat="44.06967" lon="1.79438">
        <ele>380.4</ele>
        <time>2023-03-05T09:38:07Z</time>
      </trkpt>
      <trkpt lat="44.06968" lon="1.79441">
        <ele>380.8</ele>
        <time>2023-03-05T09:38:08Z</time>
      </trkpt>
      <trkpt lat="44.0697" lon="1.79444">
        <ele>381.4</ele>
        <time>2023-03-05T09:38:09Z</time>
      </trkpt>
      <trkpt lat="44.06971" lon="1.79446">
        <ele>381.8</ele>
        <time>2023-03-05T09:38:10Z</time>
      </trkpt>
      <trkpt lat="44.06972" lon="1.79448">
        <ele>382.2</ele>
        <time>2023-03-05T09:38:11Z</time>
      </trkpt>
      <trkpt lat="44.06973" lon="1.79451">
        <ele>382.6</ele>
        <time>2023-03-05T09:38:12Z</time>
      </trkpt>
      <trkpt lat="44.06975" lon="1.79454">
        <ele>383</ele>
        <time>2023-03-05T09:38:13Z</time>
      </trkpt>
      <trkpt lat="44.06975" lon="1.79456">
        <ele>383.2</ele>
        <time>2023-03-05T09:38:14Z</time>
      </trkpt>
      <trkpt lat="44.06976" lon="1.79458">
        <ele>383.8</ele>
        <time>2023-03-05T09:38:15Z</time>
      </trkpt>
      <trkpt lat="44.06978" lon="1.7946">
        <ele>384</ele>
        <time>2023-03-05T09:38:16Z</time>
      </trkpt>
      <trkpt lat="44.06979" lon="1.79462">
        <ele>384.4</ele>
        <time>2023-03-05T09:38:17Z</time>
      </trkpt>
      <trkpt lat="44.0698" lon="1.79465">
        <ele>385.2</ele>
        <time>2023-03-05T09:38:18Z</time>
      </trkpt>
      <trkpt lat="44.06982" lon="1.79467">
        <ele>385.4</ele>
        <time>2023-03-05T09:38:19Z</time>
      </trkpt>
      <trkpt lat="44.06983" lon="1.79469">
        <ele>385.8</ele>
        <time>2023-03-05T09:38:20Z</time>
      </trkpt>
      <trkpt lat="44.06984" lon="1.79471">
        <ele>386</ele>
        <time>2023-03-05T09:38:21Z</time>
      </trkpt>
      <trkpt lat="44.06986" lon="1.79474">
        <ele>386.6</ele>
        <time>2023-03-05T09:38:22Z</time>
      </trkpt>
      <trkpt lat="44.06986" lon="1.79476">
        <ele>386.8</ele>
        <time>2023-03-05T09:38:23Z</time>
      </trkpt>
      <trkpt lat="44.06988" lon="1.79479">
        <ele>387.2</ele>
        <time>2023-03-05T09:38:24Z</time>
      </trkpt>
      <trkpt lat="44.06989" lon="1.79482">
        <ele>387.4</ele>
        <time>2023-03-05T09:38:25Z</time>
      </trkpt>
      <trkpt lat="44.0699" lon="1.79486">
        <ele>387.8</ele>
        <time>2023-03-05T09:38:26Z</time>
      </trkpt>
      <trkpt lat="44.06991" lon="1.7949">
        <ele>388</ele>
        <time>2023-03-05T09:38:27Z</time>
      </trkpt>
      <trkpt lat="44.06991" lon="1.79493">
        <ele>388.4</ele>
        <time>2023-03-05T09:38:28Z</time>
      </trkpt>
      <trkpt lat="44.06991" lon="1.79496">
        <ele>388.8</ele>
        <time>2023-03-05T09:38:29Z</time>
      </trkpt>
      <trkpt lat="44.06991" lon="1.795">
        <ele>388.8</ele>
        <time>2023-03-05T09:38:30Z</time>
      </trkpt>
      <trkpt lat="44.0699" lon="1.79503">
        <ele>389.4</ele>
        <time>2023-03-05T09:38:31Z</time>
      </trkpt>
      <trkpt lat="44.0699" lon="1.79505">
        <ele>390</ele>
        <time>2023-03-05T09:38:32Z</time>
      </trkpt>
      <trkpt lat="44.06988" lon="1.79508">
        <ele>390.6</ele>
        <time>2023-03-05T09:38:33Z</time>
      </trkpt>
      <trkpt lat="44.06987" lon="1.79511">
        <ele>391</ele>
        <time>2023-03-05T09:38:34Z</time>
      </trkpt>
      <trkpt lat="44.06987" lon="1.79514">
        <ele>391.4</ele>
        <time>2023-03-05T09:38:35Z</time>
      </trkpt>
      <trkpt lat="44.06986" lon="1.79518">
        <ele>391.6</ele>
        <time>2023-03-05T09:38:36Z</time>
      </trkpt>
      <trkpt lat="44.06986" lon="1.79521">
        <ele>392</ele>
        <time>2023-03-05T09:38:37Z</time>
      </trkpt>
      <trkpt lat="44.06986" lon="1.79524">
        <ele>392.2</ele>
        <time>2023-03-05T09:38:38Z</time>
      </trkpt>
      <trkpt lat="44.06985" lon="1.79527">
        <ele>392.8</ele>
        <time>2023-03-05T09:38:39Z</time>
      </trkpt>
      <trkpt lat="44.06985" lon="1.79531">
        <ele>393.2</ele>
        <time>2023-03-05T09:38:40Z</time>
      </trkpt>
      <trkpt lat="44.06984" lon="1.79534">
        <ele>393.4</ele>
        <time>2023-03-05T09:38:41Z</time>
      </trkpt>
      <trkpt lat="44.06983" lon="1.79537">
        <ele>394</ele>
        <time>2023-03-05T09:38:42Z</time>
      </trkpt>
      <trkpt lat="44.06982" lon="1.7954">
        <ele>394.4</ele>
        <time>2023-03-05T09:38:43Z</time>
      </trkpt>
      <trkpt lat="44.06981" lon="1.79543">
        <ele>394.8</ele>
        <time>2023-03-05T09:38:44Z</time>
      </trkpt>
      <trkpt lat="44.0698" lon="1.79546">
        <ele>395</ele>
        <time>2023-03-05T09:38:45Z</time>
      </trkpt>
      <trkpt lat="44.06979" lon="1.79548">
        <ele>395.2</ele>
        <time>2023-03-05T09:38:46Z</time>
      </trkpt>
      <trkpt lat="44.06978" lon="1.79551">
        <ele>395.4</ele>
        <time>2023-03-05T09:38:47Z</time>
      </trkpt>
      <trkpt lat="44.06977" lon="1.79553">
        <ele>395.8</ele>
        <time>2023-03-05T09:38:48Z</time>
      </trkpt>
      <trkpt lat="44.06976" lon="1.79555">
        <ele>396.2</ele>
        <time>2023-03-05T09:38:49Z</time>
      </trkpt>
      <trkpt lat="44.06976" lon="1.79558">
        <ele>396.6</ele>
        <time>2023-03-05T09:38:50Z</time>
      </trkpt>
      <trkpt lat="44.06975" lon="1.7956">
        <ele>397.2</ele>
        <time>2023-03-05T09:38:51Z</time>
      </trkpt>
      <trkpt lat="44.06974" lon="1.79563">
        <ele>397.6</ele>
        <time>2023-03-05T09:38:52Z</time>
      </trkpt>
      <trkpt lat="44.06973" lon="1.79566">
        <ele>398</ele>
        <time>2023-03-05T09:38:53Z</time>
      </trkpt>
      <trkpt lat="44.06972" lon="1.79568">
        <ele>398.4</ele>
        <time>2023-03-05T09:38:54Z</time>
      </trkpt>
      <trkpt lat="44.0697" lon="1.7957">
        <ele>398.8</ele>
        <time>2023-03-05T09:38:55Z</time>
      </trkpt>
      <trkpt lat="44.06968" lon="1.79572">
        <ele>399</ele>
        <time>2023-03-05T09:38:56Z</time>
      </trkpt>
      <trkpt lat="44.06967" lon="1.79574">
        <ele>399.2</ele>
        <time>2023-03-05T09:38:57Z</time>
      </trkpt>
      <trkpt lat="44.06965" lon="1.79576">
        <ele>399.4</ele>
        <time>2023-03-05T09:38:58Z</time>
      </trkpt>
      <trkpt lat="44.06964" lon="1.79578">
        <ele>399.8</ele>
        <time>2023-03-05T09:38:59Z</time>
      </trkpt>
      <trkpt lat="44.06962" lon="1.7958">
        <ele>400</ele>
        <time>2023-03-05T09:39:00Z</time>
      </trkpt>
      <trkpt lat="44.0696" lon="1.79582">
        <ele>400.6</ele>
        <time>2023-03-05T09:39:01Z</time>
      </trkpt>
      <trkpt lat="44.06958" lon="1.79583">
        <ele>400.8</ele>
        <time>2023-03-05T09:39:02Z</time>
      </trkpt>
      <trkpt lat="44.06957" lon="1.79585">
        <ele>401</ele>
        <time>2023-03-05T09:39:03Z</time>
      </trkpt>
      <trkpt lat="44.06955" lon="1.79588">
        <ele>401.4</ele>
        <time>2023-03-05T09:39:04Z</time>
      </trkpt>
      <trkpt lat="44.06954" lon="1.7959">
        <ele>401.6</ele>
        <time>2023-03-05T09:39:05Z</time>
      </trkpt>
      <trkpt lat="44.06952" lon="1.79592">
        <ele>402.4</ele>
        <time>2023-03-05T09:39:06Z</time>
      </trkpt>
      <trkpt lat="44.06952" lon="1.79595">
        <ele>402.6</ele>
        <time>2023-03-05T09:39:07Z</time>
      </trkpt>
      <trkpt lat="44.06951" lon="1.79598">
        <ele>402.8</ele>
        <time>2023-03-05T09:39:08Z</time>
      </trkpt>
      <trkpt lat="44.0695" lon="1.79602">
        <ele>403.2</ele>
        <time>2023-03-05T09:39:09Z</time>
      </trkpt>
      <trkpt lat="44.06949" lon="1.79606">
        <ele>403.6</ele>
        <time>2023-03-05T09:39:10Z</time>
      </trkpt>
      <trkpt lat="44.06949" lon="1.79609">
        <ele>403.6</ele>
        <time>2023-03-05T09:39:11Z</time>
      </trkpt>
      <trkpt lat="44.06949" lon="1.79613">
        <ele>404</ele>
        <time>2023-03-05T09:39:12Z</time>
      </trkpt>
      <trkpt lat="44.0695" lon="1.79617">
        <ele>404.4</ele>
        <time>2023-03-05T09:39:13Z</time>
      </trkpt>
      <trkpt lat="44.0695" lon="1.7962">
        <ele>404.4</ele>
        <time>2023-03-05T09:39:14Z</time>
      </trkpt>
      <trkpt lat="44.0695" lon="1.79624">
        <ele>405</ele>
        <time>2023-03-05T09:39:15Z</time>
      </trkpt>
      <trkpt lat="44.06951" lon="1.79629">
        <ele>405.4</ele>
        <time>2023-03-05T09:39:16Z</time>
      </trkpt>
      <trkpt lat="44.06952" lon="1.79632">
        <ele>405.8</ele>
        <time>2023-03-05T09:39:17Z</time>
      </trkpt>
      <trkpt lat="44.06953" lon="1.79636">
        <ele>406</ele>
        <time>2023-03-05T09:39:18Z</time>
      </trkpt>
      <trkpt lat="44.06953" lon="1.7964">
        <ele>406.2</ele>
        <time>2023-03-05T09:39:19Z</time>
      </trkpt>
      <trkpt lat="44.06954" lon="1.79643">
        <ele>406.4</ele>
        <time>2023-03-05T09:39:20Z</time>
      </trkpt>
      <trkpt lat="44.06955" lon="1.79647">
        <ele>406.8</ele>
        <time>2023-03-05T09:39:21Z</time>
      </trkpt>
      <trkpt lat="44.06955" lon="1.79651">
        <ele>406.8</ele>
        <time>2023-03-05T09:39:22Z</time>
      </trkpt>
      <trkpt lat="44.06956" lon="1.79654">
        <ele>407.2</ele>
        <time>2023-03-05T09:39:23Z</time>
      </trkpt>
      <trkpt lat="44.06956" lon="1.79658">
        <ele>407.4</ele>
        <time>2023-03-05T09:39:24Z</time>
      </trkpt>
      <trkpt lat="44.06955" lon="1.79661">
        <ele>407.4</ele>
        <time>2023-03-05T09:39:25Z</time>
      </trkpt>
      <trkpt lat="44.06955" lon="1.79665">
        <ele>407.8</ele>
        <time>2023-03-05T09:39:26Z</time>
      </trkpt>
      <trkpt lat="44.06956" lon="1.79668">
        <ele>407.8</ele>
        <time>2023-03-05T09:39:27Z</time>
      </trkpt>
      <trkpt lat="44.06956" lon="1.79672">
        <ele>407.8</ele>
        <time>2023-03-05T09:39:28Z</time>
      </trkpt>
      <trkpt lat="44.06956" lon="1.79675">
        <ele>408</ele>
        <time>2023-03-05T09:39:29Z</time>
      </trkpt>
      <trkpt lat="44.06956" lon="1.79679">
        <ele>408.2</ele>
        <time>2023-03-05T09:39:30Z</time>
      </trkpt>
      <trkpt lat="44.06956" lon="1.79683">
        <ele>408.4</ele>
        <time>2023-03-05T09:39:31Z</time>
      </trkpt>
      <trkpt lat="44.06957" lon="1.79685">
        <ele>408.8</ele>
        <time>2023-03-05T09:39:32Z</time>
      </trkpt>
      <trkpt lat="44.06955" lon="1.79689">
        <ele>409</ele>
        <time>2023-03-05T09:39:33Z</time>
      </trkpt>
      <trkpt lat="44.06955" lon="1.79692">
        <ele>409.4</ele>
        <time>2023-03-05T09:39:34Z</time>
      </trkpt>
      <trkpt lat="44.06956" lon="1.79694">
        <ele>409.8</ele>
        <time>2023-03-05T09:39:35Z</time>
      </trkpt>
      <trkpt lat="44.06956" lon="1.79697">
        <ele>409.8</ele>
        <time>2023-03-05T09:39:36Z</time>
      </trkpt>
      <trkpt lat="44.06956" lon="1.797">
        <ele>410.4</ele>
        <time>2023-03-05T09:39:37Z</time>
      </trkpt>
      <trkpt lat="44.06957" lon="1.79703">
        <ele>410.6</ele>
        <time>2023-03-05T09:39:38Z</time>
      </trkpt>
      <trkpt lat="44.06957" lon="1.79706">
        <ele>410.8</ele>
        <time>2023-03-05T09:39:39Z</time>
      </trkpt>
      <trkpt lat="44.06957" lon="1.79709">
        <ele>410.8</ele>
        <time>2023-03-05T09:39:40Z</time>
      </trkpt>
      <trkpt lat="44.06957" lon="1.79712">
        <ele>411.4</ele>
        <time>2023-03-05T09:39:41Z</time>
      </trkpt>
      <trkpt lat="44.06958" lon="1.79714">
        <ele>411.4</ele>
        <time>2023-03-05T09:39:42Z</time>
      </trkpt>
      <trkpt lat="44.06958" lon="1.79718">
        <ele>411.4</ele>
        <time>2023-03-05T09:39:43Z</time>
      </trkpt>
      <trkpt lat="44.06959" lon="1.7972">
        <ele>411.6</ele>
        <time>2023-03-05T09:39:44Z</time>
      </trkpt>
      <trkpt lat="44.06959" lon="1.79724">
        <ele>411.6</ele>
        <time>2023-03-05T09:39:45Z</time>
      </trkpt>
      <trkpt lat="44.06959" lon="1.79727">
        <ele>412</ele>
        <time>2023-03-05T09:39:46Z</time>
      </trkpt>
      <trkpt lat="44.0696" lon="1.7973">
        <ele>412</ele>
        <time>2023-03-05T09:39:47Z</time>
      </trkpt>
      <trkpt lat="44.0696" lon="1.79732">
        <ele>412.4</ele>
        <time>2023-03-05T09:39:48Z</time>
      </trkpt>
      <trkpt lat="44.0696" lon="1.79735">
        <ele>412.4</ele>
        <time>2023-03-05T09:39:49Z</time>
      </trkpt>
      <trkpt lat="44.0696" lon="1.79738">
        <ele>413</ele>
        <time>2023-03-05T09:39:50Z</time>
      </trkpt>
      <trkpt lat="44.0696" lon="1.79741">
        <ele>413</ele>
        <time>2023-03-05T09:39:51Z</time>
      </trkpt>
      <trkpt lat="44.0696" lon="1.79744">
        <ele>413.4</ele>
        <time>2023-03-05T09:39:52Z</time>
      </trkpt>
      <trkpt lat="44.0696" lon="1.79747">
        <ele>413.6</ele>
        <time>2023-03-05T09:39:53Z</time>
      </trkpt>
      <trkpt lat="44.0696" lon="1.7975">
        <ele>414</ele>
        <time>2023-03-05T09:39:54Z</time>
      </trkpt>
      <trkpt lat="44.06961" lon="1.79752">
        <ele>414.2</ele>
        <time>2023-03-05T09:39:55Z</time>
      </trkpt>
      <trkpt lat="44.06963" lon="1.79754">
        <ele>414.6</ele>
        <time>2023-03-05T09:39:56Z</time>
      </trkpt>
      <trkpt lat="44.06965" lon="1.79757">
        <ele>415</ele>
        <time>2023-03-05T09:39:57Z</time>
      </trkpt>
      <trkpt lat="44.06967" lon="1.79759">
        <ele>415</ele>
        <time>2023-03-05T09:39:58Z</time>
      </trkpt>
      <trkpt lat="44.0697" lon="1.79761">
        <ele>415.2</ele>
        <time>2023-03-05T09:39:59Z</time>
      </trkpt>
      <trkpt lat="44.06973" lon="1.79763">
        <ele>415.4</ele>
        <time>2023-03-05T09:40:00Z</time>
      </trkpt>
      <trkpt lat="44.06976" lon="1.79765">
        <ele>415.6</ele>
        <time>2023-03-05T09:40:01Z</time>
      </trkpt>
      <trkpt lat="44.06979" lon="1.79767">
        <ele>415.6</ele>
        <time>2023-03-05T09:40:02Z</time>
      </trkpt>
      <trkpt lat="44.06982" lon="1.79769">
        <ele>415.8</ele>
        <time>2023-03-05T09:40:03Z</time>
      </trkpt>
      <trkpt lat="44.06985" lon="1.79771">
        <ele>415.8</ele>
        <time>2023-03-05T09:40:04Z</time>
      </trkpt>
      <trkpt lat="44.06988" lon="1.79773">
        <ele>416</ele>
        <time>2023-03-05T09:40:05Z</time>
      </trkpt>
      <trkpt lat="44.06991" lon="1.79776">
        <ele>416</ele>
        <time>2023-03-05T09:40:06Z</time>
      </trkpt>
      <trkpt lat="44.06994" lon="1.79778">
        <ele>416</ele>
        <time>2023-03-05T09:40:07Z</time>
      </trkpt>
      <trkpt lat="44.06997" lon="1.79781">
        <ele>416.2</ele>
        <time>2023-03-05T09:40:08Z</time>
      </trkpt>
      <trkpt lat="44.07" lon="1.79783">
        <ele>416.2</ele>
        <time>2023-03-05T09:40:09Z</time>
      </trkpt>
      <trkpt lat="44.07003" lon="1.79787">
        <ele>416.4</ele>
        <time>2023-03-05T09:40:10Z</time>
      </trkpt>
      <trkpt lat="44.07005" lon="1.7979">
        <ele>416.6</ele>
        <time>2023-03-05T09:40:11Z</time>
      </trkpt>
      <trkpt lat="44.07007" lon="1.79793">
        <ele>416.8</ele>
        <time>2023-03-05T09:40:12Z</time>
      </trkpt>
      <trkpt lat="44.07009" lon="1.79797">
        <ele>416.8</ele>
        <time>2023-03-05T09:40:13Z</time>
      </trkpt>
      <trkpt lat="44.0701" lon="1.79801">
        <ele>417</ele>
        <time>2023-03-05T09:40:14Z</time>
      </trkpt>
      <trkpt lat="44.07011" lon="1.79806">
        <ele>417</ele>
        <time>2023-03-05T09:40:15Z</time>
      </trkpt>
      <trkpt lat="44.07012" lon="1.79811">
        <ele>417.2</ele>
        <time>2023-03-05T09:40:16Z</time>
      </trkpt>
      <trkpt lat="44.07013" lon="1.79815">
        <ele>417.4</ele>
        <time>2023-03-05T09:40:17Z</time>
      </trkpt>
      <trkpt lat="44.07013" lon="1.7982">
        <ele>417.6</ele>
        <time>2023-03-05T09:40:18Z</time>
      </trkpt>
      <trkpt lat="44.07013" lon="1.79824">
        <ele>418</ele>
        <time>2023-03-05T09:40:19Z</time>
      </trkpt>
      <trkpt lat="44.07014" lon="1.79829">
        <ele>418</ele>
        <time>2023-03-05T09:40:20Z</time>
      </trkpt>
      <trkpt lat="44.07015" lon="1.79833">
        <ele>418.4</ele>
        <time>2023-03-05T09:40:21Z</time>
      </trkpt>
      <trkpt lat="44.07016" lon="1.79837">
        <ele>418.6</ele>
        <time>2023-03-05T09:40:22Z</time>
      </trkpt>
      <trkpt lat="44.07018" lon="1.79842">
        <ele>419</ele>
        <time>2023-03-05T09:40:23Z</time>
      </trkpt>
      <trkpt lat="44.07019" lon="1.79846">
        <ele>419</ele>
        <time>2023-03-05T09:40:24Z</time>
      </trkpt>
      <trkpt lat="44.07021" lon="1.7985">
        <ele>419.4</ele>
        <time>2023-03-05T09:40:25Z</time>
      </trkpt>
      <trkpt lat="44.07023" lon="1.79855">
        <ele>419.6</ele>
        <time>2023-03-05T09:40:26Z</time>
      </trkpt>
      <trkpt lat="44.07025" lon="1.79859">
        <ele>419.8</ele>
        <time>2023-03-05T09:40:27Z</time>
      </trkpt>
      <trkpt lat="44.07027" lon="1.79863">
        <ele>420</ele>
        <time>2023-03-05T09:40:28Z</time>
      </trkpt>
      <trkpt lat="44.07029" lon="1.79867">
        <ele>420.2</ele>
        <time>2023-03-05T09:40:29Z</time>
      </trkpt>
      <trkpt lat="44.07032" lon="1.79872">
        <ele>420.4</ele>
        <time>2023-03-05T09:40:30Z</time>
      </trkpt>
      <trkpt lat="44.07035" lon="1.79875">
        <ele>420.4</ele>
        <time>2023-03-05T09:40:31Z</time>
      </trkpt>
      <trkpt lat="44.07038" lon="1.79879">
        <ele>420.6</ele>
        <time>2023-03-05T09:40:32Z</time>
      </trkpt>
      <trkpt lat="44.07041" lon="1.79884">
        <ele>420.6</ele>
        <time>2023-03-05T09:40:33Z</time>
      </trkpt>
      <trkpt lat="44.07044" lon="1.79889">
        <ele>420.6</ele>
        <time>2023-03-05T09:40:34Z</time>
      </trkpt>
      <trkpt lat="44.07046" lon="1.79894">
        <ele>420.6</ele>
        <time>2023-03-05T09:40:35Z</time>
      </trkpt>
      <trkpt lat="44.07049" lon="1.79899">
        <ele>420.6</ele>
        <time>2023-03-05T09:40:36Z</time>
      </trkpt>
      <trkpt lat="44.07052" lon="1.79905">
        <ele>420.6</ele>
        <time>2023-03-05T09:40:37Z</time>
      </trkpt>
      <trkpt lat="44.07055" lon="1.7991">
        <ele>420.6</ele>
        <time>2023-03-05T09:40:38Z</time>
      </trkpt>
      <trkpt lat="44.07057" lon="1.79916">
        <ele>420.6</ele>
        <time>2023-03-05T09:40:39Z</time>
      </trkpt>
      <trkpt lat="44.07061" lon="1.79922">
        <ele>420.6</ele>
        <time>2023-03-05T09:40:40Z</time>
      </trkpt>
      <trkpt lat="44.07064" lon="1.79928">
        <ele>420.6</ele>
        <time>2023-03-05T09:40:41Z</time>
      </trkpt>
      <trkpt lat="44.07067" lon="1.79934">
        <ele>420.6</ele>
        <time>2023-03-05T09:40:42Z</time>
      </trkpt>
      <trkpt lat="44.0707" lon="1.7994">
        <ele>420.4</ele>
        <time>2023-03-05T09:40:43Z</time>
      </trkpt>
      <trkpt lat="44.07073" lon="1.79946">
        <ele>420.4</ele>
        <time>2023-03-05T09:40:44Z</time>
      </trkpt>
      <trkpt lat="44.07076" lon="1.79953">
        <ele>420.4</ele>
        <time>2023-03-05T09:40:45Z</time>
      </trkpt>
      <trkpt lat="44.07079" lon="1.79959">
        <ele>420.4</ele>
        <time>2023-03-05T09:40:46Z</time>
      </trkpt>
      <trkpt lat="44.07082" lon="1.79964">
        <ele>420.2</ele>
        <time>2023-03-05T09:40:47Z</time>
      </trkpt>
      <trkpt lat="44.07085" lon="1.79969">
        <ele>420.2</ele>
        <time>2023-03-05T09:40:48Z</time>
      </trkpt>
      <trkpt lat="44.0709" lon="1.79973">
        <ele>420</ele>
        <time>2023-03-05T09:40:49Z</time>
      </trkpt>
      <trkpt lat="44.07095" lon="1.79977">
        <ele>420</ele>
        <time>2023-03-05T09:40:50Z</time>
      </trkpt>
      <trkpt lat="44.07099" lon="1.79979">
        <ele>419.8</ele>
        <time>2023-03-05T09:40:51Z</time>
      </trkpt>
      <trkpt lat="44.07103" lon="1.79978">
        <ele>419.8</ele>
        <time>2023-03-05T09:40:52Z</time>
      </trkpt>
      <trkpt lat="44.07106" lon="1.79976">
        <ele>419.8</ele>
        <time>2023-03-05T09:40:53Z</time>
      </trkpt>
      <trkpt lat="44.07108" lon="1.79971">
        <ele>419.6</ele>
        <time>2023-03-05T09:40:54Z</time>
      </trkpt>
      <trkpt lat="44.07109" lon="1.79965">
        <ele>419.6</ele>
        <time>2023-03-05T09:40:55Z</time>
      </trkpt>
      <trkpt lat="44.0711" lon="1.79958">
        <ele>419.6</ele>
        <time>2023-03-05T09:40:56Z</time>
      </trkpt>
      <trkpt lat="44.07112" lon="1.7995">
        <ele>419.6</ele>
        <time>2023-03-05T09:40:57Z</time>
      </trkpt>
      <trkpt lat="44.07114" lon="1.79943">
        <ele>419.4</ele>
        <time>2023-03-05T09:40:58Z</time>
      </trkpt>
      <trkpt lat="44.07117" lon="1.79936">
        <ele>419.2</ele>
        <time>2023-03-05T09:40:59Z</time>
      </trkpt>
      <trkpt lat="44.07121" lon="1.79931">
        <ele>419.2</ele>
        <time>2023-03-05T09:41:00Z</time>
      </trkpt>
      <trkpt lat="44.07125" lon="1.79927">
        <ele>419.2</ele>
        <time>2023-03-05T09:41:01Z</time>
      </trkpt>
      <trkpt lat="44.07129" lon="1.79926">
        <ele>419</ele>
        <time>2023-03-05T09:41:02Z</time>
      </trkpt>
      <trkpt lat="44.07133" lon="1.79926">
        <ele>419</ele>
        <time>2023-03-05T09:41:03Z</time>
      </trkpt>
      <trkpt lat="44.07136" lon="1.79927">
        <ele>419</ele>
        <time>2023-03-05T09:41:04Z</time>
      </trkpt>
      <trkpt lat="44.0714" lon="1.79927">
        <ele>419</ele>
        <time>2023-03-05T09:41:05Z</time>
      </trkpt>
      <trkpt lat="44.07144" lon="1.79927">
        <ele>419</ele>
        <time>2023-03-05T09:41:06Z</time>
      </trkpt>
      <trkpt lat="44.07147" lon="1.79926">
        <ele>419</ele>
        <time>2023-03-05T09:41:07Z</time>
      </trkpt>
      <trkpt lat="44.0715" lon="1.79926">
        <ele>419</ele>
        <time>2023-03-05T09:41:08Z</time>
      </trkpt>
      <trkpt lat="44.07154" lon="1.79925">
        <ele>419</ele>
        <time>2023-03-05T09:41:09Z</time>
      </trkpt>
      <trkpt lat="44.07157" lon="1.79924">
        <ele>419.2</ele>
        <time>2023-03-05T09:41:10Z</time>
      </trkpt>
      <trkpt lat="44.0716" lon="1.79923">
        <ele>419.2</ele>
        <time>2023-03-05T09:41:11Z</time>
      </trkpt>
      <trkpt lat="44.07162" lon="1.79921">
        <ele>419.2</ele>
        <time>2023-03-05T09:41:12Z</time>
      </trkpt>
      <trkpt lat="44.07163" lon="1.79916">
        <ele>420</ele>
        <time>2023-03-05T09:41:13Z</time>
      </trkpt>
      <trkpt lat="44.07164" lon="1.79911">
        <ele>420.6</ele>
        <time>2023-03-05T09:41:14Z</time>
      </trkpt>
      <trkpt lat="44.07166" lon="1.79905">
        <ele>420.8</ele>
        <time>2023-03-05T09:41:15Z</time>
      </trkpt>
      <trkpt lat="44.07169" lon="1.79899">
        <ele>421.2</ele>
        <time>2023-03-05T09:41:16Z</time>
      </trkpt>
      <trkpt lat="44.07171" lon="1.79892">
        <ele>421.4</ele>
        <time>2023-03-05T09:41:17Z</time>
      </trkpt>
      <trkpt lat="44.07174" lon="1.79884">
        <ele>421.4</ele>
        <time>2023-03-05T09:41:18Z</time>
      </trkpt>
      <trkpt lat="44.07178" lon="1.79877">
        <ele>421.4</ele>
        <time>2023-03-05T09:41:19Z</time>
      </trkpt>
      <trkpt lat="44.07183" lon="1.7987">
        <ele>421.4</ele>
        <time>2023-03-05T09:41:20Z</time>
      </trkpt>
      <trkpt lat="44.07188" lon="1.79865">
        <ele>421.4</ele>
        <time>2023-03-05T09:41:21Z</time>
      </trkpt>
      <trkpt lat="44.07194" lon="1.79862">
        <ele>421.4</ele>
        <time>2023-03-05T09:41:22Z</time>
      </trkpt>
      <trkpt lat="44.07201" lon="1.79858">
        <ele>421.4</ele>
        <time>2023-03-05T09:41:23Z</time>
      </trkpt>
      <trkpt lat="44.07207" lon="1.79856">
        <ele>421.2</ele>
        <time>2023-03-05T09:41:24Z</time>
      </trkpt>
      <trkpt lat="44.07214" lon="1.79854">
        <ele>420.8</ele>
        <time>2023-03-05T09:41:25Z</time>
      </trkpt>
      <trkpt lat="44.07221" lon="1.79852">
        <ele>420.4</ele>
        <time>2023-03-05T09:41:26Z</time>
      </trkpt>
      <trkpt lat="44.07228" lon="1.79852">
        <ele>420</ele>
        <time>2023-03-05T09:41:27Z</time>
      </trkpt>
      <trkpt lat="44.07234" lon="1.79852">
        <ele>420</ele>
        <time>2023-03-05T09:41:28Z</time>
      </trkpt>
      <trkpt lat="44.07241" lon="1.79853">
        <ele>419.6</ele>
        <time>2023-03-05T09:41:29Z</time>
      </trkpt>
      <trkpt lat="44.07248" lon="1.79854">
        <ele>419.2</ele>
        <time>2023-03-05T09:41:30Z</time>
      </trkpt>
      <trkpt lat="44.07255" lon="1.79856">
        <ele>418.8</ele>
        <time>2023-03-05T09:41:31Z</time>
      </trkpt>
      <trkpt lat="44.0726" lon="1.79856">
        <ele>418.4</ele>
        <time>2023-03-05T09:41:32Z</time>
      </trkpt>
      <trkpt lat="44.07265" lon="1.79854">
        <ele>418.2</ele>
        <time>2023-03-05T09:41:33Z</time>
      </trkpt>
      <trkpt lat="44.07271" lon="1.79851">
        <ele>417.2</ele>
        <time>2023-03-05T09:41:34Z</time>
      </trkpt>
      <trkpt lat="44.07277" lon="1.79847">
        <ele>417</ele>
        <time>2023-03-05T09:41:35Z</time>
      </trkpt>
      <trkpt lat="44.07284" lon="1.79842">
        <ele>416.6</ele>
        <time>2023-03-05T09:41:36Z</time>
      </trkpt>
      <trkpt lat="44.07292" lon="1.79838">
        <ele>416.4</ele>
        <time>2023-03-05T09:41:37Z</time>
      </trkpt>
      <trkpt lat="44.07298" lon="1.79831">
        <ele>416</ele>
        <time>2023-03-05T09:41:38Z</time>
      </trkpt>
      <trkpt lat="44.07303" lon="1.79822">
        <ele>416</ele>
        <time>2023-03-05T09:41:39Z</time>
      </trkpt>
      <trkpt lat="44.07307" lon="1.79812">
        <ele>415.2</ele>
        <time>2023-03-05T09:41:40Z</time>
      </trkpt>
      <trkpt lat="44.07309" lon="1.79802">
        <ele>414.8</ele>
        <time>2023-03-05T09:41:41Z</time>
      </trkpt>
      <trkpt lat="44.0731" lon="1.79793">
        <ele>413.8</ele>
        <time>2023-03-05T09:41:42Z</time>
      </trkpt>
      <trkpt lat="44.07311" lon="1.79784">
        <ele>413</ele>
        <time>2023-03-05T09:41:43Z</time>
      </trkpt>
      <trkpt lat="44.07312" lon="1.79776">
        <ele>411.8</ele>
        <time>2023-03-05T09:41:44Z</time>
      </trkpt>
      <trkpt lat="44.07312" lon="1.79769">
        <ele>410.6</ele>
        <time>2023-03-05T09:41:45Z</time>
      </trkpt>
      <trkpt lat="44.07311" lon="1.79763">
        <ele>410.2</ele>
        <time>2023-03-05T09:41:46Z</time>
      </trkpt>
      <trkpt lat="44.0731" lon="1.79758">
        <ele>409.6</ele>
        <time>2023-03-05T09:41:47Z</time>
      </trkpt>
      <trkpt lat="44.07307" lon="1.79754">
        <ele>409.4</ele>
        <time>2023-03-05T09:41:48Z</time>
      </trkpt>
      <trkpt lat="44.07305" lon="1.7975">
        <ele>409.2</ele>
        <time>2023-03-05T09:41:49Z</time>
      </trkpt>
      <trkpt lat="44.07303" lon="1.79746">
        <ele>409.2</ele>
        <time>2023-03-05T09:41:50Z</time>
      </trkpt>
      <trkpt lat="44.073" lon="1.79742">
        <ele>409.2</ele>
        <time>2023-03-05T09:41:51Z</time>
      </trkpt>
      <trkpt lat="44.07299" lon="1.7974">
        <ele>409.2</ele>
        <time>2023-03-05T09:41:52Z</time>
      </trkpt>
      <trkpt lat="44.07297" lon="1.79735">
        <ele>409.2</ele>
        <time>2023-03-05T09:41:53Z</time>
      </trkpt>
      <trkpt lat="44.07297" lon="1.79731">
        <ele>409.4</ele>
        <time>2023-03-05T09:41:54Z</time>
      </trkpt>
      <trkpt lat="44.07298" lon="1.79726">
        <ele>409.6</ele>
        <time>2023-03-05T09:41:55Z</time>
      </trkpt>
      <trkpt lat="44.07301" lon="1.79721">
        <ele>410</ele>
        <time>2023-03-05T09:41:56Z</time>
      </trkpt>
      <trkpt lat="44.07303" lon="1.79718">
        <ele>410.4</ele>
        <time>2023-03-05T09:41:57Z</time>
      </trkpt>
      <trkpt lat="44.07306" lon="1.79714">
        <ele>410.8</ele>
        <time>2023-03-05T09:41:58Z</time>
      </trkpt>
      <trkpt lat="44.07309" lon="1.79712">
        <ele>411.2</ele>
        <time>2023-03-05T09:41:59Z</time>
      </trkpt>
      <trkpt lat="44.07313" lon="1.79709">
        <ele>411.8</ele>
        <time>2023-03-05T09:42:00Z</time>
      </trkpt>
      <trkpt lat="44.07316" lon="1.79708">
        <ele>412.2</ele>
        <time>2023-03-05T09:42:01Z</time>
      </trkpt>
      <trkpt lat="44.0732" lon="1.79706">
        <ele>412.8</ele>
        <time>2023-03-05T09:42:02Z</time>
      </trkpt>
      <trkpt lat="44.07324" lon="1.79706">
        <ele>413</ele>
        <time>2023-03-05T09:42:03Z</time>
      </trkpt>
      <trkpt lat="44.07327" lon="1.79705">
        <ele>413.2</ele>
        <time>2023-03-05T09:42:04Z</time>
      </trkpt>
      <trkpt lat="44.07332" lon="1.79704">
        <ele>413.2</ele>
        <time>2023-03-05T09:42:05Z</time>
      </trkpt>
      <trkpt lat="44.07335" lon="1.79702">
        <ele>413.4</ele>
        <time>2023-03-05T09:42:06Z</time>
      </trkpt>
      <trkpt lat="44.07339" lon="1.79701">
        <ele>413.6</ele>
        <time>2023-03-05T09:42:07Z</time>
      </trkpt>
      <trkpt lat="44.07342" lon="1.797">
        <ele>414</ele>
        <time>2023-03-05T09:42:08Z</time>
      </trkpt>
      <trkpt lat="44.07347" lon="1.79697">
        <ele>414.4</ele>
        <time>2023-03-05T09:42:09Z</time>
      </trkpt>
      <trkpt lat="44.0735" lon="1.79695">
        <ele>414.6</ele>
        <time>2023-03-05T09:42:10Z</time>
      </trkpt>
      <trkpt lat="44.07353" lon="1.79693">
        <ele>414.8</ele>
        <time>2023-03-05T09:42:11Z</time>
      </trkpt>
      <trkpt lat="44.07357" lon="1.79691">
        <ele>415</ele>
        <time>2023-03-05T09:42:12Z</time>
      </trkpt>
      <trkpt lat="44.0736" lon="1.79689">
        <ele>415.2</ele>
        <time>2023-03-05T09:42:13Z</time>
      </trkpt>
      <trkpt lat="44.07363" lon="1.79687">
        <ele>415.4</ele>
        <time>2023-03-05T09:42:14Z</time>
      </trkpt>
      <trkpt lat="44.07366" lon="1.79684">
        <ele>415.8</ele>
        <time>2023-03-05T09:42:15Z</time>
      </trkpt>
      <trkpt lat="44.07369" lon="1.79682">
        <ele>416</ele>
        <time>2023-03-05T09:42:16Z</time>
      </trkpt>
      <trkpt lat="44.07372" lon="1.79679">
        <ele>416.6</ele>
        <time>2023-03-05T09:42:17Z</time>
      </trkpt>
      <trkpt lat="44.07374" lon="1.79676">
        <ele>417.2</ele>
        <time>2023-03-05T09:42:18Z</time>
      </trkpt>
      <trkpt lat="44.07377" lon="1.79672">
        <ele>417.4</ele>
        <time>2023-03-05T09:42:19Z</time>
      </trkpt>
      <trkpt lat="44.07379" lon="1.79669">
        <ele>417.6</ele>
        <time>2023-03-05T09:42:20Z</time>
      </trkpt>
      <trkpt lat="44.07382" lon="1.79665">
        <ele>417.8</ele>
        <time>2023-03-05T09:42:21Z</time>
      </trkpt>
      <trkpt lat="44.07385" lon="1.79662">
        <ele>417.8</ele>
        <time>2023-03-05T09:42:22Z</time>
      </trkpt>
      <trkpt lat="44.07387" lon="1.79658">
        <ele>418.2</ele>
        <time>2023-03-05T09:42:23Z</time>
      </trkpt>
      <trkpt lat="44.07389" lon="1.79655">
        <ele>418.4</ele>
        <time>2023-03-05T09:42:24Z</time>
      </trkpt>
      <trkpt lat="44.07391" lon="1.79651">
        <ele>418.6</ele>
        <time>2023-03-05T09:42:25Z</time>
      </trkpt>
      <trkpt lat="44.07393" lon="1.79647">
        <ele>418.8</ele>
        <time>2023-03-05T09:42:26Z</time>
      </trkpt>
      <trkpt lat="44.07395" lon="1.79643">
        <ele>419.2</ele>
        <time>2023-03-05T09:42:27Z</time>
      </trkpt>
      <trkpt lat="44.07396" lon="1.7964">
        <ele>419.2</ele>
        <time>2023-03-05T09:42:28Z</time>
      </trkpt>
      <trkpt lat="44.07398" lon="1.79638">
        <ele>419.4</ele>
        <time>2023-03-05T09:42:29Z</time>
      </trkpt>
      <trkpt lat="44.07399" lon="1.79634">
        <ele>419.6</ele>
        <time>2023-03-05T09:42:30Z</time>
      </trkpt>
      <trkpt lat="44.07401" lon="1.79631">
        <ele>420</ele>
        <time>2023-03-05T09:42:31Z</time>
      </trkpt>
      <trkpt lat="44.07403" lon="1.79628">
        <ele>420</ele>
        <time>2023-03-05T09:42:32Z</time>
      </trkpt>
      <trkpt lat="44.07405" lon="1.79625">
        <ele>420.2</ele>
        <time>2023-03-05T09:42:33Z</time>
      </trkpt>
      <trkpt lat="44.07406" lon="1.79622">
        <ele>420.4</ele>
        <time>2023-03-05T09:42:34Z</time>
      </trkpt>
      <trkpt lat="44.07408" lon="1.79618">
        <ele>420.6</ele>
        <time>2023-03-05T09:42:35Z</time>
      </trkpt>
      <trkpt lat="44.07409" lon="1.79615">
        <ele>420.8</ele>
        <time>2023-03-05T09:42:36Z</time>
      </trkpt>
      <trkpt lat="44.07411" lon="1.79612">
        <ele>421.2</ele>
        <time>2023-03-05T09:42:37Z</time>
      </trkpt>
      <trkpt lat="44.07414" lon="1.79609">
        <ele>421.8</ele>
        <time>2023-03-05T09:42:38Z</time>
      </trkpt>
      <trkpt lat="44.07416" lon="1.79607">
        <ele>422.2</ele>
        <time>2023-03-05T09:42:39Z</time>
      </trkpt>
      <trkpt lat="44.07418" lon="1.79604">
        <ele>423</ele>
        <time>2023-03-05T09:42:40Z</time>
      </trkpt>
      <trkpt lat="44.07421" lon="1.79602">
        <ele>423.2</ele>
        <time>2023-03-05T09:42:41Z</time>
      </trkpt>
      <trkpt lat="44.07423" lon="1.79598">
        <ele>423.8</ele>
        <time>2023-03-05T09:42:42Z</time>
      </trkpt>
      <trkpt lat="44.07426" lon="1.79595">
        <ele>424</ele>
        <time>2023-03-05T09:42:43Z</time>
      </trkpt>
      <trkpt lat="44.07428" lon="1.79592">
        <ele>424.6</ele>
        <time>2023-03-05T09:42:44Z</time>
      </trkpt>
      <trkpt lat="44.07431" lon="1.79589">
        <ele>424.6</ele>
        <time>2023-03-05T09:42:45Z</time>
      </trkpt>
      <trkpt lat="44.07433" lon="1.79586">
        <ele>425</ele>
        <time>2023-03-05T09:42:46Z</time>
      </trkpt>
      <trkpt lat="44.07435" lon="1.79583">
        <ele>425</ele>
        <time>2023-03-05T09:42:47Z</time>
      </trkpt>
      <trkpt lat="44.07438" lon="1.79581">
        <ele>425.2</ele>
        <time>2023-03-05T09:42:48Z</time>
      </trkpt>
      <trkpt lat="44.07441" lon="1.79578">
        <ele>425.4</ele>
        <time>2023-03-05T09:42:49Z</time>
      </trkpt>
      <trkpt lat="44.07444" lon="1.79576">
        <ele>425.4</ele>
        <time>2023-03-05T09:42:50Z</time>
      </trkpt>
      <trkpt lat="44.07446" lon="1.79574">
        <ele>425.8</ele>
        <time>2023-03-05T09:42:51Z</time>
      </trkpt>
      <trkpt lat="44.0745" lon="1.79571">
        <ele>425.8</ele>
        <time>2023-03-05T09:42:52Z</time>
      </trkpt>
      <trkpt lat="44.07453" lon="1.79568">
        <ele>425.8</ele>
        <time>2023-03-05T09:42:53Z</time>
      </trkpt>
      <trkpt lat="44.07457" lon="1.79564">
        <ele>425.8</ele>
        <time>2023-03-05T09:42:54Z</time>
      </trkpt>
      <trkpt lat="44.07462" lon="1.79561">
        <ele>425.8</ele>
        <time>2023-03-05T09:42:55Z</time>
      </trkpt>
      <trkpt lat="44.07465" lon="1.79557">
        <ele>425.8</ele>
        <time>2023-03-05T09:42:56Z</time>
      </trkpt>
      <trkpt lat="44.07469" lon="1.79553">
        <ele>425.8</ele>
        <time>2023-03-05T09:42:57Z</time>
      </trkpt>
      <trkpt lat="44.07474" lon="1.79549">
        <ele>425.8</ele>
        <time>2023-03-05T09:42:58Z</time>
      </trkpt>
      <trkpt lat="44.07479" lon="1.79544">
        <ele>425.6</ele>
        <time>2023-03-05T09:42:59Z</time>
      </trkpt>
      <trkpt lat="44.07483" lon="1.7954">
        <ele>425.6</ele>
        <time>2023-03-05T09:43:00Z</time>
      </trkpt>
      <trkpt lat="44.07486" lon="1.79536">
        <ele>425.4</ele>
        <time>2023-03-05T09:43:01Z</time>
      </trkpt>
      <trkpt lat="44.0749" lon="1.79531">
        <ele>425.2</ele>
        <time>2023-03-05T09:43:02Z</time>
      </trkpt>
      <trkpt lat="44.07493" lon="1.79527">
        <ele>425.2</ele>
        <time>2023-03-05T09:43:03Z</time>
      </trkpt>
      <trkpt lat="44.07496" lon="1.79522">
        <ele>425</ele>
        <time>2023-03-05T09:43:04Z</time>
      </trkpt>
      <trkpt lat="44.075" lon="1.79517">
        <ele>424.6</ele>
        <time>2023-03-05T09:43:05Z</time>
      </trkpt>
      <trkpt lat="44.07504" lon="1.79513">
        <ele>423.8</ele>
        <time>2023-03-05T09:43:06Z</time>
      </trkpt>
      <trkpt lat="44.07508" lon="1.79508">
        <ele>423.6</ele>
        <time>2023-03-05T09:43:07Z</time>
      </trkpt>
      <trkpt lat="44.07513" lon="1.79503">
        <ele>423</ele>
        <time>2023-03-05T09:43:08Z</time>
      </trkpt>
      <trkpt lat="44.07517" lon="1.79498">
        <ele>422.6</ele>
        <time>2023-03-05T09:43:09Z</time>
      </trkpt>
      <trkpt lat="44.07522" lon="1.79494">
        <ele>421.6</ele>
        <time>2023-03-05T09:43:10Z</time>
      </trkpt>
      <trkpt lat="44.07527" lon="1.7949">
        <ele>420.6</ele>
        <time>2023-03-05T09:43:11Z</time>
      </trkpt>
      <trkpt lat="44.07531" lon="1.79486">
        <ele>420</ele>
        <time>2023-03-05T09:43:12Z</time>
      </trkpt>
      <trkpt lat="44.07535" lon="1.79483">
        <ele>418.8</ele>
        <time>2023-03-05T09:43:13Z</time>
      </trkpt>
      <trkpt lat="44.07539" lon="1.79479">
        <ele>418.4</ele>
        <time>2023-03-05T09:43:14Z</time>
      </trkpt>
      <trkpt lat="44.07543" lon="1.79476">
        <ele>417.8</ele>
        <time>2023-03-05T09:43:15Z</time>
      </trkpt>
      <trkpt lat="44.07548" lon="1.79472">
        <ele>417.6</ele>
        <time>2023-03-05T09:43:16Z</time>
      </trkpt>
      <trkpt lat="44.07552" lon="1.79467">
        <ele>416.4</ele>
        <time>2023-03-05T09:43:17Z</time>
      </trkpt>
      <trkpt lat="44.07555" lon="1.79463">
        <ele>415.8</ele>
        <time>2023-03-05T09:43:18Z</time>
      </trkpt>
      <trkpt lat="44.07558" lon="1.79459">
        <ele>415</ele>
        <time>2023-03-05T09:43:19Z</time>
      </trkpt>
      <trkpt lat="44.07562" lon="1.79455">
        <ele>414.6</ele>
        <time>2023-03-05T09:43:20Z</time>
      </trkpt>
      <trkpt lat="44.07565" lon="1.79452">
        <ele>414</ele>
        <time>2023-03-05T09:43:21Z</time>
      </trkpt>
      <trkpt lat="44.07569" lon="1.79449">
        <ele>413.4</ele>
        <time>2023-03-05T09:43:22Z</time>
      </trkpt>
      <trkpt lat="44.07573" lon="1.79445">
        <ele>413</ele>
        <time>2023-03-05T09:43:23Z</time>
      </trkpt>
      <trkpt lat="44.07578" lon="1.7944">
        <ele>412</ele>
        <time>2023-03-05T09:43:24Z</time>
      </trkpt>
      <trkpt lat="44.07583" lon="1.79437">
        <ele>411.6</ele>
        <time>2023-03-05T09:43:25Z</time>
      </trkpt>
      <trkpt lat="44.07588" lon="1.79432">
        <ele>410.6</ele>
        <time>2023-03-05T09:43:26Z</time>
      </trkpt>
      <trkpt lat="44.07592" lon="1.79429">
        <ele>410.2</ele>
        <time>2023-03-05T09:43:27Z</time>
      </trkpt>
      <trkpt lat="44.07596" lon="1.79426">
        <ele>408.8</ele>
        <time>2023-03-05T09:43:28Z</time>
      </trkpt>
      <trkpt lat="44.07601" lon="1.79422">
        <ele>408.2</ele>
        <time>2023-03-05T09:43:29Z</time>
      </trkpt>
      <trkpt lat="44.07606" lon="1.79419">
        <ele>407.2</ele>
        <time>2023-03-05T09:43:30Z</time>
      </trkpt>
      <trkpt lat="44.07612" lon="1.79415">
        <ele>406.6</ele>
        <time>2023-03-05T09:43:31Z</time>
      </trkpt>
      <trkpt lat="44.07617" lon="1.79412">
        <ele>405.4</ele>
        <time>2023-03-05T09:43:32Z</time>
      </trkpt>
      <trkpt lat="44.07621" lon="1.79409">
        <ele>404.2</ele>
        <time>2023-03-05T09:43:33Z</time>
      </trkpt>
      <trkpt lat="44.07626" lon="1.79406">
        <ele>403.8</ele>
        <time>2023-03-05T09:43:34Z</time>
      </trkpt>
      <trkpt lat="44.07631" lon="1.79402">
        <ele>403.2</ele>
        <time>2023-03-05T09:43:35Z</time>
      </trkpt>
      <trkpt lat="44.07634" lon="1.79398">
        <ele>403</ele>
        <time>2023-03-05T09:43:36Z</time>
      </trkpt>
      <trkpt lat="44.07638" lon="1.79395">
        <ele>402.6</ele>
        <time>2023-03-05T09:43:37Z</time>
      </trkpt>
      <trkpt lat="44.07642" lon="1.79392">
        <ele>402.2</ele>
        <time>2023-03-05T09:43:38Z</time>
      </trkpt>
      <trkpt lat="44.07648" lon="1.79387">
        <ele>401.2</ele>
        <time>2023-03-05T09:43:39Z</time>
      </trkpt>
      <trkpt lat="44.07652" lon="1.79383">
        <ele>400.8</ele>
        <time>2023-03-05T09:43:40Z</time>
      </trkpt>
      <trkpt lat="44.07657" lon="1.79378">
        <ele>400</ele>
        <time>2023-03-05T09:43:41Z</time>
      </trkpt>
      <trkpt lat="44.07662" lon="1.79374">
        <ele>399.8</ele>
        <time>2023-03-05T09:43:42Z</time>
      </trkpt>
      <trkpt lat="44.07667" lon="1.7937">
        <ele>399</ele>
        <time>2023-03-05T09:43:43Z</time>
      </trkpt>
      <trkpt lat="44.07672" lon="1.79365">
        <ele>398</ele>
        <time>2023-03-05T09:43:44Z</time>
      </trkpt>
      <trkpt lat="44.07678" lon="1.79361">
        <ele>397.8</ele>
        <time>2023-03-05T09:43:45Z</time>
      </trkpt>
      <trkpt lat="44.07684" lon="1.79355">
        <ele>396.6</ele>
        <time>2023-03-05T09:43:46Z</time>
      </trkpt>
      <trkpt lat="44.07687" lon="1.79351">
        <ele>396</ele>
        <time>2023-03-05T09:43:47Z</time>
      </trkpt>
      <trkpt lat="44.07694" lon="1.79344">
        <ele>395.2</ele>
        <time>2023-03-05T09:43:48Z</time>
      </trkpt>
      <trkpt lat="44.07698" lon="1.7934">
        <ele>395</ele>
        <time>2023-03-05T09:43:49Z</time>
      </trkpt>
      <trkpt lat="44.07705" lon="1.79333">
        <ele>394.6</ele>
        <time>2023-03-05T09:43:50Z</time>
      </trkpt>
      <trkpt lat="44.0771" lon="1.79329">
        <ele>394.4</ele>
        <time>2023-03-05T09:43:51Z</time>
      </trkpt>
      <trkpt lat="44.07716" lon="1.79323">
        <ele>394</ele>
        <time>2023-03-05T09:43:52Z</time>
      </trkpt>
      <trkpt lat="44.07721" lon="1.79318">
        <ele>393.2</ele>
        <time>2023-03-05T09:43:53Z</time>
      </trkpt>
      <trkpt lat="44.07726" lon="1.79313">
        <ele>392.4</ele>
        <time>2023-03-05T09:43:54Z</time>
      </trkpt>
      <trkpt lat="44.07731" lon="1.79308">
        <ele>391.8</ele>
        <time>2023-03-05T09:43:55Z</time>
      </trkpt>
      <trkpt lat="44.07734" lon="1.79305">
        <ele>391.4</ele>
        <time>2023-03-05T09:43:56Z</time>
      </trkpt>
      <trkpt lat="44.07738" lon="1.79301">
        <ele>390.6</ele>
        <time>2023-03-05T09:43:57Z</time>
      </trkpt>
      <trkpt lat="44.07741" lon="1.79296">
        <ele>390.2</ele>
        <time>2023-03-05T09:43:58Z</time>
      </trkpt>
      <trkpt lat="44.07744" lon="1.79294">
        <ele>389.4</ele>
        <time>2023-03-05T09:43:59Z</time>
      </trkpt>
      <trkpt lat="44.07746" lon="1.7929">
        <ele>389.2</ele>
        <time>2023-03-05T09:44:00Z</time>
      </trkpt>
      <trkpt lat="44.07748" lon="1.79287">
        <ele>389</ele>
        <time>2023-03-05T09:44:01Z</time>
      </trkpt>
      <trkpt lat="44.0775" lon="1.79284">
        <ele>388.8</ele>
        <time>2023-03-05T09:44:02Z</time>
      </trkpt>
      <trkpt lat="44.07752" lon="1.7928">
        <ele>388.8</ele>
        <time>2023-03-05T09:44:03Z</time>
      </trkpt>
      <trkpt lat="44.07753" lon="1.79278">
        <ele>388.8</ele>
        <time>2023-03-05T09:44:04Z</time>
      </trkpt>
      <trkpt lat="44.07755" lon="1.79274">
        <ele>388.8</ele>
        <time>2023-03-05T09:44:05Z</time>
      </trkpt>
      <trkpt lat="44.07756" lon="1.79271">
        <ele>388.8</ele>
        <time>2023-03-05T09:44:06Z</time>
      </trkpt>
      <trkpt lat="44.07758" lon="1.79268">
        <ele>388.8</ele>
        <time>2023-03-05T09:44:07Z</time>
      </trkpt>
      <trkpt lat="44.0776" lon="1.79264">
        <ele>389</ele>
        <time>2023-03-05T09:44:08Z</time>
      </trkpt>
      <trkpt lat="44.07762" lon="1.79261">
        <ele>389</ele>
        <time>2023-03-05T09:44:09Z</time>
      </trkpt>
      <trkpt lat="44.07764" lon="1.79258">
        <ele>389.4</ele>
        <time>2023-03-05T09:44:10Z</time>
      </trkpt>
      <trkpt lat="44.07766" lon="1.79256">
        <ele>389.6</ele>
        <time>2023-03-05T09:44:11Z</time>
      </trkpt>
      <trkpt lat="44.07769" lon="1.79252">
        <ele>390</ele>
        <time>2023-03-05T09:44:12Z</time>
      </trkpt>
      <trkpt lat="44.0777" lon="1.7925">
        <ele>390</ele>
        <time>2023-03-05T09:44:13Z</time>
      </trkpt>
      <trkpt lat="44.07771" lon="1.79247">
        <ele>390.6</ele>
        <time>2023-03-05T09:44:14Z</time>
      </trkpt>
      <trkpt lat="44.07772" lon="1.79244">
        <ele>391</ele>
        <time>2023-03-05T09:44:15Z</time>
      </trkpt>
      <trkpt lat="44.07774" lon="1.7924">
        <ele>391.2</ele>
        <time>2023-03-05T09:44:16Z</time>
      </trkpt>
      <trkpt lat="44.07775" lon="1.79237">
        <ele>391.4</ele>
        <time>2023-03-05T09:44:17Z</time>
      </trkpt>
      <trkpt lat="44.07777" lon="1.79233">
        <ele>391.6</ele>
        <time>2023-03-05T09:44:18Z</time>
      </trkpt>
      <trkpt lat="44.07779" lon="1.79229">
        <ele>391.8</ele>
        <time>2023-03-05T09:44:19Z</time>
      </trkpt>
      <trkpt lat="44.07781" lon="1.79225">
        <ele>392</ele>
        <time>2023-03-05T09:44:20Z</time>
      </trkpt>
      <trkpt lat="44.07782" lon="1.79222">
        <ele>392.2</ele>
        <time>2023-03-05T09:44:21Z</time>
      </trkpt>
      <trkpt lat="44.07784" lon="1.79219">
        <ele>392.4</ele>
        <time>2023-03-05T09:44:22Z</time>
      </trkpt>
      <trkpt lat="44.07785" lon="1.79215">
        <ele>392.8</ele>
        <time>2023-03-05T09:44:23Z</time>
      </trkpt>
      <trkpt lat="44.07786" lon="1.79211">
        <ele>393</ele>
        <time>2023-03-05T09:44:24Z</time>
      </trkpt>
      <trkpt lat="44.07787" lon="1.79208">
        <ele>393.2</ele>
        <time>2023-03-05T09:44:25Z</time>
      </trkpt>
      <trkpt lat="44.07788" lon="1.79205">
        <ele>393.6</ele>
        <time>2023-03-05T09:44:26Z</time>
      </trkpt>
      <trkpt lat="44.0779" lon="1.79201">
        <ele>393.8</ele>
        <time>2023-03-05T09:44:27Z</time>
      </trkpt>
      <trkpt lat="44.07792" lon="1.79197">
        <ele>394</ele>
        <time>2023-03-05T09:44:28Z</time>
      </trkpt>
      <trkpt lat="44.07794" lon="1.79195">
        <ele>394.4</ele>
        <time>2023-03-05T09:44:29Z</time>
      </trkpt>
      <trkpt lat="44.07795" lon="1.79192">
        <ele>394.8</ele>
        <time>2023-03-05T09:44:30Z</time>
      </trkpt>
      <trkpt lat="44.07797" lon="1.79189">
        <ele>395</ele>
        <time>2023-03-05T09:44:31Z</time>
      </trkpt>
      <trkpt lat="44.07798" lon="1.79185">
        <ele>395.6</ele>
        <time>2023-03-05T09:44:32Z</time>
      </trkpt>
      <trkpt lat="44.07799" lon="1.79182">
        <ele>395.6</ele>
        <time>2023-03-05T09:44:33Z</time>
      </trkpt>
      <trkpt lat="44.078" lon="1.7918">
        <ele>395.8</ele>
        <time>2023-03-05T09:44:34Z</time>
      </trkpt>
      <trkpt lat="44.07801" lon="1.79177">
        <ele>396</ele>
        <time>2023-03-05T09:44:35Z</time>
      </trkpt>
      <trkpt lat="44.07803" lon="1.79174">
        <ele>396.2</ele>
        <time>2023-03-05T09:44:36Z</time>
      </trkpt>
      <trkpt lat="44.07804" lon="1.79171">
        <ele>396.4</ele>
        <time>2023-03-05T09:44:37Z</time>
      </trkpt>
      <trkpt lat="44.07807" lon="1.79168">
        <ele>396.6</ele>
        <time>2023-03-05T09:44:38Z</time>
      </trkpt>
      <trkpt lat="44.07808" lon="1.79166">
        <ele>396.6</ele>
        <time>2023-03-05T09:44:39Z</time>
      </trkpt>
      <trkpt lat="44.07809" lon="1.79163">
        <ele>396.8</ele>
        <time>2023-03-05T09:44:40Z</time>
      </trkpt>
      <trkpt lat="44.07811" lon="1.7916">
        <ele>397</ele>
        <time>2023-03-05T09:44:41Z</time>
      </trkpt>
      <trkpt lat="44.07812" lon="1.79157">
        <ele>397.2</ele>
        <time>2023-03-05T09:44:42Z</time>
      </trkpt>
      <trkpt lat="44.07813" lon="1.79154">
        <ele>397.4</ele>
        <time>2023-03-05T09:44:43Z</time>
      </trkpt>
      <trkpt lat="44.07815" lon="1.79151">
        <ele>397.6</ele>
        <time>2023-03-05T09:44:44Z</time>
      </trkpt>
      <trkpt lat="44.07816" lon="1.79147">
        <ele>397.8</ele>
        <time>2023-03-05T09:44:45Z</time>
      </trkpt>
      <trkpt lat="44.07818" lon="1.79143">
        <ele>397.8</ele>
        <time>2023-03-05T09:44:46Z</time>
      </trkpt>
      <trkpt lat="44.0782" lon="1.7914">
        <ele>398</ele>
        <time>2023-03-05T09:44:47Z</time>
      </trkpt>
      <trkpt lat="44.07821" lon="1.79137">
        <ele>398</ele>
        <time>2023-03-05T09:44:48Z</time>
      </trkpt>
      <trkpt lat="44.07823" lon="1.79135">
        <ele>398.2</ele>
        <time>2023-03-05T09:44:49Z</time>
      </trkpt>
      <trkpt lat="44.07825" lon="1.79132">
        <ele>398.4</ele>
        <time>2023-03-05T09:44:50Z</time>
      </trkpt>
      <trkpt lat="44.07828" lon="1.79129">
        <ele>398.4</ele>
        <time>2023-03-05T09:44:51Z</time>
      </trkpt>
      <trkpt lat="44.0783" lon="1.79126">
        <ele>398.6</ele>
        <time>2023-03-05T09:44:52Z</time>
      </trkpt>
      <trkpt lat="44.07831" lon="1.79123">
        <ele>398.6</ele>
        <time>2023-03-05T09:44:53Z</time>
      </trkpt>
      <trkpt lat="44.07833" lon="1.7912">
        <ele>398.8</ele>
        <time>2023-03-05T09:44:54Z</time>
      </trkpt>
      <trkpt lat="44.07834" lon="1.79118">
        <ele>399</ele>
        <time>2023-03-05T09:44:55Z</time>
      </trkpt>
      <trkpt lat="44.07837" lon="1.79114">
        <ele>399.2</ele>
        <time>2023-03-05T09:44:56Z</time>
      </trkpt>
      <trkpt lat="44.07839" lon="1.79111">
        <ele>399.2</ele>
        <time>2023-03-05T09:44:57Z</time>
      </trkpt>
      <trkpt lat="44.07841" lon="1.79108">
        <ele>399.4</ele>
        <time>2023-03-05T09:44:58Z</time>
      </trkpt>
      <trkpt lat="44.07844" lon="1.79105">
        <ele>399.6</ele>
        <time>2023-03-05T09:44:59Z</time>
      </trkpt>
      <trkpt lat="44.07846" lon="1.79101">
        <ele>399.8</ele>
        <time>2023-03-05T09:45:00Z</time>
      </trkpt>
      <trkpt lat="44.0785" lon="1.79098">
        <ele>399.8</ele>
        <time>2023-03-05T09:45:01Z</time>
      </trkpt>
      <trkpt lat="44.07852" lon="1.79094">
        <ele>400</ele>
        <time>2023-03-05T09:45:02Z</time>
      </trkpt>
      <trkpt lat="44.07854" lon="1.79091">
        <ele>400.2</ele>
        <time>2023-03-05T09:45:03Z</time>
      </trkpt>
      <trkpt lat="44.07855" lon="1.79088">
        <ele>400.2</ele>
        <time>2023-03-05T09:45:04Z</time>
      </trkpt>
      <trkpt lat="44.07858" lon="1.79086">
        <ele>400.4</ele>
        <time>2023-03-05T09:45:05Z</time>
      </trkpt>
      <trkpt lat="44.07861" lon="1.79082">
        <ele>400.6</ele>
        <time>2023-03-05T09:45:06Z</time>
      </trkpt>
      <trkpt lat="44.07863" lon="1.7908">
        <ele>400.6</ele>
        <time>2023-03-05T09:45:07Z</time>
      </trkpt>
      <trkpt lat="44.07865" lon="1.79076">
        <ele>400.6</ele>
        <time>2023-03-05T09:45:08Z</time>
      </trkpt>
      <trkpt lat="44.07869" lon="1.79072">
        <ele>400.8</ele>
        <time>2023-03-05T09:45:09Z</time>
      </trkpt>
      <trkpt lat="44.07871" lon="1.79068">
        <ele>401</ele>
        <time>2023-03-05T09:45:10Z</time>
      </trkpt>
      <trkpt lat="44.07874" lon="1.79065">
        <ele>401</ele>
        <time>2023-03-05T09:45:11Z</time>
      </trkpt>
      <trkpt lat="44.07876" lon="1.79063">
        <ele>401.2</ele>
        <time>2023-03-05T09:45:12Z</time>
      </trkpt>
      <trkpt lat="44.07879" lon="1.79061">
        <ele>401.2</ele>
        <time>2023-03-05T09:45:13Z</time>
      </trkpt>
      <trkpt lat="44.07881" lon="1.79058">
        <ele>401.2</ele>
        <time>2023-03-05T09:45:14Z</time>
      </trkpt>
      <trkpt lat="44.07884" lon="1.79056">
        <ele>401.2</ele>
        <time>2023-03-05T09:45:15Z</time>
      </trkpt>
      <trkpt lat="44.07886" lon="1.79054">
        <ele>401.4</ele>
        <time>2023-03-05T09:45:16Z</time>
      </trkpt>
      <trkpt lat="44.07888" lon="1.79051">
        <ele>401.4</ele>
        <time>2023-03-05T09:45:17Z</time>
      </trkpt>
      <trkpt lat="44.0789" lon="1.79049">
        <ele>401.6</ele>
        <time>2023-03-05T09:45:18Z</time>
      </trkpt>
      <trkpt lat="44.07893" lon="1.79047">
        <ele>401.8</ele>
        <time>2023-03-05T09:45:19Z</time>
      </trkpt>
      <trkpt lat="44.07896" lon="1.79044">
        <ele>402.2</ele>
        <time>2023-03-05T09:45:20Z</time>
      </trkpt>
      <trkpt lat="44.07899" lon="1.79042">
        <ele>402.6</ele>
        <time>2023-03-05T09:45:21Z</time>
      </trkpt>
      <trkpt lat="44.07902" lon="1.7904">
        <ele>402.6</ele>
        <time>2023-03-05T09:45:22Z</time>
      </trkpt>
      <trkpt lat="44.07904" lon="1.79038">
        <ele>402.8</ele>
        <time>2023-03-05T09:45:23Z</time>
      </trkpt>
      <trkpt lat="44.07907" lon="1.79036">
        <ele>403</ele>
        <time>2023-03-05T09:45:24Z</time>
      </trkpt>
      <trkpt lat="44.0791" lon="1.79033">
        <ele>403</ele>
        <time>2023-03-05T09:45:25Z</time>
      </trkpt>
      <trkpt lat="44.07913" lon="1.79031">
        <ele>403</ele>
        <time>2023-03-05T09:45:26Z</time>
      </trkpt>
      <trkpt lat="44.07916" lon="1.7903">
        <ele>403.2</ele>
        <time>2023-03-05T09:45:27Z</time>
      </trkpt>
      <trkpt lat="44.07918" lon="1.79028">
        <ele>403.2</ele>
        <time>2023-03-05T09:45:28Z</time>
      </trkpt>
      <trkpt lat="44.07921" lon="1.79025">
        <ele>403.4</ele>
        <time>2023-03-05T09:45:29Z</time>
      </trkpt>
      <trkpt lat="44.07924" lon="1.79023">
        <ele>403.4</ele>
        <time>2023-03-05T09:45:30Z</time>
      </trkpt>
      <trkpt lat="44.07927" lon="1.79021">
        <ele>403.6</ele>
        <time>2023-03-05T09:45:31Z</time>
      </trkpt>
      <trkpt lat="44.07931" lon="1.7902">
        <ele>403.6</ele>
        <time>2023-03-05T09:45:32Z</time>
      </trkpt>
      <trkpt lat="44.07934" lon="1.79018">
        <ele>403.4</ele>
        <time>2023-03-05T09:45:33Z</time>
      </trkpt>
      <trkpt lat="44.07938" lon="1.79016">
        <ele>403.4</ele>
        <time>2023-03-05T09:45:34Z</time>
      </trkpt>
      <trkpt lat="44.07942" lon="1.79014">
        <ele>403.4</ele>
        <time>2023-03-05T09:45:35Z</time>
      </trkpt>
      <trkpt lat="44.07945" lon="1.79013">
        <ele>403.4</ele>
        <time>2023-03-05T09:45:36Z</time>
      </trkpt>
      <trkpt lat="44.07948" lon="1.79012">
        <ele>403.4</ele>
        <time>2023-03-05T09:45:37Z</time>
      </trkpt>
      <trkpt lat="44.07952" lon="1.7901">
        <ele>403.4</ele>
        <time>2023-03-05T09:45:38Z</time>
      </trkpt>
      <trkpt lat="44.07957" lon="1.79007">
        <ele>403.4</ele>
        <time>2023-03-05T09:45:39Z</time>
      </trkpt>
      <trkpt lat="44.07962" lon="1.79004">
        <ele>403.4</ele>
        <time>2023-03-05T09:45:40Z</time>
      </trkpt>
      <trkpt lat="44.07967" lon="1.79001">
        <ele>403.2</ele>
        <time>2023-03-05T09:45:41Z</time>
      </trkpt>
      <trkpt lat="44.07971" lon="1.78999">
        <ele>403</ele>
        <time>2023-03-05T09:45:42Z</time>
      </trkpt>
      <trkpt lat="44.07977" lon="1.78995">
        <ele>403</ele>
        <time>2023-03-05T09:45:43Z</time>
      </trkpt>
      <trkpt lat="44.07982" lon="1.78993">
        <ele>402.8</ele>
        <time>2023-03-05T09:45:44Z</time>
      </trkpt>
      <trkpt lat="44.07987" lon="1.7899">
        <ele>402.6</ele>
        <time>2023-03-05T09:45:45Z</time>
      </trkpt>
      <trkpt lat="44.07992" lon="1.78988">
        <ele>402.4</ele>
        <time>2023-03-05T09:45:46Z</time>
      </trkpt>
      <trkpt lat="44.07999" lon="1.78985">
        <ele>402.2</ele>
        <time>2023-03-05T09:45:47Z</time>
      </trkpt>
      <trkpt lat="44.08005" lon="1.78982">
        <ele>402</ele>
        <time>2023-03-05T09:45:48Z</time>
      </trkpt>
      <trkpt lat="44.08011" lon="1.7898">
        <ele>400.8</ele>
        <time>2023-03-05T09:45:49Z</time>
      </trkpt>
      <trkpt lat="44.08018" lon="1.78976">
        <ele>400.4</ele>
        <time>2023-03-05T09:45:50Z</time>
      </trkpt>
      <trkpt lat="44.08024" lon="1.78974">
        <ele>399.8</ele>
        <time>2023-03-05T09:45:51Z</time>
      </trkpt>
      <trkpt lat="44.08031" lon="1.7897">
        <ele>399.6</ele>
        <time>2023-03-05T09:45:52Z</time>
      </trkpt>
      <trkpt lat="44.08037" lon="1.78967">
        <ele>399.4</ele>
        <time>2023-03-05T09:45:53Z</time>
      </trkpt>
      <trkpt lat="44.08043" lon="1.78964">
        <ele>399.2</ele>
        <time>2023-03-05T09:45:54Z</time>
      </trkpt>
      <trkpt lat="44.08048" lon="1.78961">
        <ele>398.8</ele>
        <time>2023-03-05T09:45:55Z</time>
      </trkpt>
      <trkpt lat="44.08052" lon="1.78958">
        <ele>398.2</ele>
        <time>2023-03-05T09:45:56Z</time>
      </trkpt>
      <trkpt lat="44.08058" lon="1.78955">
        <ele>398</ele>
        <time>2023-03-05T09:45:57Z</time>
      </trkpt>
      <trkpt lat="44.08063" lon="1.78952">
        <ele>397.6</ele>
        <time>2023-03-05T09:45:58Z</time>
      </trkpt>
      <trkpt lat="44.08069" lon="1.78949">
        <ele>397.6</ele>
        <time>2023-03-05T09:45:59Z</time>
      </trkpt>
      <trkpt lat="44.08073" lon="1.78947">
        <ele>397.4</ele>
        <time>2023-03-05T09:46:00Z</time>
      </trkpt>
      <trkpt lat="44.0808" lon="1.78944">
        <ele>397.2</ele>
        <time>2023-03-05T09:46:01Z</time>
      </trkpt>
      <trkpt lat="44.08086" lon="1.7894">
        <ele>397</ele>
        <time>2023-03-05T09:46:02Z</time>
      </trkpt>
      <trkpt lat="44.08091" lon="1.78937">
        <ele>396.8</ele>
        <time>2023-03-05T09:46:03Z</time>
      </trkpt>
      <trkpt lat="44.08097" lon="1.78934">
        <ele>396.8</ele>
        <time>2023-03-05T09:46:04Z</time>
      </trkpt>
      <trkpt lat="44.08102" lon="1.78932">
        <ele>396.6</ele>
        <time>2023-03-05T09:46:05Z</time>
      </trkpt>
      <trkpt lat="44.08107" lon="1.78929">
        <ele>396.4</ele>
        <time>2023-03-05T09:46:06Z</time>
      </trkpt>
      <trkpt lat="44.08113" lon="1.78926">
        <ele>396.2</ele>
        <time>2023-03-05T09:46:07Z</time>
      </trkpt>
      <trkpt lat="44.0812" lon="1.78923">
        <ele>396</ele>
        <time>2023-03-05T09:46:08Z</time>
      </trkpt>
      <trkpt lat="44.08126" lon="1.78921">
        <ele>395.2</ele>
        <time>2023-03-05T09:46:09Z</time>
      </trkpt>
      <trkpt lat="44.08132" lon="1.78918">
        <ele>394.6</ele>
        <time>2023-03-05T09:46:10Z</time>
      </trkpt>
      <trkpt lat="44.0814" lon="1.78915">
        <ele>393.8</ele>
        <time>2023-03-05T09:46:11Z</time>
      </trkpt>
      <trkpt lat="44.08145" lon="1.78912">
        <ele>393.6</ele>
        <time>2023-03-05T09:46:12Z</time>
      </trkpt>
      <trkpt lat="44.08152" lon="1.78909">
        <ele>393</ele>
        <time>2023-03-05T09:46:13Z</time>
      </trkpt>
      <trkpt lat="44.08158" lon="1.78906">
        <ele>392.6</ele>
        <time>2023-03-05T09:46:14Z</time>
      </trkpt>
      <trkpt lat="44.08162" lon="1.78904">
        <ele>392</ele>
        <time>2023-03-05T09:46:15Z</time>
      </trkpt>
      <trkpt lat="44.08169" lon="1.78901">
        <ele>391.6</ele>
        <time>2023-03-05T09:46:16Z</time>
      </trkpt>
      <trkpt lat="44.08174" lon="1.78899">
        <ele>391</ele>
        <time>2023-03-05T09:46:17Z</time>
      </trkpt>
      <trkpt lat="44.0818" lon="1.78897">
        <ele>390.6</ele>
        <time>2023-03-05T09:46:18Z</time>
      </trkpt>
      <trkpt lat="44.08185" lon="1.78895">
        <ele>390.4</ele>
        <time>2023-03-05T09:46:19Z</time>
      </trkpt>
      <trkpt lat="44.08189" lon="1.78893">
        <ele>390.2</ele>
        <time>2023-03-05T09:46:20Z</time>
      </trkpt>
      <trkpt lat="44.08196" lon="1.78891">
        <ele>390</ele>
        <time>2023-03-05T09:46:21Z</time>
      </trkpt>
      <trkpt lat="44.08202" lon="1.7889">
        <ele>389.6</ele>
        <time>2023-03-05T09:46:22Z</time>
      </trkpt>
      <trkpt lat="44.0821" lon="1.78888">
        <ele>389.4</ele>
        <time>2023-03-05T09:46:23Z</time>
      </trkpt>
      <trkpt lat="44.08217" lon="1.78886">
        <ele>389.2</ele>
        <time>2023-03-05T09:46:24Z</time>
      </trkpt>
      <trkpt lat="44.08225" lon="1.78883">
        <ele>389</ele>
        <time>2023-03-05T09:46:25Z</time>
      </trkpt>
      <trkpt lat="44.08232" lon="1.7888">
        <ele>387.6</ele>
        <time>2023-03-05T09:46:26Z</time>
      </trkpt>
      <trkpt lat="44.08238" lon="1.78879">
        <ele>387</ele>
        <time>2023-03-05T09:46:27Z</time>
      </trkpt>
      <trkpt lat="44.08243" lon="1.78877">
        <ele>386.2</ele>
        <time>2023-03-05T09:46:28Z</time>
      </trkpt>
      <trkpt lat="44.0825" lon="1.78876">
        <ele>385.4</ele>
        <time>2023-03-05T09:46:29Z</time>
      </trkpt>
      <trkpt lat="44.08256" lon="1.78876">
        <ele>384.8</ele>
        <time>2023-03-05T09:46:30Z</time>
      </trkpt>
      <trkpt lat="44.08261" lon="1.78875">
        <ele>383.4</ele>
        <time>2023-03-05T09:46:31Z</time>
      </trkpt>
      <trkpt lat="44.08267" lon="1.78876">
        <ele>383</ele>
        <time>2023-03-05T09:46:32Z</time>
      </trkpt>
      <trkpt lat="44.08271" lon="1.78876">
        <ele>381.8</ele>
        <time>2023-03-05T09:46:33Z</time>
      </trkpt>
      <trkpt lat="44.08277" lon="1.78876">
        <ele>381.4</ele>
        <time>2023-03-05T09:46:34Z</time>
      </trkpt>
      <trkpt lat="44.08283" lon="1.78876">
        <ele>380.6</ele>
        <time>2023-03-05T09:46:35Z</time>
      </trkpt>
      <trkpt lat="44.0829" lon="1.78877">
        <ele>380</ele>
        <time>2023-03-05T09:46:36Z</time>
      </trkpt>
      <trkpt lat="44.08297" lon="1.78878">
        <ele>378.8</ele>
        <time>2023-03-05T09:46:37Z</time>
      </trkpt>
      <trkpt lat="44.08302" lon="1.78878">
        <ele>377.8</ele>
        <time>2023-03-05T09:46:38Z</time>
      </trkpt>
      <trkpt lat="44.08306" lon="1.78879">
        <ele>376</ele>
        <time>2023-03-05T09:46:39Z</time>
      </trkpt>
      <trkpt lat="44.08307" lon="1.78881">
        <ele>374.6</ele>
        <time>2023-03-05T09:46:40Z</time>
      </trkpt>
      <trkpt lat="44.08308" lon="1.78883">
        <ele>374.2</ele>
        <time>2023-03-05T09:46:41Z</time>
      </trkpt>
      <trkpt lat="44.08309" lon="1.78884">
        <ele>373.4</ele>
        <time>2023-03-05T09:46:42Z</time>
      </trkpt>
      <trkpt lat="44.08309" lon="1.78886">
        <ele>372.8</ele>
        <time>2023-03-05T09:46:43Z</time>
      </trkpt>
      <trkpt lat="44.08311" lon="1.78889">
        <ele>371.8</ele>
        <time>2023-03-05T09:46:44Z</time>
      </trkpt>
      <trkpt lat="44.08311" lon="1.78892">
        <ele>371.6</ele>
        <time>2023-03-05T09:46:45Z</time>
      </trkpt>
      <trkpt lat="44.08311" lon="1.78896">
        <ele>371.2</ele>
        <time>2023-03-05T09:46:46Z</time>
      </trkpt>
      <trkpt lat="44.08311" lon="1.78898">
        <ele>371</ele>
        <time>2023-03-05T09:46:47Z</time>
      </trkpt>
      <trkpt lat="44.0831" lon="1.78901">
        <ele>371</ele>
        <time>2023-03-05T09:46:48Z</time>
      </trkpt>
      <trkpt lat="44.08309" lon="1.78904">
        <ele>370.8</ele>
        <time>2023-03-05T09:46:49Z</time>
      </trkpt>
      <trkpt lat="44.08307" lon="1.78906">
        <ele>370.8</ele>
        <time>2023-03-05T09:46:50Z</time>
      </trkpt>
      <trkpt lat="44.08305" lon="1.78908">
        <ele>370.8</ele>
        <time>2023-03-05T09:46:51Z</time>
      </trkpt>
      <trkpt lat="44.08303" lon="1.78909">
        <ele>371</ele>
        <time>2023-03-05T09:46:52Z</time>
      </trkpt>
      <trkpt lat="44.083" lon="1.78911">
        <ele>371</ele>
        <time>2023-03-05T09:46:53Z</time>
      </trkpt>
      <trkpt lat="44.08298" lon="1.78911">
        <ele>371.2</ele>
        <time>2023-03-05T09:46:54Z</time>
      </trkpt>
      <trkpt lat="44.08295" lon="1.78911">
        <ele>371.6</ele>
        <time>2023-03-05T09:46:55Z</time>
      </trkpt>
      <trkpt lat="44.08293" lon="1.7891">
        <ele>372</ele>
        <time>2023-03-05T09:46:56Z</time>
      </trkpt>
      <trkpt lat="44.08291" lon="1.78909">
        <ele>372.4</ele>
        <time>2023-03-05T09:46:57Z</time>
      </trkpt>
      <trkpt lat="44.08288" lon="1.78907">
        <ele>372.4</ele>
        <time>2023-03-05T09:46:58Z</time>
      </trkpt>
      <trkpt lat="44.08286" lon="1.78906">
        <ele>373</ele>
        <time>2023-03-05T09:46:59Z</time>
      </trkpt>
      <trkpt lat="44.08283" lon="1.78905">
        <ele>373.6</ele>
        <time>2023-03-05T09:47:00Z</time>
      </trkpt>
      <trkpt lat="44.0828" lon="1.78904">
        <ele>374.2</ele>
        <time>2023-03-05T09:47:01Z</time>
      </trkpt>
      <trkpt lat="44.08278" lon="1.78903">
        <ele>374.6</ele>
        <time>2023-03-05T09:47:02Z</time>
      </trkpt>
      <trkpt lat="44.08276" lon="1.78902">
        <ele>374.8</ele>
        <time>2023-03-05T09:47:03Z</time>
      </trkpt>
      <trkpt lat="44.08273" lon="1.78901">
        <ele>375.6</ele>
        <time>2023-03-05T09:47:04Z</time>
      </trkpt>
      <trkpt lat="44.0827" lon="1.789">
        <ele>376</ele>
        <time>2023-03-05T09:47:05Z</time>
      </trkpt>
      <trkpt lat="44.08268" lon="1.789">
        <ele>377</ele>
        <time>2023-03-05T09:47:06Z</time>
      </trkpt>
      <trkpt lat="44.08265" lon="1.78901">
        <ele>377.4</ele>
        <time>2023-03-05T09:47:07Z</time>
      </trkpt>
      <trkpt lat="44.08263" lon="1.78903">
        <ele>378</ele>
        <time>2023-03-05T09:47:08Z</time>
      </trkpt>
      <trkpt lat="44.08261" lon="1.78904">
        <ele>378.2</ele>
        <time>2023-03-05T09:47:09Z</time>
      </trkpt>
      <trkpt lat="44.08259" lon="1.78906">
        <ele>378.8</ele>
        <time>2023-03-05T09:47:10Z</time>
      </trkpt>
      <trkpt lat="44.08256" lon="1.78909">
        <ele>379</ele>
        <time>2023-03-05T09:47:11Z</time>
      </trkpt>
      <trkpt lat="44.08254" lon="1.78912">
        <ele>379.4</ele>
        <time>2023-03-05T09:47:12Z</time>
      </trkpt>
      <trkpt lat="44.08251" lon="1.78914">
        <ele>379.6</ele>
        <time>2023-03-05T09:47:13Z</time>
      </trkpt>
      <trkpt lat="44.08249" lon="1.78915">
        <ele>380</ele>
        <time>2023-03-05T09:47:14Z</time>
      </trkpt>
      <trkpt lat="44.08247" lon="1.78916">
        <ele>380.6</ele>
        <time>2023-03-05T09:47:15Z</time>
      </trkpt>
      <trkpt lat="44.08245" lon="1.78919">
        <ele>380.8</ele>
        <time>2023-03-05T09:47:16Z</time>
      </trkpt>
      <trkpt lat="44.08243" lon="1.7892">
        <ele>381.4</ele>
        <time>2023-03-05T09:47:17Z</time>
      </trkpt>
      <trkpt lat="44.0824" lon="1.78922">
        <ele>381.6</ele>
        <time>2023-03-05T09:47:18Z</time>
      </trkpt>
      <trkpt lat="44.08238" lon="1.78923">
        <ele>382.2</ele>
        <time>2023-03-05T09:47:19Z</time>
      </trkpt>
      <trkpt lat="44.08235" lon="1.78926">
        <ele>382.4</ele>
        <time>2023-03-05T09:47:20Z</time>
      </trkpt>
      <trkpt lat="44.08233" lon="1.78928">
        <ele>382.8</ele>
        <time>2023-03-05T09:47:21Z</time>
      </trkpt>
      <trkpt lat="44.08232" lon="1.7893">
        <ele>383</ele>
        <time>2023-03-05T09:47:22Z</time>
      </trkpt>
      <trkpt lat="44.0823" lon="1.78932">
        <ele>383.6</ele>
        <time>2023-03-05T09:47:23Z</time>
      </trkpt>
      <trkpt lat="44.08229" lon="1.78935">
        <ele>383.8</ele>
        <time>2023-03-05T09:47:24Z</time>
      </trkpt>
      <trkpt lat="44.08228" lon="1.78938">
        <ele>384.4</ele>
        <time>2023-03-05T09:47:25Z</time>
      </trkpt>
      <trkpt lat="44.08228" lon="1.78941">
        <ele>384.8</ele>
        <time>2023-03-05T09:47:26Z</time>
      </trkpt>
      <trkpt lat="44.08227" lon="1.78945">
        <ele>384.8</ele>
        <time>2023-03-05T09:47:27Z</time>
      </trkpt>
      <trkpt lat="44.08226" lon="1.78948">
        <ele>385.2</ele>
        <time>2023-03-05T09:47:28Z</time>
      </trkpt>
      <trkpt lat="44.08226" lon="1.78951">
        <ele>385.2</ele>
        <time>2023-03-05T09:47:29Z</time>
      </trkpt>
      <trkpt lat="44.08225" lon="1.78953">
        <ele>385.6</ele>
        <time>2023-03-05T09:47:30Z</time>
      </trkpt>
      <trkpt lat="44.08223" lon="1.78955">
        <ele>385.8</ele>
        <time>2023-03-05T09:47:31Z</time>
      </trkpt>
      <trkpt lat="44.08222" lon="1.78957">
        <ele>386</ele>
        <time>2023-03-05T09:47:32Z</time>
      </trkpt>
      <trkpt lat="44.08221" lon="1.78958">
        <ele>386.2</ele>
        <time>2023-03-05T09:47:33Z</time>
      </trkpt>
      <trkpt lat="44.08218" lon="1.7896">
        <ele>386.6</ele>
        <time>2023-03-05T09:47:34Z</time>
      </trkpt>
      <trkpt lat="44.08214" lon="1.78961">
        <ele>387</ele>
        <time>2023-03-05T09:47:35Z</time>
      </trkpt>
      <trkpt lat="44.08211" lon="1.78962">
        <ele>387.2</ele>
        <time>2023-03-05T09:47:36Z</time>
      </trkpt>
      <trkpt lat="44.08209" lon="1.78962">
        <ele>387.8</ele>
        <time>2023-03-05T09:47:37Z</time>
      </trkpt>
      <trkpt lat="44.08207" lon="1.78963">
        <ele>388.2</ele>
        <time>2023-03-05T09:47:38Z</time>
      </trkpt>
      <trkpt lat="44.08205" lon="1.78962">
        <ele>389</ele>
        <time>2023-03-05T09:47:39Z</time>
      </trkpt>
      <trkpt lat="44.08203" lon="1.78961">
        <ele>389.2</ele>
        <time>2023-03-05T09:47:40Z</time>
      </trkpt>
      <trkpt lat="44.08201" lon="1.7896">
        <ele>389.4</ele>
        <time>2023-03-05T09:47:41Z</time>
      </trkpt>
      <trkpt lat="44.08197" lon="1.78958">
        <ele>389.6</ele>
        <time>2023-03-05T09:47:42Z</time>
      </trkpt>
      <trkpt lat="44.08195" lon="1.78957">
        <ele>390.2</ele>
        <time>2023-03-05T09:47:43Z</time>
      </trkpt>
      <trkpt lat="44.08192" lon="1.78956">
        <ele>390.6</ele>
        <time>2023-03-05T09:47:44Z</time>
      </trkpt>
      <trkpt lat="44.08189" lon="1.78956">
        <ele>391</ele>
        <time>2023-03-05T09:47:45Z</time>
      </trkpt>
      <trkpt lat="44.08186" lon="1.78955">
        <ele>391.2</ele>
        <time>2023-03-05T09:47:46Z</time>
      </trkpt>
      <trkpt lat="44.08184" lon="1.78955">
        <ele>391.6</ele>
        <time>2023-03-05T09:47:47Z</time>
      </trkpt>
      <trkpt lat="44.08182" lon="1.78954">
        <ele>392</ele>
        <time>2023-03-05T09:47:48Z</time>
      </trkpt>
      <trkpt lat="44.0818" lon="1.78953">
        <ele>392.4</ele>
        <time>2023-03-05T09:47:49Z</time>
      </trkpt>
      <trkpt lat="44.08177" lon="1.78953">
        <ele>392.6</ele>
        <time>2023-03-05T09:47:50Z</time>
      </trkpt>
      <trkpt lat="44.08174" lon="1.78953">
        <ele>392.8</ele>
        <time>2023-03-05T09:47:51Z</time>
      </trkpt>
      <trkpt lat="44.08172" lon="1.78954">
        <ele>393</ele>
        <time>2023-03-05T09:47:52Z</time>
      </trkpt>
      <trkpt lat="44.08169" lon="1.78955">
        <ele>393.2</ele>
        <time>2023-03-05T09:47:53Z</time>
      </trkpt>
      <trkpt lat="44.08167" lon="1.78956">
        <ele>393.4</ele>
        <time>2023-03-05T09:47:54Z</time>
      </trkpt>
      <trkpt lat="44.08164" lon="1.78957">
        <ele>393.6</ele>
        <time>2023-03-05T09:47:55Z</time>
      </trkpt>
      <trkpt lat="44.08163" lon="1.78959">
        <ele>394</ele>
        <time>2023-03-05T09:47:56Z</time>
      </trkpt>
      <trkpt lat="44.08161" lon="1.7896">
        <ele>394</ele>
        <time>2023-03-05T09:47:57Z</time>
      </trkpt>
      <trkpt lat="44.0816" lon="1.78963">
        <ele>394.4</ele>
        <time>2023-03-05T09:47:58Z</time>
      </trkpt>
      <trkpt lat="44.08159" lon="1.78966">
        <ele>394.6</ele>
        <time>2023-03-05T09:47:59Z</time>
      </trkpt>
      <trkpt lat="44.08156" lon="1.78968">
        <ele>394.6</ele>
        <time>2023-03-05T09:48:00Z</time>
      </trkpt>
      <trkpt lat="44.08154" lon="1.78969">
        <ele>395.4</ele>
        <time>2023-03-05T09:48:01Z</time>
      </trkpt>
      <trkpt lat="44.08152" lon="1.78971">
        <ele>395.6</ele>
        <time>2023-03-05T09:48:02Z</time>
      </trkpt>
      <trkpt lat="44.08149" lon="1.78973">
        <ele>395.8</ele>
        <time>2023-03-05T09:48:03Z</time>
      </trkpt>
      <trkpt lat="44.08147" lon="1.78975">
        <ele>396</ele>
        <time>2023-03-05T09:48:04Z</time>
      </trkpt>
      <trkpt lat="44.08145" lon="1.78978">
        <ele>396.2</ele>
        <time>2023-03-05T09:48:05Z</time>
      </trkpt>
      <trkpt lat="44.08144" lon="1.7898">
        <ele>396.4</ele>
        <time>2023-03-05T09:48:06Z</time>
      </trkpt>
      <trkpt lat="44.08144" lon="1.78983">
        <ele>396.8</ele>
        <time>2023-03-05T09:48:07Z</time>
      </trkpt>
      <trkpt lat="44.08144" lon="1.78988">
        <ele>397</ele>
        <time>2023-03-05T09:48:08Z</time>
      </trkpt>
      <trkpt lat="44.08144" lon="1.78991">
        <ele>397.2</ele>
        <time>2023-03-05T09:48:09Z</time>
      </trkpt>
      <trkpt lat="44.08144" lon="1.78994">
        <ele>397.6</ele>
        <time>2023-03-05T09:48:10Z</time>
      </trkpt>
      <trkpt lat="44.08144" lon="1.78997">
        <ele>397.8</ele>
        <time>2023-03-05T09:48:11Z</time>
      </trkpt>
      <trkpt lat="44.08144" lon="1.79">
        <ele>398</ele>
        <time>2023-03-05T09:48:12Z</time>
      </trkpt>
      <trkpt lat="44.08143" lon="1.79003">
        <ele>398.2</ele>
        <time>2023-03-05T09:48:13Z</time>
      </trkpt>
      <trkpt lat="44.08142" lon="1.79006">
        <ele>398.6</ele>
        <time>2023-03-05T09:48:14Z</time>
      </trkpt>
      <trkpt lat="44.08141" lon="1.79009">
        <ele>398.8</ele>
        <time>2023-03-05T09:48:15Z</time>
      </trkpt>
      <trkpt lat="44.0814" lon="1.79012">
        <ele>399</ele>
        <time>2023-03-05T09:48:16Z</time>
      </trkpt>
      <trkpt lat="44.08139" lon="1.79015">
        <ele>399.2</ele>
        <time>2023-03-05T09:48:17Z</time>
      </trkpt>
      <trkpt lat="44.08139" lon="1.79018">
        <ele>399.8</ele>
        <time>2023-03-05T09:48:18Z</time>
      </trkpt>
      <trkpt lat="44.08138" lon="1.79022">
        <ele>400</ele>
        <time>2023-03-05T09:48:19Z</time>
      </trkpt>
      <trkpt lat="44.08138" lon="1.79025">
        <ele>400.4</ele>
        <time>2023-03-05T09:48:20Z</time>
      </trkpt>
      <trkpt lat="44.08137" lon="1.79028">
        <ele>400.8</ele>
        <time>2023-03-05T09:48:21Z</time>
      </trkpt>
      <trkpt lat="44.08137" lon="1.79031">
        <ele>401</ele>
        <time>2023-03-05T09:48:22Z</time>
      </trkpt>
      <trkpt lat="44.08136" lon="1.79033">
        <ele>401.4</ele>
        <time>2023-03-05T09:48:23Z</time>
      </trkpt>
      <trkpt lat="44.08136" lon="1.79037">
        <ele>401.6</ele>
        <time>2023-03-05T09:48:24Z</time>
      </trkpt>
      <trkpt lat="44.08136" lon="1.7904">
        <ele>402.2</ele>
        <time>2023-03-05T09:48:25Z</time>
      </trkpt>
      <trkpt lat="44.08136" lon="1.79044">
        <ele>402.4</ele>
        <time>2023-03-05T09:48:26Z</time>
      </trkpt>
      <trkpt lat="44.08136" lon="1.79047">
        <ele>403</ele>
        <time>2023-03-05T09:48:27Z</time>
      </trkpt>
      <trkpt lat="44.08136" lon="1.7905">
        <ele>403.2</ele>
        <time>2023-03-05T09:48:28Z</time>
      </trkpt>
      <trkpt lat="44.08136" lon="1.79054">
        <ele>403.8</ele>
        <time>2023-03-05T09:48:29Z</time>
      </trkpt>
      <trkpt lat="44.08136" lon="1.79057">
        <ele>404</ele>
        <time>2023-03-05T09:48:30Z</time>
      </trkpt>
      <trkpt lat="44.08136" lon="1.7906">
        <ele>404.4</ele>
        <time>2023-03-05T09:48:31Z</time>
      </trkpt>
      <trkpt lat="44.08135" lon="1.79064">
        <ele>404.8</ele>
        <time>2023-03-05T09:48:32Z</time>
      </trkpt>
      <trkpt lat="44.08135" lon="1.79067">
        <ele>405</ele>
        <time>2023-03-05T09:48:33Z</time>
      </trkpt>
      <trkpt lat="44.08135" lon="1.7907">
        <ele>405.6</ele>
        <time>2023-03-05T09:48:34Z</time>
      </trkpt>
      <trkpt lat="44.08135" lon="1.79074">
        <ele>405.6</ele>
        <time>2023-03-05T09:48:35Z</time>
      </trkpt>
      <trkpt lat="44.08135" lon="1.79077">
        <ele>406</ele>
        <time>2023-03-05T09:48:36Z</time>
      </trkpt>
      <trkpt lat="44.08136" lon="1.7908">
        <ele>406</ele>
        <time>2023-03-05T09:48:37Z</time>
      </trkpt>
      <trkpt lat="44.08136" lon="1.79083">
        <ele>406.4</ele>
        <time>2023-03-05T09:48:38Z</time>
      </trkpt>
      <trkpt lat="44.08136" lon="1.79087">
        <ele>406.6</ele>
        <time>2023-03-05T09:48:39Z</time>
      </trkpt>
      <trkpt lat="44.08137" lon="1.7909">
        <ele>406.8</ele>
        <time>2023-03-05T09:48:40Z</time>
      </trkpt>
      <trkpt lat="44.08137" lon="1.79093">
        <ele>406.8</ele>
        <time>2023-03-05T09:48:41Z</time>
      </trkpt>
      <trkpt lat="44.08137" lon="1.79097">
        <ele>407.4</ele>
        <time>2023-03-05T09:48:42Z</time>
      </trkpt>
      <trkpt lat="44.08137" lon="1.79101">
        <ele>407.4</ele>
        <time>2023-03-05T09:48:43Z</time>
      </trkpt>
      <trkpt lat="44.08137" lon="1.79104">
        <ele>407.6</ele>
        <time>2023-03-05T09:48:44Z</time>
      </trkpt>
      <trkpt lat="44.08137" lon="1.79107">
        <ele>408.2</ele>
        <time>2023-03-05T09:48:45Z</time>
      </trkpt>
      <trkpt lat="44.08138" lon="1.7911">
        <ele>408.6</ele>
        <time>2023-03-05T09:48:46Z</time>
      </trkpt>
      <trkpt lat="44.08138" lon="1.79115">
        <ele>409.2</ele>
        <time>2023-03-05T09:48:47Z</time>
      </trkpt>
      <trkpt lat="44.08138" lon="1.79117">
        <ele>409.6</ele>
        <time>2023-03-05T09:48:48Z</time>
      </trkpt>
      <trkpt lat="44.08139" lon="1.79121">
        <ele>409.8</ele>
        <time>2023-03-05T09:48:49Z</time>
      </trkpt>
      <trkpt lat="44.08139" lon="1.79123">
        <ele>410</ele>
        <time>2023-03-05T09:48:50Z</time>
      </trkpt>
      <trkpt lat="44.0814" lon="1.79127">
        <ele>410.2</ele>
        <time>2023-03-05T09:48:51Z</time>
      </trkpt>
      <trkpt lat="44.08141" lon="1.79129">
        <ele>410.2</ele>
        <time>2023-03-05T09:48:52Z</time>
      </trkpt>
      <trkpt lat="44.08141" lon="1.79133">
        <ele>410.8</ele>
        <time>2023-03-05T09:48:53Z</time>
      </trkpt>
      <trkpt lat="44.08141" lon="1.79136">
        <ele>411</ele>
        <time>2023-03-05T09:48:54Z</time>
      </trkpt>
      <trkpt lat="44.08141" lon="1.79139">
        <ele>411.4</ele>
        <time>2023-03-05T09:48:55Z</time>
      </trkpt>
      <trkpt lat="44.08141" lon="1.79143">
        <ele>411.8</ele>
        <time>2023-03-05T09:48:56Z</time>
      </trkpt>
      <trkpt lat="44.0814" lon="1.79146">
        <ele>412</ele>
        <time>2023-03-05T09:48:57Z</time>
      </trkpt>
      <trkpt lat="44.0814" lon="1.79149">
        <ele>412.4</ele>
        <time>2023-03-05T09:48:58Z</time>
      </trkpt>
      <trkpt lat="44.08139" lon="1.79152">
        <ele>412.6</ele>
        <time>2023-03-05T09:48:59Z</time>
      </trkpt>
      <trkpt lat="44.08139" lon="1.79155">
        <ele>413</ele>
        <time>2023-03-05T09:49:00Z</time>
      </trkpt>
      <trkpt lat="44.08139" lon="1.79159">
        <ele>413.2</ele>
        <time>2023-03-05T09:49:01Z</time>
      </trkpt>
      <trkpt lat="44.08139" lon="1.79162">
        <ele>413.6</ele>
        <time>2023-03-05T09:49:02Z</time>
      </trkpt>
      <trkpt lat="44.08139" lon="1.79165">
        <ele>414</ele>
        <time>2023-03-05T09:49:03Z</time>
      </trkpt>
      <trkpt lat="44.08139" lon="1.79169">
        <ele>414.6</ele>
        <time>2023-03-05T09:49:04Z</time>
      </trkpt>
      <trkpt lat="44.08139" lon="1.79172">
        <ele>414.8</ele>
        <time>2023-03-05T09:49:05Z</time>
      </trkpt>
      <trkpt lat="44.08138" lon="1.79175">
        <ele>415.2</ele>
        <time>2023-03-05T09:49:06Z</time>
      </trkpt>
      <trkpt lat="44.08138" lon="1.79178">
        <ele>415.8</ele>
        <time>2023-03-05T09:49:07Z</time>
      </trkpt>
      <trkpt lat="44.08138" lon="1.79181">
        <ele>416</ele>
        <time>2023-03-05T09:49:08Z</time>
      </trkpt>
      <trkpt lat="44.08137" lon="1.79184">
        <ele>416.4</ele>
        <time>2023-03-05T09:49:09Z</time>
      </trkpt>
      <trkpt lat="44.08136" lon="1.79187">
        <ele>416.6</ele>
        <time>2023-03-05T09:49:10Z</time>
      </trkpt>
      <trkpt lat="44.08135" lon="1.7919">
        <ele>417</ele>
        <time>2023-03-05T09:49:11Z</time>
      </trkpt>
      <trkpt lat="44.08134" lon="1.79193">
        <ele>417.2</ele>
        <time>2023-03-05T09:49:12Z</time>
      </trkpt>
      <trkpt lat="44.08133" lon="1.79196">
        <ele>417.6</ele>
        <time>2023-03-05T09:49:13Z</time>
      </trkpt>
      <trkpt lat="44.08132" lon="1.79199">
        <ele>417.8</ele>
        <time>2023-03-05T09:49:14Z</time>
      </trkpt>
      <trkpt lat="44.08131" lon="1.79203">
        <ele>418.2</ele>
        <time>2023-03-05T09:49:15Z</time>
      </trkpt>
      <trkpt lat="44.0813" lon="1.79206">
        <ele>418.4</ele>
        <time>2023-03-05T09:49:16Z</time>
      </trkpt>
      <trkpt lat="44.0813" lon="1.79209">
        <ele>418.8</ele>
        <time>2023-03-05T09:49:17Z</time>
      </trkpt>
      <trkpt lat="44.08129" lon="1.79212">
        <ele>419.2</ele>
        <time>2023-03-05T09:49:18Z</time>
      </trkpt>
      <trkpt lat="44.08129" lon="1.79216">
        <ele>419.2</ele>
        <time>2023-03-05T09:49:19Z</time>
      </trkpt>
      <trkpt lat="44.08128" lon="1.79219">
        <ele>420</ele>
        <time>2023-03-05T09:49:20Z</time>
      </trkpt>
      <trkpt lat="44.08128" lon="1.79223">
        <ele>420.2</ele>
        <time>2023-03-05T09:49:21Z</time>
      </trkpt>
      <trkpt lat="44.08127" lon="1.79226">
        <ele>420.6</ele>
        <time>2023-03-05T09:49:22Z</time>
      </trkpt>
      <trkpt lat="44.08127" lon="1.79229">
        <ele>420.8</ele>
        <time>2023-03-05T09:49:23Z</time>
      </trkpt>
      <trkpt lat="44.08127" lon="1.79233">
        <ele>421</ele>
        <time>2023-03-05T09:49:24Z</time>
      </trkpt>
      <trkpt lat="44.08127" lon="1.79237">
        <ele>421.2</ele>
        <time>2023-03-05T09:49:25Z</time>
      </trkpt>
      <trkpt lat="44.08126" lon="1.79241">
        <ele>421.4</ele>
        <time>2023-03-05T09:49:26Z</time>
      </trkpt>
      <trkpt lat="44.08126" lon="1.79244">
        <ele>421.4</ele>
        <time>2023-03-05T09:49:27Z</time>
      </trkpt>
      <trkpt lat="44.08125" lon="1.79248">
        <ele>421.6</ele>
        <time>2023-03-05T09:49:28Z</time>
      </trkpt>
      <trkpt lat="44.08124" lon="1.79252">
        <ele>422</ele>
        <time>2023-03-05T09:49:29Z</time>
      </trkpt>
      <trkpt lat="44.08123" lon="1.79255">
        <ele>422</ele>
        <time>2023-03-05T09:49:30Z</time>
      </trkpt>
      <trkpt lat="44.08122" lon="1.79259">
        <ele>422.4</ele>
        <time>2023-03-05T09:49:31Z</time>
      </trkpt>
      <trkpt lat="44.0812" lon="1.79263">
        <ele>422.4</ele>
        <time>2023-03-05T09:49:32Z</time>
      </trkpt>
      <trkpt lat="44.08118" lon="1.79266">
        <ele>422.8</ele>
        <time>2023-03-05T09:49:33Z</time>
      </trkpt>
      <trkpt lat="44.08116" lon="1.7927">
        <ele>423</ele>
        <time>2023-03-05T09:49:34Z</time>
      </trkpt>
      <trkpt lat="44.08114" lon="1.79273">
        <ele>423.2</ele>
        <time>2023-03-05T09:49:35Z</time>
      </trkpt>
      <trkpt lat="44.08112" lon="1.79275">
        <ele>423.2</ele>
        <time>2023-03-05T09:49:36Z</time>
      </trkpt>
      <trkpt lat="44.08109" lon="1.79277">
        <ele>423.4</ele>
        <time>2023-03-05T09:49:37Z</time>
      </trkpt>
      <trkpt lat="44.08107" lon="1.79279">
        <ele>423.6</ele>
        <time>2023-03-05T09:49:38Z</time>
      </trkpt>
      <trkpt lat="44.08105" lon="1.79282">
        <ele>423.8</ele>
        <time>2023-03-05T09:49:39Z</time>
      </trkpt>
      <trkpt lat="44.08103" lon="1.79285">
        <ele>424.2</ele>
        <time>2023-03-05T09:49:40Z</time>
      </trkpt>
      <trkpt lat="44.08102" lon="1.79287">
        <ele>424.4</ele>
        <time>2023-03-05T09:49:41Z</time>
      </trkpt>
      <trkpt lat="44.081" lon="1.7929">
        <ele>424.8</ele>
        <time>2023-03-05T09:49:42Z</time>
      </trkpt>
      <trkpt lat="44.08098" lon="1.79292">
        <ele>425</ele>
        <time>2023-03-05T09:49:43Z</time>
      </trkpt>
      <trkpt lat="44.08095" lon="1.79295">
        <ele>425.2</ele>
        <time>2023-03-05T09:49:44Z</time>
      </trkpt>
      <trkpt lat="44.08093" lon="1.79296">
        <ele>425.2</ele>
        <time>2023-03-05T09:49:45Z</time>
      </trkpt>
      <trkpt lat="44.08091" lon="1.79298">
        <ele>425.4</ele>
        <time>2023-03-05T09:49:46Z</time>
      </trkpt>
      <trkpt lat="44.08089" lon="1.79299">
        <ele>425.4</ele>
        <time>2023-03-05T09:49:47Z</time>
      </trkpt>
      <trkpt lat="44.08086" lon="1.79302">
        <ele>425.6</ele>
        <time>2023-03-05T09:49:48Z</time>
      </trkpt>
      <trkpt lat="44.08084" lon="1.79305">
        <ele>425.8</ele>
        <time>2023-03-05T09:49:49Z</time>
      </trkpt>
      <trkpt lat="44.08082" lon="1.79308">
        <ele>426</ele>
        <time>2023-03-05T09:49:50Z</time>
      </trkpt>
      <trkpt lat="44.08081" lon="1.79311">
        <ele>426</ele>
        <time>2023-03-05T09:49:51Z</time>
      </trkpt>
      <trkpt lat="44.0808" lon="1.79313">
        <ele>426.2</ele>
        <time>2023-03-05T09:49:52Z</time>
      </trkpt>
      <trkpt lat="44.08078" lon="1.79315">
        <ele>426.4</ele>
        <time>2023-03-05T09:49:53Z</time>
      </trkpt>
      <trkpt lat="44.08076" lon="1.79316">
        <ele>426.4</ele>
        <time>2023-03-05T09:49:54Z</time>
      </trkpt>
      <trkpt lat="44.08073" lon="1.79318">
        <ele>426.4</ele>
        <time>2023-03-05T09:49:55Z</time>
      </trkpt>
      <trkpt lat="44.08071" lon="1.79321">
        <ele>426.4</ele>
        <time>2023-03-05T09:49:56Z</time>
      </trkpt>
      <trkpt lat="44.08068" lon="1.79324">
        <ele>426.6</ele>
        <time>2023-03-05T09:49:57Z</time>
      </trkpt>
      <trkpt lat="44.08065" lon="1.79327">
        <ele>426.6</ele>
        <time>2023-03-05T09:49:58Z</time>
      </trkpt>
      <trkpt lat="44.08062" lon="1.7933">
        <ele>426.6</ele>
        <time>2023-03-05T09:49:59Z</time>
      </trkpt>
      <trkpt lat="44.0806" lon="1.79333">
        <ele>426.6</ele>
        <time>2023-03-05T09:50:00Z</time>
      </trkpt>
      <trkpt lat="44.08058" lon="1.79336">
        <ele>426.8</ele>
        <time>2023-03-05T09:50:01Z</time>
      </trkpt>
      <trkpt lat="44.08055" lon="1.79339">
        <ele>427</ele>
        <time>2023-03-05T09:50:02Z</time>
      </trkpt>
      <trkpt lat="44.08053" lon="1.79343">
        <ele>427</ele>
        <time>2023-03-05T09:50:03Z</time>
      </trkpt>
      <trkpt lat="44.08049" lon="1.79347">
        <ele>426.8</ele>
        <time>2023-03-05T09:50:04Z</time>
      </trkpt>
      <trkpt lat="44.08047" lon="1.79351">
        <ele>427</ele>
        <time>2023-03-05T09:50:05Z</time>
      </trkpt>
      <trkpt lat="44.08044" lon="1.79356">
        <ele>427.2</ele>
        <time>2023-03-05T09:50:06Z</time>
      </trkpt>
      <trkpt lat="44.08041" lon="1.79361">
        <ele>427.2</ele>
        <time>2023-03-05T09:50:07Z</time>
      </trkpt>
      <trkpt lat="44.08039" lon="1.79367">
        <ele>427.2</ele>
        <time>2023-03-05T09:50:08Z</time>
      </trkpt>
      <trkpt lat="44.08037" lon="1.79374">
        <ele>427</ele>
        <time>2023-03-05T09:50:09Z</time>
      </trkpt>
      <trkpt lat="44.08036" lon="1.7938">
        <ele>427</ele>
        <time>2023-03-05T09:50:10Z</time>
      </trkpt>
      <trkpt lat="44.08035" lon="1.79386">
        <ele>427.2</ele>
        <time>2023-03-05T09:50:11Z</time>
      </trkpt>
      <trkpt lat="44.08034" lon="1.79391">
        <ele>427.2</ele>
        <time>2023-03-05T09:50:12Z</time>
      </trkpt>
      <trkpt lat="44.08033" lon="1.79396">
        <ele>427.2</ele>
        <time>2023-03-05T09:50:13Z</time>
      </trkpt>
      <trkpt lat="44.08031" lon="1.79402">
        <ele>427.2</ele>
        <time>2023-03-05T09:50:14Z</time>
      </trkpt>
      <trkpt lat="44.08029" lon="1.79408">
        <ele>427.2</ele>
        <time>2023-03-05T09:50:15Z</time>
      </trkpt>
      <trkpt lat="44.08028" lon="1.79414">
        <ele>427.2</ele>
        <time>2023-03-05T09:50:16Z</time>
      </trkpt>
      <trkpt lat="44.08027" lon="1.7942">
        <ele>427</ele>
        <time>2023-03-05T09:50:17Z</time>
      </trkpt>
      <trkpt lat="44.08026" lon="1.79427">
        <ele>427</ele>
        <time>2023-03-05T09:50:18Z</time>
      </trkpt>
      <trkpt lat="44.08025" lon="1.79434">
        <ele>427</ele>
        <time>2023-03-05T09:50:19Z</time>
      </trkpt>
      <trkpt lat="44.08023" lon="1.7944">
        <ele>427</ele>
        <time>2023-03-05T09:50:20Z</time>
      </trkpt>
      <trkpt lat="44.08022" lon="1.79447">
        <ele>426.8</ele>
        <time>2023-03-05T09:50:21Z</time>
      </trkpt>
      <trkpt lat="44.08021" lon="1.79454">
        <ele>426.6</ele>
        <time>2023-03-05T09:50:22Z</time>
      </trkpt>
      <trkpt lat="44.0802" lon="1.79461">
        <ele>426.4</ele>
        <time>2023-03-05T09:50:23Z</time>
      </trkpt>
      <trkpt lat="44.08018" lon="1.79468">
        <ele>426.4</ele>
        <time>2023-03-05T09:50:24Z</time>
      </trkpt>
      <trkpt lat="44.08016" lon="1.79475">
        <ele>426.4</ele>
        <time>2023-03-05T09:50:25Z</time>
      </trkpt>
      <trkpt lat="44.08014" lon="1.79482">
        <ele>426.2</ele>
        <time>2023-03-05T09:50:26Z</time>
      </trkpt>
      <trkpt lat="44.08012" lon="1.7949">
        <ele>426.2</ele>
        <time>2023-03-05T09:50:27Z</time>
      </trkpt>
      <trkpt lat="44.08011" lon="1.79498">
        <ele>426.2</ele>
        <time>2023-03-05T09:50:28Z</time>
      </trkpt>
      <trkpt lat="44.0801" lon="1.79506">
        <ele>426.2</ele>
        <time>2023-03-05T09:50:29Z</time>
      </trkpt>
      <trkpt lat="44.08009" lon="1.79514">
        <ele>426.2</ele>
        <time>2023-03-05T09:50:30Z</time>
      </trkpt>
      <trkpt lat="44.08007" lon="1.79522">
        <ele>426.2</ele>
        <time>2023-03-05T09:50:31Z</time>
      </trkpt>
      <trkpt lat="44.08006" lon="1.79529">
        <ele>426</ele>
        <time>2023-03-05T09:50:32Z</time>
      </trkpt>
      <trkpt lat="44.08004" lon="1.79537">
        <ele>426</ele>
        <time>2023-03-05T09:50:33Z</time>
      </trkpt>
      <trkpt lat="44.08001" lon="1.79544">
        <ele>425.8</ele>
        <time>2023-03-05T09:50:34Z</time>
      </trkpt>
      <trkpt lat="44.07998" lon="1.79551">
        <ele>425.4</ele>
        <time>2023-03-05T09:50:35Z</time>
      </trkpt>
      <trkpt lat="44.07995" lon="1.79558">
        <ele>425.2</ele>
        <time>2023-03-05T09:50:36Z</time>
      </trkpt>
      <trkpt lat="44.07993" lon="1.79565">
        <ele>424.8</ele>
        <time>2023-03-05T09:50:37Z</time>
      </trkpt>
      <trkpt lat="44.0799" lon="1.79572">
        <ele>424.6</ele>
        <time>2023-03-05T09:50:38Z</time>
      </trkpt>
      <trkpt lat="44.07989" lon="1.79577">
        <ele>424.4</ele>
        <time>2023-03-05T09:50:39Z</time>
      </trkpt>
      <trkpt lat="44.07989" lon="1.79582">
        <ele>424.2</ele>
        <time>2023-03-05T09:50:40Z</time>
      </trkpt>
      <trkpt lat="44.0799" lon="1.79586">
        <ele>423.6</ele>
        <time>2023-03-05T09:50:41Z</time>
      </trkpt>
      <trkpt lat="44.07991" lon="1.7959">
        <ele>423.4</ele>
        <time>2023-03-05T09:50:42Z</time>
      </trkpt>
      <trkpt lat="44.07991" lon="1.79594">
        <ele>423</ele>
        <time>2023-03-05T09:50:43Z</time>
      </trkpt>
      <trkpt lat="44.07989" lon="1.79598">
        <ele>422.8</ele>
        <time>2023-03-05T09:50:44Z</time>
      </trkpt>
      <trkpt lat="44.07986" lon="1.79602">
        <ele>422.2</ele>
        <time>2023-03-05T09:50:45Z</time>
      </trkpt>
      <trkpt lat="44.07984" lon="1.79606">
        <ele>422.2</ele>
        <time>2023-03-05T09:50:46Z</time>
      </trkpt>
      <trkpt lat="44.07981" lon="1.7961">
        <ele>422</ele>
        <time>2023-03-05T09:50:47Z</time>
      </trkpt>
      <trkpt lat="44.07979" lon="1.79615">
        <ele>422</ele>
        <time>2023-03-05T09:50:48Z</time>
      </trkpt>
      <trkpt lat="44.07976" lon="1.7962">
        <ele>422</ele>
        <time>2023-03-05T09:50:49Z</time>
      </trkpt>
      <trkpt lat="44.07974" lon="1.79625">
        <ele>422</ele>
        <time>2023-03-05T09:50:50Z</time>
      </trkpt>
      <trkpt lat="44.07972" lon="1.7963">
        <ele>422</ele>
        <time>2023-03-05T09:50:51Z</time>
      </trkpt>
      <trkpt lat="44.0797" lon="1.79635">
        <ele>422</ele>
        <time>2023-03-05T09:50:52Z</time>
      </trkpt>
      <trkpt lat="44.07968" lon="1.7964">
        <ele>422</ele>
        <time>2023-03-05T09:50:53Z</time>
      </trkpt>
      <trkpt lat="44.07966" lon="1.79645">
        <ele>422.2</ele>
        <time>2023-03-05T09:50:54Z</time>
      </trkpt>
      <trkpt lat="44.07964" lon="1.79649">
        <ele>422.2</ele>
        <time>2023-03-05T09:50:55Z</time>
      </trkpt>
      <trkpt lat="44.07961" lon="1.79654">
        <ele>422.2</ele>
        <time>2023-03-05T09:50:56Z</time>
      </trkpt>
      <trkpt lat="44.0796" lon="1.79658">
        <ele>422.2</ele>
        <time>2023-03-05T09:50:57Z</time>
      </trkpt>
      <trkpt lat="44.07957" lon="1.79662">
        <ele>422.4</ele>
        <time>2023-03-05T09:50:58Z</time>
      </trkpt>
      <trkpt lat="44.07955" lon="1.79667">
        <ele>422.8</ele>
        <time>2023-03-05T09:50:59Z</time>
      </trkpt>
      <trkpt lat="44.07953" lon="1.79672">
        <ele>422.8</ele>
        <time>2023-03-05T09:51:00Z</time>
      </trkpt>
      <trkpt lat="44.07951" lon="1.79676">
        <ele>423.2</ele>
        <time>2023-03-05T09:51:01Z</time>
      </trkpt>
      <trkpt lat="44.07949" lon="1.79681">
        <ele>423.2</ele>
        <time>2023-03-05T09:51:02Z</time>
      </trkpt>
      <trkpt lat="44.07947" lon="1.79685">
        <ele>423.6</ele>
        <time>2023-03-05T09:51:03Z</time>
      </trkpt>
      <trkpt lat="44.07945" lon="1.7969">
        <ele>423.8</ele>
        <time>2023-03-05T09:51:04Z</time>
      </trkpt>
      <trkpt lat="44.07943" lon="1.79695">
        <ele>424</ele>
        <time>2023-03-05T09:51:05Z</time>
      </trkpt>
      <trkpt lat="44.07942" lon="1.797">
        <ele>424.2</ele>
        <time>2023-03-05T09:51:06Z</time>
      </trkpt>
      <trkpt lat="44.0794" lon="1.79704">
        <ele>424.2</ele>
        <time>2023-03-05T09:51:07Z</time>
      </trkpt>
      <trkpt lat="44.07938" lon="1.79709">
        <ele>424.4</ele>
        <time>2023-03-05T09:51:08Z</time>
      </trkpt>
      <trkpt lat="44.07936" lon="1.79713">
        <ele>424.8</ele>
        <time>2023-03-05T09:51:09Z</time>
      </trkpt>
      <trkpt lat="44.07934" lon="1.79718">
        <ele>425</ele>
        <time>2023-03-05T09:51:10Z</time>
      </trkpt>
      <trkpt lat="44.07932" lon="1.79723">
        <ele>425.2</ele>
        <time>2023-03-05T09:51:11Z</time>
      </trkpt>
      <trkpt lat="44.0793" lon="1.79727">
        <ele>425.4</ele>
        <time>2023-03-05T09:51:12Z</time>
      </trkpt>
      <trkpt lat="44.07929" lon="1.79731">
        <ele>425.6</ele>
        <time>2023-03-05T09:51:13Z</time>
      </trkpt>
      <trkpt lat="44.07927" lon="1.79735">
        <ele>425.8</ele>
        <time>2023-03-05T09:51:14Z</time>
      </trkpt>
      <trkpt lat="44.07925" lon="1.79739">
        <ele>426</ele>
        <time>2023-03-05T09:51:15Z</time>
      </trkpt>
      <trkpt lat="44.07923" lon="1.79743">
        <ele>426.2</ele>
        <time>2023-03-05T09:51:16Z</time>
      </trkpt>
      <trkpt lat="44.0792" lon="1.79747">
        <ele>426.4</ele>
        <time>2023-03-05T09:51:17Z</time>
      </trkpt>
      <trkpt lat="44.07918" lon="1.79751">
        <ele>426.6</ele>
        <time>2023-03-05T09:51:18Z</time>
      </trkpt>
      <trkpt lat="44.07916" lon="1.79755">
        <ele>426.8</ele>
        <time>2023-03-05T09:51:19Z</time>
      </trkpt>
      <trkpt lat="44.07914" lon="1.7976">
        <ele>427</ele>
        <time>2023-03-05T09:51:20Z</time>
      </trkpt>
      <trkpt lat="44.07912" lon="1.79764">
        <ele>427.4</ele>
        <time>2023-03-05T09:51:21Z</time>
      </trkpt>
      <trkpt lat="44.0791" lon="1.79768">
        <ele>427.4</ele>
        <time>2023-03-05T09:51:22Z</time>
      </trkpt>
      <trkpt lat="44.07908" lon="1.79772">
        <ele>427.8</ele>
        <time>2023-03-05T09:51:23Z</time>
      </trkpt>
      <trkpt lat="44.07906" lon="1.79776">
        <ele>428</ele>
        <time>2023-03-05T09:51:24Z</time>
      </trkpt>
      <trkpt lat="44.07905" lon="1.79779">
        <ele>428.4</ele>
        <time>2023-03-05T09:51:25Z</time>
      </trkpt>
      <trkpt lat="44.07903" lon="1.79783">
        <ele>428.4</ele>
        <time>2023-03-05T09:51:26Z</time>
      </trkpt>
      <trkpt lat="44.07901" lon="1.79786">
        <ele>428.8</ele>
        <time>2023-03-05T09:51:27Z</time>
      </trkpt>
      <trkpt lat="44.07898" lon="1.7979">
        <ele>429</ele>
        <time>2023-03-05T09:51:28Z</time>
      </trkpt>
      <trkpt lat="44.07896" lon="1.79794">
        <ele>429.4</ele>
        <time>2023-03-05T09:51:29Z</time>
      </trkpt>
      <trkpt lat="44.07893" lon="1.79797">
        <ele>429.6</ele>
        <time>2023-03-05T09:51:30Z</time>
      </trkpt>
      <trkpt lat="44.07891" lon="1.798">
        <ele>429.8</ele>
        <time>2023-03-05T09:51:31Z</time>
      </trkpt>
      <trkpt lat="44.07888" lon="1.79803">
        <ele>430.2</ele>
        <time>2023-03-05T09:51:32Z</time>
      </trkpt>
      <trkpt lat="44.07885" lon="1.79805">
        <ele>430.4</ele>
        <time>2023-03-05T09:51:33Z</time>
      </trkpt>
      <trkpt lat="44.07883" lon="1.79809">
        <ele>431</ele>
        <time>2023-03-05T09:51:34Z</time>
      </trkpt>
      <trkpt lat="44.07881" lon="1.79812">
        <ele>431.2</ele>
        <time>2023-03-05T09:51:35Z</time>
      </trkpt>
      <trkpt lat="44.07879" lon="1.79815">
        <ele>431.4</ele>
        <time>2023-03-05T09:51:36Z</time>
      </trkpt>
      <trkpt lat="44.07876" lon="1.79818">
        <ele>431.6</ele>
        <time>2023-03-05T09:51:37Z</time>
      </trkpt>
      <trkpt lat="44.07874" lon="1.7982">
        <ele>432</ele>
        <time>2023-03-05T09:51:38Z</time>
      </trkpt>
      <trkpt lat="44.07872" lon="1.79823">
        <ele>432.2</ele>
        <time>2023-03-05T09:51:39Z</time>
      </trkpt>
      <trkpt lat="44.0787" lon="1.79825">
        <ele>432.2</ele>
        <time>2023-03-05T09:51:40Z</time>
      </trkpt>
      <trkpt lat="44.07868" lon="1.79827">
        <ele>432.4</ele>
        <time>2023-03-05T09:51:41Z</time>
      </trkpt>
      <trkpt lat="44.07866" lon="1.7983">
        <ele>432.6</ele>
        <time>2023-03-05T09:51:42Z</time>
      </trkpt>
      <trkpt lat="44.07864" lon="1.79832">
        <ele>433</ele>
        <time>2023-03-05T09:51:43Z</time>
      </trkpt>
      <trkpt lat="44.07862" lon="1.79834">
        <ele>433.2</ele>
        <time>2023-03-05T09:51:44Z</time>
      </trkpt>
      <trkpt lat="44.0786" lon="1.79836">
        <ele>433.6</ele>
        <time>2023-03-05T09:51:45Z</time>
      </trkpt>
      <trkpt lat="44.07859" lon="1.79839">
        <ele>433.6</ele>
        <time>2023-03-05T09:51:46Z</time>
      </trkpt>
      <trkpt lat="44.07857" lon="1.79842">
        <ele>434</ele>
        <time>2023-03-05T09:51:47Z</time>
      </trkpt>
      <trkpt lat="44.07855" lon="1.79844">
        <ele>434.2</ele>
        <time>2023-03-05T09:51:48Z</time>
      </trkpt>
      <trkpt lat="44.07853" lon="1.79847">
        <ele>434.6</ele>
        <time>2023-03-05T09:51:49Z</time>
      </trkpt>
      <trkpt lat="44.07851" lon="1.79849">
        <ele>434.8</ele>
        <time>2023-03-05T09:51:50Z</time>
      </trkpt>
      <trkpt lat="44.0785" lon="1.79851">
        <ele>435.2</ele>
        <time>2023-03-05T09:51:51Z</time>
      </trkpt>
      <trkpt lat="44.07848" lon="1.79853">
        <ele>435.4</ele>
        <time>2023-03-05T09:51:52Z</time>
      </trkpt>
      <trkpt lat="44.07846" lon="1.79856">
        <ele>435.6</ele>
        <time>2023-03-05T09:51:53Z</time>
      </trkpt>
      <trkpt lat="44.07845" lon="1.79858">
        <ele>436</ele>
        <time>2023-03-05T09:51:54Z</time>
      </trkpt>
      <trkpt lat="44.07843" lon="1.79861">
        <ele>436.2</ele>
        <time>2023-03-05T09:51:55Z</time>
      </trkpt>
      <trkpt lat="44.07841" lon="1.79864">
        <ele>436.6</ele>
        <time>2023-03-05T09:51:56Z</time>
      </trkpt>
      <trkpt lat="44.07839" lon="1.79866">
        <ele>436.8</ele>
        <time>2023-03-05T09:51:57Z</time>
      </trkpt>
      <trkpt lat="44.07837" lon="1.7987">
        <ele>436.8</ele>
        <time>2023-03-05T09:51:58Z</time>
      </trkpt>
      <trkpt lat="44.07835" lon="1.79873">
        <ele>437</ele>
        <time>2023-03-05T09:51:59Z</time>
      </trkpt>
      <trkpt lat="44.07834" lon="1.79876">
        <ele>437</ele>
        <time>2023-03-05T09:52:00Z</time>
      </trkpt>
      <trkpt lat="44.07832" lon="1.79879">
        <ele>437.2</ele>
        <time>2023-03-05T09:52:01Z</time>
      </trkpt>
      <trkpt lat="44.07831" lon="1.79882">
        <ele>437.6</ele>
        <time>2023-03-05T09:52:02Z</time>
      </trkpt>
      <trkpt lat="44.07829" lon="1.79885">
        <ele>437.8</ele>
        <time>2023-03-05T09:52:03Z</time>
      </trkpt>
      <trkpt lat="44.07828" lon="1.79889">
        <ele>438.2</ele>
        <time>2023-03-05T09:52:04Z</time>
      </trkpt>
      <trkpt lat="44.07827" lon="1.79892">
        <ele>438.4</ele>
        <time>2023-03-05T09:52:05Z</time>
      </trkpt>
      <trkpt lat="44.07826" lon="1.79895">
        <ele>438.8</ele>
        <time>2023-03-05T09:52:06Z</time>
      </trkpt>
      <trkpt lat="44.07825" lon="1.79898">
        <ele>439.2</ele>
        <time>2023-03-05T09:52:07Z</time>
      </trkpt>
      <trkpt lat="44.07824" lon="1.79901">
        <ele>439.4</ele>
        <time>2023-03-05T09:52:08Z</time>
      </trkpt>
      <trkpt lat="44.07823" lon="1.79904">
        <ele>440</ele>
        <time>2023-03-05T09:52:09Z</time>
      </trkpt>
      <trkpt lat="44.07821" lon="1.79908">
        <ele>440.2</ele>
        <time>2023-03-05T09:52:10Z</time>
      </trkpt>
      <trkpt lat="44.0782" lon="1.79912">
        <ele>440.6</ele>
        <time>2023-03-05T09:52:11Z</time>
      </trkpt>
      <trkpt lat="44.07819" lon="1.79916">
        <ele>441</ele>
        <time>2023-03-05T09:52:12Z</time>
      </trkpt>
      <trkpt lat="44.07817" lon="1.7992">
        <ele>441.4</ele>
        <time>2023-03-05T09:52:13Z</time>
      </trkpt>
      <trkpt lat="44.07816" lon="1.79924">
        <ele>441.4</ele>
        <time>2023-03-05T09:52:14Z</time>
      </trkpt>
      <trkpt lat="44.07815" lon="1.79928">
        <ele>441.8</ele>
        <time>2023-03-05T09:52:15Z</time>
      </trkpt>
      <trkpt lat="44.07813" lon="1.79932">
        <ele>442.2</ele>
        <time>2023-03-05T09:52:16Z</time>
      </trkpt>
      <trkpt lat="44.07812" lon="1.79937">
        <ele>442.2</ele>
        <time>2023-03-05T09:52:17Z</time>
      </trkpt>
      <trkpt lat="44.07811" lon="1.79941">
        <ele>442.8</ele>
        <time>2023-03-05T09:52:18Z</time>
      </trkpt>
      <trkpt lat="44.0781" lon="1.79945">
        <ele>443</ele>
        <time>2023-03-05T09:52:19Z</time>
      </trkpt>
      <trkpt lat="44.07808" lon="1.7995">
        <ele>443.4</ele>
        <time>2023-03-05T09:52:20Z</time>
      </trkpt>
      <trkpt lat="44.07806" lon="1.79954">
        <ele>443.6</ele>
        <time>2023-03-05T09:52:21Z</time>
      </trkpt>
      <trkpt lat="44.07805" lon="1.79959">
        <ele>444</ele>
        <time>2023-03-05T09:52:22Z</time>
      </trkpt>
      <trkpt lat="44.07803" lon="1.79963">
        <ele>444</ele>
        <time>2023-03-05T09:52:23Z</time>
      </trkpt>
      <trkpt lat="44.07801" lon="1.79968">
        <ele>444.4</ele>
        <time>2023-03-05T09:52:24Z</time>
      </trkpt>
      <trkpt lat="44.078" lon="1.79972">
        <ele>444.4</ele>
        <time>2023-03-05T09:52:25Z</time>
      </trkpt>
      <trkpt lat="44.07798" lon="1.79977">
        <ele>444.8</ele>
        <time>2023-03-05T09:52:26Z</time>
      </trkpt>
      <trkpt lat="44.07796" lon="1.79982">
        <ele>445</ele>
        <time>2023-03-05T09:52:27Z</time>
      </trkpt>
      <trkpt lat="44.07794" lon="1.79987">
        <ele>445</ele>
        <time>2023-03-05T09:52:28Z</time>
      </trkpt>
      <trkpt lat="44.07793" lon="1.79992">
        <ele>445.2</ele>
        <time>2023-03-05T09:52:29Z</time>
      </trkpt>
      <trkpt lat="44.07791" lon="1.79998">
        <ele>445.4</ele>
        <time>2023-03-05T09:52:30Z</time>
      </trkpt>
      <trkpt lat="44.0779" lon="1.80004">
        <ele>445.4</ele>
        <time>2023-03-05T09:52:31Z</time>
      </trkpt>
      <trkpt lat="44.07789" lon="1.80011">
        <ele>445.4</ele>
        <time>2023-03-05T09:52:32Z</time>
      </trkpt>
      <trkpt lat="44.07788" lon="1.80018">
        <ele>445.4</ele>
        <time>2023-03-05T09:52:33Z</time>
      </trkpt>
      <trkpt lat="44.07787" lon="1.80026">
        <ele>445.4</ele>
        <time>2023-03-05T09:52:34Z</time>
      </trkpt>
      <trkpt lat="44.07786" lon="1.80034">
        <ele>445.4</ele>
        <time>2023-03-05T09:52:35Z</time>
      </trkpt>
      <trkpt lat="44.07785" lon="1.80043">
        <ele>445.4</ele>
        <time>2023-03-05T09:52:36Z</time>
      </trkpt>
      <trkpt lat="44.07783" lon="1.80052">
        <ele>445.4</ele>
        <time>2023-03-05T09:52:37Z</time>
      </trkpt>
      <trkpt lat="44.07782" lon="1.80062">
        <ele>445.2</ele>
        <time>2023-03-05T09:52:38Z</time>
      </trkpt>
      <trkpt lat="44.07782" lon="1.80072">
        <ele>445.2</ele>
        <time>2023-03-05T09:52:39Z</time>
      </trkpt>
      <trkpt lat="44.07781" lon="1.80082">
        <ele>444.8</ele>
        <time>2023-03-05T09:52:40Z</time>
      </trkpt>
      <trkpt lat="44.0778" lon="1.80093">
        <ele>444.6</ele>
        <time>2023-03-05T09:52:41Z</time>
      </trkpt>
      <trkpt lat="44.07779" lon="1.80105">
        <ele>444.4</ele>
        <time>2023-03-05T09:52:42Z</time>
      </trkpt>
      <trkpt lat="44.07778" lon="1.80116">
        <ele>444.2</ele>
        <time>2023-03-05T09:52:43Z</time>
      </trkpt>
      <trkpt lat="44.07778" lon="1.80127">
        <ele>444</ele>
        <time>2023-03-05T09:52:44Z</time>
      </trkpt>
      <trkpt lat="44.07777" lon="1.8014">
        <ele>443.4</ele>
        <time>2023-03-05T09:52:45Z</time>
      </trkpt>
      <trkpt lat="44.07776" lon="1.80151">
        <ele>443</ele>
        <time>2023-03-05T09:52:46Z</time>
      </trkpt>
      <trkpt lat="44.07775" lon="1.80162">
        <ele>442.6</ele>
        <time>2023-03-05T09:52:47Z</time>
      </trkpt>
      <trkpt lat="44.07774" lon="1.8017">
        <ele>442.2</ele>
        <time>2023-03-05T09:52:48Z</time>
      </trkpt>
      <trkpt lat="44.07773" lon="1.80177">
        <ele>441.6</ele>
        <time>2023-03-05T09:52:49Z</time>
      </trkpt>
      <trkpt lat="44.07771" lon="1.80183">
        <ele>441.4</ele>
        <time>2023-03-05T09:52:50Z</time>
      </trkpt>
      <trkpt lat="44.07767" lon="1.80188">
        <ele>440.4</ele>
        <time>2023-03-05T09:52:51Z</time>
      </trkpt>
      <trkpt lat="44.07763" lon="1.80191">
        <ele>440.2</ele>
        <time>2023-03-05T09:52:52Z</time>
      </trkpt>
      <trkpt lat="44.07758" lon="1.80194">
        <ele>438.6</ele>
        <time>2023-03-05T09:52:53Z</time>
      </trkpt>
      <trkpt lat="44.07753" lon="1.80197">
        <ele>438</ele>
        <time>2023-03-05T09:52:54Z</time>
      </trkpt>
      <trkpt lat="44.07748" lon="1.802">
        <ele>437.2</ele>
        <time>2023-03-05T09:52:55Z</time>
      </trkpt>
      <trkpt lat="44.07744" lon="1.80203">
        <ele>436.8</ele>
        <time>2023-03-05T09:52:56Z</time>
      </trkpt>
      <trkpt lat="44.07739" lon="1.80206">
        <ele>436.4</ele>
        <time>2023-03-05T09:52:57Z</time>
      </trkpt>
      <trkpt lat="44.07734" lon="1.8021">
        <ele>436.2</ele>
        <time>2023-03-05T09:52:58Z</time>
      </trkpt>
      <trkpt lat="44.07729" lon="1.80212">
        <ele>436</ele>
        <time>2023-03-05T09:52:59Z</time>
      </trkpt>
      <trkpt lat="44.07725" lon="1.80215">
        <ele>436.2</ele>
        <time>2023-03-05T09:53:00Z</time>
      </trkpt>
      <trkpt lat="44.0772" lon="1.80218">
        <ele>436</ele>
        <time>2023-03-05T09:53:01Z</time>
      </trkpt>
      <trkpt lat="44.07715" lon="1.80221">
        <ele>436</ele>
        <time>2023-03-05T09:53:02Z</time>
      </trkpt>
      <trkpt lat="44.07711" lon="1.80224">
        <ele>436</ele>
        <time>2023-03-05T09:53:03Z</time>
      </trkpt>
      <trkpt lat="44.07706" lon="1.80228">
        <ele>436</ele>
        <time>2023-03-05T09:53:04Z</time>
      </trkpt>
      <trkpt lat="44.07703" lon="1.80233">
        <ele>436</ele>
        <time>2023-03-05T09:53:05Z</time>
      </trkpt>
      <trkpt lat="44.07701" lon="1.8024">
        <ele>436</ele>
        <time>2023-03-05T09:53:06Z</time>
      </trkpt>
      <trkpt lat="44.07699" lon="1.80247">
        <ele>436</ele>
        <time>2023-03-05T09:53:07Z</time>
      </trkpt>
      <trkpt lat="44.07698" lon="1.80254">
        <ele>436</ele>
        <time>2023-03-05T09:53:08Z</time>
      </trkpt>
      <trkpt lat="44.07698" lon="1.80262">
        <ele>436</ele>
        <time>2023-03-05T09:53:09Z</time>
      </trkpt>
      <trkpt lat="44.07698" lon="1.8027">
        <ele>436</ele>
        <time>2023-03-05T09:53:10Z</time>
      </trkpt>
      <trkpt lat="44.07697" lon="1.80277">
        <ele>436</ele>
        <time>2023-03-05T09:53:11Z</time>
      </trkpt>
      <trkpt lat="44.07697" lon="1.80285">
        <ele>436</ele>
        <time>2023-03-05T09:53:12Z</time>
      </trkpt>
      <trkpt lat="44.07696" lon="1.80292">
        <ele>435.8</ele>
        <time>2023-03-05T09:53:13Z</time>
      </trkpt>
      <trkpt lat="44.07696" lon="1.803">
        <ele>435.8</ele>
        <time>2023-03-05T09:53:14Z</time>
      </trkpt>
      <trkpt lat="44.07695" lon="1.80307">
        <ele>436</ele>
        <time>2023-03-05T09:53:15Z</time>
      </trkpt>
      <trkpt lat="44.07695" lon="1.80314">
        <ele>436</ele>
        <time>2023-03-05T09:53:16Z</time>
      </trkpt>
      <trkpt lat="44.07695" lon="1.80322">
        <ele>436</ele>
        <time>2023-03-05T09:53:17Z</time>
      </trkpt>
      <trkpt lat="44.07694" lon="1.80329">
        <ele>436</ele>
        <time>2023-03-05T09:53:18Z</time>
      </trkpt>
      <trkpt lat="44.07694" lon="1.80336">
        <ele>436.4</ele>
        <time>2023-03-05T09:53:19Z</time>
      </trkpt>
      <trkpt lat="44.07694" lon="1.80343">
        <ele>436.6</ele>
        <time>2023-03-05T09:53:20Z</time>
      </trkpt>
      <trkpt lat="44.07693" lon="1.8035">
        <ele>437</ele>
        <time>2023-03-05T09:53:21Z</time>
      </trkpt>
      <trkpt lat="44.07693" lon="1.80356">
        <ele>437.4</ele>
        <time>2023-03-05T09:53:22Z</time>
      </trkpt>
      <trkpt lat="44.07694" lon="1.80362">
        <ele>437.4</ele>
        <time>2023-03-05T09:53:23Z</time>
      </trkpt>
      <trkpt lat="44.07694" lon="1.80368">
        <ele>437.8</ele>
        <time>2023-03-05T09:53:24Z</time>
      </trkpt>
      <trkpt lat="44.07694" lon="1.80374">
        <ele>438</ele>
        <time>2023-03-05T09:53:25Z</time>
      </trkpt>
      <trkpt lat="44.07693" lon="1.80379">
        <ele>438.4</ele>
        <time>2023-03-05T09:53:26Z</time>
      </trkpt>
      <trkpt lat="44.07693" lon="1.80384">
        <ele>438.4</ele>
        <time>2023-03-05T09:53:27Z</time>
      </trkpt>
      <trkpt lat="44.07692" lon="1.80388">
        <ele>438.6</ele>
        <time>2023-03-05T09:53:28Z</time>
      </trkpt>
      <trkpt lat="44.07689" lon="1.80391">
        <ele>439</ele>
        <time>2023-03-05T09:53:29Z</time>
      </trkpt>
      <trkpt lat="44.07687" lon="1.80392">
        <ele>439.4</ele>
        <time>2023-03-05T09:53:30Z</time>
      </trkpt>
      <trkpt lat="44.07684" lon="1.80393">
        <ele>439.6</ele>
        <time>2023-03-05T09:53:31Z</time>
      </trkpt>
      <trkpt lat="44.0768" lon="1.80395">
        <ele>440.2</ele>
        <time>2023-03-05T09:53:32Z</time>
      </trkpt>
      <trkpt lat="44.07676" lon="1.80397">
        <ele>440.4</ele>
        <time>2023-03-05T09:53:33Z</time>
      </trkpt>
      <trkpt lat="44.07672" lon="1.80399">
        <ele>440.8</ele>
        <time>2023-03-05T09:53:34Z</time>
      </trkpt>
      <trkpt lat="44.07668" lon="1.80401">
        <ele>441</ele>
        <time>2023-03-05T09:53:35Z</time>
      </trkpt>
      <trkpt lat="44.07665" lon="1.80403">
        <ele>441</ele>
        <time>2023-03-05T09:53:36Z</time>
      </trkpt>
      <trkpt lat="44.07661" lon="1.80406">
        <ele>441.2</ele>
        <time>2023-03-05T09:53:37Z</time>
      </trkpt>
      <trkpt lat="44.07657" lon="1.80409">
        <ele>441.2</ele>
        <time>2023-03-05T09:53:38Z</time>
      </trkpt>
      <trkpt lat="44.07652" lon="1.80413">
        <ele>441.2</ele>
        <time>2023-03-05T09:53:39Z</time>
      </trkpt>
      <trkpt lat="44.07647" lon="1.80418">
        <ele>441.4</ele>
        <time>2023-03-05T09:53:40Z</time>
      </trkpt>
      <trkpt lat="44.07641" lon="1.80422">
        <ele>441.2</ele>
        <time>2023-03-05T09:53:41Z</time>
      </trkpt>
      <trkpt lat="44.07635" lon="1.80426">
        <ele>441.2</ele>
        <time>2023-03-05T09:53:42Z</time>
      </trkpt>
      <trkpt lat="44.0763" lon="1.80429">
        <ele>441</ele>
        <time>2023-03-05T09:53:43Z</time>
      </trkpt>
      <trkpt lat="44.07625" lon="1.80432">
        <ele>440.8</ele>
        <time>2023-03-05T09:53:44Z</time>
      </trkpt>
      <trkpt lat="44.07619" lon="1.80433">
        <ele>440.8</ele>
        <time>2023-03-05T09:53:45Z</time>
      </trkpt>
      <trkpt lat="44.07615" lon="1.80435">
        <ele>440.6</ele>
        <time>2023-03-05T09:53:46Z</time>
      </trkpt>
      <trkpt lat="44.07611" lon="1.80437">
        <ele>440.6</ele>
        <time>2023-03-05T09:53:47Z</time>
      </trkpt>
      <trkpt lat="44.07606" lon="1.8044">
        <ele>440.4</ele>
        <time>2023-03-05T09:53:48Z</time>
      </trkpt>
      <trkpt lat="44.07602" lon="1.80442">
        <ele>440.4</ele>
        <time>2023-03-05T09:53:49Z</time>
      </trkpt>
      <trkpt lat="44.07598" lon="1.80443">
        <ele>440.4</ele>
        <time>2023-03-05T09:53:50Z</time>
      </trkpt>
      <trkpt lat="44.07593" lon="1.80444">
        <ele>440.4</ele>
        <time>2023-03-05T09:53:51Z</time>
      </trkpt>
      <trkpt lat="44.07589" lon="1.80446">
        <ele>440.4</ele>
        <time>2023-03-05T09:53:52Z</time>
      </trkpt>
      <trkpt lat="44.07584" lon="1.80447">
        <ele>440.4</ele>
        <time>2023-03-05T09:53:53Z</time>
      </trkpt>
      <trkpt lat="44.0758" lon="1.80449">
        <ele>440.4</ele>
        <time>2023-03-05T09:53:54Z</time>
      </trkpt>
      <trkpt lat="44.07576" lon="1.8045">
        <ele>440.6</ele>
        <time>2023-03-05T09:53:55Z</time>
      </trkpt>
      <trkpt lat="44.07571" lon="1.8045">
        <ele>440.8</ele>
        <time>2023-03-05T09:53:56Z</time>
      </trkpt>
      <trkpt lat="44.07567" lon="1.80451">
        <ele>440.8</ele>
        <time>2023-03-05T09:53:57Z</time>
      </trkpt>
      <trkpt lat="44.07562" lon="1.80451">
        <ele>441</ele>
        <time>2023-03-05T09:53:58Z</time>
      </trkpt>
      <trkpt lat="44.07558" lon="1.80451">
        <ele>441</ele>
        <time>2023-03-05T09:53:59Z</time>
      </trkpt>
      <trkpt lat="44.07554" lon="1.80451">
        <ele>441.2</ele>
        <time>2023-03-05T09:54:00Z</time>
      </trkpt>
      <trkpt lat="44.0755" lon="1.8045">
        <ele>441.4</ele>
        <time>2023-03-05T09:54:01Z</time>
      </trkpt>
      <trkpt lat="44.07545" lon="1.80449">
        <ele>441.6</ele>
        <time>2023-03-05T09:54:02Z</time>
      </trkpt>
      <trkpt lat="44.0754" lon="1.80448">
        <ele>441.6</ele>
        <time>2023-03-05T09:54:03Z</time>
      </trkpt>
      <trkpt lat="44.07536" lon="1.80446">
        <ele>441.8</ele>
        <time>2023-03-05T09:54:04Z</time>
      </trkpt>
      <trkpt lat="44.07532" lon="1.80445">
        <ele>441.8</ele>
        <time>2023-03-05T09:54:05Z</time>
      </trkpt>
      <trkpt lat="44.07528" lon="1.80446">
        <ele>442</ele>
        <time>2023-03-05T09:54:06Z</time>
      </trkpt>
      <trkpt lat="44.07524" lon="1.80446">
        <ele>442.2</ele>
        <time>2023-03-05T09:54:07Z</time>
      </trkpt>
      <trkpt lat="44.07518" lon="1.80446">
        <ele>442.4</ele>
        <time>2023-03-05T09:54:08Z</time>
      </trkpt>
      <trkpt lat="44.07512" lon="1.80447">
        <ele>442.4</ele>
        <time>2023-03-05T09:54:09Z</time>
      </trkpt>
      <trkpt lat="44.07508" lon="1.80446">
        <ele>442.6</ele>
        <time>2023-03-05T09:54:10Z</time>
      </trkpt>
      <trkpt lat="44.07504" lon="1.80445">
        <ele>442.8</ele>
        <time>2023-03-05T09:54:11Z</time>
      </trkpt>
      <trkpt lat="44.075" lon="1.80445">
        <ele>443.6</ele>
        <time>2023-03-05T09:54:12Z</time>
      </trkpt>
      <trkpt lat="44.07496" lon="1.80445">
        <ele>443.8</ele>
        <time>2023-03-05T09:54:13Z</time>
      </trkpt>
      <trkpt lat="44.07492" lon="1.80446">
        <ele>444</ele>
        <time>2023-03-05T09:54:14Z</time>
      </trkpt>
      <trkpt lat="44.07488" lon="1.80446">
        <ele>444.2</ele>
        <time>2023-03-05T09:54:15Z</time>
      </trkpt>
      <trkpt lat="44.07485" lon="1.80447">
        <ele>444.8</ele>
        <time>2023-03-05T09:54:16Z</time>
      </trkpt>
      <trkpt lat="44.07482" lon="1.80448">
        <ele>445</ele>
        <time>2023-03-05T09:54:17Z</time>
      </trkpt>
      <trkpt lat="44.0748" lon="1.8045">
        <ele>445.4</ele>
        <time>2023-03-05T09:54:18Z</time>
      </trkpt>
      <trkpt lat="44.07477" lon="1.80451">
        <ele>445.8</ele>
        <time>2023-03-05T09:54:19Z</time>
      </trkpt>
      <trkpt lat="44.07475" lon="1.80454">
        <ele>446</ele>
        <time>2023-03-05T09:54:20Z</time>
      </trkpt>
      <trkpt lat="44.07474" lon="1.80457">
        <ele>446.4</ele>
        <time>2023-03-05T09:54:21Z</time>
      </trkpt>
      <trkpt lat="44.07475" lon="1.8046">
        <ele>446.4</ele>
        <time>2023-03-05T09:54:22Z</time>
      </trkpt>
      <trkpt lat="44.07478" lon="1.80463">
        <ele>447</ele>
        <time>2023-03-05T09:54:23Z</time>
      </trkpt>
      <trkpt lat="44.0748" lon="1.80464">
        <ele>447.2</ele>
        <time>2023-03-05T09:54:24Z</time>
      </trkpt>
      <trkpt lat="44.07484" lon="1.80465">
        <ele>447.6</ele>
        <time>2023-03-05T09:54:25Z</time>
      </trkpt>
      <trkpt lat="44.07487" lon="1.80466">
        <ele>447.6</ele>
        <time>2023-03-05T09:54:26Z</time>
      </trkpt>
      <trkpt lat="44.0749" lon="1.80467">
        <ele>447.8</ele>
        <time>2023-03-05T09:54:27Z</time>
      </trkpt>
      <trkpt lat="44.07494" lon="1.80468">
        <ele>447.8</ele>
        <time>2023-03-05T09:54:28Z</time>
      </trkpt>
      <trkpt lat="44.07497" lon="1.8047">
        <ele>447.8</ele>
        <time>2023-03-05T09:54:29Z</time>
      </trkpt>
      <trkpt lat="44.07501" lon="1.80472">
        <ele>447.8</ele>
        <time>2023-03-05T09:54:30Z</time>
      </trkpt>
      <trkpt lat="44.07504" lon="1.80475">
        <ele>448</ele>
        <time>2023-03-05T09:54:31Z</time>
      </trkpt>
      <trkpt lat="44.07507" lon="1.80478">
        <ele>448</ele>
        <time>2023-03-05T09:54:32Z</time>
      </trkpt>
      <trkpt lat="44.0751" lon="1.80481">
        <ele>448</ele>
        <time>2023-03-05T09:54:33Z</time>
      </trkpt>
      <trkpt lat="44.07513" lon="1.80485">
        <ele>448.4</ele>
        <time>2023-03-05T09:54:34Z</time>
      </trkpt>
      <trkpt lat="44.07516" lon="1.80489">
        <ele>448.6</ele>
        <time>2023-03-05T09:54:35Z</time>
      </trkpt>
      <trkpt lat="44.07519" lon="1.80493">
        <ele>448.8</ele>
        <time>2023-03-05T09:54:36Z</time>
      </trkpt>
      <trkpt lat="44.07522" lon="1.80497">
        <ele>448.8</ele>
        <time>2023-03-05T09:54:37Z</time>
      </trkpt>
      <trkpt lat="44.07525" lon="1.80502">
        <ele>448.8</ele>
        <time>2023-03-05T09:54:38Z</time>
      </trkpt>
      <trkpt lat="44.07528" lon="1.80507">
        <ele>449</ele>
        <time>2023-03-05T09:54:39Z</time>
      </trkpt>
      <trkpt lat="44.07531" lon="1.8051">
        <ele>449</ele>
        <time>2023-03-05T09:54:40Z</time>
      </trkpt>
      <trkpt lat="44.07533" lon="1.80515">
        <ele>449.2</ele>
        <time>2023-03-05T09:54:41Z</time>
      </trkpt>
      <trkpt lat="44.07535" lon="1.80521">
        <ele>449.2</ele>
        <time>2023-03-05T09:54:42Z</time>
      </trkpt>
      <trkpt lat="44.07536" lon="1.80526">
        <ele>449.4</ele>
        <time>2023-03-05T09:54:43Z</time>
      </trkpt>
      <trkpt lat="44.07537" lon="1.80532">
        <ele>449.4</ele>
        <time>2023-03-05T09:54:44Z</time>
      </trkpt>
      <trkpt lat="44.07537" lon="1.80538">
        <ele>449.4</ele>
        <time>2023-03-05T09:54:45Z</time>
      </trkpt>
      <trkpt lat="44.07536" lon="1.80544">
        <ele>449.4</ele>
        <time>2023-03-05T09:54:46Z</time>
      </trkpt>
      <trkpt lat="44.07534" lon="1.80549">
        <ele>449.6</ele>
        <time>2023-03-05T09:54:47Z</time>
      </trkpt>
      <trkpt lat="44.07533" lon="1.80555">
        <ele>449.6</ele>
        <time>2023-03-05T09:54:48Z</time>
      </trkpt>
      <trkpt lat="44.07531" lon="1.80561">
        <ele>449.6</ele>
        <time>2023-03-05T09:54:49Z</time>
      </trkpt>
      <trkpt lat="44.07529" lon="1.80566">
        <ele>449.8</ele>
        <time>2023-03-05T09:54:50Z</time>
      </trkpt>
      <trkpt lat="44.07528" lon="1.80572">
        <ele>450</ele>
        <time>2023-03-05T09:54:51Z</time>
      </trkpt>
      <trkpt lat="44.07526" lon="1.80577">
        <ele>450.2</ele>
        <time>2023-03-05T09:54:52Z</time>
      </trkpt>
      <trkpt lat="44.07524" lon="1.80582">
        <ele>450.2</ele>
        <time>2023-03-05T09:54:53Z</time>
      </trkpt>
      <trkpt lat="44.07522" lon="1.80589">
        <ele>450.4</ele>
        <time>2023-03-05T09:54:54Z</time>
      </trkpt>
      <trkpt lat="44.0752" lon="1.80593">
        <ele>450.4</ele>
        <time>2023-03-05T09:54:55Z</time>
      </trkpt>
      <trkpt lat="44.07519" lon="1.80598">
        <ele>450.8</ele>
        <time>2023-03-05T09:54:56Z</time>
      </trkpt>
      <trkpt lat="44.07517" lon="1.80603">
        <ele>450.8</ele>
        <time>2023-03-05T09:54:57Z</time>
      </trkpt>
      <trkpt lat="44.07515" lon="1.80609">
        <ele>450.8</ele>
        <time>2023-03-05T09:54:58Z</time>
      </trkpt>
      <trkpt lat="44.07514" lon="1.80614">
        <ele>451</ele>
        <time>2023-03-05T09:54:59Z</time>
      </trkpt>
      <trkpt lat="44.07514" lon="1.8062">
        <ele>451.2</ele>
        <time>2023-03-05T09:55:00Z</time>
      </trkpt>
      <trkpt lat="44.07514" lon="1.80625">
        <ele>451.6</ele>
        <time>2023-03-05T09:55:01Z</time>
      </trkpt>
      <trkpt lat="44.07513" lon="1.80629">
        <ele>452.2</ele>
        <time>2023-03-05T09:55:02Z</time>
      </trkpt>
      <trkpt lat="44.07512" lon="1.80635">
        <ele>452.8</ele>
        <time>2023-03-05T09:55:03Z</time>
      </trkpt>
      <trkpt lat="44.07512" lon="1.8064">
        <ele>453</ele>
        <time>2023-03-05T09:55:04Z</time>
      </trkpt>
      <trkpt lat="44.07512" lon="1.80646">
        <ele>453.4</ele>
        <time>2023-03-05T09:55:05Z</time>
      </trkpt>
      <trkpt lat="44.07512" lon="1.80651">
        <ele>453.6</ele>
        <time>2023-03-05T09:55:06Z</time>
      </trkpt>
      <trkpt lat="44.07514" lon="1.80655">
        <ele>454</ele>
        <time>2023-03-05T09:55:07Z</time>
      </trkpt>
      <trkpt lat="44.07515" lon="1.8066">
        <ele>454</ele>
        <time>2023-03-05T09:55:08Z</time>
      </trkpt>
      <trkpt lat="44.07516" lon="1.80665">
        <ele>454.8</ele>
        <time>2023-03-05T09:55:09Z</time>
      </trkpt>
      <trkpt lat="44.07518" lon="1.8067">
        <ele>455</ele>
        <time>2023-03-05T09:55:10Z</time>
      </trkpt>
      <trkpt lat="44.07519" lon="1.80674">
        <ele>455.4</ele>
        <time>2023-03-05T09:55:11Z</time>
      </trkpt>
      <trkpt lat="44.0752" lon="1.80679">
        <ele>455.6</ele>
        <time>2023-03-05T09:55:12Z</time>
      </trkpt>
      <trkpt lat="44.07521" lon="1.80683">
        <ele>455.8</ele>
        <time>2023-03-05T09:55:13Z</time>
      </trkpt>
      <trkpt lat="44.07522" lon="1.80688">
        <ele>456.2</ele>
        <time>2023-03-05T09:55:14Z</time>
      </trkpt>
      <trkpt lat="44.07524" lon="1.80692">
        <ele>456.2</ele>
        <time>2023-03-05T09:55:15Z</time>
      </trkpt>
      <trkpt lat="44.07526" lon="1.80697">
        <ele>456.8</ele>
        <time>2023-03-05T09:55:16Z</time>
      </trkpt>
      <trkpt lat="44.07527" lon="1.80701">
        <ele>457.2</ele>
        <time>2023-03-05T09:55:17Z</time>
      </trkpt>
      <trkpt lat="44.07528" lon="1.80706">
        <ele>457.8</ele>
        <time>2023-03-05T09:55:18Z</time>
      </trkpt>
      <trkpt lat="44.07529" lon="1.8071">
        <ele>457.8</ele>
        <time>2023-03-05T09:55:19Z</time>
      </trkpt>
      <trkpt lat="44.07531" lon="1.80714">
        <ele>458.4</ele>
        <time>2023-03-05T09:55:20Z</time>
      </trkpt>
      <trkpt lat="44.07532" lon="1.80719">
        <ele>458.8</ele>
        <time>2023-03-05T09:55:21Z</time>
      </trkpt>
      <trkpt lat="44.07534" lon="1.80724">
        <ele>459.4</ele>
        <time>2023-03-05T09:55:22Z</time>
      </trkpt>
      <trkpt lat="44.07536" lon="1.80728">
        <ele>459.6</ele>
        <time>2023-03-05T09:55:23Z</time>
      </trkpt>
      <trkpt lat="44.07538" lon="1.80732">
        <ele>460.4</ele>
        <time>2023-03-05T09:55:24Z</time>
      </trkpt>
      <trkpt lat="44.07539" lon="1.80737">
        <ele>460.8</ele>
        <time>2023-03-05T09:55:25Z</time>
      </trkpt>
      <trkpt lat="44.07542" lon="1.80741">
        <ele>461</ele>
        <time>2023-03-05T09:55:26Z</time>
      </trkpt>
      <trkpt lat="44.07544" lon="1.80745">
        <ele>461.6</ele>
        <time>2023-03-05T09:55:27Z</time>
      </trkpt>
      <trkpt lat="44.07548" lon="1.80749">
        <ele>462</ele>
        <time>2023-03-05T09:55:28Z</time>
      </trkpt>
      <trkpt lat="44.07551" lon="1.80751">
        <ele>462.4</ele>
        <time>2023-03-05T09:55:29Z</time>
      </trkpt>
      <trkpt lat="44.07554" lon="1.80754">
        <ele>462.6</ele>
        <time>2023-03-05T09:55:30Z</time>
      </trkpt>
      <trkpt lat="44.07558" lon="1.80756">
        <ele>463</ele>
        <time>2023-03-05T09:55:31Z</time>
      </trkpt>
      <trkpt lat="44.07561" lon="1.80759">
        <ele>463</ele>
        <time>2023-03-05T09:55:32Z</time>
      </trkpt>
      <trkpt lat="44.07565" lon="1.8076">
        <ele>463.6</ele>
        <time>2023-03-05T09:55:33Z</time>
      </trkpt>
      <trkpt lat="44.07568" lon="1.80762">
        <ele>463.8</ele>
        <time>2023-03-05T09:55:34Z</time>
      </trkpt>
      <trkpt lat="44.07572" lon="1.80764">
        <ele>464.4</ele>
        <time>2023-03-05T09:55:35Z</time>
      </trkpt>
      <trkpt lat="44.07576" lon="1.80765">
        <ele>464.8</ele>
        <time>2023-03-05T09:55:36Z</time>
      </trkpt>
      <trkpt lat="44.07581" lon="1.80767">
        <ele>464.8</ele>
        <time>2023-03-05T09:55:37Z</time>
      </trkpt>
      <trkpt lat="44.07585" lon="1.80769">
        <ele>465</ele>
        <time>2023-03-05T09:55:38Z</time>
      </trkpt>
      <trkpt lat="44.07589" lon="1.80772">
        <ele>465</ele>
        <time>2023-03-05T09:55:39Z</time>
      </trkpt>
      <trkpt lat="44.07594" lon="1.80774">
        <ele>465.2</ele>
        <time>2023-03-05T09:55:40Z</time>
      </trkpt>
      <trkpt lat="44.07598" lon="1.80777">
        <ele>465.4</ele>
        <time>2023-03-05T09:55:41Z</time>
      </trkpt>
      <trkpt lat="44.07602" lon="1.80779">
        <ele>465.6</ele>
        <time>2023-03-05T09:55:42Z</time>
      </trkpt>
      <trkpt lat="44.07607" lon="1.80781">
        <ele>465.8</ele>
        <time>2023-03-05T09:55:43Z</time>
      </trkpt>
      <trkpt lat="44.07611" lon="1.80784">
        <ele>466</ele>
        <time>2023-03-05T09:55:44Z</time>
      </trkpt>
      <trkpt lat="44.07615" lon="1.80786">
        <ele>466.2</ele>
        <time>2023-03-05T09:55:45Z</time>
      </trkpt>
      <trkpt lat="44.0762" lon="1.80787">
        <ele>466.2</ele>
        <time>2023-03-05T09:55:46Z</time>
      </trkpt>
      <trkpt lat="44.07624" lon="1.80789">
        <ele>466.4</ele>
        <time>2023-03-05T09:55:47Z</time>
      </trkpt>
      <trkpt lat="44.07628" lon="1.8079">
        <ele>466.4</ele>
        <time>2023-03-05T09:55:48Z</time>
      </trkpt>
      <trkpt lat="44.07631" lon="1.80792">
        <ele>466.4</ele>
        <time>2023-03-05T09:55:49Z</time>
      </trkpt>
      <trkpt lat="44.07636" lon="1.80794">
        <ele>466.4</ele>
        <time>2023-03-05T09:55:50Z</time>
      </trkpt>
      <trkpt lat="44.0764" lon="1.80796">
        <ele>466.6</ele>
        <time>2023-03-05T09:55:51Z</time>
      </trkpt>
      <trkpt lat="44.07645" lon="1.80798">
        <ele>466.6</ele>
        <time>2023-03-05T09:55:52Z</time>
      </trkpt>
      <trkpt lat="44.07649" lon="1.80799">
        <ele>466.6</ele>
        <time>2023-03-05T09:55:53Z</time>
      </trkpt>
      <trkpt lat="44.07654" lon="1.808">
        <ele>466.6</ele>
        <time>2023-03-05T09:55:54Z</time>
      </trkpt>
      <trkpt lat="44.07658" lon="1.80802">
        <ele>466.8</ele>
        <time>2023-03-05T09:55:55Z</time>
      </trkpt>
      <trkpt lat="44.07663" lon="1.80803">
        <ele>466.8</ele>
        <time>2023-03-05T09:55:56Z</time>
      </trkpt>
      <trkpt lat="44.07668" lon="1.80804">
        <ele>467.2</ele>
        <time>2023-03-05T09:55:57Z</time>
      </trkpt>
      <trkpt lat="44.07672" lon="1.80805">
        <ele>467.4</ele>
        <time>2023-03-05T09:55:58Z</time>
      </trkpt>
      <trkpt lat="44.07676" lon="1.80807">
        <ele>467.4</ele>
        <time>2023-03-05T09:55:59Z</time>
      </trkpt>
      <trkpt lat="44.0768" lon="1.80808">
        <ele>467.4</ele>
        <time>2023-03-05T09:56:00Z</time>
      </trkpt>
      <trkpt lat="44.07683" lon="1.80809">
        <ele>467.6</ele>
        <time>2023-03-05T09:56:01Z</time>
      </trkpt>
      <trkpt lat="44.07688" lon="1.80811">
        <ele>468</ele>
        <time>2023-03-05T09:56:02Z</time>
      </trkpt>
      <trkpt lat="44.07691" lon="1.80812">
        <ele>468</ele>
        <time>2023-03-05T09:56:03Z</time>
      </trkpt>
      <trkpt lat="44.07695" lon="1.80813">
        <ele>468.6</ele>
        <time>2023-03-05T09:56:04Z</time>
      </trkpt>
      <trkpt lat="44.07699" lon="1.80815">
        <ele>468.8</ele>
        <time>2023-03-05T09:56:05Z</time>
      </trkpt>
      <trkpt lat="44.07703" lon="1.80817">
        <ele>469</ele>
        <time>2023-03-05T09:56:06Z</time>
      </trkpt>
      <trkpt lat="44.07707" lon="1.80818">
        <ele>469.2</ele>
        <time>2023-03-05T09:56:07Z</time>
      </trkpt>
      <trkpt lat="44.07711" lon="1.8082">
        <ele>469.4</ele>
        <time>2023-03-05T09:56:08Z</time>
      </trkpt>
      <trkpt lat="44.07716" lon="1.80822">
        <ele>469.6</ele>
        <time>2023-03-05T09:56:09Z</time>
      </trkpt>
      <trkpt lat="44.0772" lon="1.80825">
        <ele>469.6</ele>
        <time>2023-03-05T09:56:10Z</time>
      </trkpt>
      <trkpt lat="44.07724" lon="1.80827">
        <ele>469.8</ele>
        <time>2023-03-05T09:56:11Z</time>
      </trkpt>
      <trkpt lat="44.07729" lon="1.8083">
        <ele>470</ele>
        <time>2023-03-05T09:56:12Z</time>
      </trkpt>
      <trkpt lat="44.07734" lon="1.80832">
        <ele>470</ele>
        <time>2023-03-05T09:56:13Z</time>
      </trkpt>
      <trkpt lat="44.07739" lon="1.80835">
        <ele>470</ele>
        <time>2023-03-05T09:56:14Z</time>
      </trkpt>
      <trkpt lat="44.07744" lon="1.80837">
        <ele>470</ele>
        <time>2023-03-05T09:56:15Z</time>
      </trkpt>
      <trkpt lat="44.07749" lon="1.8084">
        <ele>470</ele>
        <time>2023-03-05T09:56:16Z</time>
      </trkpt>
      <trkpt lat="44.07754" lon="1.80842">
        <ele>470</ele>
        <time>2023-03-05T09:56:17Z</time>
      </trkpt>
      <trkpt lat="44.07759" lon="1.80845">
        <ele>470</ele>
        <time>2023-03-05T09:56:18Z</time>
      </trkpt>
      <trkpt lat="44.07765" lon="1.80848">
        <ele>469.8</ele>
        <time>2023-03-05T09:56:19Z</time>
      </trkpt>
      <trkpt lat="44.07772" lon="1.80852">
        <ele>469.8</ele>
        <time>2023-03-05T09:56:20Z</time>
      </trkpt>
      <trkpt lat="44.07778" lon="1.80856">
        <ele>469.6</ele>
        <time>2023-03-05T09:56:21Z</time>
      </trkpt>
      <trkpt lat="44.07785" lon="1.80862">
        <ele>469.4</ele>
        <time>2023-03-05T09:56:22Z</time>
      </trkpt>
      <trkpt lat="44.07791" lon="1.80868">
        <ele>469.2</ele>
        <time>2023-03-05T09:56:23Z</time>
      </trkpt>
      <trkpt lat="44.07796" lon="1.80874">
        <ele>468.8</ele>
        <time>2023-03-05T09:56:24Z</time>
      </trkpt>
      <trkpt lat="44.07802" lon="1.80881">
        <ele>468.8</ele>
        <time>2023-03-05T09:56:25Z</time>
      </trkpt>
      <trkpt lat="44.07807" lon="1.80888">
        <ele>467.8</ele>
        <time>2023-03-05T09:56:26Z</time>
      </trkpt>
      <trkpt lat="44.0781" lon="1.80894">
        <ele>467.4</ele>
        <time>2023-03-05T09:56:27Z</time>
      </trkpt>
      <trkpt lat="44.07815" lon="1.80901">
        <ele>466.8</ele>
        <time>2023-03-05T09:56:28Z</time>
      </trkpt>
      <trkpt lat="44.07819" lon="1.80907">
        <ele>466.4</ele>
        <time>2023-03-05T09:56:29Z</time>
      </trkpt>
      <trkpt lat="44.07824" lon="1.80913">
        <ele>466.2</ele>
        <time>2023-03-05T09:56:30Z</time>
      </trkpt>
      <trkpt lat="44.07828" lon="1.80918">
        <ele>465.8</ele>
        <time>2023-03-05T09:56:31Z</time>
      </trkpt>
      <trkpt lat="44.07834" lon="1.80923">
        <ele>465.6</ele>
        <time>2023-03-05T09:56:32Z</time>
      </trkpt>
      <trkpt lat="44.0784" lon="1.80928">
        <ele>465.4</ele>
        <time>2023-03-05T09:56:33Z</time>
      </trkpt>
      <trkpt lat="44.07845" lon="1.80932">
        <ele>465.2</ele>
        <time>2023-03-05T09:56:34Z</time>
      </trkpt>
      <trkpt lat="44.0785" lon="1.80938">
        <ele>465.2</ele>
        <time>2023-03-05T09:56:35Z</time>
      </trkpt>
      <trkpt lat="44.07855" lon="1.80943">
        <ele>465.2</ele>
        <time>2023-03-05T09:56:36Z</time>
      </trkpt>
      <trkpt lat="44.07859" lon="1.80947">
        <ele>465</ele>
        <time>2023-03-05T09:56:37Z</time>
      </trkpt>
      <trkpt lat="44.07863" lon="1.8095">
        <ele>465</ele>
        <time>2023-03-05T09:56:38Z</time>
      </trkpt>
      <trkpt lat="44.07867" lon="1.80954">
        <ele>465</ele>
        <time>2023-03-05T09:56:39Z</time>
      </trkpt>
      <trkpt lat="44.0787" lon="1.80957">
        <ele>465</ele>
        <time>2023-03-05T09:56:40Z</time>
      </trkpt>
      <trkpt lat="44.07874" lon="1.80961">
        <ele>465</ele>
        <time>2023-03-05T09:56:41Z</time>
      </trkpt>
      <trkpt lat="44.07879" lon="1.80964">
        <ele>465.2</ele>
        <time>2023-03-05T09:56:42Z</time>
      </trkpt>
      <trkpt lat="44.07882" lon="1.80968">
        <ele>465.2</ele>
        <time>2023-03-05T09:56:43Z</time>
      </trkpt>
      <trkpt lat="44.07885" lon="1.80971">
        <ele>465.4</ele>
        <time>2023-03-05T09:56:44Z</time>
      </trkpt>
      <trkpt lat="44.07887" lon="1.80973">
        <ele>465.4</ele>
        <time>2023-03-05T09:56:45Z</time>
      </trkpt>
      <trkpt lat="44.07889" lon="1.80976">
        <ele>465.6</ele>
        <time>2023-03-05T09:56:46Z</time>
      </trkpt>
      <trkpt lat="44.07891" lon="1.80978">
        <ele>466</ele>
        <time>2023-03-05T09:56:47Z</time>
      </trkpt>
      <trkpt lat="44.07895" lon="1.8098">
        <ele>466.4</ele>
        <time>2023-03-05T09:56:48Z</time>
      </trkpt>
      <trkpt lat="44.07899" lon="1.80981">
        <ele>466.6</ele>
        <time>2023-03-05T09:56:49Z</time>
      </trkpt>
      <trkpt lat="44.07903" lon="1.80983">
        <ele>467</ele>
        <time>2023-03-05T09:56:50Z</time>
      </trkpt>
      <trkpt lat="44.07906" lon="1.80984">
        <ele>467.2</ele>
        <time>2023-03-05T09:56:51Z</time>
      </trkpt>
      <trkpt lat="44.07909" lon="1.80985">
        <ele>467.8</ele>
        <time>2023-03-05T09:56:52Z</time>
      </trkpt>
      <trkpt lat="44.07912" lon="1.80985">
        <ele>468</ele>
        <time>2023-03-05T09:56:53Z</time>
      </trkpt>
      <trkpt lat="44.07915" lon="1.80986">
        <ele>468.2</ele>
        <time>2023-03-05T09:56:54Z</time>
      </trkpt>
      <trkpt lat="44.07919" lon="1.80985">
        <ele>468.4</ele>
        <time>2023-03-05T09:56:55Z</time>
      </trkpt>
      <trkpt lat="44.07921" lon="1.80983">
        <ele>468.6</ele>
        <time>2023-03-05T09:56:56Z</time>
      </trkpt>
      <trkpt lat="44.07924" lon="1.80981">
        <ele>468.8</ele>
        <time>2023-03-05T09:56:57Z</time>
      </trkpt>
      <trkpt lat="44.07927" lon="1.80979">
        <ele>469</ele>
        <time>2023-03-05T09:56:58Z</time>
      </trkpt>
      <trkpt lat="44.0793" lon="1.80977">
        <ele>469.6</ele>
        <time>2023-03-05T09:56:59Z</time>
      </trkpt>
      <trkpt lat="44.07932" lon="1.80975">
        <ele>469.8</ele>
        <time>2023-03-05T09:57:00Z</time>
      </trkpt>
      <trkpt lat="44.07936" lon="1.80973">
        <ele>470</ele>
        <time>2023-03-05T09:57:01Z</time>
      </trkpt>
      <trkpt lat="44.0794" lon="1.80972">
        <ele>470</ele>
        <time>2023-03-05T09:57:02Z</time>
      </trkpt>
      <trkpt lat="44.07943" lon="1.80973">
        <ele>470.2</ele>
        <time>2023-03-05T09:57:03Z</time>
      </trkpt>
      <trkpt lat="44.07946" lon="1.80974">
        <ele>470.8</ele>
        <time>2023-03-05T09:57:04Z</time>
      </trkpt>
      <trkpt lat="44.0795" lon="1.80976">
        <ele>471.2</ele>
        <time>2023-03-05T09:57:05Z</time>
      </trkpt>
      <trkpt lat="44.07952" lon="1.80978">
        <ele>471.8</ele>
        <time>2023-03-05T09:57:06Z</time>
      </trkpt>
      <trkpt lat="44.07955" lon="1.8098">
        <ele>472</ele>
        <time>2023-03-05T09:57:07Z</time>
      </trkpt>
      <trkpt lat="44.07958" lon="1.80982">
        <ele>472.6</ele>
        <time>2023-03-05T09:57:08Z</time>
      </trkpt>
      <trkpt lat="44.07961" lon="1.80984">
        <ele>473</ele>
        <time>2023-03-05T09:57:09Z</time>
      </trkpt>
      <trkpt lat="44.07964" lon="1.80986">
        <ele>473.4</ele>
        <time>2023-03-05T09:57:10Z</time>
      </trkpt>
      <trkpt lat="44.07968" lon="1.80989">
        <ele>474</ele>
        <time>2023-03-05T09:57:11Z</time>
      </trkpt>
      <trkpt lat="44.07971" lon="1.80992">
        <ele>474.6</ele>
        <time>2023-03-05T09:57:12Z</time>
      </trkpt>
      <trkpt lat="44.07974" lon="1.80995">
        <ele>474.8</ele>
        <time>2023-03-05T09:57:13Z</time>
      </trkpt>
      <trkpt lat="44.07977" lon="1.80997">
        <ele>475.6</ele>
        <time>2023-03-05T09:57:14Z</time>
      </trkpt>
      <trkpt lat="44.07981" lon="1.80999">
        <ele>476.2</ele>
        <time>2023-03-05T09:57:15Z</time>
      </trkpt>
      <trkpt lat="44.07985" lon="1.81001">
        <ele>476.4</ele>
        <time>2023-03-05T09:57:16Z</time>
      </trkpt>
      <trkpt lat="44.07989" lon="1.81001">
        <ele>476.8</ele>
        <time>2023-03-05T09:57:17Z</time>
      </trkpt>
      <trkpt lat="44.07993" lon="1.81003">
        <ele>477</ele>
        <time>2023-03-05T09:57:18Z</time>
      </trkpt>
      <trkpt lat="44.07996" lon="1.81005">
        <ele>477.6</ele>
        <time>2023-03-05T09:57:19Z</time>
      </trkpt>
      <trkpt lat="44.07998" lon="1.81007">
        <ele>478.2</ele>
        <time>2023-03-05T09:57:20Z</time>
      </trkpt>
      <trkpt lat="44.08001" lon="1.81009">
        <ele>478.8</ele>
        <time>2023-03-05T09:57:21Z</time>
      </trkpt>
      <trkpt lat="44.08003" lon="1.8101">
        <ele>479.2</ele>
        <time>2023-03-05T09:57:22Z</time>
      </trkpt>
      <trkpt lat="44.08004" lon="1.81011">
        <ele>480</ele>
        <time>2023-03-05T09:57:23Z</time>
      </trkpt>
      <trkpt lat="44.08007" lon="1.81011">
        <ele>480.4</ele>
        <time>2023-03-05T09:57:24Z</time>
      </trkpt>
      <trkpt lat="44.08009" lon="1.81011">
        <ele>481</ele>
        <time>2023-03-05T09:57:25Z</time>
      </trkpt>
      <trkpt lat="44.08011" lon="1.81011">
        <ele>481.6</ele>
        <time>2023-03-05T09:57:26Z</time>
      </trkpt>
      <trkpt lat="44.08013" lon="1.81012">
        <ele>481.8</ele>
        <time>2023-03-05T09:57:27Z</time>
      </trkpt>
      <trkpt lat="44.08016" lon="1.81012">
        <ele>482.2</ele>
        <time>2023-03-05T09:57:28Z</time>
      </trkpt>
      <trkpt lat="44.08018" lon="1.81013">
        <ele>482.2</ele>
        <time>2023-03-05T09:57:29Z</time>
      </trkpt>
      <trkpt lat="44.0802" lon="1.81014">
        <ele>482.4</ele>
        <time>2023-03-05T09:57:30Z</time>
      </trkpt>
      <trkpt lat="44.08022" lon="1.81015">
        <ele>482.6</ele>
        <time>2023-03-05T09:57:31Z</time>
      </trkpt>
      <trkpt lat="44.08024" lon="1.81017">
        <ele>482.6</ele>
        <time>2023-03-05T09:57:32Z</time>
      </trkpt>
      <trkpt lat="44.08025" lon="1.81017">
        <ele>482.8</ele>
        <time>2023-03-05T09:57:33Z</time>
      </trkpt>
      <trkpt lat="44.08027" lon="1.81019">
        <ele>483</ele>
        <time>2023-03-05T09:57:34Z</time>
      </trkpt>
      <trkpt lat="44.08029" lon="1.8102">
        <ele>483.2</ele>
        <time>2023-03-05T09:57:35Z</time>
      </trkpt>
      <trkpt lat="44.0803" lon="1.81022">
        <ele>483.4</ele>
        <time>2023-03-05T09:57:36Z</time>
      </trkpt>
      <trkpt lat="44.08031" lon="1.81024">
        <ele>483.6</ele>
        <time>2023-03-05T09:57:37Z</time>
      </trkpt>
      <trkpt lat="44.08033" lon="1.81027">
        <ele>483.6</ele>
        <time>2023-03-05T09:57:38Z</time>
      </trkpt>
      <trkpt lat="44.08034" lon="1.81029">
        <ele>483.8</ele>
        <time>2023-03-05T09:57:39Z</time>
      </trkpt>
      <trkpt lat="44.08036" lon="1.81032">
        <ele>484</ele>
        <time>2023-03-05T09:57:40Z</time>
      </trkpt>
      <trkpt lat="44.08037" lon="1.81036">
        <ele>484.2</ele>
        <time>2023-03-05T09:57:41Z</time>
      </trkpt>
      <trkpt lat="44.08039" lon="1.8104">
        <ele>484.4</ele>
        <time>2023-03-05T09:57:42Z</time>
      </trkpt>
      <trkpt lat="44.08041" lon="1.81044">
        <ele>484.6</ele>
        <time>2023-03-05T09:57:43Z</time>
      </trkpt>
      <trkpt lat="44.08044" lon="1.81048">
        <ele>484.6</ele>
        <time>2023-03-05T09:57:44Z</time>
      </trkpt>
      <trkpt lat="44.08049" lon="1.81052">
        <ele>484.6</ele>
        <time>2023-03-05T09:57:45Z</time>
      </trkpt>
      <trkpt lat="44.08054" lon="1.81057">
        <ele>484.6</ele>
        <time>2023-03-05T09:57:46Z</time>
      </trkpt>
      <trkpt lat="44.08058" lon="1.81062">
        <ele>484.6</ele>
        <time>2023-03-05T09:57:47Z</time>
      </trkpt>
      <trkpt lat="44.08063" lon="1.81067">
        <ele>484.6</ele>
        <time>2023-03-05T09:57:48Z</time>
      </trkpt>
      <trkpt lat="44.08067" lon="1.81073">
        <ele>484.6</ele>
        <time>2023-03-05T09:57:49Z</time>
      </trkpt>
      <trkpt lat="44.08072" lon="1.81079">
        <ele>484.4</ele>
        <time>2023-03-05T09:57:50Z</time>
      </trkpt>
      <trkpt lat="44.08078" lon="1.81086">
        <ele>484.2</ele>
        <time>2023-03-05T09:57:51Z</time>
      </trkpt>
      <trkpt lat="44.08083" lon="1.81089">
        <ele>484</ele>
        <time>2023-03-05T09:57:52Z</time>
      </trkpt>
      <trkpt lat="44.08088" lon="1.81095">
        <ele>483.8</ele>
        <time>2023-03-05T09:57:53Z</time>
      </trkpt>
      <trkpt lat="44.08094" lon="1.81101">
        <ele>483.6</ele>
        <time>2023-03-05T09:57:54Z</time>
      </trkpt>
      <trkpt lat="44.08099" lon="1.81106">
        <ele>483.6</ele>
        <time>2023-03-05T09:57:55Z</time>
      </trkpt>
      <trkpt lat="44.08103" lon="1.8111">
        <ele>483.2</ele>
        <time>2023-03-05T09:57:56Z</time>
      </trkpt>
      <trkpt lat="44.08107" lon="1.81115">
        <ele>483</ele>
        <time>2023-03-05T09:57:57Z</time>
      </trkpt>
      <trkpt lat="44.0811" lon="1.81119">
        <ele>482.8</ele>
        <time>2023-03-05T09:57:58Z</time>
      </trkpt>
      <trkpt lat="44.08115" lon="1.81123">
        <ele>482.8</ele>
        <time>2023-03-05T09:57:59Z</time>
      </trkpt>
      <trkpt lat="44.08118" lon="1.81127">
        <ele>482.6</ele>
        <time>2023-03-05T09:58:00Z</time>
      </trkpt>
      <trkpt lat="44.08121" lon="1.81131">
        <ele>482.6</ele>
        <time>2023-03-05T09:58:01Z</time>
      </trkpt>
      <trkpt lat="44.08124" lon="1.81135">
        <ele>482.6</ele>
        <time>2023-03-05T09:58:02Z</time>
      </trkpt>
      <trkpt lat="44.08127" lon="1.81139">
        <ele>482.6</ele>
        <time>2023-03-05T09:58:03Z</time>
      </trkpt>
      <trkpt lat="44.0813" lon="1.81142">
        <ele>482.4</ele>
        <time>2023-03-05T09:58:04Z</time>
      </trkpt>
      <trkpt lat="44.08134" lon="1.81145">
        <ele>482.4</ele>
        <time>2023-03-05T09:58:05Z</time>
      </trkpt>
      <trkpt lat="44.08137" lon="1.81148">
        <ele>482.4</ele>
        <time>2023-03-05T09:58:06Z</time>
      </trkpt>
      <trkpt lat="44.0814" lon="1.81152">
        <ele>482.4</ele>
        <time>2023-03-05T09:58:07Z</time>
      </trkpt>
      <trkpt lat="44.08144" lon="1.81156">
        <ele>482.4</ele>
        <time>2023-03-05T09:58:08Z</time>
      </trkpt>
      <trkpt lat="44.08149" lon="1.8116">
        <ele>482.4</ele>
        <time>2023-03-05T09:58:09Z</time>
      </trkpt>
      <trkpt lat="44.08154" lon="1.81166">
        <ele>482.4</ele>
        <time>2023-03-05T09:58:10Z</time>
      </trkpt>
      <trkpt lat="44.0816" lon="1.81174">
        <ele>482.2</ele>
        <time>2023-03-05T09:58:11Z</time>
      </trkpt>
      <trkpt lat="44.08167" lon="1.81183">
        <ele>482.2</ele>
        <time>2023-03-05T09:58:12Z</time>
      </trkpt>
      <trkpt lat="44.08173" lon="1.81191">
        <ele>482</ele>
        <time>2023-03-05T09:58:13Z</time>
      </trkpt>
      <trkpt lat="44.08179" lon="1.81199">
        <ele>481.8</ele>
        <time>2023-03-05T09:58:14Z</time>
      </trkpt>
      <trkpt lat="44.08186" lon="1.81205">
        <ele>481.6</ele>
        <time>2023-03-05T09:58:15Z</time>
      </trkpt>
      <trkpt lat="44.08194" lon="1.81211">
        <ele>481.2</ele>
        <time>2023-03-05T09:58:16Z</time>
      </trkpt>
      <trkpt lat="44.08199" lon="1.81217">
        <ele>480.8</ele>
        <time>2023-03-05T09:58:17Z</time>
      </trkpt>
      <trkpt lat="44.08205" lon="1.81221">
        <ele>480.2</ele>
        <time>2023-03-05T09:58:18Z</time>
      </trkpt>
      <trkpt lat="44.0821" lon="1.81226">
        <ele>480.2</ele>
        <time>2023-03-05T09:58:19Z</time>
      </trkpt>
      <trkpt lat="44.08217" lon="1.81232">
        <ele>479.2</ele>
        <time>2023-03-05T09:58:20Z</time>
      </trkpt>
      <trkpt lat="44.08222" lon="1.81238">
        <ele>478.8</ele>
        <time>2023-03-05T09:58:21Z</time>
      </trkpt>
      <trkpt lat="44.08226" lon="1.81242">
        <ele>478.6</ele>
        <time>2023-03-05T09:58:22Z</time>
      </trkpt>
      <trkpt lat="44.0823" lon="1.81245">
        <ele>478.4</ele>
        <time>2023-03-05T09:58:23Z</time>
      </trkpt>
      <trkpt lat="44.08234" lon="1.81247">
        <ele>478.4</ele>
        <time>2023-03-05T09:58:24Z</time>
      </trkpt>
      <trkpt lat="44.08238" lon="1.8125">
        <ele>478.2</ele>
        <time>2023-03-05T09:58:25Z</time>
      </trkpt>
      <trkpt lat="44.08244" lon="1.81253">
        <ele>478.2</ele>
        <time>2023-03-05T09:58:26Z</time>
      </trkpt>
      <trkpt lat="44.0825" lon="1.81256">
        <ele>478.2</ele>
        <time>2023-03-05T09:58:27Z</time>
      </trkpt>
      <trkpt lat="44.08255" lon="1.8126">
        <ele>478.2</ele>
        <time>2023-03-05T09:58:28Z</time>
      </trkpt>
      <trkpt lat="44.08259" lon="1.81262">
        <ele>478.2</ele>
        <time>2023-03-05T09:58:29Z</time>
      </trkpt>
      <trkpt lat="44.08262" lon="1.81265">
        <ele>478.2</ele>
        <time>2023-03-05T09:58:30Z</time>
      </trkpt>
      <trkpt lat="44.08265" lon="1.81268">
        <ele>478.4</ele>
        <time>2023-03-05T09:58:31Z</time>
      </trkpt>
      <trkpt lat="44.08268" lon="1.81271">
        <ele>478.4</ele>
        <time>2023-03-05T09:58:32Z</time>
      </trkpt>
      <trkpt lat="44.08271" lon="1.81274">
        <ele>478.4</ele>
        <time>2023-03-05T09:58:33Z</time>
      </trkpt>
      <trkpt lat="44.08275" lon="1.81276">
        <ele>478.6</ele>
        <time>2023-03-05T09:58:34Z</time>
      </trkpt>
      <trkpt lat="44.08278" lon="1.81279">
        <ele>478.6</ele>
        <time>2023-03-05T09:58:35Z</time>
      </trkpt>
      <trkpt lat="44.0828" lon="1.81282">
        <ele>479</ele>
        <time>2023-03-05T09:58:36Z</time>
      </trkpt>
      <trkpt lat="44.08283" lon="1.81285">
        <ele>479</ele>
        <time>2023-03-05T09:58:37Z</time>
      </trkpt>
      <trkpt lat="44.08286" lon="1.81289">
        <ele>479.4</ele>
        <time>2023-03-05T09:58:38Z</time>
      </trkpt>
      <trkpt lat="44.0829" lon="1.81293">
        <ele>479.6</ele>
        <time>2023-03-05T09:58:39Z</time>
      </trkpt>
      <trkpt lat="44.08294" lon="1.81296">
        <ele>479.8</ele>
        <time>2023-03-05T09:58:40Z</time>
      </trkpt>
      <trkpt lat="44.08298" lon="1.813">
        <ele>480.2</ele>
        <time>2023-03-05T09:58:41Z</time>
      </trkpt>
      <trkpt lat="44.08302" lon="1.81303">
        <ele>480.8</ele>
        <time>2023-03-05T09:58:42Z</time>
      </trkpt>
      <trkpt lat="44.08307" lon="1.81307">
        <ele>481.2</ele>
        <time>2023-03-05T09:58:43Z</time>
      </trkpt>
      <trkpt lat="44.0831" lon="1.8131">
        <ele>481.2</ele>
        <time>2023-03-05T09:58:44Z</time>
      </trkpt>
      <trkpt lat="44.08315" lon="1.81314">
        <ele>481.4</ele>
        <time>2023-03-05T09:58:45Z</time>
      </trkpt>
      <trkpt lat="44.08319" lon="1.81317">
        <ele>481.4</ele>
        <time>2023-03-05T09:58:46Z</time>
      </trkpt>
      <trkpt lat="44.08322" lon="1.8132">
        <ele>481.4</ele>
        <time>2023-03-05T09:58:47Z</time>
      </trkpt>
      <trkpt lat="44.08326" lon="1.81323">
        <ele>481.6</ele>
        <time>2023-03-05T09:58:48Z</time>
      </trkpt>
      <trkpt lat="44.0833" lon="1.81325">
        <ele>481.6</ele>
        <time>2023-03-05T09:58:49Z</time>
      </trkpt>
      <trkpt lat="44.08333" lon="1.81326">
        <ele>481.6</ele>
        <time>2023-03-05T09:58:50Z</time>
      </trkpt>
      <trkpt lat="44.08337" lon="1.81328">
        <ele>481.6</ele>
        <time>2023-03-05T09:58:51Z</time>
      </trkpt>
      <trkpt lat="44.0834" lon="1.8133">
        <ele>481.6</ele>
        <time>2023-03-05T09:58:52Z</time>
      </trkpt>
      <trkpt lat="44.08343" lon="1.81331">
        <ele>481.8</ele>
        <time>2023-03-05T09:58:53Z</time>
      </trkpt>
      <trkpt lat="44.08346" lon="1.81333">
        <ele>482</ele>
        <time>2023-03-05T09:58:54Z</time>
      </trkpt>
      <trkpt lat="44.08348" lon="1.81335">
        <ele>482</ele>
        <time>2023-03-05T09:58:55Z</time>
      </trkpt>
      <trkpt lat="44.08349" lon="1.81337">
        <ele>482.2</ele>
        <time>2023-03-05T09:58:56Z</time>
      </trkpt>
      <trkpt lat="44.08352" lon="1.8134">
        <ele>482.2</ele>
        <time>2023-03-05T09:58:57Z</time>
      </trkpt>
      <trkpt lat="44.08354" lon="1.81343">
        <ele>482.4</ele>
        <time>2023-03-05T09:58:58Z</time>
      </trkpt>
      <trkpt lat="44.08357" lon="1.81345">
        <ele>482.4</ele>
        <time>2023-03-05T09:58:59Z</time>
      </trkpt>
      <trkpt lat="44.0836" lon="1.81347">
        <ele>482.6</ele>
        <time>2023-03-05T09:59:00Z</time>
      </trkpt>
      <trkpt lat="44.08363" lon="1.81349">
        <ele>482.8</ele>
        <time>2023-03-05T09:59:01Z</time>
      </trkpt>
      <trkpt lat="44.08367" lon="1.81352">
        <ele>483.2</ele>
        <time>2023-03-05T09:59:02Z</time>
      </trkpt>
      <trkpt lat="44.0837" lon="1.81355">
        <ele>483.4</ele>
        <time>2023-03-05T09:59:03Z</time>
      </trkpt>
      <trkpt lat="44.08374" lon="1.81356">
        <ele>483.6</ele>
        <time>2023-03-05T09:59:04Z</time>
      </trkpt>
      <trkpt lat="44.08376" lon="1.81356">
        <ele>484</ele>
        <time>2023-03-05T09:59:05Z</time>
      </trkpt>
      <trkpt lat="44.08378" lon="1.81353">
        <ele>484</ele>
        <time>2023-03-05T09:59:06Z</time>
      </trkpt>
      <trkpt lat="44.08381" lon="1.81351">
        <ele>484.4</ele>
        <time>2023-03-05T09:59:07Z</time>
      </trkpt>
      <trkpt lat="44.08383" lon="1.81345">
        <ele>484.4</ele>
        <time>2023-03-05T09:59:08Z</time>
      </trkpt>
      <trkpt lat="44.08384" lon="1.81338">
        <ele>484.8</ele>
        <time>2023-03-05T09:59:09Z</time>
      </trkpt>
      <trkpt lat="44.08385" lon="1.81332">
        <ele>484.8</ele>
        <time>2023-03-05T09:59:10Z</time>
      </trkpt>
      <trkpt lat="44.08388" lon="1.81323">
        <ele>484.8</ele>
        <time>2023-03-05T09:59:11Z</time>
      </trkpt>
      <trkpt lat="44.0839" lon="1.81316">
        <ele>484.8</ele>
        <time>2023-03-05T09:59:12Z</time>
      </trkpt>
      <trkpt lat="44.08394" lon="1.81309">
        <ele>485.2</ele>
        <time>2023-03-05T09:59:13Z</time>
      </trkpt>
      <trkpt lat="44.08397" lon="1.81301">
        <ele>485.2</ele>
        <time>2023-03-05T09:59:14Z</time>
      </trkpt>
      <trkpt lat="44.08399" lon="1.81296">
        <ele>485</ele>
        <time>2023-03-05T09:59:15Z</time>
      </trkpt>
      <trkpt lat="44.084" lon="1.81286">
        <ele>484.6</ele>
        <time>2023-03-05T09:59:16Z</time>
      </trkpt>
      <trkpt lat="44.08398" lon="1.81279">
        <ele>484.4</ele>
        <time>2023-03-05T09:59:17Z</time>
      </trkpt>
      <trkpt lat="44.08397" lon="1.81273">
        <ele>483.6</ele>
        <time>2023-03-05T09:59:18Z</time>
      </trkpt>
      <trkpt lat="44.08395" lon="1.81265">
        <ele>483.4</ele>
        <time>2023-03-05T09:59:19Z</time>
      </trkpt>
      <trkpt lat="44.08395" lon="1.81258">
        <ele>482.2</ele>
        <time>2023-03-05T09:59:20Z</time>
      </trkpt>
      <trkpt lat="44.08395" lon="1.81248">
        <ele>481.4</ele>
        <time>2023-03-05T09:59:21Z</time>
      </trkpt>
      <trkpt lat="44.08396" lon="1.8124">
        <ele>480</ele>
        <time>2023-03-05T09:59:22Z</time>
      </trkpt>
      <trkpt lat="44.08399" lon="1.81231">
        <ele>479.4</ele>
        <time>2023-03-05T09:59:23Z</time>
      </trkpt>
      <trkpt lat="44.08402" lon="1.81224">
        <ele>478.4</ele>
        <time>2023-03-05T09:59:24Z</time>
      </trkpt>
      <trkpt lat="44.08405" lon="1.81216">
        <ele>478</ele>
        <time>2023-03-05T09:59:25Z</time>
      </trkpt>
      <trkpt lat="44.08407" lon="1.81207">
        <ele>477.6</ele>
        <time>2023-03-05T09:59:26Z</time>
      </trkpt>
      <trkpt lat="44.08409" lon="1.81199">
        <ele>477.2</ele>
        <time>2023-03-05T09:59:27Z</time>
      </trkpt>
      <trkpt lat="44.08412" lon="1.81188">
        <ele>477</ele>
        <time>2023-03-05T09:59:28Z</time>
      </trkpt>
      <trkpt lat="44.08416" lon="1.81179">
        <ele>476.4</ele>
        <time>2023-03-05T09:59:29Z</time>
      </trkpt>
      <trkpt lat="44.08419" lon="1.81173">
        <ele>476.2</ele>
        <time>2023-03-05T09:59:30Z</time>
      </trkpt>
      <trkpt lat="44.08425" lon="1.81166">
        <ele>475.8</ele>
        <time>2023-03-05T09:59:31Z</time>
      </trkpt>
      <trkpt lat="44.08431" lon="1.8116">
        <ele>475.4</ele>
        <time>2023-03-05T09:59:32Z</time>
      </trkpt>
      <trkpt lat="44.08437" lon="1.81156">
        <ele>474</ele>
        <time>2023-03-05T09:59:33Z</time>
      </trkpt>
      <trkpt lat="44.0844" lon="1.81153">
        <ele>473.2</ele>
        <time>2023-03-05T09:59:34Z</time>
      </trkpt>
      <trkpt lat="44.08443" lon="1.81149">
        <ele>472.2</ele>
        <time>2023-03-05T09:59:35Z</time>
      </trkpt>
      <trkpt lat="44.08446" lon="1.81144">
        <ele>471.6</ele>
        <time>2023-03-05T09:59:36Z</time>
      </trkpt>
      <trkpt lat="44.08451" lon="1.81136">
        <ele>470.6</ele>
        <time>2023-03-05T09:59:37Z</time>
      </trkpt>
      <trkpt lat="44.08455" lon="1.8113">
        <ele>470</ele>
        <time>2023-03-05T09:59:38Z</time>
      </trkpt>
      <trkpt lat="44.08461" lon="1.81124">
        <ele>469.6</ele>
        <time>2023-03-05T09:59:39Z</time>
      </trkpt>
      <trkpt lat="44.08465" lon="1.81119">
        <ele>468.4</ele>
        <time>2023-03-05T09:59:40Z</time>
      </trkpt>
      <trkpt lat="44.08473" lon="1.81112">
        <ele>467.6</ele>
        <time>2023-03-05T09:59:41Z</time>
      </trkpt>
      <trkpt lat="44.08478" lon="1.81106">
        <ele>466.4</ele>
        <time>2023-03-05T09:59:42Z</time>
      </trkpt>
      <trkpt lat="44.08484" lon="1.81101">
        <ele>466</ele>
        <time>2023-03-05T09:59:43Z</time>
      </trkpt>
      <trkpt lat="44.0849" lon="1.81097">
        <ele>465.4</ele>
        <time>2023-03-05T09:59:44Z</time>
      </trkpt>
      <trkpt lat="44.08495" lon="1.81093">
        <ele>465.2</ele>
        <time>2023-03-05T09:59:45Z</time>
      </trkpt>
      <trkpt lat="44.08501" lon="1.81089">
        <ele>464.8</ele>
        <time>2023-03-05T09:59:46Z</time>
      </trkpt>
      <trkpt lat="44.0851" lon="1.81083">
        <ele>464.2</ele>
        <time>2023-03-05T09:59:47Z</time>
      </trkpt>
      <trkpt lat="44.08515" lon="1.81079">
        <ele>463.6</ele>
        <time>2023-03-05T09:59:48Z</time>
      </trkpt>
      <trkpt lat="44.08521" lon="1.81075">
        <ele>462.8</ele>
        <time>2023-03-05T09:59:49Z</time>
      </trkpt>
      <trkpt lat="44.08527" lon="1.8107">
        <ele>462.4</ele>
        <time>2023-03-05T09:59:50Z</time>
      </trkpt>
      <trkpt lat="44.08539" lon="1.81061">
        <ele>461.8</ele>
        <time>2023-03-05T09:59:51Z</time>
      </trkpt>
      <trkpt lat="44.08547" lon="1.81055">
        <ele>461.4</ele>
        <time>2023-03-05T09:59:52Z</time>
      </trkpt>
      <trkpt lat="44.08555" lon="1.81049">
        <ele>460.8</ele>
        <time>2023-03-05T09:59:53Z</time>
      </trkpt>
      <trkpt lat="44.08561" lon="1.81044">
        <ele>460.4</ele>
        <time>2023-03-05T09:59:54Z</time>
      </trkpt>
      <trkpt lat="44.08569" lon="1.81038">
        <ele>460</ele>
        <time>2023-03-05T09:59:55Z</time>
      </trkpt>
      <trkpt lat="44.08577" lon="1.8103">
        <ele>459.8</ele>
        <time>2023-03-05T09:59:56Z</time>
      </trkpt>
      <trkpt lat="44.08584" lon="1.81026">
        <ele>458.8</ele>
        <time>2023-03-05T09:59:57Z</time>
      </trkpt>
      <trkpt lat="44.08591" lon="1.8102">
        <ele>458.2</ele>
        <time>2023-03-05T09:59:58Z</time>
      </trkpt>
      <trkpt lat="44.08598" lon="1.81014">
        <ele>457.2</ele>
        <time>2023-03-05T09:59:59Z</time>
      </trkpt>
      <trkpt lat="44.08606" lon="1.81008">
        <ele>456.8</ele>
        <time>2023-03-05T10:00:00Z</time>
      </trkpt>
      <trkpt lat="44.08614" lon="1.81003">
        <ele>456.4</ele>
        <time>2023-03-05T10:00:01Z</time>
      </trkpt>
      <trkpt lat="44.08623" lon="1.80996">
        <ele>455.8</ele>
        <time>2023-03-05T10:00:02Z</time>
      </trkpt>
      <trkpt lat="44.0863" lon="1.8099">
        <ele>455.4</ele>
        <time>2023-03-05T10:00:03Z</time>
      </trkpt>
      <trkpt lat="44.08638" lon="1.80983">
        <ele>454.6</ele>
        <time>2023-03-05T10:00:04Z</time>
      </trkpt>
      <trkpt lat="44.08645" lon="1.80978">
        <ele>454.2</ele>
        <time>2023-03-05T10:00:05Z</time>
      </trkpt>
      <trkpt lat="44.08655" lon="1.80971">
        <ele>453.6</ele>
        <time>2023-03-05T10:00:06Z</time>
      </trkpt>
      <trkpt lat="44.08661" lon="1.80966">
        <ele>453.2</ele>
        <time>2023-03-05T10:00:07Z</time>
      </trkpt>
      <trkpt lat="44.08671" lon="1.80959">
        <ele>452.6</ele>
        <time>2023-03-05T10:00:08Z</time>
      </trkpt>
      <trkpt lat="44.08677" lon="1.80953">
        <ele>452.4</ele>
        <time>2023-03-05T10:00:09Z</time>
      </trkpt>
      <trkpt lat="44.08685" lon="1.80948">
        <ele>452</ele>
        <time>2023-03-05T10:00:10Z</time>
      </trkpt>
      <trkpt lat="44.08692" lon="1.80942">
        <ele>451.4</ele>
        <time>2023-03-05T10:00:11Z</time>
      </trkpt>
      <trkpt lat="44.08699" lon="1.80935">
        <ele>451.2</ele>
        <time>2023-03-05T10:00:12Z</time>
      </trkpt>
      <trkpt lat="44.08706" lon="1.80929">
        <ele>450.4</ele>
        <time>2023-03-05T10:00:13Z</time>
      </trkpt>
      <trkpt lat="44.08713" lon="1.80923">
        <ele>450.4</ele>
        <time>2023-03-05T10:00:14Z</time>
      </trkpt>
      <trkpt lat="44.0872" lon="1.80917">
        <ele>450.2</ele>
        <time>2023-03-05T10:00:15Z</time>
      </trkpt>
      <trkpt lat="44.08727" lon="1.80911">
        <ele>450.2</ele>
        <time>2023-03-05T10:00:16Z</time>
      </trkpt>
      <trkpt lat="44.08735" lon="1.80904">
        <ele>449.8</ele>
        <time>2023-03-05T10:00:17Z</time>
      </trkpt>
      <trkpt lat="44.08741" lon="1.80898">
        <ele>449.8</ele>
        <time>2023-03-05T10:00:18Z</time>
      </trkpt>
      <trkpt lat="44.08748" lon="1.80893">
        <ele>449.4</ele>
        <time>2023-03-05T10:00:19Z</time>
      </trkpt>
      <trkpt lat="44.08753" lon="1.80888">
        <ele>449.4</ele>
        <time>2023-03-05T10:00:20Z</time>
      </trkpt>
      <trkpt lat="44.0876" lon="1.80882">
        <ele>449.2</ele>
        <time>2023-03-05T10:00:21Z</time>
      </trkpt>
      <trkpt lat="44.08767" lon="1.80875">
        <ele>448.8</ele>
        <time>2023-03-05T10:00:22Z</time>
      </trkpt>
      <trkpt lat="44.08774" lon="1.80868">
        <ele>448.4</ele>
        <time>2023-03-05T10:00:23Z</time>
      </trkpt>
      <trkpt lat="44.08778" lon="1.80864">
        <ele>448</ele>
        <time>2023-03-05T10:00:24Z</time>
      </trkpt>
      <trkpt lat="44.08784" lon="1.80857">
        <ele>447.8</ele>
        <time>2023-03-05T10:00:25Z</time>
      </trkpt>
      <trkpt lat="44.0879" lon="1.80851">
        <ele>447.6</ele>
        <time>2023-03-05T10:00:26Z</time>
      </trkpt>
      <trkpt lat="44.08796" lon="1.80843">
        <ele>447.6</ele>
        <time>2023-03-05T10:00:27Z</time>
      </trkpt>
      <trkpt lat="44.08802" lon="1.80836">
        <ele>447.2</ele>
        <time>2023-03-05T10:00:28Z</time>
      </trkpt>
      <trkpt lat="44.08808" lon="1.80829">
        <ele>447.2</ele>
        <time>2023-03-05T10:00:29Z</time>
      </trkpt>
      <trkpt lat="44.08814" lon="1.80821">
        <ele>447</ele>
        <time>2023-03-05T10:00:30Z</time>
      </trkpt>
      <trkpt lat="44.0882" lon="1.80814">
        <ele>446.8</ele>
        <time>2023-03-05T10:00:31Z</time>
      </trkpt>
      <trkpt lat="44.08825" lon="1.80806">
        <ele>446.4</ele>
        <time>2023-03-05T10:00:32Z</time>
      </trkpt>
      <trkpt lat="44.0883" lon="1.80798">
        <ele>446</ele>
        <time>2023-03-05T10:00:33Z</time>
      </trkpt>
      <trkpt lat="44.08834" lon="1.8079">
        <ele>445.8</ele>
        <time>2023-03-05T10:00:34Z</time>
      </trkpt>
      <trkpt lat="44.08838" lon="1.80781">
        <ele>445.6</ele>
        <time>2023-03-05T10:00:35Z</time>
      </trkpt>
      <trkpt lat="44.08841" lon="1.80772">
        <ele>445.6</ele>
        <time>2023-03-05T10:00:36Z</time>
      </trkpt>
      <trkpt lat="44.08844" lon="1.80762">
        <ele>445.2</ele>
        <time>2023-03-05T10:00:37Z</time>
      </trkpt>
      <trkpt lat="44.08847" lon="1.80752">
        <ele>445.2</ele>
        <time>2023-03-05T10:00:38Z</time>
      </trkpt>
      <trkpt lat="44.08849" lon="1.80745">
        <ele>444.8</ele>
        <time>2023-03-05T10:00:39Z</time>
      </trkpt>
      <trkpt lat="44.08851" lon="1.80736">
        <ele>444.4</ele>
        <time>2023-03-05T10:00:40Z</time>
      </trkpt>
      <trkpt lat="44.08856" lon="1.80726">
        <ele>444.2</ele>
        <time>2023-03-05T10:00:41Z</time>
      </trkpt>
      <trkpt lat="44.08862" lon="1.80715">
        <ele>444</ele>
        <time>2023-03-05T10:00:42Z</time>
      </trkpt>
      <trkpt lat="44.08867" lon="1.80706">
        <ele>443.6</ele>
        <time>2023-03-05T10:00:43Z</time>
      </trkpt>
      <trkpt lat="44.08872" lon="1.80698">
        <ele>443.4</ele>
        <time>2023-03-05T10:00:44Z</time>
      </trkpt>
      <trkpt lat="44.08877" lon="1.80689">
        <ele>443.2</ele>
        <time>2023-03-05T10:00:45Z</time>
      </trkpt>
      <trkpt lat="44.08882" lon="1.8068">
        <ele>442.6</ele>
        <time>2023-03-05T10:00:46Z</time>
      </trkpt>
      <trkpt lat="44.08888" lon="1.8067">
        <ele>442.2</ele>
        <time>2023-03-05T10:00:47Z</time>
      </trkpt>
      <trkpt lat="44.08892" lon="1.8066">
        <ele>441.6</ele>
        <time>2023-03-05T10:00:48Z</time>
      </trkpt>
      <trkpt lat="44.08895" lon="1.80651">
        <ele>441.4</ele>
        <time>2023-03-05T10:00:49Z</time>
      </trkpt>
      <trkpt lat="44.08898" lon="1.80643">
        <ele>440.8</ele>
        <time>2023-03-05T10:00:50Z</time>
      </trkpt>
      <trkpt lat="44.08902" lon="1.80634">
        <ele>440.6</ele>
        <time>2023-03-05T10:00:51Z</time>
      </trkpt>
      <trkpt lat="44.08908" lon="1.80624">
        <ele>440.2</ele>
        <time>2023-03-05T10:00:52Z</time>
      </trkpt>
      <trkpt lat="44.08914" lon="1.80617">
        <ele>440</ele>
        <time>2023-03-05T10:00:53Z</time>
      </trkpt>
      <trkpt lat="44.0892" lon="1.80612">
        <ele>439.6</ele>
        <time>2023-03-05T10:00:54Z</time>
      </trkpt>
      <trkpt lat="44.08927" lon="1.80608">
        <ele>439</ele>
        <time>2023-03-05T10:00:55Z</time>
      </trkpt>
      <trkpt lat="44.08932" lon="1.80606">
        <ele>438.8</ele>
        <time>2023-03-05T10:00:56Z</time>
      </trkpt>
      <trkpt lat="44.08941" lon="1.80604">
        <ele>438.4</ele>
        <time>2023-03-05T10:00:57Z</time>
      </trkpt>
      <trkpt lat="44.08947" lon="1.80602">
        <ele>438</ele>
        <time>2023-03-05T10:00:58Z</time>
      </trkpt>
      <trkpt lat="44.08954" lon="1.806">
        <ele>437.4</ele>
        <time>2023-03-05T10:00:59Z</time>
      </trkpt>
      <trkpt lat="44.08959" lon="1.80598">
        <ele>437.2</ele>
        <time>2023-03-05T10:01:00Z</time>
      </trkpt>
      <trkpt lat="44.08967" lon="1.80596">
        <ele>436.8</ele>
        <time>2023-03-05T10:01:01Z</time>
      </trkpt>
      <trkpt lat="44.08974" lon="1.80597">
        <ele>436.8</ele>
        <time>2023-03-05T10:01:02Z</time>
      </trkpt>
      <trkpt lat="44.08981" lon="1.80599">
        <ele>436.4</ele>
        <time>2023-03-05T10:01:03Z</time>
      </trkpt>
      <trkpt lat="44.08987" lon="1.80604">
        <ele>436.2</ele>
        <time>2023-03-05T10:01:04Z</time>
      </trkpt>
      <trkpt lat="44.08993" lon="1.8061">
        <ele>435.8</ele>
        <time>2023-03-05T10:01:05Z</time>
      </trkpt>
      <trkpt lat="44.08997" lon="1.80615">
        <ele>435.6</ele>
        <time>2023-03-05T10:01:06Z</time>
      </trkpt>
      <trkpt lat="44.09003" lon="1.80623">
        <ele>435.8</ele>
        <time>2023-03-05T10:01:07Z</time>
      </trkpt>
      <trkpt lat="44.09007" lon="1.8063">
        <ele>435.6</ele>
        <time>2023-03-05T10:01:08Z</time>
      </trkpt>
      <trkpt lat="44.09012" lon="1.80637">
        <ele>435.4</ele>
        <time>2023-03-05T10:01:09Z</time>
      </trkpt>
      <trkpt lat="44.09015" lon="1.80642">
        <ele>435</ele>
        <time>2023-03-05T10:01:10Z</time>
      </trkpt>
      <trkpt lat="44.09021" lon="1.80651">
        <ele>434.8</ele>
        <time>2023-03-05T10:01:11Z</time>
      </trkpt>
      <trkpt lat="44.09025" lon="1.80658">
        <ele>434.4</ele>
        <time>2023-03-05T10:01:12Z</time>
      </trkpt>
      <trkpt lat="44.0903" lon="1.80664">
        <ele>434</ele>
        <time>2023-03-05T10:01:13Z</time>
      </trkpt>
      <trkpt lat="44.09035" lon="1.80671">
        <ele>433.6</ele>
        <time>2023-03-05T10:01:14Z</time>
      </trkpt>
      <trkpt lat="44.0904" lon="1.80677">
        <ele>433.6</ele>
        <time>2023-03-05T10:01:15Z</time>
      </trkpt>
      <trkpt lat="44.09044" lon="1.80682">
        <ele>433.4</ele>
        <time>2023-03-05T10:01:16Z</time>
      </trkpt>
      <trkpt lat="44.0905" lon="1.8069">
        <ele>433.2</ele>
        <time>2023-03-05T10:01:17Z</time>
      </trkpt>
      <trkpt lat="44.09054" lon="1.80697">
        <ele>432.8</ele>
        <time>2023-03-05T10:01:18Z</time>
      </trkpt>
      <trkpt lat="44.09059" lon="1.80704">
        <ele>432.6</ele>
        <time>2023-03-05T10:01:19Z</time>
      </trkpt>
      <trkpt lat="44.09064" lon="1.8071">
        <ele>432.4</ele>
        <time>2023-03-05T10:01:20Z</time>
      </trkpt>
      <trkpt lat="44.09069" lon="1.80716">
        <ele>432.2</ele>
        <time>2023-03-05T10:01:21Z</time>
      </trkpt>
      <trkpt lat="44.09073" lon="1.8072">
        <ele>432.2</ele>
        <time>2023-03-05T10:01:22Z</time>
      </trkpt>
      <trkpt lat="44.09079" lon="1.80727">
        <ele>432</ele>
        <time>2023-03-05T10:01:23Z</time>
      </trkpt>
      <trkpt lat="44.09084" lon="1.80733">
        <ele>432</ele>
        <time>2023-03-05T10:01:24Z</time>
      </trkpt>
      <trkpt lat="44.09089" lon="1.80738">
        <ele>432</ele>
        <time>2023-03-05T10:01:25Z</time>
      </trkpt>
      <trkpt lat="44.09094" lon="1.80743">
        <ele>431.8</ele>
        <time>2023-03-05T10:01:26Z</time>
      </trkpt>
      <trkpt lat="44.09099" lon="1.80749">
        <ele>431.6</ele>
        <time>2023-03-05T10:01:27Z</time>
      </trkpt>
      <trkpt lat="44.09104" lon="1.80754">
        <ele>431.6</ele>
        <time>2023-03-05T10:01:28Z</time>
      </trkpt>
      <trkpt lat="44.09109" lon="1.8076">
        <ele>431.6</ele>
        <time>2023-03-05T10:01:29Z</time>
      </trkpt>
      <trkpt lat="44.09114" lon="1.80765">
        <ele>431.6</ele>
        <time>2023-03-05T10:01:30Z</time>
      </trkpt>
      <trkpt lat="44.0912" lon="1.8077">
        <ele>431.6</ele>
        <time>2023-03-05T10:01:31Z</time>
      </trkpt>
      <trkpt lat="44.09126" lon="1.80776">
        <ele>431.6</ele>
        <time>2023-03-05T10:01:32Z</time>
      </trkpt>
      <trkpt lat="44.09131" lon="1.80782">
        <ele>431.6</ele>
        <time>2023-03-05T10:01:33Z</time>
      </trkpt>
      <trkpt lat="44.09136" lon="1.80788">
        <ele>431.6</ele>
        <time>2023-03-05T10:01:34Z</time>
      </trkpt>
      <trkpt lat="44.09141" lon="1.80794">
        <ele>431.6</ele>
        <time>2023-03-05T10:01:35Z</time>
      </trkpt>
      <trkpt lat="44.09146" lon="1.808">
        <ele>431.6</ele>
        <time>2023-03-05T10:01:36Z</time>
      </trkpt>
      <trkpt lat="44.09152" lon="1.80806">
        <ele>431.4</ele>
        <time>2023-03-05T10:01:37Z</time>
      </trkpt>
      <trkpt lat="44.09157" lon="1.80811">
        <ele>431.4</ele>
        <time>2023-03-05T10:01:38Z</time>
      </trkpt>
      <trkpt lat="44.09162" lon="1.80817">
        <ele>431.4</ele>
        <time>2023-03-05T10:01:39Z</time>
      </trkpt>
      <trkpt lat="44.09168" lon="1.80823">
        <ele>431.4</ele>
        <time>2023-03-05T10:01:40Z</time>
      </trkpt>
      <trkpt lat="44.09174" lon="1.80829">
        <ele>431.2</ele>
        <time>2023-03-05T10:01:41Z</time>
      </trkpt>
      <trkpt lat="44.09179" lon="1.80834">
        <ele>431.2</ele>
        <time>2023-03-05T10:01:42Z</time>
      </trkpt>
      <trkpt lat="44.09185" lon="1.80839">
        <ele>431.2</ele>
        <time>2023-03-05T10:01:43Z</time>
      </trkpt>
      <trkpt lat="44.0919" lon="1.80844">
        <ele>431.2</ele>
        <time>2023-03-05T10:01:44Z</time>
      </trkpt>
      <trkpt lat="44.09194" lon="1.80848">
        <ele>431</ele>
        <time>2023-03-05T10:01:45Z</time>
      </trkpt>
      <trkpt lat="44.09199" lon="1.80853">
        <ele>431</ele>
        <time>2023-03-05T10:01:46Z</time>
      </trkpt>
      <trkpt lat="44.09205" lon="1.80859">
        <ele>430.8</ele>
        <time>2023-03-05T10:01:47Z</time>
      </trkpt>
      <trkpt lat="44.0921" lon="1.80863">
        <ele>430.6</ele>
        <time>2023-03-05T10:01:48Z</time>
      </trkpt>
      <trkpt lat="44.09216" lon="1.80867">
        <ele>430.6</ele>
        <time>2023-03-05T10:01:49Z</time>
      </trkpt>
      <trkpt lat="44.09221" lon="1.8087">
        <ele>430.6</ele>
        <time>2023-03-05T10:01:50Z</time>
      </trkpt>
      <trkpt lat="44.09227" lon="1.80874">
        <ele>430.4</ele>
        <time>2023-03-05T10:01:51Z</time>
      </trkpt>
      <trkpt lat="44.09234" lon="1.80878">
        <ele>430.4</ele>
        <time>2023-03-05T10:01:52Z</time>
      </trkpt>
      <trkpt lat="44.0924" lon="1.8088">
        <ele>430.6</ele>
        <time>2023-03-05T10:01:53Z</time>
      </trkpt>
      <trkpt lat="44.09247" lon="1.80883">
        <ele>430.6</ele>
        <time>2023-03-05T10:01:54Z</time>
      </trkpt>
      <trkpt lat="44.09252" lon="1.80885">
        <ele>430.6</ele>
        <time>2023-03-05T10:01:55Z</time>
      </trkpt>
      <trkpt lat="44.09259" lon="1.80887">
        <ele>430.6</ele>
        <time>2023-03-05T10:01:56Z</time>
      </trkpt>
      <trkpt lat="44.09266" lon="1.80891">
        <ele>430.6</ele>
        <time>2023-03-05T10:01:57Z</time>
      </trkpt>
      <trkpt lat="44.09271" lon="1.80893">
        <ele>430.6</ele>
        <time>2023-03-05T10:01:58Z</time>
      </trkpt>
      <trkpt lat="44.09277" lon="1.80895">
        <ele>430.6</ele>
        <time>2023-03-05T10:01:59Z</time>
      </trkpt>
      <trkpt lat="44.09283" lon="1.80898">
        <ele>430.6</ele>
        <time>2023-03-05T10:02:00Z</time>
      </trkpt>
      <trkpt lat="44.09289" lon="1.80901">
        <ele>430.6</ele>
        <time>2023-03-05T10:02:01Z</time>
      </trkpt>
      <trkpt lat="44.09297" lon="1.80905">
        <ele>430.6</ele>
        <time>2023-03-05T10:02:02Z</time>
      </trkpt>
      <trkpt lat="44.09304" lon="1.80908">
        <ele>430.4</ele>
        <time>2023-03-05T10:02:03Z</time>
      </trkpt>
      <trkpt lat="44.09309" lon="1.80911">
        <ele>430.4</ele>
        <time>2023-03-05T10:02:04Z</time>
      </trkpt>
      <trkpt lat="44.09316" lon="1.80914">
        <ele>430.2</ele>
        <time>2023-03-05T10:02:05Z</time>
      </trkpt>
      <trkpt lat="44.09323" lon="1.80919">
        <ele>430</ele>
        <time>2023-03-05T10:02:06Z</time>
      </trkpt>
      <trkpt lat="44.09331" lon="1.80923">
        <ele>429.8</ele>
        <time>2023-03-05T10:02:07Z</time>
      </trkpt>
      <trkpt lat="44.09337" lon="1.80928">
        <ele>429.8</ele>
        <time>2023-03-05T10:02:08Z</time>
      </trkpt>
      <trkpt lat="44.09343" lon="1.80932">
        <ele>429.6</ele>
        <time>2023-03-05T10:02:09Z</time>
      </trkpt>
      <trkpt lat="44.09348" lon="1.80935">
        <ele>429.4</ele>
        <time>2023-03-05T10:02:10Z</time>
      </trkpt>
      <trkpt lat="44.09354" lon="1.80939">
        <ele>429.2</ele>
        <time>2023-03-05T10:02:11Z</time>
      </trkpt>
      <trkpt lat="44.09361" lon="1.80944">
        <ele>429.2</ele>
        <time>2023-03-05T10:02:12Z</time>
      </trkpt>
      <trkpt lat="44.09368" lon="1.80947">
        <ele>429</ele>
        <time>2023-03-05T10:02:13Z</time>
      </trkpt>
      <trkpt lat="44.09374" lon="1.80951">
        <ele>428.8</ele>
        <time>2023-03-05T10:02:14Z</time>
      </trkpt>
      <trkpt lat="44.09379" lon="1.80954">
        <ele>428.6</ele>
        <time>2023-03-05T10:02:15Z</time>
      </trkpt>
      <trkpt lat="44.09386" lon="1.80957">
        <ele>428.4</ele>
        <time>2023-03-05T10:02:16Z</time>
      </trkpt>
      <trkpt lat="44.09393" lon="1.80961">
        <ele>428.4</ele>
        <time>2023-03-05T10:02:17Z</time>
      </trkpt>
      <trkpt lat="44.094" lon="1.80963">
        <ele>428.4</ele>
        <time>2023-03-05T10:02:18Z</time>
      </trkpt>
      <trkpt lat="44.09406" lon="1.80966">
        <ele>428.2</ele>
        <time>2023-03-05T10:02:19Z</time>
      </trkpt>
      <trkpt lat="44.09411" lon="1.80968">
        <ele>428.2</ele>
        <time>2023-03-05T10:02:20Z</time>
      </trkpt>
      <trkpt lat="44.09417" lon="1.8097">
        <ele>428.2</ele>
        <time>2023-03-05T10:02:21Z</time>
      </trkpt>
      <trkpt lat="44.09423" lon="1.80972">
        <ele>428.2</ele>
        <time>2023-03-05T10:02:22Z</time>
      </trkpt>
      <trkpt lat="44.09431" lon="1.80975">
        <ele>428</ele>
        <time>2023-03-05T10:02:23Z</time>
      </trkpt>
      <trkpt lat="44.09437" lon="1.80977">
        <ele>428</ele>
        <time>2023-03-05T10:02:24Z</time>
      </trkpt>
      <trkpt lat="44.09441" lon="1.80978">
        <ele>428</ele>
        <time>2023-03-05T10:02:25Z</time>
      </trkpt>
      <trkpt lat="44.09448" lon="1.80979">
        <ele>427.8</ele>
        <time>2023-03-05T10:02:26Z</time>
      </trkpt>
      <trkpt lat="44.09455" lon="1.80979">
        <ele>427.8</ele>
        <time>2023-03-05T10:02:27Z</time>
      </trkpt>
      <trkpt lat="44.09463" lon="1.80979">
        <ele>427.8</ele>
        <time>2023-03-05T10:02:28Z</time>
      </trkpt>
      <trkpt lat="44.09469" lon="1.8098">
        <ele>427.8</ele>
        <time>2023-03-05T10:02:29Z</time>
      </trkpt>
      <trkpt lat="44.09474" lon="1.80979">
        <ele>427.8</ele>
        <time>2023-03-05T10:02:30Z</time>
      </trkpt>
      <trkpt lat="44.09481" lon="1.80979">
        <ele>427.8</ele>
        <time>2023-03-05T10:02:31Z</time>
      </trkpt>
      <trkpt lat="44.09487" lon="1.80979">
        <ele>427.6</ele>
        <time>2023-03-05T10:02:32Z</time>
      </trkpt>
      <trkpt lat="44.09495" lon="1.80978">
        <ele>427.6</ele>
        <time>2023-03-05T10:02:33Z</time>
      </trkpt>
      <trkpt lat="44.09502" lon="1.80978">
        <ele>427.4</ele>
        <time>2023-03-05T10:02:34Z</time>
      </trkpt>
      <trkpt lat="44.09507" lon="1.80978">
        <ele>427.4</ele>
        <time>2023-03-05T10:02:35Z</time>
      </trkpt>
      <trkpt lat="44.09514" lon="1.80977">
        <ele>427.2</ele>
        <time>2023-03-05T10:02:36Z</time>
      </trkpt>
      <trkpt lat="44.09521" lon="1.80977">
        <ele>427</ele>
        <time>2023-03-05T10:02:37Z</time>
      </trkpt>
      <trkpt lat="44.0953" lon="1.80977">
        <ele>427</ele>
        <time>2023-03-05T10:02:38Z</time>
      </trkpt>
      <trkpt lat="44.09538" lon="1.80977">
        <ele>426.8</ele>
        <time>2023-03-05T10:02:39Z</time>
      </trkpt>
      <trkpt lat="44.09545" lon="1.80978">
        <ele>426.4</ele>
        <time>2023-03-05T10:02:40Z</time>
      </trkpt>
      <trkpt lat="44.09553" lon="1.80978">
        <ele>426.2</ele>
        <time>2023-03-05T10:02:41Z</time>
      </trkpt>
      <trkpt lat="44.09563" lon="1.80979">
        <ele>426</ele>
        <time>2023-03-05T10:02:42Z</time>
      </trkpt>
      <trkpt lat="44.09571" lon="1.80981">
        <ele>426</ele>
        <time>2023-03-05T10:02:43Z</time>
      </trkpt>
      <trkpt lat="44.09579" lon="1.80983">
        <ele>425.4</ele>
        <time>2023-03-05T10:02:44Z</time>
      </trkpt>
      <trkpt lat="44.09585" lon="1.80985">
        <ele>424.8</ele>
        <time>2023-03-05T10:02:45Z</time>
      </trkpt>
      <trkpt lat="44.09593" lon="1.80989">
        <ele>424.2</ele>
        <time>2023-03-05T10:02:46Z</time>
      </trkpt>
      <trkpt lat="44.09603" lon="1.80993">
        <ele>424</ele>
        <time>2023-03-05T10:02:47Z</time>
      </trkpt>
      <trkpt lat="44.09611" lon="1.80997">
        <ele>423.4</ele>
        <time>2023-03-05T10:02:48Z</time>
      </trkpt>
      <trkpt lat="44.09618" lon="1.81002">
        <ele>422.2</ele>
        <time>2023-03-05T10:02:49Z</time>
      </trkpt>
      <trkpt lat="44.09625" lon="1.81007">
        <ele>422</ele>
        <time>2023-03-05T10:02:50Z</time>
      </trkpt>
      <trkpt lat="44.09633" lon="1.81012">
        <ele>421.4</ele>
        <time>2023-03-05T10:02:51Z</time>
      </trkpt>
      <trkpt lat="44.0964" lon="1.81017">
        <ele>421</ele>
        <time>2023-03-05T10:02:52Z</time>
      </trkpt>
      <trkpt lat="44.09648" lon="1.81023">
        <ele>420.4</ele>
        <time>2023-03-05T10:02:53Z</time>
      </trkpt>
      <trkpt lat="44.09655" lon="1.81027">
        <ele>420.2</ele>
        <time>2023-03-05T10:02:54Z</time>
      </trkpt>
      <trkpt lat="44.09659" lon="1.81029">
        <ele>419.6</ele>
        <time>2023-03-05T10:02:55Z</time>
      </trkpt>
      <trkpt lat="44.09664" lon="1.81033">
        <ele>419.2</ele>
        <time>2023-03-05T10:02:56Z</time>
      </trkpt>
      <trkpt lat="44.09667" lon="1.81039">
        <ele>418.4</ele>
        <time>2023-03-05T10:02:57Z</time>
      </trkpt>
      <trkpt lat="44.09668" lon="1.81047">
        <ele>417.8</ele>
        <time>2023-03-05T10:02:58Z</time>
      </trkpt>
      <trkpt lat="44.09667" lon="1.81054">
        <ele>417</ele>
        <time>2023-03-05T10:02:59Z</time>
      </trkpt>
      <trkpt lat="44.09666" lon="1.81061">
        <ele>416.4</ele>
        <time>2023-03-05T10:03:00Z</time>
      </trkpt>
      <trkpt lat="44.09664" lon="1.81068">
        <ele>416.2</ele>
        <time>2023-03-05T10:03:01Z</time>
      </trkpt>
      <trkpt lat="44.09663" lon="1.81076">
        <ele>415.8</ele>
        <time>2023-03-05T10:03:02Z</time>
      </trkpt>
      <trkpt lat="44.09661" lon="1.81084">
        <ele>415.6</ele>
        <time>2023-03-05T10:03:03Z</time>
      </trkpt>
      <trkpt lat="44.09659" lon="1.81093">
        <ele>415.2</ele>
        <time>2023-03-05T10:03:04Z</time>
      </trkpt>
      <trkpt lat="44.09657" lon="1.81102">
        <ele>415.2</ele>
        <time>2023-03-05T10:03:05Z</time>
      </trkpt>
      <trkpt lat="44.09655" lon="1.81111">
        <ele>414.8</ele>
        <time>2023-03-05T10:03:06Z</time>
      </trkpt>
      <trkpt lat="44.09653" lon="1.81121">
        <ele>414.6</ele>
        <time>2023-03-05T10:03:07Z</time>
      </trkpt>
      <trkpt lat="44.0965" lon="1.81134">
        <ele>414.4</ele>
        <time>2023-03-05T10:03:08Z</time>
      </trkpt>
      <trkpt lat="44.09648" lon="1.81145">
        <ele>414.2</ele>
        <time>2023-03-05T10:03:09Z</time>
      </trkpt>
      <trkpt lat="44.09645" lon="1.81155">
        <ele>414</ele>
        <time>2023-03-05T10:03:10Z</time>
      </trkpt>
      <trkpt lat="44.09642" lon="1.81166">
        <ele>413.6</ele>
        <time>2023-03-05T10:03:11Z</time>
      </trkpt>
      <trkpt lat="44.0964" lon="1.81176">
        <ele>413</ele>
        <time>2023-03-05T10:03:12Z</time>
      </trkpt>
      <trkpt lat="44.09637" lon="1.81186">
        <ele>412.2</ele>
        <time>2023-03-05T10:03:13Z</time>
      </trkpt>
      <trkpt lat="44.09635" lon="1.81195">
        <ele>411.8</ele>
        <time>2023-03-05T10:03:14Z</time>
      </trkpt>
      <trkpt lat="44.09633" lon="1.81203">
        <ele>411.4</ele>
        <time>2023-03-05T10:03:15Z</time>
      </trkpt>
      <trkpt lat="44.09631" lon="1.81212">
        <ele>411.2</ele>
        <time>2023-03-05T10:03:16Z</time>
      </trkpt>
      <trkpt lat="44.09629" lon="1.81223">
        <ele>411</ele>
        <time>2023-03-05T10:03:17Z</time>
      </trkpt>
      <trkpt lat="44.09626" lon="1.81231">
        <ele>410.8</ele>
        <time>2023-03-05T10:03:18Z</time>
      </trkpt>
      <trkpt lat="44.09625" lon="1.8124">
        <ele>410.4</ele>
        <time>2023-03-05T10:03:19Z</time>
      </trkpt>
      <trkpt lat="44.09623" lon="1.81247">
        <ele>410</ele>
        <time>2023-03-05T10:03:20Z</time>
      </trkpt>
      <trkpt lat="44.0962" lon="1.81256">
        <ele>409.8</ele>
        <time>2023-03-05T10:03:21Z</time>
      </trkpt>
      <trkpt lat="44.09617" lon="1.81265">
        <ele>409.6</ele>
        <time>2023-03-05T10:03:22Z</time>
      </trkpt>
      <trkpt lat="44.09614" lon="1.81275">
        <ele>409</ele>
        <time>2023-03-05T10:03:23Z</time>
      </trkpt>
      <trkpt lat="44.09612" lon="1.81284">
        <ele>408.8</ele>
        <time>2023-03-05T10:03:24Z</time>
      </trkpt>
      <trkpt lat="44.0961" lon="1.81292">
        <ele>408.6</ele>
        <time>2023-03-05T10:03:25Z</time>
      </trkpt>
      <trkpt lat="44.09607" lon="1.81301">
        <ele>408.4</ele>
        <time>2023-03-05T10:03:26Z</time>
      </trkpt>
      <trkpt lat="44.09604" lon="1.8131">
        <ele>408.4</ele>
        <time>2023-03-05T10:03:27Z</time>
      </trkpt>
      <trkpt lat="44.09601" lon="1.81321">
        <ele>408</ele>
        <time>2023-03-05T10:03:28Z</time>
      </trkpt>
      <trkpt lat="44.09598" lon="1.8133">
        <ele>407.6</ele>
        <time>2023-03-05T10:03:29Z</time>
      </trkpt>
      <trkpt lat="44.09596" lon="1.81338">
        <ele>407.2</ele>
        <time>2023-03-05T10:03:30Z</time>
      </trkpt>
      <trkpt lat="44.09594" lon="1.81347">
        <ele>407</ele>
        <time>2023-03-05T10:03:31Z</time>
      </trkpt>
      <trkpt lat="44.09592" lon="1.81356">
        <ele>406.6</ele>
        <time>2023-03-05T10:03:32Z</time>
      </trkpt>
      <trkpt lat="44.09589" lon="1.81366">
        <ele>406.6</ele>
        <time>2023-03-05T10:03:33Z</time>
      </trkpt>
      <trkpt lat="44.09587" lon="1.81377">
        <ele>406.2</ele>
        <time>2023-03-05T10:03:34Z</time>
      </trkpt>
      <trkpt lat="44.09584" lon="1.81385">
        <ele>405.6</ele>
        <time>2023-03-05T10:03:35Z</time>
      </trkpt>
      <trkpt lat="44.0958" lon="1.81395">
        <ele>405</ele>
        <time>2023-03-05T10:03:36Z</time>
      </trkpt>
      <trkpt lat="44.09576" lon="1.81406">
        <ele>404.4</ele>
        <time>2023-03-05T10:03:37Z</time>
      </trkpt>
      <trkpt lat="44.0957" lon="1.81419">
        <ele>404.2</ele>
        <time>2023-03-05T10:03:38Z</time>
      </trkpt>
      <trkpt lat="44.09564" lon="1.81431">
        <ele>404</ele>
        <time>2023-03-05T10:03:39Z</time>
      </trkpt>
      <trkpt lat="44.0956" lon="1.8144">
        <ele>403.6</ele>
        <time>2023-03-05T10:03:40Z</time>
      </trkpt>
      <trkpt lat="44.09554" lon="1.81453">
        <ele>402.6</ele>
        <time>2023-03-05T10:03:41Z</time>
      </trkpt>
      <trkpt lat="44.09549" lon="1.81464">
        <ele>402</ele>
        <time>2023-03-05T10:03:42Z</time>
      </trkpt>
      <trkpt lat="44.09543" lon="1.81477">
        <ele>400.8</ele>
        <time>2023-03-05T10:03:43Z</time>
      </trkpt>
      <trkpt lat="44.09538" lon="1.81487">
        <ele>400.6</ele>
        <time>2023-03-05T10:03:44Z</time>
      </trkpt>
      <trkpt lat="44.09535" lon="1.81496">
        <ele>399.6</ele>
        <time>2023-03-05T10:03:45Z</time>
      </trkpt>
      <trkpt lat="44.09529" lon="1.81506">
        <ele>398.4</ele>
        <time>2023-03-05T10:03:46Z</time>
      </trkpt>
      <trkpt lat="44.09523" lon="1.81517">
        <ele>397.8</ele>
        <time>2023-03-05T10:03:47Z</time>
      </trkpt>
      <trkpt lat="44.09518" lon="1.81526">
        <ele>397.2</ele>
        <time>2023-03-05T10:03:48Z</time>
      </trkpt>
      <trkpt lat="44.09514" lon="1.81535">
        <ele>397</ele>
        <time>2023-03-05T10:03:49Z</time>
      </trkpt>
      <trkpt lat="44.09511" lon="1.81541">
        <ele>396.8</ele>
        <time>2023-03-05T10:03:50Z</time>
      </trkpt>
      <trkpt lat="44.09507" lon="1.81549">
        <ele>396.4</ele>
        <time>2023-03-05T10:03:51Z</time>
      </trkpt>
      <trkpt lat="44.09504" lon="1.81557">
        <ele>396</ele>
        <time>2023-03-05T10:03:52Z</time>
      </trkpt>
      <trkpt lat="44.09499" lon="1.81566">
        <ele>395.8</ele>
        <time>2023-03-05T10:03:53Z</time>
      </trkpt>
      <trkpt lat="44.09496" lon="1.81574">
        <ele>395.8</ele>
        <time>2023-03-05T10:03:54Z</time>
      </trkpt>
      <trkpt lat="44.09493" lon="1.8158">
        <ele>395.6</ele>
        <time>2023-03-05T10:03:55Z</time>
      </trkpt>
      <trkpt lat="44.0949" lon="1.81586">
        <ele>395.4</ele>
        <time>2023-03-05T10:03:56Z</time>
      </trkpt>
      <trkpt lat="44.09486" lon="1.81594">
        <ele>395.4</ele>
        <time>2023-03-05T10:03:57Z</time>
      </trkpt>
      <trkpt lat="44.09484" lon="1.816">
        <ele>395.2</ele>
        <time>2023-03-05T10:03:58Z</time>
      </trkpt>
      <trkpt lat="44.09481" lon="1.81606">
        <ele>395.2</ele>
        <time>2023-03-05T10:03:59Z</time>
      </trkpt>
      <trkpt lat="44.09478" lon="1.81611">
        <ele>395.2</ele>
        <time>2023-03-05T10:04:00Z</time>
      </trkpt>
      <trkpt lat="44.09475" lon="1.81617">
        <ele>395.2</ele>
        <time>2023-03-05T10:04:01Z</time>
      </trkpt>
      <trkpt lat="44.09471" lon="1.81623">
        <ele>395.2</ele>
        <time>2023-03-05T10:04:02Z</time>
      </trkpt>
      <trkpt lat="44.09468" lon="1.81628">
        <ele>395.2</ele>
        <time>2023-03-05T10:04:03Z</time>
      </trkpt>
      <trkpt lat="44.09465" lon="1.81633">
        <ele>395.2</ele>
        <time>2023-03-05T10:04:04Z</time>
      </trkpt>
      <trkpt lat="44.09463" lon="1.81637">
        <ele>395.2</ele>
        <time>2023-03-05T10:04:05Z</time>
      </trkpt>
      <trkpt lat="44.09461" lon="1.81642">
        <ele>395.4</ele>
        <time>2023-03-05T10:04:06Z</time>
      </trkpt>
      <trkpt lat="44.09458" lon="1.81649">
        <ele>395.4</ele>
        <time>2023-03-05T10:04:07Z</time>
      </trkpt>
      <trkpt lat="44.09456" lon="1.81654">
        <ele>395.8</ele>
        <time>2023-03-05T10:04:08Z</time>
      </trkpt>
      <trkpt lat="44.09454" lon="1.81659">
        <ele>396</ele>
        <time>2023-03-05T10:04:09Z</time>
      </trkpt>
      <trkpt lat="44.09452" lon="1.81665">
        <ele>396.4</ele>
        <time>2023-03-05T10:04:10Z</time>
      </trkpt>
      <trkpt lat="44.09451" lon="1.8167">
        <ele>396.6</ele>
        <time>2023-03-05T10:04:11Z</time>
      </trkpt>
      <trkpt lat="44.09448" lon="1.81676">
        <ele>397</ele>
        <time>2023-03-05T10:04:12Z</time>
      </trkpt>
      <trkpt lat="44.09445" lon="1.81682">
        <ele>397.2</ele>
        <time>2023-03-05T10:04:13Z</time>
      </trkpt>
      <trkpt lat="44.09442" lon="1.81688">
        <ele>397.4</ele>
        <time>2023-03-05T10:04:14Z</time>
      </trkpt>
      <trkpt lat="44.09439" lon="1.81694">
        <ele>397.4</ele>
        <time>2023-03-05T10:04:15Z</time>
      </trkpt>
      <trkpt lat="44.09436" lon="1.817">
        <ele>397.6</ele>
        <time>2023-03-05T10:04:16Z</time>
      </trkpt>
      <trkpt lat="44.09433" lon="1.81707">
        <ele>397.6</ele>
        <time>2023-03-05T10:04:17Z</time>
      </trkpt>
      <trkpt lat="44.0943" lon="1.81713">
        <ele>397.6</ele>
        <time>2023-03-05T10:04:18Z</time>
      </trkpt>
      <trkpt lat="44.09427" lon="1.8172">
        <ele>397.8</ele>
        <time>2023-03-05T10:04:19Z</time>
      </trkpt>
      <trkpt lat="44.09425" lon="1.81727">
        <ele>397.8</ele>
        <time>2023-03-05T10:04:20Z</time>
      </trkpt>
      <trkpt lat="44.09422" lon="1.81734">
        <ele>397.8</ele>
        <time>2023-03-05T10:04:21Z</time>
      </trkpt>
      <trkpt lat="44.09419" lon="1.81741">
        <ele>397.8</ele>
        <time>2023-03-05T10:04:22Z</time>
      </trkpt>
      <trkpt lat="44.09415" lon="1.81747">
        <ele>397.8</ele>
        <time>2023-03-05T10:04:23Z</time>
      </trkpt>
      <trkpt lat="44.09411" lon="1.81752">
        <ele>397.8</ele>
        <time>2023-03-05T10:04:24Z</time>
      </trkpt>
      <trkpt lat="44.09407" lon="1.81756">
        <ele>397.8</ele>
        <time>2023-03-05T10:04:25Z</time>
      </trkpt>
      <trkpt lat="44.09403" lon="1.8176">
        <ele>397.8</ele>
        <time>2023-03-05T10:04:26Z</time>
      </trkpt>
      <trkpt lat="44.09399" lon="1.81763">
        <ele>397.6</ele>
        <time>2023-03-05T10:04:27Z</time>
      </trkpt>
      <trkpt lat="44.09396" lon="1.81765">
        <ele>397.6</ele>
        <time>2023-03-05T10:04:28Z</time>
      </trkpt>
      <trkpt lat="44.09391" lon="1.81769">
        <ele>397.8</ele>
        <time>2023-03-05T10:04:29Z</time>
      </trkpt>
      <trkpt lat="44.09388" lon="1.81772">
        <ele>397.8</ele>
        <time>2023-03-05T10:04:30Z</time>
      </trkpt>
      <trkpt lat="44.09384" lon="1.81775">
        <ele>397.8</ele>
        <time>2023-03-05T10:04:31Z</time>
      </trkpt>
      <trkpt lat="44.09381" lon="1.81779">
        <ele>397.8</ele>
        <time>2023-03-05T10:04:32Z</time>
      </trkpt>
      <trkpt lat="44.09378" lon="1.81783">
        <ele>398</ele>
        <time>2023-03-05T10:04:33Z</time>
      </trkpt>
      <trkpt lat="44.09375" lon="1.81786">
        <ele>398.2</ele>
        <time>2023-03-05T10:04:34Z</time>
      </trkpt>
      <trkpt lat="44.09372" lon="1.8179">
        <ele>398.2</ele>
        <time>2023-03-05T10:04:35Z</time>
      </trkpt>
      <trkpt lat="44.0937" lon="1.81793">
        <ele>398.4</ele>
        <time>2023-03-05T10:04:36Z</time>
      </trkpt>
      <trkpt lat="44.09367" lon="1.81796">
        <ele>398.6</ele>
        <time>2023-03-05T10:04:37Z</time>
      </trkpt>
      <trkpt lat="44.09364" lon="1.81799">
        <ele>398.6</ele>
        <time>2023-03-05T10:04:38Z</time>
      </trkpt>
      <trkpt lat="44.09362" lon="1.81802">
        <ele>398.8</ele>
        <time>2023-03-05T10:04:39Z</time>
      </trkpt>
      <trkpt lat="44.09359" lon="1.81805">
        <ele>399</ele>
        <time>2023-03-05T10:04:40Z</time>
      </trkpt>
      <trkpt lat="44.09356" lon="1.81808">
        <ele>399.2</ele>
        <time>2023-03-05T10:04:41Z</time>
      </trkpt>
      <trkpt lat="44.09354" lon="1.81811">
        <ele>399.6</ele>
        <time>2023-03-05T10:04:42Z</time>
      </trkpt>
      <trkpt lat="44.09352" lon="1.81814">
        <ele>399.8</ele>
        <time>2023-03-05T10:04:43Z</time>
      </trkpt>
      <trkpt lat="44.09349" lon="1.81817">
        <ele>400</ele>
        <time>2023-03-05T10:04:44Z</time>
      </trkpt>
      <trkpt lat="44.09346" lon="1.81819">
        <ele>400.4</ele>
        <time>2023-03-05T10:04:45Z</time>
      </trkpt>
      <trkpt lat="44.09343" lon="1.81822">
        <ele>400.6</ele>
        <time>2023-03-05T10:04:46Z</time>
      </trkpt>
      <trkpt lat="44.09341" lon="1.81825">
        <ele>401</ele>
        <time>2023-03-05T10:04:47Z</time>
      </trkpt>
      <trkpt lat="44.09338" lon="1.81828">
        <ele>401.2</ele>
        <time>2023-03-05T10:04:48Z</time>
      </trkpt>
      <trkpt lat="44.09335" lon="1.8183">
        <ele>401.6</ele>
        <time>2023-03-05T10:04:49Z</time>
      </trkpt>
      <trkpt lat="44.09333" lon="1.81833">
        <ele>401.8</ele>
        <time>2023-03-05T10:04:50Z</time>
      </trkpt>
      <trkpt lat="44.0933" lon="1.81836">
        <ele>402</ele>
        <time>2023-03-05T10:04:51Z</time>
      </trkpt>
      <trkpt lat="44.09328" lon="1.81838">
        <ele>402.2</ele>
        <time>2023-03-05T10:04:52Z</time>
      </trkpt>
      <trkpt lat="44.09326" lon="1.81841">
        <ele>402.2</ele>
        <time>2023-03-05T10:04:53Z</time>
      </trkpt>
      <trkpt lat="44.09323" lon="1.81843">
        <ele>402.6</ele>
        <time>2023-03-05T10:04:54Z</time>
      </trkpt>
      <trkpt lat="44.09321" lon="1.81845">
        <ele>402.8</ele>
        <time>2023-03-05T10:04:55Z</time>
      </trkpt>
      <trkpt lat="44.09319" lon="1.81847">
        <ele>403.2</ele>
        <time>2023-03-05T10:04:56Z</time>
      </trkpt>
      <trkpt lat="44.09316" lon="1.81848">
        <ele>403.4</ele>
        <time>2023-03-05T10:04:57Z</time>
      </trkpt>
      <trkpt lat="44.09313" lon="1.81851">
        <ele>403.8</ele>
        <time>2023-03-05T10:04:58Z</time>
      </trkpt>
      <trkpt lat="44.09311" lon="1.81854">
        <ele>403.6</ele>
        <time>2023-03-05T10:04:59Z</time>
      </trkpt>
      <trkpt lat="44.09309" lon="1.81856">
        <ele>404.2</ele>
        <time>2023-03-05T10:05:00Z</time>
      </trkpt>
      <trkpt lat="44.09306" lon="1.81859">
        <ele>404.4</ele>
        <time>2023-03-05T10:05:01Z</time>
      </trkpt>
      <trkpt lat="44.09304" lon="1.81862">
        <ele>404.8</ele>
        <time>2023-03-05T10:05:02Z</time>
      </trkpt>
      <trkpt lat="44.09302" lon="1.81864">
        <ele>405</ele>
        <time>2023-03-05T10:05:03Z</time>
      </trkpt>
      <trkpt lat="44.09299" lon="1.81867">
        <ele>405.6</ele>
        <time>2023-03-05T10:05:04Z</time>
      </trkpt>
      <trkpt lat="44.09297" lon="1.81871">
        <ele>406.2</ele>
        <time>2023-03-05T10:05:05Z</time>
      </trkpt>
      <trkpt lat="44.09294" lon="1.81874">
        <ele>406.2</ele>
        <time>2023-03-05T10:05:06Z</time>
      </trkpt>
      <trkpt lat="44.09292" lon="1.81878">
        <ele>406.4</ele>
        <time>2023-03-05T10:05:07Z</time>
      </trkpt>
      <trkpt lat="44.09289" lon="1.81882">
        <ele>406.4</ele>
        <time>2023-03-05T10:05:08Z</time>
      </trkpt>
      <trkpt lat="44.09287" lon="1.81886">
        <ele>406.6</ele>
        <time>2023-03-05T10:05:09Z</time>
      </trkpt>
      <trkpt lat="44.09285" lon="1.8189">
        <ele>406.8</ele>
        <time>2023-03-05T10:05:10Z</time>
      </trkpt>
      <trkpt lat="44.09282" lon="1.81894">
        <ele>407</ele>
        <time>2023-03-05T10:05:11Z</time>
      </trkpt>
      <trkpt lat="44.0928" lon="1.81898">
        <ele>407</ele>
        <time>2023-03-05T10:05:12Z</time>
      </trkpt>
      <trkpt lat="44.09279" lon="1.81902">
        <ele>407.2</ele>
        <time>2023-03-05T10:05:13Z</time>
      </trkpt>
      <trkpt lat="44.09277" lon="1.81907">
        <ele>407.2</ele>
        <time>2023-03-05T10:05:14Z</time>
      </trkpt>
      <trkpt lat="44.09275" lon="1.81911">
        <ele>407.2</ele>
        <time>2023-03-05T10:05:15Z</time>
      </trkpt>
      <trkpt lat="44.09273" lon="1.81916">
        <ele>407.4</ele>
        <time>2023-03-05T10:05:16Z</time>
      </trkpt>
      <trkpt lat="44.09271" lon="1.81921">
        <ele>407.4</ele>
        <time>2023-03-05T10:05:17Z</time>
      </trkpt>
      <trkpt lat="44.09269" lon="1.81925">
        <ele>407.6</ele>
        <time>2023-03-05T10:05:18Z</time>
      </trkpt>
      <trkpt lat="44.09268" lon="1.81929">
        <ele>407.6</ele>
        <time>2023-03-05T10:05:19Z</time>
      </trkpt>
      <trkpt lat="44.09267" lon="1.81934">
        <ele>407.8</ele>
        <time>2023-03-05T10:05:20Z</time>
      </trkpt>
      <trkpt lat="44.09265" lon="1.81939">
        <ele>408</ele>
        <time>2023-03-05T10:05:21Z</time>
      </trkpt>
      <trkpt lat="44.09263" lon="1.81943">
        <ele>408</ele>
        <time>2023-03-05T10:05:22Z</time>
      </trkpt>
      <trkpt lat="44.09261" lon="1.81947">
        <ele>408</ele>
        <time>2023-03-05T10:05:23Z</time>
      </trkpt>
      <trkpt lat="44.09259" lon="1.81951">
        <ele>408</ele>
        <time>2023-03-05T10:05:24Z</time>
      </trkpt>
      <trkpt lat="44.09257" lon="1.81954">
        <ele>408.2</ele>
        <time>2023-03-05T10:05:25Z</time>
      </trkpt>
      <trkpt lat="44.09256" lon="1.81957">
        <ele>408.4</ele>
        <time>2023-03-05T10:05:26Z</time>
      </trkpt>
      <trkpt lat="44.09254" lon="1.8196">
        <ele>408.6</ele>
        <time>2023-03-05T10:05:27Z</time>
      </trkpt>
      <trkpt lat="44.09253" lon="1.81963">
        <ele>409</ele>
        <time>2023-03-05T10:05:28Z</time>
      </trkpt>
      <trkpt lat="44.09251" lon="1.81967">
        <ele>409.4</ele>
        <time>2023-03-05T10:05:29Z</time>
      </trkpt>
      <trkpt lat="44.09248" lon="1.81972">
        <ele>409.6</ele>
        <time>2023-03-05T10:05:30Z</time>
      </trkpt>
      <trkpt lat="44.09246" lon="1.81976">
        <ele>410</ele>
        <time>2023-03-05T10:05:31Z</time>
      </trkpt>
      <trkpt lat="44.09245" lon="1.8198">
        <ele>410.2</ele>
        <time>2023-03-05T10:05:32Z</time>
      </trkpt>
      <trkpt lat="44.09243" lon="1.81984">
        <ele>410.8</ele>
        <time>2023-03-05T10:05:33Z</time>
      </trkpt>
      <trkpt lat="44.09241" lon="1.81988">
        <ele>411</ele>
        <time>2023-03-05T10:05:34Z</time>
      </trkpt>
      <trkpt lat="44.0924" lon="1.81993">
        <ele>411.4</ele>
        <time>2023-03-05T10:05:35Z</time>
      </trkpt>
      <trkpt lat="44.09238" lon="1.81997">
        <ele>411.6</ele>
        <time>2023-03-05T10:05:36Z</time>
      </trkpt>
      <trkpt lat="44.09237" lon="1.82001">
        <ele>412</ele>
        <time>2023-03-05T10:05:37Z</time>
      </trkpt>
      <trkpt lat="44.09236" lon="1.82005">
        <ele>412</ele>
        <time>2023-03-05T10:05:38Z</time>
      </trkpt>
      <trkpt lat="44.09234" lon="1.8201">
        <ele>412.2</ele>
        <time>2023-03-05T10:05:39Z</time>
      </trkpt>
      <trkpt lat="44.09233" lon="1.82014">
        <ele>412.4</ele>
        <time>2023-03-05T10:05:40Z</time>
      </trkpt>
      <trkpt lat="44.09231" lon="1.82018">
        <ele>412.6</ele>
        <time>2023-03-05T10:05:41Z</time>
      </trkpt>
      <trkpt lat="44.09229" lon="1.82023">
        <ele>413.2</ele>
        <time>2023-03-05T10:05:42Z</time>
      </trkpt>
      <trkpt lat="44.09227" lon="1.82027">
        <ele>413.6</ele>
        <time>2023-03-05T10:05:43Z</time>
      </trkpt>
      <trkpt lat="44.09225" lon="1.82032">
        <ele>413.8</ele>
        <time>2023-03-05T10:05:44Z</time>
      </trkpt>
      <trkpt lat="44.09224" lon="1.82036">
        <ele>414.2</ele>
        <time>2023-03-05T10:05:45Z</time>
      </trkpt>
      <trkpt lat="44.09223" lon="1.8204">
        <ele>414.8</ele>
        <time>2023-03-05T10:05:46Z</time>
      </trkpt>
      <trkpt lat="44.09221" lon="1.82045">
        <ele>415.2</ele>
        <time>2023-03-05T10:05:47Z</time>
      </trkpt>
      <trkpt lat="44.0922" lon="1.82049">
        <ele>416</ele>
        <time>2023-03-05T10:05:48Z</time>
      </trkpt>
      <trkpt lat="44.09219" lon="1.82054">
        <ele>416.4</ele>
        <time>2023-03-05T10:05:49Z</time>
      </trkpt>
      <trkpt lat="44.09218" lon="1.82058">
        <ele>417</ele>
        <time>2023-03-05T10:05:50Z</time>
      </trkpt>
      <trkpt lat="44.09218" lon="1.82063">
        <ele>417.4</ele>
        <time>2023-03-05T10:05:51Z</time>
      </trkpt>
      <trkpt lat="44.09217" lon="1.82068">
        <ele>417.8</ele>
        <time>2023-03-05T10:05:52Z</time>
      </trkpt>
      <trkpt lat="44.09216" lon="1.82071">
        <ele>418</ele>
        <time>2023-03-05T10:05:53Z</time>
      </trkpt>
      <trkpt lat="44.09215" lon="1.82076">
        <ele>418.2</ele>
        <time>2023-03-05T10:05:54Z</time>
      </trkpt>
      <trkpt lat="44.09215" lon="1.8208">
        <ele>418.4</ele>
        <time>2023-03-05T10:05:55Z</time>
      </trkpt>
      <trkpt lat="44.09214" lon="1.82084">
        <ele>418.6</ele>
        <time>2023-03-05T10:05:56Z</time>
      </trkpt>
      <trkpt lat="44.09214" lon="1.82088">
        <ele>418.8</ele>
        <time>2023-03-05T10:05:57Z</time>
      </trkpt>
      <trkpt lat="44.09213" lon="1.82092">
        <ele>419</ele>
        <time>2023-03-05T10:05:58Z</time>
      </trkpt>
      <trkpt lat="44.09212" lon="1.82096">
        <ele>419.4</ele>
        <time>2023-03-05T10:05:59Z</time>
      </trkpt>
      <trkpt lat="44.09211" lon="1.821">
        <ele>419.6</ele>
        <time>2023-03-05T10:06:00Z</time>
      </trkpt>
      <trkpt lat="44.09211" lon="1.82104">
        <ele>419.8</ele>
        <time>2023-03-05T10:06:01Z</time>
      </trkpt>
      <trkpt lat="44.0921" lon="1.82109">
        <ele>419.8</ele>
        <time>2023-03-05T10:06:02Z</time>
      </trkpt>
      <trkpt lat="44.0921" lon="1.82113">
        <ele>420.2</ele>
        <time>2023-03-05T10:06:03Z</time>
      </trkpt>
      <trkpt lat="44.09211" lon="1.82117">
        <ele>420.8</ele>
        <time>2023-03-05T10:06:04Z</time>
      </trkpt>
      <trkpt lat="44.09211" lon="1.82122">
        <ele>420.8</ele>
        <time>2023-03-05T10:06:05Z</time>
      </trkpt>
      <trkpt lat="44.09211" lon="1.82127">
        <ele>421.2</ele>
        <time>2023-03-05T10:06:06Z</time>
      </trkpt>
      <trkpt lat="44.09212" lon="1.82132">
        <ele>421.2</ele>
        <time>2023-03-05T10:06:07Z</time>
      </trkpt>
      <trkpt lat="44.09213" lon="1.82136">
        <ele>421.6</ele>
        <time>2023-03-05T10:06:08Z</time>
      </trkpt>
      <trkpt lat="44.09213" lon="1.82141">
        <ele>421.6</ele>
        <time>2023-03-05T10:06:09Z</time>
      </trkpt>
      <trkpt lat="44.09215" lon="1.82145">
        <ele>422</ele>
        <time>2023-03-05T10:06:10Z</time>
      </trkpt>
      <trkpt lat="44.09216" lon="1.82149">
        <ele>422.2</ele>
        <time>2023-03-05T10:06:11Z</time>
      </trkpt>
      <trkpt lat="44.09219" lon="1.82153">
        <ele>422.4</ele>
        <time>2023-03-05T10:06:12Z</time>
      </trkpt>
      <trkpt lat="44.09222" lon="1.82156">
        <ele>422.6</ele>
        <time>2023-03-05T10:06:13Z</time>
      </trkpt>
      <trkpt lat="44.09226" lon="1.82159">
        <ele>422.6</ele>
        <time>2023-03-05T10:06:14Z</time>
      </trkpt>
      <trkpt lat="44.09231" lon="1.82162">
        <ele>422.6</ele>
        <time>2023-03-05T10:06:15Z</time>
      </trkpt>
      <trkpt lat="44.09236" lon="1.82164">
        <ele>422.6</ele>
        <time>2023-03-05T10:06:16Z</time>
      </trkpt>
      <trkpt lat="44.09242" lon="1.82167">
        <ele>422.6</ele>
        <time>2023-03-05T10:06:17Z</time>
      </trkpt>
      <trkpt lat="44.09248" lon="1.82171">
        <ele>422.6</ele>
        <time>2023-03-05T10:06:18Z</time>
      </trkpt>
      <trkpt lat="44.09253" lon="1.82175">
        <ele>422.4</ele>
        <time>2023-03-05T10:06:19Z</time>
      </trkpt>
      <trkpt lat="44.09259" lon="1.82179">
        <ele>422.2</ele>
        <time>2023-03-05T10:06:20Z</time>
      </trkpt>
      <trkpt lat="44.09265" lon="1.82183">
        <ele>422</ele>
        <time>2023-03-05T10:06:21Z</time>
      </trkpt>
      <trkpt lat="44.0927" lon="1.82187">
        <ele>421.8</ele>
        <time>2023-03-05T10:06:22Z</time>
      </trkpt>
      <trkpt lat="44.09276" lon="1.82191">
        <ele>421.6</ele>
        <time>2023-03-05T10:06:23Z</time>
      </trkpt>
      <trkpt lat="44.09281" lon="1.82195">
        <ele>421</ele>
        <time>2023-03-05T10:06:24Z</time>
      </trkpt>
      <trkpt lat="44.09286" lon="1.82198">
        <ele>420.8</ele>
        <time>2023-03-05T10:06:25Z</time>
      </trkpt>
      <trkpt lat="44.09291" lon="1.82201">
        <ele>420.2</ele>
        <time>2023-03-05T10:06:26Z</time>
      </trkpt>
      <trkpt lat="44.09296" lon="1.82204">
        <ele>420</ele>
        <time>2023-03-05T10:06:27Z</time>
      </trkpt>
      <trkpt lat="44.09301" lon="1.82208">
        <ele>420</ele>
        <time>2023-03-05T10:06:28Z</time>
      </trkpt>
      <trkpt lat="44.09305" lon="1.82211">
        <ele>419.8</ele>
        <time>2023-03-05T10:06:29Z</time>
      </trkpt>
      <trkpt lat="44.0931" lon="1.82213">
        <ele>419.8</ele>
        <time>2023-03-05T10:06:30Z</time>
      </trkpt>
      <trkpt lat="44.09314" lon="1.82216">
        <ele>419.8</ele>
        <time>2023-03-05T10:06:31Z</time>
      </trkpt>
      <trkpt lat="44.09318" lon="1.82218">
        <ele>419.8</ele>
        <time>2023-03-05T10:06:32Z</time>
      </trkpt>
      <trkpt lat="44.09322" lon="1.82221">
        <ele>419.8</ele>
        <time>2023-03-05T10:06:33Z</time>
      </trkpt>
      <trkpt lat="44.09326" lon="1.82224">
        <ele>419.8</ele>
        <time>2023-03-05T10:06:34Z</time>
      </trkpt>
      <trkpt lat="44.09329" lon="1.82227">
        <ele>419.8</ele>
        <time>2023-03-05T10:06:35Z</time>
      </trkpt>
      <trkpt lat="44.09333" lon="1.82229">
        <ele>420</ele>
        <time>2023-03-05T10:06:36Z</time>
      </trkpt>
      <trkpt lat="44.09336" lon="1.82232">
        <ele>420</ele>
        <time>2023-03-05T10:06:37Z</time>
      </trkpt>
      <trkpt lat="44.09339" lon="1.82235">
        <ele>420.6</ele>
        <time>2023-03-05T10:06:38Z</time>
      </trkpt>
      <trkpt lat="44.09343" lon="1.82238">
        <ele>421</ele>
        <time>2023-03-05T10:06:39Z</time>
      </trkpt>
      <trkpt lat="44.09346" lon="1.8224">
        <ele>421.2</ele>
        <time>2023-03-05T10:06:40Z</time>
      </trkpt>
      <trkpt lat="44.0935" lon="1.82241">
        <ele>421.8</ele>
        <time>2023-03-05T10:06:41Z</time>
      </trkpt>
      <trkpt lat="44.09354" lon="1.8224">
        <ele>422</ele>
        <time>2023-03-05T10:06:42Z</time>
      </trkpt>
      <trkpt lat="44.09358" lon="1.82241">
        <ele>422.2</ele>
        <time>2023-03-05T10:06:43Z</time>
      </trkpt>
      <trkpt lat="44.09362" lon="1.82242">
        <ele>422.2</ele>
        <time>2023-03-05T10:06:44Z</time>
      </trkpt>
      <trkpt lat="44.09365" lon="1.82243">
        <ele>422.2</ele>
        <time>2023-03-05T10:06:45Z</time>
      </trkpt>
      <trkpt lat="44.09367" lon="1.82245">
        <ele>422.2</ele>
        <time>2023-03-05T10:06:46Z</time>
      </trkpt>
      <trkpt lat="44.0937" lon="1.82247">
        <ele>422.2</ele>
        <time>2023-03-05T10:06:47Z</time>
      </trkpt>
      <trkpt lat="44.09372" lon="1.82249">
        <ele>422</ele>
        <time>2023-03-05T10:06:48Z</time>
      </trkpt>
      <trkpt lat="44.09375" lon="1.8225">
        <ele>422</ele>
        <time>2023-03-05T10:06:49Z</time>
      </trkpt>
      <trkpt lat="44.09378" lon="1.82252">
        <ele>421.8</ele>
        <time>2023-03-05T10:06:50Z</time>
      </trkpt>
      <trkpt lat="44.09381" lon="1.82253">
        <ele>421.6</ele>
        <time>2023-03-05T10:06:51Z</time>
      </trkpt>
      <trkpt lat="44.09385" lon="1.82255">
        <ele>421.2</ele>
        <time>2023-03-05T10:06:52Z</time>
      </trkpt>
      <trkpt lat="44.0939" lon="1.82258">
        <ele>421</ele>
        <time>2023-03-05T10:06:53Z</time>
      </trkpt>
      <trkpt lat="44.09394" lon="1.82261">
        <ele>420.2</ele>
        <time>2023-03-05T10:06:54Z</time>
      </trkpt>
      <trkpt lat="44.09398" lon="1.82264">
        <ele>420</ele>
        <time>2023-03-05T10:06:55Z</time>
      </trkpt>
      <trkpt lat="44.09403" lon="1.82267">
        <ele>419.4</ele>
        <time>2023-03-05T10:06:56Z</time>
      </trkpt>
      <trkpt lat="44.09407" lon="1.8227">
        <ele>418.4</ele>
        <time>2023-03-05T10:06:57Z</time>
      </trkpt>
      <trkpt lat="44.09411" lon="1.82274">
        <ele>417.8</ele>
        <time>2023-03-05T10:06:58Z</time>
      </trkpt>
      <trkpt lat="44.09414" lon="1.82278">
        <ele>417</ele>
        <time>2023-03-05T10:06:59Z</time>
      </trkpt>
      <trkpt lat="44.09418" lon="1.82283">
        <ele>416</ele>
        <time>2023-03-05T10:07:00Z</time>
      </trkpt>
      <trkpt lat="44.09421" lon="1.82287">
        <ele>414.4</ele>
        <time>2023-03-05T10:07:01Z</time>
      </trkpt>
      <trkpt lat="44.09426" lon="1.82292">
        <ele>414</ele>
        <time>2023-03-05T10:07:02Z</time>
      </trkpt>
      <trkpt lat="44.09431" lon="1.82296">
        <ele>412.6</ele>
        <time>2023-03-05T10:07:03Z</time>
      </trkpt>
      <trkpt lat="44.09436" lon="1.82301">
        <ele>411.4</ele>
        <time>2023-03-05T10:07:04Z</time>
      </trkpt>
      <trkpt lat="44.09441" lon="1.82305">
        <ele>409.8</ele>
        <time>2023-03-05T10:07:05Z</time>
      </trkpt>
      <trkpt lat="44.09446" lon="1.82309">
        <ele>409.4</ele>
        <time>2023-03-05T10:07:06Z</time>
      </trkpt>
      <trkpt lat="44.0945" lon="1.82312">
        <ele>408.2</ele>
        <time>2023-03-05T10:07:07Z</time>
      </trkpt>
      <trkpt lat="44.09453" lon="1.82314">
        <ele>406.6</ele>
        <time>2023-03-05T10:07:08Z</time>
      </trkpt>
      <trkpt lat="44.09456" lon="1.82313">
        <ele>406</ele>
        <time>2023-03-05T10:07:09Z</time>
      </trkpt>
      <trkpt lat="44.0946" lon="1.82312">
        <ele>405</ele>
        <time>2023-03-05T10:07:10Z</time>
      </trkpt>
      <trkpt lat="44.09464" lon="1.8231">
        <ele>404</ele>
        <time>2023-03-05T10:07:11Z</time>
      </trkpt>
      <trkpt lat="44.09468" lon="1.82308">
        <ele>402.8</ele>
        <time>2023-03-05T10:07:12Z</time>
      </trkpt>
      <trkpt lat="44.09472" lon="1.82305">
        <ele>402.2</ele>
        <time>2023-03-05T10:07:13Z</time>
      </trkpt>
      <trkpt lat="44.09477" lon="1.82304">
        <ele>401.4</ele>
        <time>2023-03-05T10:07:14Z</time>
      </trkpt>
      <trkpt lat="44.09481" lon="1.82303">
        <ele>400.6</ele>
        <time>2023-03-05T10:07:15Z</time>
      </trkpt>
      <trkpt lat="44.09485" lon="1.82303">
        <ele>399.4</ele>
        <time>2023-03-05T10:07:16Z</time>
      </trkpt>
      <trkpt lat="44.09489" lon="1.82302">
        <ele>398.8</ele>
        <time>2023-03-05T10:07:17Z</time>
      </trkpt>
      <trkpt lat="44.09492" lon="1.82299">
        <ele>397.2</ele>
        <time>2023-03-05T10:07:18Z</time>
      </trkpt>
      <trkpt lat="44.09494" lon="1.82295">
        <ele>396.8</ele>
        <time>2023-03-05T10:07:19Z</time>
      </trkpt>
      <trkpt lat="44.09498" lon="1.82292">
        <ele>395.6</ele>
        <time>2023-03-05T10:07:20Z</time>
      </trkpt>
      <trkpt lat="44.095" lon="1.82292">
        <ele>394</ele>
        <time>2023-03-05T10:07:21Z</time>
      </trkpt>
      <trkpt lat="44.09502" lon="1.82294">
        <ele>393.4</ele>
        <time>2023-03-05T10:07:22Z</time>
      </trkpt>
      <trkpt lat="44.09505" lon="1.82296">
        <ele>391.6</ele>
        <time>2023-03-05T10:07:23Z</time>
      </trkpt>
      <trkpt lat="44.09508" lon="1.82296">
        <ele>390.8</ele>
        <time>2023-03-05T10:07:24Z</time>
      </trkpt>
      <trkpt lat="44.09512" lon="1.82295">
        <ele>389.6</ele>
        <time>2023-03-05T10:07:25Z</time>
      </trkpt>
      <trkpt lat="44.09516" lon="1.82294">
        <ele>389.2</ele>
        <time>2023-03-05T10:07:26Z</time>
      </trkpt>
      <trkpt lat="44.09519" lon="1.82293">
        <ele>388.4</ele>
        <time>2023-03-05T10:07:27Z</time>
      </trkpt>
      <trkpt lat="44.09522" lon="1.8229">
        <ele>388.2</ele>
        <time>2023-03-05T10:07:28Z</time>
      </trkpt>
      <trkpt lat="44.09524" lon="1.82286">
        <ele>387.4</ele>
        <time>2023-03-05T10:07:29Z</time>
      </trkpt>
      <trkpt lat="44.09525" lon="1.82281">
        <ele>386.8</ele>
        <time>2023-03-05T10:07:30Z</time>
      </trkpt>
      <trkpt lat="44.09525" lon="1.82276">
        <ele>385.6</ele>
        <time>2023-03-05T10:07:31Z</time>
      </trkpt>
      <trkpt lat="44.09525" lon="1.82273">
        <ele>384.2</ele>
        <time>2023-03-05T10:07:32Z</time>
      </trkpt>
      <trkpt lat="44.09526" lon="1.82271">
        <ele>383.4</ele>
        <time>2023-03-05T10:07:33Z</time>
      </trkpt>
      <trkpt lat="44.09529" lon="1.82271">
        <ele>382</ele>
        <time>2023-03-05T10:07:34Z</time>
      </trkpt>
      <trkpt lat="44.09532" lon="1.82271">
        <ele>381.6</ele>
        <time>2023-03-05T10:07:35Z</time>
      </trkpt>
      <trkpt lat="44.09535" lon="1.82273">
        <ele>381</ele>
        <time>2023-03-05T10:07:36Z</time>
      </trkpt>
      <trkpt lat="44.09538" lon="1.82275">
        <ele>380.6</ele>
        <time>2023-03-05T10:07:37Z</time>
      </trkpt>
      <trkpt lat="44.09541" lon="1.82276">
        <ele>380</ele>
        <time>2023-03-05T10:07:38Z</time>
      </trkpt>
      <trkpt lat="44.09544" lon="1.82279">
        <ele>379.6</ele>
        <time>2023-03-05T10:07:39Z</time>
      </trkpt>
      <trkpt lat="44.09547" lon="1.82282">
        <ele>379.2</ele>
        <time>2023-03-05T10:07:40Z</time>
      </trkpt>
      <trkpt lat="44.0955" lon="1.82286">
        <ele>378.6</ele>
        <time>2023-03-05T10:07:41Z</time>
      </trkpt>
      <trkpt lat="44.09552" lon="1.82289">
        <ele>377.4</ele>
        <time>2023-03-05T10:07:42Z</time>
      </trkpt>
      <trkpt lat="44.09553" lon="1.82293">
        <ele>376.6</ele>
        <time>2023-03-05T10:07:43Z</time>
      </trkpt>
      <trkpt lat="44.09555" lon="1.82296">
        <ele>375.8</ele>
        <time>2023-03-05T10:07:44Z</time>
      </trkpt>
      <trkpt lat="44.09557" lon="1.82299">
        <ele>374.8</ele>
        <time>2023-03-05T10:07:45Z</time>
      </trkpt>
      <trkpt lat="44.0956" lon="1.82299">
        <ele>374.6</ele>
        <time>2023-03-05T10:07:46Z</time>
      </trkpt>
      <trkpt lat="44.09564" lon="1.82298">
        <ele>373.2</ele>
        <time>2023-03-05T10:07:47Z</time>
      </trkpt>
      <trkpt lat="44.09567" lon="1.82295">
        <ele>372.8</ele>
        <time>2023-03-05T10:07:48Z</time>
      </trkpt>
      <trkpt lat="44.0957" lon="1.82291">
        <ele>371.6</ele>
        <time>2023-03-05T10:07:49Z</time>
      </trkpt>
      <trkpt lat="44.09572" lon="1.82285">
        <ele>371</ele>
        <time>2023-03-05T10:07:50Z</time>
      </trkpt>
      <trkpt lat="44.09572" lon="1.82279">
        <ele>370</ele>
        <time>2023-03-05T10:07:51Z</time>
      </trkpt>
      <trkpt lat="44.09572" lon="1.82272">
        <ele>369.4</ele>
        <time>2023-03-05T10:07:52Z</time>
      </trkpt>
      <trkpt lat="44.09571" lon="1.82265">
        <ele>368.6</ele>
        <time>2023-03-05T10:07:53Z</time>
      </trkpt>
      <trkpt lat="44.0957" lon="1.82258">
        <ele>368</ele>
        <time>2023-03-05T10:07:54Z</time>
      </trkpt>
      <trkpt lat="44.09568" lon="1.82251">
        <ele>367.6</ele>
        <time>2023-03-05T10:07:55Z</time>
      </trkpt>
      <trkpt lat="44.09565" lon="1.82244">
        <ele>366.8</ele>
        <time>2023-03-05T10:07:56Z</time>
      </trkpt>
      <trkpt lat="44.09563" lon="1.82238">
        <ele>366.2</ele>
        <time>2023-03-05T10:07:57Z</time>
      </trkpt>
      <trkpt lat="44.0956" lon="1.82232">
        <ele>365.8</ele>
        <time>2023-03-05T10:07:58Z</time>
      </trkpt>
      <trkpt lat="44.09557" lon="1.82225">
        <ele>365.4</ele>
        <time>2023-03-05T10:07:59Z</time>
      </trkpt>
      <trkpt lat="44.09554" lon="1.82219">
        <ele>364.2</ele>
        <time>2023-03-05T10:08:00Z</time>
      </trkpt>
      <trkpt lat="44.09549" lon="1.82212">
        <ele>363.8</ele>
        <time>2023-03-05T10:08:01Z</time>
      </trkpt>
      <trkpt lat="44.09544" lon="1.82206">
        <ele>363</ele>
        <time>2023-03-05T10:08:02Z</time>
      </trkpt>
      <trkpt lat="44.09539" lon="1.822">
        <ele>362.6</ele>
        <time>2023-03-05T10:08:03Z</time>
      </trkpt>
      <trkpt lat="44.09537" lon="1.82194">
        <ele>362</ele>
        <time>2023-03-05T10:08:04Z</time>
      </trkpt>
      <trkpt lat="44.09537" lon="1.82188">
        <ele>361.4</ele>
        <time>2023-03-05T10:08:05Z</time>
      </trkpt>
      <trkpt lat="44.09538" lon="1.82181">
        <ele>361.2</ele>
        <time>2023-03-05T10:08:06Z</time>
      </trkpt>
      <trkpt lat="44.09538" lon="1.82175">
        <ele>360.6</ele>
        <time>2023-03-05T10:08:07Z</time>
      </trkpt>
      <trkpt lat="44.09539" lon="1.82168">
        <ele>360.4</ele>
        <time>2023-03-05T10:08:08Z</time>
      </trkpt>
      <trkpt lat="44.0954" lon="1.8216">
        <ele>360</ele>
        <time>2023-03-05T10:08:09Z</time>
      </trkpt>
      <trkpt lat="44.0954" lon="1.82154">
        <ele>359.8</ele>
        <time>2023-03-05T10:08:10Z</time>
      </trkpt>
      <trkpt lat="44.0954" lon="1.82147">
        <ele>359.4</ele>
        <time>2023-03-05T10:08:11Z</time>
      </trkpt>
      <trkpt lat="44.0954" lon="1.82141">
        <ele>359.2</ele>
        <time>2023-03-05T10:08:12Z</time>
      </trkpt>
      <trkpt lat="44.09541" lon="1.82134">
        <ele>359</ele>
        <time>2023-03-05T10:08:13Z</time>
      </trkpt>
      <trkpt lat="44.09541" lon="1.82129">
        <ele>358.8</ele>
        <time>2023-03-05T10:08:14Z</time>
      </trkpt>
      <trkpt lat="44.09541" lon="1.82123">
        <ele>358.8</ele>
        <time>2023-03-05T10:08:15Z</time>
      </trkpt>
      <trkpt lat="44.09541" lon="1.82118">
        <ele>358.6</ele>
        <time>2023-03-05T10:08:16Z</time>
      </trkpt>
      <trkpt lat="44.09542" lon="1.82112">
        <ele>358.6</ele>
        <time>2023-03-05T10:08:17Z</time>
      </trkpt>
      <trkpt lat="44.09543" lon="1.82106">
        <ele>358.6</ele>
        <time>2023-03-05T10:08:18Z</time>
      </trkpt>
      <trkpt lat="44.09545" lon="1.82099">
        <ele>358.6</ele>
        <time>2023-03-05T10:08:19Z</time>
      </trkpt>
      <trkpt lat="44.09546" lon="1.82093">
        <ele>358.6</ele>
        <time>2023-03-05T10:08:20Z</time>
      </trkpt>
      <trkpt lat="44.09548" lon="1.82087">
        <ele>358.4</ele>
        <time>2023-03-05T10:08:21Z</time>
      </trkpt>
      <trkpt lat="44.09551" lon="1.82081">
        <ele>358.2</ele>
        <time>2023-03-05T10:08:22Z</time>
      </trkpt>
      <trkpt lat="44.09555" lon="1.82075">
        <ele>358</ele>
        <time>2023-03-05T10:08:23Z</time>
      </trkpt>
      <trkpt lat="44.09559" lon="1.82069">
        <ele>358</ele>
        <time>2023-03-05T10:08:24Z</time>
      </trkpt>
      <trkpt lat="44.09563" lon="1.82065">
        <ele>357.8</ele>
        <time>2023-03-05T10:08:25Z</time>
      </trkpt>
      <trkpt lat="44.09567" lon="1.82061">
        <ele>357.4</ele>
        <time>2023-03-05T10:08:26Z</time>
      </trkpt>
      <trkpt lat="44.09572" lon="1.82056">
        <ele>356.8</ele>
        <time>2023-03-05T10:08:27Z</time>
      </trkpt>
      <trkpt lat="44.09576" lon="1.82052">
        <ele>356.4</ele>
        <time>2023-03-05T10:08:28Z</time>
      </trkpt>
      <trkpt lat="44.0958" lon="1.82049">
        <ele>355.2</ele>
        <time>2023-03-05T10:08:29Z</time>
      </trkpt>
      <trkpt lat="44.09584" lon="1.82046">
        <ele>354.6</ele>
        <time>2023-03-05T10:08:30Z</time>
      </trkpt>
      <trkpt lat="44.0959" lon="1.82042">
        <ele>352.8</ele>
        <time>2023-03-05T10:08:31Z</time>
      </trkpt>
      <trkpt lat="44.09595" lon="1.82038">
        <ele>351.6</ele>
        <time>2023-03-05T10:08:32Z</time>
      </trkpt>
      <trkpt lat="44.09601" lon="1.82034">
        <ele>350</ele>
        <time>2023-03-05T10:08:33Z</time>
      </trkpt>
      <trkpt lat="44.09608" lon="1.8203">
        <ele>349</ele>
        <time>2023-03-05T10:08:34Z</time>
      </trkpt>
      <trkpt lat="44.09615" lon="1.82026">
        <ele>347.2</ele>
        <time>2023-03-05T10:08:35Z</time>
      </trkpt>
      <trkpt lat="44.09621" lon="1.82022">
        <ele>346.8</ele>
        <time>2023-03-05T10:08:36Z</time>
      </trkpt>
      <trkpt lat="44.09626" lon="1.82019">
        <ele>345.6</ele>
        <time>2023-03-05T10:08:37Z</time>
      </trkpt>
      <trkpt lat="44.09632" lon="1.82015">
        <ele>343.6</ele>
        <time>2023-03-05T10:08:38Z</time>
      </trkpt>
      <trkpt lat="44.09636" lon="1.82012">
        <ele>342.4</ele>
        <time>2023-03-05T10:08:39Z</time>
      </trkpt>
      <trkpt lat="44.09641" lon="1.82009">
        <ele>340.6</ele>
        <time>2023-03-05T10:08:40Z</time>
      </trkpt>
      <trkpt lat="44.09646" lon="1.82006">
        <ele>339.8</ele>
        <time>2023-03-05T10:08:41Z</time>
      </trkpt>
      <trkpt lat="44.0965" lon="1.82003">
        <ele>338.2</ele>
        <time>2023-03-05T10:08:42Z</time>
      </trkpt>
      <trkpt lat="44.09654" lon="1.81999">
        <ele>337.4</ele>
        <time>2023-03-05T10:08:43Z</time>
      </trkpt>
      <trkpt lat="44.09658" lon="1.81995">
        <ele>335.6</ele>
        <time>2023-03-05T10:08:44Z</time>
      </trkpt>
      <trkpt lat="44.09662" lon="1.81991">
        <ele>334.4</ele>
        <time>2023-03-05T10:08:45Z</time>
      </trkpt>
      <trkpt lat="44.09666" lon="1.81986">
        <ele>332.4</ele>
        <time>2023-03-05T10:08:46Z</time>
      </trkpt>
      <trkpt lat="44.09672" lon="1.8198">
        <ele>331</ele>
        <time>2023-03-05T10:08:47Z</time>
      </trkpt>
      <trkpt lat="44.09678" lon="1.81974">
        <ele>330.4</ele>
        <time>2023-03-05T10:08:48Z</time>
      </trkpt>
      <trkpt lat="44.09682" lon="1.81969">
        <ele>328.8</ele>
        <time>2023-03-05T10:08:49Z</time>
      </trkpt>
      <trkpt lat="44.09688" lon="1.81964">
        <ele>328.2</ele>
        <time>2023-03-05T10:08:50Z</time>
      </trkpt>
      <trkpt lat="44.09692" lon="1.8196">
        <ele>326.4</ele>
        <time>2023-03-05T10:08:51Z</time>
      </trkpt>
      <trkpt lat="44.09698" lon="1.81956">
        <ele>325.4</ele>
        <time>2023-03-05T10:08:52Z</time>
      </trkpt>
      <trkpt lat="44.09704" lon="1.81952">
        <ele>322.6</ele>
        <time>2023-03-05T10:08:53Z</time>
      </trkpt>
      <trkpt lat="44.09708" lon="1.81948">
        <ele>321.6</ele>
        <time>2023-03-05T10:08:54Z</time>
      </trkpt>
      <trkpt lat="44.09712" lon="1.81943">
        <ele>320</ele>
        <time>2023-03-05T10:08:55Z</time>
      </trkpt>
      <trkpt lat="44.09714" lon="1.81939">
        <ele>319.6</ele>
        <time>2023-03-05T10:08:56Z</time>
      </trkpt>
      <trkpt lat="44.09715" lon="1.81939">
        <ele>318.4</ele>
        <time>2023-03-05T10:08:57Z</time>
      </trkpt>
      <trkpt lat="44.09715" lon="1.8194">
        <ele>316</ele>
        <time>2023-03-05T10:08:58Z</time>
      </trkpt>
      <trkpt lat="44.09714" lon="1.81943">
        <ele>315.2</ele>
        <time>2023-03-05T10:08:59Z</time>
      </trkpt>
      <trkpt lat="44.09713" lon="1.81948">
        <ele>313.4</ele>
        <time>2023-03-05T10:09:00Z</time>
      </trkpt>
      <trkpt lat="44.09712" lon="1.81955">
        <ele>312.6</ele>
        <time>2023-03-05T10:09:01Z</time>
      </trkpt>
      <trkpt lat="44.0971" lon="1.81963">
        <ele>311.4</ele>
        <time>2023-03-05T10:09:02Z</time>
      </trkpt>
      <trkpt lat="44.09709" lon="1.81971">
        <ele>311</ele>
        <time>2023-03-05T10:09:03Z</time>
      </trkpt>
      <trkpt lat="44.09707" lon="1.81981">
        <ele>310.2</ele>
        <time>2023-03-05T10:09:04Z</time>
      </trkpt>
      <trkpt lat="44.09706" lon="1.81989">
        <ele>309.8</ele>
        <time>2023-03-05T10:09:05Z</time>
      </trkpt>
      <trkpt lat="44.09706" lon="1.81996">
        <ele>308.8</ele>
        <time>2023-03-05T10:09:06Z</time>
      </trkpt>
      <trkpt lat="44.09703" lon="1.82003">
        <ele>308</ele>
        <time>2023-03-05T10:09:07Z</time>
      </trkpt>
      <trkpt lat="44.09701" lon="1.82006">
        <ele>306.8</ele>
        <time>2023-03-05T10:09:08Z</time>
      </trkpt>
      <trkpt lat="44.09701" lon="1.82009">
        <ele>306</ele>
        <time>2023-03-05T10:09:09Z</time>
      </trkpt>
      <trkpt lat="44.09701" lon="1.82011">
        <ele>305.8</ele>
        <time>2023-03-05T10:09:10Z</time>
      </trkpt>
      <trkpt lat="44.09701" lon="1.82013">
        <ele>304.2</ele>
        <time>2023-03-05T10:09:11Z</time>
      </trkpt>
      <trkpt lat="44.097" lon="1.82015">
        <ele>303.6</ele>
        <time>2023-03-05T10:09:12Z</time>
      </trkpt>
      <trkpt lat="44.09698" lon="1.82018">
        <ele>301.6</ele>
        <time>2023-03-05T10:09:13Z</time>
      </trkpt>
      <trkpt lat="44.09696" lon="1.8202">
        <ele>301</ele>
        <time>2023-03-05T10:09:14Z</time>
      </trkpt>
      <trkpt lat="44.09694" lon="1.82023">
        <ele>300.2</ele>
        <time>2023-03-05T10:09:15Z</time>
      </trkpt>
      <trkpt lat="44.09693" lon="1.82026">
        <ele>300.2</ele>
        <time>2023-03-05T10:09:16Z</time>
      </trkpt>
      <trkpt lat="44.09693" lon="1.82029">
        <ele>300</ele>
        <time>2023-03-05T10:09:17Z</time>
      </trkpt>
      <trkpt lat="44.09692" lon="1.82032">
        <ele>300</ele>
        <time>2023-03-05T10:09:18Z</time>
      </trkpt>
      <trkpt lat="44.0969" lon="1.82035">
        <ele>300</ele>
        <time>2023-03-05T10:09:19Z</time>
      </trkpt>
      <trkpt lat="44.09688" lon="1.82037">
        <ele>300</ele>
        <time>2023-03-05T10:09:20Z</time>
      </trkpt>
      <trkpt lat="44.09685" lon="1.82041">
        <ele>300</ele>
        <time>2023-03-05T10:09:21Z</time>
      </trkpt>
      <trkpt lat="44.09683" lon="1.82043">
        <ele>300.2</ele>
        <time>2023-03-05T10:09:22Z</time>
      </trkpt>
      <trkpt lat="44.09684" lon="1.82045">
        <ele>300.2</ele>
        <time>2023-03-05T10:09:23Z</time>
      </trkpt>
      <trkpt lat="44.09682" lon="1.82048">
        <ele>300.6</ele>
        <time>2023-03-05T10:09:24Z</time>
      </trkpt>
      <trkpt lat="44.09679" lon="1.8205">
        <ele>300.6</ele>
        <time>2023-03-05T10:09:25Z</time>
      </trkpt>
      <trkpt lat="44.09676" lon="1.82053">
        <ele>301</ele>
        <time>2023-03-05T10:09:26Z</time>
      </trkpt>
      <trkpt lat="44.09673" lon="1.82055">
        <ele>301.2</ele>
        <time>2023-03-05T10:09:27Z</time>
      </trkpt>
      <trkpt lat="44.09671" lon="1.82057">
        <ele>301.4</ele>
        <time>2023-03-05T10:09:28Z</time>
      </trkpt>
      <trkpt lat="44.09668" lon="1.8206">
        <ele>301.4</ele>
        <time>2023-03-05T10:09:29Z</time>
      </trkpt>
      <trkpt lat="44.09665" lon="1.82063">
        <ele>301.8</ele>
        <time>2023-03-05T10:09:30Z</time>
      </trkpt>
      <trkpt lat="44.09663" lon="1.82066">
        <ele>302</ele>
        <time>2023-03-05T10:09:31Z</time>
      </trkpt>
      <trkpt lat="44.09661" lon="1.82069">
        <ele>302.4</ele>
        <time>2023-03-05T10:09:32Z</time>
      </trkpt>
      <trkpt lat="44.0966" lon="1.82072">
        <ele>302.8</ele>
        <time>2023-03-05T10:09:33Z</time>
      </trkpt>
      <trkpt lat="44.09657" lon="1.82075">
        <ele>302.8</ele>
        <time>2023-03-05T10:09:34Z</time>
      </trkpt>
      <trkpt lat="44.09655" lon="1.82078">
        <ele>303.2</ele>
        <time>2023-03-05T10:09:35Z</time>
      </trkpt>
      <trkpt lat="44.09653" lon="1.82082">
        <ele>303.4</ele>
        <time>2023-03-05T10:09:36Z</time>
      </trkpt>
      <trkpt lat="44.0965" lon="1.82084">
        <ele>304</ele>
        <time>2023-03-05T10:09:37Z</time>
      </trkpt>
      <trkpt lat="44.09646" lon="1.82088">
        <ele>304.2</ele>
        <time>2023-03-05T10:09:38Z</time>
      </trkpt>
      <trkpt lat="44.09644" lon="1.82089">
        <ele>304.8</ele>
        <time>2023-03-05T10:09:39Z</time>
      </trkpt>
      <trkpt lat="44.09643" lon="1.82091">
        <ele>305.2</ele>
        <time>2023-03-05T10:09:40Z</time>
      </trkpt>
      <trkpt lat="44.0964" lon="1.82092">
        <ele>305.8</ele>
        <time>2023-03-05T10:09:41Z</time>
      </trkpt>
      <trkpt lat="44.09638" lon="1.82092">
        <ele>306.4</ele>
        <time>2023-03-05T10:09:42Z</time>
      </trkpt>
      <trkpt lat="44.09637" lon="1.82092">
        <ele>306.6</ele>
        <time>2023-03-05T10:09:43Z</time>
      </trkpt>
      <trkpt lat="44.09635" lon="1.82094">
        <ele>307</ele>
        <time>2023-03-05T10:09:44Z</time>
      </trkpt>
      <trkpt lat="44.09632" lon="1.82096">
        <ele>307.4</ele>
        <time>2023-03-05T10:09:45Z</time>
      </trkpt>
      <trkpt lat="44.0963" lon="1.82097">
        <ele>307.8</ele>
        <time>2023-03-05T10:09:46Z</time>
      </trkpt>
      <trkpt lat="44.09628" lon="1.82098">
        <ele>308</ele>
        <time>2023-03-05T10:09:47Z</time>
      </trkpt>
      <trkpt lat="44.09626" lon="1.821">
        <ele>308.4</ele>
        <time>2023-03-05T10:09:48Z</time>
      </trkpt>
      <trkpt lat="44.09624" lon="1.82103">
        <ele>308.4</ele>
        <time>2023-03-05T10:09:49Z</time>
      </trkpt>
      <trkpt lat="44.09623" lon="1.82103">
        <ele>308.6</ele>
        <time>2023-03-05T10:09:50Z</time>
      </trkpt>
      <trkpt lat="44.09621" lon="1.82106">
        <ele>309.2</ele>
        <time>2023-03-05T10:09:51Z</time>
      </trkpt>
      <trkpt lat="44.0962" lon="1.82109">
        <ele>310</ele>
        <time>2023-03-05T10:09:52Z</time>
      </trkpt>
      <trkpt lat="44.09618" lon="1.82112">
        <ele>310.4</ele>
        <time>2023-03-05T10:09:53Z</time>
      </trkpt>
      <trkpt lat="44.09616" lon="1.82115">
        <ele>310.6</ele>
        <time>2023-03-05T10:09:54Z</time>
      </trkpt>
      <trkpt lat="44.09615" lon="1.82117">
        <ele>310.8</ele>
        <time>2023-03-05T10:09:55Z</time>
      </trkpt>
      <trkpt lat="44.09616" lon="1.8212">
        <ele>310.8</ele>
        <time>2023-03-05T10:09:56Z</time>
      </trkpt>
      <trkpt lat="44.09615" lon="1.82123">
        <ele>311.2</ele>
        <time>2023-03-05T10:09:57Z</time>
      </trkpt>
      <trkpt lat="44.09614" lon="1.82127">
        <ele>311.4</ele>
        <time>2023-03-05T10:09:58Z</time>
      </trkpt>
      <trkpt lat="44.09613" lon="1.8213">
        <ele>311.4</ele>
        <time>2023-03-05T10:09:59Z</time>
      </trkpt>
      <trkpt lat="44.09611" lon="1.82135">
        <ele>311.6</ele>
        <time>2023-03-05T10:10:00Z</time>
      </trkpt>
      <trkpt lat="44.09612" lon="1.8214">
        <ele>312</ele>
        <time>2023-03-05T10:10:01Z</time>
      </trkpt>
      <trkpt lat="44.09612" lon="1.82145">
        <ele>312</ele>
        <time>2023-03-05T10:10:02Z</time>
      </trkpt>
      <trkpt lat="44.09612" lon="1.82149">
        <ele>312.6</ele>
        <time>2023-03-05T10:10:03Z</time>
      </trkpt>
      <trkpt lat="44.09612" lon="1.82152">
        <ele>312.8</ele>
        <time>2023-03-05T10:10:04Z</time>
      </trkpt>
      <trkpt lat="44.09612" lon="1.82154">
        <ele>313</ele>
        <time>2023-03-05T10:10:05Z</time>
      </trkpt>
      <trkpt lat="44.09613" lon="1.82157">
        <ele>313.4</ele>
        <time>2023-03-05T10:10:06Z</time>
      </trkpt>
      <trkpt lat="44.09613" lon="1.82159">
        <ele>313.6</ele>
        <time>2023-03-05T10:10:07Z</time>
      </trkpt>
      <trkpt lat="44.09613" lon="1.82161">
        <ele>313.8</ele>
        <time>2023-03-05T10:10:08Z</time>
      </trkpt>
      <trkpt lat="44.09613" lon="1.82164">
        <ele>314.2</ele>
        <time>2023-03-05T10:10:09Z</time>
      </trkpt>
      <trkpt lat="44.09614" lon="1.82168">
        <ele>314.6</ele>
        <time>2023-03-05T10:10:10Z</time>
      </trkpt>
      <trkpt lat="44.09615" lon="1.82173">
        <ele>314.8</ele>
        <time>2023-03-05T10:10:11Z</time>
      </trkpt>
      <trkpt lat="44.09615" lon="1.82178">
        <ele>315</ele>
        <time>2023-03-05T10:10:12Z</time>
      </trkpt>
      <trkpt lat="44.09617" lon="1.82184">
        <ele>315</ele>
        <time>2023-03-05T10:10:13Z</time>
      </trkpt>
      <trkpt lat="44.09618" lon="1.82189">
        <ele>315.4</ele>
        <time>2023-03-05T10:10:14Z</time>
      </trkpt>
      <trkpt lat="44.09621" lon="1.82195">
        <ele>315.6</ele>
        <time>2023-03-05T10:10:15Z</time>
      </trkpt>
      <trkpt lat="44.09622" lon="1.82197">
        <ele>315.8</ele>
        <time>2023-03-05T10:10:16Z</time>
      </trkpt>
      <trkpt lat="44.09623" lon="1.822">
        <ele>316</ele>
        <time>2023-03-05T10:10:17Z</time>
      </trkpt>
      <trkpt lat="44.09622" lon="1.82204">
        <ele>316</ele>
        <time>2023-03-05T10:10:18Z</time>
      </trkpt>
      <trkpt lat="44.09622" lon="1.82209">
        <ele>316.2</ele>
        <time>2023-03-05T10:10:19Z</time>
      </trkpt>
      <trkpt lat="44.09623" lon="1.82212">
        <ele>316.2</ele>
        <time>2023-03-05T10:10:20Z</time>
      </trkpt>
      <trkpt lat="44.09624" lon="1.82215">
        <ele>316.2</ele>
        <time>2023-03-05T10:10:21Z</time>
      </trkpt>
      <trkpt lat="44.09623" lon="1.82217">
        <ele>316.4</ele>
        <time>2023-03-05T10:10:22Z</time>
      </trkpt>
      <trkpt lat="44.09624" lon="1.82221">
        <ele>316.6</ele>
        <time>2023-03-05T10:10:23Z</time>
      </trkpt>
      <trkpt lat="44.09624" lon="1.82223">
        <ele>316.8</ele>
        <time>2023-03-05T10:10:24Z</time>
      </trkpt>
      <trkpt lat="44.09624" lon="1.82225">
        <ele>317</ele>
        <time>2023-03-05T10:10:25Z</time>
      </trkpt>
      <trkpt lat="44.09623" lon="1.82229">
        <ele>317.2</ele>
        <time>2023-03-05T10:10:26Z</time>
      </trkpt>
      <trkpt lat="44.09624" lon="1.82231">
        <ele>317.4</ele>
        <time>2023-03-05T10:10:27Z</time>
      </trkpt>
      <trkpt lat="44.09625" lon="1.82233">
        <ele>318</ele>
        <time>2023-03-05T10:10:28Z</time>
      </trkpt>
      <trkpt lat="44.09626" lon="1.82235">
        <ele>318.2</ele>
        <time>2023-03-05T10:10:29Z</time>
      </trkpt>
      <trkpt lat="44.09626" lon="1.82237">
        <ele>318.6</ele>
        <time>2023-03-05T10:10:30Z</time>
      </trkpt>
      <trkpt lat="44.09626" lon="1.82238">
        <ele>319</ele>
        <time>2023-03-05T10:10:31Z</time>
      </trkpt>
      <trkpt lat="44.09626" lon="1.8224">
        <ele>319.4</ele>
        <time>2023-03-05T10:10:32Z</time>
      </trkpt>
      <trkpt lat="44.09626" lon="1.82242">
        <ele>319.8</ele>
        <time>2023-03-05T10:10:33Z</time>
      </trkpt>
      <trkpt lat="44.09626" lon="1.82244">
        <ele>319.8</ele>
        <time>2023-03-05T10:10:34Z</time>
      </trkpt>
      <trkpt lat="44.09626" lon="1.82246">
        <ele>320.4</ele>
        <time>2023-03-05T10:10:35Z</time>
      </trkpt>
      <trkpt lat="44.09626" lon="1.82248">
        <ele>321</ele>
        <time>2023-03-05T10:10:36Z</time>
      </trkpt>
      <trkpt lat="44.09626" lon="1.8225">
        <ele>321.2</ele>
        <time>2023-03-05T10:10:37Z</time>
      </trkpt>
      <trkpt lat="44.09628" lon="1.82252">
        <ele>321.4</ele>
        <time>2023-03-05T10:10:38Z</time>
      </trkpt>
      <trkpt lat="44.09629" lon="1.82254">
        <ele>322</ele>
        <time>2023-03-05T10:10:39Z</time>
      </trkpt>
      <trkpt lat="44.0963" lon="1.82256">
        <ele>322</ele>
        <time>2023-03-05T10:10:40Z</time>
      </trkpt>
      <trkpt lat="44.0963" lon="1.82257">
        <ele>322.4</ele>
        <time>2023-03-05T10:10:41Z</time>
      </trkpt>
      <trkpt lat="44.09631" lon="1.82258">
        <ele>322.6</ele>
        <time>2023-03-05T10:10:42Z</time>
      </trkpt>
      <trkpt lat="44.09631" lon="1.8226">
        <ele>323.4</ele>
        <time>2023-03-05T10:10:43Z</time>
      </trkpt>
      <trkpt lat="44.09632" lon="1.82261">
        <ele>323.6</ele>
        <time>2023-03-05T10:10:44Z</time>
      </trkpt>
      <trkpt lat="44.09632" lon="1.82263">
        <ele>324.2</ele>
        <time>2023-03-05T10:10:45Z</time>
      </trkpt>
      <trkpt lat="44.09634" lon="1.82264">
        <ele>324.2</ele>
        <time>2023-03-05T10:10:46Z</time>
      </trkpt>
      <trkpt lat="44.09635" lon="1.82266">
        <ele>324.8</ele>
        <time>2023-03-05T10:10:47Z</time>
      </trkpt>
      <trkpt lat="44.09637" lon="1.82268">
        <ele>325</ele>
        <time>2023-03-05T10:10:48Z</time>
      </trkpt>
      <trkpt lat="44.09638" lon="1.8227">
        <ele>325.2</ele>
        <time>2023-03-05T10:10:49Z</time>
      </trkpt>
      <trkpt lat="44.09639" lon="1.82271">
        <ele>325.6</ele>
        <time>2023-03-05T10:10:50Z</time>
      </trkpt>
      <trkpt lat="44.09642" lon="1.82273">
        <ele>325.8</ele>
        <time>2023-03-05T10:10:51Z</time>
      </trkpt>
      <trkpt lat="44.09644" lon="1.82276">
        <ele>326.6</ele>
        <time>2023-03-05T10:10:52Z</time>
      </trkpt>
      <trkpt lat="44.09645" lon="1.82278">
        <ele>326.8</ele>
        <time>2023-03-05T10:10:53Z</time>
      </trkpt>
      <trkpt lat="44.09645" lon="1.82279">
        <ele>327.6</ele>
        <time>2023-03-05T10:10:54Z</time>
      </trkpt>
      <trkpt lat="44.09645" lon="1.82279">
        <ele>328</ele>
        <time>2023-03-05T10:10:55Z</time>
      </trkpt>
      <trkpt lat="44.09645" lon="1.82279">
        <ele>328.4</ele>
        <time>2023-03-05T10:10:56Z</time>
      </trkpt>
      <trkpt lat="44.09648" lon="1.82282">
        <ele>328.6</ele>
        <time>2023-03-05T10:10:57Z</time>
      </trkpt>
      <trkpt lat="44.09648" lon="1.82287">
        <ele>329</ele>
        <time>2023-03-05T10:10:58Z</time>
      </trkpt>
      <trkpt lat="44.09648" lon="1.82289">
        <ele>329.4</ele>
        <time>2023-03-05T10:10:59Z</time>
      </trkpt>
      <trkpt lat="44.09648" lon="1.82292">
        <ele>329.6</ele>
        <time>2023-03-05T10:11:00Z</time>
      </trkpt>
      <trkpt lat="44.09649" lon="1.82295">
        <ele>329.6</ele>
        <time>2023-03-05T10:11:01Z</time>
      </trkpt>
      <trkpt lat="44.09649" lon="1.82297">
        <ele>329.8</ele>
        <time>2023-03-05T10:11:02Z</time>
      </trkpt>
      <trkpt lat="44.09649" lon="1.82298">
        <ele>330</ele>
        <time>2023-03-05T10:11:03Z</time>
      </trkpt>
      <trkpt lat="44.09649" lon="1.82298">
        <ele>330.2</ele>
        <time>2023-03-05T10:11:04Z</time>
      </trkpt>
      <trkpt lat="44.09649" lon="1.82298">
        <ele>330.4</ele>
        <time>2023-03-05T10:11:05Z</time>
      </trkpt>
      <trkpt lat="44.09639" lon="1.82326">
        <ele>335.8</ele>
        <time>2023-03-05T10:11:52Z</time>
      </trkpt>
      <trkpt lat="44.09638" lon="1.82328">
        <ele>335.8</ele>
        <time>2023-03-05T10:11:53Z</time>
      </trkpt>
      <trkpt lat="44.09637" lon="1.82329">
        <ele>335.8</ele>
        <time>2023-03-05T10:11:54Z</time>
      </trkpt>
      <trkpt lat="44.09635" lon="1.82332">
        <ele>335.8</ele>
        <time>2023-03-05T10:11:55Z</time>
      </trkpt>
      <trkpt lat="44.09635" lon="1.82334">
        <ele>335.6</ele>
        <time>2023-03-05T10:11:56Z</time>
      </trkpt>
      <trkpt lat="44.09634" lon="1.82336">
        <ele>335.6</ele>
        <time>2023-03-05T10:11:57Z</time>
      </trkpt>
      <trkpt lat="44.09633" lon="1.82337">
        <ele>335.6</ele>
        <time>2023-03-05T10:11:58Z</time>
      </trkpt>
      <trkpt lat="44.09633" lon="1.82337">
        <ele>335.6</ele>
        <time>2023-03-05T10:11:59Z</time>
      </trkpt>
      <trkpt lat="44.09632" lon="1.82338">
        <ele>335.6</ele>
        <time>2023-03-05T10:12:00Z</time>
      </trkpt>
      <trkpt lat="44.09623" lon="1.8234">
        <ele>337.6</ele>
        <time>2023-03-05T10:12:15Z</time>
      </trkpt>
      <trkpt lat="44.09621" lon="1.8234">
        <ele>337.8</ele>
        <time>2023-03-05T10:12:16Z</time>
      </trkpt>
      <trkpt lat="44.09618" lon="1.82341">
        <ele>337.8</ele>
        <time>2023-03-05T10:12:17Z</time>
      </trkpt>
      <trkpt lat="44.09617" lon="1.82341">
        <ele>338.2</ele>
        <time>2023-03-05T10:12:18Z</time>
      </trkpt>
      <trkpt lat="44.09615" lon="1.82342">
        <ele>338.2</ele>
        <time>2023-03-05T10:12:19Z</time>
      </trkpt>
      <trkpt lat="44.09614" lon="1.82342">
        <ele>338.6</ele>
        <time>2023-03-05T10:12:20Z</time>
      </trkpt>
      <trkpt lat="44.09613" lon="1.82342">
        <ele>339</ele>
        <time>2023-03-05T10:12:21Z</time>
      </trkpt>
      <trkpt lat="44.0961" lon="1.82342">
        <ele>339.4</ele>
        <time>2023-03-05T10:12:22Z</time>
      </trkpt>
      <trkpt lat="44.09609" lon="1.82342">
        <ele>339.4</ele>
        <time>2023-03-05T10:12:23Z</time>
      </trkpt>
      <trkpt lat="44.09607" lon="1.82342">
        <ele>339.6</ele>
        <time>2023-03-05T10:12:24Z</time>
      </trkpt>
      <trkpt lat="44.09604" lon="1.82342">
        <ele>339.6</ele>
        <time>2023-03-05T10:12:25Z</time>
      </trkpt>
      <trkpt lat="44.09602" lon="1.82342">
        <ele>339.8</ele>
        <time>2023-03-05T10:12:26Z</time>
      </trkpt>
      <trkpt lat="44.096" lon="1.82343">
        <ele>340.2</ele>
        <time>2023-03-05T10:12:27Z</time>
      </trkpt>
      <trkpt lat="44.09597" lon="1.82344">
        <ele>340.4</ele>
        <time>2023-03-05T10:12:28Z</time>
      </trkpt>
      <trkpt lat="44.09595" lon="1.82344">
        <ele>341</ele>
        <time>2023-03-05T10:12:29Z</time>
      </trkpt>
      <trkpt lat="44.09594" lon="1.82344">
        <ele>341.2</ele>
        <time>2023-03-05T10:12:30Z</time>
      </trkpt>
      <trkpt lat="44.09593" lon="1.82345">
        <ele>341.8</ele>
        <time>2023-03-05T10:12:31Z</time>
      </trkpt>
      <trkpt lat="44.09591" lon="1.82345">
        <ele>342</ele>
        <time>2023-03-05T10:12:32Z</time>
      </trkpt>
      <trkpt lat="44.09588" lon="1.82345">
        <ele>342</ele>
        <time>2023-03-05T10:12:33Z</time>
      </trkpt>
      <trkpt lat="44.09587" lon="1.82345">
        <ele>342.4</ele>
        <time>2023-03-05T10:12:34Z</time>
      </trkpt>
      <trkpt lat="44.09586" lon="1.82346">
        <ele>342.6</ele>
        <time>2023-03-05T10:12:35Z</time>
      </trkpt>
      <trkpt lat="44.09586" lon="1.82346">
        <ele>342.8</ele>
        <time>2023-03-05T10:12:36Z</time>
      </trkpt>
      <trkpt lat="44.09585" lon="1.82347">
        <ele>343.2</ele>
        <time>2023-03-05T10:12:37Z</time>
      </trkpt>
      <trkpt lat="44.09585" lon="1.82347">
        <ele>343.4</ele>
        <time>2023-03-05T10:12:38Z</time>
      </trkpt>
      <trkpt lat="44.09585" lon="1.82349">
        <ele>343.6</ele>
        <time>2023-03-05T10:12:39Z</time>
      </trkpt>
      <trkpt lat="44.09585" lon="1.8235">
        <ele>344.4</ele>
        <time>2023-03-05T10:12:40Z</time>
      </trkpt>
      <trkpt lat="44.09585" lon="1.82353">
        <ele>344.8</ele>
        <time>2023-03-05T10:12:41Z</time>
      </trkpt>
      <trkpt lat="44.09586" lon="1.82354">
        <ele>345.2</ele>
        <time>2023-03-05T10:12:42Z</time>
      </trkpt>
      <trkpt lat="44.09588" lon="1.82355">
        <ele>345.4</ele>
        <time>2023-03-05T10:12:43Z</time>
      </trkpt>
      <trkpt lat="44.09588" lon="1.82355">
        <ele>345.8</ele>
        <time>2023-03-05T10:12:44Z</time>
      </trkpt>
      <trkpt lat="44.09589" lon="1.82356">
        <ele>346</ele>
        <time>2023-03-05T10:12:45Z</time>
      </trkpt>
      <trkpt lat="44.0959" lon="1.82357">
        <ele>346.2</ele>
        <time>2023-03-05T10:12:46Z</time>
      </trkpt>
      <trkpt lat="44.0959" lon="1.82358">
        <ele>346.4</ele>
        <time>2023-03-05T10:12:47Z</time>
      </trkpt>
      <trkpt lat="44.09592" lon="1.82359">
        <ele>347</ele>
        <time>2023-03-05T10:12:48Z</time>
      </trkpt>
      <trkpt lat="44.09593" lon="1.8236">
        <ele>347.6</ele>
        <time>2023-03-05T10:12:49Z</time>
      </trkpt>
      <trkpt lat="44.09594" lon="1.82361">
        <ele>347.8</ele>
        <time>2023-03-05T10:12:50Z</time>
      </trkpt>
      <trkpt lat="44.09596" lon="1.82362">
        <ele>348.2</ele>
        <time>2023-03-05T10:12:51Z</time>
      </trkpt>
      <trkpt lat="44.09597" lon="1.82363">
        <ele>348.6</ele>
        <time>2023-03-05T10:12:52Z</time>
      </trkpt>
      <trkpt lat="44.09599" lon="1.82364">
        <ele>348.8</ele>
        <time>2023-03-05T10:12:53Z</time>
      </trkpt>
      <trkpt lat="44.096" lon="1.82365">
        <ele>349</ele>
        <time>2023-03-05T10:12:54Z</time>
      </trkpt>
      <trkpt lat="44.09601" lon="1.82367">
        <ele>349.2</ele>
        <time>2023-03-05T10:12:55Z</time>
      </trkpt>
      <trkpt lat="44.09602" lon="1.82368">
        <ele>349.4</ele>
        <time>2023-03-05T10:12:56Z</time>
      </trkpt>
      <trkpt lat="44.09603" lon="1.82369">
        <ele>349.6</ele>
        <time>2023-03-05T10:12:57Z</time>
      </trkpt>
      <trkpt lat="44.09604" lon="1.8237">
        <ele>350</ele>
        <time>2023-03-05T10:12:58Z</time>
      </trkpt>
      <trkpt lat="44.09606" lon="1.82371">
        <ele>350.2</ele>
        <time>2023-03-05T10:12:59Z</time>
      </trkpt>
      <trkpt lat="44.09607" lon="1.82372">
        <ele>350.6</ele>
        <time>2023-03-05T10:13:00Z</time>
      </trkpt>
      <trkpt lat="44.09608" lon="1.82373">
        <ele>350.6</ele>
        <time>2023-03-05T10:13:01Z</time>
      </trkpt>
      <trkpt lat="44.0961" lon="1.82374">
        <ele>351.2</ele>
        <time>2023-03-05T10:13:02Z</time>
      </trkpt>
      <trkpt lat="44.09611" lon="1.82375">
        <ele>351.6</ele>
        <time>2023-03-05T10:13:03Z</time>
      </trkpt>
      <trkpt lat="44.09612" lon="1.82376">
        <ele>352</ele>
        <time>2023-03-05T10:13:04Z</time>
      </trkpt>
      <trkpt lat="44.09614" lon="1.82377">
        <ele>352</ele>
        <time>2023-03-05T10:13:05Z</time>
      </trkpt>
      <trkpt lat="44.09615" lon="1.82379">
        <ele>352.2</ele>
        <time>2023-03-05T10:13:06Z</time>
      </trkpt>
      <trkpt lat="44.09617" lon="1.8238">
        <ele>352.4</ele>
        <time>2023-03-05T10:13:07Z</time>
      </trkpt>
      <trkpt lat="44.09619" lon="1.82382">
        <ele>352.6</ele>
        <time>2023-03-05T10:13:08Z</time>
      </trkpt>
      <trkpt lat="44.0962" lon="1.82383">
        <ele>353</ele>
        <time>2023-03-05T10:13:09Z</time>
      </trkpt>
      <trkpt lat="44.09622" lon="1.82385">
        <ele>353.8</ele>
        <time>2023-03-05T10:13:10Z</time>
      </trkpt>
      <trkpt lat="44.09622" lon="1.82387">
        <ele>354.4</ele>
        <time>2023-03-05T10:13:11Z</time>
      </trkpt>
      <trkpt lat="44.09622" lon="1.82388">
        <ele>354.6</ele>
        <time>2023-03-05T10:13:12Z</time>
      </trkpt>
      <trkpt lat="44.09623" lon="1.8239">
        <ele>355</ele>
        <time>2023-03-05T10:13:13Z</time>
      </trkpt>
      <trkpt lat="44.09623" lon="1.82392">
        <ele>355</ele>
        <time>2023-03-05T10:13:14Z</time>
      </trkpt>
      <trkpt lat="44.09624" lon="1.82394">
        <ele>355.2</ele>
        <time>2023-03-05T10:13:15Z</time>
      </trkpt>
      <trkpt lat="44.09625" lon="1.82396">
        <ele>355.4</ele>
        <time>2023-03-05T10:13:16Z</time>
      </trkpt>
      <trkpt lat="44.09626" lon="1.82399">
        <ele>355.6</ele>
        <time>2023-03-05T10:13:17Z</time>
      </trkpt>
      <trkpt lat="44.09626" lon="1.82401">
        <ele>356.2</ele>
        <time>2023-03-05T10:13:18Z</time>
      </trkpt>
      <trkpt lat="44.09626" lon="1.82403">
        <ele>356.8</ele>
        <time>2023-03-05T10:13:19Z</time>
      </trkpt>
      <trkpt lat="44.09625" lon="1.82405">
        <ele>356.8</ele>
        <time>2023-03-05T10:13:20Z</time>
      </trkpt>
      <trkpt lat="44.09625" lon="1.82407">
        <ele>357.4</ele>
        <time>2023-03-05T10:13:21Z</time>
      </trkpt>
      <trkpt lat="44.09625" lon="1.8241">
        <ele>357.8</ele>
        <time>2023-03-05T10:13:22Z</time>
      </trkpt>
      <trkpt lat="44.09624" lon="1.82412">
        <ele>358</ele>
        <time>2023-03-05T10:13:23Z</time>
      </trkpt>
      <trkpt lat="44.09624" lon="1.82415">
        <ele>358.6</ele>
        <time>2023-03-05T10:13:24Z</time>
      </trkpt>
      <trkpt lat="44.09623" lon="1.82417">
        <ele>358.8</ele>
        <time>2023-03-05T10:13:25Z</time>
      </trkpt>
      <trkpt lat="44.09623" lon="1.8242">
        <ele>359.2</ele>
        <time>2023-03-05T10:13:26Z</time>
      </trkpt>
      <trkpt lat="44.09623" lon="1.82422">
        <ele>359.4</ele>
        <time>2023-03-05T10:13:27Z</time>
      </trkpt>
      <trkpt lat="44.09622" lon="1.82424">
        <ele>359.8</ele>
        <time>2023-03-05T10:13:28Z</time>
      </trkpt>
      <trkpt lat="44.09622" lon="1.82426">
        <ele>360</ele>
        <time>2023-03-05T10:13:29Z</time>
      </trkpt>
      <trkpt lat="44.09622" lon="1.82429">
        <ele>360.6</ele>
        <time>2023-03-05T10:13:30Z</time>
      </trkpt>
      <trkpt lat="44.09622" lon="1.8243">
        <ele>360.8</ele>
        <time>2023-03-05T10:13:31Z</time>
      </trkpt>
      <trkpt lat="44.09621" lon="1.82432">
        <ele>361.2</ele>
        <time>2023-03-05T10:13:32Z</time>
      </trkpt>
      <trkpt lat="44.09621" lon="1.82434">
        <ele>361.6</ele>
        <time>2023-03-05T10:13:33Z</time>
      </trkpt>
      <trkpt lat="44.09621" lon="1.82436">
        <ele>361.8</ele>
        <time>2023-03-05T10:13:34Z</time>
      </trkpt>
      <trkpt lat="44.09621" lon="1.82438">
        <ele>362.2</ele>
        <time>2023-03-05T10:13:35Z</time>
      </trkpt>
      <trkpt lat="44.0962" lon="1.8244">
        <ele>362.2</ele>
        <time>2023-03-05T10:13:36Z</time>
      </trkpt>
      <trkpt lat="44.0962" lon="1.82443">
        <ele>362.6</ele>
        <time>2023-03-05T10:13:37Z</time>
      </trkpt>
      <trkpt lat="44.09619" lon="1.82445">
        <ele>363</ele>
        <time>2023-03-05T10:13:38Z</time>
      </trkpt>
      <trkpt lat="44.09619" lon="1.82448">
        <ele>363.4</ele>
        <time>2023-03-05T10:13:39Z</time>
      </trkpt>
      <trkpt lat="44.09618" lon="1.8245">
        <ele>363.6</ele>
        <time>2023-03-05T10:13:40Z</time>
      </trkpt>
      <trkpt lat="44.09619" lon="1.82452">
        <ele>364.2</ele>
        <time>2023-03-05T10:13:41Z</time>
      </trkpt>
      <trkpt lat="44.09618" lon="1.82455">
        <ele>364.6</ele>
        <time>2023-03-05T10:13:42Z</time>
      </trkpt>
      <trkpt lat="44.09618" lon="1.82457">
        <ele>365.2</ele>
        <time>2023-03-05T10:13:43Z</time>
      </trkpt>
      <trkpt lat="44.09617" lon="1.82459">
        <ele>365.6</ele>
        <time>2023-03-05T10:13:44Z</time>
      </trkpt>
      <trkpt lat="44.09617" lon="1.82461">
        <ele>365.8</ele>
        <time>2023-03-05T10:13:45Z</time>
      </trkpt>
      <trkpt lat="44.09616" lon="1.82463">
        <ele>366</ele>
        <time>2023-03-05T10:13:46Z</time>
      </trkpt>
      <trkpt lat="44.09616" lon="1.82466">
        <ele>366.2</ele>
        <time>2023-03-05T10:13:47Z</time>
      </trkpt>
      <trkpt lat="44.09616" lon="1.82468">
        <ele>366.6</ele>
        <time>2023-03-05T10:13:48Z</time>
      </trkpt>
      <trkpt lat="44.09616" lon="1.82471">
        <ele>366.8</ele>
        <time>2023-03-05T10:13:49Z</time>
      </trkpt>
      <trkpt lat="44.09615" lon="1.82473">
        <ele>367.8</ele>
        <time>2023-03-05T10:13:50Z</time>
      </trkpt>
      <trkpt lat="44.09616" lon="1.82475">
        <ele>368</ele>
        <time>2023-03-05T10:13:51Z</time>
      </trkpt>
      <trkpt lat="44.09615" lon="1.82477">
        <ele>368.6</ele>
        <time>2023-03-05T10:13:52Z</time>
      </trkpt>
      <trkpt lat="44.09615" lon="1.8248">
        <ele>368.8</ele>
        <time>2023-03-05T10:13:53Z</time>
      </trkpt>
      <trkpt lat="44.09615" lon="1.82482">
        <ele>369</ele>
        <time>2023-03-05T10:13:54Z</time>
      </trkpt>
      <trkpt lat="44.09615" lon="1.82484">
        <ele>369.4</ele>
        <time>2023-03-05T10:13:55Z</time>
      </trkpt>
      <trkpt lat="44.09614" lon="1.82487">
        <ele>369.6</ele>
        <time>2023-03-05T10:13:56Z</time>
      </trkpt>
      <trkpt lat="44.09614" lon="1.82489">
        <ele>369.8</ele>
        <time>2023-03-05T10:13:57Z</time>
      </trkpt>
      <trkpt lat="44.09614" lon="1.82492">
        <ele>370</ele>
        <time>2023-03-05T10:13:58Z</time>
      </trkpt>
      <trkpt lat="44.09613" lon="1.82494">
        <ele>370.4</ele>
        <time>2023-03-05T10:13:59Z</time>
      </trkpt>
      <trkpt lat="44.09612" lon="1.82496">
        <ele>370.6</ele>
        <time>2023-03-05T10:14:00Z</time>
      </trkpt>
      <trkpt lat="44.09612" lon="1.82498">
        <ele>371</ele>
        <time>2023-03-05T10:14:01Z</time>
      </trkpt>
      <trkpt lat="44.09611" lon="1.82501">
        <ele>371.2</ele>
        <time>2023-03-05T10:14:02Z</time>
      </trkpt>
      <trkpt lat="44.09611" lon="1.82503">
        <ele>371.6</ele>
        <time>2023-03-05T10:14:03Z</time>
      </trkpt>
      <trkpt lat="44.0961" lon="1.82505">
        <ele>371.8</ele>
        <time>2023-03-05T10:14:04Z</time>
      </trkpt>
      <trkpt lat="44.0961" lon="1.82507">
        <ele>372.2</ele>
        <time>2023-03-05T10:14:05Z</time>
      </trkpt>
      <trkpt lat="44.0961" lon="1.82509">
        <ele>372.4</ele>
        <time>2023-03-05T10:14:06Z</time>
      </trkpt>
      <trkpt lat="44.0961" lon="1.82511">
        <ele>372.6</ele>
        <time>2023-03-05T10:14:07Z</time>
      </trkpt>
      <trkpt lat="44.09611" lon="1.82514">
        <ele>373</ele>
        <time>2023-03-05T10:14:08Z</time>
      </trkpt>
      <trkpt lat="44.09611" lon="1.82517">
        <ele>373.2</ele>
        <time>2023-03-05T10:14:09Z</time>
      </trkpt>
      <trkpt lat="44.09612" lon="1.8252">
        <ele>373.4</ele>
        <time>2023-03-05T10:14:10Z</time>
      </trkpt>
      <trkpt lat="44.09612" lon="1.82524">
        <ele>373.6</ele>
        <time>2023-03-05T10:14:11Z</time>
      </trkpt>
      <trkpt lat="44.09613" lon="1.82528">
        <ele>374</ele>
        <time>2023-03-05T10:14:12Z</time>
      </trkpt>
      <trkpt lat="44.09613" lon="1.82532">
        <ele>374.2</ele>
        <time>2023-03-05T10:14:13Z</time>
      </trkpt>
      <trkpt lat="44.09612" lon="1.82536">
        <ele>374.4</ele>
        <time>2023-03-05T10:14:14Z</time>
      </trkpt>
      <trkpt lat="44.09612" lon="1.82539">
        <ele>374.4</ele>
        <time>2023-03-05T10:14:15Z</time>
      </trkpt>
      <trkpt lat="44.09611" lon="1.82542">
        <ele>374.8</ele>
        <time>2023-03-05T10:14:16Z</time>
      </trkpt>
      <trkpt lat="44.09611" lon="1.82544">
        <ele>375</ele>
        <time>2023-03-05T10:14:17Z</time>
      </trkpt>
      <trkpt lat="44.09611" lon="1.82547">
        <ele>375</ele>
        <time>2023-03-05T10:14:18Z</time>
      </trkpt>
      <trkpt lat="44.09611" lon="1.8255">
        <ele>375.2</ele>
        <time>2023-03-05T10:14:19Z</time>
      </trkpt>
      <trkpt lat="44.09611" lon="1.82553">
        <ele>375.2</ele>
        <time>2023-03-05T10:14:20Z</time>
      </trkpt>
      <trkpt lat="44.09612" lon="1.82555">
        <ele>375.4</ele>
        <time>2023-03-05T10:14:21Z</time>
      </trkpt>
      <trkpt lat="44.09611" lon="1.82558">
        <ele>375.4</ele>
        <time>2023-03-05T10:14:22Z</time>
      </trkpt>
      <trkpt lat="44.09611" lon="1.8256">
        <ele>375.8</ele>
        <time>2023-03-05T10:14:23Z</time>
      </trkpt>
      <trkpt lat="44.0961" lon="1.82563">
        <ele>376</ele>
        <time>2023-03-05T10:14:24Z</time>
      </trkpt>
      <trkpt lat="44.0961" lon="1.82565">
        <ele>376.2</ele>
        <time>2023-03-05T10:14:25Z</time>
      </trkpt>
      <trkpt lat="44.0961" lon="1.82567">
        <ele>376.4</ele>
        <time>2023-03-05T10:14:26Z</time>
      </trkpt>
      <trkpt lat="44.0961" lon="1.82569">
        <ele>376.6</ele>
        <time>2023-03-05T10:14:27Z</time>
      </trkpt>
      <trkpt lat="44.09609" lon="1.82572">
        <ele>376.6</ele>
        <time>2023-03-05T10:14:28Z</time>
      </trkpt>
      <trkpt lat="44.09609" lon="1.82574">
        <ele>376.8</ele>
        <time>2023-03-05T10:14:29Z</time>
      </trkpt>
      <trkpt lat="44.09609" lon="1.82576">
        <ele>377</ele>
        <time>2023-03-05T10:14:30Z</time>
      </trkpt>
      <trkpt lat="44.09608" lon="1.82579">
        <ele>377.2</ele>
        <time>2023-03-05T10:14:31Z</time>
      </trkpt>
      <trkpt lat="44.09608" lon="1.82583">
        <ele>377.6</ele>
        <time>2023-03-05T10:14:32Z</time>
      </trkpt>
      <trkpt lat="44.09607" lon="1.82586">
        <ele>377.8</ele>
        <time>2023-03-05T10:14:33Z</time>
      </trkpt>
      <trkpt lat="44.09607" lon="1.82589">
        <ele>378.2</ele>
        <time>2023-03-05T10:14:34Z</time>
      </trkpt>
      <trkpt lat="44.09606" lon="1.82593">
        <ele>378.2</ele>
        <time>2023-03-05T10:14:35Z</time>
      </trkpt>
      <trkpt lat="44.09606" lon="1.82597">
        <ele>378.4</ele>
        <time>2023-03-05T10:14:36Z</time>
      </trkpt>
      <trkpt lat="44.09605" lon="1.82599">
        <ele>378.6</ele>
        <time>2023-03-05T10:14:37Z</time>
      </trkpt>
      <trkpt lat="44.09605" lon="1.82602">
        <ele>378.8</ele>
        <time>2023-03-05T10:14:38Z</time>
      </trkpt>
      <trkpt lat="44.09605" lon="1.82605">
        <ele>379</ele>
        <time>2023-03-05T10:14:39Z</time>
      </trkpt>
      <trkpt lat="44.09604" lon="1.82608">
        <ele>379</ele>
        <time>2023-03-05T10:14:40Z</time>
      </trkpt>
      <trkpt lat="44.09603" lon="1.82612">
        <ele>379.2</ele>
        <time>2023-03-05T10:14:41Z</time>
      </trkpt>
      <trkpt lat="44.09603" lon="1.82615">
        <ele>379.4</ele>
        <time>2023-03-05T10:14:42Z</time>
      </trkpt>
      <trkpt lat="44.09602" lon="1.82619">
        <ele>379.6</ele>
        <time>2023-03-05T10:14:43Z</time>
      </trkpt>
      <trkpt lat="44.09603" lon="1.82623">
        <ele>379.8</ele>
        <time>2023-03-05T10:14:44Z</time>
      </trkpt>
      <trkpt lat="44.09603" lon="1.82627">
        <ele>379.8</ele>
        <time>2023-03-05T10:14:45Z</time>
      </trkpt>
      <trkpt lat="44.09603" lon="1.8263">
        <ele>380</ele>
        <time>2023-03-05T10:14:46Z</time>
      </trkpt>
      <trkpt lat="44.09603" lon="1.82633">
        <ele>380.2</ele>
        <time>2023-03-05T10:14:47Z</time>
      </trkpt>
      <trkpt lat="44.09603" lon="1.82636">
        <ele>380.4</ele>
        <time>2023-03-05T10:14:48Z</time>
      </trkpt>
      <trkpt lat="44.09603" lon="1.82639">
        <ele>380.6</ele>
        <time>2023-03-05T10:14:49Z</time>
      </trkpt>
      <trkpt lat="44.09604" lon="1.82642">
        <ele>380.8</ele>
        <time>2023-03-05T10:14:50Z</time>
      </trkpt>
      <trkpt lat="44.09604" lon="1.82645">
        <ele>381</ele>
        <time>2023-03-05T10:14:51Z</time>
      </trkpt>
      <trkpt lat="44.09604" lon="1.82648">
        <ele>381</ele>
        <time>2023-03-05T10:14:52Z</time>
      </trkpt>
      <trkpt lat="44.09604" lon="1.82652">
        <ele>381</ele>
        <time>2023-03-05T10:14:53Z</time>
      </trkpt>
      <trkpt lat="44.09604" lon="1.82655">
        <ele>381.2</ele>
        <time>2023-03-05T10:14:54Z</time>
      </trkpt>
      <trkpt lat="44.09604" lon="1.82658">
        <ele>381.4</ele>
        <time>2023-03-05T10:14:55Z</time>
      </trkpt>
      <trkpt lat="44.09604" lon="1.82661">
        <ele>381.4</ele>
        <time>2023-03-05T10:14:56Z</time>
      </trkpt>
      <trkpt lat="44.09604" lon="1.82664">
        <ele>381.6</ele>
        <time>2023-03-05T10:14:57Z</time>
      </trkpt>
      <trkpt lat="44.09603" lon="1.82666">
        <ele>381.8</ele>
        <time>2023-03-05T10:14:58Z</time>
      </trkpt>
      <trkpt lat="44.09603" lon="1.8267">
        <ele>382</ele>
        <time>2023-03-05T10:14:59Z</time>
      </trkpt>
      <trkpt lat="44.09602" lon="1.82673">
        <ele>382.2</ele>
        <time>2023-03-05T10:15:00Z</time>
      </trkpt>
      <trkpt lat="44.09601" lon="1.82676">
        <ele>382.4</ele>
        <time>2023-03-05T10:15:01Z</time>
      </trkpt>
      <trkpt lat="44.096" lon="1.82679">
        <ele>382.6</ele>
        <time>2023-03-05T10:15:02Z</time>
      </trkpt>
      <trkpt lat="44.09599" lon="1.82682">
        <ele>382.8</ele>
        <time>2023-03-05T10:15:03Z</time>
      </trkpt>
      <trkpt lat="44.09598" lon="1.82685">
        <ele>383</ele>
        <time>2023-03-05T10:15:04Z</time>
      </trkpt>
      <trkpt lat="44.09597" lon="1.82688">
        <ele>383.6</ele>
        <time>2023-03-05T10:15:05Z</time>
      </trkpt>
      <trkpt lat="44.09596" lon="1.82691">
        <ele>383.8</ele>
        <time>2023-03-05T10:15:06Z</time>
      </trkpt>
      <trkpt lat="44.09595" lon="1.82694">
        <ele>384.4</ele>
        <time>2023-03-05T10:15:07Z</time>
      </trkpt>
      <trkpt lat="44.09593" lon="1.82697">
        <ele>384.6</ele>
        <time>2023-03-05T10:15:08Z</time>
      </trkpt>
      <trkpt lat="44.09592" lon="1.827">
        <ele>385.4</ele>
        <time>2023-03-05T10:15:09Z</time>
      </trkpt>
      <trkpt lat="44.0959" lon="1.82703">
        <ele>385.8</ele>
        <time>2023-03-05T10:15:10Z</time>
      </trkpt>
      <trkpt lat="44.09589" lon="1.82705">
        <ele>386.2</ele>
        <time>2023-03-05T10:15:11Z</time>
      </trkpt>
      <trkpt lat="44.09587" lon="1.82708">
        <ele>386.8</ele>
        <time>2023-03-05T10:15:12Z</time>
      </trkpt>
      <trkpt lat="44.09586" lon="1.82711">
        <ele>387.2</ele>
        <time>2023-03-05T10:15:13Z</time>
      </trkpt>
      <trkpt lat="44.09585" lon="1.82714">
        <ele>387.6</ele>
        <time>2023-03-05T10:15:14Z</time>
      </trkpt>
      <trkpt lat="44.09583" lon="1.82717">
        <ele>388</ele>
        <time>2023-03-05T10:15:15Z</time>
      </trkpt>
      <trkpt lat="44.09582" lon="1.8272">
        <ele>388.6</ele>
        <time>2023-03-05T10:15:16Z</time>
      </trkpt>
      <trkpt lat="44.09582" lon="1.82723">
        <ele>388.8</ele>
        <time>2023-03-05T10:15:17Z</time>
      </trkpt>
      <trkpt lat="44.09581" lon="1.82725">
        <ele>389.6</ele>
        <time>2023-03-05T10:15:18Z</time>
      </trkpt>
      <trkpt lat="44.09581" lon="1.82728">
        <ele>390</ele>
        <time>2023-03-05T10:15:19Z</time>
      </trkpt>
      <trkpt lat="44.0958" lon="1.82732">
        <ele>390.6</ele>
        <time>2023-03-05T10:15:20Z</time>
      </trkpt>
      <trkpt lat="44.0958" lon="1.82735">
        <ele>390.8</ele>
        <time>2023-03-05T10:15:21Z</time>
      </trkpt>
      <trkpt lat="44.0958" lon="1.82739">
        <ele>391.6</ele>
        <time>2023-03-05T10:15:22Z</time>
      </trkpt>
      <trkpt lat="44.09579" lon="1.82742">
        <ele>392</ele>
        <time>2023-03-05T10:15:23Z</time>
      </trkpt>
      <trkpt lat="44.09579" lon="1.82745">
        <ele>392</ele>
        <time>2023-03-05T10:15:24Z</time>
      </trkpt>
      <trkpt lat="44.09579" lon="1.82748">
        <ele>392.4</ele>
        <time>2023-03-05T10:15:25Z</time>
      </trkpt>
      <trkpt lat="44.09578" lon="1.82751">
        <ele>392.6</ele>
        <time>2023-03-05T10:15:26Z</time>
      </trkpt>
      <trkpt lat="44.09577" lon="1.82755">
        <ele>393</ele>
        <time>2023-03-05T10:15:27Z</time>
      </trkpt>
      <trkpt lat="44.09577" lon="1.82758">
        <ele>393</ele>
        <time>2023-03-05T10:15:28Z</time>
      </trkpt>
      <trkpt lat="44.09577" lon="1.82762">
        <ele>393.4</ele>
        <time>2023-03-05T10:15:29Z</time>
      </trkpt>
      <trkpt lat="44.09577" lon="1.82765">
        <ele>393.6</ele>
        <time>2023-03-05T10:15:30Z</time>
      </trkpt>
      <trkpt lat="44.09576" lon="1.82768">
        <ele>394.2</ele>
        <time>2023-03-05T10:15:31Z</time>
      </trkpt>
      <trkpt lat="44.09576" lon="1.82772">
        <ele>394.4</ele>
        <time>2023-03-05T10:15:32Z</time>
      </trkpt>
      <trkpt lat="44.09575" lon="1.82776">
        <ele>394.8</ele>
        <time>2023-03-05T10:15:33Z</time>
      </trkpt>
      <trkpt lat="44.09575" lon="1.82779">
        <ele>394.8</ele>
        <time>2023-03-05T10:15:34Z</time>
      </trkpt>
      <trkpt lat="44.09575" lon="1.82782">
        <ele>395</ele>
        <time>2023-03-05T10:15:35Z</time>
      </trkpt>
      <trkpt lat="44.09575" lon="1.82786">
        <ele>395.6</ele>
        <time>2023-03-05T10:15:36Z</time>
      </trkpt>
      <trkpt lat="44.09575" lon="1.82789">
        <ele>395.8</ele>
        <time>2023-03-05T10:15:37Z</time>
      </trkpt>
      <trkpt lat="44.09575" lon="1.82793">
        <ele>396.2</ele>
        <time>2023-03-05T10:15:38Z</time>
      </trkpt>
      <trkpt lat="44.09574" lon="1.82796">
        <ele>396.6</ele>
        <time>2023-03-05T10:15:39Z</time>
      </trkpt>
      <trkpt lat="44.09573" lon="1.828">
        <ele>396.8</ele>
        <time>2023-03-05T10:15:40Z</time>
      </trkpt>
      <trkpt lat="44.09572" lon="1.82804">
        <ele>397</ele>
        <time>2023-03-05T10:15:41Z</time>
      </trkpt>
      <trkpt lat="44.09572" lon="1.82808">
        <ele>397.6</ele>
        <time>2023-03-05T10:15:42Z</time>
      </trkpt>
      <trkpt lat="44.09572" lon="1.82812">
        <ele>397.8</ele>
        <time>2023-03-05T10:15:43Z</time>
      </trkpt>
      <trkpt lat="44.09575" lon="1.82817">
        <ele>398.4</ele>
        <time>2023-03-05T10:15:44Z</time>
      </trkpt>
      <trkpt lat="44.09577" lon="1.82822">
        <ele>398.8</ele>
        <time>2023-03-05T10:15:45Z</time>
      </trkpt>
      <trkpt lat="44.09578" lon="1.82827">
        <ele>399</ele>
        <time>2023-03-05T10:15:46Z</time>
      </trkpt>
      <trkpt lat="44.09579" lon="1.82831">
        <ele>399.4</ele>
        <time>2023-03-05T10:15:47Z</time>
      </trkpt>
      <trkpt lat="44.09579" lon="1.82835">
        <ele>399.4</ele>
        <time>2023-03-05T10:15:48Z</time>
      </trkpt>
      <trkpt lat="44.0958" lon="1.82839">
        <ele>399.6</ele>
        <time>2023-03-05T10:15:49Z</time>
      </trkpt>
      <trkpt lat="44.09581" lon="1.82843">
        <ele>399.6</ele>
        <time>2023-03-05T10:15:50Z</time>
      </trkpt>
      <trkpt lat="44.09582" lon="1.82847">
        <ele>400</ele>
        <time>2023-03-05T10:15:51Z</time>
      </trkpt>
      <trkpt lat="44.09582" lon="1.8285">
        <ele>400.2</ele>
        <time>2023-03-05T10:15:52Z</time>
      </trkpt>
      <trkpt lat="44.09581" lon="1.82854">
        <ele>400.4</ele>
        <time>2023-03-05T10:15:53Z</time>
      </trkpt>
      <trkpt lat="44.09581" lon="1.82857">
        <ele>400.4</ele>
        <time>2023-03-05T10:15:54Z</time>
      </trkpt>
      <trkpt lat="44.0958" lon="1.8286">
        <ele>400.6</ele>
        <time>2023-03-05T10:15:55Z</time>
      </trkpt>
      <trkpt lat="44.0958" lon="1.82862">
        <ele>400.6</ele>
        <time>2023-03-05T10:15:56Z</time>
      </trkpt>
      <trkpt lat="44.0958" lon="1.82865">
        <ele>401</ele>
        <time>2023-03-05T10:15:57Z</time>
      </trkpt>
      <trkpt lat="44.0958" lon="1.82868">
        <ele>401.2</ele>
        <time>2023-03-05T10:15:58Z</time>
      </trkpt>
      <trkpt lat="44.09581" lon="1.82871">
        <ele>401.4</ele>
        <time>2023-03-05T10:15:59Z</time>
      </trkpt>
      <trkpt lat="44.09583" lon="1.82875">
        <ele>401.4</ele>
        <time>2023-03-05T10:16:00Z</time>
      </trkpt>
      <trkpt lat="44.09584" lon="1.8288">
        <ele>401.6</ele>
        <time>2023-03-05T10:16:01Z</time>
      </trkpt>
      <trkpt lat="44.09585" lon="1.82885">
        <ele>401.6</ele>
        <time>2023-03-05T10:16:02Z</time>
      </trkpt>
      <trkpt lat="44.09586" lon="1.8289">
        <ele>401.6</ele>
        <time>2023-03-05T10:16:03Z</time>
      </trkpt>
      <trkpt lat="44.09586" lon="1.82892">
        <ele>401.6</ele>
        <time>2023-03-05T10:16:04Z</time>
      </trkpt>
      <trkpt lat="44.09587" lon="1.82895">
        <ele>401.6</ele>
        <time>2023-03-05T10:16:05Z</time>
      </trkpt>
      <trkpt lat="44.09586" lon="1.82896">
        <ele>401.4</ele>
        <time>2023-03-05T10:16:06Z</time>
      </trkpt>
      <trkpt lat="44.09586" lon="1.82898">
        <ele>401.2</ele>
        <time>2023-03-05T10:16:07Z</time>
      </trkpt>
      <trkpt lat="44.09586" lon="1.82898">
        <ele>401</ele>
        <time>2023-03-05T10:16:08Z</time>
      </trkpt>
      <trkpt lat="44.09586" lon="1.82898">
        <ele>400.8</ele>
        <time>2023-03-05T10:16:09Z</time>
      </trkpt>
      <trkpt lat="44.09586" lon="1.82898">
        <ele>400.6</ele>
        <time>2023-03-05T10:16:10Z</time>
      </trkpt>
      <trkpt lat="44.09588" lon="1.82905">
        <ele>400.2</ele>
        <time>2023-03-05T10:19:38Z</time>
      </trkpt>
      <trkpt lat="44.09589" lon="1.82908">
        <ele>400</ele>
        <time>2023-03-05T10:19:39Z</time>
      </trkpt>
      <trkpt lat="44.0959" lon="1.82912">
        <ele>400</ele>
        <time>2023-03-05T10:19:40Z</time>
      </trkpt>
      <trkpt lat="44.09591" lon="1.82917">
        <ele>400</ele>
        <time>2023-03-05T10:19:41Z</time>
      </trkpt>
      <trkpt lat="44.09593" lon="1.82922">
        <ele>399.8</ele>
        <time>2023-03-05T10:19:42Z</time>
      </trkpt>
      <trkpt lat="44.09594" lon="1.82927">
        <ele>399.8</ele>
        <time>2023-03-05T10:19:43Z</time>
      </trkpt>
      <trkpt lat="44.09597" lon="1.82931">
        <ele>399.8</ele>
        <time>2023-03-05T10:19:44Z</time>
      </trkpt>
      <trkpt lat="44.09599" lon="1.82936">
        <ele>399.6</ele>
        <time>2023-03-05T10:19:45Z</time>
      </trkpt>
      <trkpt lat="44.09601" lon="1.8294">
        <ele>399.6</ele>
        <time>2023-03-05T10:19:46Z</time>
      </trkpt>
      <trkpt lat="44.09603" lon="1.82945">
        <ele>399.6</ele>
        <time>2023-03-05T10:19:47Z</time>
      </trkpt>
      <trkpt lat="44.09605" lon="1.82949">
        <ele>399.6</ele>
        <time>2023-03-05T10:19:48Z</time>
      </trkpt>
      <trkpt lat="44.09605" lon="1.82954">
        <ele>399.6</ele>
        <time>2023-03-05T10:19:49Z</time>
      </trkpt>
      <trkpt lat="44.09606" lon="1.82957">
        <ele>399.6</ele>
        <time>2023-03-05T10:19:50Z</time>
      </trkpt>
      <trkpt lat="44.09606" lon="1.82961">
        <ele>399.6</ele>
        <time>2023-03-05T10:19:51Z</time>
      </trkpt>
      <trkpt lat="44.09606" lon="1.82965">
        <ele>399.6</ele>
        <time>2023-03-05T10:19:52Z</time>
      </trkpt>
      <trkpt lat="44.09606" lon="1.8297">
        <ele>399.8</ele>
        <time>2023-03-05T10:19:53Z</time>
      </trkpt>
      <trkpt lat="44.09606" lon="1.82974">
        <ele>399.8</ele>
        <time>2023-03-05T10:19:54Z</time>
      </trkpt>
      <trkpt lat="44.09606" lon="1.82978">
        <ele>400.2</ele>
        <time>2023-03-05T10:19:55Z</time>
      </trkpt>
      <trkpt lat="44.09605" lon="1.82982">
        <ele>400.4</ele>
        <time>2023-03-05T10:19:56Z</time>
      </trkpt>
      <trkpt lat="44.09605" lon="1.82986">
        <ele>400.6</ele>
        <time>2023-03-05T10:19:57Z</time>
      </trkpt>
      <trkpt lat="44.09603" lon="1.8299">
        <ele>401</ele>
        <time>2023-03-05T10:19:58Z</time>
      </trkpt>
      <trkpt lat="44.09602" lon="1.82994">
        <ele>401.2</ele>
        <time>2023-03-05T10:19:59Z</time>
      </trkpt>
      <trkpt lat="44.09601" lon="1.82998">
        <ele>401.6</ele>
        <time>2023-03-05T10:20:00Z</time>
      </trkpt>
      <trkpt lat="44.096" lon="1.83002">
        <ele>401.6</ele>
        <time>2023-03-05T10:20:01Z</time>
      </trkpt>
      <trkpt lat="44.09599" lon="1.83006">
        <ele>402.2</ele>
        <time>2023-03-05T10:20:02Z</time>
      </trkpt>
      <trkpt lat="44.09599" lon="1.83009">
        <ele>402.4</ele>
        <time>2023-03-05T10:20:03Z</time>
      </trkpt>
      <trkpt lat="44.09599" lon="1.83014">
        <ele>402.8</ele>
        <time>2023-03-05T10:20:04Z</time>
      </trkpt>
      <trkpt lat="44.09598" lon="1.83017">
        <ele>403</ele>
        <time>2023-03-05T10:20:05Z</time>
      </trkpt>
      <trkpt lat="44.09597" lon="1.83021">
        <ele>403.2</ele>
        <time>2023-03-05T10:20:06Z</time>
      </trkpt>
      <trkpt lat="44.09596" lon="1.83025">
        <ele>403.6</ele>
        <time>2023-03-05T10:20:07Z</time>
      </trkpt>
      <trkpt lat="44.09594" lon="1.83028">
        <ele>403.8</ele>
        <time>2023-03-05T10:20:08Z</time>
      </trkpt>
      <trkpt lat="44.09594" lon="1.83031">
        <ele>404</ele>
        <time>2023-03-05T10:20:09Z</time>
      </trkpt>
      <trkpt lat="44.09593" lon="1.83034">
        <ele>404</ele>
        <time>2023-03-05T10:20:10Z</time>
      </trkpt>
      <trkpt lat="44.09593" lon="1.83037">
        <ele>404.2</ele>
        <time>2023-03-05T10:20:11Z</time>
      </trkpt>
      <trkpt lat="44.09593" lon="1.8304">
        <ele>404.4</ele>
        <time>2023-03-05T10:20:12Z</time>
      </trkpt>
      <trkpt lat="44.09591" lon="1.83044">
        <ele>404.8</ele>
        <time>2023-03-05T10:20:13Z</time>
      </trkpt>
      <trkpt lat="44.09589" lon="1.83047">
        <ele>405</ele>
        <time>2023-03-05T10:20:14Z</time>
      </trkpt>
      <trkpt lat="44.09588" lon="1.8305">
        <ele>405.2</ele>
        <time>2023-03-05T10:20:15Z</time>
      </trkpt>
      <trkpt lat="44.09587" lon="1.83054">
        <ele>405.4</ele>
        <time>2023-03-05T10:20:16Z</time>
      </trkpt>
      <trkpt lat="44.09586" lon="1.83058">
        <ele>405.8</ele>
        <time>2023-03-05T10:20:17Z</time>
      </trkpt>
      <trkpt lat="44.09584" lon="1.83062">
        <ele>406</ele>
        <time>2023-03-05T10:20:18Z</time>
      </trkpt>
      <trkpt lat="44.09583" lon="1.83064">
        <ele>406.2</ele>
        <time>2023-03-05T10:20:19Z</time>
      </trkpt>
      <trkpt lat="44.09581" lon="1.83067">
        <ele>406.4</ele>
        <time>2023-03-05T10:20:20Z</time>
      </trkpt>
      <trkpt lat="44.09579" lon="1.83069">
        <ele>406.6</ele>
        <time>2023-03-05T10:20:21Z</time>
      </trkpt>
      <trkpt lat="44.09577" lon="1.83072">
        <ele>407.2</ele>
        <time>2023-03-05T10:20:22Z</time>
      </trkpt>
      <trkpt lat="44.09575" lon="1.83074">
        <ele>407.4</ele>
        <time>2023-03-05T10:20:23Z</time>
      </trkpt>
      <trkpt lat="44.09573" lon="1.83077">
        <ele>407.8</ele>
        <time>2023-03-05T10:20:24Z</time>
      </trkpt>
      <trkpt lat="44.09571" lon="1.83078">
        <ele>408</ele>
        <time>2023-03-05T10:20:25Z</time>
      </trkpt>
      <trkpt lat="44.0957" lon="1.8308">
        <ele>408.2</ele>
        <time>2023-03-05T10:20:26Z</time>
      </trkpt>
      <trkpt lat="44.09569" lon="1.83082">
        <ele>408.4</ele>
        <time>2023-03-05T10:20:27Z</time>
      </trkpt>
      <trkpt lat="44.0957" lon="1.83083">
        <ele>408.6</ele>
        <time>2023-03-05T10:20:28Z</time>
      </trkpt>
      <trkpt lat="44.09571" lon="1.83082">
        <ele>408.8</ele>
        <time>2023-03-05T10:20:29Z</time>
      </trkpt>
      <trkpt lat="44.09573" lon="1.83081">
        <ele>408.8</ele>
        <time>2023-03-05T10:20:30Z</time>
      </trkpt>
      <trkpt lat="44.09575" lon="1.83081">
        <ele>409.2</ele>
        <time>2023-03-05T10:20:31Z</time>
      </trkpt>
      <trkpt lat="44.09577" lon="1.8308">
        <ele>409.2</ele>
        <time>2023-03-05T10:20:32Z</time>
      </trkpt>
      <trkpt lat="44.09579" lon="1.83079">
        <ele>409.4</ele>
        <time>2023-03-05T10:20:33Z</time>
      </trkpt>
      <trkpt lat="44.0958" lon="1.83078">
        <ele>409.6</ele>
        <time>2023-03-05T10:20:34Z</time>
      </trkpt>
      <trkpt lat="44.09582" lon="1.83078">
        <ele>409.8</ele>
        <time>2023-03-05T10:20:35Z</time>
      </trkpt>
      <trkpt lat="44.09584" lon="1.83077">
        <ele>409.8</ele>
        <time>2023-03-05T10:20:36Z</time>
      </trkpt>
      <trkpt lat="44.09586" lon="1.83077">
        <ele>410</ele>
        <time>2023-03-05T10:20:37Z</time>
      </trkpt>
      <trkpt lat="44.09588" lon="1.83077">
        <ele>410</ele>
        <time>2023-03-05T10:20:38Z</time>
      </trkpt>
      <trkpt lat="44.0959" lon="1.83077">
        <ele>410.2</ele>
        <time>2023-03-05T10:20:39Z</time>
      </trkpt>
      <trkpt lat="44.09593" lon="1.83077">
        <ele>410.4</ele>
        <time>2023-03-05T10:20:40Z</time>
      </trkpt>
      <trkpt lat="44.09595" lon="1.83077">
        <ele>410.6</ele>
        <time>2023-03-05T10:20:41Z</time>
      </trkpt>
      <trkpt lat="44.09597" lon="1.83078">
        <ele>410.8</ele>
        <time>2023-03-05T10:20:42Z</time>
      </trkpt>
      <trkpt lat="44.09599" lon="1.83078">
        <ele>410.8</ele>
        <time>2023-03-05T10:20:43Z</time>
      </trkpt>
      <trkpt lat="44.09601" lon="1.83078">
        <ele>411.2</ele>
        <time>2023-03-05T10:20:44Z</time>
      </trkpt>
      <trkpt lat="44.09603" lon="1.83078">
        <ele>411.4</ele>
        <time>2023-03-05T10:20:45Z</time>
      </trkpt>
      <trkpt lat="44.09605" lon="1.83079">
        <ele>411.4</ele>
        <time>2023-03-05T10:20:46Z</time>
      </trkpt>
      <trkpt lat="44.09607" lon="1.83079">
        <ele>411.6</ele>
        <time>2023-03-05T10:20:47Z</time>
      </trkpt>
      <trkpt lat="44.0961" lon="1.83079">
        <ele>412</ele>
        <time>2023-03-05T10:20:48Z</time>
      </trkpt>
      <trkpt lat="44.09612" lon="1.83079">
        <ele>412.4</ele>
        <time>2023-03-05T10:20:49Z</time>
      </trkpt>
      <trkpt lat="44.09615" lon="1.83079">
        <ele>412.6</ele>
        <time>2023-03-05T10:20:50Z</time>
      </trkpt>
      <trkpt lat="44.09617" lon="1.83079">
        <ele>412.8</ele>
        <time>2023-03-05T10:20:51Z</time>
      </trkpt>
      <trkpt lat="44.09619" lon="1.83079">
        <ele>412.8</ele>
        <time>2023-03-05T10:20:52Z</time>
      </trkpt>
      <trkpt lat="44.09622" lon="1.8308">
        <ele>413.6</ele>
        <time>2023-03-05T10:20:53Z</time>
      </trkpt>
      <trkpt lat="44.09624" lon="1.83079">
        <ele>414</ele>
        <time>2023-03-05T10:20:54Z</time>
      </trkpt>
      <trkpt lat="44.09627" lon="1.83079">
        <ele>414.4</ele>
        <time>2023-03-05T10:20:55Z</time>
      </trkpt>
      <trkpt lat="44.09629" lon="1.83079">
        <ele>414.6</ele>
        <time>2023-03-05T10:20:56Z</time>
      </trkpt>
      <trkpt lat="44.09631" lon="1.83078">
        <ele>415</ele>
        <time>2023-03-05T10:20:57Z</time>
      </trkpt>
      <trkpt lat="44.09633" lon="1.83077">
        <ele>415.2</ele>
        <time>2023-03-05T10:20:58Z</time>
      </trkpt>
      <trkpt lat="44.09635" lon="1.83077">
        <ele>415.4</ele>
        <time>2023-03-05T10:20:59Z</time>
      </trkpt>
      <trkpt lat="44.09637" lon="1.83076">
        <ele>415.6</ele>
        <time>2023-03-05T10:21:00Z</time>
      </trkpt>
      <trkpt lat="44.09639" lon="1.83075">
        <ele>415.8</ele>
        <time>2023-03-05T10:21:01Z</time>
      </trkpt>
      <trkpt lat="44.09641" lon="1.83074">
        <ele>416</ele>
        <time>2023-03-05T10:21:02Z</time>
      </trkpt>
      <trkpt lat="44.09643" lon="1.83074">
        <ele>416.2</ele>
        <time>2023-03-05T10:21:03Z</time>
      </trkpt>
      <trkpt lat="44.09646" lon="1.83074">
        <ele>416.6</ele>
        <time>2023-03-05T10:21:04Z</time>
      </trkpt>
      <trkpt lat="44.09648" lon="1.83074">
        <ele>416.8</ele>
        <time>2023-03-05T10:21:05Z</time>
      </trkpt>
      <trkpt lat="44.0965" lon="1.83074">
        <ele>417.4</ele>
        <time>2023-03-05T10:21:06Z</time>
      </trkpt>
      <trkpt lat="44.09652" lon="1.83074">
        <ele>417.6</ele>
        <time>2023-03-05T10:21:07Z</time>
      </trkpt>
      <trkpt lat="44.09654" lon="1.83074">
        <ele>418.2</ele>
        <time>2023-03-05T10:21:08Z</time>
      </trkpt>
      <trkpt lat="44.09656" lon="1.83074">
        <ele>418.6</ele>
        <time>2023-03-05T10:21:09Z</time>
      </trkpt>
      <trkpt lat="44.09657" lon="1.83074">
        <ele>418.8</ele>
        <time>2023-03-05T10:21:10Z</time>
      </trkpt>
      <trkpt lat="44.09658" lon="1.83074">
        <ele>419</ele>
        <time>2023-03-05T10:21:11Z</time>
      </trkpt>
      <trkpt lat="44.0966" lon="1.83074">
        <ele>419.2</ele>
        <time>2023-03-05T10:21:12Z</time>
      </trkpt>
      <trkpt lat="44.09662" lon="1.83073">
        <ele>419.6</ele>
        <time>2023-03-05T10:21:13Z</time>
      </trkpt>
      <trkpt lat="44.09665" lon="1.83073">
        <ele>419.8</ele>
        <time>2023-03-05T10:21:14Z</time>
      </trkpt>
      <trkpt lat="44.09666" lon="1.83072">
        <ele>420.8</ele>
        <time>2023-03-05T10:21:15Z</time>
      </trkpt>
      <trkpt lat="44.09669" lon="1.83071">
        <ele>420.8</ele>
        <time>2023-03-05T10:21:16Z</time>
      </trkpt>
      <trkpt lat="44.09671" lon="1.83071">
        <ele>421.2</ele>
        <time>2023-03-05T10:21:17Z</time>
      </trkpt>
      <trkpt lat="44.09673" lon="1.8307">
        <ele>421.6</ele>
        <time>2023-03-05T10:21:18Z</time>
      </trkpt>
      <trkpt lat="44.09675" lon="1.83069">
        <ele>422</ele>
        <time>2023-03-05T10:21:19Z</time>
      </trkpt>
      <trkpt lat="44.09677" lon="1.83069">
        <ele>422.4</ele>
        <time>2023-03-05T10:21:20Z</time>
      </trkpt>
      <trkpt lat="44.09679" lon="1.83068">
        <ele>422.6</ele>
        <time>2023-03-05T10:21:21Z</time>
      </trkpt>
      <trkpt lat="44.09682" lon="1.83066">
        <ele>423</ele>
        <time>2023-03-05T10:21:22Z</time>
      </trkpt>
      <trkpt lat="44.09684" lon="1.83065">
        <ele>423.2</ele>
        <time>2023-03-05T10:21:23Z</time>
      </trkpt>
      <trkpt lat="44.09685" lon="1.83063">
        <ele>423.6</ele>
        <time>2023-03-05T10:21:24Z</time>
      </trkpt>
      <trkpt lat="44.09687" lon="1.83061">
        <ele>423.8</ele>
        <time>2023-03-05T10:21:25Z</time>
      </trkpt>
      <trkpt lat="44.09689" lon="1.83059">
        <ele>424</ele>
        <time>2023-03-05T10:21:26Z</time>
      </trkpt>
      <trkpt lat="44.0969" lon="1.83058">
        <ele>424.2</ele>
        <time>2023-03-05T10:21:27Z</time>
      </trkpt>
      <trkpt lat="44.09692" lon="1.83056">
        <ele>424.4</ele>
        <time>2023-03-05T10:21:28Z</time>
      </trkpt>
      <trkpt lat="44.09693" lon="1.83053">
        <ele>424.8</ele>
        <time>2023-03-05T10:21:29Z</time>
      </trkpt>
      <trkpt lat="44.09695" lon="1.83051">
        <ele>425</ele>
        <time>2023-03-05T10:21:30Z</time>
      </trkpt>
      <trkpt lat="44.09696" lon="1.83049">
        <ele>425.4</ele>
        <time>2023-03-05T10:21:31Z</time>
      </trkpt>
      <trkpt lat="44.09697" lon="1.83047">
        <ele>425.6</ele>
        <time>2023-03-05T10:21:32Z</time>
      </trkpt>
      <trkpt lat="44.09699" lon="1.83045">
        <ele>426</ele>
        <time>2023-03-05T10:21:33Z</time>
      </trkpt>
      <trkpt lat="44.097" lon="1.83043">
        <ele>426.2</ele>
        <time>2023-03-05T10:21:34Z</time>
      </trkpt>
      <trkpt lat="44.09701" lon="1.8304">
        <ele>426.4</ele>
        <time>2023-03-05T10:21:35Z</time>
      </trkpt>
      <trkpt lat="44.09702" lon="1.83038">
        <ele>426.6</ele>
        <time>2023-03-05T10:21:36Z</time>
      </trkpt>
      <trkpt lat="44.09704" lon="1.83035">
        <ele>427</ele>
        <time>2023-03-05T10:21:37Z</time>
      </trkpt>
      <trkpt lat="44.09706" lon="1.83034">
        <ele>427.2</ele>
        <time>2023-03-05T10:21:38Z</time>
      </trkpt>
      <trkpt lat="44.09707" lon="1.83033">
        <ele>427.6</ele>
        <time>2023-03-05T10:21:39Z</time>
      </trkpt>
      <trkpt lat="44.09709" lon="1.83032">
        <ele>427.6</ele>
        <time>2023-03-05T10:21:40Z</time>
      </trkpt>
      <trkpt lat="44.09712" lon="1.83031">
        <ele>428</ele>
        <time>2023-03-05T10:21:41Z</time>
      </trkpt>
      <trkpt lat="44.09714" lon="1.8303">
        <ele>428.2</ele>
        <time>2023-03-05T10:21:42Z</time>
      </trkpt>
      <trkpt lat="44.09716" lon="1.83029">
        <ele>428.6</ele>
        <time>2023-03-05T10:21:43Z</time>
      </trkpt>
      <trkpt lat="44.09718" lon="1.83028">
        <ele>429.2</ele>
        <time>2023-03-05T10:21:44Z</time>
      </trkpt>
      <trkpt lat="44.09721" lon="1.83028">
        <ele>429.6</ele>
        <time>2023-03-05T10:21:45Z</time>
      </trkpt>
      <trkpt lat="44.09723" lon="1.83027">
        <ele>430</ele>
        <time>2023-03-05T10:21:46Z</time>
      </trkpt>
      <trkpt lat="44.09726" lon="1.83027">
        <ele>430.2</ele>
        <time>2023-03-05T10:21:47Z</time>
      </trkpt>
      <trkpt lat="44.09728" lon="1.83027">
        <ele>430.6</ele>
        <time>2023-03-05T10:21:48Z</time>
      </trkpt>
      <trkpt lat="44.09731" lon="1.83027">
        <ele>430.8</ele>
        <time>2023-03-05T10:21:49Z</time>
      </trkpt>
      <trkpt lat="44.09734" lon="1.83027">
        <ele>431.2</ele>
        <time>2023-03-05T10:21:50Z</time>
      </trkpt>
      <trkpt lat="44.09736" lon="1.83027">
        <ele>431.4</ele>
        <time>2023-03-05T10:21:51Z</time>
      </trkpt>
      <trkpt lat="44.09739" lon="1.83028">
        <ele>431.6</ele>
        <time>2023-03-05T10:21:52Z</time>
      </trkpt>
      <trkpt lat="44.09741" lon="1.83028">
        <ele>431.8</ele>
        <time>2023-03-05T10:21:53Z</time>
      </trkpt>
      <trkpt lat="44.09745" lon="1.83028">
        <ele>432</ele>
        <time>2023-03-05T10:21:54Z</time>
      </trkpt>
      <trkpt lat="44.09747" lon="1.83029">
        <ele>432.2</ele>
        <time>2023-03-05T10:21:55Z</time>
      </trkpt>
      <trkpt lat="44.0975" lon="1.8303">
        <ele>432.4</ele>
        <time>2023-03-05T10:21:56Z</time>
      </trkpt>
      <trkpt lat="44.09752" lon="1.8303">
        <ele>432.6</ele>
        <time>2023-03-05T10:21:57Z</time>
      </trkpt>
      <trkpt lat="44.09755" lon="1.8303">
        <ele>432.6</ele>
        <time>2023-03-05T10:21:58Z</time>
      </trkpt>
      <trkpt lat="44.09759" lon="1.83031">
        <ele>432.8</ele>
        <time>2023-03-05T10:21:59Z</time>
      </trkpt>
      <trkpt lat="44.09761" lon="1.83031">
        <ele>432.8</ele>
        <time>2023-03-05T10:22:00Z</time>
      </trkpt>
      <trkpt lat="44.09763" lon="1.83032">
        <ele>432.8</ele>
        <time>2023-03-05T10:22:01Z</time>
      </trkpt>
      <trkpt lat="44.09766" lon="1.83033">
        <ele>433</ele>
        <time>2023-03-05T10:22:02Z</time>
      </trkpt>
      <trkpt lat="44.09769" lon="1.83034">
        <ele>433.2</ele>
        <time>2023-03-05T10:22:03Z</time>
      </trkpt>
      <trkpt lat="44.09771" lon="1.83035">
        <ele>433.4</ele>
        <time>2023-03-05T10:22:04Z</time>
      </trkpt>
      <trkpt lat="44.09774" lon="1.83035">
        <ele>433.6</ele>
        <time>2023-03-05T10:22:05Z</time>
      </trkpt>
      <trkpt lat="44.09776" lon="1.83036">
        <ele>433.6</ele>
        <time>2023-03-05T10:22:06Z</time>
      </trkpt>
      <trkpt lat="44.09778" lon="1.83037">
        <ele>433.8</ele>
        <time>2023-03-05T10:22:07Z</time>
      </trkpt>
      <trkpt lat="44.09781" lon="1.83038">
        <ele>434</ele>
        <time>2023-03-05T10:22:08Z</time>
      </trkpt>
      <trkpt lat="44.09784" lon="1.8304">
        <ele>434</ele>
        <time>2023-03-05T10:22:09Z</time>
      </trkpt>
      <trkpt lat="44.09787" lon="1.83041">
        <ele>434.2</ele>
        <time>2023-03-05T10:22:10Z</time>
      </trkpt>
      <trkpt lat="44.09789" lon="1.83042">
        <ele>434.2</ele>
        <time>2023-03-05T10:22:11Z</time>
      </trkpt>
      <trkpt lat="44.09791" lon="1.83043">
        <ele>434.2</ele>
        <time>2023-03-05T10:22:12Z</time>
      </trkpt>
      <trkpt lat="44.09794" lon="1.83043">
        <ele>434.4</ele>
        <time>2023-03-05T10:22:13Z</time>
      </trkpt>
      <trkpt lat="44.09797" lon="1.83044">
        <ele>434.6</ele>
        <time>2023-03-05T10:22:14Z</time>
      </trkpt>
      <trkpt lat="44.09799" lon="1.83045">
        <ele>434.8</ele>
        <time>2023-03-05T10:22:15Z</time>
      </trkpt>
      <trkpt lat="44.098" lon="1.83045">
        <ele>435</ele>
        <time>2023-03-05T10:22:16Z</time>
      </trkpt>
      <trkpt lat="44.09803" lon="1.83047">
        <ele>435.2</ele>
        <time>2023-03-05T10:22:17Z</time>
      </trkpt>
      <trkpt lat="44.09805" lon="1.83048">
        <ele>435.4</ele>
        <time>2023-03-05T10:22:18Z</time>
      </trkpt>
      <trkpt lat="44.09808" lon="1.83049">
        <ele>435.6</ele>
        <time>2023-03-05T10:22:19Z</time>
      </trkpt>
      <trkpt lat="44.0981" lon="1.8305">
        <ele>435.8</ele>
        <time>2023-03-05T10:22:20Z</time>
      </trkpt>
      <trkpt lat="44.09812" lon="1.83051">
        <ele>436.2</ele>
        <time>2023-03-05T10:22:21Z</time>
      </trkpt>
      <trkpt lat="44.09814" lon="1.83052">
        <ele>436.6</ele>
        <time>2023-03-05T10:22:22Z</time>
      </trkpt>
      <trkpt lat="44.09816" lon="1.83054">
        <ele>437</ele>
        <time>2023-03-05T10:22:23Z</time>
      </trkpt>
      <trkpt lat="44.09818" lon="1.83055">
        <ele>437.2</ele>
        <time>2023-03-05T10:22:24Z</time>
      </trkpt>
      <trkpt lat="44.0982" lon="1.83057">
        <ele>437.4</ele>
        <time>2023-03-05T10:22:25Z</time>
      </trkpt>
      <trkpt lat="44.09821" lon="1.83058">
        <ele>437.6</ele>
        <time>2023-03-05T10:22:26Z</time>
      </trkpt>
      <trkpt lat="44.09823" lon="1.8306">
        <ele>437.8</ele>
        <time>2023-03-05T10:22:27Z</time>
      </trkpt>
      <trkpt lat="44.09824" lon="1.83062">
        <ele>438</ele>
        <time>2023-03-05T10:22:28Z</time>
      </trkpt>
      <trkpt lat="44.09826" lon="1.83063">
        <ele>438.2</ele>
        <time>2023-03-05T10:22:29Z</time>
      </trkpt>
      <trkpt lat="44.09828" lon="1.83066">
        <ele>438.6</ele>
        <time>2023-03-05T10:22:30Z</time>
      </trkpt>
      <trkpt lat="44.0983" lon="1.83067">
        <ele>439</ele>
        <time>2023-03-05T10:22:31Z</time>
      </trkpt>
      <trkpt lat="44.09832" lon="1.83069">
        <ele>439.6</ele>
        <time>2023-03-05T10:22:32Z</time>
      </trkpt>
      <trkpt lat="44.09834" lon="1.83071">
        <ele>440</ele>
        <time>2023-03-05T10:22:33Z</time>
      </trkpt>
      <trkpt lat="44.09835" lon="1.83073">
        <ele>440.2</ele>
        <time>2023-03-05T10:22:34Z</time>
      </trkpt>
      <trkpt lat="44.09837" lon="1.83075">
        <ele>440.6</ele>
        <time>2023-03-05T10:22:35Z</time>
      </trkpt>
      <trkpt lat="44.09839" lon="1.83077">
        <ele>440.8</ele>
        <time>2023-03-05T10:22:36Z</time>
      </trkpt>
      <trkpt lat="44.09841" lon="1.83079">
        <ele>441.4</ele>
        <time>2023-03-05T10:22:37Z</time>
      </trkpt>
      <trkpt lat="44.09842" lon="1.83081">
        <ele>441.4</ele>
        <time>2023-03-05T10:22:38Z</time>
      </trkpt>
      <trkpt lat="44.09844" lon="1.83083">
        <ele>441.8</ele>
        <time>2023-03-05T10:22:39Z</time>
      </trkpt>
      <trkpt lat="44.09846" lon="1.83086">
        <ele>442</ele>
        <time>2023-03-05T10:22:40Z</time>
      </trkpt>
      <trkpt lat="44.09848" lon="1.83088">
        <ele>442.2</ele>
        <time>2023-03-05T10:22:41Z</time>
      </trkpt>
      <trkpt lat="44.09851" lon="1.83091">
        <ele>442.4</ele>
        <time>2023-03-05T10:22:42Z</time>
      </trkpt>
      <trkpt lat="44.09853" lon="1.83093">
        <ele>443</ele>
        <time>2023-03-05T10:22:43Z</time>
      </trkpt>
      <trkpt lat="44.09854" lon="1.83095">
        <ele>443.4</ele>
        <time>2023-03-05T10:22:44Z</time>
      </trkpt>
      <trkpt lat="44.09856" lon="1.83097">
        <ele>443.6</ele>
        <time>2023-03-05T10:22:45Z</time>
      </trkpt>
      <trkpt lat="44.09859" lon="1.831">
        <ele>443.8</ele>
        <time>2023-03-05T10:22:46Z</time>
      </trkpt>
      <trkpt lat="44.09861" lon="1.83103">
        <ele>444</ele>
        <time>2023-03-05T10:22:47Z</time>
      </trkpt>
      <trkpt lat="44.09863" lon="1.83104">
        <ele>444.2</ele>
        <time>2023-03-05T10:22:48Z</time>
      </trkpt>
      <trkpt lat="44.09865" lon="1.83107">
        <ele>444.4</ele>
        <time>2023-03-05T10:22:49Z</time>
      </trkpt>
      <trkpt lat="44.09868" lon="1.83109">
        <ele>444.6</ele>
        <time>2023-03-05T10:22:50Z</time>
      </trkpt>
      <trkpt lat="44.0987" lon="1.83112">
        <ele>444.8</ele>
        <time>2023-03-05T10:22:51Z</time>
      </trkpt>
      <trkpt lat="44.09873" lon="1.83114">
        <ele>445.2</ele>
        <time>2023-03-05T10:22:52Z</time>
      </trkpt>
      <trkpt lat="44.09875" lon="1.83117">
        <ele>445.6</ele>
        <time>2023-03-05T10:22:53Z</time>
      </trkpt>
      <trkpt lat="44.09877" lon="1.83119">
        <ele>445.8</ele>
        <time>2023-03-05T10:22:54Z</time>
      </trkpt>
      <trkpt lat="44.0988" lon="1.83122">
        <ele>446</ele>
        <time>2023-03-05T10:22:55Z</time>
      </trkpt>
      <trkpt lat="44.09882" lon="1.83124">
        <ele>446.2</ele>
        <time>2023-03-05T10:22:56Z</time>
      </trkpt>
      <trkpt lat="44.09885" lon="1.83127">
        <ele>446.4</ele>
        <time>2023-03-05T10:22:57Z</time>
      </trkpt>
      <trkpt lat="44.09887" lon="1.83129">
        <ele>446.4</ele>
        <time>2023-03-05T10:22:58Z</time>
      </trkpt>
      <trkpt lat="44.0989" lon="1.83132">
        <ele>446.6</ele>
        <time>2023-03-05T10:22:59Z</time>
      </trkpt>
      <trkpt lat="44.09892" lon="1.83134">
        <ele>446.8</ele>
        <time>2023-03-05T10:23:00Z</time>
      </trkpt>
      <trkpt lat="44.09894" lon="1.83136">
        <ele>447</ele>
        <time>2023-03-05T10:23:01Z</time>
      </trkpt>
      <trkpt lat="44.09897" lon="1.83138">
        <ele>447.2</ele>
        <time>2023-03-05T10:23:02Z</time>
      </trkpt>
      <trkpt lat="44.09898" lon="1.8314">
        <ele>447.4</ele>
        <time>2023-03-05T10:23:03Z</time>
      </trkpt>
      <trkpt lat="44.09901" lon="1.83142">
        <ele>447.6</ele>
        <time>2023-03-05T10:23:04Z</time>
      </trkpt>
      <trkpt lat="44.09903" lon="1.83144">
        <ele>447.6</ele>
        <time>2023-03-05T10:23:05Z</time>
      </trkpt>
      <trkpt lat="44.09906" lon="1.83147">
        <ele>447.8</ele>
        <time>2023-03-05T10:23:06Z</time>
      </trkpt>
      <trkpt lat="44.09908" lon="1.83149">
        <ele>447.8</ele>
        <time>2023-03-05T10:23:07Z</time>
      </trkpt>
      <trkpt lat="44.09911" lon="1.83152">
        <ele>448</ele>
        <time>2023-03-05T10:23:08Z</time>
      </trkpt>
      <trkpt lat="44.09913" lon="1.83154">
        <ele>448.4</ele>
        <time>2023-03-05T10:23:09Z</time>
      </trkpt>
      <trkpt lat="44.09915" lon="1.83156">
        <ele>448.8</ele>
        <time>2023-03-05T10:23:10Z</time>
      </trkpt>
      <trkpt lat="44.09918" lon="1.83158">
        <ele>448.8</ele>
        <time>2023-03-05T10:23:11Z</time>
      </trkpt>
      <trkpt lat="44.0992" lon="1.8316">
        <ele>449.2</ele>
        <time>2023-03-05T10:23:12Z</time>
      </trkpt>
      <trkpt lat="44.09923" lon="1.83162">
        <ele>449.6</ele>
        <time>2023-03-05T10:23:13Z</time>
      </trkpt>
      <trkpt lat="44.09926" lon="1.83164">
        <ele>449.8</ele>
        <time>2023-03-05T10:23:14Z</time>
      </trkpt>
      <trkpt lat="44.0993" lon="1.83166">
        <ele>450</ele>
        <time>2023-03-05T10:23:15Z</time>
      </trkpt>
      <trkpt lat="44.09933" lon="1.83168">
        <ele>450</ele>
        <time>2023-03-05T10:23:16Z</time>
      </trkpt>
      <trkpt lat="44.09936" lon="1.8317">
        <ele>450.2</ele>
        <time>2023-03-05T10:23:17Z</time>
      </trkpt>
      <trkpt lat="44.0994" lon="1.83172">
        <ele>450.2</ele>
        <time>2023-03-05T10:23:18Z</time>
      </trkpt>
      <trkpt lat="44.09944" lon="1.83174">
        <ele>450.2</ele>
        <time>2023-03-05T10:23:19Z</time>
      </trkpt>
      <trkpt lat="44.09947" lon="1.83176">
        <ele>450.2</ele>
        <time>2023-03-05T10:23:20Z</time>
      </trkpt>
      <trkpt lat="44.09951" lon="1.83179">
        <ele>450.2</ele>
        <time>2023-03-05T10:23:21Z</time>
      </trkpt>
      <trkpt lat="44.09956" lon="1.83181">
        <ele>450.2</ele>
        <time>2023-03-05T10:23:22Z</time>
      </trkpt>
      <trkpt lat="44.0996" lon="1.83184">
        <ele>450.2</ele>
        <time>2023-03-05T10:23:23Z</time>
      </trkpt>
      <trkpt lat="44.09965" lon="1.83186">
        <ele>450</ele>
        <time>2023-03-05T10:23:24Z</time>
      </trkpt>
      <trkpt lat="44.0997" lon="1.83188">
        <ele>450</ele>
        <time>2023-03-05T10:23:25Z</time>
      </trkpt>
      <trkpt lat="44.09974" lon="1.83189">
        <ele>449.8</ele>
        <time>2023-03-05T10:23:26Z</time>
      </trkpt>
      <trkpt lat="44.09978" lon="1.83189">
        <ele>449.8</ele>
        <time>2023-03-05T10:23:27Z</time>
      </trkpt>
      <trkpt lat="44.09981" lon="1.83187">
        <ele>449.4</ele>
        <time>2023-03-05T10:23:28Z</time>
      </trkpt>
      <trkpt lat="44.09983" lon="1.83183">
        <ele>449.2</ele>
        <time>2023-03-05T10:23:29Z</time>
      </trkpt>
      <trkpt lat="44.09983" lon="1.83177">
        <ele>448.8</ele>
        <time>2023-03-05T10:23:30Z</time>
      </trkpt>
      <trkpt lat="44.09984" lon="1.83171">
        <ele>448.6</ele>
        <time>2023-03-05T10:23:31Z</time>
      </trkpt>
      <trkpt lat="44.09984" lon="1.83168">
        <ele>448.2</ele>
        <time>2023-03-05T10:23:32Z</time>
      </trkpt>
      <trkpt lat="44.09984" lon="1.83165">
        <ele>447.4</ele>
        <time>2023-03-05T10:23:33Z</time>
      </trkpt>
      <trkpt lat="44.09984" lon="1.83153">
        <ele>447.2</ele>
        <time>2023-03-05T10:23:34Z</time>
      </trkpt>
      <trkpt lat="44.09984" lon="1.83146">
        <ele>446.8</ele>
        <time>2023-03-05T10:23:35Z</time>
      </trkpt>
      <trkpt lat="44.09984" lon="1.83139">
        <ele>446.6</ele>
        <time>2023-03-05T10:23:36Z</time>
      </trkpt>
      <trkpt lat="44.09983" lon="1.83132">
        <ele>446.4</ele>
        <time>2023-03-05T10:23:37Z</time>
      </trkpt>
      <trkpt lat="44.09983" lon="1.83126">
        <ele>446.4</ele>
        <time>2023-03-05T10:23:38Z</time>
      </trkpt>
      <trkpt lat="44.09983" lon="1.83119">
        <ele>446.4</ele>
        <time>2023-03-05T10:23:39Z</time>
      </trkpt>
      <trkpt lat="44.09984" lon="1.83113">
        <ele>446.4</ele>
        <time>2023-03-05T10:23:40Z</time>
      </trkpt>
      <trkpt lat="44.09984" lon="1.83106">
        <ele>446.4</ele>
        <time>2023-03-05T10:23:41Z</time>
      </trkpt>
      <trkpt lat="44.09984" lon="1.831">
        <ele>446.4</ele>
        <time>2023-03-05T10:23:42Z</time>
      </trkpt>
      <trkpt lat="44.09985" lon="1.83093">
        <ele>446.4</ele>
        <time>2023-03-05T10:23:43Z</time>
      </trkpt>
      <trkpt lat="44.09986" lon="1.83087">
        <ele>446.6</ele>
        <time>2023-03-05T10:23:44Z</time>
      </trkpt>
      <trkpt lat="44.09986" lon="1.8308">
        <ele>446.8</ele>
        <time>2023-03-05T10:23:45Z</time>
      </trkpt>
      <trkpt lat="44.09987" lon="1.83073">
        <ele>446.8</ele>
        <time>2023-03-05T10:23:46Z</time>
      </trkpt>
      <trkpt lat="44.09989" lon="1.83067">
        <ele>447</ele>
        <time>2023-03-05T10:23:47Z</time>
      </trkpt>
      <trkpt lat="44.09989" lon="1.8306">
        <ele>447</ele>
        <time>2023-03-05T10:23:48Z</time>
      </trkpt>
      <trkpt lat="44.09989" lon="1.83053">
        <ele>447.2</ele>
        <time>2023-03-05T10:23:49Z</time>
      </trkpt>
      <trkpt lat="44.0999" lon="1.83046">
        <ele>447.4</ele>
        <time>2023-03-05T10:23:50Z</time>
      </trkpt>
      <trkpt lat="44.09991" lon="1.83039">
        <ele>447.6</ele>
        <time>2023-03-05T10:23:51Z</time>
      </trkpt>
      <trkpt lat="44.09992" lon="1.83032">
        <ele>447.8</ele>
        <time>2023-03-05T10:23:52Z</time>
      </trkpt>
      <trkpt lat="44.09992" lon="1.83025">
        <ele>447.8</ele>
        <time>2023-03-05T10:23:53Z</time>
      </trkpt>
      <trkpt lat="44.09993" lon="1.83017">
        <ele>448.2</ele>
        <time>2023-03-05T10:23:54Z</time>
      </trkpt>
      <trkpt lat="44.09993" lon="1.83009">
        <ele>448.4</ele>
        <time>2023-03-05T10:23:55Z</time>
      </trkpt>
      <trkpt lat="44.09994" lon="1.83001">
        <ele>448.4</ele>
        <time>2023-03-05T10:23:56Z</time>
      </trkpt>
      <trkpt lat="44.09994" lon="1.82994">
        <ele>448.4</ele>
        <time>2023-03-05T10:23:57Z</time>
      </trkpt>
      <trkpt lat="44.09994" lon="1.82986">
        <ele>448.4</ele>
        <time>2023-03-05T10:23:58Z</time>
      </trkpt>
      <trkpt lat="44.09994" lon="1.82978">
        <ele>448.4</ele>
        <time>2023-03-05T10:23:59Z</time>
      </trkpt>
      <trkpt lat="44.09994" lon="1.8297">
        <ele>448.4</ele>
        <time>2023-03-05T10:24:00Z</time>
      </trkpt>
      <trkpt lat="44.09994" lon="1.82961">
        <ele>448.4</ele>
        <time>2023-03-05T10:24:01Z</time>
      </trkpt>
      <trkpt lat="44.09994" lon="1.82953">
        <ele>448.4</ele>
        <time>2023-03-05T10:24:02Z</time>
      </trkpt>
      <trkpt lat="44.09994" lon="1.82945">
        <ele>448.4</ele>
        <time>2023-03-05T10:24:03Z</time>
      </trkpt>
      <trkpt lat="44.09995" lon="1.82937">
        <ele>448.4</ele>
        <time>2023-03-05T10:24:04Z</time>
      </trkpt>
      <trkpt lat="44.09995" lon="1.82928">
        <ele>448.2</ele>
        <time>2023-03-05T10:24:05Z</time>
      </trkpt>
      <trkpt lat="44.09995" lon="1.8292">
        <ele>448.2</ele>
        <time>2023-03-05T10:24:06Z</time>
      </trkpt>
      <trkpt lat="44.09995" lon="1.82911">
        <ele>448.2</ele>
        <time>2023-03-05T10:24:07Z</time>
      </trkpt>
      <trkpt lat="44.09995" lon="1.82903">
        <ele>448</ele>
        <time>2023-03-05T10:24:08Z</time>
      </trkpt>
      <trkpt lat="44.09994" lon="1.82895">
        <ele>448</ele>
        <time>2023-03-05T10:24:09Z</time>
      </trkpt>
      <trkpt lat="44.09994" lon="1.82886">
        <ele>448</ele>
        <time>2023-03-05T10:24:10Z</time>
      </trkpt>
      <trkpt lat="44.09993" lon="1.82878">
        <ele>448</ele>
        <time>2023-03-05T10:24:11Z</time>
      </trkpt>
      <trkpt lat="44.09992" lon="1.82869">
        <ele>447.8</ele>
        <time>2023-03-05T10:24:12Z</time>
      </trkpt>
      <trkpt lat="44.09992" lon="1.82861">
        <ele>447.8</ele>
        <time>2023-03-05T10:24:13Z</time>
      </trkpt>
      <trkpt lat="44.0999" lon="1.82852">
        <ele>447.4</ele>
        <time>2023-03-05T10:24:14Z</time>
      </trkpt>
      <trkpt lat="44.09989" lon="1.82844">
        <ele>447.2</ele>
        <time>2023-03-05T10:24:15Z</time>
      </trkpt>
      <trkpt lat="44.09988" lon="1.82836">
        <ele>447.2</ele>
        <time>2023-03-05T10:24:16Z</time>
      </trkpt>
      <trkpt lat="44.09987" lon="1.82827">
        <ele>446.6</ele>
        <time>2023-03-05T10:24:17Z</time>
      </trkpt>
      <trkpt lat="44.09986" lon="1.82819">
        <ele>446.4</ele>
        <time>2023-03-05T10:24:18Z</time>
      </trkpt>
      <trkpt lat="44.09984" lon="1.8281">
        <ele>446.2</ele>
        <time>2023-03-05T10:24:19Z</time>
      </trkpt>
      <trkpt lat="44.09983" lon="1.82802">
        <ele>446.2</ele>
        <time>2023-03-05T10:24:20Z</time>
      </trkpt>
      <trkpt lat="44.09981" lon="1.82793">
        <ele>446</ele>
        <time>2023-03-05T10:24:21Z</time>
      </trkpt>
      <trkpt lat="44.0998" lon="1.82784">
        <ele>446</ele>
        <time>2023-03-05T10:24:22Z</time>
      </trkpt>
      <trkpt lat="44.09978" lon="1.82774">
        <ele>445.8</ele>
        <time>2023-03-05T10:24:23Z</time>
      </trkpt>
      <trkpt lat="44.09976" lon="1.82763">
        <ele>445.8</ele>
        <time>2023-03-05T10:24:24Z</time>
      </trkpt>
      <trkpt lat="44.09975" lon="1.82754">
        <ele>445.6</ele>
        <time>2023-03-05T10:24:25Z</time>
      </trkpt>
      <trkpt lat="44.09975" lon="1.82745">
        <ele>445.6</ele>
        <time>2023-03-05T10:24:26Z</time>
      </trkpt>
      <trkpt lat="44.09975" lon="1.82736">
        <ele>445.4</ele>
        <time>2023-03-05T10:24:27Z</time>
      </trkpt>
      <trkpt lat="44.09975" lon="1.82727">
        <ele>445.4</ele>
        <time>2023-03-05T10:24:28Z</time>
      </trkpt>
      <trkpt lat="44.09975" lon="1.82717">
        <ele>445.4</ele>
        <time>2023-03-05T10:24:29Z</time>
      </trkpt>
      <trkpt lat="44.09975" lon="1.82706">
        <ele>445.2</ele>
        <time>2023-03-05T10:24:30Z</time>
      </trkpt>
      <trkpt lat="44.09975" lon="1.82699">
        <ele>445</ele>
        <time>2023-03-05T10:24:31Z</time>
      </trkpt>
      <trkpt lat="44.09975" lon="1.8269">
        <ele>444.8</ele>
        <time>2023-03-05T10:24:32Z</time>
      </trkpt>
      <trkpt lat="44.09976" lon="1.82681">
        <ele>444.8</ele>
        <time>2023-03-05T10:24:33Z</time>
      </trkpt>
      <trkpt lat="44.09977" lon="1.82672">
        <ele>444.6</ele>
        <time>2023-03-05T10:24:34Z</time>
      </trkpt>
      <trkpt lat="44.09978" lon="1.82664">
        <ele>444.4</ele>
        <time>2023-03-05T10:24:35Z</time>
      </trkpt>
      <trkpt lat="44.0998" lon="1.82657">
        <ele>444.4</ele>
        <time>2023-03-05T10:24:36Z</time>
      </trkpt>
      <trkpt lat="44.09982" lon="1.82649">
        <ele>444.2</ele>
        <time>2023-03-05T10:24:37Z</time>
      </trkpt>
      <trkpt lat="44.09984" lon="1.82642">
        <ele>444.2</ele>
        <time>2023-03-05T10:24:38Z</time>
      </trkpt>
      <trkpt lat="44.09987" lon="1.82636">
        <ele>444.2</ele>
        <time>2023-03-05T10:24:39Z</time>
      </trkpt>
      <trkpt lat="44.09989" lon="1.82629">
        <ele>444.2</ele>
        <time>2023-03-05T10:24:40Z</time>
      </trkpt>
      <trkpt lat="44.09991" lon="1.82622">
        <ele>444.2</ele>
        <time>2023-03-05T10:24:41Z</time>
      </trkpt>
      <trkpt lat="44.09994" lon="1.82615">
        <ele>444.2</ele>
        <time>2023-03-05T10:24:42Z</time>
      </trkpt>
      <trkpt lat="44.09996" lon="1.82609">
        <ele>444.2</ele>
        <time>2023-03-05T10:24:43Z</time>
      </trkpt>
      <trkpt lat="44.09998" lon="1.82602">
        <ele>444.2</ele>
        <time>2023-03-05T10:24:44Z</time>
      </trkpt>
      <trkpt lat="44.10001" lon="1.82595">
        <ele>444.4</ele>
        <time>2023-03-05T10:24:45Z</time>
      </trkpt>
      <trkpt lat="44.10005" lon="1.82589">
        <ele>444.4</ele>
        <time>2023-03-05T10:24:46Z</time>
      </trkpt>
      <trkpt lat="44.10008" lon="1.82582">
        <ele>444.4</ele>
        <time>2023-03-05T10:24:47Z</time>
      </trkpt>
      <trkpt lat="44.10012" lon="1.82575">
        <ele>444.4</ele>
        <time>2023-03-05T10:24:48Z</time>
      </trkpt>
      <trkpt lat="44.10016" lon="1.82568">
        <ele>444.4</ele>
        <time>2023-03-05T10:24:49Z</time>
      </trkpt>
      <trkpt lat="44.1002" lon="1.82562">
        <ele>444.4</ele>
        <time>2023-03-05T10:24:50Z</time>
      </trkpt>
      <trkpt lat="44.10024" lon="1.82555">
        <ele>444.4</ele>
        <time>2023-03-05T10:24:51Z</time>
      </trkpt>
      <trkpt lat="44.10028" lon="1.82549">
        <ele>444.4</ele>
        <time>2023-03-05T10:24:52Z</time>
      </trkpt>
      <trkpt lat="44.10033" lon="1.82544">
        <ele>444.4</ele>
        <time>2023-03-05T10:24:53Z</time>
      </trkpt>
      <trkpt lat="44.10037" lon="1.82539">
        <ele>444.2</ele>
        <time>2023-03-05T10:24:54Z</time>
      </trkpt>
      <trkpt lat="44.10042" lon="1.82535">
        <ele>444.2</ele>
        <time>2023-03-05T10:24:55Z</time>
      </trkpt>
      <trkpt lat="44.10047" lon="1.8253">
        <ele>444</ele>
        <time>2023-03-05T10:24:56Z</time>
      </trkpt>
      <trkpt lat="44.10053" lon="1.82526">
        <ele>443.8</ele>
        <time>2023-03-05T10:24:57Z</time>
      </trkpt>
      <trkpt lat="44.10058" lon="1.82522">
        <ele>443.6</ele>
        <time>2023-03-05T10:24:58Z</time>
      </trkpt>
      <trkpt lat="44.10064" lon="1.82517">
        <ele>443.6</ele>
        <time>2023-03-05T10:24:59Z</time>
      </trkpt>
      <trkpt lat="44.1007" lon="1.82513">
        <ele>443.6</ele>
        <time>2023-03-05T10:25:00Z</time>
      </trkpt>
      <trkpt lat="44.10076" lon="1.82509">
        <ele>443.4</ele>
        <time>2023-03-05T10:25:01Z</time>
      </trkpt>
      <trkpt lat="44.10083" lon="1.82506">
        <ele>443.2</ele>
        <time>2023-03-05T10:25:02Z</time>
      </trkpt>
      <trkpt lat="44.10089" lon="1.82503">
        <ele>443.2</ele>
        <time>2023-03-05T10:25:03Z</time>
      </trkpt>
      <trkpt lat="44.10096" lon="1.82501">
        <ele>443</ele>
        <time>2023-03-05T10:25:04Z</time>
      </trkpt>
      <trkpt lat="44.10104" lon="1.825">
        <ele>442.8</ele>
        <time>2023-03-05T10:25:05Z</time>
      </trkpt>
      <trkpt lat="44.10111" lon="1.82499">
        <ele>442.2</ele>
        <time>2023-03-05T10:25:06Z</time>
      </trkpt>
      <trkpt lat="44.10118" lon="1.82499">
        <ele>442</ele>
        <time>2023-03-05T10:25:07Z</time>
      </trkpt>
      <trkpt lat="44.10125" lon="1.82499">
        <ele>441.8</ele>
        <time>2023-03-05T10:25:08Z</time>
      </trkpt>
      <trkpt lat="44.10132" lon="1.825">
        <ele>441.6</ele>
        <time>2023-03-05T10:25:09Z</time>
      </trkpt>
      <trkpt lat="44.10139" lon="1.825">
        <ele>441.2</ele>
        <time>2023-03-05T10:25:10Z</time>
      </trkpt>
      <trkpt lat="44.10146" lon="1.82501">
        <ele>440.8</ele>
        <time>2023-03-05T10:25:11Z</time>
      </trkpt>
      <trkpt lat="44.10154" lon="1.825">
        <ele>440.6</ele>
        <time>2023-03-05T10:25:12Z</time>
      </trkpt>
      <trkpt lat="44.10161" lon="1.82499">
        <ele>440.4</ele>
        <time>2023-03-05T10:25:13Z</time>
      </trkpt>
      <trkpt lat="44.10168" lon="1.82498">
        <ele>439.8</ele>
        <time>2023-03-05T10:25:14Z</time>
      </trkpt>
      <trkpt lat="44.10175" lon="1.82497">
        <ele>439.4</ele>
        <time>2023-03-05T10:25:15Z</time>
      </trkpt>
      <trkpt lat="44.10182" lon="1.82496">
        <ele>439</ele>
        <time>2023-03-05T10:25:16Z</time>
      </trkpt>
      <trkpt lat="44.1019" lon="1.82495">
        <ele>438.6</ele>
        <time>2023-03-05T10:25:17Z</time>
      </trkpt>
      <trkpt lat="44.10197" lon="1.82494">
        <ele>438.4</ele>
        <time>2023-03-05T10:25:18Z</time>
      </trkpt>
      <trkpt lat="44.10204" lon="1.82494">
        <ele>438.2</ele>
        <time>2023-03-05T10:25:19Z</time>
      </trkpt>
      <trkpt lat="44.10211" lon="1.82494">
        <ele>438</ele>
        <time>2023-03-05T10:25:20Z</time>
      </trkpt>
      <trkpt lat="44.10217" lon="1.82493">
        <ele>437.8</ele>
        <time>2023-03-05T10:25:21Z</time>
      </trkpt>
      <trkpt lat="44.10224" lon="1.82493">
        <ele>437.8</ele>
        <time>2023-03-05T10:25:22Z</time>
      </trkpt>
      <trkpt lat="44.1023" lon="1.82491">
        <ele>437.6</ele>
        <time>2023-03-05T10:25:23Z</time>
      </trkpt>
      <trkpt lat="44.10236" lon="1.82488">
        <ele>437.6</ele>
        <time>2023-03-05T10:25:24Z</time>
      </trkpt>
      <trkpt lat="44.10241" lon="1.82485">
        <ele>437.6</ele>
        <time>2023-03-05T10:25:25Z</time>
      </trkpt>
      <trkpt lat="44.10247" lon="1.82483">
        <ele>437.4</ele>
        <time>2023-03-05T10:25:26Z</time>
      </trkpt>
      <trkpt lat="44.10253" lon="1.82481">
        <ele>437.4</ele>
        <time>2023-03-05T10:25:27Z</time>
      </trkpt>
      <trkpt lat="44.10258" lon="1.82479">
        <ele>437.8</ele>
        <time>2023-03-05T10:25:28Z</time>
      </trkpt>
      <trkpt lat="44.10264" lon="1.82478">
        <ele>437.8</ele>
        <time>2023-03-05T10:25:29Z</time>
      </trkpt>
      <trkpt lat="44.10269" lon="1.82477">
        <ele>437.8</ele>
        <time>2023-03-05T10:25:30Z</time>
      </trkpt>
      <trkpt lat="44.10275" lon="1.82475">
        <ele>437.8</ele>
        <time>2023-03-05T10:25:31Z</time>
      </trkpt>
      <trkpt lat="44.10281" lon="1.82475">
        <ele>437.8</ele>
        <time>2023-03-05T10:25:32Z</time>
      </trkpt>
      <trkpt lat="44.10287" lon="1.82474">
        <ele>438</ele>
        <time>2023-03-05T10:25:33Z</time>
      </trkpt>
      <trkpt lat="44.10292" lon="1.82474">
        <ele>438</ele>
        <time>2023-03-05T10:25:34Z</time>
      </trkpt>
      <trkpt lat="44.10298" lon="1.82474">
        <ele>438.2</ele>
        <time>2023-03-05T10:25:35Z</time>
      </trkpt>
      <trkpt lat="44.10303" lon="1.82473">
        <ele>438.2</ele>
        <time>2023-03-05T10:25:36Z</time>
      </trkpt>
      <trkpt lat="44.10309" lon="1.82473">
        <ele>438.2</ele>
        <time>2023-03-05T10:25:37Z</time>
      </trkpt>
      <trkpt lat="44.10315" lon="1.82472">
        <ele>438.2</ele>
        <time>2023-03-05T10:25:38Z</time>
      </trkpt>
      <trkpt lat="44.10321" lon="1.82471">
        <ele>438.2</ele>
        <time>2023-03-05T10:25:39Z</time>
      </trkpt>
      <trkpt lat="44.10327" lon="1.82471">
        <ele>438.2</ele>
        <time>2023-03-05T10:25:40Z</time>
      </trkpt>
      <trkpt lat="44.10333" lon="1.82471">
        <ele>438.2</ele>
        <time>2023-03-05T10:25:41Z</time>
      </trkpt>
      <trkpt lat="44.10341" lon="1.82471">
        <ele>438.2</ele>
        <time>2023-03-05T10:25:42Z</time>
      </trkpt>
      <trkpt lat="44.10346" lon="1.82472">
        <ele>438.2</ele>
        <time>2023-03-05T10:25:43Z</time>
      </trkpt>
      <trkpt lat="44.10351" lon="1.82472">
        <ele>438</ele>
        <time>2023-03-05T10:25:44Z</time>
      </trkpt>
      <trkpt lat="44.10357" lon="1.82473">
        <ele>438</ele>
        <time>2023-03-05T10:25:45Z</time>
      </trkpt>
      <trkpt lat="44.10363" lon="1.82474">
        <ele>437.8</ele>
        <time>2023-03-05T10:25:46Z</time>
      </trkpt>
      <trkpt lat="44.10369" lon="1.82475">
        <ele>437.8</ele>
        <time>2023-03-05T10:25:47Z</time>
      </trkpt>
      <trkpt lat="44.10376" lon="1.82476">
        <ele>437.6</ele>
        <time>2023-03-05T10:25:48Z</time>
      </trkpt>
      <trkpt lat="44.10383" lon="1.82476">
        <ele>437.4</ele>
        <time>2023-03-05T10:25:49Z</time>
      </trkpt>
      <trkpt lat="44.1039" lon="1.82476">
        <ele>437</ele>
        <time>2023-03-05T10:25:50Z</time>
      </trkpt>
      <trkpt lat="44.10397" lon="1.82476">
        <ele>437</ele>
        <time>2023-03-05T10:25:51Z</time>
      </trkpt>
      <trkpt lat="44.10404" lon="1.82477">
        <ele>436.6</ele>
        <time>2023-03-05T10:25:52Z</time>
      </trkpt>
      <trkpt lat="44.10411" lon="1.82478">
        <ele>436.4</ele>
        <time>2023-03-05T10:25:53Z</time>
      </trkpt>
      <trkpt lat="44.10418" lon="1.82479">
        <ele>436</ele>
        <time>2023-03-05T10:25:54Z</time>
      </trkpt>
      <trkpt lat="44.10425" lon="1.82481">
        <ele>435.6</ele>
        <time>2023-03-05T10:25:55Z</time>
      </trkpt>
      <trkpt lat="44.10432" lon="1.82482">
        <ele>435.2</ele>
        <time>2023-03-05T10:25:56Z</time>
      </trkpt>
      <trkpt lat="44.10439" lon="1.82482">
        <ele>434.8</ele>
        <time>2023-03-05T10:25:57Z</time>
      </trkpt>
      <trkpt lat="44.10446" lon="1.82482">
        <ele>434.4</ele>
        <time>2023-03-05T10:25:58Z</time>
      </trkpt>
      <trkpt lat="44.10453" lon="1.82482">
        <ele>434</ele>
        <time>2023-03-05T10:25:59Z</time>
      </trkpt>
      <trkpt lat="44.1046" lon="1.82482">
        <ele>434</ele>
        <time>2023-03-05T10:26:00Z</time>
      </trkpt>
      <trkpt lat="44.10467" lon="1.82482">
        <ele>433.8</ele>
        <time>2023-03-05T10:26:01Z</time>
      </trkpt>
      <trkpt lat="44.10473" lon="1.82483">
        <ele>433.6</ele>
        <time>2023-03-05T10:26:02Z</time>
      </trkpt>
      <trkpt lat="44.10479" lon="1.82483">
        <ele>433.2</ele>
        <time>2023-03-05T10:26:03Z</time>
      </trkpt>
      <trkpt lat="44.10486" lon="1.82482">
        <ele>432.6</ele>
        <time>2023-03-05T10:26:04Z</time>
      </trkpt>
      <trkpt lat="44.10492" lon="1.82481">
        <ele>432.4</ele>
        <time>2023-03-05T10:26:05Z</time>
      </trkpt>
      <trkpt lat="44.10498" lon="1.82481">
        <ele>432</ele>
        <time>2023-03-05T10:26:06Z</time>
      </trkpt>
      <trkpt lat="44.10505" lon="1.8248">
        <ele>432</ele>
        <time>2023-03-05T10:26:07Z</time>
      </trkpt>
      <trkpt lat="44.10512" lon="1.8248">
        <ele>431.8</ele>
        <time>2023-03-05T10:26:08Z</time>
      </trkpt>
      <trkpt lat="44.10517" lon="1.82481">
        <ele>431.6</ele>
        <time>2023-03-05T10:26:09Z</time>
      </trkpt>
      <trkpt lat="44.10522" lon="1.82481">
        <ele>431.6</ele>
        <time>2023-03-05T10:26:10Z</time>
      </trkpt>
      <trkpt lat="44.10528" lon="1.82481">
        <ele>431.6</ele>
        <time>2023-03-05T10:26:11Z</time>
      </trkpt>
      <trkpt lat="44.10533" lon="1.82482">
        <ele>431.6</ele>
        <time>2023-03-05T10:26:12Z</time>
      </trkpt>
      <trkpt lat="44.10539" lon="1.82482">
        <ele>431.6</ele>
        <time>2023-03-05T10:26:13Z</time>
      </trkpt>
      <trkpt lat="44.10544" lon="1.82483">
        <ele>431.8</ele>
        <time>2023-03-05T10:26:14Z</time>
      </trkpt>
      <trkpt lat="44.10549" lon="1.82484">
        <ele>431.8</ele>
        <time>2023-03-05T10:26:15Z</time>
      </trkpt>
      <trkpt lat="44.10555" lon="1.82485">
        <ele>431.8</ele>
        <time>2023-03-05T10:26:16Z</time>
      </trkpt>
      <trkpt lat="44.1056" lon="1.82486">
        <ele>431.6</ele>
        <time>2023-03-05T10:26:17Z</time>
      </trkpt>
      <trkpt lat="44.10565" lon="1.82487">
        <ele>431.6</ele>
        <time>2023-03-05T10:26:18Z</time>
      </trkpt>
      <trkpt lat="44.10571" lon="1.82488">
        <ele>431.8</ele>
        <time>2023-03-05T10:26:19Z</time>
      </trkpt>
      <trkpt lat="44.10576" lon="1.82489">
        <ele>431.8</ele>
        <time>2023-03-05T10:26:20Z</time>
      </trkpt>
      <trkpt lat="44.10581" lon="1.8249">
        <ele>432</ele>
        <time>2023-03-05T10:26:21Z</time>
      </trkpt>
      <trkpt lat="44.10587" lon="1.82491">
        <ele>432</ele>
        <time>2023-03-05T10:26:22Z</time>
      </trkpt>
      <trkpt lat="44.10592" lon="1.82491">
        <ele>432.2</ele>
        <time>2023-03-05T10:26:23Z</time>
      </trkpt>
      <trkpt lat="44.10597" lon="1.82491">
        <ele>432.2</ele>
        <time>2023-03-05T10:26:24Z</time>
      </trkpt>
      <trkpt lat="44.10602" lon="1.82492">
        <ele>432.2</ele>
        <time>2023-03-05T10:26:25Z</time>
      </trkpt>
      <trkpt lat="44.10608" lon="1.82492">
        <ele>432.2</ele>
        <time>2023-03-05T10:26:26Z</time>
      </trkpt>
      <trkpt lat="44.10613" lon="1.82492">
        <ele>432.2</ele>
        <time>2023-03-05T10:26:27Z</time>
      </trkpt>
      <trkpt lat="44.10619" lon="1.82493">
        <ele>432.2</ele>
        <time>2023-03-05T10:26:28Z</time>
      </trkpt>
      <trkpt lat="44.10624" lon="1.82493">
        <ele>432.2</ele>
        <time>2023-03-05T10:26:29Z</time>
      </trkpt>
      <trkpt lat="44.1063" lon="1.82493">
        <ele>432.6</ele>
        <time>2023-03-05T10:26:30Z</time>
      </trkpt>
      <trkpt lat="44.10635" lon="1.82494">
        <ele>432.6</ele>
        <time>2023-03-05T10:26:31Z</time>
      </trkpt>
      <trkpt lat="44.10641" lon="1.82493">
        <ele>432.8</ele>
        <time>2023-03-05T10:26:32Z</time>
      </trkpt>
      <trkpt lat="44.10647" lon="1.82493">
        <ele>433</ele>
        <time>2023-03-05T10:26:33Z</time>
      </trkpt>
      <trkpt lat="44.10652" lon="1.82494">
        <ele>433.2</ele>
        <time>2023-03-05T10:26:34Z</time>
      </trkpt>
      <trkpt lat="44.10658" lon="1.82493">
        <ele>433.4</ele>
        <time>2023-03-05T10:26:35Z</time>
      </trkpt>
      <trkpt lat="44.10663" lon="1.82493">
        <ele>433.4</ele>
        <time>2023-03-05T10:26:36Z</time>
      </trkpt>
      <trkpt lat="44.10668" lon="1.82492">
        <ele>433.6</ele>
        <time>2023-03-05T10:26:37Z</time>
      </trkpt>
      <trkpt lat="44.10674" lon="1.82491">
        <ele>433.6</ele>
        <time>2023-03-05T10:26:38Z</time>
      </trkpt>
      <trkpt lat="44.1068" lon="1.82491">
        <ele>433.6</ele>
        <time>2023-03-05T10:26:39Z</time>
      </trkpt>
      <trkpt lat="44.10685" lon="1.82491">
        <ele>433.8</ele>
        <time>2023-03-05T10:26:40Z</time>
      </trkpt>
      <trkpt lat="44.10692" lon="1.82492">
        <ele>433.4</ele>
        <time>2023-03-05T10:26:41Z</time>
      </trkpt>
      <trkpt lat="44.10697" lon="1.82492">
        <ele>433.4</ele>
        <time>2023-03-05T10:26:42Z</time>
      </trkpt>
      <trkpt lat="44.10703" lon="1.82493">
        <ele>433.6</ele>
        <time>2023-03-05T10:26:43Z</time>
      </trkpt>
      <trkpt lat="44.10709" lon="1.82494">
        <ele>433.6</ele>
        <time>2023-03-05T10:26:44Z</time>
      </trkpt>
      <trkpt lat="44.10714" lon="1.82496">
        <ele>433.4</ele>
        <time>2023-03-05T10:26:45Z</time>
      </trkpt>
      <trkpt lat="44.1072" lon="1.82497">
        <ele>433.2</ele>
        <time>2023-03-05T10:26:46Z</time>
      </trkpt>
      <trkpt lat="44.10725" lon="1.82498">
        <ele>433.2</ele>
        <time>2023-03-05T10:26:47Z</time>
      </trkpt>
      <trkpt lat="44.1073" lon="1.825">
        <ele>433.4</ele>
        <time>2023-03-05T10:26:48Z</time>
      </trkpt>
      <trkpt lat="44.10735" lon="1.82501">
        <ele>433.4</ele>
        <time>2023-03-05T10:26:49Z</time>
      </trkpt>
      <trkpt lat="44.1074" lon="1.82503">
        <ele>433.4</ele>
        <time>2023-03-05T10:26:50Z</time>
      </trkpt>
      <trkpt lat="44.10746" lon="1.82504">
        <ele>433.4</ele>
        <time>2023-03-05T10:26:51Z</time>
      </trkpt>
      <trkpt lat="44.10751" lon="1.82505">
        <ele>433.4</ele>
        <time>2023-03-05T10:26:52Z</time>
      </trkpt>
      <trkpt lat="44.10757" lon="1.82506">
        <ele>433.4</ele>
        <time>2023-03-05T10:26:53Z</time>
      </trkpt>
      <trkpt lat="44.10762" lon="1.82507">
        <ele>433.4</ele>
        <time>2023-03-05T10:26:54Z</time>
      </trkpt>
      <trkpt lat="44.10768" lon="1.82508">
        <ele>433.4</ele>
        <time>2023-03-05T10:26:55Z</time>
      </trkpt>
      <trkpt lat="44.10773" lon="1.8251">
        <ele>433.4</ele>
        <time>2023-03-05T10:26:56Z</time>
      </trkpt>
      <trkpt lat="44.10779" lon="1.82511">
        <ele>433.4</ele>
        <time>2023-03-05T10:26:57Z</time>
      </trkpt>
      <trkpt lat="44.10784" lon="1.82513">
        <ele>433.2</ele>
        <time>2023-03-05T10:26:58Z</time>
      </trkpt>
      <trkpt lat="44.10789" lon="1.82516">
        <ele>433.2</ele>
        <time>2023-03-05T10:26:59Z</time>
      </trkpt>
      <trkpt lat="44.10794" lon="1.82518">
        <ele>433.2</ele>
        <time>2023-03-05T10:27:00Z</time>
      </trkpt>
      <trkpt lat="44.10799" lon="1.8252">
        <ele>433</ele>
        <time>2023-03-05T10:27:01Z</time>
      </trkpt>
      <trkpt lat="44.10804" lon="1.82522">
        <ele>433</ele>
        <time>2023-03-05T10:27:02Z</time>
      </trkpt>
      <trkpt lat="44.10811" lon="1.82523">
        <ele>432.8</ele>
        <time>2023-03-05T10:27:03Z</time>
      </trkpt>
      <trkpt lat="44.10818" lon="1.82525">
        <ele>432.6</ele>
        <time>2023-03-05T10:27:04Z</time>
      </trkpt>
      <trkpt lat="44.10826" lon="1.82527">
        <ele>432.6</ele>
        <time>2023-03-05T10:27:05Z</time>
      </trkpt>
      <trkpt lat="44.10834" lon="1.82528">
        <ele>432.4</ele>
        <time>2023-03-05T10:27:06Z</time>
      </trkpt>
      <trkpt lat="44.10843" lon="1.82529">
        <ele>432.2</ele>
        <time>2023-03-05T10:27:07Z</time>
      </trkpt>
      <trkpt lat="44.10852" lon="1.8253">
        <ele>432</ele>
        <time>2023-03-05T10:27:08Z</time>
      </trkpt>
      <trkpt lat="44.10861" lon="1.82531">
        <ele>432</ele>
        <time>2023-03-05T10:27:09Z</time>
      </trkpt>
      <trkpt lat="44.10869" lon="1.82532">
        <ele>431.4</ele>
        <time>2023-03-05T10:27:10Z</time>
      </trkpt>
      <trkpt lat="44.10876" lon="1.82532">
        <ele>431</ele>
        <time>2023-03-05T10:27:11Z</time>
      </trkpt>
      <trkpt lat="44.10885" lon="1.82531">
        <ele>430.2</ele>
        <time>2023-03-05T10:27:12Z</time>
      </trkpt>
      <trkpt lat="44.10896" lon="1.82531">
        <ele>430</ele>
        <time>2023-03-05T10:27:13Z</time>
      </trkpt>
      <trkpt lat="44.10905" lon="1.82531">
        <ele>428.8</ele>
        <time>2023-03-05T10:27:14Z</time>
      </trkpt>
      <trkpt lat="44.10914" lon="1.82531">
        <ele>427.8</ele>
        <time>2023-03-05T10:27:15Z</time>
      </trkpt>
      <trkpt lat="44.10923" lon="1.82531">
        <ele>427.4</ele>
        <time>2023-03-05T10:27:16Z</time>
      </trkpt>
      <trkpt lat="44.10933" lon="1.8253">
        <ele>426.8</ele>
        <time>2023-03-05T10:27:17Z</time>
      </trkpt>
      <trkpt lat="44.10942" lon="1.8253">
        <ele>426.2</ele>
        <time>2023-03-05T10:27:18Z</time>
      </trkpt>
      <trkpt lat="44.1095" lon="1.82529">
        <ele>425.6</ele>
        <time>2023-03-05T10:27:19Z</time>
      </trkpt>
      <trkpt lat="44.10959" lon="1.82527">
        <ele>424.8</ele>
        <time>2023-03-05T10:27:20Z</time>
      </trkpt>
      <trkpt lat="44.10967" lon="1.82525">
        <ele>424</ele>
        <time>2023-03-05T10:27:21Z</time>
      </trkpt>
      <trkpt lat="44.10975" lon="1.82522">
        <ele>423.4</ele>
        <time>2023-03-05T10:27:22Z</time>
      </trkpt>
      <trkpt lat="44.10983" lon="1.8252">
        <ele>423</ele>
        <time>2023-03-05T10:27:23Z</time>
      </trkpt>
      <trkpt lat="44.1099" lon="1.82517">
        <ele>422.8</ele>
        <time>2023-03-05T10:27:24Z</time>
      </trkpt>
      <trkpt lat="44.10998" lon="1.82513">
        <ele>422.6</ele>
        <time>2023-03-05T10:27:25Z</time>
      </trkpt>
      <trkpt lat="44.11005" lon="1.82508">
        <ele>421.8</ele>
        <time>2023-03-05T10:27:26Z</time>
      </trkpt>
      <trkpt lat="44.11011" lon="1.82503">
        <ele>421.6</ele>
        <time>2023-03-05T10:27:27Z</time>
      </trkpt>
      <trkpt lat="44.11018" lon="1.82497">
        <ele>421</ele>
        <time>2023-03-05T10:27:28Z</time>
      </trkpt>
      <trkpt lat="44.11026" lon="1.82491">
        <ele>420.6</ele>
        <time>2023-03-05T10:27:29Z</time>
      </trkpt>
      <trkpt lat="44.11035" lon="1.82486">
        <ele>419.6</ele>
        <time>2023-03-05T10:27:30Z</time>
      </trkpt>
      <trkpt lat="44.11044" lon="1.82482">
        <ele>419.2</ele>
        <time>2023-03-05T10:27:31Z</time>
      </trkpt>
      <trkpt lat="44.11054" lon="1.82479">
        <ele>418.6</ele>
        <time>2023-03-05T10:27:32Z</time>
      </trkpt>
      <trkpt lat="44.11064" lon="1.82475">
        <ele>418.2</ele>
        <time>2023-03-05T10:27:33Z</time>
      </trkpt>
      <trkpt lat="44.11075" lon="1.82472">
        <ele>417.6</ele>
        <time>2023-03-05T10:27:34Z</time>
      </trkpt>
      <trkpt lat="44.11085" lon="1.82468">
        <ele>417.2</ele>
        <time>2023-03-05T10:27:35Z</time>
      </trkpt>
      <trkpt lat="44.11096" lon="1.82464">
        <ele>416</ele>
        <time>2023-03-05T10:27:36Z</time>
      </trkpt>
      <trkpt lat="44.11106" lon="1.82459">
        <ele>414.8</ele>
        <time>2023-03-05T10:27:37Z</time>
      </trkpt>
      <trkpt lat="44.11115" lon="1.82452">
        <ele>414.2</ele>
        <time>2023-03-05T10:27:38Z</time>
      </trkpt>
      <trkpt lat="44.11123" lon="1.82444">
        <ele>412.6</ele>
        <time>2023-03-05T10:27:39Z</time>
      </trkpt>
      <trkpt lat="44.11129" lon="1.82434">
        <ele>411.8</ele>
        <time>2023-03-05T10:27:40Z</time>
      </trkpt>
      <trkpt lat="44.11135" lon="1.82424">
        <ele>409.6</ele>
        <time>2023-03-05T10:27:41Z</time>
      </trkpt>
      <trkpt lat="44.1114" lon="1.82414">
        <ele>409</ele>
        <time>2023-03-05T10:27:42Z</time>
      </trkpt>
      <trkpt lat="44.11146" lon="1.82405">
        <ele>407.6</ele>
        <time>2023-03-05T10:27:43Z</time>
      </trkpt>
      <trkpt lat="44.11151" lon="1.82394">
        <ele>407.2</ele>
        <time>2023-03-05T10:27:44Z</time>
      </trkpt>
      <trkpt lat="44.11156" lon="1.82384">
        <ele>406.6</ele>
        <time>2023-03-05T10:27:45Z</time>
      </trkpt>
      <trkpt lat="44.11161" lon="1.82373">
        <ele>405.2</ele>
        <time>2023-03-05T10:27:46Z</time>
      </trkpt>
      <trkpt lat="44.11165" lon="1.82363">
        <ele>404.4</ele>
        <time>2023-03-05T10:27:47Z</time>
      </trkpt>
      <trkpt lat="44.11171" lon="1.82355">
        <ele>403.2</ele>
        <time>2023-03-05T10:27:48Z</time>
      </trkpt>
      <trkpt lat="44.11176" lon="1.82347">
        <ele>402.8</ele>
        <time>2023-03-05T10:27:49Z</time>
      </trkpt>
      <trkpt lat="44.11182" lon="1.82341">
        <ele>400.6</ele>
        <time>2023-03-05T10:27:50Z</time>
      </trkpt>
      <trkpt lat="44.11188" lon="1.82336">
        <ele>399.6</ele>
        <time>2023-03-05T10:27:51Z</time>
      </trkpt>
      <trkpt lat="44.11195" lon="1.82331">
        <ele>398</ele>
        <time>2023-03-05T10:27:52Z</time>
      </trkpt>
      <trkpt lat="44.11202" lon="1.82328">
        <ele>397.2</ele>
        <time>2023-03-05T10:27:53Z</time>
      </trkpt>
      <trkpt lat="44.1121" lon="1.82326">
        <ele>396.4</ele>
        <time>2023-03-05T10:27:54Z</time>
      </trkpt>
      <trkpt lat="44.11219" lon="1.82326">
        <ele>394.8</ele>
        <time>2023-03-05T10:27:55Z</time>
      </trkpt>
      <trkpt lat="44.11228" lon="1.82326">
        <ele>393.2</ele>
        <time>2023-03-05T10:27:56Z</time>
      </trkpt>
      <trkpt lat="44.11237" lon="1.82323">
        <ele>391.4</ele>
        <time>2023-03-05T10:27:57Z</time>
      </trkpt>
      <trkpt lat="44.11245" lon="1.8232">
        <ele>390.6</ele>
        <time>2023-03-05T10:27:58Z</time>
      </trkpt>
      <trkpt lat="44.11256" lon="1.82316">
        <ele>388.2</ele>
        <time>2023-03-05T10:27:59Z</time>
      </trkpt>
      <trkpt lat="44.1127" lon="1.82312">
        <ele>387.4</ele>
        <time>2023-03-05T10:28:00Z</time>
      </trkpt>
      <trkpt lat="44.1128" lon="1.82309">
        <ele>384.8</ele>
        <time>2023-03-05T10:28:01Z</time>
      </trkpt>
      <trkpt lat="44.11287" lon="1.82306">
        <ele>384</ele>
        <time>2023-03-05T10:28:02Z</time>
      </trkpt>
      <trkpt lat="44.11294" lon="1.82303">
        <ele>382.8</ele>
        <time>2023-03-05T10:28:03Z</time>
      </trkpt>
      <trkpt lat="44.113" lon="1.82297">
        <ele>382.2</ele>
        <time>2023-03-05T10:28:04Z</time>
      </trkpt>
      <trkpt lat="44.11304" lon="1.82289">
        <ele>380.2</ele>
        <time>2023-03-05T10:28:05Z</time>
      </trkpt>
      <trkpt lat="44.11306" lon="1.82283">
        <ele>379.2</ele>
        <time>2023-03-05T10:28:06Z</time>
      </trkpt>
      <trkpt lat="44.11307" lon="1.82275">
        <ele>377.8</ele>
        <time>2023-03-05T10:28:07Z</time>
      </trkpt>
      <trkpt lat="44.11307" lon="1.82266">
        <ele>376.4</ele>
        <time>2023-03-05T10:28:08Z</time>
      </trkpt>
      <trkpt lat="44.11307" lon="1.82258">
        <ele>376</ele>
        <time>2023-03-05T10:28:09Z</time>
      </trkpt>
      <trkpt lat="44.11306" lon="1.8225">
        <ele>375</ele>
        <time>2023-03-05T10:28:10Z</time>
      </trkpt>
      <trkpt lat="44.11306" lon="1.82241">
        <ele>374.6</ele>
        <time>2023-03-05T10:28:11Z</time>
      </trkpt>
      <trkpt lat="44.11306" lon="1.82233">
        <ele>373.6</ele>
        <time>2023-03-05T10:28:12Z</time>
      </trkpt>
      <trkpt lat="44.11305" lon="1.82224">
        <ele>373.2</ele>
        <time>2023-03-05T10:28:13Z</time>
      </trkpt>
      <trkpt lat="44.11305" lon="1.82215">
        <ele>372.6</ele>
        <time>2023-03-05T10:28:14Z</time>
      </trkpt>
      <trkpt lat="44.11306" lon="1.82207">
        <ele>372.4</ele>
        <time>2023-03-05T10:28:15Z</time>
      </trkpt>
      <trkpt lat="44.11307" lon="1.822">
        <ele>372</ele>
        <time>2023-03-05T10:28:16Z</time>
      </trkpt>
      <trkpt lat="44.11309" lon="1.82192">
        <ele>371.6</ele>
        <time>2023-03-05T10:28:17Z</time>
      </trkpt>
      <trkpt lat="44.11313" lon="1.82184">
        <ele>371.2</ele>
        <time>2023-03-05T10:28:18Z</time>
      </trkpt>
      <trkpt lat="44.11317" lon="1.82175">
        <ele>370.6</ele>
        <time>2023-03-05T10:28:19Z</time>
      </trkpt>
      <trkpt lat="44.11321" lon="1.82166">
        <ele>370.4</ele>
        <time>2023-03-05T10:28:20Z</time>
      </trkpt>
      <trkpt lat="44.11326" lon="1.82157">
        <ele>369.6</ele>
        <time>2023-03-05T10:28:21Z</time>
      </trkpt>
      <trkpt lat="44.1133" lon="1.82147">
        <ele>369.2</ele>
        <time>2023-03-05T10:28:22Z</time>
      </trkpt>
      <trkpt lat="44.11335" lon="1.82137">
        <ele>368.4</ele>
        <time>2023-03-05T10:28:23Z</time>
      </trkpt>
      <trkpt lat="44.1134" lon="1.82127">
        <ele>368</ele>
        <time>2023-03-05T10:28:24Z</time>
      </trkpt>
      <trkpt lat="44.11344" lon="1.82116">
        <ele>367.2</ele>
        <time>2023-03-05T10:28:25Z</time>
      </trkpt>
      <trkpt lat="44.11348" lon="1.82108">
        <ele>367</ele>
        <time>2023-03-05T10:28:26Z</time>
      </trkpt>
      <trkpt lat="44.11352" lon="1.82097">
        <ele>366.6</ele>
        <time>2023-03-05T10:28:27Z</time>
      </trkpt>
      <trkpt lat="44.11356" lon="1.82085">
        <ele>366.4</ele>
        <time>2023-03-05T10:28:28Z</time>
      </trkpt>
      <trkpt lat="44.1136" lon="1.82076">
        <ele>366</ele>
        <time>2023-03-05T10:28:29Z</time>
      </trkpt>
      <trkpt lat="44.11363" lon="1.82069">
        <ele>365.6</ele>
        <time>2023-03-05T10:28:30Z</time>
      </trkpt>
      <trkpt lat="44.11367" lon="1.82062">
        <ele>365.2</ele>
        <time>2023-03-05T10:28:31Z</time>
      </trkpt>
      <trkpt lat="44.11373" lon="1.82056">
        <ele>364.6</ele>
        <time>2023-03-05T10:28:32Z</time>
      </trkpt>
      <trkpt lat="44.11378" lon="1.8205">
        <ele>364.4</ele>
        <time>2023-03-05T10:28:33Z</time>
      </trkpt>
      <trkpt lat="44.11382" lon="1.82045">
        <ele>364</ele>
        <time>2023-03-05T10:28:34Z</time>
      </trkpt>
      <trkpt lat="44.11387" lon="1.82042">
        <ele>363.8</ele>
        <time>2023-03-05T10:28:35Z</time>
      </trkpt>
      <trkpt lat="44.11394" lon="1.82037">
        <ele>363.2</ele>
        <time>2023-03-05T10:28:36Z</time>
      </trkpt>
      <trkpt lat="44.114" lon="1.82032">
        <ele>363</ele>
        <time>2023-03-05T10:28:37Z</time>
      </trkpt>
      <trkpt lat="44.11407" lon="1.82027">
        <ele>362.6</ele>
        <time>2023-03-05T10:28:38Z</time>
      </trkpt>
      <trkpt lat="44.11413" lon="1.82021">
        <ele>362.4</ele>
        <time>2023-03-05T10:28:39Z</time>
      </trkpt>
      <trkpt lat="44.11418" lon="1.82015">
        <ele>362.2</ele>
        <time>2023-03-05T10:28:40Z</time>
      </trkpt>
      <trkpt lat="44.11421" lon="1.82011">
        <ele>362</ele>
        <time>2023-03-05T10:28:41Z</time>
      </trkpt>
      <trkpt lat="44.11427" lon="1.82005">
        <ele>362</ele>
        <time>2023-03-05T10:28:42Z</time>
      </trkpt>
      <trkpt lat="44.11432" lon="1.82">
        <ele>362</ele>
        <time>2023-03-05T10:28:43Z</time>
      </trkpt>
      <trkpt lat="44.11436" lon="1.81996">
        <ele>361.8</ele>
        <time>2023-03-05T10:28:44Z</time>
      </trkpt>
      <trkpt lat="44.1144" lon="1.81993">
        <ele>361.8</ele>
        <time>2023-03-05T10:28:45Z</time>
      </trkpt>
      <trkpt lat="44.11443" lon="1.8199">
        <ele>361.8</ele>
        <time>2023-03-05T10:28:46Z</time>
      </trkpt>
      <trkpt lat="44.11447" lon="1.81987">
        <ele>362</ele>
        <time>2023-03-05T10:28:47Z</time>
      </trkpt>
      <trkpt lat="44.11452" lon="1.81983">
        <ele>362.2</ele>
        <time>2023-03-05T10:28:48Z</time>
      </trkpt>
      <trkpt lat="44.11457" lon="1.8198">
        <ele>362.2</ele>
        <time>2023-03-05T10:28:49Z</time>
      </trkpt>
      <trkpt lat="44.11461" lon="1.81976">
        <ele>362.6</ele>
        <time>2023-03-05T10:28:50Z</time>
      </trkpt>
      <trkpt lat="44.11465" lon="1.81973">
        <ele>363</ele>
        <time>2023-03-05T10:28:51Z</time>
      </trkpt>
      <trkpt lat="44.1147" lon="1.81969">
        <ele>363.6</ele>
        <time>2023-03-05T10:28:52Z</time>
      </trkpt>
      <trkpt lat="44.11474" lon="1.81966">
        <ele>363.6</ele>
        <time>2023-03-05T10:28:53Z</time>
      </trkpt>
      <trkpt lat="44.1148" lon="1.81963">
        <ele>364</ele>
        <time>2023-03-05T10:28:54Z</time>
      </trkpt>
      <trkpt lat="44.11484" lon="1.81959">
        <ele>364.2</ele>
        <time>2023-03-05T10:28:55Z</time>
      </trkpt>
      <trkpt lat="44.11488" lon="1.81957">
        <ele>364.6</ele>
        <time>2023-03-05T10:28:56Z</time>
      </trkpt>
      <trkpt lat="44.11492" lon="1.81955">
        <ele>364.6</ele>
        <time>2023-03-05T10:28:57Z</time>
      </trkpt>
      <trkpt lat="44.11496" lon="1.81952">
        <ele>365.2</ele>
        <time>2023-03-05T10:28:58Z</time>
      </trkpt>
      <trkpt lat="44.115" lon="1.8195">
        <ele>365.6</ele>
        <time>2023-03-05T10:28:59Z</time>
      </trkpt>
      <trkpt lat="44.11505" lon="1.81948">
        <ele>365.6</ele>
        <time>2023-03-05T10:29:00Z</time>
      </trkpt>
      <trkpt lat="44.11509" lon="1.81947">
        <ele>366</ele>
        <time>2023-03-05T10:29:01Z</time>
      </trkpt>
      <trkpt lat="44.11513" lon="1.81945">
        <ele>366.2</ele>
        <time>2023-03-05T10:29:02Z</time>
      </trkpt>
      <trkpt lat="44.11518" lon="1.81944">
        <ele>366.4</ele>
        <time>2023-03-05T10:29:03Z</time>
      </trkpt>
      <trkpt lat="44.11523" lon="1.81943">
        <ele>366.6</ele>
        <time>2023-03-05T10:29:04Z</time>
      </trkpt>
      <trkpt lat="44.11529" lon="1.81942">
        <ele>366.8</ele>
        <time>2023-03-05T10:29:05Z</time>
      </trkpt>
      <trkpt lat="44.11535" lon="1.8194">
        <ele>366.8</ele>
        <time>2023-03-05T10:29:06Z</time>
      </trkpt>
      <trkpt lat="44.11539" lon="1.81937">
        <ele>366.8</ele>
        <time>2023-03-05T10:29:07Z</time>
      </trkpt>
      <trkpt lat="44.11543" lon="1.81932">
        <ele>366.8</ele>
        <time>2023-03-05T10:29:08Z</time>
      </trkpt>
      <trkpt lat="44.11545" lon="1.81927">
        <ele>366.8</ele>
        <time>2023-03-05T10:29:09Z</time>
      </trkpt>
      <trkpt lat="44.11548" lon="1.81919">
        <ele>366.8</ele>
        <time>2023-03-05T10:29:10Z</time>
      </trkpt>
      <trkpt lat="44.11548" lon="1.81911">
        <ele>366.8</ele>
        <time>2023-03-05T10:29:11Z</time>
      </trkpt>
      <trkpt lat="44.11545" lon="1.819">
        <ele>366.4</ele>
        <time>2023-03-05T10:29:12Z</time>
      </trkpt>
      <trkpt lat="44.11542" lon="1.81891">
        <ele>366</ele>
        <time>2023-03-05T10:29:13Z</time>
      </trkpt>
      <trkpt lat="44.11539" lon="1.81882">
        <ele>365.6</ele>
        <time>2023-03-05T10:29:14Z</time>
      </trkpt>
      <trkpt lat="44.11536" lon="1.81874">
        <ele>365.2</ele>
        <time>2023-03-05T10:29:15Z</time>
      </trkpt>
      <trkpt lat="44.11533" lon="1.81865">
        <ele>364.8</ele>
        <time>2023-03-05T10:29:16Z</time>
      </trkpt>
      <trkpt lat="44.1153" lon="1.81857">
        <ele>364.6</ele>
        <time>2023-03-05T10:29:17Z</time>
      </trkpt>
      <trkpt lat="44.11526" lon="1.81848">
        <ele>364</ele>
        <time>2023-03-05T10:29:18Z</time>
      </trkpt>
      <trkpt lat="44.1152" lon="1.81836">
        <ele>364</ele>
        <time>2023-03-05T10:29:19Z</time>
      </trkpt>
      <trkpt lat="44.11517" lon="1.81828">
        <ele>363.4</ele>
        <time>2023-03-05T10:29:20Z</time>
      </trkpt>
      <trkpt lat="44.11513" lon="1.81817">
        <ele>363.2</ele>
        <time>2023-03-05T10:29:21Z</time>
      </trkpt>
      <trkpt lat="44.1151" lon="1.81806">
        <ele>362.8</ele>
        <time>2023-03-05T10:29:22Z</time>
      </trkpt>
      <trkpt lat="44.11508" lon="1.81792">
        <ele>362.4</ele>
        <time>2023-03-05T10:29:23Z</time>
      </trkpt>
      <trkpt lat="44.11508" lon="1.81779">
        <ele>362.2</ele>
        <time>2023-03-05T10:29:24Z</time>
      </trkpt>
      <trkpt lat="44.1151" lon="1.81768">
        <ele>362</ele>
        <time>2023-03-05T10:29:25Z</time>
      </trkpt>
      <trkpt lat="44.11512" lon="1.81756">
        <ele>361.8</ele>
        <time>2023-03-05T10:29:26Z</time>
      </trkpt>
      <trkpt lat="44.11516" lon="1.81742">
        <ele>361.2</ele>
        <time>2023-03-05T10:29:27Z</time>
      </trkpt>
      <trkpt lat="44.11519" lon="1.81733">
        <ele>360.6</ele>
        <time>2023-03-05T10:29:28Z</time>
      </trkpt>
      <trkpt lat="44.11521" lon="1.81724">
        <ele>359.6</ele>
        <time>2023-03-05T10:29:29Z</time>
      </trkpt>
      <trkpt lat="44.11522" lon="1.81717">
        <ele>359</ele>
        <time>2023-03-05T10:29:30Z</time>
      </trkpt>
      <trkpt lat="44.11523" lon="1.81708">
        <ele>357.6</ele>
        <time>2023-03-05T10:29:31Z</time>
      </trkpt>
      <trkpt lat="44.11524" lon="1.81703">
        <ele>355.6</ele>
        <time>2023-03-05T10:29:32Z</time>
      </trkpt>
      <trkpt lat="44.11525" lon="1.81698">
        <ele>354.6</ele>
        <time>2023-03-05T10:29:33Z</time>
      </trkpt>
      <trkpt lat="44.11526" lon="1.81695">
        <ele>353.2</ele>
        <time>2023-03-05T10:29:34Z</time>
      </trkpt>
      <trkpt lat="44.11527" lon="1.81693">
        <ele>352.4</ele>
        <time>2023-03-05T10:29:35Z</time>
      </trkpt>
      <trkpt lat="44.11527" lon="1.8169">
        <ele>350.6</ele>
        <time>2023-03-05T10:29:36Z</time>
      </trkpt>
      <trkpt lat="44.11528" lon="1.81687">
        <ele>350</ele>
        <time>2023-03-05T10:29:37Z</time>
      </trkpt>
      <trkpt lat="44.11528" lon="1.81686">
        <ele>348.8</ele>
        <time>2023-03-05T10:29:38Z</time>
      </trkpt>
      <trkpt lat="44.11529" lon="1.81686">
        <ele>348.2</ele>
        <time>2023-03-05T10:29:39Z</time>
      </trkpt>
      <trkpt lat="44.1153" lon="1.81686">
        <ele>347.6</ele>
        <time>2023-03-05T10:29:40Z</time>
      </trkpt>
      <trkpt lat="44.11531" lon="1.81687">
        <ele>347</ele>
        <time>2023-03-05T10:29:41Z</time>
      </trkpt>
      <trkpt lat="44.11531" lon="1.81688">
        <ele>346.6</ele>
        <time>2023-03-05T10:29:42Z</time>
      </trkpt>
      <trkpt lat="44.11531" lon="1.81689">
        <ele>345.8</ele>
        <time>2023-03-05T10:29:43Z</time>
      </trkpt>
      <trkpt lat="44.11531" lon="1.81689">
        <ele>345.4</ele>
        <time>2023-03-05T10:29:44Z</time>
      </trkpt>
      <trkpt lat="44.11531" lon="1.81689">
        <ele>345.2</ele>
        <time>2023-03-05T10:29:45Z</time>
      </trkpt>
      <trkpt lat="44.11538" lon="1.81702">
        <ele>343</ele>
        <time>2023-03-05T10:35:56Z</time>
      </trkpt>
      <trkpt lat="44.11539" lon="1.81705">
        <ele>343</ele>
        <time>2023-03-05T10:35:57Z</time>
      </trkpt>
      <trkpt lat="44.11541" lon="1.81709">
        <ele>343</ele>
        <time>2023-03-05T10:35:58Z</time>
      </trkpt>
      <trkpt lat="44.11543" lon="1.81712">
        <ele>343</ele>
        <time>2023-03-05T10:35:59Z</time>
      </trkpt>
      <trkpt lat="44.11544" lon="1.81716">
        <ele>343</ele>
        <time>2023-03-05T10:36:00Z</time>
      </trkpt>
      <trkpt lat="44.11546" lon="1.81721">
        <ele>343</ele>
        <time>2023-03-05T10:36:01Z</time>
      </trkpt>
      <trkpt lat="44.11549" lon="1.81724">
        <ele>343</ele>
        <time>2023-03-05T10:36:02Z</time>
      </trkpt>
      <trkpt lat="44.11551" lon="1.81728">
        <ele>343</ele>
        <time>2023-03-05T10:36:03Z</time>
      </trkpt>
      <trkpt lat="44.11554" lon="1.81733">
        <ele>343</ele>
        <time>2023-03-05T10:36:04Z</time>
      </trkpt>
      <trkpt lat="44.11558" lon="1.81737">
        <ele>343</ele>
        <time>2023-03-05T10:36:05Z</time>
      </trkpt>
      <trkpt lat="44.11561" lon="1.81741">
        <ele>343</ele>
        <time>2023-03-05T10:36:06Z</time>
      </trkpt>
      <trkpt lat="44.11565" lon="1.81745">
        <ele>343</ele>
        <time>2023-03-05T10:36:07Z</time>
      </trkpt>
      <trkpt lat="44.11569" lon="1.81749">
        <ele>342.8</ele>
        <time>2023-03-05T10:36:08Z</time>
      </trkpt>
      <trkpt lat="44.11572" lon="1.81753">
        <ele>342.8</ele>
        <time>2023-03-05T10:36:09Z</time>
      </trkpt>
      <trkpt lat="44.11575" lon="1.81757">
        <ele>342.8</ele>
        <time>2023-03-05T10:36:10Z</time>
      </trkpt>
      <trkpt lat="44.1158" lon="1.81762">
        <ele>342.8</ele>
        <time>2023-03-05T10:36:11Z</time>
      </trkpt>
      <trkpt lat="44.11584" lon="1.81766">
        <ele>342.8</ele>
        <time>2023-03-05T10:36:12Z</time>
      </trkpt>
      <trkpt lat="44.11588" lon="1.8177">
        <ele>342.6</ele>
        <time>2023-03-05T10:36:13Z</time>
      </trkpt>
      <trkpt lat="44.11596" lon="1.81778">
        <ele>342.6</ele>
        <time>2023-03-05T10:36:14Z</time>
      </trkpt>
      <trkpt lat="44.11602" lon="1.81784">
        <ele>342.6</ele>
        <time>2023-03-05T10:36:15Z</time>
      </trkpt>
      <trkpt lat="44.11607" lon="1.81789">
        <ele>342.4</ele>
        <time>2023-03-05T10:36:16Z</time>
      </trkpt>
      <trkpt lat="44.11614" lon="1.81791">
        <ele>342.2</ele>
        <time>2023-03-05T10:36:17Z</time>
      </trkpt>
      <trkpt lat="44.1162" lon="1.81793">
        <ele>342</ele>
        <time>2023-03-05T10:36:18Z</time>
      </trkpt>
      <trkpt lat="44.11633" lon="1.81797">
        <ele>341.8</ele>
        <time>2023-03-05T10:36:19Z</time>
      </trkpt>
      <trkpt lat="44.11639" lon="1.81798">
        <ele>341.6</ele>
        <time>2023-03-05T10:36:20Z</time>
      </trkpt>
      <trkpt lat="44.11646" lon="1.81799">
        <ele>341.2</ele>
        <time>2023-03-05T10:36:21Z</time>
      </trkpt>
      <trkpt lat="44.11659" lon="1.818">
        <ele>340.8</ele>
        <time>2023-03-05T10:36:22Z</time>
      </trkpt>
      <trkpt lat="44.11667" lon="1.81802">
        <ele>340.4</ele>
        <time>2023-03-05T10:36:23Z</time>
      </trkpt>
      <trkpt lat="44.11675" lon="1.81803">
        <ele>340.4</ele>
        <time>2023-03-05T10:36:24Z</time>
      </trkpt>
      <trkpt lat="44.11683" lon="1.81804">
        <ele>339.8</ele>
        <time>2023-03-05T10:36:25Z</time>
      </trkpt>
      <trkpt lat="44.1169" lon="1.81805">
        <ele>339.2</ele>
        <time>2023-03-05T10:36:26Z</time>
      </trkpt>
      <trkpt lat="44.11697" lon="1.81807">
        <ele>339</ele>
        <time>2023-03-05T10:36:27Z</time>
      </trkpt>
      <trkpt lat="44.11705" lon="1.81809">
        <ele>338.4</ele>
        <time>2023-03-05T10:36:28Z</time>
      </trkpt>
      <trkpt lat="44.11712" lon="1.81811">
        <ele>338.2</ele>
        <time>2023-03-05T10:36:29Z</time>
      </trkpt>
      <trkpt lat="44.11719" lon="1.81813">
        <ele>337.4</ele>
        <time>2023-03-05T10:36:30Z</time>
      </trkpt>
      <trkpt lat="44.11724" lon="1.81817">
        <ele>337.2</ele>
        <time>2023-03-05T10:36:31Z</time>
      </trkpt>
      <trkpt lat="44.11729" lon="1.8182">
        <ele>336.6</ele>
        <time>2023-03-05T10:36:32Z</time>
      </trkpt>
      <trkpt lat="44.11739" lon="1.81827">
        <ele>336.4</ele>
        <time>2023-03-05T10:36:33Z</time>
      </trkpt>
      <trkpt lat="44.11746" lon="1.81833">
        <ele>336</ele>
        <time>2023-03-05T10:36:34Z</time>
      </trkpt>
      <trkpt lat="44.11753" lon="1.81838">
        <ele>335.4</ele>
        <time>2023-03-05T10:36:35Z</time>
      </trkpt>
      <trkpt lat="44.1176" lon="1.81843">
        <ele>335</ele>
        <time>2023-03-05T10:36:36Z</time>
      </trkpt>
      <trkpt lat="44.11767" lon="1.81845">
        <ele>334.4</ele>
        <time>2023-03-05T10:36:37Z</time>
      </trkpt>
      <trkpt lat="44.11773" lon="1.81844">
        <ele>334</ele>
        <time>2023-03-05T10:36:38Z</time>
      </trkpt>
      <trkpt lat="44.1178" lon="1.8184">
        <ele>333.6</ele>
        <time>2023-03-05T10:36:39Z</time>
      </trkpt>
      <trkpt lat="44.11785" lon="1.81838">
        <ele>333.4</ele>
        <time>2023-03-05T10:36:40Z</time>
      </trkpt>
      <trkpt lat="44.11791" lon="1.81835">
        <ele>333.2</ele>
        <time>2023-03-05T10:36:41Z</time>
      </trkpt>
      <trkpt lat="44.11802" lon="1.81829">
        <ele>332.8</ele>
        <time>2023-03-05T10:36:42Z</time>
      </trkpt>
      <trkpt lat="44.1181" lon="1.81824">
        <ele>332.6</ele>
        <time>2023-03-05T10:36:43Z</time>
      </trkpt>
      <trkpt lat="44.11818" lon="1.81818">
        <ele>332</ele>
        <time>2023-03-05T10:36:44Z</time>
      </trkpt>
      <trkpt lat="44.11825" lon="1.81813">
        <ele>331.8</ele>
        <time>2023-03-05T10:36:45Z</time>
      </trkpt>
      <trkpt lat="44.11833" lon="1.81808">
        <ele>331.4</ele>
        <time>2023-03-05T10:36:46Z</time>
      </trkpt>
      <trkpt lat="44.11841" lon="1.81801">
        <ele>330.8</ele>
        <time>2023-03-05T10:36:47Z</time>
      </trkpt>
      <trkpt lat="44.11848" lon="1.81793">
        <ele>330</ele>
        <time>2023-03-05T10:36:48Z</time>
      </trkpt>
      <trkpt lat="44.11856" lon="1.81786">
        <ele>329.6</ele>
        <time>2023-03-05T10:36:49Z</time>
      </trkpt>
      <trkpt lat="44.11865" lon="1.81781">
        <ele>328.8</ele>
        <time>2023-03-05T10:36:50Z</time>
      </trkpt>
      <trkpt lat="44.11873" lon="1.81776">
        <ele>327.4</ele>
        <time>2023-03-05T10:36:51Z</time>
      </trkpt>
      <trkpt lat="44.1188" lon="1.81773">
        <ele>327.2</ele>
        <time>2023-03-05T10:36:52Z</time>
      </trkpt>
      <trkpt lat="44.11886" lon="1.8177">
        <ele>326.6</ele>
        <time>2023-03-05T10:36:53Z</time>
      </trkpt>
      <trkpt lat="44.1189" lon="1.81765">
        <ele>326.2</ele>
        <time>2023-03-05T10:36:54Z</time>
      </trkpt>
      <trkpt lat="44.11893" lon="1.81759">
        <ele>324.4</ele>
        <time>2023-03-05T10:36:55Z</time>
      </trkpt>
      <trkpt lat="44.11897" lon="1.81753">
        <ele>323.6</ele>
        <time>2023-03-05T10:36:56Z</time>
      </trkpt>
      <trkpt lat="44.11902" lon="1.81749">
        <ele>322</ele>
        <time>2023-03-05T10:36:57Z</time>
      </trkpt>
      <trkpt lat="44.11909" lon="1.81747">
        <ele>321</ele>
        <time>2023-03-05T10:36:58Z</time>
      </trkpt>
      <trkpt lat="44.11915" lon="1.81746">
        <ele>319.8</ele>
        <time>2023-03-05T10:36:59Z</time>
      </trkpt>
      <trkpt lat="44.11922" lon="1.81746">
        <ele>318.4</ele>
        <time>2023-03-05T10:37:00Z</time>
      </trkpt>
      <trkpt lat="44.11929" lon="1.81746">
        <ele>317.6</ele>
        <time>2023-03-05T10:37:01Z</time>
      </trkpt>
      <trkpt lat="44.11936" lon="1.81746">
        <ele>316.6</ele>
        <time>2023-03-05T10:37:02Z</time>
      </trkpt>
      <trkpt lat="44.11942" lon="1.81746">
        <ele>316.2</ele>
        <time>2023-03-05T10:37:03Z</time>
      </trkpt>
      <trkpt lat="44.11948" lon="1.81745">
        <ele>315.6</ele>
        <time>2023-03-05T10:37:04Z</time>
      </trkpt>
      <trkpt lat="44.11953" lon="1.81744">
        <ele>315.4</ele>
        <time>2023-03-05T10:37:05Z</time>
      </trkpt>
      <trkpt lat="44.11963" lon="1.81742">
        <ele>314.8</ele>
        <time>2023-03-05T10:37:06Z</time>
      </trkpt>
      <trkpt lat="44.11967" lon="1.81738">
        <ele>314.4</ele>
        <time>2023-03-05T10:37:07Z</time>
      </trkpt>
      <trkpt lat="44.11971" lon="1.81734">
        <ele>313</ele>
        <time>2023-03-05T10:37:08Z</time>
      </trkpt>
      <trkpt lat="44.11979" lon="1.81726">
        <ele>312</ele>
        <time>2023-03-05T10:37:09Z</time>
      </trkpt>
      <trkpt lat="44.11984" lon="1.81719">
        <ele>311.4</ele>
        <time>2023-03-05T10:37:10Z</time>
      </trkpt>
      <trkpt lat="44.11989" lon="1.81712">
        <ele>310.8</ele>
        <time>2023-03-05T10:37:11Z</time>
      </trkpt>
      <trkpt lat="44.11995" lon="1.81705">
        <ele>310.6</ele>
        <time>2023-03-05T10:37:12Z</time>
      </trkpt>
      <trkpt lat="44.12001" lon="1.817">
        <ele>310.2</ele>
        <time>2023-03-05T10:37:13Z</time>
      </trkpt>
      <trkpt lat="44.12007" lon="1.81696">
        <ele>310.2</ele>
        <time>2023-03-05T10:37:14Z</time>
      </trkpt>
      <trkpt lat="44.12013" lon="1.81691">
        <ele>309.4</ele>
        <time>2023-03-05T10:37:15Z</time>
      </trkpt>
      <trkpt lat="44.12019" lon="1.81686">
        <ele>309</ele>
        <time>2023-03-05T10:37:16Z</time>
      </trkpt>
      <trkpt lat="44.12026" lon="1.81681">
        <ele>308.2</ele>
        <time>2023-03-05T10:37:17Z</time>
      </trkpt>
      <trkpt lat="44.12032" lon="1.81675">
        <ele>307.4</ele>
        <time>2023-03-05T10:37:18Z</time>
      </trkpt>
      <trkpt lat="44.12037" lon="1.8167">
        <ele>307.2</ele>
        <time>2023-03-05T10:37:19Z</time>
      </trkpt>
      <trkpt lat="44.12048" lon="1.8166">
        <ele>306</ele>
        <time>2023-03-05T10:37:20Z</time>
      </trkpt>
      <trkpt lat="44.12054" lon="1.81658">
        <ele>305.8</ele>
        <time>2023-03-05T10:37:21Z</time>
      </trkpt>
      <trkpt lat="44.12059" lon="1.81655">
        <ele>305</ele>
        <time>2023-03-05T10:37:22Z</time>
      </trkpt>
      <trkpt lat="44.1207" lon="1.81649">
        <ele>304.6</ele>
        <time>2023-03-05T10:37:23Z</time>
      </trkpt>
      <trkpt lat="44.12076" lon="1.8165">
        <ele>304</ele>
        <time>2023-03-05T10:37:24Z</time>
      </trkpt>
      <trkpt lat="44.12082" lon="1.8165">
        <ele>303.2</ele>
        <time>2023-03-05T10:37:25Z</time>
      </trkpt>
      <trkpt lat="44.12095" lon="1.81651">
        <ele>302.4</ele>
        <time>2023-03-05T10:37:26Z</time>
      </trkpt>
      <trkpt lat="44.121" lon="1.81653">
        <ele>301.8</ele>
        <time>2023-03-05T10:37:27Z</time>
      </trkpt>
      <trkpt lat="44.12105" lon="1.81655">
        <ele>301.2</ele>
        <time>2023-03-05T10:37:28Z</time>
      </trkpt>
      <trkpt lat="44.12116" lon="1.81659">
        <ele>300.4</ele>
        <time>2023-03-05T10:37:29Z</time>
      </trkpt>
      <trkpt lat="44.12122" lon="1.81662">
        <ele>300.2</ele>
        <time>2023-03-05T10:37:30Z</time>
      </trkpt>
      <trkpt lat="44.12128" lon="1.81665">
        <ele>299.4</ele>
        <time>2023-03-05T10:37:31Z</time>
      </trkpt>
      <trkpt lat="44.12133" lon="1.81668">
        <ele>299</ele>
        <time>2023-03-05T10:37:32Z</time>
      </trkpt>
      <trkpt lat="44.12138" lon="1.81671">
        <ele>297.6</ele>
        <time>2023-03-05T10:37:33Z</time>
      </trkpt>
      <trkpt lat="44.12143" lon="1.81674">
        <ele>297</ele>
        <time>2023-03-05T10:37:34Z</time>
      </trkpt>
      <trkpt lat="44.12147" lon="1.81677">
        <ele>296.4</ele>
        <time>2023-03-05T10:37:35Z</time>
      </trkpt>
      <trkpt lat="44.1215" lon="1.8168">
        <ele>296</ele>
        <time>2023-03-05T10:37:36Z</time>
      </trkpt>
      <trkpt lat="44.12154" lon="1.81684">
        <ele>296</ele>
        <time>2023-03-05T10:37:37Z</time>
      </trkpt>
      <trkpt lat="44.12157" lon="1.81687">
        <ele>295.8</ele>
        <time>2023-03-05T10:37:38Z</time>
      </trkpt>
      <trkpt lat="44.12162" lon="1.81688">
        <ele>295.6</ele>
        <time>2023-03-05T10:37:39Z</time>
      </trkpt>
      <trkpt lat="44.12167" lon="1.81688">
        <ele>295.2</ele>
        <time>2023-03-05T10:37:40Z</time>
      </trkpt>
      <trkpt lat="44.12172" lon="1.81686">
        <ele>295.2</ele>
        <time>2023-03-05T10:37:41Z</time>
      </trkpt>
      <trkpt lat="44.12178" lon="1.81683">
        <ele>295</ele>
        <time>2023-03-05T10:37:42Z</time>
      </trkpt>
      <trkpt lat="44.12184" lon="1.81679">
        <ele>294.6</ele>
        <time>2023-03-05T10:37:43Z</time>
      </trkpt>
      <trkpt lat="44.12191" lon="1.81675">
        <ele>294.4</ele>
        <time>2023-03-05T10:37:44Z</time>
      </trkpt>
      <trkpt lat="44.12197" lon="1.81671">
        <ele>294.2</ele>
        <time>2023-03-05T10:37:45Z</time>
      </trkpt>
      <trkpt lat="44.12202" lon="1.81667">
        <ele>294</ele>
        <time>2023-03-05T10:37:46Z</time>
      </trkpt>
      <trkpt lat="44.12206" lon="1.81663">
        <ele>293.8</ele>
        <time>2023-03-05T10:37:47Z</time>
      </trkpt>
      <trkpt lat="44.12215" lon="1.81655">
        <ele>293.6</ele>
        <time>2023-03-05T10:37:48Z</time>
      </trkpt>
      <trkpt lat="44.12221" lon="1.81651">
        <ele>293.2</ele>
        <time>2023-03-05T10:37:49Z</time>
      </trkpt>
      <trkpt lat="44.12228" lon="1.81645">
        <ele>293</ele>
        <time>2023-03-05T10:37:50Z</time>
      </trkpt>
      <trkpt lat="44.12234" lon="1.8164">
        <ele>292.6</ele>
        <time>2023-03-05T10:37:51Z</time>
      </trkpt>
      <trkpt lat="44.1224" lon="1.81634">
        <ele>292</ele>
        <time>2023-03-05T10:37:52Z</time>
      </trkpt>
      <trkpt lat="44.12246" lon="1.81629">
        <ele>291.8</ele>
        <time>2023-03-05T10:37:53Z</time>
      </trkpt>
      <trkpt lat="44.12252" lon="1.81623">
        <ele>291.6</ele>
        <time>2023-03-05T10:37:54Z</time>
      </trkpt>
      <trkpt lat="44.12259" lon="1.81617">
        <ele>291.4</ele>
        <time>2023-03-05T10:37:55Z</time>
      </trkpt>
      <trkpt lat="44.12265" lon="1.8161">
        <ele>291.2</ele>
        <time>2023-03-05T10:37:56Z</time>
      </trkpt>
      <trkpt lat="44.12272" lon="1.81604">
        <ele>290.8</ele>
        <time>2023-03-05T10:37:57Z</time>
      </trkpt>
      <trkpt lat="44.12279" lon="1.81599">
        <ele>290.4</ele>
        <time>2023-03-05T10:37:58Z</time>
      </trkpt>
      <trkpt lat="44.12286" lon="1.81594">
        <ele>290</ele>
        <time>2023-03-05T10:37:59Z</time>
      </trkpt>
      <trkpt lat="44.12292" lon="1.8159">
        <ele>289.4</ele>
        <time>2023-03-05T10:38:00Z</time>
      </trkpt>
      <trkpt lat="44.12298" lon="1.81585">
        <ele>288.8</ele>
        <time>2023-03-05T10:38:01Z</time>
      </trkpt>
      <trkpt lat="44.1231" lon="1.81577">
        <ele>288.6</ele>
        <time>2023-03-05T10:38:02Z</time>
      </trkpt>
      <trkpt lat="44.12319" lon="1.81571">
        <ele>287.8</ele>
        <time>2023-03-05T10:38:03Z</time>
      </trkpt>
      <trkpt lat="44.12327" lon="1.81564">
        <ele>287.8</ele>
        <time>2023-03-05T10:38:04Z</time>
      </trkpt>
      <trkpt lat="44.12336" lon="1.81557">
        <ele>286.4</ele>
        <time>2023-03-05T10:38:05Z</time>
      </trkpt>
      <trkpt lat="44.12347" lon="1.81551">
        <ele>285.8</ele>
        <time>2023-03-05T10:38:06Z</time>
      </trkpt>
      <trkpt lat="44.12357" lon="1.81544">
        <ele>285.2</ele>
        <time>2023-03-05T10:38:07Z</time>
      </trkpt>
      <trkpt lat="44.12367" lon="1.81537">
        <ele>284.6</ele>
        <time>2023-03-05T10:38:08Z</time>
      </trkpt>
      <trkpt lat="44.12375" lon="1.81531">
        <ele>284</ele>
        <time>2023-03-05T10:38:09Z</time>
      </trkpt>
      <trkpt lat="44.12383" lon="1.81527">
        <ele>282.8</ele>
        <time>2023-03-05T10:38:10Z</time>
      </trkpt>
      <trkpt lat="44.12391" lon="1.81524">
        <ele>281.8</ele>
        <time>2023-03-05T10:38:11Z</time>
      </trkpt>
      <trkpt lat="44.124" lon="1.81521">
        <ele>280.6</ele>
        <time>2023-03-05T10:38:12Z</time>
      </trkpt>
      <trkpt lat="44.1241" lon="1.81517">
        <ele>279.8</ele>
        <time>2023-03-05T10:38:13Z</time>
      </trkpt>
      <trkpt lat="44.12417" lon="1.81514">
        <ele>278</ele>
        <time>2023-03-05T10:38:14Z</time>
      </trkpt>
      <trkpt lat="44.12424" lon="1.81511">
        <ele>277.2</ele>
        <time>2023-03-05T10:38:15Z</time>
      </trkpt>
      <trkpt lat="44.12437" lon="1.81504">
        <ele>276.4</ele>
        <time>2023-03-05T10:38:16Z</time>
      </trkpt>
      <trkpt lat="44.12445" lon="1.815">
        <ele>275.8</ele>
        <time>2023-03-05T10:38:17Z</time>
      </trkpt>
      <trkpt lat="44.12453" lon="1.81496">
        <ele>274.8</ele>
        <time>2023-03-05T10:38:18Z</time>
      </trkpt>
      <trkpt lat="44.1246" lon="1.8149">
        <ele>274</ele>
        <time>2023-03-05T10:38:19Z</time>
      </trkpt>
      <trkpt lat="44.12467" lon="1.81485">
        <ele>273.2</ele>
        <time>2023-03-05T10:38:20Z</time>
      </trkpt>
      <trkpt lat="44.12474" lon="1.81479">
        <ele>272.2</ele>
        <time>2023-03-05T10:38:21Z</time>
      </trkpt>
      <trkpt lat="44.12481" lon="1.81473">
        <ele>271.6</ele>
        <time>2023-03-05T10:38:22Z</time>
      </trkpt>
      <trkpt lat="44.12489" lon="1.81465">
        <ele>269.4</ele>
        <time>2023-03-05T10:38:23Z</time>
      </trkpt>
      <trkpt lat="44.12495" lon="1.81456">
        <ele>268.4</ele>
        <time>2023-03-05T10:38:24Z</time>
      </trkpt>
      <trkpt lat="44.12503" lon="1.81446">
        <ele>267.2</ele>
        <time>2023-03-05T10:38:25Z</time>
      </trkpt>
      <trkpt lat="44.12508" lon="1.81435">
        <ele>266.6</ele>
        <time>2023-03-05T10:38:26Z</time>
      </trkpt>
      <trkpt lat="44.12514" lon="1.81423">
        <ele>264.4</ele>
        <time>2023-03-05T10:38:27Z</time>
      </trkpt>
      <trkpt lat="44.12519" lon="1.81414">
        <ele>263.2</ele>
        <time>2023-03-05T10:38:28Z</time>
      </trkpt>
      <trkpt lat="44.12524" lon="1.81405">
        <ele>261.4</ele>
        <time>2023-03-05T10:38:29Z</time>
      </trkpt>
      <trkpt lat="44.12535" lon="1.81387">
        <ele>259.8</ele>
        <time>2023-03-05T10:38:30Z</time>
      </trkpt>
      <trkpt lat="44.12541" lon="1.81382">
        <ele>258.8</ele>
        <time>2023-03-05T10:38:31Z</time>
      </trkpt>
      <trkpt lat="44.12547" lon="1.81376">
        <ele>257</ele>
        <time>2023-03-05T10:38:32Z</time>
      </trkpt>
      <trkpt lat="44.12559" lon="1.81364">
        <ele>256.4</ele>
        <time>2023-03-05T10:38:33Z</time>
      </trkpt>
      <trkpt lat="44.12568" lon="1.81359">
        <ele>255.2</ele>
        <time>2023-03-05T10:38:34Z</time>
      </trkpt>
      <trkpt lat="44.12576" lon="1.81354">
        <ele>254.2</ele>
        <time>2023-03-05T10:38:35Z</time>
      </trkpt>
      <trkpt lat="44.12584" lon="1.8135">
        <ele>252.2</ele>
        <time>2023-03-05T10:38:36Z</time>
      </trkpt>
      <trkpt lat="44.12591" lon="1.81346">
        <ele>251.8</ele>
        <time>2023-03-05T10:38:37Z</time>
      </trkpt>
      <trkpt lat="44.12599" lon="1.81341">
        <ele>251.2</ele>
        <time>2023-03-05T10:38:38Z</time>
      </trkpt>
      <trkpt lat="44.12605" lon="1.81335">
        <ele>250.4</ele>
        <time>2023-03-05T10:38:39Z</time>
      </trkpt>
      <trkpt lat="44.12611" lon="1.81329">
        <ele>249.8</ele>
        <time>2023-03-05T10:38:40Z</time>
      </trkpt>
      <trkpt lat="44.12617" lon="1.81323">
        <ele>249.4</ele>
        <time>2023-03-05T10:38:41Z</time>
      </trkpt>
      <trkpt lat="44.12621" lon="1.81319">
        <ele>249.2</ele>
        <time>2023-03-05T10:38:42Z</time>
      </trkpt>
      <trkpt lat="44.12625" lon="1.81316">
        <ele>248.8</ele>
        <time>2023-03-05T10:38:43Z</time>
      </trkpt>
      <trkpt lat="44.12634" lon="1.81308">
        <ele>248.6</ele>
        <time>2023-03-05T10:38:44Z</time>
      </trkpt>
      <trkpt lat="44.12638" lon="1.81305">
        <ele>248.2</ele>
        <time>2023-03-05T10:38:45Z</time>
      </trkpt>
      <trkpt lat="44.12641" lon="1.81302">
        <ele>248</ele>
        <time>2023-03-05T10:38:46Z</time>
      </trkpt>
      <trkpt lat="44.12648" lon="1.81296">
        <ele>247.6</ele>
        <time>2023-03-05T10:38:47Z</time>
      </trkpt>
      <trkpt lat="44.12651" lon="1.81293">
        <ele>247.6</ele>
        <time>2023-03-05T10:38:48Z</time>
      </trkpt>
      <trkpt lat="44.12654" lon="1.81289">
        <ele>247.4</ele>
        <time>2023-03-05T10:38:49Z</time>
      </trkpt>
      <trkpt lat="44.12661" lon="1.81283">
        <ele>247.4</ele>
        <time>2023-03-05T10:38:50Z</time>
      </trkpt>
      <trkpt lat="44.12665" lon="1.8128">
        <ele>247.2</ele>
        <time>2023-03-05T10:38:51Z</time>
      </trkpt>
      <trkpt lat="44.12668" lon="1.81277">
        <ele>247.2</ele>
        <time>2023-03-05T10:38:52Z</time>
      </trkpt>
      <trkpt lat="44.12675" lon="1.81272">
        <ele>247.2</ele>
        <time>2023-03-05T10:38:53Z</time>
      </trkpt>
      <trkpt lat="44.1268" lon="1.81268">
        <ele>247.2</ele>
        <time>2023-03-05T10:38:54Z</time>
      </trkpt>
      <trkpt lat="44.12686" lon="1.81266">
        <ele>247.2</ele>
        <time>2023-03-05T10:38:55Z</time>
      </trkpt>
      <trkpt lat="44.12691" lon="1.81263">
        <ele>247.2</ele>
        <time>2023-03-05T10:38:56Z</time>
      </trkpt>
      <trkpt lat="44.12697" lon="1.81261">
        <ele>247</ele>
        <time>2023-03-05T10:38:57Z</time>
      </trkpt>
      <trkpt lat="44.127" lon="1.81261">
        <ele>247</ele>
        <time>2023-03-05T10:38:58Z</time>
      </trkpt>
      <trkpt lat="44.12703" lon="1.8126">
        <ele>247</ele>
        <time>2023-03-05T10:38:59Z</time>
      </trkpt>
      <trkpt lat="44.12715" lon="1.81256">
        <ele>247</ele>
        <time>2023-03-05T10:39:00Z</time>
      </trkpt>
      <trkpt lat="44.1272" lon="1.81252">
        <ele>246.8</ele>
        <time>2023-03-05T10:39:01Z</time>
      </trkpt>
      <trkpt lat="44.12724" lon="1.81249">
        <ele>246.8</ele>
        <time>2023-03-05T10:39:02Z</time>
      </trkpt>
      <trkpt lat="44.12728" lon="1.81247">
        <ele>246.4</ele>
        <time>2023-03-05T10:39:03Z</time>
      </trkpt>
      <trkpt lat="44.12737" lon="1.81241">
        <ele>246.2</ele>
        <time>2023-03-05T10:39:04Z</time>
      </trkpt>
      <trkpt lat="44.1274" lon="1.8124">
        <ele>246</ele>
        <time>2023-03-05T10:39:05Z</time>
      </trkpt>
      <trkpt lat="44.12744" lon="1.81239">
        <ele>246</ele>
        <time>2023-03-05T10:39:06Z</time>
      </trkpt>
      <trkpt lat="44.12751" lon="1.81237">
        <ele>245.8</ele>
        <time>2023-03-05T10:39:07Z</time>
      </trkpt>
      <trkpt lat="44.12756" lon="1.81236">
        <ele>245.8</ele>
        <time>2023-03-05T10:39:08Z</time>
      </trkpt>
      <trkpt lat="44.12761" lon="1.81235">
        <ele>245.6</ele>
        <time>2023-03-05T10:39:09Z</time>
      </trkpt>
      <trkpt lat="44.12766" lon="1.81234">
        <ele>245.6</ele>
        <time>2023-03-05T10:39:10Z</time>
      </trkpt>
      <trkpt lat="44.1277" lon="1.81232">
        <ele>245.4</ele>
        <time>2023-03-05T10:39:11Z</time>
      </trkpt>
      <trkpt lat="44.12774" lon="1.81229">
        <ele>245.4</ele>
        <time>2023-03-05T10:39:12Z</time>
      </trkpt>
      <trkpt lat="44.12778" lon="1.81226">
        <ele>245.4</ele>
        <time>2023-03-05T10:39:13Z</time>
      </trkpt>
      <trkpt lat="44.12782" lon="1.81223">
        <ele>245.2</ele>
        <time>2023-03-05T10:39:14Z</time>
      </trkpt>
      <trkpt lat="44.12785" lon="1.8122">
        <ele>245</ele>
        <time>2023-03-05T10:39:15Z</time>
      </trkpt>
      <trkpt lat="44.12788" lon="1.81217">
        <ele>245</ele>
        <time>2023-03-05T10:39:16Z</time>
      </trkpt>
      <trkpt lat="44.12791" lon="1.81215">
        <ele>245</ele>
        <time>2023-03-05T10:39:17Z</time>
      </trkpt>
      <trkpt lat="44.12794" lon="1.81212">
        <ele>244.8</ele>
        <time>2023-03-05T10:39:18Z</time>
      </trkpt>
      <trkpt lat="44.12798" lon="1.8121">
        <ele>244.8</ele>
        <time>2023-03-05T10:39:19Z</time>
      </trkpt>
      <trkpt lat="44.12803" lon="1.81207">
        <ele>244.6</ele>
        <time>2023-03-05T10:39:20Z</time>
      </trkpt>
      <trkpt lat="44.12807" lon="1.81203">
        <ele>244.4</ele>
        <time>2023-03-05T10:39:21Z</time>
      </trkpt>
      <trkpt lat="44.12811" lon="1.81197">
        <ele>244.2</ele>
        <time>2023-03-05T10:39:22Z</time>
      </trkpt>
      <trkpt lat="44.12816" lon="1.81191">
        <ele>244</ele>
        <time>2023-03-05T10:39:23Z</time>
      </trkpt>
      <trkpt lat="44.1282" lon="1.81184">
        <ele>243.8</ele>
        <time>2023-03-05T10:39:24Z</time>
      </trkpt>
      <trkpt lat="44.12824" lon="1.81176">
        <ele>243.6</ele>
        <time>2023-03-05T10:39:25Z</time>
      </trkpt>
      <trkpt lat="44.12826" lon="1.81167">
        <ele>243.6</ele>
        <time>2023-03-05T10:39:26Z</time>
      </trkpt>
      <trkpt lat="44.12828" lon="1.81159">
        <ele>243.6</ele>
        <time>2023-03-05T10:39:27Z</time>
      </trkpt>
      <trkpt lat="44.12829" lon="1.81151">
        <ele>243.2</ele>
        <time>2023-03-05T10:39:28Z</time>
      </trkpt>
      <trkpt lat="44.1283" lon="1.81143">
        <ele>243</ele>
        <time>2023-03-05T10:39:29Z</time>
      </trkpt>
      <trkpt lat="44.12832" lon="1.81127">
        <ele>242</ele>
        <time>2023-03-05T10:39:30Z</time>
      </trkpt>
      <trkpt lat="44.12832" lon="1.8112">
        <ele>241.8</ele>
        <time>2023-03-05T10:39:31Z</time>
      </trkpt>
      <trkpt lat="44.12833" lon="1.81112">
        <ele>241.2</ele>
        <time>2023-03-05T10:39:32Z</time>
      </trkpt>
      <trkpt lat="44.12834" lon="1.81098">
        <ele>241</ele>
        <time>2023-03-05T10:39:33Z</time>
      </trkpt>
      <trkpt lat="44.12836" lon="1.81089">
        <ele>240</ele>
        <time>2023-03-05T10:39:34Z</time>
      </trkpt>
      <trkpt lat="44.1284" lon="1.81081">
        <ele>239.6</ele>
        <time>2023-03-05T10:39:35Z</time>
      </trkpt>
      <trkpt lat="44.12844" lon="1.81074">
        <ele>239.4</ele>
        <time>2023-03-05T10:39:36Z</time>
      </trkpt>
      <trkpt lat="44.12849" lon="1.81067">
        <ele>239</ele>
        <time>2023-03-05T10:39:37Z</time>
      </trkpt>
      <trkpt lat="44.12853" lon="1.81061">
        <ele>238.8</ele>
        <time>2023-03-05T10:39:38Z</time>
      </trkpt>
      <trkpt lat="44.12861" lon="1.81048">
        <ele>238.2</ele>
        <time>2023-03-05T10:39:39Z</time>
      </trkpt>
      <trkpt lat="44.12867" lon="1.8104">
        <ele>238</ele>
        <time>2023-03-05T10:39:40Z</time>
      </trkpt>
      <trkpt lat="44.12872" lon="1.81034">
        <ele>237.2</ele>
        <time>2023-03-05T10:39:41Z</time>
      </trkpt>
      <trkpt lat="44.12876" lon="1.8103">
        <ele>236.6</ele>
        <time>2023-03-05T10:39:42Z</time>
      </trkpt>
      <trkpt lat="44.12879" lon="1.81026">
        <ele>235.8</ele>
        <time>2023-03-05T10:39:43Z</time>
      </trkpt>
      <trkpt lat="44.12886" lon="1.81018">
        <ele>234.6</ele>
        <time>2023-03-05T10:39:44Z</time>
      </trkpt>
      <trkpt lat="44.12892" lon="1.81014">
        <ele>234.2</ele>
        <time>2023-03-05T10:39:45Z</time>
      </trkpt>
      <trkpt lat="44.12897" lon="1.81009">
        <ele>233.6</ele>
        <time>2023-03-05T10:39:46Z</time>
      </trkpt>
      <trkpt lat="44.12901" lon="1.81003">
        <ele>233.4</ele>
        <time>2023-03-05T10:39:47Z</time>
      </trkpt>
      <trkpt lat="44.12907" lon="1.80996">
        <ele>232.4</ele>
        <time>2023-03-05T10:39:48Z</time>
      </trkpt>
      <trkpt lat="44.12912" lon="1.80987">
        <ele>231.6</ele>
        <time>2023-03-05T10:39:49Z</time>
      </trkpt>
      <trkpt lat="44.12915" lon="1.80977">
        <ele>230.6</ele>
        <time>2023-03-05T10:39:50Z</time>
      </trkpt>
      <trkpt lat="44.1292" lon="1.80968">
        <ele>230.2</ele>
        <time>2023-03-05T10:39:51Z</time>
      </trkpt>
      <trkpt lat="44.12925" lon="1.80963">
        <ele>229.4</ele>
        <time>2023-03-05T10:39:52Z</time>
      </trkpt>
      <trkpt lat="44.1293" lon="1.80957">
        <ele>229</ele>
        <time>2023-03-05T10:39:53Z</time>
      </trkpt>
      <trkpt lat="44.1294" lon="1.80946">
        <ele>227.4</ele>
        <time>2023-03-05T10:39:54Z</time>
      </trkpt>
      <trkpt lat="44.12945" lon="1.8094">
        <ele>226.2</ele>
        <time>2023-03-05T10:39:55Z</time>
      </trkpt>
      <trkpt lat="44.12951" lon="1.80933">
        <ele>225.4</ele>
        <time>2023-03-05T10:39:56Z</time>
      </trkpt>
      <trkpt lat="44.12956" lon="1.80928">
        <ele>224.2</ele>
        <time>2023-03-05T10:39:57Z</time>
      </trkpt>
      <trkpt lat="44.1296" lon="1.80923">
        <ele>223.6</ele>
        <time>2023-03-05T10:39:58Z</time>
      </trkpt>
      <trkpt lat="44.12964" lon="1.80917">
        <ele>223</ele>
        <time>2023-03-05T10:39:59Z</time>
      </trkpt>
      <trkpt lat="44.12966" lon="1.8091">
        <ele>222.6</ele>
        <time>2023-03-05T10:40:00Z</time>
      </trkpt>
      <trkpt lat="44.12968" lon="1.80904">
        <ele>222.4</ele>
        <time>2023-03-05T10:40:01Z</time>
      </trkpt>
      <trkpt lat="44.12969" lon="1.80897">
        <ele>222.2</ele>
        <time>2023-03-05T10:40:02Z</time>
      </trkpt>
      <trkpt lat="44.1297" lon="1.80891">
        <ele>221.8</ele>
        <time>2023-03-05T10:40:03Z</time>
      </trkpt>
      <trkpt lat="44.12972" lon="1.80884">
        <ele>221.4</ele>
        <time>2023-03-05T10:40:04Z</time>
      </trkpt>
      <trkpt lat="44.12974" lon="1.80878">
        <ele>221.4</ele>
        <time>2023-03-05T10:40:05Z</time>
      </trkpt>
      <trkpt lat="44.12977" lon="1.80871">
        <ele>221</ele>
        <time>2023-03-05T10:40:06Z</time>
      </trkpt>
      <trkpt lat="44.12978" lon="1.80863">
        <ele>220.8</ele>
        <time>2023-03-05T10:40:07Z</time>
      </trkpt>
      <trkpt lat="44.1298" lon="1.80854">
        <ele>220.2</ele>
        <time>2023-03-05T10:40:08Z</time>
      </trkpt>
      <trkpt lat="44.12982" lon="1.80843">
        <ele>220</ele>
        <time>2023-03-05T10:40:09Z</time>
      </trkpt>
      <trkpt lat="44.12985" lon="1.80835">
        <ele>219.4</ele>
        <time>2023-03-05T10:40:10Z</time>
      </trkpt>
      <trkpt lat="44.12988" lon="1.80824">
        <ele>219.2</ele>
        <time>2023-03-05T10:40:11Z</time>
      </trkpt>
      <trkpt lat="44.1299" lon="1.80815">
        <ele>218.8</ele>
        <time>2023-03-05T10:40:12Z</time>
      </trkpt>
      <trkpt lat="44.12992" lon="1.80808">
        <ele>218</ele>
        <time>2023-03-05T10:40:13Z</time>
      </trkpt>
      <trkpt lat="44.12992" lon="1.808">
        <ele>217.8</ele>
        <time>2023-03-05T10:40:14Z</time>
      </trkpt>
      <trkpt lat="44.1299" lon="1.8079">
        <ele>216</ele>
        <time>2023-03-05T10:40:15Z</time>
      </trkpt>
      <trkpt lat="44.12989" lon="1.8078">
        <ele>215.4</ele>
        <time>2023-03-05T10:40:16Z</time>
      </trkpt>
      <trkpt lat="44.12989" lon="1.80772">
        <ele>214.4</ele>
        <time>2023-03-05T10:40:17Z</time>
      </trkpt>
      <trkpt lat="44.12989" lon="1.80764">
        <ele>214</ele>
        <time>2023-03-05T10:40:18Z</time>
      </trkpt>
      <trkpt lat="44.12989" lon="1.80758">
        <ele>212.4</ele>
        <time>2023-03-05T10:40:19Z</time>
      </trkpt>
      <trkpt lat="44.12992" lon="1.80755">
        <ele>211.4</ele>
        <time>2023-03-05T10:40:20Z</time>
      </trkpt>
      <trkpt lat="44.12996" lon="1.80753">
        <ele>210.2</ele>
        <time>2023-03-05T10:40:21Z</time>
      </trkpt>
      <trkpt lat="44.13003" lon="1.80754">
        <ele>210</ele>
        <time>2023-03-05T10:40:22Z</time>
      </trkpt>
      <trkpt lat="44.13011" lon="1.80754">
        <ele>208</ele>
        <time>2023-03-05T10:40:23Z</time>
      </trkpt>
      <trkpt lat="44.13018" lon="1.80753">
        <ele>207</ele>
        <time>2023-03-05T10:40:24Z</time>
      </trkpt>
      <trkpt lat="44.13027" lon="1.80749">
        <ele>206.2</ele>
        <time>2023-03-05T10:40:25Z</time>
      </trkpt>
      <trkpt lat="44.13034" lon="1.80743">
        <ele>204.2</ele>
        <time>2023-03-05T10:40:26Z</time>
      </trkpt>
      <trkpt lat="44.13039" lon="1.80734">
        <ele>203.6</ele>
        <time>2023-03-05T10:40:27Z</time>
      </trkpt>
      <trkpt lat="44.13043" lon="1.80724">
        <ele>202.4</ele>
        <time>2023-03-05T10:40:28Z</time>
      </trkpt>
      <trkpt lat="44.1305" lon="1.80714">
        <ele>201.6</ele>
        <time>2023-03-05T10:40:29Z</time>
      </trkpt>
      <trkpt lat="44.13053" lon="1.80704">
        <ele>200.2</ele>
        <time>2023-03-05T10:40:30Z</time>
      </trkpt>
      <trkpt lat="44.13059" lon="1.80695">
        <ele>199.2</ele>
        <time>2023-03-05T10:40:31Z</time>
      </trkpt>
      <trkpt lat="44.13066" lon="1.80686">
        <ele>198</ele>
        <time>2023-03-05T10:40:32Z</time>
      </trkpt>
      <trkpt lat="44.13073" lon="1.80677">
        <ele>197.2</ele>
        <time>2023-03-05T10:40:33Z</time>
      </trkpt>
      <trkpt lat="44.13082" lon="1.80667">
        <ele>197</ele>
        <time>2023-03-05T10:40:34Z</time>
      </trkpt>
      <trkpt lat="44.13087" lon="1.80658">
        <ele>195.8</ele>
        <time>2023-03-05T10:40:35Z</time>
      </trkpt>
      <trkpt lat="44.13094" lon="1.80648">
        <ele>195.2</ele>
        <time>2023-03-05T10:40:36Z</time>
      </trkpt>
      <trkpt lat="44.13102" lon="1.80642">
        <ele>194.4</ele>
        <time>2023-03-05T10:40:37Z</time>
      </trkpt>
      <trkpt lat="44.13109" lon="1.80635">
        <ele>194.2</ele>
        <time>2023-03-05T10:40:38Z</time>
      </trkpt>
      <trkpt lat="44.13117" lon="1.80627">
        <ele>193.8</ele>
        <time>2023-03-05T10:40:39Z</time>
      </trkpt>
      <trkpt lat="44.13124" lon="1.8062">
        <ele>193.6</ele>
        <time>2023-03-05T10:40:40Z</time>
      </trkpt>
      <trkpt lat="44.13132" lon="1.80615">
        <ele>193</ele>
        <time>2023-03-05T10:40:41Z</time>
      </trkpt>
      <trkpt lat="44.1314" lon="1.80611">
        <ele>192.8</ele>
        <time>2023-03-05T10:40:42Z</time>
      </trkpt>
      <trkpt lat="44.13149" lon="1.80607">
        <ele>192.4</ele>
        <time>2023-03-05T10:40:43Z</time>
      </trkpt>
      <trkpt lat="44.13159" lon="1.80604">
        <ele>192.2</ele>
        <time>2023-03-05T10:40:44Z</time>
      </trkpt>
      <trkpt lat="44.1317" lon="1.80598">
        <ele>192</ele>
        <time>2023-03-05T10:40:45Z</time>
      </trkpt>
      <trkpt lat="44.13181" lon="1.8059">
        <ele>191.8</ele>
        <time>2023-03-05T10:40:46Z</time>
      </trkpt>
      <trkpt lat="44.1319" lon="1.80587">
        <ele>191.6</ele>
        <time>2023-03-05T10:40:47Z</time>
      </trkpt>
      <trkpt lat="44.13199" lon="1.80583">
        <ele>191.2</ele>
        <time>2023-03-05T10:40:48Z</time>
      </trkpt>
      <trkpt lat="44.13217" lon="1.80576">
        <ele>190.8</ele>
        <time>2023-03-05T10:40:49Z</time>
      </trkpt>
      <trkpt lat="44.13229" lon="1.80571">
        <ele>188.6</ele>
        <time>2023-03-05T10:40:50Z</time>
      </trkpt>
      <trkpt lat="44.13237" lon="1.80568">
        <ele>187.4</ele>
        <time>2023-03-05T10:40:51Z</time>
      </trkpt>
      <trkpt lat="44.13246" lon="1.80565">
        <ele>185.8</ele>
        <time>2023-03-05T10:40:52Z</time>
      </trkpt>
      <trkpt lat="44.13263" lon="1.80559">
        <ele>184.4</ele>
        <time>2023-03-05T10:40:53Z</time>
      </trkpt>
      <trkpt lat="44.13273" lon="1.80555">
        <ele>183.2</ele>
        <time>2023-03-05T10:40:54Z</time>
      </trkpt>
      <trkpt lat="44.13282" lon="1.8055">
        <ele>181.2</ele>
        <time>2023-03-05T10:40:55Z</time>
      </trkpt>
      <trkpt lat="44.13289" lon="1.80547">
        <ele>180</ele>
        <time>2023-03-05T10:40:56Z</time>
      </trkpt>
      <trkpt lat="44.13296" lon="1.80544">
        <ele>178</ele>
        <time>2023-03-05T10:40:57Z</time>
      </trkpt>
      <trkpt lat="44.13311" lon="1.80539">
        <ele>177.2</ele>
        <time>2023-03-05T10:40:58Z</time>
      </trkpt>
      <trkpt lat="44.13321" lon="1.80535">
        <ele>174.8</ele>
        <time>2023-03-05T10:40:59Z</time>
      </trkpt>
      <trkpt lat="44.13331" lon="1.80531">
        <ele>173.6</ele>
        <time>2023-03-05T10:41:00Z</time>
      </trkpt>
      <trkpt lat="44.13341" lon="1.80526">
        <ele>171.8</ele>
        <time>2023-03-05T10:41:01Z</time>
      </trkpt>
      <trkpt lat="44.1335" lon="1.80522">
        <ele>170.8</ele>
        <time>2023-03-05T10:41:02Z</time>
      </trkpt>
      <trkpt lat="44.13355" lon="1.80522">
        <ele>169.2</ele>
        <time>2023-03-05T10:41:03Z</time>
      </trkpt>
      <trkpt lat="44.1336" lon="1.80522">
        <ele>167.6</ele>
        <time>2023-03-05T10:41:04Z</time>
      </trkpt>
      <trkpt lat="44.1337" lon="1.80522">
        <ele>166.6</ele>
        <time>2023-03-05T10:41:05Z</time>
      </trkpt>
      <trkpt lat="44.13374" lon="1.80522">
        <ele>164.2</ele>
        <time>2023-03-05T10:41:06Z</time>
      </trkpt>
      <trkpt lat="44.13377" lon="1.80521">
        <ele>162.6</ele>
        <time>2023-03-05T10:41:07Z</time>
      </trkpt>
      <trkpt lat="44.13379" lon="1.80521">
        <ele>160.8</ele>
        <time>2023-03-05T10:41:08Z</time>
      </trkpt>
      <trkpt lat="44.13381" lon="1.8052">
        <ele>159.8</ele>
        <time>2023-03-05T10:41:09Z</time>
      </trkpt>
      <trkpt lat="44.13384" lon="1.8052">
        <ele>158.6</ele>
        <time>2023-03-05T10:41:10Z</time>
      </trkpt>
      <trkpt lat="44.13386" lon="1.80519">
        <ele>158</ele>
        <time>2023-03-05T10:41:11Z</time>
      </trkpt>
      <trkpt lat="44.13389" lon="1.80518">
        <ele>155.8</ele>
        <time>2023-03-05T10:41:12Z</time>
      </trkpt>
      <trkpt lat="44.13392" lon="1.80517">
        <ele>154.8</ele>
        <time>2023-03-05T10:41:13Z</time>
      </trkpt>
      <trkpt lat="44.13395" lon="1.80516">
        <ele>154.4</ele>
        <time>2023-03-05T10:41:14Z</time>
      </trkpt>
      <trkpt lat="44.13399" lon="1.80515">
        <ele>154</ele>
        <time>2023-03-05T10:41:15Z</time>
      </trkpt>
      <trkpt lat="44.13404" lon="1.80513">
        <ele>154</ele>
        <time>2023-03-05T10:41:16Z</time>
      </trkpt>
      <trkpt lat="44.13408" lon="1.80512">
        <ele>153.8</ele>
        <time>2023-03-05T10:41:17Z</time>
      </trkpt>
      <trkpt lat="44.13412" lon="1.80511">
        <ele>153.8</ele>
        <time>2023-03-05T10:41:18Z</time>
      </trkpt>
      <trkpt lat="44.13417" lon="1.8051">
        <ele>154</ele>
        <time>2023-03-05T10:41:19Z</time>
      </trkpt>
      <trkpt lat="44.13422" lon="1.80508">
        <ele>154</ele>
        <time>2023-03-05T10:41:20Z</time>
      </trkpt>
      <trkpt lat="44.13426" lon="1.80505">
        <ele>154.2</ele>
        <time>2023-03-05T10:41:21Z</time>
      </trkpt>
      <trkpt lat="44.1343" lon="1.80504">
        <ele>154.4</ele>
        <time>2023-03-05T10:41:22Z</time>
      </trkpt>
      <trkpt lat="44.13435" lon="1.80502">
        <ele>154.4</ele>
        <time>2023-03-05T10:41:23Z</time>
      </trkpt>
      <trkpt lat="44.1344" lon="1.80501">
        <ele>154.6</ele>
        <time>2023-03-05T10:41:24Z</time>
      </trkpt>
      <trkpt lat="44.13444" lon="1.80499">
        <ele>154.8</ele>
        <time>2023-03-05T10:41:25Z</time>
      </trkpt>
      <trkpt lat="44.13449" lon="1.80498">
        <ele>155</ele>
        <time>2023-03-05T10:41:26Z</time>
      </trkpt>
      <trkpt lat="44.13453" lon="1.80495">
        <ele>155</ele>
        <time>2023-03-05T10:41:27Z</time>
      </trkpt>
      <trkpt lat="44.13458" lon="1.80493">
        <ele>155.2</ele>
        <time>2023-03-05T10:41:28Z</time>
      </trkpt>
      <trkpt lat="44.13462" lon="1.80492">
        <ele>155.2</ele>
        <time>2023-03-05T10:41:29Z</time>
      </trkpt>
      <trkpt lat="44.13467" lon="1.8049">
        <ele>155.2</ele>
        <time>2023-03-05T10:41:30Z</time>
      </trkpt>
      <trkpt lat="44.13472" lon="1.80488">
        <ele>155.4</ele>
        <time>2023-03-05T10:41:31Z</time>
      </trkpt>
      <trkpt lat="44.13476" lon="1.80487">
        <ele>155.4</ele>
        <time>2023-03-05T10:41:32Z</time>
      </trkpt>
      <trkpt lat="44.13481" lon="1.80485">
        <ele>155.6</ele>
        <time>2023-03-05T10:41:33Z</time>
      </trkpt>
      <trkpt lat="44.13486" lon="1.80483">
        <ele>155.8</ele>
        <time>2023-03-05T10:41:34Z</time>
      </trkpt>
      <trkpt lat="44.1349" lon="1.80481">
        <ele>155.8</ele>
        <time>2023-03-05T10:41:35Z</time>
      </trkpt>
      <trkpt lat="44.13495" lon="1.80479">
        <ele>155.8</ele>
        <time>2023-03-05T10:41:36Z</time>
      </trkpt>
      <trkpt lat="44.135" lon="1.80478">
        <ele>156</ele>
        <time>2023-03-05T10:41:37Z</time>
      </trkpt>
      <trkpt lat="44.13504" lon="1.80476">
        <ele>156.2</ele>
        <time>2023-03-05T10:41:38Z</time>
      </trkpt>
      <trkpt lat="44.13508" lon="1.80473">
        <ele>156.2</ele>
        <time>2023-03-05T10:41:39Z</time>
      </trkpt>
      <trkpt lat="44.13512" lon="1.80471">
        <ele>156.4</ele>
        <time>2023-03-05T10:41:40Z</time>
      </trkpt>
      <trkpt lat="44.13516" lon="1.80468">
        <ele>156.4</ele>
        <time>2023-03-05T10:41:41Z</time>
      </trkpt>
      <trkpt lat="44.13519" lon="1.80465">
        <ele>156.4</ele>
        <time>2023-03-05T10:41:42Z</time>
      </trkpt>
      <trkpt lat="44.13522" lon="1.80462">
        <ele>156.4</ele>
        <time>2023-03-05T10:41:43Z</time>
      </trkpt>
      <trkpt lat="44.13526" lon="1.80459">
        <ele>156.6</ele>
        <time>2023-03-05T10:41:44Z</time>
      </trkpt>
      <trkpt lat="44.13529" lon="1.80457">
        <ele>156.6</ele>
        <time>2023-03-05T10:41:45Z</time>
      </trkpt>
      <trkpt lat="44.13532" lon="1.80455">
        <ele>156.8</ele>
        <time>2023-03-05T10:41:46Z</time>
      </trkpt>
      <trkpt lat="44.13536" lon="1.80454">
        <ele>157</ele>
        <time>2023-03-05T10:41:47Z</time>
      </trkpt>
      <trkpt lat="44.13539" lon="1.80453">
        <ele>157.2</ele>
        <time>2023-03-05T10:41:48Z</time>
      </trkpt>
      <trkpt lat="44.13543" lon="1.80452">
        <ele>157.4</ele>
        <time>2023-03-05T10:41:49Z</time>
      </trkpt>
      <trkpt lat="44.13547" lon="1.80451">
        <ele>157.8</ele>
        <time>2023-03-05T10:41:50Z</time>
      </trkpt>
      <trkpt lat="44.13551" lon="1.8045">
        <ele>158</ele>
        <time>2023-03-05T10:41:51Z</time>
      </trkpt>
      <trkpt lat="44.13555" lon="1.80449">
        <ele>158.4</ele>
        <time>2023-03-05T10:41:52Z</time>
      </trkpt>
      <trkpt lat="44.1356" lon="1.80449">
        <ele>159.2</ele>
        <time>2023-03-05T10:41:53Z</time>
      </trkpt>
      <trkpt lat="44.13564" lon="1.80448">
        <ele>159.4</ele>
        <time>2023-03-05T10:41:54Z</time>
      </trkpt>
      <trkpt lat="44.13568" lon="1.80447">
        <ele>159.6</ele>
        <time>2023-03-05T10:41:55Z</time>
      </trkpt>
      <trkpt lat="44.13573" lon="1.80446">
        <ele>159.8</ele>
        <time>2023-03-05T10:41:56Z</time>
      </trkpt>
      <trkpt lat="44.13577" lon="1.80445">
        <ele>159.8</ele>
        <time>2023-03-05T10:41:57Z</time>
      </trkpt>
      <trkpt lat="44.13582" lon="1.80444">
        <ele>160</ele>
        <time>2023-03-05T10:41:58Z</time>
      </trkpt>
      <trkpt lat="44.13586" lon="1.80443">
        <ele>160</ele>
        <time>2023-03-05T10:41:59Z</time>
      </trkpt>
      <trkpt lat="44.13591" lon="1.80442">
        <ele>160</ele>
        <time>2023-03-05T10:42:00Z</time>
      </trkpt>
      <trkpt lat="44.13595" lon="1.8044">
        <ele>160.2</ele>
        <time>2023-03-05T10:42:01Z</time>
      </trkpt>
      <trkpt lat="44.13599" lon="1.80439">
        <ele>160.2</ele>
        <time>2023-03-05T10:42:02Z</time>
      </trkpt>
      <trkpt lat="44.13604" lon="1.80436">
        <ele>160.4</ele>
        <time>2023-03-05T10:42:03Z</time>
      </trkpt>
      <trkpt lat="44.13608" lon="1.80434">
        <ele>160.6</ele>
        <time>2023-03-05T10:42:04Z</time>
      </trkpt>
      <trkpt lat="44.13613" lon="1.80432">
        <ele>160.6</ele>
        <time>2023-03-05T10:42:05Z</time>
      </trkpt>
      <trkpt lat="44.13617" lon="1.80429">
        <ele>160.8</ele>
        <time>2023-03-05T10:42:06Z</time>
      </trkpt>
      <trkpt lat="44.13622" lon="1.80426">
        <ele>161</ele>
        <time>2023-03-05T10:42:07Z</time>
      </trkpt>
      <trkpt lat="44.13626" lon="1.80424">
        <ele>161.2</ele>
        <time>2023-03-05T10:42:08Z</time>
      </trkpt>
      <trkpt lat="44.13631" lon="1.80421">
        <ele>161.2</ele>
        <time>2023-03-05T10:42:09Z</time>
      </trkpt>
      <trkpt lat="44.13635" lon="1.80418">
        <ele>161.6</ele>
        <time>2023-03-05T10:42:10Z</time>
      </trkpt>
      <trkpt lat="44.1364" lon="1.80416">
        <ele>161.6</ele>
        <time>2023-03-05T10:42:11Z</time>
      </trkpt>
      <trkpt lat="44.13644" lon="1.80413">
        <ele>162</ele>
        <time>2023-03-05T10:42:12Z</time>
      </trkpt>
      <trkpt lat="44.13649" lon="1.80411">
        <ele>162</ele>
        <time>2023-03-05T10:42:13Z</time>
      </trkpt>
      <trkpt lat="44.13654" lon="1.80409">
        <ele>162</ele>
        <time>2023-03-05T10:42:14Z</time>
      </trkpt>
      <trkpt lat="44.13659" lon="1.80408">
        <ele>162.2</ele>
        <time>2023-03-05T10:42:15Z</time>
      </trkpt>
      <trkpt lat="44.13664" lon="1.80407">
        <ele>162.2</ele>
        <time>2023-03-05T10:42:16Z</time>
      </trkpt>
      <trkpt lat="44.13669" lon="1.80407">
        <ele>162.6</ele>
        <time>2023-03-05T10:42:17Z</time>
      </trkpt>
      <trkpt lat="44.13674" lon="1.80408">
        <ele>162.6</ele>
        <time>2023-03-05T10:42:18Z</time>
      </trkpt>
      <trkpt lat="44.13679" lon="1.80408">
        <ele>162.8</ele>
        <time>2023-03-05T10:42:19Z</time>
      </trkpt>
      <trkpt lat="44.13684" lon="1.8041">
        <ele>162.8</ele>
        <time>2023-03-05T10:42:20Z</time>
      </trkpt>
      <trkpt lat="44.13689" lon="1.80411">
        <ele>163</ele>
        <time>2023-03-05T10:42:21Z</time>
      </trkpt>
      <trkpt lat="44.13695" lon="1.80413">
        <ele>163</ele>
        <time>2023-03-05T10:42:22Z</time>
      </trkpt>
      <trkpt lat="44.13701" lon="1.80414">
        <ele>163.4</ele>
        <time>2023-03-05T10:42:23Z</time>
      </trkpt>
      <trkpt lat="44.13706" lon="1.80416">
        <ele>163.4</ele>
        <time>2023-03-05T10:42:24Z</time>
      </trkpt>
      <trkpt lat="44.13712" lon="1.80417">
        <ele>163.4</ele>
        <time>2023-03-05T10:42:25Z</time>
      </trkpt>
      <trkpt lat="44.13718" lon="1.80419">
        <ele>163.4</ele>
        <time>2023-03-05T10:42:26Z</time>
      </trkpt>
      <trkpt lat="44.13724" lon="1.80421">
        <ele>163.4</ele>
        <time>2023-03-05T10:42:27Z</time>
      </trkpt>
      <trkpt lat="44.1373" lon="1.80423">
        <ele>163.4</ele>
        <time>2023-03-05T10:42:28Z</time>
      </trkpt>
      <trkpt lat="44.13736" lon="1.80425">
        <ele>163.4</ele>
        <time>2023-03-05T10:42:29Z</time>
      </trkpt>
      <trkpt lat="44.13742" lon="1.80427">
        <ele>163.2</ele>
        <time>2023-03-05T10:42:30Z</time>
      </trkpt>
      <trkpt lat="44.13748" lon="1.80429">
        <ele>163.2</ele>
        <time>2023-03-05T10:42:31Z</time>
      </trkpt>
      <trkpt lat="44.13754" lon="1.80431">
        <ele>163</ele>
        <time>2023-03-05T10:42:32Z</time>
      </trkpt>
      <trkpt lat="44.1376" lon="1.80433">
        <ele>163</ele>
        <time>2023-03-05T10:42:33Z</time>
      </trkpt>
      <trkpt lat="44.13766" lon="1.80434">
        <ele>162.8</ele>
        <time>2023-03-05T10:42:34Z</time>
      </trkpt>
      <trkpt lat="44.13772" lon="1.80436">
        <ele>162.6</ele>
        <time>2023-03-05T10:42:35Z</time>
      </trkpt>
      <trkpt lat="44.13779" lon="1.80438">
        <ele>162.6</ele>
        <time>2023-03-05T10:42:36Z</time>
      </trkpt>
      <trkpt lat="44.13785" lon="1.8044">
        <ele>162.6</ele>
        <time>2023-03-05T10:42:37Z</time>
      </trkpt>
      <trkpt lat="44.13791" lon="1.80442">
        <ele>162.4</ele>
        <time>2023-03-05T10:42:38Z</time>
      </trkpt>
      <trkpt lat="44.13798" lon="1.80444">
        <ele>162.2</ele>
        <time>2023-03-05T10:42:39Z</time>
      </trkpt>
      <trkpt lat="44.13804" lon="1.80446">
        <ele>162</ele>
        <time>2023-03-05T10:42:40Z</time>
      </trkpt>
      <trkpt lat="44.13811" lon="1.80448">
        <ele>161.8</ele>
        <time>2023-03-05T10:42:41Z</time>
      </trkpt>
      <trkpt lat="44.13817" lon="1.8045">
        <ele>161.8</ele>
        <time>2023-03-05T10:42:42Z</time>
      </trkpt>
      <trkpt lat="44.13823" lon="1.80451">
        <ele>161.4</ele>
        <time>2023-03-05T10:42:43Z</time>
      </trkpt>
      <trkpt lat="44.13827" lon="1.8045">
        <ele>161</ele>
        <time>2023-03-05T10:42:44Z</time>
      </trkpt>
      <trkpt lat="44.1383" lon="1.80446">
        <ele>161</ele>
        <time>2023-03-05T10:42:45Z</time>
      </trkpt>
      <trkpt lat="44.13831" lon="1.80442">
        <ele>160.8</ele>
        <time>2023-03-05T10:42:46Z</time>
      </trkpt>
      <trkpt lat="44.13831" lon="1.80437">
        <ele>160.6</ele>
        <time>2023-03-05T10:42:47Z</time>
      </trkpt>
      <trkpt lat="44.1383" lon="1.80433">
        <ele>160.4</ele>
        <time>2023-03-05T10:42:48Z</time>
      </trkpt>
      <trkpt lat="44.13829" lon="1.80428">
        <ele>160.4</ele>
        <time>2023-03-05T10:42:49Z</time>
      </trkpt>
      <trkpt lat="44.13828" lon="1.80424">
        <ele>160.2</ele>
        <time>2023-03-05T10:42:50Z</time>
      </trkpt>
      <trkpt lat="44.13827" lon="1.80419">
        <ele>160.2</ele>
        <time>2023-03-05T10:42:51Z</time>
      </trkpt>
      <trkpt lat="44.13826" lon="1.80414">
        <ele>160.2</ele>
        <time>2023-03-05T10:42:52Z</time>
      </trkpt>
      <trkpt lat="44.13825" lon="1.80409">
        <ele>160</ele>
        <time>2023-03-05T10:42:53Z</time>
      </trkpt>
      <trkpt lat="44.13824" lon="1.80404">
        <ele>160</ele>
        <time>2023-03-05T10:42:54Z</time>
      </trkpt>
      <trkpt lat="44.13823" lon="1.80398">
        <ele>160</ele>
        <time>2023-03-05T10:42:55Z</time>
      </trkpt>
      <trkpt lat="44.13822" lon="1.80393">
        <ele>160</ele>
        <time>2023-03-05T10:42:56Z</time>
      </trkpt>
      <trkpt lat="44.13821" lon="1.80387">
        <ele>160.2</ele>
        <time>2023-03-05T10:42:57Z</time>
      </trkpt>
      <trkpt lat="44.13821" lon="1.80382">
        <ele>160.4</ele>
        <time>2023-03-05T10:42:58Z</time>
      </trkpt>
      <trkpt lat="44.1382" lon="1.80377">
        <ele>160.8</ele>
        <time>2023-03-05T10:42:59Z</time>
      </trkpt>
      <trkpt lat="44.1382" lon="1.80372">
        <ele>161</ele>
        <time>2023-03-05T10:43:00Z</time>
      </trkpt>
      <trkpt lat="44.13819" lon="1.80367">
        <ele>161.2</ele>
        <time>2023-03-05T10:43:01Z</time>
      </trkpt>
      <trkpt lat="44.13818" lon="1.80362">
        <ele>161.4</ele>
        <time>2023-03-05T10:43:02Z</time>
      </trkpt>
      <trkpt lat="44.13817" lon="1.80357">
        <ele>162</ele>
        <time>2023-03-05T10:43:03Z</time>
      </trkpt>
      <trkpt lat="44.13817" lon="1.80352">
        <ele>162.2</ele>
        <time>2023-03-05T10:43:04Z</time>
      </trkpt>
      <trkpt lat="44.13816" lon="1.80347">
        <ele>162.6</ele>
        <time>2023-03-05T10:43:05Z</time>
      </trkpt>
      <trkpt lat="44.13815" lon="1.80342">
        <ele>163</ele>
        <time>2023-03-05T10:43:06Z</time>
      </trkpt>
      <trkpt lat="44.13815" lon="1.80337">
        <ele>163.2</ele>
        <time>2023-03-05T10:43:07Z</time>
      </trkpt>
      <trkpt lat="44.13814" lon="1.80332">
        <ele>163.6</ele>
        <time>2023-03-05T10:43:08Z</time>
      </trkpt>
      <trkpt lat="44.13813" lon="1.80327">
        <ele>163.8</ele>
        <time>2023-03-05T10:43:09Z</time>
      </trkpt>
      <trkpt lat="44.13813" lon="1.80323">
        <ele>164.2</ele>
        <time>2023-03-05T10:43:10Z</time>
      </trkpt>
      <trkpt lat="44.13812" lon="1.80319">
        <ele>164.4</ele>
        <time>2023-03-05T10:43:11Z</time>
      </trkpt>
      <trkpt lat="44.13811" lon="1.80314">
        <ele>165</ele>
        <time>2023-03-05T10:43:12Z</time>
      </trkpt>
      <trkpt lat="44.1381" lon="1.80309">
        <ele>165.2</ele>
        <time>2023-03-05T10:43:13Z</time>
      </trkpt>
      <trkpt lat="44.1381" lon="1.80305">
        <ele>165.6</ele>
        <time>2023-03-05T10:43:14Z</time>
      </trkpt>
      <trkpt lat="44.1381" lon="1.80301">
        <ele>166</ele>
        <time>2023-03-05T10:43:15Z</time>
      </trkpt>
      <trkpt lat="44.1381" lon="1.80296">
        <ele>166.2</ele>
        <time>2023-03-05T10:43:16Z</time>
      </trkpt>
      <trkpt lat="44.13811" lon="1.80292">
        <ele>166.6</ele>
        <time>2023-03-05T10:43:17Z</time>
      </trkpt>
      <trkpt lat="44.13812" lon="1.80289">
        <ele>167</ele>
        <time>2023-03-05T10:43:18Z</time>
      </trkpt>
      <trkpt lat="44.13814" lon="1.80288">
        <ele>167.4</ele>
        <time>2023-03-05T10:43:19Z</time>
      </trkpt>
      <trkpt lat="44.13816" lon="1.80286">
        <ele>167.6</ele>
        <time>2023-03-05T10:43:20Z</time>
      </trkpt>
      <trkpt lat="44.13818" lon="1.80285">
        <ele>167.8</ele>
        <time>2023-03-05T10:43:21Z</time>
      </trkpt>
      <trkpt lat="44.13821" lon="1.80284">
        <ele>168</ele>
        <time>2023-03-05T10:43:22Z</time>
      </trkpt>
      <trkpt lat="44.13823" lon="1.80283">
        <ele>168.4</ele>
        <time>2023-03-05T10:43:23Z</time>
      </trkpt>
      <trkpt lat="44.13825" lon="1.80281">
        <ele>168.8</ele>
        <time>2023-03-05T10:43:24Z</time>
      </trkpt>
      <trkpt lat="44.13828" lon="1.8028">
        <ele>169.6</ele>
        <time>2023-03-05T10:43:25Z</time>
      </trkpt>
      <trkpt lat="44.1383" lon="1.80278">
        <ele>170</ele>
        <time>2023-03-05T10:43:26Z</time>
      </trkpt>
      <trkpt lat="44.13833" lon="1.80277">
        <ele>170.2</ele>
        <time>2023-03-05T10:43:27Z</time>
      </trkpt>
      <trkpt lat="44.13836" lon="1.80275">
        <ele>171</ele>
        <time>2023-03-05T10:43:28Z</time>
      </trkpt>
      <trkpt lat="44.13839" lon="1.80272">
        <ele>171.2</ele>
        <time>2023-03-05T10:43:29Z</time>
      </trkpt>
      <trkpt lat="44.13842" lon="1.8027">
        <ele>171.8</ele>
        <time>2023-03-05T10:43:30Z</time>
      </trkpt>
      <trkpt lat="44.13845" lon="1.80267">
        <ele>172.2</ele>
        <time>2023-03-05T10:43:31Z</time>
      </trkpt>
      <trkpt lat="44.13847" lon="1.80264">
        <ele>173</ele>
        <time>2023-03-05T10:43:32Z</time>
      </trkpt>
      <trkpt lat="44.1385" lon="1.80261">
        <ele>173.4</ele>
        <time>2023-03-05T10:43:33Z</time>
      </trkpt>
      <trkpt lat="44.13853" lon="1.80258">
        <ele>174</ele>
        <time>2023-03-05T10:43:34Z</time>
      </trkpt>
      <trkpt lat="44.13857" lon="1.80255">
        <ele>174.2</ele>
        <time>2023-03-05T10:43:35Z</time>
      </trkpt>
      <trkpt lat="44.1386" lon="1.80251">
        <ele>175.2</ele>
        <time>2023-03-05T10:43:36Z</time>
      </trkpt>
      <trkpt lat="44.13864" lon="1.80247">
        <ele>175.8</ele>
        <time>2023-03-05T10:43:37Z</time>
      </trkpt>
      <trkpt lat="44.13867" lon="1.80244">
        <ele>176</ele>
        <time>2023-03-05T10:43:38Z</time>
      </trkpt>
      <trkpt lat="44.13871" lon="1.80241">
        <ele>176.8</ele>
        <time>2023-03-05T10:43:39Z</time>
      </trkpt>
      <trkpt lat="44.13875" lon="1.80238">
        <ele>177.4</ele>
        <time>2023-03-05T10:43:40Z</time>
      </trkpt>
      <trkpt lat="44.13878" lon="1.80235">
        <ele>178.4</ele>
        <time>2023-03-05T10:43:41Z</time>
      </trkpt>
      <trkpt lat="44.13882" lon="1.80232">
        <ele>178.6</ele>
        <time>2023-03-05T10:43:42Z</time>
      </trkpt>
      <trkpt lat="44.13886" lon="1.8023">
        <ele>179.2</ele>
        <time>2023-03-05T10:43:43Z</time>
      </trkpt>
      <trkpt lat="44.13889" lon="1.80227">
        <ele>179.4</ele>
        <time>2023-03-05T10:43:44Z</time>
      </trkpt>
      <trkpt lat="44.13893" lon="1.80224">
        <ele>180.2</ele>
        <time>2023-03-05T10:43:45Z</time>
      </trkpt>
      <trkpt lat="44.13897" lon="1.8022">
        <ele>181</ele>
        <time>2023-03-05T10:43:46Z</time>
      </trkpt>
      <trkpt lat="44.139" lon="1.80217">
        <ele>181.4</ele>
        <time>2023-03-05T10:43:47Z</time>
      </trkpt>
      <trkpt lat="44.13904" lon="1.80213">
        <ele>182</ele>
        <time>2023-03-05T10:43:48Z</time>
      </trkpt>
      <trkpt lat="44.13907" lon="1.8021">
        <ele>182.4</ele>
        <time>2023-03-05T10:43:49Z</time>
      </trkpt>
      <trkpt lat="44.1391" lon="1.80205">
        <ele>182.6</ele>
        <time>2023-03-05T10:43:50Z</time>
      </trkpt>
      <trkpt lat="44.13913" lon="1.802">
        <ele>183</ele>
        <time>2023-03-05T10:43:51Z</time>
      </trkpt>
      <trkpt lat="44.13916" lon="1.80194">
        <ele>183.8</ele>
        <time>2023-03-05T10:43:52Z</time>
      </trkpt>
      <trkpt lat="44.1392" lon="1.80188">
        <ele>184</ele>
        <time>2023-03-05T10:43:53Z</time>
      </trkpt>
      <trkpt lat="44.13925" lon="1.80182">
        <ele>184.4</ele>
        <time>2023-03-05T10:43:54Z</time>
      </trkpt>
      <trkpt lat="44.13931" lon="1.80174">
        <ele>184.4</ele>
        <time>2023-03-05T10:43:55Z</time>
      </trkpt>
      <trkpt lat="44.13936" lon="1.80165">
        <ele>184.4</ele>
        <time>2023-03-05T10:43:56Z</time>
      </trkpt>
      <trkpt lat="44.13941" lon="1.80156">
        <ele>184.4</ele>
        <time>2023-03-05T10:43:57Z</time>
      </trkpt>
      <trkpt lat="44.13945" lon="1.80148">
        <ele>184.4</ele>
        <time>2023-03-05T10:43:58Z</time>
      </trkpt>
      <trkpt lat="44.13948" lon="1.8014">
        <ele>184.4</ele>
        <time>2023-03-05T10:43:59Z</time>
      </trkpt>
      <trkpt lat="44.13949" lon="1.80132">
        <ele>184.4</ele>
        <time>2023-03-05T10:44:00Z</time>
      </trkpt>
      <trkpt lat="44.13948" lon="1.80125">
        <ele>184</ele>
        <time>2023-03-05T10:44:01Z</time>
      </trkpt>
      <trkpt lat="44.13945" lon="1.80119">
        <ele>183.8</ele>
        <time>2023-03-05T10:44:02Z</time>
      </trkpt>
      <trkpt lat="44.13941" lon="1.80116">
        <ele>183.2</ele>
        <time>2023-03-05T10:44:03Z</time>
      </trkpt>
      <trkpt lat="44.13937" lon="1.80114">
        <ele>183.2</ele>
        <time>2023-03-05T10:44:04Z</time>
      </trkpt>
      <trkpt lat="44.13933" lon="1.80113">
        <ele>182.8</ele>
        <time>2023-03-05T10:44:05Z</time>
      </trkpt>
      <trkpt lat="44.13929" lon="1.80111">
        <ele>182.8</ele>
        <time>2023-03-05T10:44:06Z</time>
      </trkpt>
      <trkpt lat="44.13925" lon="1.80108">
        <ele>182.6</ele>
        <time>2023-03-05T10:44:07Z</time>
      </trkpt>
      <trkpt lat="44.13921" lon="1.80106">
        <ele>182.8</ele>
        <time>2023-03-05T10:44:08Z</time>
      </trkpt>
      <trkpt lat="44.13918" lon="1.80103">
        <ele>182.8</ele>
        <time>2023-03-05T10:44:09Z</time>
      </trkpt>
      <trkpt lat="44.13914" lon="1.80101">
        <ele>182.8</ele>
        <time>2023-03-05T10:44:10Z</time>
      </trkpt>
      <trkpt lat="44.13911" lon="1.80099">
        <ele>183</ele>
        <time>2023-03-05T10:44:11Z</time>
      </trkpt>
      <trkpt lat="44.13907" lon="1.80097">
        <ele>183.6</ele>
        <time>2023-03-05T10:44:12Z</time>
      </trkpt>
      <trkpt lat="44.13904" lon="1.80096">
        <ele>183.8</ele>
        <time>2023-03-05T10:44:13Z</time>
      </trkpt>
      <trkpt lat="44.139" lon="1.80094">
        <ele>184.6</ele>
        <time>2023-03-05T10:44:14Z</time>
      </trkpt>
      <trkpt lat="44.13897" lon="1.80092">
        <ele>185.2</ele>
        <time>2023-03-05T10:44:15Z</time>
      </trkpt>
      <trkpt lat="44.13894" lon="1.80091">
        <ele>185.8</ele>
        <time>2023-03-05T10:44:16Z</time>
      </trkpt>
      <trkpt lat="44.1389" lon="1.80089">
        <ele>186.4</ele>
        <time>2023-03-05T10:44:17Z</time>
      </trkpt>
      <trkpt lat="44.13887" lon="1.80087">
        <ele>186.8</ele>
        <time>2023-03-05T10:44:18Z</time>
      </trkpt>
      <trkpt lat="44.13883" lon="1.80085">
        <ele>187.8</ele>
        <time>2023-03-05T10:44:19Z</time>
      </trkpt>
      <trkpt lat="44.1388" lon="1.80083">
        <ele>188</ele>
        <time>2023-03-05T10:44:20Z</time>
      </trkpt>
      <trkpt lat="44.13877" lon="1.80082">
        <ele>189</ele>
        <time>2023-03-05T10:44:21Z</time>
      </trkpt>
      <trkpt lat="44.13873" lon="1.80081">
        <ele>189.4</ele>
        <time>2023-03-05T10:44:22Z</time>
      </trkpt>
      <trkpt lat="44.1387" lon="1.80079">
        <ele>190.4</ele>
        <time>2023-03-05T10:44:23Z</time>
      </trkpt>
      <trkpt lat="44.13866" lon="1.80078">
        <ele>190.8</ele>
        <time>2023-03-05T10:44:24Z</time>
      </trkpt>
      <trkpt lat="44.13863" lon="1.80076">
        <ele>191.4</ele>
        <time>2023-03-05T10:44:25Z</time>
      </trkpt>
      <trkpt lat="44.13859" lon="1.80074">
        <ele>191.8</ele>
        <time>2023-03-05T10:44:26Z</time>
      </trkpt>
      <trkpt lat="44.13856" lon="1.80072">
        <ele>192.8</ele>
        <time>2023-03-05T10:44:27Z</time>
      </trkpt>
      <trkpt lat="44.13853" lon="1.8007">
        <ele>193.8</ele>
        <time>2023-03-05T10:44:28Z</time>
      </trkpt>
      <trkpt lat="44.13849" lon="1.80069">
        <ele>194.2</ele>
        <time>2023-03-05T10:44:29Z</time>
      </trkpt>
      <trkpt lat="44.13846" lon="1.80067">
        <ele>194.8</ele>
        <time>2023-03-05T10:44:30Z</time>
      </trkpt>
      <trkpt lat="44.13843" lon="1.80066">
        <ele>195</ele>
        <time>2023-03-05T10:44:31Z</time>
      </trkpt>
      <trkpt lat="44.1384" lon="1.80064">
        <ele>195.4</ele>
        <time>2023-03-05T10:44:32Z</time>
      </trkpt>
      <trkpt lat="44.13836" lon="1.80062">
        <ele>195.8</ele>
        <time>2023-03-05T10:44:33Z</time>
      </trkpt>
      <trkpt lat="44.13833" lon="1.80061">
        <ele>196.2</ele>
        <time>2023-03-05T10:44:34Z</time>
      </trkpt>
      <trkpt lat="44.1383" lon="1.80059">
        <ele>196.6</ele>
        <time>2023-03-05T10:44:35Z</time>
      </trkpt>
      <trkpt lat="44.13826" lon="1.80057">
        <ele>197.2</ele>
        <time>2023-03-05T10:44:36Z</time>
      </trkpt>
      <trkpt lat="44.13823" lon="1.80055">
        <ele>197.8</ele>
        <time>2023-03-05T10:44:37Z</time>
      </trkpt>
      <trkpt lat="44.13819" lon="1.80054">
        <ele>197.8</ele>
        <time>2023-03-05T10:44:38Z</time>
      </trkpt>
      <trkpt lat="44.13815" lon="1.80052">
        <ele>198.2</ele>
        <time>2023-03-05T10:44:39Z</time>
      </trkpt>
      <trkpt lat="44.13811" lon="1.80051">
        <ele>198.4</ele>
        <time>2023-03-05T10:44:40Z</time>
      </trkpt>
      <trkpt lat="44.13807" lon="1.80049">
        <ele>198.8</ele>
        <time>2023-03-05T10:44:41Z</time>
      </trkpt>
      <trkpt lat="44.13804" lon="1.80048">
        <ele>199</ele>
        <time>2023-03-05T10:44:42Z</time>
      </trkpt>
      <trkpt lat="44.13801" lon="1.80046">
        <ele>199.4</ele>
        <time>2023-03-05T10:44:43Z</time>
      </trkpt>
      <trkpt lat="44.13797" lon="1.80044">
        <ele>199.6</ele>
        <time>2023-03-05T10:44:44Z</time>
      </trkpt>
      <trkpt lat="44.13794" lon="1.80043">
        <ele>200</ele>
        <time>2023-03-05T10:44:45Z</time>
      </trkpt>
      <trkpt lat="44.13791" lon="1.80041">
        <ele>200.2</ele>
        <time>2023-03-05T10:44:46Z</time>
      </trkpt>
      <trkpt lat="44.13788" lon="1.8004">
        <ele>200.6</ele>
        <time>2023-03-05T10:44:47Z</time>
      </trkpt>
      <trkpt lat="44.13784" lon="1.80038">
        <ele>201</ele>
        <time>2023-03-05T10:44:48Z</time>
      </trkpt>
      <trkpt lat="44.13781" lon="1.80037">
        <ele>201</ele>
        <time>2023-03-05T10:44:49Z</time>
      </trkpt>
      <trkpt lat="44.13778" lon="1.80035">
        <ele>201.2</ele>
        <time>2023-03-05T10:44:50Z</time>
      </trkpt>
      <trkpt lat="44.13774" lon="1.80034">
        <ele>201.4</ele>
        <time>2023-03-05T10:44:51Z</time>
      </trkpt>
      <trkpt lat="44.13771" lon="1.80032">
        <ele>202</ele>
        <time>2023-03-05T10:44:52Z</time>
      </trkpt>
      <trkpt lat="44.13767" lon="1.8003">
        <ele>202.2</ele>
        <time>2023-03-05T10:44:53Z</time>
      </trkpt>
      <trkpt lat="44.13764" lon="1.80029">
        <ele>202.8</ele>
        <time>2023-03-05T10:44:54Z</time>
      </trkpt>
      <trkpt lat="44.13761" lon="1.80028">
        <ele>203</ele>
        <time>2023-03-05T10:44:55Z</time>
      </trkpt>
      <trkpt lat="44.13757" lon="1.80026">
        <ele>203.8</ele>
        <time>2023-03-05T10:44:56Z</time>
      </trkpt>
      <trkpt lat="44.13754" lon="1.80026">
        <ele>204.2</ele>
        <time>2023-03-05T10:44:57Z</time>
      </trkpt>
      <trkpt lat="44.1375" lon="1.80026">
        <ele>204.4</ele>
        <time>2023-03-05T10:44:58Z</time>
      </trkpt>
      <trkpt lat="44.13747" lon="1.80027">
        <ele>205</ele>
        <time>2023-03-05T10:44:59Z</time>
      </trkpt>
      <trkpt lat="44.13744" lon="1.8003">
        <ele>205.4</ele>
        <time>2023-03-05T10:45:00Z</time>
      </trkpt>
      <trkpt lat="44.13742" lon="1.80033">
        <ele>206.4</ele>
        <time>2023-03-05T10:45:01Z</time>
      </trkpt>
      <trkpt lat="44.13739" lon="1.80036">
        <ele>207</ele>
        <time>2023-03-05T10:45:02Z</time>
      </trkpt>
      <trkpt lat="44.13736" lon="1.80039">
        <ele>207.8</ele>
        <time>2023-03-05T10:45:03Z</time>
      </trkpt>
      <trkpt lat="44.13732" lon="1.80041">
        <ele>208.2</ele>
        <time>2023-03-05T10:45:04Z</time>
      </trkpt>
      <trkpt lat="44.13729" lon="1.80043">
        <ele>208.8</ele>
        <time>2023-03-05T10:45:05Z</time>
      </trkpt>
      <trkpt lat="44.13724" lon="1.80043">
        <ele>209.2</ele>
        <time>2023-03-05T10:45:06Z</time>
      </trkpt>
      <trkpt lat="44.13721" lon="1.80043">
        <ele>209.6</ele>
        <time>2023-03-05T10:45:07Z</time>
      </trkpt>
      <trkpt lat="44.13717" lon="1.80042">
        <ele>210.4</ele>
        <time>2023-03-05T10:45:08Z</time>
      </trkpt>
      <trkpt lat="44.13714" lon="1.8004">
        <ele>210.6</ele>
        <time>2023-03-05T10:45:09Z</time>
      </trkpt>
      <trkpt lat="44.13711" lon="1.80038">
        <ele>210.8</ele>
        <time>2023-03-05T10:45:10Z</time>
      </trkpt>
      <trkpt lat="44.13708" lon="1.80036">
        <ele>211</ele>
        <time>2023-03-05T10:45:11Z</time>
      </trkpt>
      <trkpt lat="44.13706" lon="1.80033">
        <ele>211.4</ele>
        <time>2023-03-05T10:45:12Z</time>
      </trkpt>
      <trkpt lat="44.13703" lon="1.8003">
        <ele>211.6</ele>
        <time>2023-03-05T10:45:13Z</time>
      </trkpt>
      <trkpt lat="44.137" lon="1.80027">
        <ele>212</ele>
        <time>2023-03-05T10:45:14Z</time>
      </trkpt>
      <trkpt lat="44.13697" lon="1.80025">
        <ele>212.2</ele>
        <time>2023-03-05T10:45:15Z</time>
      </trkpt>
      <trkpt lat="44.13695" lon="1.80022">
        <ele>213</ele>
        <time>2023-03-05T10:45:16Z</time>
      </trkpt>
      <trkpt lat="44.13692" lon="1.8002">
        <ele>213.2</ele>
        <time>2023-03-05T10:45:17Z</time>
      </trkpt>
      <trkpt lat="44.1369" lon="1.80018">
        <ele>214</ele>
        <time>2023-03-05T10:45:18Z</time>
      </trkpt>
      <trkpt lat="44.13687" lon="1.80015">
        <ele>215</ele>
        <time>2023-03-05T10:45:19Z</time>
      </trkpt>
      <trkpt lat="44.13684" lon="1.80014">
        <ele>215.4</ele>
        <time>2023-03-05T10:45:20Z</time>
      </trkpt>
      <trkpt lat="44.13681" lon="1.80012">
        <ele>216</ele>
        <time>2023-03-05T10:45:21Z</time>
      </trkpt>
      <trkpt lat="44.13678" lon="1.8001">
        <ele>216.4</ele>
        <time>2023-03-05T10:45:22Z</time>
      </trkpt>
      <trkpt lat="44.13674" lon="1.80007">
        <ele>217</ele>
        <time>2023-03-05T10:45:23Z</time>
      </trkpt>
      <trkpt lat="44.13671" lon="1.80005">
        <ele>217.4</ele>
        <time>2023-03-05T10:45:24Z</time>
      </trkpt>
      <trkpt lat="44.13668" lon="1.80004">
        <ele>217.8</ele>
        <time>2023-03-05T10:45:25Z</time>
      </trkpt>
      <trkpt lat="44.13665" lon="1.80001">
        <ele>218</ele>
        <time>2023-03-05T10:45:26Z</time>
      </trkpt>
      <trkpt lat="44.13661" lon="1.8">
        <ele>218.4</ele>
        <time>2023-03-05T10:45:27Z</time>
      </trkpt>
      <trkpt lat="44.13659" lon="1.79999">
        <ele>218.8</ele>
        <time>2023-03-05T10:45:28Z</time>
      </trkpt>
      <trkpt lat="44.13656" lon="1.79998">
        <ele>219</ele>
        <time>2023-03-05T10:45:29Z</time>
      </trkpt>
      <trkpt lat="44.13653" lon="1.79996">
        <ele>219.4</ele>
        <time>2023-03-05T10:45:30Z</time>
      </trkpt>
      <trkpt lat="44.1365" lon="1.79995">
        <ele>219.8</ele>
        <time>2023-03-05T10:45:31Z</time>
      </trkpt>
      <trkpt lat="44.13648" lon="1.79993">
        <ele>220.2</ele>
        <time>2023-03-05T10:45:32Z</time>
      </trkpt>
      <trkpt lat="44.13646" lon="1.79991">
        <ele>220.6</ele>
        <time>2023-03-05T10:45:33Z</time>
      </trkpt>
      <trkpt lat="44.13644" lon="1.7999">
        <ele>220.8</ele>
        <time>2023-03-05T10:45:34Z</time>
      </trkpt>
      <trkpt lat="44.13641" lon="1.79988">
        <ele>221.2</ele>
        <time>2023-03-05T10:45:35Z</time>
      </trkpt>
      <trkpt lat="44.13639" lon="1.79986">
        <ele>221.8</ele>
        <time>2023-03-05T10:45:36Z</time>
      </trkpt>
      <trkpt lat="44.13637" lon="1.79983">
        <ele>222.2</ele>
        <time>2023-03-05T10:45:37Z</time>
      </trkpt>
      <trkpt lat="44.13635" lon="1.79981">
        <ele>222.8</ele>
        <time>2023-03-05T10:45:38Z</time>
      </trkpt>
      <trkpt lat="44.13633" lon="1.79979">
        <ele>223.4</ele>
        <time>2023-03-05T10:45:39Z</time>
      </trkpt>
      <trkpt lat="44.13631" lon="1.79976">
        <ele>223.8</ele>
        <time>2023-03-05T10:45:40Z</time>
      </trkpt>
      <trkpt lat="44.13629" lon="1.79973">
        <ele>224</ele>
        <time>2023-03-05T10:45:41Z</time>
      </trkpt>
      <trkpt lat="44.13627" lon="1.79971">
        <ele>224.6</ele>
        <time>2023-03-05T10:45:42Z</time>
      </trkpt>
      <trkpt lat="44.13625" lon="1.79968">
        <ele>225.4</ele>
        <time>2023-03-05T10:45:43Z</time>
      </trkpt>
      <trkpt lat="44.13623" lon="1.79967">
        <ele>226</ele>
        <time>2023-03-05T10:45:44Z</time>
      </trkpt>
      <trkpt lat="44.1362" lon="1.79966">
        <ele>226.8</ele>
        <time>2023-03-05T10:45:45Z</time>
      </trkpt>
      <trkpt lat="44.13617" lon="1.79965">
        <ele>227.2</ele>
        <time>2023-03-05T10:45:46Z</time>
      </trkpt>
      <trkpt lat="44.13613" lon="1.79964">
        <ele>227.8</ele>
        <time>2023-03-05T10:45:47Z</time>
      </trkpt>
      <trkpt lat="44.1361" lon="1.79965">
        <ele>228.6</ele>
        <time>2023-03-05T10:45:48Z</time>
      </trkpt>
      <trkpt lat="44.13607" lon="1.79964">
        <ele>229</ele>
        <time>2023-03-05T10:45:49Z</time>
      </trkpt>
      <trkpt lat="44.13604" lon="1.79963">
        <ele>229.6</ele>
        <time>2023-03-05T10:45:50Z</time>
      </trkpt>
      <trkpt lat="44.13601" lon="1.79962">
        <ele>230</ele>
        <time>2023-03-05T10:45:51Z</time>
      </trkpt>
      <trkpt lat="44.13599" lon="1.79962">
        <ele>231</ele>
        <time>2023-03-05T10:45:52Z</time>
      </trkpt>
      <trkpt lat="44.13596" lon="1.79962">
        <ele>231.6</ele>
        <time>2023-03-05T10:45:53Z</time>
      </trkpt>
      <trkpt lat="44.13593" lon="1.79962">
        <ele>232.2</ele>
        <time>2023-03-05T10:45:54Z</time>
      </trkpt>
      <trkpt lat="44.13589" lon="1.79962">
        <ele>232.8</ele>
        <time>2023-03-05T10:45:55Z</time>
      </trkpt>
      <trkpt lat="44.13585" lon="1.79962">
        <ele>233.4</ele>
        <time>2023-03-05T10:45:56Z</time>
      </trkpt>
      <trkpt lat="44.13581" lon="1.79961">
        <ele>233.8</ele>
        <time>2023-03-05T10:45:57Z</time>
      </trkpt>
      <trkpt lat="44.13577" lon="1.7996">
        <ele>234.4</ele>
        <time>2023-03-05T10:45:58Z</time>
      </trkpt>
      <trkpt lat="44.13574" lon="1.7996">
        <ele>235.2</ele>
        <time>2023-03-05T10:45:59Z</time>
      </trkpt>
      <trkpt lat="44.13571" lon="1.79959">
        <ele>235.4</ele>
        <time>2023-03-05T10:46:00Z</time>
      </trkpt>
      <trkpt lat="44.13568" lon="1.79959">
        <ele>236.2</ele>
        <time>2023-03-05T10:46:01Z</time>
      </trkpt>
      <trkpt lat="44.13565" lon="1.79958">
        <ele>236.6</ele>
        <time>2023-03-05T10:46:02Z</time>
      </trkpt>
      <trkpt lat="44.13562" lon="1.79958">
        <ele>237.4</ele>
        <time>2023-03-05T10:46:03Z</time>
      </trkpt>
      <trkpt lat="44.13558" lon="1.79957">
        <ele>237.6</ele>
        <time>2023-03-05T10:46:04Z</time>
      </trkpt>
      <trkpt lat="44.13553" lon="1.79956">
        <ele>238</ele>
        <time>2023-03-05T10:46:05Z</time>
      </trkpt>
      <trkpt lat="44.13549" lon="1.79956">
        <ele>238.4</ele>
        <time>2023-03-05T10:46:06Z</time>
      </trkpt>
      <trkpt lat="44.13544" lon="1.79955">
        <ele>238.6</ele>
        <time>2023-03-05T10:46:07Z</time>
      </trkpt>
      <trkpt lat="44.1354" lon="1.79954">
        <ele>239</ele>
        <time>2023-03-05T10:46:08Z</time>
      </trkpt>
      <trkpt lat="44.13536" lon="1.79954">
        <ele>239.2</ele>
        <time>2023-03-05T10:46:09Z</time>
      </trkpt>
      <trkpt lat="44.13533" lon="1.79954">
        <ele>239.8</ele>
        <time>2023-03-05T10:46:10Z</time>
      </trkpt>
      <trkpt lat="44.13529" lon="1.79954">
        <ele>240</ele>
        <time>2023-03-05T10:46:11Z</time>
      </trkpt>
      <trkpt lat="44.13526" lon="1.79953">
        <ele>240.4</ele>
        <time>2023-03-05T10:46:12Z</time>
      </trkpt>
      <trkpt lat="44.13522" lon="1.79952">
        <ele>240.6</ele>
        <time>2023-03-05T10:46:13Z</time>
      </trkpt>
      <trkpt lat="44.13518" lon="1.79953">
        <ele>241</ele>
        <time>2023-03-05T10:46:14Z</time>
      </trkpt>
      <trkpt lat="44.13514" lon="1.79953">
        <ele>241</ele>
        <time>2023-03-05T10:46:15Z</time>
      </trkpt>
      <trkpt lat="44.13511" lon="1.79953">
        <ele>241.4</ele>
        <time>2023-03-05T10:46:16Z</time>
      </trkpt>
      <trkpt lat="44.13508" lon="1.79953">
        <ele>241.6</ele>
        <time>2023-03-05T10:46:17Z</time>
      </trkpt>
      <trkpt lat="44.13504" lon="1.79954">
        <ele>242</ele>
        <time>2023-03-05T10:46:18Z</time>
      </trkpt>
      <trkpt lat="44.135" lon="1.79954">
        <ele>242.6</ele>
        <time>2023-03-05T10:46:19Z</time>
      </trkpt>
      <trkpt lat="44.13497" lon="1.79954">
        <ele>243</ele>
        <time>2023-03-05T10:46:20Z</time>
      </trkpt>
      <trkpt lat="44.13493" lon="1.79954">
        <ele>243.2</ele>
        <time>2023-03-05T10:46:21Z</time>
      </trkpt>
      <trkpt lat="44.13489" lon="1.79954">
        <ele>243.4</ele>
        <time>2023-03-05T10:46:22Z</time>
      </trkpt>
      <trkpt lat="44.13486" lon="1.79953">
        <ele>243.6</ele>
        <time>2023-03-05T10:46:23Z</time>
      </trkpt>
      <trkpt lat="44.13482" lon="1.79952">
        <ele>243.8</ele>
        <time>2023-03-05T10:46:24Z</time>
      </trkpt>
      <trkpt lat="44.13479" lon="1.79952">
        <ele>244.2</ele>
        <time>2023-03-05T10:46:25Z</time>
      </trkpt>
      <trkpt lat="44.13476" lon="1.79952">
        <ele>244.2</ele>
        <time>2023-03-05T10:46:26Z</time>
      </trkpt>
      <trkpt lat="44.13473" lon="1.79951">
        <ele>244.4</ele>
        <time>2023-03-05T10:46:27Z</time>
      </trkpt>
      <trkpt lat="44.1347" lon="1.79951">
        <ele>244.4</ele>
        <time>2023-03-05T10:46:28Z</time>
      </trkpt>
      <trkpt lat="44.13467" lon="1.79951">
        <ele>244.8</ele>
        <time>2023-03-05T10:46:29Z</time>
      </trkpt>
      <trkpt lat="44.13466" lon="1.79951">
        <ele>245.2</ele>
        <time>2023-03-05T10:46:30Z</time>
      </trkpt>
      <trkpt lat="44.13463" lon="1.79951">
        <ele>245.4</ele>
        <time>2023-03-05T10:46:31Z</time>
      </trkpt>
      <trkpt lat="44.13461" lon="1.79952">
        <ele>246</ele>
        <time>2023-03-05T10:46:32Z</time>
      </trkpt>
      <trkpt lat="44.13459" lon="1.79952">
        <ele>246.2</ele>
        <time>2023-03-05T10:46:33Z</time>
      </trkpt>
      <trkpt lat="44.13456" lon="1.79952">
        <ele>246.8</ele>
        <time>2023-03-05T10:46:34Z</time>
      </trkpt>
      <trkpt lat="44.13453" lon="1.79953">
        <ele>247</ele>
        <time>2023-03-05T10:46:35Z</time>
      </trkpt>
      <trkpt lat="44.13451" lon="1.79953">
        <ele>247.2</ele>
        <time>2023-03-05T10:46:36Z</time>
      </trkpt>
      <trkpt lat="44.13449" lon="1.79953">
        <ele>247.4</ele>
        <time>2023-03-05T10:46:37Z</time>
      </trkpt>
      <trkpt lat="44.13446" lon="1.79953">
        <ele>247.8</ele>
        <time>2023-03-05T10:46:38Z</time>
      </trkpt>
      <trkpt lat="44.13443" lon="1.79953">
        <ele>248.4</ele>
        <time>2023-03-05T10:46:39Z</time>
      </trkpt>
      <trkpt lat="44.13441" lon="1.79952">
        <ele>248.6</ele>
        <time>2023-03-05T10:46:40Z</time>
      </trkpt>
      <trkpt lat="44.13438" lon="1.79953">
        <ele>249.8</ele>
        <time>2023-03-05T10:46:41Z</time>
      </trkpt>
      <trkpt lat="44.13435" lon="1.79953">
        <ele>250</ele>
        <time>2023-03-05T10:46:42Z</time>
      </trkpt>
      <trkpt lat="44.13432" lon="1.79953">
        <ele>250.6</ele>
        <time>2023-03-05T10:46:43Z</time>
      </trkpt>
      <trkpt lat="44.13429" lon="1.79953">
        <ele>250.8</ele>
        <time>2023-03-05T10:46:44Z</time>
      </trkpt>
      <trkpt lat="44.13425" lon="1.79954">
        <ele>251.2</ele>
        <time>2023-03-05T10:46:45Z</time>
      </trkpt>
      <trkpt lat="44.13421" lon="1.79954">
        <ele>251.6</ele>
        <time>2023-03-05T10:46:46Z</time>
      </trkpt>
      <trkpt lat="44.13418" lon="1.79955">
        <ele>252.4</ele>
        <time>2023-03-05T10:46:47Z</time>
      </trkpt>
      <trkpt lat="44.13415" lon="1.79955">
        <ele>252.6</ele>
        <time>2023-03-05T10:46:48Z</time>
      </trkpt>
      <trkpt lat="44.13412" lon="1.79955">
        <ele>253</ele>
        <time>2023-03-05T10:46:49Z</time>
      </trkpt>
      <trkpt lat="44.13409" lon="1.79955">
        <ele>253.4</ele>
        <time>2023-03-05T10:46:50Z</time>
      </trkpt>
      <trkpt lat="44.13406" lon="1.79956">
        <ele>253.4</ele>
        <time>2023-03-05T10:46:51Z</time>
      </trkpt>
      <trkpt lat="44.13403" lon="1.79957">
        <ele>253.8</ele>
        <time>2023-03-05T10:46:52Z</time>
      </trkpt>
      <trkpt lat="44.13399" lon="1.79957">
        <ele>254</ele>
        <time>2023-03-05T10:46:53Z</time>
      </trkpt>
      <trkpt lat="44.13396" lon="1.79956">
        <ele>254.2</ele>
        <time>2023-03-05T10:46:54Z</time>
      </trkpt>
      <trkpt lat="44.13393" lon="1.79956">
        <ele>254.4</ele>
        <time>2023-03-05T10:46:55Z</time>
      </trkpt>
      <trkpt lat="44.1339" lon="1.79956">
        <ele>254.4</ele>
        <time>2023-03-05T10:46:56Z</time>
      </trkpt>
      <trkpt lat="44.13387" lon="1.79957">
        <ele>254.6</ele>
        <time>2023-03-05T10:46:57Z</time>
      </trkpt>
      <trkpt lat="44.13384" lon="1.79957">
        <ele>254.8</ele>
        <time>2023-03-05T10:46:58Z</time>
      </trkpt>
      <trkpt lat="44.1338" lon="1.79957">
        <ele>254.8</ele>
        <time>2023-03-05T10:46:59Z</time>
      </trkpt>
      <trkpt lat="44.13377" lon="1.79957">
        <ele>255</ele>
        <time>2023-03-05T10:47:00Z</time>
      </trkpt>
      <trkpt lat="44.13374" lon="1.79957">
        <ele>255</ele>
        <time>2023-03-05T10:47:01Z</time>
      </trkpt>
      <trkpt lat="44.13372" lon="1.79956">
        <ele>255.2</ele>
        <time>2023-03-05T10:47:02Z</time>
      </trkpt>
      <trkpt lat="44.1337" lon="1.79955">
        <ele>255.4</ele>
        <time>2023-03-05T10:47:03Z</time>
      </trkpt>
      <trkpt lat="44.13366" lon="1.79954">
        <ele>255.4</ele>
        <time>2023-03-05T10:47:04Z</time>
      </trkpt>
      <trkpt lat="44.13364" lon="1.79953">
        <ele>255.8</ele>
        <time>2023-03-05T10:47:05Z</time>
      </trkpt>
      <trkpt lat="44.13362" lon="1.79953">
        <ele>256</ele>
        <time>2023-03-05T10:47:06Z</time>
      </trkpt>
      <trkpt lat="44.13358" lon="1.79952">
        <ele>256.2</ele>
        <time>2023-03-05T10:47:07Z</time>
      </trkpt>
      <trkpt lat="44.13356" lon="1.79952">
        <ele>256.4</ele>
        <time>2023-03-05T10:47:08Z</time>
      </trkpt>
      <trkpt lat="44.13354" lon="1.79951">
        <ele>256.6</ele>
        <time>2023-03-05T10:47:09Z</time>
      </trkpt>
      <trkpt lat="44.13352" lon="1.79951">
        <ele>256.8</ele>
        <time>2023-03-05T10:47:10Z</time>
      </trkpt>
      <trkpt lat="44.1335" lon="1.79951">
        <ele>256.8</ele>
        <time>2023-03-05T10:47:11Z</time>
      </trkpt>
      <trkpt lat="44.13347" lon="1.7995">
        <ele>257</ele>
        <time>2023-03-05T10:47:12Z</time>
      </trkpt>
      <trkpt lat="44.13345" lon="1.79949">
        <ele>257.2</ele>
        <time>2023-03-05T10:47:13Z</time>
      </trkpt>
      <trkpt lat="44.13343" lon="1.79948">
        <ele>257.8</ele>
        <time>2023-03-05T10:47:14Z</time>
      </trkpt>
      <trkpt lat="44.1334" lon="1.79947">
        <ele>257.8</ele>
        <time>2023-03-05T10:47:15Z</time>
      </trkpt>
      <trkpt lat="44.13338" lon="1.79946">
        <ele>258</ele>
        <time>2023-03-05T10:47:16Z</time>
      </trkpt>
      <trkpt lat="44.13336" lon="1.79945">
        <ele>258.2</ele>
        <time>2023-03-05T10:47:17Z</time>
      </trkpt>
      <trkpt lat="44.13334" lon="1.79944">
        <ele>258.6</ele>
        <time>2023-03-05T10:47:18Z</time>
      </trkpt>
      <trkpt lat="44.13332" lon="1.79943">
        <ele>258.6</ele>
        <time>2023-03-05T10:47:19Z</time>
      </trkpt>
      <trkpt lat="44.1333" lon="1.79942">
        <ele>259.2</ele>
        <time>2023-03-05T10:47:20Z</time>
      </trkpt>
      <trkpt lat="44.13328" lon="1.7994">
        <ele>259.4</ele>
        <time>2023-03-05T10:47:21Z</time>
      </trkpt>
      <trkpt lat="44.13326" lon="1.79939">
        <ele>259.8</ele>
        <time>2023-03-05T10:47:22Z</time>
      </trkpt>
      <trkpt lat="44.13324" lon="1.79938">
        <ele>260</ele>
        <time>2023-03-05T10:47:23Z</time>
      </trkpt>
      <trkpt lat="44.13322" lon="1.79937">
        <ele>260.2</ele>
        <time>2023-03-05T10:47:24Z</time>
      </trkpt>
      <trkpt lat="44.1332" lon="1.79936">
        <ele>260.4</ele>
        <time>2023-03-05T10:47:25Z</time>
      </trkpt>
      <trkpt lat="44.13318" lon="1.79935">
        <ele>260.6</ele>
        <time>2023-03-05T10:47:26Z</time>
      </trkpt>
      <trkpt lat="44.13316" lon="1.79934">
        <ele>261</ele>
        <time>2023-03-05T10:47:27Z</time>
      </trkpt>
      <trkpt lat="44.13313" lon="1.79932">
        <ele>261.2</ele>
        <time>2023-03-05T10:47:28Z</time>
      </trkpt>
      <trkpt lat="44.13311" lon="1.79931">
        <ele>261.6</ele>
        <time>2023-03-05T10:47:29Z</time>
      </trkpt>
      <trkpt lat="44.13309" lon="1.79929">
        <ele>261.8</ele>
        <time>2023-03-05T10:47:30Z</time>
      </trkpt>
      <trkpt lat="44.13307" lon="1.79929">
        <ele>261.8</ele>
        <time>2023-03-05T10:47:31Z</time>
      </trkpt>
      <trkpt lat="44.13305" lon="1.79928">
        <ele>262</ele>
        <time>2023-03-05T10:47:32Z</time>
      </trkpt>
      <trkpt lat="44.13304" lon="1.79928">
        <ele>262.2</ele>
        <time>2023-03-05T10:47:33Z</time>
      </trkpt>
      <trkpt lat="44.13302" lon="1.79927">
        <ele>262.4</ele>
        <time>2023-03-05T10:47:34Z</time>
      </trkpt>
      <trkpt lat="44.13302" lon="1.79925">
        <ele>262.4</ele>
        <time>2023-03-05T10:47:35Z</time>
      </trkpt>
      <trkpt lat="44.13301" lon="1.79924">
        <ele>262.6</ele>
        <time>2023-03-05T10:47:36Z</time>
      </trkpt>
      <trkpt lat="44.13301" lon="1.79924">
        <ele>262.6</ele>
        <time>2023-03-05T10:47:37Z</time>
      </trkpt>
      <trkpt lat="44.13302" lon="1.79922">
        <ele>262.8</ele>
        <time>2023-03-05T10:47:38Z</time>
      </trkpt>
      <trkpt lat="44.13304" lon="1.79922">
        <ele>263</ele>
        <time>2023-03-05T10:47:39Z</time>
      </trkpt>
      <trkpt lat="44.13305" lon="1.79922">
        <ele>263</ele>
        <time>2023-03-05T10:47:40Z</time>
      </trkpt>
      <trkpt lat="44.13306" lon="1.79922">
        <ele>263.2</ele>
        <time>2023-03-05T10:47:41Z</time>
      </trkpt>
      <trkpt lat="44.13307" lon="1.79921">
        <ele>263.2</ele>
        <time>2023-03-05T10:47:42Z</time>
      </trkpt>
      <trkpt lat="44.13308" lon="1.79921">
        <ele>263.4</ele>
        <time>2023-03-05T10:47:43Z</time>
      </trkpt>
      <trkpt lat="44.13309" lon="1.7992">
        <ele>263.4</ele>
        <time>2023-03-05T10:47:44Z</time>
      </trkpt>
      <trkpt lat="44.1331" lon="1.7992">
        <ele>264</ele>
        <time>2023-03-05T10:47:45Z</time>
      </trkpt>
      <trkpt lat="44.13312" lon="1.79919">
        <ele>264.2</ele>
        <time>2023-03-05T10:47:46Z</time>
      </trkpt>
      <trkpt lat="44.13313" lon="1.79919">
        <ele>264.4</ele>
        <time>2023-03-05T10:47:47Z</time>
      </trkpt>
      <trkpt lat="44.13314" lon="1.79918">
        <ele>264.6</ele>
        <time>2023-03-05T10:47:48Z</time>
      </trkpt>
      <trkpt lat="44.13315" lon="1.79918">
        <ele>265</ele>
        <time>2023-03-05T10:47:49Z</time>
      </trkpt>
      <trkpt lat="44.13316" lon="1.79918">
        <ele>265.4</ele>
        <time>2023-03-05T10:47:50Z</time>
      </trkpt>
      <trkpt lat="44.13318" lon="1.79917">
        <ele>265.8</ele>
        <time>2023-03-05T10:47:51Z</time>
      </trkpt>
      <trkpt lat="44.13319" lon="1.79916">
        <ele>266.2</ele>
        <time>2023-03-05T10:47:52Z</time>
      </trkpt>
      <trkpt lat="44.13321" lon="1.79915">
        <ele>266.4</ele>
        <time>2023-03-05T10:47:53Z</time>
      </trkpt>
      <trkpt lat="44.13322" lon="1.79914">
        <ele>266.8</ele>
        <time>2023-03-05T10:47:54Z</time>
      </trkpt>
      <trkpt lat="44.13323" lon="1.79913">
        <ele>267</ele>
        <time>2023-03-05T10:47:55Z</time>
      </trkpt>
      <trkpt lat="44.13325" lon="1.79912">
        <ele>267.4</ele>
        <time>2023-03-05T10:47:56Z</time>
      </trkpt>
      <trkpt lat="44.13326" lon="1.79911">
        <ele>267.4</ele>
        <time>2023-03-05T10:47:57Z</time>
      </trkpt>
      <trkpt lat="44.13328" lon="1.7991">
        <ele>267.8</ele>
        <time>2023-03-05T10:47:58Z</time>
      </trkpt>
      <trkpt lat="44.13329" lon="1.79909">
        <ele>268</ele>
        <time>2023-03-05T10:47:59Z</time>
      </trkpt>
      <trkpt lat="44.13331" lon="1.79908">
        <ele>268.8</ele>
        <time>2023-03-05T10:48:00Z</time>
      </trkpt>
      <trkpt lat="44.13333" lon="1.79907">
        <ele>269.4</ele>
        <time>2023-03-05T10:48:01Z</time>
      </trkpt>
      <trkpt lat="44.13334" lon="1.79905">
        <ele>269.6</ele>
        <time>2023-03-05T10:48:02Z</time>
      </trkpt>
      <trkpt lat="44.13336" lon="1.79904">
        <ele>270.2</ele>
        <time>2023-03-05T10:48:03Z</time>
      </trkpt>
      <trkpt lat="44.13337" lon="1.79903">
        <ele>270.4</ele>
        <time>2023-03-05T10:48:04Z</time>
      </trkpt>
      <trkpt lat="44.13339" lon="1.79902">
        <ele>271</ele>
        <time>2023-03-05T10:48:05Z</time>
      </trkpt>
      <trkpt lat="44.13341" lon="1.79901">
        <ele>271.2</ele>
        <time>2023-03-05T10:48:06Z</time>
      </trkpt>
      <trkpt lat="44.13342" lon="1.799">
        <ele>271.4</ele>
        <time>2023-03-05T10:48:07Z</time>
      </trkpt>
      <trkpt lat="44.13343" lon="1.799">
        <ele>271.8</ele>
        <time>2023-03-05T10:48:08Z</time>
      </trkpt>
      <trkpt lat="44.13345" lon="1.79899">
        <ele>272.4</ele>
        <time>2023-03-05T10:48:09Z</time>
      </trkpt>
      <trkpt lat="44.13347" lon="1.79898">
        <ele>272.8</ele>
        <time>2023-03-05T10:48:10Z</time>
      </trkpt>
      <trkpt lat="44.13349" lon="1.79897">
        <ele>273</ele>
        <time>2023-03-05T10:48:11Z</time>
      </trkpt>
      <trkpt lat="44.13351" lon="1.79896">
        <ele>273.4</ele>
        <time>2023-03-05T10:48:12Z</time>
      </trkpt>
      <trkpt lat="44.13353" lon="1.79895">
        <ele>273.8</ele>
        <time>2023-03-05T10:48:13Z</time>
      </trkpt>
      <trkpt lat="44.13356" lon="1.79893">
        <ele>274.6</ele>
        <time>2023-03-05T10:48:14Z</time>
      </trkpt>
      <trkpt lat="44.13358" lon="1.79892">
        <ele>274.8</ele>
        <time>2023-03-05T10:48:15Z</time>
      </trkpt>
      <trkpt lat="44.1336" lon="1.79892">
        <ele>275.2</ele>
        <time>2023-03-05T10:48:16Z</time>
      </trkpt>
      <trkpt lat="44.13362" lon="1.79891">
        <ele>275.4</ele>
        <time>2023-03-05T10:48:17Z</time>
      </trkpt>
      <trkpt lat="44.13365" lon="1.7989">
        <ele>276</ele>
        <time>2023-03-05T10:48:18Z</time>
      </trkpt>
      <trkpt lat="44.13367" lon="1.7989">
        <ele>276.2</ele>
        <time>2023-03-05T10:48:19Z</time>
      </trkpt>
      <trkpt lat="44.13369" lon="1.79889">
        <ele>276.8</ele>
        <time>2023-03-05T10:48:20Z</time>
      </trkpt>
      <trkpt lat="44.13372" lon="1.79887">
        <ele>277.2</ele>
        <time>2023-03-05T10:48:21Z</time>
      </trkpt>
      <trkpt lat="44.13374" lon="1.79885">
        <ele>277.4</ele>
        <time>2023-03-05T10:48:22Z</time>
      </trkpt>
      <trkpt lat="44.13375" lon="1.79884">
        <ele>278</ele>
        <time>2023-03-05T10:48:23Z</time>
      </trkpt>
      <trkpt lat="44.13376" lon="1.79883">
        <ele>278.2</ele>
        <time>2023-03-05T10:48:24Z</time>
      </trkpt>
      <trkpt lat="44.13378" lon="1.79882">
        <ele>278.6</ele>
        <time>2023-03-05T10:48:25Z</time>
      </trkpt>
      <trkpt lat="44.1338" lon="1.7988">
        <ele>278.6</ele>
        <time>2023-03-05T10:48:26Z</time>
      </trkpt>
      <trkpt lat="44.13383" lon="1.79878">
        <ele>279</ele>
        <time>2023-03-05T10:48:27Z</time>
      </trkpt>
      <trkpt lat="44.13385" lon="1.79877">
        <ele>279.2</ele>
        <time>2023-03-05T10:48:28Z</time>
      </trkpt>
      <trkpt lat="44.13387" lon="1.79876">
        <ele>280</ele>
        <time>2023-03-05T10:48:29Z</time>
      </trkpt>
      <trkpt lat="44.13388" lon="1.79875">
        <ele>280.2</ele>
        <time>2023-03-05T10:48:30Z</time>
      </trkpt>
      <trkpt lat="44.1339" lon="1.79874">
        <ele>280.8</ele>
        <time>2023-03-05T10:48:31Z</time>
      </trkpt>
      <trkpt lat="44.13392" lon="1.79871">
        <ele>281.4</ele>
        <time>2023-03-05T10:48:32Z</time>
      </trkpt>
      <trkpt lat="44.13394" lon="1.7987">
        <ele>281.6</ele>
        <time>2023-03-05T10:48:33Z</time>
      </trkpt>
      <trkpt lat="44.13397" lon="1.7987">
        <ele>282.2</ele>
        <time>2023-03-05T10:48:34Z</time>
      </trkpt>
      <trkpt lat="44.13401" lon="1.79868">
        <ele>282.6</ele>
        <time>2023-03-05T10:48:35Z</time>
      </trkpt>
      <trkpt lat="44.13406" lon="1.79863">
        <ele>283</ele>
        <time>2023-03-05T10:48:36Z</time>
      </trkpt>
      <trkpt lat="44.1341" lon="1.7986">
        <ele>283.4</ele>
        <time>2023-03-05T10:48:37Z</time>
      </trkpt>
      <trkpt lat="44.13413" lon="1.79858">
        <ele>283.8</ele>
        <time>2023-03-05T10:48:38Z</time>
      </trkpt>
      <trkpt lat="44.13416" lon="1.79856">
        <ele>284</ele>
        <time>2023-03-05T10:48:39Z</time>
      </trkpt>
      <trkpt lat="44.13417" lon="1.79855">
        <ele>284.2</ele>
        <time>2023-03-05T10:48:40Z</time>
      </trkpt>
      <trkpt lat="44.1342" lon="1.79853">
        <ele>284.6</ele>
        <time>2023-03-05T10:48:41Z</time>
      </trkpt>
      <trkpt lat="44.13423" lon="1.79852">
        <ele>284.6</ele>
        <time>2023-03-05T10:48:42Z</time>
      </trkpt>
      <trkpt lat="44.13425" lon="1.79851">
        <ele>285</ele>
        <time>2023-03-05T10:48:43Z</time>
      </trkpt>
      <trkpt lat="44.13428" lon="1.7985">
        <ele>285</ele>
        <time>2023-03-05T10:48:44Z</time>
      </trkpt>
      <trkpt lat="44.13435" lon="1.79848">
        <ele>285.4</ele>
        <time>2023-03-05T10:48:45Z</time>
      </trkpt>
      <trkpt lat="44.13439" lon="1.79845">
        <ele>285.4</ele>
        <time>2023-03-05T10:48:46Z</time>
      </trkpt>
      <trkpt lat="44.13442" lon="1.79843">
        <ele>285.8</ele>
        <time>2023-03-05T10:48:47Z</time>
      </trkpt>
      <trkpt lat="44.13443" lon="1.79842">
        <ele>286.2</ele>
        <time>2023-03-05T10:48:48Z</time>
      </trkpt>
      <trkpt lat="44.13445" lon="1.79842">
        <ele>286.8</ele>
        <time>2023-03-05T10:48:49Z</time>
      </trkpt>
      <trkpt lat="44.13448" lon="1.79841">
        <ele>287</ele>
        <time>2023-03-05T10:48:50Z</time>
      </trkpt>
      <trkpt lat="44.13453" lon="1.79839">
        <ele>287.2</ele>
        <time>2023-03-05T10:48:51Z</time>
      </trkpt>
      <trkpt lat="44.1346" lon="1.79837">
        <ele>287.4</ele>
        <time>2023-03-05T10:48:52Z</time>
      </trkpt>
      <trkpt lat="44.13462" lon="1.79837">
        <ele>287.8</ele>
        <time>2023-03-05T10:48:53Z</time>
      </trkpt>
      <trkpt lat="44.13463" lon="1.79835">
        <ele>288.2</ele>
        <time>2023-03-05T10:48:54Z</time>
      </trkpt>
      <trkpt lat="44.13466" lon="1.79834">
        <ele>288.2</ele>
        <time>2023-03-05T10:48:55Z</time>
      </trkpt>
      <trkpt lat="44.13468" lon="1.79833">
        <ele>288.2</ele>
        <time>2023-03-05T10:48:56Z</time>
      </trkpt>
      <trkpt lat="44.13469" lon="1.79833">
        <ele>288.2</ele>
        <time>2023-03-05T10:48:57Z</time>
      </trkpt>
      <trkpt lat="44.13472" lon="1.79832">
        <ele>288.6</ele>
        <time>2023-03-05T10:48:58Z</time>
      </trkpt>
      <trkpt lat="44.13475" lon="1.7983">
        <ele>288.6</ele>
        <time>2023-03-05T10:48:59Z</time>
      </trkpt>
      <trkpt lat="44.13479" lon="1.79827">
        <ele>288.8</ele>
        <time>2023-03-05T10:49:00Z</time>
      </trkpt>
      <trkpt lat="44.13482" lon="1.79825">
        <ele>289.2</ele>
        <time>2023-03-05T10:49:01Z</time>
      </trkpt>
      <trkpt lat="44.13484" lon="1.79824">
        <ele>289.4</ele>
        <time>2023-03-05T10:49:02Z</time>
      </trkpt>
      <trkpt lat="44.13488" lon="1.79823">
        <ele>289.6</ele>
        <time>2023-03-05T10:49:03Z</time>
      </trkpt>
      <trkpt lat="44.13491" lon="1.79821">
        <ele>289.8</ele>
        <time>2023-03-05T10:49:04Z</time>
      </trkpt>
      <trkpt lat="44.13494" lon="1.7982">
        <ele>290.2</ele>
        <time>2023-03-05T10:49:05Z</time>
      </trkpt>
      <trkpt lat="44.13496" lon="1.79818">
        <ele>290.6</ele>
        <time>2023-03-05T10:49:06Z</time>
      </trkpt>
      <trkpt lat="44.13498" lon="1.79816">
        <ele>291.2</ele>
        <time>2023-03-05T10:49:07Z</time>
      </trkpt>
      <trkpt lat="44.13499" lon="1.79815">
        <ele>291.4</ele>
        <time>2023-03-05T10:49:08Z</time>
      </trkpt>
      <trkpt lat="44.13501" lon="1.79814">
        <ele>292.2</ele>
        <time>2023-03-05T10:49:09Z</time>
      </trkpt>
      <trkpt lat="44.13503" lon="1.79813">
        <ele>292.6</ele>
        <time>2023-03-05T10:49:10Z</time>
      </trkpt>
      <trkpt lat="44.13505" lon="1.79812">
        <ele>292.8</ele>
        <time>2023-03-05T10:49:11Z</time>
      </trkpt>
      <trkpt lat="44.13507" lon="1.79811">
        <ele>293.4</ele>
        <time>2023-03-05T10:49:12Z</time>
      </trkpt>
      <trkpt lat="44.13509" lon="1.7981">
        <ele>293.6</ele>
        <time>2023-03-05T10:49:13Z</time>
      </trkpt>
      <trkpt lat="44.13514" lon="1.79809">
        <ele>294</ele>
        <time>2023-03-05T10:49:14Z</time>
      </trkpt>
      <trkpt lat="44.13515" lon="1.79806">
        <ele>294.4</ele>
        <time>2023-03-05T10:49:15Z</time>
      </trkpt>
      <trkpt lat="44.13516" lon="1.79804">
        <ele>295</ele>
        <time>2023-03-05T10:49:16Z</time>
      </trkpt>
      <trkpt lat="44.13518" lon="1.798">
        <ele>295.2</ele>
        <time>2023-03-05T10:49:17Z</time>
      </trkpt>
      <trkpt lat="44.1352" lon="1.79796">
        <ele>295.6</ele>
        <time>2023-03-05T10:49:18Z</time>
      </trkpt>
      <trkpt lat="44.13522" lon="1.79794">
        <ele>295.8</ele>
        <time>2023-03-05T10:49:19Z</time>
      </trkpt>
      <trkpt lat="44.13524" lon="1.79792">
        <ele>296.4</ele>
        <time>2023-03-05T10:49:20Z</time>
      </trkpt>
      <trkpt lat="44.13525" lon="1.79789">
        <ele>296.8</ele>
        <time>2023-03-05T10:49:21Z</time>
      </trkpt>
      <trkpt lat="44.13527" lon="1.79787">
        <ele>297</ele>
        <time>2023-03-05T10:49:22Z</time>
      </trkpt>
      <trkpt lat="44.13529" lon="1.79786">
        <ele>297.6</ele>
        <time>2023-03-05T10:49:23Z</time>
      </trkpt>
      <trkpt lat="44.1353" lon="1.79784">
        <ele>297.8</ele>
        <time>2023-03-05T10:49:24Z</time>
      </trkpt>
      <trkpt lat="44.13531" lon="1.79782">
        <ele>298.6</ele>
        <time>2023-03-05T10:49:25Z</time>
      </trkpt>
      <trkpt lat="44.13533" lon="1.7978">
        <ele>299</ele>
        <time>2023-03-05T10:49:26Z</time>
      </trkpt>
      <trkpt lat="44.13535" lon="1.79778">
        <ele>299.2</ele>
        <time>2023-03-05T10:49:27Z</time>
      </trkpt>
      <trkpt lat="44.13536" lon="1.79775">
        <ele>299.4</ele>
        <time>2023-03-05T10:49:28Z</time>
      </trkpt>
      <trkpt lat="44.13537" lon="1.79773">
        <ele>299.8</ele>
        <time>2023-03-05T10:49:29Z</time>
      </trkpt>
      <trkpt lat="44.13538" lon="1.7977">
        <ele>300.4</ele>
        <time>2023-03-05T10:49:30Z</time>
      </trkpt>
      <trkpt lat="44.1354" lon="1.79768">
        <ele>301</ele>
        <time>2023-03-05T10:49:31Z</time>
      </trkpt>
      <trkpt lat="44.13541" lon="1.79766">
        <ele>301.6</ele>
        <time>2023-03-05T10:49:32Z</time>
      </trkpt>
      <trkpt lat="44.13543" lon="1.79763">
        <ele>301.8</ele>
        <time>2023-03-05T10:49:33Z</time>
      </trkpt>
      <trkpt lat="44.13544" lon="1.79757">
        <ele>302.6</ele>
        <time>2023-03-05T10:49:34Z</time>
      </trkpt>
      <trkpt lat="44.13546" lon="1.79753">
        <ele>302.8</ele>
        <time>2023-03-05T10:49:35Z</time>
      </trkpt>
      <trkpt lat="44.13548" lon="1.7975">
        <ele>303.4</ele>
        <time>2023-03-05T10:49:36Z</time>
      </trkpt>
      <trkpt lat="44.1355" lon="1.79749">
        <ele>303.6</ele>
        <time>2023-03-05T10:49:37Z</time>
      </trkpt>
      <trkpt lat="44.13551" lon="1.79746">
        <ele>303.8</ele>
        <time>2023-03-05T10:49:38Z</time>
      </trkpt>
      <trkpt lat="44.13553" lon="1.79743">
        <ele>303.8</ele>
        <time>2023-03-05T10:49:39Z</time>
      </trkpt>
      <trkpt lat="44.13554" lon="1.79741">
        <ele>304</ele>
        <time>2023-03-05T10:49:40Z</time>
      </trkpt>
      <trkpt lat="44.13555" lon="1.79738">
        <ele>304.6</ele>
        <time>2023-03-05T10:49:41Z</time>
      </trkpt>
      <trkpt lat="44.13558" lon="1.79736">
        <ele>305</ele>
        <time>2023-03-05T10:49:42Z</time>
      </trkpt>
      <trkpt lat="44.1356" lon="1.79733">
        <ele>305.4</ele>
        <time>2023-03-05T10:49:43Z</time>
      </trkpt>
      <trkpt lat="44.13561" lon="1.7973">
        <ele>305.4</ele>
        <time>2023-03-05T10:49:44Z</time>
      </trkpt>
      <trkpt lat="44.13562" lon="1.7973">
        <ele>305.8</ele>
        <time>2023-03-05T10:49:45Z</time>
      </trkpt>
      <trkpt lat="44.13561" lon="1.7973">
        <ele>306</ele>
        <time>2023-03-05T10:49:46Z</time>
      </trkpt>
      <trkpt lat="44.1356" lon="1.79732">
        <ele>306.4</ele>
        <time>2023-03-05T10:49:47Z</time>
      </trkpt>
      <trkpt lat="44.13559" lon="1.79733">
        <ele>306.6</ele>
        <time>2023-03-05T10:49:48Z</time>
      </trkpt>
      <trkpt lat="44.13557" lon="1.79734">
        <ele>307.2</ele>
        <time>2023-03-05T10:49:49Z</time>
      </trkpt>
      <trkpt lat="44.13555" lon="1.79735">
        <ele>307.6</ele>
        <time>2023-03-05T10:49:50Z</time>
      </trkpt>
      <trkpt lat="44.13554" lon="1.79735">
        <ele>307.8</ele>
        <time>2023-03-05T10:49:51Z</time>
      </trkpt>
      <trkpt lat="44.13552" lon="1.79736">
        <ele>308.4</ele>
        <time>2023-03-05T10:49:52Z</time>
      </trkpt>
      <trkpt lat="44.1355" lon="1.79736">
        <ele>308.8</ele>
        <time>2023-03-05T10:49:53Z</time>
      </trkpt>
      <trkpt lat="44.13549" lon="1.79738">
        <ele>309.4</ele>
        <time>2023-03-05T10:49:54Z</time>
      </trkpt>
      <trkpt lat="44.13547" lon="1.79738">
        <ele>309.6</ele>
        <time>2023-03-05T10:49:55Z</time>
      </trkpt>
      <trkpt lat="44.13546" lon="1.79738">
        <ele>310.2</ele>
        <time>2023-03-05T10:49:56Z</time>
      </trkpt>
      <trkpt lat="44.13544" lon="1.79739">
        <ele>310.4</ele>
        <time>2023-03-05T10:49:57Z</time>
      </trkpt>
      <trkpt lat="44.13543" lon="1.79739">
        <ele>310.8</ele>
        <time>2023-03-05T10:49:58Z</time>
      </trkpt>
      <trkpt lat="44.13541" lon="1.7974">
        <ele>311.2</ele>
        <time>2023-03-05T10:49:59Z</time>
      </trkpt>
      <trkpt lat="44.1354" lon="1.7974">
        <ele>311.4</ele>
        <time>2023-03-05T10:50:00Z</time>
      </trkpt>
      <trkpt lat="44.13539" lon="1.7974">
        <ele>311.8</ele>
        <time>2023-03-05T10:50:01Z</time>
      </trkpt>
      <trkpt lat="44.13537" lon="1.79741">
        <ele>312</ele>
        <time>2023-03-05T10:50:02Z</time>
      </trkpt>
      <trkpt lat="44.13535" lon="1.79741">
        <ele>312.4</ele>
        <time>2023-03-05T10:50:03Z</time>
      </trkpt>
      <trkpt lat="44.13533" lon="1.79742">
        <ele>312.6</ele>
        <time>2023-03-05T10:50:04Z</time>
      </trkpt>
      <trkpt lat="44.13532" lon="1.79742">
        <ele>312.8</ele>
        <time>2023-03-05T10:50:05Z</time>
      </trkpt>
      <trkpt lat="44.1353" lon="1.79743">
        <ele>313</ele>
        <time>2023-03-05T10:50:06Z</time>
      </trkpt>
      <trkpt lat="44.13528" lon="1.79745">
        <ele>313.4</ele>
        <time>2023-03-05T10:50:07Z</time>
      </trkpt>
      <trkpt lat="44.13525" lon="1.79746">
        <ele>313.8</ele>
        <time>2023-03-05T10:50:08Z</time>
      </trkpt>
      <trkpt lat="44.13521" lon="1.79747">
        <ele>314.4</ele>
        <time>2023-03-05T10:50:09Z</time>
      </trkpt>
      <trkpt lat="44.13519" lon="1.79748">
        <ele>315</ele>
        <time>2023-03-05T10:50:10Z</time>
      </trkpt>
      <trkpt lat="44.13517" lon="1.79749">
        <ele>315.2</ele>
        <time>2023-03-05T10:50:11Z</time>
      </trkpt>
      <trkpt lat="44.13514" lon="1.7975">
        <ele>315.6</ele>
        <time>2023-03-05T10:50:12Z</time>
      </trkpt>
      <trkpt lat="44.13511" lon="1.79751">
        <ele>315.8</ele>
        <time>2023-03-05T10:50:13Z</time>
      </trkpt>
      <trkpt lat="44.13508" lon="1.79751">
        <ele>316.2</ele>
        <time>2023-03-05T10:50:14Z</time>
      </trkpt>
      <trkpt lat="44.13505" lon="1.7975">
        <ele>316.2</ele>
        <time>2023-03-05T10:50:15Z</time>
      </trkpt>
      <trkpt lat="44.13502" lon="1.7975">
        <ele>317</ele>
        <time>2023-03-05T10:50:16Z</time>
      </trkpt>
      <trkpt lat="44.135" lon="1.7975">
        <ele>317.2</ele>
        <time>2023-03-05T10:50:17Z</time>
      </trkpt>
      <trkpt lat="44.13497" lon="1.7975">
        <ele>318</ele>
        <time>2023-03-05T10:50:18Z</time>
      </trkpt>
      <trkpt lat="44.13495" lon="1.79751">
        <ele>318.8</ele>
        <time>2023-03-05T10:50:19Z</time>
      </trkpt>
      <trkpt lat="44.13493" lon="1.79751">
        <ele>319.2</ele>
        <time>2023-03-05T10:50:20Z</time>
      </trkpt>
      <trkpt lat="44.1349" lon="1.79752">
        <ele>319.8</ele>
        <time>2023-03-05T10:50:21Z</time>
      </trkpt>
      <trkpt lat="44.13488" lon="1.79752">
        <ele>320</ele>
        <time>2023-03-05T10:50:22Z</time>
      </trkpt>
      <trkpt lat="44.13486" lon="1.79753">
        <ele>320.8</ele>
        <time>2023-03-05T10:50:23Z</time>
      </trkpt>
      <trkpt lat="44.13484" lon="1.79753">
        <ele>321.2</ele>
        <time>2023-03-05T10:50:24Z</time>
      </trkpt>
      <trkpt lat="44.13482" lon="1.79753">
        <ele>321.6</ele>
        <time>2023-03-05T10:50:25Z</time>
      </trkpt>
      <trkpt lat="44.13479" lon="1.79754">
        <ele>322</ele>
        <time>2023-03-05T10:50:26Z</time>
      </trkpt>
      <trkpt lat="44.13476" lon="1.79753">
        <ele>322.6</ele>
        <time>2023-03-05T10:50:27Z</time>
      </trkpt>
      <trkpt lat="44.13474" lon="1.79753">
        <ele>322.8</ele>
        <time>2023-03-05T10:50:28Z</time>
      </trkpt>
      <trkpt lat="44.13472" lon="1.79753">
        <ele>323.6</ele>
        <time>2023-03-05T10:50:29Z</time>
      </trkpt>
      <trkpt lat="44.1347" lon="1.79753">
        <ele>324.2</ele>
        <time>2023-03-05T10:50:30Z</time>
      </trkpt>
      <trkpt lat="44.13468" lon="1.79754">
        <ele>324.4</ele>
        <time>2023-03-05T10:50:31Z</time>
      </trkpt>
      <trkpt lat="44.13466" lon="1.79754">
        <ele>324.8</ele>
        <time>2023-03-05T10:50:32Z</time>
      </trkpt>
      <trkpt lat="44.13464" lon="1.79754">
        <ele>325.2</ele>
        <time>2023-03-05T10:50:33Z</time>
      </trkpt>
      <trkpt lat="44.13462" lon="1.79755">
        <ele>325.8</ele>
        <time>2023-03-05T10:50:34Z</time>
      </trkpt>
      <trkpt lat="44.13461" lon="1.79756">
        <ele>325.8</ele>
        <time>2023-03-05T10:50:35Z</time>
      </trkpt>
      <trkpt lat="44.13459" lon="1.79756">
        <ele>326.6</ele>
        <time>2023-03-05T10:50:36Z</time>
      </trkpt>
      <trkpt lat="44.13457" lon="1.79757">
        <ele>327</ele>
        <time>2023-03-05T10:50:37Z</time>
      </trkpt>
      <trkpt lat="44.13455" lon="1.79758">
        <ele>327.4</ele>
        <time>2023-03-05T10:50:38Z</time>
      </trkpt>
      <trkpt lat="44.13452" lon="1.79758">
        <ele>328</ele>
        <time>2023-03-05T10:50:39Z</time>
      </trkpt>
      <trkpt lat="44.1345" lon="1.79758">
        <ele>328.2</ele>
        <time>2023-03-05T10:50:40Z</time>
      </trkpt>
      <trkpt lat="44.13448" lon="1.79758">
        <ele>328.6</ele>
        <time>2023-03-05T10:50:41Z</time>
      </trkpt>
      <trkpt lat="44.13446" lon="1.79757">
        <ele>328.8</ele>
        <time>2023-03-05T10:50:42Z</time>
      </trkpt>
      <trkpt lat="44.13443" lon="1.79757">
        <ele>329.2</ele>
        <time>2023-03-05T10:50:43Z</time>
      </trkpt>
      <trkpt lat="44.13441" lon="1.79757">
        <ele>329.4</ele>
        <time>2023-03-05T10:50:44Z</time>
      </trkpt>
      <trkpt lat="44.13439" lon="1.79756">
        <ele>329.8</ele>
        <time>2023-03-05T10:50:45Z</time>
      </trkpt>
      <trkpt lat="44.13437" lon="1.79755">
        <ele>330</ele>
        <time>2023-03-05T10:50:46Z</time>
      </trkpt>
      <trkpt lat="44.13435" lon="1.79754">
        <ele>330.2</ele>
        <time>2023-03-05T10:50:47Z</time>
      </trkpt>
      <trkpt lat="44.13433" lon="1.79754">
        <ele>330.4</ele>
        <time>2023-03-05T10:50:48Z</time>
      </trkpt>
      <trkpt lat="44.1343" lon="1.79753">
        <ele>331</ele>
        <time>2023-03-05T10:50:49Z</time>
      </trkpt>
      <trkpt lat="44.13428" lon="1.79752">
        <ele>331.2</ele>
        <time>2023-03-05T10:50:50Z</time>
      </trkpt>
      <trkpt lat="44.13426" lon="1.79753">
        <ele>331.4</ele>
        <time>2023-03-05T10:50:51Z</time>
      </trkpt>
      <trkpt lat="44.13424" lon="1.79753">
        <ele>331.8</ele>
        <time>2023-03-05T10:50:52Z</time>
      </trkpt>
      <trkpt lat="44.13421" lon="1.79754">
        <ele>332.2</ele>
        <time>2023-03-05T10:50:53Z</time>
      </trkpt>
      <trkpt lat="44.13419" lon="1.79755">
        <ele>332.4</ele>
        <time>2023-03-05T10:50:54Z</time>
      </trkpt>
      <trkpt lat="44.13416" lon="1.79755">
        <ele>332.6</ele>
        <time>2023-03-05T10:50:55Z</time>
      </trkpt>
      <trkpt lat="44.13414" lon="1.79756">
        <ele>333.2</ele>
        <time>2023-03-05T10:50:56Z</time>
      </trkpt>
      <trkpt lat="44.13412" lon="1.79756">
        <ele>333.6</ele>
        <time>2023-03-05T10:50:57Z</time>
      </trkpt>
      <trkpt lat="44.13409" lon="1.79757">
        <ele>334</ele>
        <time>2023-03-05T10:50:58Z</time>
      </trkpt>
      <trkpt lat="44.13406" lon="1.79759">
        <ele>334.2</ele>
        <time>2023-03-05T10:50:59Z</time>
      </trkpt>
      <trkpt lat="44.13404" lon="1.7976">
        <ele>334.2</ele>
        <time>2023-03-05T10:51:00Z</time>
      </trkpt>
      <trkpt lat="44.13401" lon="1.7976">
        <ele>334.4</ele>
        <time>2023-03-05T10:51:01Z</time>
      </trkpt>
      <trkpt lat="44.13399" lon="1.79761">
        <ele>334.6</ele>
        <time>2023-03-05T10:51:02Z</time>
      </trkpt>
      <trkpt lat="44.13397" lon="1.79761">
        <ele>334.8</ele>
        <time>2023-03-05T10:51:03Z</time>
      </trkpt>
      <trkpt lat="44.13394" lon="1.79761">
        <ele>334.8</ele>
        <time>2023-03-05T10:51:04Z</time>
      </trkpt>
      <trkpt lat="44.13392" lon="1.79762">
        <ele>334.8</ele>
        <time>2023-03-05T10:51:05Z</time>
      </trkpt>
      <trkpt lat="44.13388" lon="1.79762">
        <ele>335</ele>
        <time>2023-03-05T10:51:06Z</time>
      </trkpt>
      <trkpt lat="44.13385" lon="1.79763">
        <ele>335</ele>
        <time>2023-03-05T10:51:07Z</time>
      </trkpt>
      <trkpt lat="44.13382" lon="1.79763">
        <ele>335</ele>
        <time>2023-03-05T10:51:08Z</time>
      </trkpt>
      <trkpt lat="44.13379" lon="1.79764">
        <ele>335.2</ele>
        <time>2023-03-05T10:51:09Z</time>
      </trkpt>
      <trkpt lat="44.13376" lon="1.79764">
        <ele>335.2</ele>
        <time>2023-03-05T10:51:10Z</time>
      </trkpt>
      <trkpt lat="44.13373" lon="1.79764">
        <ele>335.2</ele>
        <time>2023-03-05T10:51:11Z</time>
      </trkpt>
      <trkpt lat="44.1337" lon="1.79764">
        <ele>335.4</ele>
        <time>2023-03-05T10:51:12Z</time>
      </trkpt>
      <trkpt lat="44.13368" lon="1.79765">
        <ele>335.4</ele>
        <time>2023-03-05T10:51:13Z</time>
      </trkpt>
      <trkpt lat="44.13364" lon="1.79766">
        <ele>335.6</ele>
        <time>2023-03-05T10:51:14Z</time>
      </trkpt>
      <trkpt lat="44.13361" lon="1.79766">
        <ele>335.6</ele>
        <time>2023-03-05T10:51:15Z</time>
      </trkpt>
      <trkpt lat="44.13358" lon="1.79766">
        <ele>335.8</ele>
        <time>2023-03-05T10:51:16Z</time>
      </trkpt>
      <trkpt lat="44.13357" lon="1.79764">
        <ele>335.8</ele>
        <time>2023-03-05T10:51:17Z</time>
      </trkpt>
      <trkpt lat="44.13357" lon="1.79762">
        <ele>336</ele>
        <time>2023-03-05T10:51:18Z</time>
      </trkpt>
      <trkpt lat="44.13357" lon="1.79759">
        <ele>336.2</ele>
        <time>2023-03-05T10:51:19Z</time>
      </trkpt>
      <trkpt lat="44.13358" lon="1.79756">
        <ele>336.2</ele>
        <time>2023-03-05T10:51:20Z</time>
      </trkpt>
      <trkpt lat="44.13358" lon="1.79753">
        <ele>336.6</ele>
        <time>2023-03-05T10:51:21Z</time>
      </trkpt>
      <trkpt lat="44.13357" lon="1.7975">
        <ele>336.8</ele>
        <time>2023-03-05T10:51:22Z</time>
      </trkpt>
      <trkpt lat="44.13357" lon="1.79746">
        <ele>337.2</ele>
        <time>2023-03-05T10:51:23Z</time>
      </trkpt>
      <trkpt lat="44.13356" lon="1.79744">
        <ele>337.4</ele>
        <time>2023-03-05T10:51:24Z</time>
      </trkpt>
      <trkpt lat="44.13356" lon="1.7974">
        <ele>338.2</ele>
        <time>2023-03-05T10:51:25Z</time>
      </trkpt>
      <trkpt lat="44.13356" lon="1.79737">
        <ele>338.4</ele>
        <time>2023-03-05T10:51:26Z</time>
      </trkpt>
      <trkpt lat="44.13357" lon="1.79733">
        <ele>338.8</ele>
        <time>2023-03-05T10:51:27Z</time>
      </trkpt>
      <trkpt lat="44.13357" lon="1.7973">
        <ele>339</ele>
        <time>2023-03-05T10:51:28Z</time>
      </trkpt>
      <trkpt lat="44.13357" lon="1.79726">
        <ele>339.4</ele>
        <time>2023-03-05T10:51:29Z</time>
      </trkpt>
      <trkpt lat="44.13357" lon="1.79723">
        <ele>340.2</ele>
        <time>2023-03-05T10:51:30Z</time>
      </trkpt>
      <trkpt lat="44.13354" lon="1.79717">
        <ele>340.6</ele>
        <time>2023-03-05T10:51:31Z</time>
      </trkpt>
      <trkpt lat="44.13355" lon="1.79711">
        <ele>341.4</ele>
        <time>2023-03-05T10:51:32Z</time>
      </trkpt>
      <trkpt lat="44.13355" lon="1.79708">
        <ele>341.8</ele>
        <time>2023-03-05T10:51:33Z</time>
      </trkpt>
      <trkpt lat="44.13355" lon="1.79705">
        <ele>342.2</ele>
        <time>2023-03-05T10:51:34Z</time>
      </trkpt>
      <trkpt lat="44.13355" lon="1.79702">
        <ele>342.4</ele>
        <time>2023-03-05T10:51:35Z</time>
      </trkpt>
      <trkpt lat="44.13355" lon="1.797">
        <ele>343.2</ele>
        <time>2023-03-05T10:51:36Z</time>
      </trkpt>
      <trkpt lat="44.13354" lon="1.79698">
        <ele>343.2</ele>
        <time>2023-03-05T10:51:37Z</time>
      </trkpt>
      <trkpt lat="44.13353" lon="1.79697">
        <ele>343.6</ele>
        <time>2023-03-05T10:51:38Z</time>
      </trkpt>
      <trkpt lat="44.13351" lon="1.79696">
        <ele>344</ele>
        <time>2023-03-05T10:51:39Z</time>
      </trkpt>
      <trkpt lat="44.1335" lon="1.79695">
        <ele>344.2</ele>
        <time>2023-03-05T10:51:40Z</time>
      </trkpt>
      <trkpt lat="44.13349" lon="1.79694">
        <ele>344.6</ele>
        <time>2023-03-05T10:51:41Z</time>
      </trkpt>
      <trkpt lat="44.13347" lon="1.79693">
        <ele>344.8</ele>
        <time>2023-03-05T10:51:42Z</time>
      </trkpt>
      <trkpt lat="44.13345" lon="1.79692">
        <ele>345.2</ele>
        <time>2023-03-05T10:51:43Z</time>
      </trkpt>
      <trkpt lat="44.13342" lon="1.7969">
        <ele>345.2</ele>
        <time>2023-03-05T10:51:44Z</time>
      </trkpt>
      <trkpt lat="44.1334" lon="1.79689">
        <ele>345.4</ele>
        <time>2023-03-05T10:51:45Z</time>
      </trkpt>
      <trkpt lat="44.13338" lon="1.79686">
        <ele>345.6</ele>
        <time>2023-03-05T10:51:46Z</time>
      </trkpt>
      <trkpt lat="44.13335" lon="1.79683">
        <ele>345.6</ele>
        <time>2023-03-05T10:51:47Z</time>
      </trkpt>
      <trkpt lat="44.13331" lon="1.79682">
        <ele>345.6</ele>
        <time>2023-03-05T10:51:48Z</time>
      </trkpt>
      <trkpt lat="44.13328" lon="1.79682">
        <ele>345.8</ele>
        <time>2023-03-05T10:51:49Z</time>
      </trkpt>
      <trkpt lat="44.13324" lon="1.79681">
        <ele>346</ele>
        <time>2023-03-05T10:51:50Z</time>
      </trkpt>
      <trkpt lat="44.1332" lon="1.7968">
        <ele>346</ele>
        <time>2023-03-05T10:51:51Z</time>
      </trkpt>
      <trkpt lat="44.13316" lon="1.7968">
        <ele>346.2</ele>
        <time>2023-03-05T10:51:52Z</time>
      </trkpt>
      <trkpt lat="44.13314" lon="1.7968">
        <ele>346.4</ele>
        <time>2023-03-05T10:51:53Z</time>
      </trkpt>
      <trkpt lat="44.13313" lon="1.7968">
        <ele>346.4</ele>
        <time>2023-03-05T10:51:54Z</time>
      </trkpt>
      <trkpt lat="44.1331" lon="1.7968">
        <ele>346.4</ele>
        <time>2023-03-05T10:51:55Z</time>
      </trkpt>
      <trkpt lat="44.13308" lon="1.7968">
        <ele>346.4</ele>
        <time>2023-03-05T10:51:56Z</time>
      </trkpt>
      <trkpt lat="44.13305" lon="1.79679">
        <ele>346.4</ele>
        <time>2023-03-05T10:51:57Z</time>
      </trkpt>
      <trkpt lat="44.13304" lon="1.79679">
        <ele>346.4</ele>
        <time>2023-03-05T10:51:58Z</time>
      </trkpt>
      <trkpt lat="44.13302" lon="1.79679">
        <ele>346.4</ele>
        <time>2023-03-05T10:51:59Z</time>
      </trkpt>
      <trkpt lat="44.13299" lon="1.7968">
        <ele>346.6</ele>
        <time>2023-03-05T10:52:00Z</time>
      </trkpt>
      <trkpt lat="44.13295" lon="1.7968">
        <ele>346.6</ele>
        <time>2023-03-05T10:52:01Z</time>
      </trkpt>
      <trkpt lat="44.13291" lon="1.79679">
        <ele>346.6</ele>
        <time>2023-03-05T10:52:02Z</time>
      </trkpt>
      <trkpt lat="44.13287" lon="1.79678">
        <ele>346.6</ele>
        <time>2023-03-05T10:52:03Z</time>
      </trkpt>
      <trkpt lat="44.13282" lon="1.79677">
        <ele>346.6</ele>
        <time>2023-03-05T10:52:04Z</time>
      </trkpt>
      <trkpt lat="44.13278" lon="1.79677">
        <ele>346.6</ele>
        <time>2023-03-05T10:52:05Z</time>
      </trkpt>
      <trkpt lat="44.13275" lon="1.79677">
        <ele>346.6</ele>
        <time>2023-03-05T10:52:06Z</time>
      </trkpt>
      <trkpt lat="44.13271" lon="1.79676">
        <ele>346.6</ele>
        <time>2023-03-05T10:52:07Z</time>
      </trkpt>
      <trkpt lat="44.13269" lon="1.79676">
        <ele>346.4</ele>
        <time>2023-03-05T10:52:08Z</time>
      </trkpt>
      <trkpt lat="44.13268" lon="1.79676">
        <ele>346.4</ele>
        <time>2023-03-05T10:52:09Z</time>
      </trkpt>
      <trkpt lat="44.13266" lon="1.79676">
        <ele>346.4</ele>
        <time>2023-03-05T10:52:10Z</time>
      </trkpt>
      <trkpt lat="44.13264" lon="1.79675">
        <ele>346.4</ele>
        <time>2023-03-05T10:52:11Z</time>
      </trkpt>
      <trkpt lat="44.13263" lon="1.79674">
        <ele>346.4</ele>
        <time>2023-03-05T10:52:12Z</time>
      </trkpt>
      <trkpt lat="44.13262" lon="1.79673">
        <ele>346.4</ele>
        <time>2023-03-05T10:52:13Z</time>
      </trkpt>
      <trkpt lat="44.13262" lon="1.79672">
        <ele>346.4</ele>
        <time>2023-03-05T10:52:14Z</time>
      </trkpt>
      <trkpt lat="44.13262" lon="1.7967">
        <ele>346.2</ele>
        <time>2023-03-05T10:52:15Z</time>
      </trkpt>
      <trkpt lat="44.13263" lon="1.79667">
        <ele>346.2</ele>
        <time>2023-03-05T10:52:16Z</time>
      </trkpt>
      <trkpt lat="44.13263" lon="1.79664">
        <ele>346.2</ele>
        <time>2023-03-05T10:52:17Z</time>
      </trkpt>
      <trkpt lat="44.13264" lon="1.7966">
        <ele>346.2</ele>
        <time>2023-03-05T10:52:18Z</time>
      </trkpt>
      <trkpt lat="44.13264" lon="1.79657">
        <ele>346.4</ele>
        <time>2023-03-05T10:52:19Z</time>
      </trkpt>
      <trkpt lat="44.13265" lon="1.79655">
        <ele>346.4</ele>
        <time>2023-03-05T10:52:20Z</time>
      </trkpt>
      <trkpt lat="44.13266" lon="1.79652">
        <ele>346.4</ele>
        <time>2023-03-05T10:52:21Z</time>
      </trkpt>
      <trkpt lat="44.13267" lon="1.79649">
        <ele>346.4</ele>
        <time>2023-03-05T10:52:22Z</time>
      </trkpt>
      <trkpt lat="44.13268" lon="1.79646">
        <ele>346.4</ele>
        <time>2023-03-05T10:52:23Z</time>
      </trkpt>
      <trkpt lat="44.13268" lon="1.79644">
        <ele>346.4</ele>
        <time>2023-03-05T10:52:24Z</time>
      </trkpt>
      <trkpt lat="44.13268" lon="1.79641">
        <ele>346.6</ele>
        <time>2023-03-05T10:52:25Z</time>
      </trkpt>
      <trkpt lat="44.13269" lon="1.79639">
        <ele>346.6</ele>
        <time>2023-03-05T10:52:26Z</time>
      </trkpt>
      <trkpt lat="44.13269" lon="1.79636">
        <ele>347</ele>
        <time>2023-03-05T10:52:27Z</time>
      </trkpt>
      <trkpt lat="44.13268" lon="1.79634">
        <ele>347</ele>
        <time>2023-03-05T10:52:28Z</time>
      </trkpt>
      <trkpt lat="44.13266" lon="1.79632">
        <ele>347.2</ele>
        <time>2023-03-05T10:52:29Z</time>
      </trkpt>
      <trkpt lat="44.13264" lon="1.79632">
        <ele>347.2</ele>
        <time>2023-03-05T10:52:30Z</time>
      </trkpt>
      <trkpt lat="44.13262" lon="1.7963">
        <ele>347.2</ele>
        <time>2023-03-05T10:52:31Z</time>
      </trkpt>
      <trkpt lat="44.13258" lon="1.79628">
        <ele>347.2</ele>
        <time>2023-03-05T10:52:32Z</time>
      </trkpt>
      <trkpt lat="44.13254" lon="1.79626">
        <ele>347.4</ele>
        <time>2023-03-05T10:52:33Z</time>
      </trkpt>
      <trkpt lat="44.1325" lon="1.79624">
        <ele>347.4</ele>
        <time>2023-03-05T10:52:34Z</time>
      </trkpt>
      <trkpt lat="44.13246" lon="1.79622">
        <ele>347.4</ele>
        <time>2023-03-05T10:52:35Z</time>
      </trkpt>
      <trkpt lat="44.13242" lon="1.7962">
        <ele>347.4</ele>
        <time>2023-03-05T10:52:36Z</time>
      </trkpt>
      <trkpt lat="44.13238" lon="1.79618">
        <ele>347.4</ele>
        <time>2023-03-05T10:52:37Z</time>
      </trkpt>
      <trkpt lat="44.13235" lon="1.79615">
        <ele>347.4</ele>
        <time>2023-03-05T10:52:38Z</time>
      </trkpt>
      <trkpt lat="44.13234" lon="1.79611">
        <ele>347.2</ele>
        <time>2023-03-05T10:52:39Z</time>
      </trkpt>
      <trkpt lat="44.13234" lon="1.79608">
        <ele>347.2</ele>
        <time>2023-03-05T10:52:40Z</time>
      </trkpt>
      <trkpt lat="44.13234" lon="1.79605">
        <ele>347.2</ele>
        <time>2023-03-05T10:52:41Z</time>
      </trkpt>
      <trkpt lat="44.13235" lon="1.79601">
        <ele>347.2</ele>
        <time>2023-03-05T10:52:42Z</time>
      </trkpt>
      <trkpt lat="44.13235" lon="1.79596">
        <ele>347.2</ele>
        <time>2023-03-05T10:52:43Z</time>
      </trkpt>
      <trkpt lat="44.13235" lon="1.79592">
        <ele>347.2</ele>
        <time>2023-03-05T10:52:44Z</time>
      </trkpt>
      <trkpt lat="44.13236" lon="1.7959">
        <ele>347.2</ele>
        <time>2023-03-05T10:52:45Z</time>
      </trkpt>
      <trkpt lat="44.13237" lon="1.79586">
        <ele>347.2</ele>
        <time>2023-03-05T10:52:46Z</time>
      </trkpt>
      <trkpt lat="44.13238" lon="1.79583">
        <ele>347</ele>
        <time>2023-03-05T10:52:47Z</time>
      </trkpt>
      <trkpt lat="44.1324" lon="1.7958">
        <ele>347</ele>
        <time>2023-03-05T10:52:48Z</time>
      </trkpt>
      <trkpt lat="44.13244" lon="1.79577">
        <ele>347</ele>
        <time>2023-03-05T10:52:49Z</time>
      </trkpt>
      <trkpt lat="44.13247" lon="1.79577">
        <ele>347</ele>
        <time>2023-03-05T10:52:50Z</time>
      </trkpt>
      <trkpt lat="44.13248" lon="1.79577">
        <ele>347</ele>
        <time>2023-03-05T10:52:51Z</time>
      </trkpt>
      <trkpt lat="44.13251" lon="1.79575">
        <ele>347</ele>
        <time>2023-03-05T10:52:52Z</time>
      </trkpt>
      <trkpt lat="44.13256" lon="1.79575">
        <ele>347</ele>
        <time>2023-03-05T10:52:53Z</time>
      </trkpt>
      <trkpt lat="44.1326" lon="1.79576">
        <ele>347.2</ele>
        <time>2023-03-05T10:52:54Z</time>
      </trkpt>
      <trkpt lat="44.13264" lon="1.79575">
        <ele>347.2</ele>
        <time>2023-03-05T10:52:55Z</time>
      </trkpt>
      <trkpt lat="44.13268" lon="1.79574">
        <ele>347.4</ele>
        <time>2023-03-05T10:52:56Z</time>
      </trkpt>
      <trkpt lat="44.13272" lon="1.79574">
        <ele>347.4</ele>
        <time>2023-03-05T10:52:57Z</time>
      </trkpt>
      <trkpt lat="44.13278" lon="1.79574">
        <ele>347.6</ele>
        <time>2023-03-05T10:52:58Z</time>
      </trkpt>
      <trkpt lat="44.13283" lon="1.79575">
        <ele>347.8</ele>
        <time>2023-03-05T10:52:59Z</time>
      </trkpt>
      <trkpt lat="44.13287" lon="1.79575">
        <ele>348</ele>
        <time>2023-03-05T10:53:00Z</time>
      </trkpt>
      <trkpt lat="44.13291" lon="1.79574">
        <ele>348.2</ele>
        <time>2023-03-05T10:53:01Z</time>
      </trkpt>
      <trkpt lat="44.13296" lon="1.79574">
        <ele>348.4</ele>
        <time>2023-03-05T10:53:02Z</time>
      </trkpt>
      <trkpt lat="44.133" lon="1.79573">
        <ele>348.6</ele>
        <time>2023-03-05T10:53:03Z</time>
      </trkpt>
      <trkpt lat="44.13306" lon="1.79572">
        <ele>348.6</ele>
        <time>2023-03-05T10:53:04Z</time>
      </trkpt>
      <trkpt lat="44.13311" lon="1.79571">
        <ele>349.2</ele>
        <time>2023-03-05T10:53:05Z</time>
      </trkpt>
      <trkpt lat="44.13315" lon="1.79569">
        <ele>349.2</ele>
        <time>2023-03-05T10:53:06Z</time>
      </trkpt>
      <trkpt lat="44.13319" lon="1.79567">
        <ele>349.6</ele>
        <time>2023-03-05T10:53:07Z</time>
      </trkpt>
      <trkpt lat="44.13324" lon="1.79565">
        <ele>349.8</ele>
        <time>2023-03-05T10:53:08Z</time>
      </trkpt>
      <trkpt lat="44.13329" lon="1.79561">
        <ele>350</ele>
        <time>2023-03-05T10:53:09Z</time>
      </trkpt>
      <trkpt lat="44.13333" lon="1.79558">
        <ele>350.2</ele>
        <time>2023-03-05T10:53:10Z</time>
      </trkpt>
      <trkpt lat="44.13337" lon="1.79555">
        <ele>350.2</ele>
        <time>2023-03-05T10:53:11Z</time>
      </trkpt>
      <trkpt lat="44.13341" lon="1.79551">
        <ele>350.4</ele>
        <time>2023-03-05T10:53:12Z</time>
      </trkpt>
      <trkpt lat="44.13346" lon="1.79547">
        <ele>350.4</ele>
        <time>2023-03-05T10:53:13Z</time>
      </trkpt>
      <trkpt lat="44.13351" lon="1.79543">
        <ele>350.8</ele>
        <time>2023-03-05T10:53:14Z</time>
      </trkpt>
      <trkpt lat="44.13354" lon="1.79538">
        <ele>351</ele>
        <time>2023-03-05T10:53:15Z</time>
      </trkpt>
      <trkpt lat="44.13358" lon="1.79534">
        <ele>351.4</ele>
        <time>2023-03-05T10:53:16Z</time>
      </trkpt>
      <trkpt lat="44.13361" lon="1.7953">
        <ele>351.6</ele>
        <time>2023-03-05T10:53:17Z</time>
      </trkpt>
      <trkpt lat="44.13365" lon="1.79524">
        <ele>351.8</ele>
        <time>2023-03-05T10:53:18Z</time>
      </trkpt>
      <trkpt lat="44.13369" lon="1.79518">
        <ele>352</ele>
        <time>2023-03-05T10:53:19Z</time>
      </trkpt>
      <trkpt lat="44.13371" lon="1.79512">
        <ele>352.4</ele>
        <time>2023-03-05T10:53:20Z</time>
      </trkpt>
      <trkpt lat="44.13372" lon="1.79506">
        <ele>352.6</ele>
        <time>2023-03-05T10:53:21Z</time>
      </trkpt>
      <trkpt lat="44.13375" lon="1.79499">
        <ele>352.6</ele>
        <time>2023-03-05T10:53:22Z</time>
      </trkpt>
      <trkpt lat="44.13377" lon="1.79494">
        <ele>352.8</ele>
        <time>2023-03-05T10:53:23Z</time>
      </trkpt>
      <trkpt lat="44.13379" lon="1.79487">
        <ele>352.8</ele>
        <time>2023-03-05T10:53:24Z</time>
      </trkpt>
      <trkpt lat="44.13381" lon="1.79479">
        <ele>353</ele>
        <time>2023-03-05T10:53:25Z</time>
      </trkpt>
      <trkpt lat="44.13383" lon="1.79474">
        <ele>353</ele>
        <time>2023-03-05T10:53:26Z</time>
      </trkpt>
      <trkpt lat="44.13385" lon="1.79467">
        <ele>353.2</ele>
        <time>2023-03-05T10:53:27Z</time>
      </trkpt>
      <trkpt lat="44.13387" lon="1.79461">
        <ele>353.4</ele>
        <time>2023-03-05T10:53:28Z</time>
      </trkpt>
      <trkpt lat="44.1339" lon="1.79454">
        <ele>353.4</ele>
        <time>2023-03-05T10:53:29Z</time>
      </trkpt>
      <trkpt lat="44.13392" lon="1.79449">
        <ele>353.4</ele>
        <time>2023-03-05T10:53:30Z</time>
      </trkpt>
      <trkpt lat="44.13395" lon="1.79443">
        <ele>353.6</ele>
        <time>2023-03-05T10:53:31Z</time>
      </trkpt>
      <trkpt lat="44.13396" lon="1.7944">
        <ele>353.6</ele>
        <time>2023-03-05T10:53:32Z</time>
      </trkpt>
      <trkpt lat="44.13399" lon="1.79435">
        <ele>353.8</ele>
        <time>2023-03-05T10:53:33Z</time>
      </trkpt>
      <trkpt lat="44.134" lon="1.7943">
        <ele>354</ele>
        <time>2023-03-05T10:53:34Z</time>
      </trkpt>
      <trkpt lat="44.13401" lon="1.79426">
        <ele>354</ele>
        <time>2023-03-05T10:53:35Z</time>
      </trkpt>
      <trkpt lat="44.134" lon="1.79423">
        <ele>354</ele>
        <time>2023-03-05T10:53:36Z</time>
      </trkpt>
      <trkpt lat="44.13398" lon="1.79421">
        <ele>354</ele>
        <time>2023-03-05T10:53:37Z</time>
      </trkpt>
      <trkpt lat="44.13396" lon="1.79418">
        <ele>354.2</ele>
        <time>2023-03-05T10:53:38Z</time>
      </trkpt>
      <trkpt lat="44.13394" lon="1.79415">
        <ele>354.2</ele>
        <time>2023-03-05T10:53:39Z</time>
      </trkpt>
      <trkpt lat="44.13391" lon="1.79412">
        <ele>354.2</ele>
        <time>2023-03-05T10:53:40Z</time>
      </trkpt>
      <trkpt lat="44.13387" lon="1.79409">
        <ele>354.2</ele>
        <time>2023-03-05T10:53:41Z</time>
      </trkpt>
      <trkpt lat="44.13384" lon="1.79406">
        <ele>354.2</ele>
        <time>2023-03-05T10:53:42Z</time>
      </trkpt>
      <trkpt lat="44.1338" lon="1.79401">
        <ele>354</ele>
        <time>2023-03-05T10:53:43Z</time>
      </trkpt>
      <trkpt lat="44.13375" lon="1.79398">
        <ele>354</ele>
        <time>2023-03-05T10:53:44Z</time>
      </trkpt>
      <trkpt lat="44.1337" lon="1.79394">
        <ele>353.8</ele>
        <time>2023-03-05T10:53:45Z</time>
      </trkpt>
      <trkpt lat="44.13364" lon="1.7939">
        <ele>353.6</ele>
        <time>2023-03-05T10:53:46Z</time>
      </trkpt>
      <trkpt lat="44.13359" lon="1.79386">
        <ele>353.6</ele>
        <time>2023-03-05T10:53:47Z</time>
      </trkpt>
      <trkpt lat="44.13355" lon="1.79382">
        <ele>353.4</ele>
        <time>2023-03-05T10:53:48Z</time>
      </trkpt>
      <trkpt lat="44.13349" lon="1.79377">
        <ele>353.4</ele>
        <time>2023-03-05T10:53:49Z</time>
      </trkpt>
      <trkpt lat="44.13343" lon="1.79372">
        <ele>353.2</ele>
        <time>2023-03-05T10:53:50Z</time>
      </trkpt>
      <trkpt lat="44.13338" lon="1.79367">
        <ele>353.2</ele>
        <time>2023-03-05T10:53:51Z</time>
      </trkpt>
      <trkpt lat="44.13334" lon="1.79362">
        <ele>352.8</ele>
        <time>2023-03-05T10:53:52Z</time>
      </trkpt>
      <trkpt lat="44.13329" lon="1.79357">
        <ele>352.6</ele>
        <time>2023-03-05T10:53:53Z</time>
      </trkpt>
      <trkpt lat="44.13324" lon="1.79353">
        <ele>352</ele>
        <time>2023-03-05T10:53:54Z</time>
      </trkpt>
      <trkpt lat="44.13319" lon="1.79348">
        <ele>351.8</ele>
        <time>2023-03-05T10:53:55Z</time>
      </trkpt>
      <trkpt lat="44.13315" lon="1.79344">
        <ele>351.4</ele>
        <time>2023-03-05T10:53:56Z</time>
      </trkpt>
      <trkpt lat="44.13309" lon="1.79338">
        <ele>351.2</ele>
        <time>2023-03-05T10:53:57Z</time>
      </trkpt>
      <trkpt lat="44.13303" lon="1.79334">
        <ele>351</ele>
        <time>2023-03-05T10:53:58Z</time>
      </trkpt>
      <trkpt lat="44.13297" lon="1.79328">
        <ele>350.8</ele>
        <time>2023-03-05T10:53:59Z</time>
      </trkpt>
      <trkpt lat="44.13291" lon="1.79323">
        <ele>350.6</ele>
        <time>2023-03-05T10:54:00Z</time>
      </trkpt>
      <trkpt lat="44.13286" lon="1.79319">
        <ele>350</ele>
        <time>2023-03-05T10:54:01Z</time>
      </trkpt>
      <trkpt lat="44.1328" lon="1.79313">
        <ele>350</ele>
        <time>2023-03-05T10:54:02Z</time>
      </trkpt>
      <trkpt lat="44.13276" lon="1.79309">
        <ele>349.8</ele>
        <time>2023-03-05T10:54:03Z</time>
      </trkpt>
      <trkpt lat="44.13271" lon="1.79305">
        <ele>349.6</ele>
        <time>2023-03-05T10:54:04Z</time>
      </trkpt>
      <trkpt lat="44.13266" lon="1.793">
        <ele>349.2</ele>
        <time>2023-03-05T10:54:05Z</time>
      </trkpt>
      <trkpt lat="44.1326" lon="1.79295">
        <ele>349</ele>
        <time>2023-03-05T10:54:06Z</time>
      </trkpt>
      <trkpt lat="44.13256" lon="1.79289">
        <ele>348.6</ele>
        <time>2023-03-05T10:54:07Z</time>
      </trkpt>
      <trkpt lat="44.13253" lon="1.79286">
        <ele>348.4</ele>
        <time>2023-03-05T10:54:08Z</time>
      </trkpt>
      <trkpt lat="44.13249" lon="1.79281">
        <ele>348.2</ele>
        <time>2023-03-05T10:54:09Z</time>
      </trkpt>
      <trkpt lat="44.13245" lon="1.79275">
        <ele>348.2</ele>
        <time>2023-03-05T10:54:10Z</time>
      </trkpt>
      <trkpt lat="44.13243" lon="1.79269">
        <ele>348</ele>
        <time>2023-03-05T10:54:11Z</time>
      </trkpt>
      <trkpt lat="44.13241" lon="1.79264">
        <ele>348</ele>
        <time>2023-03-05T10:54:12Z</time>
      </trkpt>
      <trkpt lat="44.13239" lon="1.7926">
        <ele>348</ele>
        <time>2023-03-05T10:54:13Z</time>
      </trkpt>
      <trkpt lat="44.13238" lon="1.79255">
        <ele>348</ele>
        <time>2023-03-05T10:54:14Z</time>
      </trkpt>
      <trkpt lat="44.13234" lon="1.7925">
        <ele>348</ele>
        <time>2023-03-05T10:54:15Z</time>
      </trkpt>
      <trkpt lat="44.13229" lon="1.79243">
        <ele>348</ele>
        <time>2023-03-05T10:54:16Z</time>
      </trkpt>
      <trkpt lat="44.13226" lon="1.79239">
        <ele>348</ele>
        <time>2023-03-05T10:54:17Z</time>
      </trkpt>
      <trkpt lat="44.13221" lon="1.79234">
        <ele>348</ele>
        <time>2023-03-05T10:54:18Z</time>
      </trkpt>
      <trkpt lat="44.13218" lon="1.79231">
        <ele>348</ele>
        <time>2023-03-05T10:54:19Z</time>
      </trkpt>
      <trkpt lat="44.13215" lon="1.79228">
        <ele>348</ele>
        <time>2023-03-05T10:54:20Z</time>
      </trkpt>
      <trkpt lat="44.13212" lon="1.79223">
        <ele>348</ele>
        <time>2023-03-05T10:54:21Z</time>
      </trkpt>
      <trkpt lat="44.13207" lon="1.79219">
        <ele>348</ele>
        <time>2023-03-05T10:54:22Z</time>
      </trkpt>
      <trkpt lat="44.13204" lon="1.79216">
        <ele>348.2</ele>
        <time>2023-03-05T10:54:23Z</time>
      </trkpt>
      <trkpt lat="44.13201" lon="1.79212">
        <ele>348.4</ele>
        <time>2023-03-05T10:54:24Z</time>
      </trkpt>
      <trkpt lat="44.13198" lon="1.79209">
        <ele>348.4</ele>
        <time>2023-03-05T10:54:25Z</time>
      </trkpt>
      <trkpt lat="44.13196" lon="1.79206">
        <ele>348.4</ele>
        <time>2023-03-05T10:54:26Z</time>
      </trkpt>
      <trkpt lat="44.13193" lon="1.79203">
        <ele>348.6</ele>
        <time>2023-03-05T10:54:27Z</time>
      </trkpt>
      <trkpt lat="44.13191" lon="1.792">
        <ele>348.8</ele>
        <time>2023-03-05T10:54:28Z</time>
      </trkpt>
      <trkpt lat="44.13187" lon="1.79196">
        <ele>348.8</ele>
        <time>2023-03-05T10:54:29Z</time>
      </trkpt>
      <trkpt lat="44.13185" lon="1.79194">
        <ele>349.2</ele>
        <time>2023-03-05T10:54:30Z</time>
      </trkpt>
      <trkpt lat="44.13182" lon="1.79191">
        <ele>349.2</ele>
        <time>2023-03-05T10:54:31Z</time>
      </trkpt>
      <trkpt lat="44.1318" lon="1.79188">
        <ele>349.4</ele>
        <time>2023-03-05T10:54:32Z</time>
      </trkpt>
      <trkpt lat="44.13177" lon="1.79185">
        <ele>349.4</ele>
        <time>2023-03-05T10:54:33Z</time>
      </trkpt>
      <trkpt lat="44.13174" lon="1.79181">
        <ele>349.6</ele>
        <time>2023-03-05T10:54:34Z</time>
      </trkpt>
      <trkpt lat="44.13171" lon="1.79179">
        <ele>349.6</ele>
        <time>2023-03-05T10:54:35Z</time>
      </trkpt>
      <trkpt lat="44.13168" lon="1.79175">
        <ele>350</ele>
        <time>2023-03-05T10:54:36Z</time>
      </trkpt>
      <trkpt lat="44.13166" lon="1.79172">
        <ele>350.2</ele>
        <time>2023-03-05T10:54:37Z</time>
      </trkpt>
      <trkpt lat="44.13163" lon="1.79168">
        <ele>350.2</ele>
        <time>2023-03-05T10:54:38Z</time>
      </trkpt>
      <trkpt lat="44.13162" lon="1.79166">
        <ele>350.4</ele>
        <time>2023-03-05T10:54:39Z</time>
      </trkpt>
      <trkpt lat="44.1316" lon="1.79163">
        <ele>350.4</ele>
        <time>2023-03-05T10:54:40Z</time>
      </trkpt>
      <trkpt lat="44.13158" lon="1.79161">
        <ele>350.6</ele>
        <time>2023-03-05T10:54:41Z</time>
      </trkpt>
      <trkpt lat="44.13158" lon="1.79158">
        <ele>350.6</ele>
        <time>2023-03-05T10:54:42Z</time>
      </trkpt>
      <trkpt lat="44.13158" lon="1.79155">
        <ele>350.8</ele>
        <time>2023-03-05T10:54:43Z</time>
      </trkpt>
      <trkpt lat="44.1316" lon="1.79152">
        <ele>350.8</ele>
        <time>2023-03-05T10:54:44Z</time>
      </trkpt>
      <trkpt lat="44.13162" lon="1.7915">
        <ele>351</ele>
        <time>2023-03-05T10:54:45Z</time>
      </trkpt>
      <trkpt lat="44.13165" lon="1.79147">
        <ele>351.2</ele>
        <time>2023-03-05T10:54:46Z</time>
      </trkpt>
      <trkpt lat="44.13168" lon="1.79142">
        <ele>351.2</ele>
        <time>2023-03-05T10:54:47Z</time>
      </trkpt>
      <trkpt lat="44.13172" lon="1.79138">
        <ele>351.4</ele>
        <time>2023-03-05T10:54:48Z</time>
      </trkpt>
      <trkpt lat="44.13176" lon="1.79134">
        <ele>351.6</ele>
        <time>2023-03-05T10:54:49Z</time>
      </trkpt>
      <trkpt lat="44.13179" lon="1.79131">
        <ele>351.6</ele>
        <time>2023-03-05T10:54:50Z</time>
      </trkpt>
      <trkpt lat="44.13182" lon="1.79127">
        <ele>351.6</ele>
        <time>2023-03-05T10:54:51Z</time>
      </trkpt>
      <trkpt lat="44.13186" lon="1.79123">
        <ele>351.8</ele>
        <time>2023-03-05T10:54:52Z</time>
      </trkpt>
      <trkpt lat="44.13189" lon="1.7912">
        <ele>351.8</ele>
        <time>2023-03-05T10:54:53Z</time>
      </trkpt>
      <trkpt lat="44.13193" lon="1.79116">
        <ele>352.2</ele>
        <time>2023-03-05T10:54:54Z</time>
      </trkpt>
      <trkpt lat="44.13197" lon="1.79112">
        <ele>352.2</ele>
        <time>2023-03-05T10:54:55Z</time>
      </trkpt>
      <trkpt lat="44.132" lon="1.79108">
        <ele>352.6</ele>
        <time>2023-03-05T10:54:56Z</time>
      </trkpt>
      <trkpt lat="44.13203" lon="1.79104">
        <ele>353</ele>
        <time>2023-03-05T10:54:57Z</time>
      </trkpt>
      <trkpt lat="44.13207" lon="1.79101">
        <ele>353</ele>
        <time>2023-03-05T10:54:58Z</time>
      </trkpt>
      <trkpt lat="44.13211" lon="1.79097">
        <ele>353.4</ele>
        <time>2023-03-05T10:54:59Z</time>
      </trkpt>
      <trkpt lat="44.13215" lon="1.79093">
        <ele>353.6</ele>
        <time>2023-03-05T10:55:00Z</time>
      </trkpt>
      <trkpt lat="44.13218" lon="1.7909">
        <ele>353.8</ele>
        <time>2023-03-05T10:55:01Z</time>
      </trkpt>
      <trkpt lat="44.13221" lon="1.79086">
        <ele>353.8</ele>
        <time>2023-03-05T10:55:02Z</time>
      </trkpt>
      <trkpt lat="44.13225" lon="1.79082">
        <ele>354.2</ele>
        <time>2023-03-05T10:55:03Z</time>
      </trkpt>
      <trkpt lat="44.13228" lon="1.79078">
        <ele>354.4</ele>
        <time>2023-03-05T10:55:04Z</time>
      </trkpt>
      <trkpt lat="44.13232" lon="1.79074">
        <ele>354.6</ele>
        <time>2023-03-05T10:55:05Z</time>
      </trkpt>
      <trkpt lat="44.13235" lon="1.7907">
        <ele>354.6</ele>
        <time>2023-03-05T10:55:06Z</time>
      </trkpt>
      <trkpt lat="44.13239" lon="1.79066">
        <ele>354.6</ele>
        <time>2023-03-05T10:55:07Z</time>
      </trkpt>
      <trkpt lat="44.13243" lon="1.79062">
        <ele>354.8</ele>
        <time>2023-03-05T10:55:08Z</time>
      </trkpt>
      <trkpt lat="44.13247" lon="1.79057">
        <ele>354.8</ele>
        <time>2023-03-05T10:55:09Z</time>
      </trkpt>
      <trkpt lat="44.13251" lon="1.79054">
        <ele>355</ele>
        <time>2023-03-05T10:55:10Z</time>
      </trkpt>
      <trkpt lat="44.13254" lon="1.79051">
        <ele>355</ele>
        <time>2023-03-05T10:55:11Z</time>
      </trkpt>
      <trkpt lat="44.13258" lon="1.79047">
        <ele>355.2</ele>
        <time>2023-03-05T10:55:12Z</time>
      </trkpt>
      <trkpt lat="44.13262" lon="1.79044">
        <ele>355.2</ele>
        <time>2023-03-05T10:55:13Z</time>
      </trkpt>
      <trkpt lat="44.13266" lon="1.7904">
        <ele>355.4</ele>
        <time>2023-03-05T10:55:14Z</time>
      </trkpt>
      <trkpt lat="44.13271" lon="1.79036">
        <ele>355.4</ele>
        <time>2023-03-05T10:55:15Z</time>
      </trkpt>
      <trkpt lat="44.13275" lon="1.79033">
        <ele>355.6</ele>
        <time>2023-03-05T10:55:16Z</time>
      </trkpt>
      <trkpt lat="44.13278" lon="1.79031">
        <ele>355.8</ele>
        <time>2023-03-05T10:55:17Z</time>
      </trkpt>
      <trkpt lat="44.13282" lon="1.79028">
        <ele>355.8</ele>
        <time>2023-03-05T10:55:18Z</time>
      </trkpt>
      <trkpt lat="44.13286" lon="1.79025">
        <ele>356.2</ele>
        <time>2023-03-05T10:55:19Z</time>
      </trkpt>
      <trkpt lat="44.1329" lon="1.79023">
        <ele>356.4</ele>
        <time>2023-03-05T10:55:20Z</time>
      </trkpt>
      <trkpt lat="44.13293" lon="1.79022">
        <ele>356.8</ele>
        <time>2023-03-05T10:55:21Z</time>
      </trkpt>
      <trkpt lat="44.13296" lon="1.79022">
        <ele>356.8</ele>
        <time>2023-03-05T10:55:22Z</time>
      </trkpt>
      <trkpt lat="44.13299" lon="1.79023">
        <ele>357</ele>
        <time>2023-03-05T10:55:23Z</time>
      </trkpt>
      <trkpt lat="44.13303" lon="1.79023">
        <ele>357</ele>
        <time>2023-03-05T10:55:24Z</time>
      </trkpt>
      <trkpt lat="44.13306" lon="1.79021">
        <ele>357</ele>
        <time>2023-03-05T10:55:25Z</time>
      </trkpt>
      <trkpt lat="44.13308" lon="1.79017">
        <ele>357.2</ele>
        <time>2023-03-05T10:55:26Z</time>
      </trkpt>
      <trkpt lat="44.1331" lon="1.79014">
        <ele>357.2</ele>
        <time>2023-03-05T10:55:27Z</time>
      </trkpt>
      <trkpt lat="44.13314" lon="1.7901">
        <ele>357.2</ele>
        <time>2023-03-05T10:55:28Z</time>
      </trkpt>
      <trkpt lat="44.13318" lon="1.79007">
        <ele>357.4</ele>
        <time>2023-03-05T10:55:29Z</time>
      </trkpt>
      <trkpt lat="44.13322" lon="1.79003">
        <ele>357.6</ele>
        <time>2023-03-05T10:55:30Z</time>
      </trkpt>
      <trkpt lat="44.13326" lon="1.79">
        <ele>357.8</ele>
        <time>2023-03-05T10:55:31Z</time>
      </trkpt>
      <trkpt lat="44.1333" lon="1.78997">
        <ele>357.8</ele>
        <time>2023-03-05T10:55:32Z</time>
      </trkpt>
      <trkpt lat="44.13333" lon="1.78995">
        <ele>357.8</ele>
        <time>2023-03-05T10:55:33Z</time>
      </trkpt>
      <trkpt lat="44.13337" lon="1.78992">
        <ele>358</ele>
        <time>2023-03-05T10:55:34Z</time>
      </trkpt>
      <trkpt lat="44.13342" lon="1.78989">
        <ele>358</ele>
        <time>2023-03-05T10:55:35Z</time>
      </trkpt>
      <trkpt lat="44.13345" lon="1.78986">
        <ele>358.2</ele>
        <time>2023-03-05T10:55:36Z</time>
      </trkpt>
      <trkpt lat="44.1335" lon="1.78982">
        <ele>358.6</ele>
        <time>2023-03-05T10:55:37Z</time>
      </trkpt>
      <trkpt lat="44.13354" lon="1.78978">
        <ele>358.8</ele>
        <time>2023-03-05T10:55:38Z</time>
      </trkpt>
      <trkpt lat="44.13358" lon="1.78975">
        <ele>359</ele>
        <time>2023-03-05T10:55:39Z</time>
      </trkpt>
      <trkpt lat="44.13362" lon="1.78972">
        <ele>359.2</ele>
        <time>2023-03-05T10:55:40Z</time>
      </trkpt>
      <trkpt lat="44.13367" lon="1.78969">
        <ele>359.4</ele>
        <time>2023-03-05T10:55:41Z</time>
      </trkpt>
      <trkpt lat="44.13371" lon="1.78966">
        <ele>359.4</ele>
        <time>2023-03-05T10:55:42Z</time>
      </trkpt>
      <trkpt lat="44.13374" lon="1.78963">
        <ele>359.8</ele>
        <time>2023-03-05T10:55:43Z</time>
      </trkpt>
      <trkpt lat="44.13378" lon="1.78961">
        <ele>360</ele>
        <time>2023-03-05T10:55:44Z</time>
      </trkpt>
      <trkpt lat="44.13381" lon="1.78959">
        <ele>360.2</ele>
        <time>2023-03-05T10:55:45Z</time>
      </trkpt>
      <trkpt lat="44.13384" lon="1.78956">
        <ele>360.4</ele>
        <time>2023-03-05T10:55:46Z</time>
      </trkpt>
      <trkpt lat="44.13386" lon="1.78955">
        <ele>360.6</ele>
        <time>2023-03-05T10:55:47Z</time>
      </trkpt>
      <trkpt lat="44.13388" lon="1.78953">
        <ele>360.6</ele>
        <time>2023-03-05T10:55:48Z</time>
      </trkpt>
      <trkpt lat="44.1339" lon="1.78951">
        <ele>360.8</ele>
        <time>2023-03-05T10:55:49Z</time>
      </trkpt>
      <trkpt lat="44.13392" lon="1.78948">
        <ele>361.2</ele>
        <time>2023-03-05T10:55:50Z</time>
      </trkpt>
      <trkpt lat="44.13395" lon="1.78945">
        <ele>361.2</ele>
        <time>2023-03-05T10:55:51Z</time>
      </trkpt>
      <trkpt lat="44.13397" lon="1.78941">
        <ele>361.4</ele>
        <time>2023-03-05T10:55:52Z</time>
      </trkpt>
      <trkpt lat="44.134" lon="1.78937">
        <ele>361.6</ele>
        <time>2023-03-05T10:55:53Z</time>
      </trkpt>
      <trkpt lat="44.13403" lon="1.78933">
        <ele>362.2</ele>
        <time>2023-03-05T10:55:54Z</time>
      </trkpt>
      <trkpt lat="44.13406" lon="1.78931">
        <ele>362.6</ele>
        <time>2023-03-05T10:55:55Z</time>
      </trkpt>
      <trkpt lat="44.13409" lon="1.78927">
        <ele>362.6</ele>
        <time>2023-03-05T10:55:56Z</time>
      </trkpt>
      <trkpt lat="44.13412" lon="1.78923">
        <ele>363</ele>
        <time>2023-03-05T10:55:57Z</time>
      </trkpt>
      <trkpt lat="44.13415" lon="1.78921">
        <ele>363.4</ele>
        <time>2023-03-05T10:55:58Z</time>
      </trkpt>
      <trkpt lat="44.1342" lon="1.78919">
        <ele>363.8</ele>
        <time>2023-03-05T10:55:59Z</time>
      </trkpt>
      <trkpt lat="44.13423" lon="1.78917">
        <ele>363.8</ele>
        <time>2023-03-05T10:56:00Z</time>
      </trkpt>
      <trkpt lat="44.13426" lon="1.78915">
        <ele>364</ele>
        <time>2023-03-05T10:56:01Z</time>
      </trkpt>
      <trkpt lat="44.13428" lon="1.78913">
        <ele>364.2</ele>
        <time>2023-03-05T10:56:02Z</time>
      </trkpt>
      <trkpt lat="44.13431" lon="1.78913">
        <ele>364.6</ele>
        <time>2023-03-05T10:56:03Z</time>
      </trkpt>
      <trkpt lat="44.13434" lon="1.7891">
        <ele>364.6</ele>
        <time>2023-03-05T10:56:04Z</time>
      </trkpt>
      <trkpt lat="44.13437" lon="1.78908">
        <ele>365</ele>
        <time>2023-03-05T10:56:05Z</time>
      </trkpt>
      <trkpt lat="44.13441" lon="1.78906">
        <ele>365.2</ele>
        <time>2023-03-05T10:56:06Z</time>
      </trkpt>
      <trkpt lat="44.13445" lon="1.78903">
        <ele>365.2</ele>
        <time>2023-03-05T10:56:07Z</time>
      </trkpt>
      <trkpt lat="44.13449" lon="1.78901">
        <ele>365.6</ele>
        <time>2023-03-05T10:56:08Z</time>
      </trkpt>
      <trkpt lat="44.13453" lon="1.78898">
        <ele>365.8</ele>
        <time>2023-03-05T10:56:09Z</time>
      </trkpt>
      <trkpt lat="44.13457" lon="1.78896">
        <ele>366</ele>
        <time>2023-03-05T10:56:10Z</time>
      </trkpt>
      <trkpt lat="44.13462" lon="1.78893">
        <ele>366.2</ele>
        <time>2023-03-05T10:56:11Z</time>
      </trkpt>
      <trkpt lat="44.13466" lon="1.78891">
        <ele>366.8</ele>
        <time>2023-03-05T10:56:12Z</time>
      </trkpt>
      <trkpt lat="44.1347" lon="1.78889">
        <ele>367</ele>
        <time>2023-03-05T10:56:13Z</time>
      </trkpt>
      <trkpt lat="44.13473" lon="1.78888">
        <ele>367.4</ele>
        <time>2023-03-05T10:56:14Z</time>
      </trkpt>
      <trkpt lat="44.13477" lon="1.78887">
        <ele>367.6</ele>
        <time>2023-03-05T10:56:15Z</time>
      </trkpt>
      <trkpt lat="44.13481" lon="1.78885">
        <ele>367.6</ele>
        <time>2023-03-05T10:56:16Z</time>
      </trkpt>
      <trkpt lat="44.13486" lon="1.78884">
        <ele>367.8</ele>
        <time>2023-03-05T10:56:17Z</time>
      </trkpt>
      <trkpt lat="44.13489" lon="1.78883">
        <ele>367.8</ele>
        <time>2023-03-05T10:56:18Z</time>
      </trkpt>
      <trkpt lat="44.13493" lon="1.78881">
        <ele>368</ele>
        <time>2023-03-05T10:56:19Z</time>
      </trkpt>
      <trkpt lat="44.13496" lon="1.78879">
        <ele>368</ele>
        <time>2023-03-05T10:56:20Z</time>
      </trkpt>
      <trkpt lat="44.13499" lon="1.78879">
        <ele>368.2</ele>
        <time>2023-03-05T10:56:21Z</time>
      </trkpt>
      <trkpt lat="44.13502" lon="1.78878">
        <ele>368.2</ele>
        <time>2023-03-05T10:56:22Z</time>
      </trkpt>
      <trkpt lat="44.13504" lon="1.78876">
        <ele>368.4</ele>
        <time>2023-03-05T10:56:23Z</time>
      </trkpt>
      <trkpt lat="44.13505" lon="1.78875">
        <ele>368.4</ele>
        <time>2023-03-05T10:56:24Z</time>
      </trkpt>
      <trkpt lat="44.13507" lon="1.78875">
        <ele>368.6</ele>
        <time>2023-03-05T10:56:25Z</time>
      </trkpt>
      <trkpt lat="44.13509" lon="1.78874">
        <ele>368.6</ele>
        <time>2023-03-05T10:56:26Z</time>
      </trkpt>
      <trkpt lat="44.1351" lon="1.78874">
        <ele>368.8</ele>
        <time>2023-03-05T10:56:27Z</time>
      </trkpt>
      <trkpt lat="44.13512" lon="1.78873">
        <ele>368.8</ele>
        <time>2023-03-05T10:56:28Z</time>
      </trkpt>
      <trkpt lat="44.13514" lon="1.78873">
        <ele>369</ele>
        <time>2023-03-05T10:56:29Z</time>
      </trkpt>
      <trkpt lat="44.13515" lon="1.78872">
        <ele>369</ele>
        <time>2023-03-05T10:56:30Z</time>
      </trkpt>
      <trkpt lat="44.13518" lon="1.78872">
        <ele>369</ele>
        <time>2023-03-05T10:56:31Z</time>
      </trkpt>
      <trkpt lat="44.13521" lon="1.78871">
        <ele>369.4</ele>
        <time>2023-03-05T10:56:32Z</time>
      </trkpt>
      <trkpt lat="44.13524" lon="1.7887">
        <ele>369.4</ele>
        <time>2023-03-05T10:56:33Z</time>
      </trkpt>
      <trkpt lat="44.13527" lon="1.78869">
        <ele>369.6</ele>
        <time>2023-03-05T10:56:34Z</time>
      </trkpt>
      <trkpt lat="44.13529" lon="1.78868">
        <ele>370</ele>
        <time>2023-03-05T10:56:35Z</time>
      </trkpt>
      <trkpt lat="44.13532" lon="1.78866">
        <ele>370.2</ele>
        <time>2023-03-05T10:56:36Z</time>
      </trkpt>
      <trkpt lat="44.13536" lon="1.78864">
        <ele>370.4</ele>
        <time>2023-03-05T10:56:37Z</time>
      </trkpt>
      <trkpt lat="44.13539" lon="1.78863">
        <ele>370.8</ele>
        <time>2023-03-05T10:56:38Z</time>
      </trkpt>
      <trkpt lat="44.13542" lon="1.78862">
        <ele>371.2</ele>
        <time>2023-03-05T10:56:39Z</time>
      </trkpt>
      <trkpt lat="44.13545" lon="1.7886">
        <ele>371.2</ele>
        <time>2023-03-05T10:56:40Z</time>
      </trkpt>
      <trkpt lat="44.13548" lon="1.78858">
        <ele>371.6</ele>
        <time>2023-03-05T10:56:41Z</time>
      </trkpt>
      <trkpt lat="44.13551" lon="1.78855">
        <ele>371.6</ele>
        <time>2023-03-05T10:56:42Z</time>
      </trkpt>
      <trkpt lat="44.13553" lon="1.78853">
        <ele>371.8</ele>
        <time>2023-03-05T10:56:43Z</time>
      </trkpt>
      <trkpt lat="44.13555" lon="1.78852">
        <ele>371.8</ele>
        <time>2023-03-05T10:56:44Z</time>
      </trkpt>
      <trkpt lat="44.13557" lon="1.7885">
        <ele>372</ele>
        <time>2023-03-05T10:56:45Z</time>
      </trkpt>
      <trkpt lat="44.1356" lon="1.78849">
        <ele>372.2</ele>
        <time>2023-03-05T10:56:46Z</time>
      </trkpt>
      <trkpt lat="44.13564" lon="1.78847">
        <ele>372.2</ele>
        <time>2023-03-05T10:56:47Z</time>
      </trkpt>
      <trkpt lat="44.13568" lon="1.78845">
        <ele>372.2</ele>
        <time>2023-03-05T10:56:48Z</time>
      </trkpt>
      <trkpt lat="44.13574" lon="1.78843">
        <ele>372.4</ele>
        <time>2023-03-05T10:56:49Z</time>
      </trkpt>
      <trkpt lat="44.13577" lon="1.78842">
        <ele>372.4</ele>
        <time>2023-03-05T10:56:50Z</time>
      </trkpt>
      <trkpt lat="44.13582" lon="1.7884">
        <ele>372.4</ele>
        <time>2023-03-05T10:56:51Z</time>
      </trkpt>
      <trkpt lat="44.13586" lon="1.78839">
        <ele>372.4</ele>
        <time>2023-03-05T10:56:52Z</time>
      </trkpt>
      <trkpt lat="44.13591" lon="1.78836">
        <ele>372.4</ele>
        <time>2023-03-05T10:56:53Z</time>
      </trkpt>
      <trkpt lat="44.13595" lon="1.78834">
        <ele>372.4</ele>
        <time>2023-03-05T10:56:54Z</time>
      </trkpt>
      <trkpt lat="44.13599" lon="1.78831">
        <ele>372.4</ele>
        <time>2023-03-05T10:56:55Z</time>
      </trkpt>
      <trkpt lat="44.13603" lon="1.78829">
        <ele>372.4</ele>
        <time>2023-03-05T10:56:56Z</time>
      </trkpt>
      <trkpt lat="44.13614" lon="1.78828">
        <ele>372.4</ele>
        <time>2023-03-05T10:56:57Z</time>
      </trkpt>
      <trkpt lat="44.13619" lon="1.78827">
        <ele>372.4</ele>
        <time>2023-03-05T10:56:58Z</time>
      </trkpt>
      <trkpt lat="44.13623" lon="1.78825">
        <ele>372.4</ele>
        <time>2023-03-05T10:56:59Z</time>
      </trkpt>
      <trkpt lat="44.13626" lon="1.78824">
        <ele>372.4</ele>
        <time>2023-03-05T10:57:00Z</time>
      </trkpt>
      <trkpt lat="44.1363" lon="1.78822">
        <ele>372.6</ele>
        <time>2023-03-05T10:57:01Z</time>
      </trkpt>
      <trkpt lat="44.13632" lon="1.78821">
        <ele>372.6</ele>
        <time>2023-03-05T10:57:02Z</time>
      </trkpt>
      <trkpt lat="44.13635" lon="1.78821">
        <ele>372.8</ele>
        <time>2023-03-05T10:57:03Z</time>
      </trkpt>
      <trkpt lat="44.13639" lon="1.78821">
        <ele>372.8</ele>
        <time>2023-03-05T10:57:04Z</time>
      </trkpt>
      <trkpt lat="44.13641" lon="1.7882">
        <ele>373</ele>
        <time>2023-03-05T10:57:05Z</time>
      </trkpt>
      <trkpt lat="44.13648" lon="1.78818">
        <ele>373</ele>
        <time>2023-03-05T10:57:06Z</time>
      </trkpt>
      <trkpt lat="44.13652" lon="1.78816">
        <ele>373</ele>
        <time>2023-03-05T10:57:07Z</time>
      </trkpt>
      <trkpt lat="44.13655" lon="1.78814">
        <ele>373</ele>
        <time>2023-03-05T10:57:08Z</time>
      </trkpt>
      <trkpt lat="44.13658" lon="1.78812">
        <ele>373</ele>
        <time>2023-03-05T10:57:09Z</time>
      </trkpt>
      <trkpt lat="44.13661" lon="1.7881">
        <ele>373</ele>
        <time>2023-03-05T10:57:10Z</time>
      </trkpt>
      <trkpt lat="44.13664" lon="1.78809">
        <ele>373</ele>
        <time>2023-03-05T10:57:11Z</time>
      </trkpt>
      <trkpt lat="44.13667" lon="1.78807">
        <ele>373</ele>
        <time>2023-03-05T10:57:12Z</time>
      </trkpt>
      <trkpt lat="44.1367" lon="1.78804">
        <ele>373.2</ele>
        <time>2023-03-05T10:57:13Z</time>
      </trkpt>
      <trkpt lat="44.13673" lon="1.78802">
        <ele>373.2</ele>
        <time>2023-03-05T10:57:14Z</time>
      </trkpt>
      <trkpt lat="44.13676" lon="1.788">
        <ele>373.2</ele>
        <time>2023-03-05T10:57:15Z</time>
      </trkpt>
      <trkpt lat="44.13678" lon="1.78798">
        <ele>373.2</ele>
        <time>2023-03-05T10:57:16Z</time>
      </trkpt>
      <trkpt lat="44.13681" lon="1.78797">
        <ele>373.2</ele>
        <time>2023-03-05T10:57:17Z</time>
      </trkpt>
      <trkpt lat="44.13684" lon="1.78794">
        <ele>373.2</ele>
        <time>2023-03-05T10:57:18Z</time>
      </trkpt>
      <trkpt lat="44.13688" lon="1.78792">
        <ele>373.2</ele>
        <time>2023-03-05T10:57:19Z</time>
      </trkpt>
      <trkpt lat="44.13692" lon="1.7879">
        <ele>373.2</ele>
        <time>2023-03-05T10:57:20Z</time>
      </trkpt>
      <trkpt lat="44.13695" lon="1.78788">
        <ele>373</ele>
        <time>2023-03-05T10:57:21Z</time>
      </trkpt>
      <trkpt lat="44.13698" lon="1.78786">
        <ele>373</ele>
        <time>2023-03-05T10:57:22Z</time>
      </trkpt>
      <trkpt lat="44.13702" lon="1.78785">
        <ele>373</ele>
        <time>2023-03-05T10:57:23Z</time>
      </trkpt>
      <trkpt lat="44.13705" lon="1.78783">
        <ele>372.8</ele>
        <time>2023-03-05T10:57:24Z</time>
      </trkpt>
      <trkpt lat="44.13709" lon="1.78782">
        <ele>372.8</ele>
        <time>2023-03-05T10:57:25Z</time>
      </trkpt>
      <trkpt lat="44.13712" lon="1.78781">
        <ele>372.8</ele>
        <time>2023-03-05T10:57:26Z</time>
      </trkpt>
      <trkpt lat="44.13717" lon="1.78781">
        <ele>372.8</ele>
        <time>2023-03-05T10:57:27Z</time>
      </trkpt>
      <trkpt lat="44.13721" lon="1.78783">
        <ele>372.8</ele>
        <time>2023-03-05T10:57:28Z</time>
      </trkpt>
      <trkpt lat="44.13724" lon="1.78786">
        <ele>372.8</ele>
        <time>2023-03-05T10:57:29Z</time>
      </trkpt>
      <trkpt lat="44.13727" lon="1.78789">
        <ele>372.8</ele>
        <time>2023-03-05T10:57:30Z</time>
      </trkpt>
      <trkpt lat="44.13729" lon="1.78793">
        <ele>372.8</ele>
        <time>2023-03-05T10:57:31Z</time>
      </trkpt>
      <trkpt lat="44.13732" lon="1.78796">
        <ele>372.8</ele>
        <time>2023-03-05T10:57:32Z</time>
      </trkpt>
      <trkpt lat="44.13734" lon="1.788">
        <ele>372.8</ele>
        <time>2023-03-05T10:57:33Z</time>
      </trkpt>
      <trkpt lat="44.13737" lon="1.78803">
        <ele>372.8</ele>
        <time>2023-03-05T10:57:34Z</time>
      </trkpt>
      <trkpt lat="44.13739" lon="1.78804">
        <ele>372.8</ele>
        <time>2023-03-05T10:57:35Z</time>
      </trkpt>
      <trkpt lat="44.13741" lon="1.78804">
        <ele>372.6</ele>
        <time>2023-03-05T10:57:36Z</time>
      </trkpt>
      <trkpt lat="44.13744" lon="1.78801">
        <ele>372.6</ele>
        <time>2023-03-05T10:57:37Z</time>
      </trkpt>
      <trkpt lat="44.13747" lon="1.78797">
        <ele>372.4</ele>
        <time>2023-03-05T10:57:38Z</time>
      </trkpt>
      <trkpt lat="44.13752" lon="1.78791">
        <ele>372.4</ele>
        <time>2023-03-05T10:57:39Z</time>
      </trkpt>
      <trkpt lat="44.13755" lon="1.78786">
        <ele>372.2</ele>
        <time>2023-03-05T10:57:40Z</time>
      </trkpt>
      <trkpt lat="44.13759" lon="1.7878">
        <ele>372</ele>
        <time>2023-03-05T10:57:41Z</time>
      </trkpt>
      <trkpt lat="44.13762" lon="1.78775">
        <ele>372</ele>
        <time>2023-03-05T10:57:42Z</time>
      </trkpt>
      <trkpt lat="44.13766" lon="1.78769">
        <ele>371.8</ele>
        <time>2023-03-05T10:57:43Z</time>
      </trkpt>
      <trkpt lat="44.13772" lon="1.78761">
        <ele>371.8</ele>
        <time>2023-03-05T10:57:44Z</time>
      </trkpt>
      <trkpt lat="44.13777" lon="1.78754">
        <ele>371.8</ele>
        <time>2023-03-05T10:57:45Z</time>
      </trkpt>
      <trkpt lat="44.13783" lon="1.78748">
        <ele>371.8</ele>
        <time>2023-03-05T10:57:46Z</time>
      </trkpt>
      <trkpt lat="44.13787" lon="1.78742">
        <ele>371.8</ele>
        <time>2023-03-05T10:57:47Z</time>
      </trkpt>
      <trkpt lat="44.13791" lon="1.78735">
        <ele>371.6</ele>
        <time>2023-03-05T10:57:48Z</time>
      </trkpt>
      <trkpt lat="44.13797" lon="1.78728">
        <ele>371.6</ele>
        <time>2023-03-05T10:57:49Z</time>
      </trkpt>
      <trkpt lat="44.13803" lon="1.78719">
        <ele>371.6</ele>
        <time>2023-03-05T10:57:50Z</time>
      </trkpt>
      <trkpt lat="44.13809" lon="1.78712">
        <ele>371.6</ele>
        <time>2023-03-05T10:57:51Z</time>
      </trkpt>
      <trkpt lat="44.13814" lon="1.78709">
        <ele>371.6</ele>
        <time>2023-03-05T10:57:52Z</time>
      </trkpt>
      <trkpt lat="44.13818" lon="1.78705">
        <ele>371.4</ele>
        <time>2023-03-05T10:57:53Z</time>
      </trkpt>
      <trkpt lat="44.13826" lon="1.78697">
        <ele>371</ele>
        <time>2023-03-05T10:57:54Z</time>
      </trkpt>
      <trkpt lat="44.13832" lon="1.78691">
        <ele>370.8</ele>
        <time>2023-03-05T10:57:55Z</time>
      </trkpt>
      <trkpt lat="44.13839" lon="1.78683">
        <ele>370.6</ele>
        <time>2023-03-05T10:57:56Z</time>
      </trkpt>
      <trkpt lat="44.13845" lon="1.78677">
        <ele>370.4</ele>
        <time>2023-03-05T10:57:57Z</time>
      </trkpt>
      <trkpt lat="44.1385" lon="1.78672">
        <ele>370.2</ele>
        <time>2023-03-05T10:57:58Z</time>
      </trkpt>
      <trkpt lat="44.13856" lon="1.78666">
        <ele>369.8</ele>
        <time>2023-03-05T10:57:59Z</time>
      </trkpt>
      <trkpt lat="44.13861" lon="1.78662">
        <ele>369.8</ele>
        <time>2023-03-05T10:58:00Z</time>
      </trkpt>
      <trkpt lat="44.13866" lon="1.78658">
        <ele>369.6</ele>
        <time>2023-03-05T10:58:01Z</time>
      </trkpt>
      <trkpt lat="44.13875" lon="1.7865">
        <ele>369.6</ele>
        <time>2023-03-05T10:58:02Z</time>
      </trkpt>
      <trkpt lat="44.13879" lon="1.78648">
        <ele>369.4</ele>
        <time>2023-03-05T10:58:03Z</time>
      </trkpt>
      <trkpt lat="44.13883" lon="1.78649">
        <ele>369.2</ele>
        <time>2023-03-05T10:58:04Z</time>
      </trkpt>
      <trkpt lat="44.13887" lon="1.78653">
        <ele>369</ele>
        <time>2023-03-05T10:58:05Z</time>
      </trkpt>
      <trkpt lat="44.13889" lon="1.7866">
        <ele>368.8</ele>
        <time>2023-03-05T10:58:06Z</time>
      </trkpt>
      <trkpt lat="44.1389" lon="1.78667">
        <ele>368.4</ele>
        <time>2023-03-05T10:58:07Z</time>
      </trkpt>
      <trkpt lat="44.13892" lon="1.78675">
        <ele>367.8</ele>
        <time>2023-03-05T10:58:08Z</time>
      </trkpt>
      <trkpt lat="44.13894" lon="1.78683">
        <ele>367.8</ele>
        <time>2023-03-05T10:58:09Z</time>
      </trkpt>
      <trkpt lat="44.13898" lon="1.78689">
        <ele>367.4</ele>
        <time>2023-03-05T10:58:10Z</time>
      </trkpt>
      <trkpt lat="44.13905" lon="1.78696">
        <ele>367.4</ele>
        <time>2023-03-05T10:58:11Z</time>
      </trkpt>
      <trkpt lat="44.13911" lon="1.78701">
        <ele>367.2</ele>
        <time>2023-03-05T10:58:12Z</time>
      </trkpt>
      <trkpt lat="44.13915" lon="1.78707">
        <ele>367</ele>
        <time>2023-03-05T10:58:13Z</time>
      </trkpt>
      <trkpt lat="44.13919" lon="1.78714">
        <ele>366.8</ele>
        <time>2023-03-05T10:58:14Z</time>
      </trkpt>
      <trkpt lat="44.13922" lon="1.78723">
        <ele>366.8</ele>
        <time>2023-03-05T10:58:15Z</time>
      </trkpt>
      <trkpt lat="44.13926" lon="1.78733">
        <ele>366.4</ele>
        <time>2023-03-05T10:58:16Z</time>
      </trkpt>
      <trkpt lat="44.1393" lon="1.78741">
        <ele>366.2</ele>
        <time>2023-03-05T10:58:17Z</time>
      </trkpt>
      <trkpt lat="44.13932" lon="1.78748">
        <ele>366.2</ele>
        <time>2023-03-05T10:58:18Z</time>
      </trkpt>
      <trkpt lat="44.13935" lon="1.78757">
        <ele>365.6</ele>
        <time>2023-03-05T10:58:19Z</time>
      </trkpt>
      <trkpt lat="44.13938" lon="1.78766">
        <ele>365.4</ele>
        <time>2023-03-05T10:58:20Z</time>
      </trkpt>
      <trkpt lat="44.13941" lon="1.78778">
        <ele>365.2</ele>
        <time>2023-03-05T10:58:21Z</time>
      </trkpt>
      <trkpt lat="44.13944" lon="1.78787">
        <ele>365.4</ele>
        <time>2023-03-05T10:58:22Z</time>
      </trkpt>
      <trkpt lat="44.13948" lon="1.78793">
        <ele>365.2</ele>
        <time>2023-03-05T10:58:23Z</time>
      </trkpt>
      <trkpt lat="44.13953" lon="1.788">
        <ele>365</ele>
        <time>2023-03-05T10:58:24Z</time>
      </trkpt>
      <trkpt lat="44.13958" lon="1.78806">
        <ele>364.8</ele>
        <time>2023-03-05T10:58:25Z</time>
      </trkpt>
      <trkpt lat="44.13964" lon="1.78812">
        <ele>364.8</ele>
        <time>2023-03-05T10:58:26Z</time>
      </trkpt>
      <trkpt lat="44.1397" lon="1.78815">
        <ele>364.8</ele>
        <time>2023-03-05T10:58:27Z</time>
      </trkpt>
      <trkpt lat="44.13976" lon="1.78816">
        <ele>364.8</ele>
        <time>2023-03-05T10:58:28Z</time>
      </trkpt>
      <trkpt lat="44.1398" lon="1.78818">
        <ele>364.8</ele>
        <time>2023-03-05T10:58:29Z</time>
      </trkpt>
      <trkpt lat="44.13984" lon="1.78822">
        <ele>364.6</ele>
        <time>2023-03-05T10:58:30Z</time>
      </trkpt>
      <trkpt lat="44.13987" lon="1.78826">
        <ele>364.6</ele>
        <time>2023-03-05T10:58:31Z</time>
      </trkpt>
      <trkpt lat="44.1399" lon="1.78829">
        <ele>364.4</ele>
        <time>2023-03-05T10:58:32Z</time>
      </trkpt>
      <trkpt lat="44.13993" lon="1.78828">
        <ele>364.4</ele>
        <time>2023-03-05T10:58:33Z</time>
      </trkpt>
      <trkpt lat="44.13995" lon="1.78826">
        <ele>364.2</ele>
        <time>2023-03-05T10:58:34Z</time>
      </trkpt>
      <trkpt lat="44.13997" lon="1.78823">
        <ele>364.2</ele>
        <time>2023-03-05T10:58:35Z</time>
      </trkpt>
      <trkpt lat="44.13999" lon="1.78819">
        <ele>364</ele>
        <time>2023-03-05T10:58:36Z</time>
      </trkpt>
      <trkpt lat="44.14002" lon="1.78813">
        <ele>364</ele>
        <time>2023-03-05T10:58:37Z</time>
      </trkpt>
      <trkpt lat="44.14004" lon="1.78808">
        <ele>364</ele>
        <time>2023-03-05T10:58:38Z</time>
      </trkpt>
      <trkpt lat="44.14006" lon="1.78803">
        <ele>364</ele>
        <time>2023-03-05T10:58:39Z</time>
      </trkpt>
      <trkpt lat="44.14009" lon="1.78798">
        <ele>364</ele>
        <time>2023-03-05T10:58:40Z</time>
      </trkpt>
      <trkpt lat="44.14012" lon="1.78792">
        <ele>364</ele>
        <time>2023-03-05T10:58:41Z</time>
      </trkpt>
      <trkpt lat="44.14014" lon="1.78786">
        <ele>364</ele>
        <time>2023-03-05T10:58:42Z</time>
      </trkpt>
      <trkpt lat="44.14016" lon="1.78779">
        <ele>364.2</ele>
        <time>2023-03-05T10:58:43Z</time>
      </trkpt>
      <trkpt lat="44.14019" lon="1.78774">
        <ele>364.2</ele>
        <time>2023-03-05T10:58:44Z</time>
      </trkpt>
      <trkpt lat="44.14021" lon="1.78768">
        <ele>364.4</ele>
        <time>2023-03-05T10:58:45Z</time>
      </trkpt>
      <trkpt lat="44.14025" lon="1.78764">
        <ele>364.6</ele>
        <time>2023-03-05T10:58:46Z</time>
      </trkpt>
      <trkpt lat="44.14031" lon="1.78759">
        <ele>364.8</ele>
        <time>2023-03-05T10:58:47Z</time>
      </trkpt>
      <trkpt lat="44.14036" lon="1.78756">
        <ele>365</ele>
        <time>2023-03-05T10:58:48Z</time>
      </trkpt>
      <trkpt lat="44.14042" lon="1.78754">
        <ele>365.2</ele>
        <time>2023-03-05T10:58:49Z</time>
      </trkpt>
      <trkpt lat="44.14047" lon="1.78752">
        <ele>365.2</ele>
        <time>2023-03-05T10:58:50Z</time>
      </trkpt>
      <trkpt lat="44.14051" lon="1.78749">
        <ele>365.2</ele>
        <time>2023-03-05T10:58:51Z</time>
      </trkpt>
      <trkpt lat="44.14056" lon="1.78744">
        <ele>365.4</ele>
        <time>2023-03-05T10:58:52Z</time>
      </trkpt>
      <trkpt lat="44.1406" lon="1.78739">
        <ele>365.4</ele>
        <time>2023-03-05T10:58:53Z</time>
      </trkpt>
      <trkpt lat="44.14064" lon="1.78732">
        <ele>365.6</ele>
        <time>2023-03-05T10:58:54Z</time>
      </trkpt>
      <trkpt lat="44.14068" lon="1.78727">
        <ele>365.4</ele>
        <time>2023-03-05T10:58:55Z</time>
      </trkpt>
      <trkpt lat="44.14071" lon="1.78721">
        <ele>365.8</ele>
        <time>2023-03-05T10:58:56Z</time>
      </trkpt>
      <trkpt lat="44.14075" lon="1.78715">
        <ele>365.6</ele>
        <time>2023-03-05T10:58:57Z</time>
      </trkpt>
      <trkpt lat="44.14079" lon="1.78708">
        <ele>365.6</ele>
        <time>2023-03-05T10:58:58Z</time>
      </trkpt>
      <trkpt lat="44.14083" lon="1.78699">
        <ele>365.8</ele>
        <time>2023-03-05T10:58:59Z</time>
      </trkpt>
      <trkpt lat="44.14086" lon="1.78692">
        <ele>365.8</ele>
        <time>2023-03-05T10:59:00Z</time>
      </trkpt>
      <trkpt lat="44.14091" lon="1.78685">
        <ele>365.4</ele>
        <time>2023-03-05T10:59:01Z</time>
      </trkpt>
      <trkpt lat="44.14096" lon="1.78679">
        <ele>365.2</ele>
        <time>2023-03-05T10:59:02Z</time>
      </trkpt>
      <trkpt lat="44.14101" lon="1.78672">
        <ele>365.2</ele>
        <time>2023-03-05T10:59:03Z</time>
      </trkpt>
      <trkpt lat="44.14105" lon="1.78667">
        <ele>365</ele>
        <time>2023-03-05T10:59:04Z</time>
      </trkpt>
      <trkpt lat="44.14109" lon="1.78662">
        <ele>364.4</ele>
        <time>2023-03-05T10:59:05Z</time>
      </trkpt>
      <trkpt lat="44.14111" lon="1.78658">
        <ele>364.2</ele>
        <time>2023-03-05T10:59:06Z</time>
      </trkpt>
      <trkpt lat="44.14115" lon="1.78652">
        <ele>364</ele>
        <time>2023-03-05T10:59:07Z</time>
      </trkpt>
      <trkpt lat="44.14118" lon="1.78646">
        <ele>363.8</ele>
        <time>2023-03-05T10:59:08Z</time>
      </trkpt>
      <trkpt lat="44.14119" lon="1.78641">
        <ele>363.6</ele>
        <time>2023-03-05T10:59:09Z</time>
      </trkpt>
      <trkpt lat="44.1412" lon="1.78638">
        <ele>362.6</ele>
        <time>2023-03-05T10:59:10Z</time>
      </trkpt>
      <trkpt lat="44.14122" lon="1.78637">
        <ele>362.2</ele>
        <time>2023-03-05T10:59:11Z</time>
      </trkpt>
      <trkpt lat="44.14126" lon="1.78635">
        <ele>361.6</ele>
        <time>2023-03-05T10:59:12Z</time>
      </trkpt>
      <trkpt lat="44.14127" lon="1.78633">
        <ele>361.2</ele>
        <time>2023-03-05T10:59:13Z</time>
      </trkpt>
      <trkpt lat="44.14128" lon="1.78629">
        <ele>360.6</ele>
        <time>2023-03-05T10:59:14Z</time>
      </trkpt>
      <trkpt lat="44.14129" lon="1.78625">
        <ele>360.4</ele>
        <time>2023-03-05T10:59:15Z</time>
      </trkpt>
      <trkpt lat="44.1413" lon="1.78621">
        <ele>360</ele>
        <time>2023-03-05T10:59:16Z</time>
      </trkpt>
      <trkpt lat="44.14131" lon="1.78615">
        <ele>359.8</ele>
        <time>2023-03-05T10:59:17Z</time>
      </trkpt>
      <trkpt lat="44.14134" lon="1.7861">
        <ele>359.8</ele>
        <time>2023-03-05T10:59:18Z</time>
      </trkpt>
      <trkpt lat="44.14137" lon="1.78605">
        <ele>359.4</ele>
        <time>2023-03-05T10:59:19Z</time>
      </trkpt>
      <trkpt lat="44.14141" lon="1.786">
        <ele>359.2</ele>
        <time>2023-03-05T10:59:20Z</time>
      </trkpt>
      <trkpt lat="44.14144" lon="1.78595">
        <ele>359</ele>
        <time>2023-03-05T10:59:21Z</time>
      </trkpt>
      <trkpt lat="44.14146" lon="1.78589">
        <ele>359</ele>
        <time>2023-03-05T10:59:22Z</time>
      </trkpt>
      <trkpt lat="44.14148" lon="1.78584">
        <ele>359</ele>
        <time>2023-03-05T10:59:23Z</time>
      </trkpt>
      <trkpt lat="44.14151" lon="1.78578">
        <ele>359</ele>
        <time>2023-03-05T10:59:24Z</time>
      </trkpt>
      <trkpt lat="44.14152" lon="1.78572">
        <ele>358.8</ele>
        <time>2023-03-05T10:59:25Z</time>
      </trkpt>
      <trkpt lat="44.14153" lon="1.78568">
        <ele>358.8</ele>
        <time>2023-03-05T10:59:26Z</time>
      </trkpt>
      <trkpt lat="44.14155" lon="1.78564">
        <ele>358.6</ele>
        <time>2023-03-05T10:59:27Z</time>
      </trkpt>
      <trkpt lat="44.14159" lon="1.78559">
        <ele>358.4</ele>
        <time>2023-03-05T10:59:28Z</time>
      </trkpt>
      <trkpt lat="44.14161" lon="1.78554">
        <ele>358.4</ele>
        <time>2023-03-05T10:59:29Z</time>
      </trkpt>
      <trkpt lat="44.14163" lon="1.78549">
        <ele>358.2</ele>
        <time>2023-03-05T10:59:30Z</time>
      </trkpt>
      <trkpt lat="44.14163" lon="1.78542">
        <ele>358.2</ele>
        <time>2023-03-05T10:59:31Z</time>
      </trkpt>
      <trkpt lat="44.14162" lon="1.78539">
        <ele>358</ele>
        <time>2023-03-05T10:59:32Z</time>
      </trkpt>
      <trkpt lat="44.14161" lon="1.78536">
        <ele>358</ele>
        <time>2023-03-05T10:59:33Z</time>
      </trkpt>
      <trkpt lat="44.14159" lon="1.78533">
        <ele>358</ele>
        <time>2023-03-05T10:59:34Z</time>
      </trkpt>
      <trkpt lat="44.14157" lon="1.78531">
        <ele>358</ele>
        <time>2023-03-05T10:59:35Z</time>
      </trkpt>
      <trkpt lat="44.14155" lon="1.78528">
        <ele>358</ele>
        <time>2023-03-05T10:59:36Z</time>
      </trkpt>
      <trkpt lat="44.14152" lon="1.78526">
        <ele>358</ele>
        <time>2023-03-05T10:59:37Z</time>
      </trkpt>
      <trkpt lat="44.14151" lon="1.78521">
        <ele>358.2</ele>
        <time>2023-03-05T10:59:38Z</time>
      </trkpt>
      <trkpt lat="44.14151" lon="1.78518">
        <ele>358.4</ele>
        <time>2023-03-05T10:59:39Z</time>
      </trkpt>
      <trkpt lat="44.1415" lon="1.78515">
        <ele>358.6</ele>
        <time>2023-03-05T10:59:40Z</time>
      </trkpt>
      <trkpt lat="44.1415" lon="1.78512">
        <ele>358.8</ele>
        <time>2023-03-05T10:59:41Z</time>
      </trkpt>
      <trkpt lat="44.14151" lon="1.7851">
        <ele>359</ele>
        <time>2023-03-05T10:59:42Z</time>
      </trkpt>
      <trkpt lat="44.14152" lon="1.78508">
        <ele>359</ele>
        <time>2023-03-05T10:59:43Z</time>
      </trkpt>
      <trkpt lat="44.14153" lon="1.78505">
        <ele>359.2</ele>
        <time>2023-03-05T10:59:44Z</time>
      </trkpt>
      <trkpt lat="44.14155" lon="1.78501">
        <ele>359.4</ele>
        <time>2023-03-05T10:59:45Z</time>
      </trkpt>
      <trkpt lat="44.14156" lon="1.78497">
        <ele>359.4</ele>
        <time>2023-03-05T10:59:46Z</time>
      </trkpt>
      <trkpt lat="44.14157" lon="1.78494">
        <ele>359.8</ele>
        <time>2023-03-05T10:59:47Z</time>
      </trkpt>
      <trkpt lat="44.14159" lon="1.7849">
        <ele>360.4</ele>
        <time>2023-03-05T10:59:48Z</time>
      </trkpt>
      <trkpt lat="44.14161" lon="1.78485">
        <ele>360.4</ele>
        <time>2023-03-05T10:59:49Z</time>
      </trkpt>
      <trkpt lat="44.14164" lon="1.78478">
        <ele>360.6</ele>
        <time>2023-03-05T10:59:50Z</time>
      </trkpt>
      <trkpt lat="44.14166" lon="1.78472">
        <ele>360.8</ele>
        <time>2023-03-05T10:59:51Z</time>
      </trkpt>
      <trkpt lat="44.14168" lon="1.78468">
        <ele>361</ele>
        <time>2023-03-05T10:59:52Z</time>
      </trkpt>
      <trkpt lat="44.1417" lon="1.78462">
        <ele>361</ele>
        <time>2023-03-05T10:59:53Z</time>
      </trkpt>
      <trkpt lat="44.14173" lon="1.78456">
        <ele>361.2</ele>
        <time>2023-03-05T10:59:54Z</time>
      </trkpt>
      <trkpt lat="44.14176" lon="1.78448">
        <ele>361.2</ele>
        <time>2023-03-05T10:59:55Z</time>
      </trkpt>
      <trkpt lat="44.14179" lon="1.78442">
        <ele>361.4</ele>
        <time>2023-03-05T10:59:56Z</time>
      </trkpt>
      <trkpt lat="44.14183" lon="1.78436">
        <ele>361.6</ele>
        <time>2023-03-05T10:59:57Z</time>
      </trkpt>
      <trkpt lat="44.14185" lon="1.78431">
        <ele>361.8</ele>
        <time>2023-03-05T10:59:58Z</time>
      </trkpt>
      <trkpt lat="44.14189" lon="1.78424">
        <ele>361.8</ele>
        <time>2023-03-05T10:59:59Z</time>
      </trkpt>
      <trkpt lat="44.14193" lon="1.78417">
        <ele>362</ele>
        <time>2023-03-05T11:00:00Z</time>
      </trkpt>
      <trkpt lat="44.14197" lon="1.7841">
        <ele>362</ele>
        <time>2023-03-05T11:00:01Z</time>
      </trkpt>
      <trkpt lat="44.14201" lon="1.78404">
        <ele>362</ele>
        <time>2023-03-05T11:00:02Z</time>
      </trkpt>
      <trkpt lat="44.14204" lon="1.78399">
        <ele>362</ele>
        <time>2023-03-05T11:00:03Z</time>
      </trkpt>
      <trkpt lat="44.14209" lon="1.78391">
        <ele>362</ele>
        <time>2023-03-05T11:00:04Z</time>
      </trkpt>
      <trkpt lat="44.14213" lon="1.78384">
        <ele>362</ele>
        <time>2023-03-05T11:00:05Z</time>
      </trkpt>
      <trkpt lat="44.14218" lon="1.78377">
        <ele>362</ele>
        <time>2023-03-05T11:00:06Z</time>
      </trkpt>
      <trkpt lat="44.14222" lon="1.7837">
        <ele>362</ele>
        <time>2023-03-05T11:00:07Z</time>
      </trkpt>
      <trkpt lat="44.14225" lon="1.78364">
        <ele>362</ele>
        <time>2023-03-05T11:00:08Z</time>
      </trkpt>
      <trkpt lat="44.1423" lon="1.78357">
        <ele>362</ele>
        <time>2023-03-05T11:00:09Z</time>
      </trkpt>
      <trkpt lat="44.14234" lon="1.78351">
        <ele>362</ele>
        <time>2023-03-05T11:00:10Z</time>
      </trkpt>
      <trkpt lat="44.14238" lon="1.78345">
        <ele>361.8</ele>
        <time>2023-03-05T11:00:11Z</time>
      </trkpt>
      <trkpt lat="44.14242" lon="1.78338">
        <ele>361.8</ele>
        <time>2023-03-05T11:00:12Z</time>
      </trkpt>
      <trkpt lat="44.14246" lon="1.78332">
        <ele>361.8</ele>
        <time>2023-03-05T11:00:13Z</time>
      </trkpt>
      <trkpt lat="44.1425" lon="1.78326">
        <ele>361.8</ele>
        <time>2023-03-05T11:00:14Z</time>
      </trkpt>
      <trkpt lat="44.14255" lon="1.78319">
        <ele>361.6</ele>
        <time>2023-03-05T11:00:15Z</time>
      </trkpt>
      <trkpt lat="44.14259" lon="1.78313">
        <ele>361.6</ele>
        <time>2023-03-05T11:00:16Z</time>
      </trkpt>
      <trkpt lat="44.14263" lon="1.78306">
        <ele>361.6</ele>
        <time>2023-03-05T11:00:17Z</time>
      </trkpt>
      <trkpt lat="44.14266" lon="1.783">
        <ele>361.6</ele>
        <time>2023-03-05T11:00:18Z</time>
      </trkpt>
      <trkpt lat="44.14271" lon="1.78294">
        <ele>361.4</ele>
        <time>2023-03-05T11:00:19Z</time>
      </trkpt>
      <trkpt lat="44.14275" lon="1.78288">
        <ele>361.4</ele>
        <time>2023-03-05T11:00:20Z</time>
      </trkpt>
      <trkpt lat="44.14278" lon="1.78282">
        <ele>361.4</ele>
        <time>2023-03-05T11:00:21Z</time>
      </trkpt>
      <trkpt lat="44.14282" lon="1.78276">
        <ele>361.4</ele>
        <time>2023-03-05T11:00:22Z</time>
      </trkpt>
      <trkpt lat="44.14286" lon="1.7827">
        <ele>361.2</ele>
        <time>2023-03-05T11:00:23Z</time>
      </trkpt>
      <trkpt lat="44.14289" lon="1.78264">
        <ele>361.2</ele>
        <time>2023-03-05T11:00:24Z</time>
      </trkpt>
      <trkpt lat="44.14292" lon="1.78258">
        <ele>361.2</ele>
        <time>2023-03-05T11:00:25Z</time>
      </trkpt>
      <trkpt lat="44.14296" lon="1.78253">
        <ele>361.2</ele>
        <time>2023-03-05T11:00:26Z</time>
      </trkpt>
      <trkpt lat="44.14299" lon="1.78248">
        <ele>361.2</ele>
        <time>2023-03-05T11:00:27Z</time>
      </trkpt>
      <trkpt lat="44.14303" lon="1.78243">
        <ele>361.4</ele>
        <time>2023-03-05T11:00:28Z</time>
      </trkpt>
      <trkpt lat="44.14306" lon="1.78238">
        <ele>361.4</ele>
        <time>2023-03-05T11:00:29Z</time>
      </trkpt>
      <trkpt lat="44.1431" lon="1.78232">
        <ele>361.6</ele>
        <time>2023-03-05T11:00:30Z</time>
      </trkpt>
      <trkpt lat="44.14313" lon="1.78227">
        <ele>361.6</ele>
        <time>2023-03-05T11:00:31Z</time>
      </trkpt>
      <trkpt lat="44.14317" lon="1.78221">
        <ele>361.8</ele>
        <time>2023-03-05T11:00:32Z</time>
      </trkpt>
      <trkpt lat="44.1432" lon="1.78216">
        <ele>362</ele>
        <time>2023-03-05T11:00:33Z</time>
      </trkpt>
      <trkpt lat="44.14324" lon="1.7821">
        <ele>362.4</ele>
        <time>2023-03-05T11:00:34Z</time>
      </trkpt>
      <trkpt lat="44.14327" lon="1.78204">
        <ele>362.6</ele>
        <time>2023-03-05T11:00:35Z</time>
      </trkpt>
      <trkpt lat="44.1433" lon="1.78198">
        <ele>363</ele>
        <time>2023-03-05T11:00:36Z</time>
      </trkpt>
      <trkpt lat="44.14334" lon="1.78192">
        <ele>363.2</ele>
        <time>2023-03-05T11:00:37Z</time>
      </trkpt>
      <trkpt lat="44.14337" lon="1.78185">
        <ele>363.4</ele>
        <time>2023-03-05T11:00:38Z</time>
      </trkpt>
      <trkpt lat="44.14341" lon="1.78179">
        <ele>363.8</ele>
        <time>2023-03-05T11:00:39Z</time>
      </trkpt>
      <trkpt lat="44.14344" lon="1.78173">
        <ele>363.8</ele>
        <time>2023-03-05T11:00:40Z</time>
      </trkpt>
      <trkpt lat="44.14348" lon="1.78167">
        <ele>364</ele>
        <time>2023-03-05T11:00:41Z</time>
      </trkpt>
      <trkpt lat="44.14351" lon="1.78161">
        <ele>364</ele>
        <time>2023-03-05T11:00:42Z</time>
      </trkpt>
      <trkpt lat="44.14354" lon="1.78155">
        <ele>364.2</ele>
        <time>2023-03-05T11:00:43Z</time>
      </trkpt>
      <trkpt lat="44.14358" lon="1.78149">
        <ele>364.2</ele>
        <time>2023-03-05T11:00:44Z</time>
      </trkpt>
      <trkpt lat="44.14361" lon="1.78143">
        <ele>364.4</ele>
        <time>2023-03-05T11:00:45Z</time>
      </trkpt>
      <trkpt lat="44.14364" lon="1.78137">
        <ele>364.6</ele>
        <time>2023-03-05T11:00:46Z</time>
      </trkpt>
      <trkpt lat="44.14366" lon="1.78131">
        <ele>364.8</ele>
        <time>2023-03-05T11:00:47Z</time>
      </trkpt>
      <trkpt lat="44.14369" lon="1.78125">
        <ele>365</ele>
        <time>2023-03-05T11:00:48Z</time>
      </trkpt>
      <trkpt lat="44.14372" lon="1.7812">
        <ele>365</ele>
        <time>2023-03-05T11:00:49Z</time>
      </trkpt>
      <trkpt lat="44.14376" lon="1.78114">
        <ele>365.2</ele>
        <time>2023-03-05T11:00:50Z</time>
      </trkpt>
      <trkpt lat="44.14379" lon="1.78109">
        <ele>365.2</ele>
        <time>2023-03-05T11:00:51Z</time>
      </trkpt>
      <trkpt lat="44.14383" lon="1.78103">
        <ele>365.4</ele>
        <time>2023-03-05T11:00:52Z</time>
      </trkpt>
      <trkpt lat="44.14387" lon="1.78098">
        <ele>365.4</ele>
        <time>2023-03-05T11:00:53Z</time>
      </trkpt>
      <trkpt lat="44.14392" lon="1.78093">
        <ele>365.4</ele>
        <time>2023-03-05T11:00:54Z</time>
      </trkpt>
      <trkpt lat="44.14396" lon="1.78088">
        <ele>365.4</ele>
        <time>2023-03-05T11:00:55Z</time>
      </trkpt>
      <trkpt lat="44.144" lon="1.78083">
        <ele>365.4</ele>
        <time>2023-03-05T11:00:56Z</time>
      </trkpt>
      <trkpt lat="44.14404" lon="1.78077">
        <ele>365.4</ele>
        <time>2023-03-05T11:00:57Z</time>
      </trkpt>
      <trkpt lat="44.14408" lon="1.78072">
        <ele>365.4</ele>
        <time>2023-03-05T11:00:58Z</time>
      </trkpt>
      <trkpt lat="44.14412" lon="1.78066">
        <ele>365.2</ele>
        <time>2023-03-05T11:00:59Z</time>
      </trkpt>
      <trkpt lat="44.14416" lon="1.78061">
        <ele>365.2</ele>
        <time>2023-03-05T11:01:00Z</time>
      </trkpt>
      <trkpt lat="44.1442" lon="1.78056">
        <ele>365</ele>
        <time>2023-03-05T11:01:01Z</time>
      </trkpt>
      <trkpt lat="44.14425" lon="1.78051">
        <ele>364.8</ele>
        <time>2023-03-05T11:01:02Z</time>
      </trkpt>
      <trkpt lat="44.14429" lon="1.78046">
        <ele>364.6</ele>
        <time>2023-03-05T11:01:03Z</time>
      </trkpt>
      <trkpt lat="44.14434" lon="1.78041">
        <ele>364.6</ele>
        <time>2023-03-05T11:01:04Z</time>
      </trkpt>
      <trkpt lat="44.14439" lon="1.78037">
        <ele>364.4</ele>
        <time>2023-03-05T11:01:05Z</time>
      </trkpt>
      <trkpt lat="44.14443" lon="1.78033">
        <ele>364.4</ele>
        <time>2023-03-05T11:01:06Z</time>
      </trkpt>
      <trkpt lat="44.14448" lon="1.7803">
        <ele>364.2</ele>
        <time>2023-03-05T11:01:07Z</time>
      </trkpt>
      <trkpt lat="44.14454" lon="1.78028">
        <ele>364</ele>
        <time>2023-03-05T11:01:08Z</time>
      </trkpt>
      <trkpt lat="44.14459" lon="1.78027">
        <ele>363.8</ele>
        <time>2023-03-05T11:01:09Z</time>
      </trkpt>
      <trkpt lat="44.14463" lon="1.78025">
        <ele>363.4</ele>
        <time>2023-03-05T11:01:10Z</time>
      </trkpt>
      <trkpt lat="44.14466" lon="1.78022">
        <ele>363.2</ele>
        <time>2023-03-05T11:01:11Z</time>
      </trkpt>
      <trkpt lat="44.14468" lon="1.78019">
        <ele>362.8</ele>
        <time>2023-03-05T11:01:12Z</time>
      </trkpt>
      <trkpt lat="44.14468" lon="1.78015">
        <ele>362.6</ele>
        <time>2023-03-05T11:01:13Z</time>
      </trkpt>
      <trkpt lat="44.14467" lon="1.7801">
        <ele>362.2</ele>
        <time>2023-03-05T11:01:14Z</time>
      </trkpt>
      <trkpt lat="44.14464" lon="1.78005">
        <ele>362</ele>
        <time>2023-03-05T11:01:15Z</time>
      </trkpt>
      <trkpt lat="44.1446" lon="1.78">
        <ele>361.8</ele>
        <time>2023-03-05T11:01:16Z</time>
      </trkpt>
      <trkpt lat="44.14457" lon="1.77995">
        <ele>361.6</ele>
        <time>2023-03-05T11:01:17Z</time>
      </trkpt>
      <trkpt lat="44.14454" lon="1.77989">
        <ele>360.6</ele>
        <time>2023-03-05T11:01:18Z</time>
      </trkpt>
      <trkpt lat="44.1445" lon="1.77984">
        <ele>360</ele>
        <time>2023-03-05T11:01:19Z</time>
      </trkpt>
      <trkpt lat="44.14446" lon="1.77977">
        <ele>359.8</ele>
        <time>2023-03-05T11:01:20Z</time>
      </trkpt>
      <trkpt lat="44.14443" lon="1.7797">
        <ele>359</ele>
        <time>2023-03-05T11:01:21Z</time>
      </trkpt>
      <trkpt lat="44.1444" lon="1.77963">
        <ele>358.6</ele>
        <time>2023-03-05T11:01:22Z</time>
      </trkpt>
      <trkpt lat="44.14437" lon="1.77955">
        <ele>357.8</ele>
        <time>2023-03-05T11:01:23Z</time>
      </trkpt>
      <trkpt lat="44.14434" lon="1.77947">
        <ele>357.4</ele>
        <time>2023-03-05T11:01:24Z</time>
      </trkpt>
      <trkpt lat="44.14431" lon="1.77938">
        <ele>356</ele>
        <time>2023-03-05T11:01:25Z</time>
      </trkpt>
      <trkpt lat="44.14429" lon="1.77929">
        <ele>355.2</ele>
        <time>2023-03-05T11:01:26Z</time>
      </trkpt>
      <trkpt lat="44.14427" lon="1.77921">
        <ele>353.8</ele>
        <time>2023-03-05T11:01:27Z</time>
      </trkpt>
      <trkpt lat="44.14424" lon="1.77915">
        <ele>352.6</ele>
        <time>2023-03-05T11:01:28Z</time>
      </trkpt>
      <trkpt lat="44.14422" lon="1.77908">
        <ele>352</ele>
        <time>2023-03-05T11:01:29Z</time>
      </trkpt>
      <trkpt lat="44.14418" lon="1.77902">
        <ele>351.2</ele>
        <time>2023-03-05T11:01:30Z</time>
      </trkpt>
      <trkpt lat="44.14414" lon="1.77895">
        <ele>350.6</ele>
        <time>2023-03-05T11:01:31Z</time>
      </trkpt>
      <trkpt lat="44.14412" lon="1.77888">
        <ele>349.8</ele>
        <time>2023-03-05T11:01:32Z</time>
      </trkpt>
      <trkpt lat="44.14409" lon="1.77882">
        <ele>349.4</ele>
        <time>2023-03-05T11:01:33Z</time>
      </trkpt>
      <trkpt lat="44.14405" lon="1.77876">
        <ele>348</ele>
        <time>2023-03-05T11:01:34Z</time>
      </trkpt>
      <trkpt lat="44.14402" lon="1.77871">
        <ele>347.2</ele>
        <time>2023-03-05T11:01:35Z</time>
      </trkpt>
      <trkpt lat="44.144" lon="1.77865">
        <ele>346.2</ele>
        <time>2023-03-05T11:01:36Z</time>
      </trkpt>
      <trkpt lat="44.14399" lon="1.77857">
        <ele>345.8</ele>
        <time>2023-03-05T11:01:37Z</time>
      </trkpt>
      <trkpt lat="44.14397" lon="1.7785">
        <ele>344.6</ele>
        <time>2023-03-05T11:01:38Z</time>
      </trkpt>
      <trkpt lat="44.14396" lon="1.77841">
        <ele>342.8</ele>
        <time>2023-03-05T11:01:39Z</time>
      </trkpt>
      <trkpt lat="44.14396" lon="1.77833">
        <ele>342.4</ele>
        <time>2023-03-05T11:01:40Z</time>
      </trkpt>
      <trkpt lat="44.14396" lon="1.77824">
        <ele>341.2</ele>
        <time>2023-03-05T11:01:41Z</time>
      </trkpt>
      <trkpt lat="44.14397" lon="1.77815">
        <ele>340.6</ele>
        <time>2023-03-05T11:01:42Z</time>
      </trkpt>
      <trkpt lat="44.14398" lon="1.77807">
        <ele>340</ele>
        <time>2023-03-05T11:01:43Z</time>
      </trkpt>
      <trkpt lat="44.14399" lon="1.778">
        <ele>339.8</ele>
        <time>2023-03-05T11:01:44Z</time>
      </trkpt>
      <trkpt lat="44.144" lon="1.77793">
        <ele>339</ele>
        <time>2023-03-05T11:01:45Z</time>
      </trkpt>
      <trkpt lat="44.14402" lon="1.77785">
        <ele>338.8</ele>
        <time>2023-03-05T11:01:46Z</time>
      </trkpt>
      <trkpt lat="44.14403" lon="1.77776">
        <ele>337.8</ele>
        <time>2023-03-05T11:01:47Z</time>
      </trkpt>
      <trkpt lat="44.14405" lon="1.77767">
        <ele>337.4</ele>
        <time>2023-03-05T11:01:48Z</time>
      </trkpt>
      <trkpt lat="44.14407" lon="1.77759">
        <ele>336.4</ele>
        <time>2023-03-05T11:01:49Z</time>
      </trkpt>
      <trkpt lat="44.14409" lon="1.77751">
        <ele>336</ele>
        <time>2023-03-05T11:01:50Z</time>
      </trkpt>
      <trkpt lat="44.14411" lon="1.77742">
        <ele>335.8</ele>
        <time>2023-03-05T11:01:51Z</time>
      </trkpt>
      <trkpt lat="44.14413" lon="1.77733">
        <ele>335.6</ele>
        <time>2023-03-05T11:01:52Z</time>
      </trkpt>
      <trkpt lat="44.14415" lon="1.77724">
        <ele>335.6</ele>
        <time>2023-03-05T11:01:53Z</time>
      </trkpt>
      <trkpt lat="44.14417" lon="1.77715">
        <ele>335.4</ele>
        <time>2023-03-05T11:01:54Z</time>
      </trkpt>
      <trkpt lat="44.14418" lon="1.77706">
        <ele>335.2</ele>
        <time>2023-03-05T11:01:55Z</time>
      </trkpt>
      <trkpt lat="44.14419" lon="1.77696">
        <ele>334.4</ele>
        <time>2023-03-05T11:01:56Z</time>
      </trkpt>
      <trkpt lat="44.1442" lon="1.77687">
        <ele>334</ele>
        <time>2023-03-05T11:01:57Z</time>
      </trkpt>
      <trkpt lat="44.14421" lon="1.77678">
        <ele>333.4</ele>
        <time>2023-03-05T11:01:58Z</time>
      </trkpt>
      <trkpt lat="44.14422" lon="1.77668">
        <ele>332.8</ele>
        <time>2023-03-05T11:01:59Z</time>
      </trkpt>
      <trkpt lat="44.14423" lon="1.77661">
        <ele>332.6</ele>
        <time>2023-03-05T11:02:00Z</time>
      </trkpt>
      <trkpt lat="44.14423" lon="1.77653">
        <ele>332</ele>
        <time>2023-03-05T11:02:01Z</time>
      </trkpt>
      <trkpt lat="44.14425" lon="1.77645">
        <ele>331.8</ele>
        <time>2023-03-05T11:02:02Z</time>
      </trkpt>
      <trkpt lat="44.14426" lon="1.77636">
        <ele>331.2</ele>
        <time>2023-03-05T11:02:03Z</time>
      </trkpt>
      <trkpt lat="44.14428" lon="1.77626">
        <ele>330.8</ele>
        <time>2023-03-05T11:02:04Z</time>
      </trkpt>
      <trkpt lat="44.1443" lon="1.77614">
        <ele>330.2</ele>
        <time>2023-03-05T11:02:05Z</time>
      </trkpt>
      <trkpt lat="44.14434" lon="1.77604">
        <ele>330</ele>
        <time>2023-03-05T11:02:06Z</time>
      </trkpt>
      <trkpt lat="44.14437" lon="1.77593">
        <ele>329.2</ele>
        <time>2023-03-05T11:02:07Z</time>
      </trkpt>
      <trkpt lat="44.1444" lon="1.77584">
        <ele>329</ele>
        <time>2023-03-05T11:02:08Z</time>
      </trkpt>
      <trkpt lat="44.14442" lon="1.77573">
        <ele>328.6</ele>
        <time>2023-03-05T11:02:09Z</time>
      </trkpt>
      <trkpt lat="44.14442" lon="1.77563">
        <ele>328</ele>
        <time>2023-03-05T11:02:10Z</time>
      </trkpt>
      <trkpt lat="44.14442" lon="1.77553">
        <ele>326.8</ele>
        <time>2023-03-05T11:02:11Z</time>
      </trkpt>
      <trkpt lat="44.14443" lon="1.77543">
        <ele>325.4</ele>
        <time>2023-03-05T11:02:12Z</time>
      </trkpt>
      <trkpt lat="44.14445" lon="1.77534">
        <ele>325</ele>
        <time>2023-03-05T11:02:13Z</time>
      </trkpt>
      <trkpt lat="44.14449" lon="1.77525">
        <ele>324</ele>
        <time>2023-03-05T11:02:14Z</time>
      </trkpt>
      <trkpt lat="44.1445" lon="1.77515">
        <ele>323.6</ele>
        <time>2023-03-05T11:02:15Z</time>
      </trkpt>
      <trkpt lat="44.14453" lon="1.77504">
        <ele>322</ele>
        <time>2023-03-05T11:02:16Z</time>
      </trkpt>
      <trkpt lat="44.14455" lon="1.77492">
        <ele>321.2</ele>
        <time>2023-03-05T11:02:17Z</time>
      </trkpt>
      <trkpt lat="44.14458" lon="1.77483">
        <ele>319.8</ele>
        <time>2023-03-05T11:02:18Z</time>
      </trkpt>
      <trkpt lat="44.14461" lon="1.77473">
        <ele>318.6</ele>
        <time>2023-03-05T11:02:19Z</time>
      </trkpt>
      <trkpt lat="44.14465" lon="1.77464">
        <ele>318</ele>
        <time>2023-03-05T11:02:20Z</time>
      </trkpt>
      <trkpt lat="44.14469" lon="1.77454">
        <ele>317</ele>
        <time>2023-03-05T11:02:21Z</time>
      </trkpt>
      <trkpt lat="44.14473" lon="1.77447">
        <ele>316.2</ele>
        <time>2023-03-05T11:02:22Z</time>
      </trkpt>
      <trkpt lat="44.14475" lon="1.7744">
        <ele>314.6</ele>
        <time>2023-03-05T11:02:23Z</time>
      </trkpt>
      <trkpt lat="44.14476" lon="1.77432">
        <ele>313.8</ele>
        <time>2023-03-05T11:02:24Z</time>
      </trkpt>
      <trkpt lat="44.14481" lon="1.77424">
        <ele>312.4</ele>
        <time>2023-03-05T11:02:25Z</time>
      </trkpt>
      <trkpt lat="44.14484" lon="1.77414">
        <ele>311.6</ele>
        <time>2023-03-05T11:02:26Z</time>
      </trkpt>
      <trkpt lat="44.14485" lon="1.77404">
        <ele>310.4</ele>
        <time>2023-03-05T11:02:27Z</time>
      </trkpt>
      <trkpt lat="44.14487" lon="1.77395">
        <ele>309.6</ele>
        <time>2023-03-05T11:02:28Z</time>
      </trkpt>
      <trkpt lat="44.14487" lon="1.77387">
        <ele>308.2</ele>
        <time>2023-03-05T11:02:29Z</time>
      </trkpt>
      <trkpt lat="44.14487" lon="1.77375">
        <ele>307.2</ele>
        <time>2023-03-05T11:02:30Z</time>
      </trkpt>
      <trkpt lat="44.14486" lon="1.77365">
        <ele>306.4</ele>
        <time>2023-03-05T11:02:31Z</time>
      </trkpt>
      <trkpt lat="44.14487" lon="1.77356">
        <ele>305.2</ele>
        <time>2023-03-05T11:02:32Z</time>
      </trkpt>
      <trkpt lat="44.14488" lon="1.77347">
        <ele>304.8</ele>
        <time>2023-03-05T11:02:33Z</time>
      </trkpt>
      <trkpt lat="44.14489" lon="1.77338">
        <ele>304.2</ele>
        <time>2023-03-05T11:02:34Z</time>
      </trkpt>
      <trkpt lat="44.1449" lon="1.7733">
        <ele>303.8</ele>
        <time>2023-03-05T11:02:35Z</time>
      </trkpt>
      <trkpt lat="44.14491" lon="1.77321">
        <ele>303.4</ele>
        <time>2023-03-05T11:02:36Z</time>
      </trkpt>
      <trkpt lat="44.14492" lon="1.77313">
        <ele>303</ele>
        <time>2023-03-05T11:02:37Z</time>
      </trkpt>
      <trkpt lat="44.14493" lon="1.77305">
        <ele>302.4</ele>
        <time>2023-03-05T11:02:38Z</time>
      </trkpt>
      <trkpt lat="44.14494" lon="1.77297">
        <ele>302.2</ele>
        <time>2023-03-05T11:02:39Z</time>
      </trkpt>
      <trkpt lat="44.14495" lon="1.77288">
        <ele>301.8</ele>
        <time>2023-03-05T11:02:40Z</time>
      </trkpt>
      <trkpt lat="44.14496" lon="1.7728">
        <ele>301.4</ele>
        <time>2023-03-05T11:02:41Z</time>
      </trkpt>
      <trkpt lat="44.14499" lon="1.7727">
        <ele>301.4</ele>
        <time>2023-03-05T11:02:42Z</time>
      </trkpt>
      <trkpt lat="44.14503" lon="1.7726">
        <ele>301.2</ele>
        <time>2023-03-05T11:02:43Z</time>
      </trkpt>
      <trkpt lat="44.14507" lon="1.7725">
        <ele>301</ele>
        <time>2023-03-05T11:02:44Z</time>
      </trkpt>
      <trkpt lat="44.14509" lon="1.77239">
        <ele>300.8</ele>
        <time>2023-03-05T11:02:45Z</time>
      </trkpt>
      <trkpt lat="44.14511" lon="1.7723">
        <ele>300.8</ele>
        <time>2023-03-05T11:02:46Z</time>
      </trkpt>
      <trkpt lat="44.14514" lon="1.77221">
        <ele>300.4</ele>
        <time>2023-03-05T11:02:47Z</time>
      </trkpt>
      <trkpt lat="44.14516" lon="1.77213">
        <ele>300.4</ele>
        <time>2023-03-05T11:02:48Z</time>
      </trkpt>
      <trkpt lat="44.14519" lon="1.77204">
        <ele>300</ele>
        <time>2023-03-05T11:02:49Z</time>
      </trkpt>
      <trkpt lat="44.14522" lon="1.77196">
        <ele>299.6</ele>
        <time>2023-03-05T11:02:50Z</time>
      </trkpt>
      <trkpt lat="44.14527" lon="1.77187">
        <ele>299</ele>
        <time>2023-03-05T11:02:51Z</time>
      </trkpt>
      <trkpt lat="44.14529" lon="1.77179">
        <ele>297.8</ele>
        <time>2023-03-05T11:02:52Z</time>
      </trkpt>
      <trkpt lat="44.14531" lon="1.7717">
        <ele>297</ele>
        <time>2023-03-05T11:02:53Z</time>
      </trkpt>
      <trkpt lat="44.14532" lon="1.7716">
        <ele>296</ele>
        <time>2023-03-05T11:02:54Z</time>
      </trkpt>
      <trkpt lat="44.14533" lon="1.77148">
        <ele>295.4</ele>
        <time>2023-03-05T11:02:55Z</time>
      </trkpt>
      <trkpt lat="44.14534" lon="1.77136">
        <ele>294.6</ele>
        <time>2023-03-05T11:02:56Z</time>
      </trkpt>
      <trkpt lat="44.14536" lon="1.77124">
        <ele>293.8</ele>
        <time>2023-03-05T11:02:57Z</time>
      </trkpt>
      <trkpt lat="44.14538" lon="1.77113">
        <ele>292</ele>
        <time>2023-03-05T11:02:58Z</time>
      </trkpt>
      <trkpt lat="44.14541" lon="1.77103">
        <ele>291.4</ele>
        <time>2023-03-05T11:02:59Z</time>
      </trkpt>
      <trkpt lat="44.14544" lon="1.77089">
        <ele>289.8</ele>
        <time>2023-03-05T11:03:00Z</time>
      </trkpt>
      <trkpt lat="44.14546" lon="1.77076">
        <ele>289</ele>
        <time>2023-03-05T11:03:01Z</time>
      </trkpt>
      <trkpt lat="44.14547" lon="1.77062">
        <ele>288.6</ele>
        <time>2023-03-05T11:03:02Z</time>
      </trkpt>
      <trkpt lat="44.14549" lon="1.7705">
        <ele>287.2</ele>
        <time>2023-03-05T11:03:03Z</time>
      </trkpt>
      <trkpt lat="44.14551" lon="1.7704">
        <ele>285.8</ele>
        <time>2023-03-05T11:03:04Z</time>
      </trkpt>
      <trkpt lat="44.14552" lon="1.77028">
        <ele>283.6</ele>
        <time>2023-03-05T11:03:05Z</time>
      </trkpt>
      <trkpt lat="44.14553" lon="1.77015">
        <ele>282.8</ele>
        <time>2023-03-05T11:03:06Z</time>
      </trkpt>
      <trkpt lat="44.14554" lon="1.77001">
        <ele>281.8</ele>
        <time>2023-03-05T11:03:07Z</time>
      </trkpt>
      <trkpt lat="44.14554" lon="1.76989">
        <ele>280.8</ele>
        <time>2023-03-05T11:03:08Z</time>
      </trkpt>
      <trkpt lat="44.14554" lon="1.76978">
        <ele>279</ele>
        <time>2023-03-05T11:03:09Z</time>
      </trkpt>
      <trkpt lat="44.14554" lon="1.76966">
        <ele>278</ele>
        <time>2023-03-05T11:03:10Z</time>
      </trkpt>
      <trkpt lat="44.14554" lon="1.76955">
        <ele>276.8</ele>
        <time>2023-03-05T11:03:11Z</time>
      </trkpt>
      <trkpt lat="44.14553" lon="1.76946">
        <ele>275.4</ele>
        <time>2023-03-05T11:03:12Z</time>
      </trkpt>
      <trkpt lat="44.14553" lon="1.76936">
        <ele>274.8</ele>
        <time>2023-03-05T11:03:13Z</time>
      </trkpt>
      <trkpt lat="44.14553" lon="1.76926">
        <ele>273.6</ele>
        <time>2023-03-05T11:03:14Z</time>
      </trkpt>
      <trkpt lat="44.14552" lon="1.76914">
        <ele>272.8</ele>
        <time>2023-03-05T11:03:15Z</time>
      </trkpt>
      <trkpt lat="44.14553" lon="1.76903">
        <ele>271</ele>
        <time>2023-03-05T11:03:16Z</time>
      </trkpt>
      <trkpt lat="44.14558" lon="1.76887">
        <ele>270.2</ele>
        <time>2023-03-05T11:03:17Z</time>
      </trkpt>
      <trkpt lat="44.14558" lon="1.76875">
        <ele>268</ele>
        <time>2023-03-05T11:03:18Z</time>
      </trkpt>
      <trkpt lat="44.14557" lon="1.76864">
        <ele>267.2</ele>
        <time>2023-03-05T11:03:19Z</time>
      </trkpt>
      <trkpt lat="44.14556" lon="1.76853">
        <ele>266.2</ele>
        <time>2023-03-05T11:03:20Z</time>
      </trkpt>
      <trkpt lat="44.14555" lon="1.76842">
        <ele>265</ele>
        <time>2023-03-05T11:03:21Z</time>
      </trkpt>
      <trkpt lat="44.14553" lon="1.76831">
        <ele>264.4</ele>
        <time>2023-03-05T11:03:22Z</time>
      </trkpt>
      <trkpt lat="44.14553" lon="1.7682">
        <ele>263.4</ele>
        <time>2023-03-05T11:03:23Z</time>
      </trkpt>
      <trkpt lat="44.14551" lon="1.76809">
        <ele>262.8</ele>
        <time>2023-03-05T11:03:24Z</time>
      </trkpt>
      <trkpt lat="44.14551" lon="1.76798">
        <ele>261.8</ele>
        <time>2023-03-05T11:03:25Z</time>
      </trkpt>
      <trkpt lat="44.14551" lon="1.76786">
        <ele>261.2</ele>
        <time>2023-03-05T11:03:26Z</time>
      </trkpt>
      <trkpt lat="44.14551" lon="1.76776">
        <ele>260.4</ele>
        <time>2023-03-05T11:03:27Z</time>
      </trkpt>
      <trkpt lat="44.14552" lon="1.76765">
        <ele>259.8</ele>
        <time>2023-03-05T11:03:28Z</time>
      </trkpt>
      <trkpt lat="44.14554" lon="1.76753">
        <ele>257.8</ele>
        <time>2023-03-05T11:03:29Z</time>
      </trkpt>
      <trkpt lat="44.14554" lon="1.76742">
        <ele>257</ele>
        <time>2023-03-05T11:03:30Z</time>
      </trkpt>
      <trkpt lat="44.14555" lon="1.76731">
        <ele>256.6</ele>
        <time>2023-03-05T11:03:31Z</time>
      </trkpt>
      <trkpt lat="44.14556" lon="1.7672">
        <ele>254.6</ele>
        <time>2023-03-05T11:03:32Z</time>
      </trkpt>
      <trkpt lat="44.14559" lon="1.76709">
        <ele>253.8</ele>
        <time>2023-03-05T11:03:33Z</time>
      </trkpt>
      <trkpt lat="44.14563" lon="1.76697">
        <ele>252.4</ele>
        <time>2023-03-05T11:03:34Z</time>
      </trkpt>
      <trkpt lat="44.14568" lon="1.76685">
        <ele>252</ele>
        <time>2023-03-05T11:03:35Z</time>
      </trkpt>
      <trkpt lat="44.14573" lon="1.76674">
        <ele>250.4</ele>
        <time>2023-03-05T11:03:36Z</time>
      </trkpt>
      <trkpt lat="44.14579" lon="1.76664">
        <ele>249.4</ele>
        <time>2023-03-05T11:03:37Z</time>
      </trkpt>
      <trkpt lat="44.14587" lon="1.76656">
        <ele>247.4</ele>
        <time>2023-03-05T11:03:38Z</time>
      </trkpt>
      <trkpt lat="44.14593" lon="1.76647">
        <ele>246.8</ele>
        <time>2023-03-05T11:03:39Z</time>
      </trkpt>
      <trkpt lat="44.14597" lon="1.7664">
        <ele>245.4</ele>
        <time>2023-03-05T11:03:40Z</time>
      </trkpt>
      <trkpt lat="44.14602" lon="1.76633">
        <ele>244</ele>
        <time>2023-03-05T11:03:41Z</time>
      </trkpt>
      <trkpt lat="44.14606" lon="1.76627">
        <ele>243.6</ele>
        <time>2023-03-05T11:03:42Z</time>
      </trkpt>
      <trkpt lat="44.14611" lon="1.76621">
        <ele>241.8</ele>
        <time>2023-03-05T11:03:43Z</time>
      </trkpt>
      <trkpt lat="44.14616" lon="1.76615">
        <ele>241</ele>
        <time>2023-03-05T11:03:44Z</time>
      </trkpt>
      <trkpt lat="44.1462" lon="1.76607">
        <ele>239.8</ele>
        <time>2023-03-05T11:03:45Z</time>
      </trkpt>
      <trkpt lat="44.14623" lon="1.76597">
        <ele>239.4</ele>
        <time>2023-03-05T11:03:46Z</time>
      </trkpt>
      <trkpt lat="44.14629" lon="1.76587">
        <ele>238</ele>
        <time>2023-03-05T11:03:47Z</time>
      </trkpt>
      <trkpt lat="44.14635" lon="1.76576">
        <ele>237</ele>
        <time>2023-03-05T11:03:48Z</time>
      </trkpt>
      <trkpt lat="44.14636" lon="1.76567">
        <ele>235.6</ele>
        <time>2023-03-05T11:03:49Z</time>
      </trkpt>
      <trkpt lat="44.14637" lon="1.76558">
        <ele>235</ele>
        <time>2023-03-05T11:03:50Z</time>
      </trkpt>
      <trkpt lat="44.14637" lon="1.76551">
        <ele>234</ele>
        <time>2023-03-05T11:03:51Z</time>
      </trkpt>
      <trkpt lat="44.14638" lon="1.76545">
        <ele>232.4</ele>
        <time>2023-03-05T11:03:52Z</time>
      </trkpt>
      <trkpt lat="44.1464" lon="1.76539">
        <ele>231.4</ele>
        <time>2023-03-05T11:03:53Z</time>
      </trkpt>
      <trkpt lat="44.14641" lon="1.76534">
        <ele>230</ele>
        <time>2023-03-05T11:03:54Z</time>
      </trkpt>
      <trkpt lat="44.14642" lon="1.76528">
        <ele>229.2</ele>
        <time>2023-03-05T11:03:55Z</time>
      </trkpt>
      <trkpt lat="44.14643" lon="1.76522">
        <ele>227.8</ele>
        <time>2023-03-05T11:03:56Z</time>
      </trkpt>
      <trkpt lat="44.14643" lon="1.76516">
        <ele>227.2</ele>
        <time>2023-03-05T11:03:57Z</time>
      </trkpt>
      <trkpt lat="44.14644" lon="1.76509">
        <ele>226</ele>
        <time>2023-03-05T11:03:58Z</time>
      </trkpt>
      <trkpt lat="44.14644" lon="1.76501">
        <ele>225.4</ele>
        <time>2023-03-05T11:03:59Z</time>
      </trkpt>
      <trkpt lat="44.14645" lon="1.76493">
        <ele>224.2</ele>
        <time>2023-03-05T11:04:00Z</time>
      </trkpt>
      <trkpt lat="44.14647" lon="1.76486">
        <ele>223.8</ele>
        <time>2023-03-05T11:04:01Z</time>
      </trkpt>
      <trkpt lat="44.14648" lon="1.7648">
        <ele>222</ele>
        <time>2023-03-05T11:04:02Z</time>
      </trkpt>
      <trkpt lat="44.1465" lon="1.76472">
        <ele>221.2</ele>
        <time>2023-03-05T11:04:03Z</time>
      </trkpt>
      <trkpt lat="44.14651" lon="1.76464">
        <ele>220.8</ele>
        <time>2023-03-05T11:04:04Z</time>
      </trkpt>
      <trkpt lat="44.14654" lon="1.76456">
        <ele>219.6</ele>
        <time>2023-03-05T11:04:05Z</time>
      </trkpt>
      <trkpt lat="44.14658" lon="1.76446">
        <ele>218.6</ele>
        <time>2023-03-05T11:04:06Z</time>
      </trkpt>
      <trkpt lat="44.14659" lon="1.76436">
        <ele>217.6</ele>
        <time>2023-03-05T11:04:07Z</time>
      </trkpt>
      <trkpt lat="44.14661" lon="1.76429">
        <ele>216.2</ele>
        <time>2023-03-05T11:04:08Z</time>
      </trkpt>
      <trkpt lat="44.14664" lon="1.76419">
        <ele>214.8</ele>
        <time>2023-03-05T11:04:09Z</time>
      </trkpt>
      <trkpt lat="44.14667" lon="1.76409">
        <ele>214.4</ele>
        <time>2023-03-05T11:04:10Z</time>
      </trkpt>
      <trkpt lat="44.14673" lon="1.76397">
        <ele>212.6</ele>
        <time>2023-03-05T11:04:11Z</time>
      </trkpt>
      <trkpt lat="44.14674" lon="1.76388">
        <ele>211.6</ele>
        <time>2023-03-05T11:04:12Z</time>
      </trkpt>
      <trkpt lat="44.14674" lon="1.7638">
        <ele>210.6</ele>
        <time>2023-03-05T11:04:13Z</time>
      </trkpt>
      <trkpt lat="44.14675" lon="1.76371">
        <ele>210</ele>
        <time>2023-03-05T11:04:14Z</time>
      </trkpt>
      <trkpt lat="44.14676" lon="1.76364">
        <ele>209.4</ele>
        <time>2023-03-05T11:04:15Z</time>
      </trkpt>
      <trkpt lat="44.14678" lon="1.76358">
        <ele>208.4</ele>
        <time>2023-03-05T11:04:16Z</time>
      </trkpt>
      <trkpt lat="44.14679" lon="1.7635">
        <ele>207.8</ele>
        <time>2023-03-05T11:04:17Z</time>
      </trkpt>
      <trkpt lat="44.14678" lon="1.76341">
        <ele>206.2</ele>
        <time>2023-03-05T11:04:18Z</time>
      </trkpt>
      <trkpt lat="44.14677" lon="1.76333">
        <ele>205.4</ele>
        <time>2023-03-05T11:04:19Z</time>
      </trkpt>
      <trkpt lat="44.14676" lon="1.76326">
        <ele>204.4</ele>
        <time>2023-03-05T11:04:20Z</time>
      </trkpt>
      <trkpt lat="44.14674" lon="1.76319">
        <ele>204</ele>
        <time>2023-03-05T11:04:21Z</time>
      </trkpt>
      <trkpt lat="44.1467" lon="1.76316">
        <ele>203.4</ele>
        <time>2023-03-05T11:04:22Z</time>
      </trkpt>
      <trkpt lat="44.14664" lon="1.76314">
        <ele>202.6</ele>
        <time>2023-03-05T11:04:23Z</time>
      </trkpt>
      <trkpt lat="44.1466" lon="1.76314">
        <ele>202.4</ele>
        <time>2023-03-05T11:04:24Z</time>
      </trkpt>
      <trkpt lat="44.14656" lon="1.76313">
        <ele>201.8</ele>
        <time>2023-03-05T11:04:25Z</time>
      </trkpt>
      <trkpt lat="44.14652" lon="1.76313">
        <ele>201.6</ele>
        <time>2023-03-05T11:04:26Z</time>
      </trkpt>
      <trkpt lat="44.14648" lon="1.76312">
        <ele>201.2</ele>
        <time>2023-03-05T11:04:27Z</time>
      </trkpt>
      <trkpt lat="44.14644" lon="1.7631">
        <ele>201</ele>
        <time>2023-03-05T11:04:28Z</time>
      </trkpt>
      <trkpt lat="44.14641" lon="1.76308">
        <ele>201</ele>
        <time>2023-03-05T11:04:29Z</time>
      </trkpt>
      <trkpt lat="44.14638" lon="1.76305">
        <ele>200.8</ele>
        <time>2023-03-05T11:04:30Z</time>
      </trkpt>
      <trkpt lat="44.14635" lon="1.76302">
        <ele>200.8</ele>
        <time>2023-03-05T11:04:31Z</time>
      </trkpt>
      <trkpt lat="44.14633" lon="1.76298">
        <ele>200.8</ele>
        <time>2023-03-05T11:04:32Z</time>
      </trkpt>
      <trkpt lat="44.14632" lon="1.76293">
        <ele>200.8</ele>
        <time>2023-03-05T11:04:33Z</time>
      </trkpt>
      <trkpt lat="44.14631" lon="1.76287">
        <ele>200.8</ele>
        <time>2023-03-05T11:04:34Z</time>
      </trkpt>
      <trkpt lat="44.14631" lon="1.76282">
        <ele>200.8</ele>
        <time>2023-03-05T11:04:35Z</time>
      </trkpt>
      <trkpt lat="44.14631" lon="1.76277">
        <ele>201.4</ele>
        <time>2023-03-05T11:04:36Z</time>
      </trkpt>
      <trkpt lat="44.14632" lon="1.76272">
        <ele>201.6</ele>
        <time>2023-03-05T11:04:37Z</time>
      </trkpt>
      <trkpt lat="44.14632" lon="1.76267">
        <ele>202</ele>
        <time>2023-03-05T11:04:38Z</time>
      </trkpt>
      <trkpt lat="44.14633" lon="1.76262">
        <ele>202.2</ele>
        <time>2023-03-05T11:04:39Z</time>
      </trkpt>
      <trkpt lat="44.14634" lon="1.76258">
        <ele>202.8</ele>
        <time>2023-03-05T11:04:40Z</time>
      </trkpt>
      <trkpt lat="44.14635" lon="1.76253">
        <ele>202.8</ele>
        <time>2023-03-05T11:04:41Z</time>
      </trkpt>
      <trkpt lat="44.14635" lon="1.76248">
        <ele>203.2</ele>
        <time>2023-03-05T11:04:42Z</time>
      </trkpt>
      <trkpt lat="44.14636" lon="1.76244">
        <ele>203.4</ele>
        <time>2023-03-05T11:04:43Z</time>
      </trkpt>
      <trkpt lat="44.14636" lon="1.7624">
        <ele>203.6</ele>
        <time>2023-03-05T11:04:44Z</time>
      </trkpt>
      <trkpt lat="44.14636" lon="1.76235">
        <ele>204</ele>
        <time>2023-03-05T11:04:45Z</time>
      </trkpt>
      <trkpt lat="44.14637" lon="1.76231">
        <ele>204.2</ele>
        <time>2023-03-05T11:04:46Z</time>
      </trkpt>
      <trkpt lat="44.14638" lon="1.76226">
        <ele>204.6</ele>
        <time>2023-03-05T11:04:47Z</time>
      </trkpt>
      <trkpt lat="44.14638" lon="1.76222">
        <ele>204.8</ele>
        <time>2023-03-05T11:04:48Z</time>
      </trkpt>
      <trkpt lat="44.14639" lon="1.76217">
        <ele>205.2</ele>
        <time>2023-03-05T11:04:49Z</time>
      </trkpt>
      <trkpt lat="44.1464" lon="1.76212">
        <ele>205.4</ele>
        <time>2023-03-05T11:04:50Z</time>
      </trkpt>
      <trkpt lat="44.1464" lon="1.76208">
        <ele>205.6</ele>
        <time>2023-03-05T11:04:51Z</time>
      </trkpt>
      <trkpt lat="44.14641" lon="1.76204">
        <ele>205.8</ele>
        <time>2023-03-05T11:04:52Z</time>
      </trkpt>
      <trkpt lat="44.14641" lon="1.762">
        <ele>206.2</ele>
        <time>2023-03-05T11:04:53Z</time>
      </trkpt>
      <trkpt lat="44.14641" lon="1.76195">
        <ele>206.2</ele>
        <time>2023-03-05T11:04:54Z</time>
      </trkpt>
      <trkpt lat="44.14641" lon="1.7619">
        <ele>206.6</ele>
        <time>2023-03-05T11:04:55Z</time>
      </trkpt>
      <trkpt lat="44.14641" lon="1.76185">
        <ele>207</ele>
        <time>2023-03-05T11:04:56Z</time>
      </trkpt>
      <trkpt lat="44.14641" lon="1.76181">
        <ele>207.2</ele>
        <time>2023-03-05T11:04:57Z</time>
      </trkpt>
      <trkpt lat="44.14641" lon="1.76177">
        <ele>207.6</ele>
        <time>2023-03-05T11:04:58Z</time>
      </trkpt>
      <trkpt lat="44.14641" lon="1.76172">
        <ele>207.8</ele>
        <time>2023-03-05T11:04:59Z</time>
      </trkpt>
      <trkpt lat="44.1464" lon="1.76168">
        <ele>208.2</ele>
        <time>2023-03-05T11:05:00Z</time>
      </trkpt>
      <trkpt lat="44.1464" lon="1.76164">
        <ele>208.4</ele>
        <time>2023-03-05T11:05:01Z</time>
      </trkpt>
      <trkpt lat="44.14639" lon="1.76159">
        <ele>209</ele>
        <time>2023-03-05T11:05:02Z</time>
      </trkpt>
      <trkpt lat="44.14638" lon="1.76155">
        <ele>209.2</ele>
        <time>2023-03-05T11:05:03Z</time>
      </trkpt>
      <trkpt lat="44.14636" lon="1.76151">
        <ele>209.4</ele>
        <time>2023-03-05T11:05:04Z</time>
      </trkpt>
      <trkpt lat="44.14635" lon="1.76147">
        <ele>209.6</ele>
        <time>2023-03-05T11:05:05Z</time>
      </trkpt>
      <trkpt lat="44.14634" lon="1.76143">
        <ele>209.8</ele>
        <time>2023-03-05T11:05:06Z</time>
      </trkpt>
      <trkpt lat="44.14633" lon="1.76139">
        <ele>210</ele>
        <time>2023-03-05T11:05:07Z</time>
      </trkpt>
      <trkpt lat="44.14631" lon="1.76134">
        <ele>210</ele>
        <time>2023-03-05T11:05:08Z</time>
      </trkpt>
      <trkpt lat="44.1463" lon="1.7613">
        <ele>210.4</ele>
        <time>2023-03-05T11:05:09Z</time>
      </trkpt>
      <trkpt lat="44.14628" lon="1.76126">
        <ele>210.6</ele>
        <time>2023-03-05T11:05:10Z</time>
      </trkpt>
      <trkpt lat="44.14627" lon="1.76122">
        <ele>210.8</ele>
        <time>2023-03-05T11:05:11Z</time>
      </trkpt>
      <trkpt lat="44.14626" lon="1.76117">
        <ele>211</ele>
        <time>2023-03-05T11:05:12Z</time>
      </trkpt>
      <trkpt lat="44.14625" lon="1.76113">
        <ele>211.4</ele>
        <time>2023-03-05T11:05:13Z</time>
      </trkpt>
      <trkpt lat="44.14624" lon="1.76109">
        <ele>211.8</ele>
        <time>2023-03-05T11:05:14Z</time>
      </trkpt>
      <trkpt lat="44.14623" lon="1.76104">
        <ele>212</ele>
        <time>2023-03-05T11:05:15Z</time>
      </trkpt>
      <trkpt lat="44.14623" lon="1.761">
        <ele>212</ele>
        <time>2023-03-05T11:05:16Z</time>
      </trkpt>
      <trkpt lat="44.14624" lon="1.76095">
        <ele>212.4</ele>
        <time>2023-03-05T11:05:17Z</time>
      </trkpt>
      <trkpt lat="44.14625" lon="1.7609">
        <ele>212.8</ele>
        <time>2023-03-05T11:05:18Z</time>
      </trkpt>
      <trkpt lat="44.14625" lon="1.76086">
        <ele>213</ele>
        <time>2023-03-05T11:05:19Z</time>
      </trkpt>
      <trkpt lat="44.14625" lon="1.76082">
        <ele>213.2</ele>
        <time>2023-03-05T11:05:20Z</time>
      </trkpt>
      <trkpt lat="44.14625" lon="1.76078">
        <ele>213.2</ele>
        <time>2023-03-05T11:05:21Z</time>
      </trkpt>
      <trkpt lat="44.14627" lon="1.76073">
        <ele>213.8</ele>
        <time>2023-03-05T11:05:22Z</time>
      </trkpt>
      <trkpt lat="44.14627" lon="1.76069">
        <ele>213.8</ele>
        <time>2023-03-05T11:05:23Z</time>
      </trkpt>
      <trkpt lat="44.14628" lon="1.76065">
        <ele>214.2</ele>
        <time>2023-03-05T11:05:24Z</time>
      </trkpt>
      <trkpt lat="44.14629" lon="1.76061">
        <ele>214.4</ele>
        <time>2023-03-05T11:05:25Z</time>
      </trkpt>
      <trkpt lat="44.1463" lon="1.76057">
        <ele>214.6</ele>
        <time>2023-03-05T11:05:26Z</time>
      </trkpt>
      <trkpt lat="44.14631" lon="1.76053">
        <ele>214.8</ele>
        <time>2023-03-05T11:05:27Z</time>
      </trkpt>
      <trkpt lat="44.14632" lon="1.76049">
        <ele>215</ele>
        <time>2023-03-05T11:05:28Z</time>
      </trkpt>
      <trkpt lat="44.14633" lon="1.76045">
        <ele>215.2</ele>
        <time>2023-03-05T11:05:29Z</time>
      </trkpt>
      <trkpt lat="44.14634" lon="1.7604">
        <ele>215.4</ele>
        <time>2023-03-05T11:05:30Z</time>
      </trkpt>
      <trkpt lat="44.14635" lon="1.76036">
        <ele>216</ele>
        <time>2023-03-05T11:05:31Z</time>
      </trkpt>
      <trkpt lat="44.14636" lon="1.76032">
        <ele>216.2</ele>
        <time>2023-03-05T11:05:32Z</time>
      </trkpt>
      <trkpt lat="44.14637" lon="1.76028">
        <ele>216.6</ele>
        <time>2023-03-05T11:05:33Z</time>
      </trkpt>
      <trkpt lat="44.14637" lon="1.76024">
        <ele>216.8</ele>
        <time>2023-03-05T11:05:34Z</time>
      </trkpt>
      <trkpt lat="44.14638" lon="1.7602">
        <ele>217</ele>
        <time>2023-03-05T11:05:35Z</time>
      </trkpt>
      <trkpt lat="44.14638" lon="1.76016">
        <ele>217.2</ele>
        <time>2023-03-05T11:05:36Z</time>
      </trkpt>
      <trkpt lat="44.14638" lon="1.76012">
        <ele>217.6</ele>
        <time>2023-03-05T11:05:37Z</time>
      </trkpt>
      <trkpt lat="44.14639" lon="1.76008">
        <ele>217.8</ele>
        <time>2023-03-05T11:05:38Z</time>
      </trkpt>
      <trkpt lat="44.14639" lon="1.76004">
        <ele>218</ele>
        <time>2023-03-05T11:05:39Z</time>
      </trkpt>
      <trkpt lat="44.1464" lon="1.75999">
        <ele>218.4</ele>
        <time>2023-03-05T11:05:40Z</time>
      </trkpt>
      <trkpt lat="44.1464" lon="1.75995">
        <ele>218.4</ele>
        <time>2023-03-05T11:05:41Z</time>
      </trkpt>
      <trkpt lat="44.14641" lon="1.75991">
        <ele>218.8</ele>
        <time>2023-03-05T11:05:42Z</time>
      </trkpt>
      <trkpt lat="44.14641" lon="1.75987">
        <ele>219</ele>
        <time>2023-03-05T11:05:43Z</time>
      </trkpt>
      <trkpt lat="44.14641" lon="1.75983">
        <ele>219.4</ele>
        <time>2023-03-05T11:05:44Z</time>
      </trkpt>
      <trkpt lat="44.14641" lon="1.75978">
        <ele>219.4</ele>
        <time>2023-03-05T11:05:45Z</time>
      </trkpt>
      <trkpt lat="44.14641" lon="1.75974">
        <ele>220</ele>
        <time>2023-03-05T11:05:46Z</time>
      </trkpt>
      <trkpt lat="44.14641" lon="1.75969">
        <ele>220.2</ele>
        <time>2023-03-05T11:05:47Z</time>
      </trkpt>
      <trkpt lat="44.14641" lon="1.75964">
        <ele>220.6</ele>
        <time>2023-03-05T11:05:48Z</time>
      </trkpt>
      <trkpt lat="44.14641" lon="1.7596">
        <ele>220.8</ele>
        <time>2023-03-05T11:05:49Z</time>
      </trkpt>
      <trkpt lat="44.14642" lon="1.75957">
        <ele>221.2</ele>
        <time>2023-03-05T11:05:50Z</time>
      </trkpt>
      <trkpt lat="44.14641" lon="1.75953">
        <ele>221.6</ele>
        <time>2023-03-05T11:05:51Z</time>
      </trkpt>
      <trkpt lat="44.14641" lon="1.7595">
        <ele>222</ele>
        <time>2023-03-05T11:05:52Z</time>
      </trkpt>
      <trkpt lat="44.14641" lon="1.75945">
        <ele>222.4</ele>
        <time>2023-03-05T11:05:53Z</time>
      </trkpt>
      <trkpt lat="44.1464" lon="1.7594">
        <ele>222.8</ele>
        <time>2023-03-05T11:05:54Z</time>
      </trkpt>
      <trkpt lat="44.14641" lon="1.75935">
        <ele>223.2</ele>
        <time>2023-03-05T11:05:55Z</time>
      </trkpt>
      <trkpt lat="44.14641" lon="1.75931">
        <ele>223.2</ele>
        <time>2023-03-05T11:05:56Z</time>
      </trkpt>
      <trkpt lat="44.14641" lon="1.75926">
        <ele>223.6</ele>
        <time>2023-03-05T11:05:57Z</time>
      </trkpt>
      <trkpt lat="44.14641" lon="1.75922">
        <ele>223.8</ele>
        <time>2023-03-05T11:05:58Z</time>
      </trkpt>
      <trkpt lat="44.14641" lon="1.75917">
        <ele>224.2</ele>
        <time>2023-03-05T11:05:59Z</time>
      </trkpt>
      <trkpt lat="44.14642" lon="1.75911">
        <ele>224.4</ele>
        <time>2023-03-05T11:06:00Z</time>
      </trkpt>
      <trkpt lat="44.14643" lon="1.75905">
        <ele>224.8</ele>
        <time>2023-03-05T11:06:01Z</time>
      </trkpt>
      <trkpt lat="44.14644" lon="1.759">
        <ele>225</ele>
        <time>2023-03-05T11:06:02Z</time>
      </trkpt>
      <trkpt lat="44.14645" lon="1.75894">
        <ele>225.2</ele>
        <time>2023-03-05T11:06:03Z</time>
      </trkpt>
      <trkpt lat="44.14646" lon="1.7589">
        <ele>225.6</ele>
        <time>2023-03-05T11:06:04Z</time>
      </trkpt>
      <trkpt lat="44.14647" lon="1.75885">
        <ele>225.8</ele>
        <time>2023-03-05T11:06:05Z</time>
      </trkpt>
      <trkpt lat="44.14649" lon="1.7588">
        <ele>226</ele>
        <time>2023-03-05T11:06:06Z</time>
      </trkpt>
      <trkpt lat="44.1465" lon="1.75874">
        <ele>226</ele>
        <time>2023-03-05T11:06:07Z</time>
      </trkpt>
      <trkpt lat="44.14653" lon="1.75869">
        <ele>226.4</ele>
        <time>2023-03-05T11:06:08Z</time>
      </trkpt>
      <trkpt lat="44.14655" lon="1.75863">
        <ele>226.6</ele>
        <time>2023-03-05T11:06:09Z</time>
      </trkpt>
      <trkpt lat="44.14655" lon="1.75859">
        <ele>226.8</ele>
        <time>2023-03-05T11:06:10Z</time>
      </trkpt>
      <trkpt lat="44.14656" lon="1.75854">
        <ele>226.8</ele>
        <time>2023-03-05T11:06:11Z</time>
      </trkpt>
      <trkpt lat="44.14657" lon="1.75849">
        <ele>227.2</ele>
        <time>2023-03-05T11:06:12Z</time>
      </trkpt>
      <trkpt lat="44.14659" lon="1.75845">
        <ele>227.6</ele>
        <time>2023-03-05T11:06:13Z</time>
      </trkpt>
      <trkpt lat="44.14659" lon="1.7584">
        <ele>227.8</ele>
        <time>2023-03-05T11:06:14Z</time>
      </trkpt>
      <trkpt lat="44.1466" lon="1.75835">
        <ele>228.2</ele>
        <time>2023-03-05T11:06:15Z</time>
      </trkpt>
      <trkpt lat="44.14661" lon="1.7583">
        <ele>228.4</ele>
        <time>2023-03-05T11:06:16Z</time>
      </trkpt>
      <trkpt lat="44.14662" lon="1.75825">
        <ele>229</ele>
        <time>2023-03-05T11:06:17Z</time>
      </trkpt>
      <trkpt lat="44.14663" lon="1.7582">
        <ele>229.2</ele>
        <time>2023-03-05T11:06:18Z</time>
      </trkpt>
      <trkpt lat="44.14664" lon="1.75815">
        <ele>229.8</ele>
        <time>2023-03-05T11:06:19Z</time>
      </trkpt>
      <trkpt lat="44.14665" lon="1.7581">
        <ele>229.8</ele>
        <time>2023-03-05T11:06:20Z</time>
      </trkpt>
      <trkpt lat="44.14665" lon="1.75807">
        <ele>230.4</ele>
        <time>2023-03-05T11:06:21Z</time>
      </trkpt>
      <trkpt lat="44.14665" lon="1.75803">
        <ele>230.6</ele>
        <time>2023-03-05T11:06:22Z</time>
      </trkpt>
      <trkpt lat="44.14664" lon="1.75799">
        <ele>230.8</ele>
        <time>2023-03-05T11:06:23Z</time>
      </trkpt>
      <trkpt lat="44.14664" lon="1.75795">
        <ele>231.2</ele>
        <time>2023-03-05T11:06:24Z</time>
      </trkpt>
      <trkpt lat="44.14664" lon="1.7579">
        <ele>231.4</ele>
        <time>2023-03-05T11:06:25Z</time>
      </trkpt>
      <trkpt lat="44.14664" lon="1.75786">
        <ele>232</ele>
        <time>2023-03-05T11:06:26Z</time>
      </trkpt>
      <trkpt lat="44.14664" lon="1.75782">
        <ele>232.2</ele>
        <time>2023-03-05T11:06:27Z</time>
      </trkpt>
      <trkpt lat="44.14665" lon="1.75777">
        <ele>232.4</ele>
        <time>2023-03-05T11:06:28Z</time>
      </trkpt>
      <trkpt lat="44.14666" lon="1.75772">
        <ele>232.6</ele>
        <time>2023-03-05T11:06:29Z</time>
      </trkpt>
      <trkpt lat="44.14666" lon="1.75768">
        <ele>233</ele>
        <time>2023-03-05T11:06:30Z</time>
      </trkpt>
      <trkpt lat="44.14666" lon="1.75764">
        <ele>233</ele>
        <time>2023-03-05T11:06:31Z</time>
      </trkpt>
      <trkpt lat="44.14667" lon="1.75759">
        <ele>233.4</ele>
        <time>2023-03-05T11:06:32Z</time>
      </trkpt>
      <trkpt lat="44.14668" lon="1.75755">
        <ele>233.6</ele>
        <time>2023-03-05T11:06:33Z</time>
      </trkpt>
      <trkpt lat="44.14668" lon="1.75751">
        <ele>233.8</ele>
        <time>2023-03-05T11:06:34Z</time>
      </trkpt>
      <trkpt lat="44.14668" lon="1.75747">
        <ele>234</ele>
        <time>2023-03-05T11:06:35Z</time>
      </trkpt>
      <trkpt lat="44.14667" lon="1.75743">
        <ele>234.2</ele>
        <time>2023-03-05T11:06:36Z</time>
      </trkpt>
      <trkpt lat="44.14667" lon="1.75739">
        <ele>234.4</ele>
        <time>2023-03-05T11:06:37Z</time>
      </trkpt>
      <trkpt lat="44.14668" lon="1.75735">
        <ele>234.4</ele>
        <time>2023-03-05T11:06:38Z</time>
      </trkpt>
      <trkpt lat="44.14668" lon="1.75731">
        <ele>234.8</ele>
        <time>2023-03-05T11:06:39Z</time>
      </trkpt>
      <trkpt lat="44.14668" lon="1.75727">
        <ele>234.8</ele>
        <time>2023-03-05T11:06:40Z</time>
      </trkpt>
      <trkpt lat="44.14668" lon="1.75723">
        <ele>235.2</ele>
        <time>2023-03-05T11:06:41Z</time>
      </trkpt>
      <trkpt lat="44.14667" lon="1.75719">
        <ele>235.4</ele>
        <time>2023-03-05T11:06:42Z</time>
      </trkpt>
      <trkpt lat="44.14667" lon="1.75714">
        <ele>235.8</ele>
        <time>2023-03-05T11:06:43Z</time>
      </trkpt>
      <trkpt lat="44.14669" lon="1.7571">
        <ele>235.8</ele>
        <time>2023-03-05T11:06:44Z</time>
      </trkpt>
      <trkpt lat="44.14668" lon="1.75705">
        <ele>236.2</ele>
        <time>2023-03-05T11:06:45Z</time>
      </trkpt>
      <trkpt lat="44.14667" lon="1.757">
        <ele>236.4</ele>
        <time>2023-03-05T11:06:46Z</time>
      </trkpt>
      <trkpt lat="44.14666" lon="1.75696">
        <ele>236.6</ele>
        <time>2023-03-05T11:06:47Z</time>
      </trkpt>
      <trkpt lat="44.14664" lon="1.75691">
        <ele>237</ele>
        <time>2023-03-05T11:06:48Z</time>
      </trkpt>
      <trkpt lat="44.14663" lon="1.75687">
        <ele>237.2</ele>
        <time>2023-03-05T11:06:49Z</time>
      </trkpt>
      <trkpt lat="44.14662" lon="1.75683">
        <ele>237.4</ele>
        <time>2023-03-05T11:06:50Z</time>
      </trkpt>
      <trkpt lat="44.14661" lon="1.75679">
        <ele>237.6</ele>
        <time>2023-03-05T11:06:51Z</time>
      </trkpt>
      <trkpt lat="44.1466" lon="1.75675">
        <ele>238</ele>
        <time>2023-03-05T11:06:52Z</time>
      </trkpt>
      <trkpt lat="44.14658" lon="1.75671">
        <ele>238.2</ele>
        <time>2023-03-05T11:06:53Z</time>
      </trkpt>
      <trkpt lat="44.14658" lon="1.75665">
        <ele>238.4</ele>
        <time>2023-03-05T11:06:54Z</time>
      </trkpt>
      <trkpt lat="44.14657" lon="1.75661">
        <ele>238.6</ele>
        <time>2023-03-05T11:06:55Z</time>
      </trkpt>
      <trkpt lat="44.14656" lon="1.75655">
        <ele>238.8</ele>
        <time>2023-03-05T11:06:56Z</time>
      </trkpt>
      <trkpt lat="44.14655" lon="1.75651">
        <ele>239.2</ele>
        <time>2023-03-05T11:06:57Z</time>
      </trkpt>
      <trkpt lat="44.14655" lon="1.75646">
        <ele>239.4</ele>
        <time>2023-03-05T11:06:58Z</time>
      </trkpt>
      <trkpt lat="44.14655" lon="1.75642">
        <ele>239.6</ele>
        <time>2023-03-05T11:06:59Z</time>
      </trkpt>
      <trkpt lat="44.14656" lon="1.75637">
        <ele>239.8</ele>
        <time>2023-03-05T11:07:00Z</time>
      </trkpt>
      <trkpt lat="44.14656" lon="1.75632">
        <ele>240.2</ele>
        <time>2023-03-05T11:07:01Z</time>
      </trkpt>
      <trkpt lat="44.14657" lon="1.75627">
        <ele>240.4</ele>
        <time>2023-03-05T11:07:02Z</time>
      </trkpt>
      <trkpt lat="44.14658" lon="1.75622">
        <ele>240.6</ele>
        <time>2023-03-05T11:07:03Z</time>
      </trkpt>
      <trkpt lat="44.14659" lon="1.75617">
        <ele>240.8</ele>
        <time>2023-03-05T11:07:04Z</time>
      </trkpt>
      <trkpt lat="44.14661" lon="1.75612">
        <ele>241.4</ele>
        <time>2023-03-05T11:07:05Z</time>
      </trkpt>
      <trkpt lat="44.14663" lon="1.75607">
        <ele>241.6</ele>
        <time>2023-03-05T11:07:06Z</time>
      </trkpt>
      <trkpt lat="44.14664" lon="1.75602">
        <ele>242.2</ele>
        <time>2023-03-05T11:07:07Z</time>
      </trkpt>
      <trkpt lat="44.14666" lon="1.75598">
        <ele>242.4</ele>
        <time>2023-03-05T11:07:08Z</time>
      </trkpt>
      <trkpt lat="44.14667" lon="1.75594">
        <ele>242.8</ele>
        <time>2023-03-05T11:07:09Z</time>
      </trkpt>
      <trkpt lat="44.14668" lon="1.75589">
        <ele>243</ele>
        <time>2023-03-05T11:07:10Z</time>
      </trkpt>
      <trkpt lat="44.14669" lon="1.75586">
        <ele>243.4</ele>
        <time>2023-03-05T11:07:11Z</time>
      </trkpt>
      <trkpt lat="44.14671" lon="1.75581">
        <ele>243.8</ele>
        <time>2023-03-05T11:07:12Z</time>
      </trkpt>
      <trkpt lat="44.14673" lon="1.75578">
        <ele>244</ele>
        <time>2023-03-05T11:07:13Z</time>
      </trkpt>
      <trkpt lat="44.14674" lon="1.75574">
        <ele>244.4</ele>
        <time>2023-03-05T11:07:14Z</time>
      </trkpt>
      <trkpt lat="44.14675" lon="1.75572">
        <ele>244.4</ele>
        <time>2023-03-05T11:07:15Z</time>
      </trkpt>
      <trkpt lat="44.14676" lon="1.75569">
        <ele>245.2</ele>
        <time>2023-03-05T11:07:16Z</time>
      </trkpt>
      <trkpt lat="44.14679" lon="1.75566">
        <ele>245.4</ele>
        <time>2023-03-05T11:07:17Z</time>
      </trkpt>
      <trkpt lat="44.1468" lon="1.75563">
        <ele>245.8</ele>
        <time>2023-03-05T11:07:18Z</time>
      </trkpt>
      <trkpt lat="44.14681" lon="1.75561">
        <ele>246</ele>
        <time>2023-03-05T11:07:19Z</time>
      </trkpt>
      <trkpt lat="44.14683" lon="1.7556">
        <ele>246.2</ele>
        <time>2023-03-05T11:07:20Z</time>
      </trkpt>
      <trkpt lat="44.14685" lon="1.7556">
        <ele>246.6</ele>
        <time>2023-03-05T11:07:21Z</time>
      </trkpt>
      <trkpt lat="44.14687" lon="1.75559">
        <ele>246.6</ele>
        <time>2023-03-05T11:07:22Z</time>
      </trkpt>
      <trkpt lat="44.14689" lon="1.75558">
        <ele>246.8</ele>
        <time>2023-03-05T11:07:23Z</time>
      </trkpt>
      <trkpt lat="44.14691" lon="1.75556">
        <ele>246.8</ele>
        <time>2023-03-05T11:07:24Z</time>
      </trkpt>
      <trkpt lat="44.14693" lon="1.75553">
        <ele>246.8</ele>
        <time>2023-03-05T11:07:25Z</time>
      </trkpt>
      <trkpt lat="44.14696" lon="1.7555">
        <ele>246.8</ele>
        <time>2023-03-05T11:07:26Z</time>
      </trkpt>
      <trkpt lat="44.14698" lon="1.75548">
        <ele>246.8</ele>
        <time>2023-03-05T11:07:27Z</time>
      </trkpt>
      <trkpt lat="44.14702" lon="1.75544">
        <ele>246.8</ele>
        <time>2023-03-05T11:07:28Z</time>
      </trkpt>
      <trkpt lat="44.14706" lon="1.7554">
        <ele>246.6</ele>
        <time>2023-03-05T11:07:29Z</time>
      </trkpt>
      <trkpt lat="44.14711" lon="1.75537">
        <ele>246.6</ele>
        <time>2023-03-05T11:07:30Z</time>
      </trkpt>
      <trkpt lat="44.14718" lon="1.75533">
        <ele>245.8</ele>
        <time>2023-03-05T11:07:31Z</time>
      </trkpt>
      <trkpt lat="44.14722" lon="1.7553">
        <ele>245.2</ele>
        <time>2023-03-05T11:07:32Z</time>
      </trkpt>
      <trkpt lat="44.14727" lon="1.75527">
        <ele>245</ele>
        <time>2023-03-05T11:07:33Z</time>
      </trkpt>
      <trkpt lat="44.14732" lon="1.75524">
        <ele>244.4</ele>
        <time>2023-03-05T11:07:34Z</time>
      </trkpt>
      <trkpt lat="44.14739" lon="1.7552">
        <ele>243.8</ele>
        <time>2023-03-05T11:07:35Z</time>
      </trkpt>
      <trkpt lat="44.14744" lon="1.75516">
        <ele>242.8</ele>
        <time>2023-03-05T11:07:36Z</time>
      </trkpt>
      <trkpt lat="44.14747" lon="1.75513">
        <ele>242.2</ele>
        <time>2023-03-05T11:07:37Z</time>
      </trkpt>
      <trkpt lat="44.14753" lon="1.7551">
        <ele>241</ele>
        <time>2023-03-05T11:07:38Z</time>
      </trkpt>
      <trkpt lat="44.14758" lon="1.75507">
        <ele>240.4</ele>
        <time>2023-03-05T11:07:39Z</time>
      </trkpt>
      <trkpt lat="44.14763" lon="1.75505">
        <ele>239.4</ele>
        <time>2023-03-05T11:07:40Z</time>
      </trkpt>
      <trkpt lat="44.14768" lon="1.75501">
        <ele>238.6</ele>
        <time>2023-03-05T11:07:41Z</time>
      </trkpt>
      <trkpt lat="44.14773" lon="1.75498">
        <ele>237.2</ele>
        <time>2023-03-05T11:07:42Z</time>
      </trkpt>
      <trkpt lat="44.14777" lon="1.75495">
        <ele>236</ele>
        <time>2023-03-05T11:07:43Z</time>
      </trkpt>
      <trkpt lat="44.14782" lon="1.75491">
        <ele>235</ele>
        <time>2023-03-05T11:07:44Z</time>
      </trkpt>
      <trkpt lat="44.14786" lon="1.75488">
        <ele>233.4</ele>
        <time>2023-03-05T11:07:45Z</time>
      </trkpt>
      <trkpt lat="44.1479" lon="1.75486">
        <ele>232.4</ele>
        <time>2023-03-05T11:07:46Z</time>
      </trkpt>
      <trkpt lat="44.14792" lon="1.75483">
        <ele>231.2</ele>
        <time>2023-03-05T11:07:47Z</time>
      </trkpt>
      <trkpt lat="44.14794" lon="1.75478">
        <ele>231</ele>
        <time>2023-03-05T11:07:48Z</time>
      </trkpt>
      <trkpt lat="44.14796" lon="1.75473">
        <ele>230</ele>
        <time>2023-03-05T11:07:49Z</time>
      </trkpt>
      <trkpt lat="44.14797" lon="1.75469">
        <ele>229.4</ele>
        <time>2023-03-05T11:07:50Z</time>
      </trkpt>
      <trkpt lat="44.14799" lon="1.75464">
        <ele>228</ele>
        <time>2023-03-05T11:07:51Z</time>
      </trkpt>
      <trkpt lat="44.148" lon="1.7546">
        <ele>227.2</ele>
        <time>2023-03-05T11:07:52Z</time>
      </trkpt>
      <trkpt lat="44.14802" lon="1.75454">
        <ele>226</ele>
        <time>2023-03-05T11:07:53Z</time>
      </trkpt>
      <trkpt lat="44.14803" lon="1.75449">
        <ele>225.2</ele>
        <time>2023-03-05T11:07:54Z</time>
      </trkpt>
      <trkpt lat="44.14805" lon="1.75445">
        <ele>224.6</ele>
        <time>2023-03-05T11:07:55Z</time>
      </trkpt>
      <trkpt lat="44.14807" lon="1.7544">
        <ele>223.8</ele>
        <time>2023-03-05T11:07:56Z</time>
      </trkpt>
      <trkpt lat="44.14811" lon="1.75436">
        <ele>223</ele>
        <time>2023-03-05T11:07:57Z</time>
      </trkpt>
      <trkpt lat="44.14814" lon="1.75432">
        <ele>221.8</ele>
        <time>2023-03-05T11:07:58Z</time>
      </trkpt>
      <trkpt lat="44.14819" lon="1.75429">
        <ele>221.4</ele>
        <time>2023-03-05T11:07:59Z</time>
      </trkpt>
      <trkpt lat="44.14823" lon="1.75425">
        <ele>220.2</ele>
        <time>2023-03-05T11:08:00Z</time>
      </trkpt>
      <trkpt lat="44.14827" lon="1.75423">
        <ele>219.4</ele>
        <time>2023-03-05T11:08:01Z</time>
      </trkpt>
      <trkpt lat="44.1483" lon="1.75422">
        <ele>218</ele>
        <time>2023-03-05T11:08:02Z</time>
      </trkpt>
      <trkpt lat="44.14833" lon="1.75422">
        <ele>217.4</ele>
        <time>2023-03-05T11:08:03Z</time>
      </trkpt>
      <trkpt lat="44.14837" lon="1.75422">
        <ele>216</ele>
        <time>2023-03-05T11:08:04Z</time>
      </trkpt>
      <trkpt lat="44.14839" lon="1.75424">
        <ele>215.2</ele>
        <time>2023-03-05T11:08:05Z</time>
      </trkpt>
      <trkpt lat="44.14841" lon="1.75427">
        <ele>214.4</ele>
        <time>2023-03-05T11:08:06Z</time>
      </trkpt>
      <trkpt lat="44.14842" lon="1.75431">
        <ele>212.8</ele>
        <time>2023-03-05T11:08:07Z</time>
      </trkpt>
      <trkpt lat="44.14841" lon="1.75435">
        <ele>212.2</ele>
        <time>2023-03-05T11:08:08Z</time>
      </trkpt>
      <trkpt lat="44.14839" lon="1.75439">
        <ele>211.4</ele>
        <time>2023-03-05T11:08:09Z</time>
      </trkpt>
      <trkpt lat="44.14838" lon="1.75445">
        <ele>211</ele>
        <time>2023-03-05T11:08:10Z</time>
      </trkpt>
      <trkpt lat="44.14838" lon="1.7545">
        <ele>210.2</ele>
        <time>2023-03-05T11:08:11Z</time>
      </trkpt>
      <trkpt lat="44.14838" lon="1.75455">
        <ele>209.8</ele>
        <time>2023-03-05T11:08:12Z</time>
      </trkpt>
      <trkpt lat="44.14838" lon="1.75459">
        <ele>208</ele>
        <time>2023-03-05T11:08:13Z</time>
      </trkpt>
      <trkpt lat="44.14839" lon="1.75461">
        <ele>207</ele>
        <time>2023-03-05T11:08:14Z</time>
      </trkpt>
      <trkpt lat="44.14841" lon="1.75463">
        <ele>205.2</ele>
        <time>2023-03-05T11:08:15Z</time>
      </trkpt>
      <trkpt lat="44.14843" lon="1.75464">
        <ele>204</ele>
        <time>2023-03-05T11:08:16Z</time>
      </trkpt>
      <trkpt lat="44.14847" lon="1.75463">
        <ele>203.2</ele>
        <time>2023-03-05T11:08:17Z</time>
      </trkpt>
      <trkpt lat="44.1485" lon="1.75461">
        <ele>202</ele>
        <time>2023-03-05T11:08:18Z</time>
      </trkpt>
      <trkpt lat="44.14854" lon="1.75459">
        <ele>201.4</ele>
        <time>2023-03-05T11:08:19Z</time>
      </trkpt>
      <trkpt lat="44.14856" lon="1.75456">
        <ele>199.8</ele>
        <time>2023-03-05T11:08:20Z</time>
      </trkpt>
      <trkpt lat="44.14859" lon="1.75453">
        <ele>199</ele>
        <time>2023-03-05T11:08:21Z</time>
      </trkpt>
      <trkpt lat="44.14862" lon="1.7545">
        <ele>197.6</ele>
        <time>2023-03-05T11:08:22Z</time>
      </trkpt>
      <trkpt lat="44.14866" lon="1.75448">
        <ele>197</ele>
        <time>2023-03-05T11:08:23Z</time>
      </trkpt>
      <trkpt lat="44.14869" lon="1.75447">
        <ele>195.6</ele>
        <time>2023-03-05T11:08:24Z</time>
      </trkpt>
      <trkpt lat="44.14872" lon="1.75446">
        <ele>195.2</ele>
        <time>2023-03-05T11:08:25Z</time>
      </trkpt>
      <trkpt lat="44.14873" lon="1.75444">
        <ele>193.6</ele>
        <time>2023-03-05T11:08:26Z</time>
      </trkpt>
      <trkpt lat="44.14874" lon="1.75442">
        <ele>193</ele>
        <time>2023-03-05T11:08:27Z</time>
      </trkpt>
      <trkpt lat="44.14876" lon="1.75441">
        <ele>191.4</ele>
        <time>2023-03-05T11:08:28Z</time>
      </trkpt>
      <trkpt lat="44.14878" lon="1.7544">
        <ele>189.8</ele>
        <time>2023-03-05T11:08:29Z</time>
      </trkpt>
      <trkpt lat="44.14881" lon="1.7544">
        <ele>189.4</ele>
        <time>2023-03-05T11:08:30Z</time>
      </trkpt>
      <trkpt lat="44.14883" lon="1.75438">
        <ele>188.4</ele>
        <time>2023-03-05T11:08:31Z</time>
      </trkpt>
      <trkpt lat="44.14884" lon="1.75435">
        <ele>188</ele>
        <time>2023-03-05T11:08:32Z</time>
      </trkpt>
      <trkpt lat="44.14886" lon="1.75432">
        <ele>186.8</ele>
        <time>2023-03-05T11:08:33Z</time>
      </trkpt>
      <trkpt lat="44.14887" lon="1.75427">
        <ele>186.2</ele>
        <time>2023-03-05T11:08:34Z</time>
      </trkpt>
      <trkpt lat="44.14889" lon="1.75421">
        <ele>185.4</ele>
        <time>2023-03-05T11:08:35Z</time>
      </trkpt>
      <trkpt lat="44.14892" lon="1.75415">
        <ele>185.2</ele>
        <time>2023-03-05T11:08:36Z</time>
      </trkpt>
      <trkpt lat="44.14896" lon="1.7541">
        <ele>184.4</ele>
        <time>2023-03-05T11:08:37Z</time>
      </trkpt>
      <trkpt lat="44.149" lon="1.75405">
        <ele>184</ele>
        <time>2023-03-05T11:08:38Z</time>
      </trkpt>
      <trkpt lat="44.14903" lon="1.75399">
        <ele>182.8</ele>
        <time>2023-03-05T11:08:39Z</time>
      </trkpt>
      <trkpt lat="44.14905" lon="1.75394">
        <ele>181.8</ele>
        <time>2023-03-05T11:08:40Z</time>
      </trkpt>
      <trkpt lat="44.14906" lon="1.7539">
        <ele>181.2</ele>
        <time>2023-03-05T11:08:41Z</time>
      </trkpt>
      <trkpt lat="44.14906" lon="1.75387">
        <ele>179.6</ele>
        <time>2023-03-05T11:08:42Z</time>
      </trkpt>
      <trkpt lat="44.14907" lon="1.75385">
        <ele>178.6</ele>
        <time>2023-03-05T11:08:43Z</time>
      </trkpt>
      <trkpt lat="44.14909" lon="1.75383">
        <ele>177.6</ele>
        <time>2023-03-05T11:08:44Z</time>
      </trkpt>
      <trkpt lat="44.14911" lon="1.75382">
        <ele>177.4</ele>
        <time>2023-03-05T11:08:45Z</time>
      </trkpt>
      <trkpt lat="44.14912" lon="1.75382">
        <ele>176.8</ele>
        <time>2023-03-05T11:08:46Z</time>
      </trkpt>
      <trkpt lat="44.14912" lon="1.75385">
        <ele>176.4</ele>
        <time>2023-03-05T11:08:47Z</time>
      </trkpt>
      <trkpt lat="44.14914" lon="1.75388">
        <ele>175.4</ele>
        <time>2023-03-05T11:08:48Z</time>
      </trkpt>
      <trkpt lat="44.14916" lon="1.7539">
        <ele>175</ele>
        <time>2023-03-05T11:08:49Z</time>
      </trkpt>
      <trkpt lat="44.14917" lon="1.75389">
        <ele>173.8</ele>
        <time>2023-03-05T11:08:50Z</time>
      </trkpt>
      <trkpt lat="44.14917" lon="1.75386">
        <ele>173.4</ele>
        <time>2023-03-05T11:08:51Z</time>
      </trkpt>
      <trkpt lat="44.14919" lon="1.75383">
        <ele>172.8</ele>
        <time>2023-03-05T11:08:52Z</time>
      </trkpt>
      <trkpt lat="44.1492" lon="1.75381">
        <ele>171.8</ele>
        <time>2023-03-05T11:08:53Z</time>
      </trkpt>
      <trkpt lat="44.14924" lon="1.75379">
        <ele>171.2</ele>
        <time>2023-03-05T11:08:54Z</time>
      </trkpt>
      <trkpt lat="44.14926" lon="1.75379">
        <ele>170</ele>
        <time>2023-03-05T11:08:55Z</time>
      </trkpt>
      <trkpt lat="44.14929" lon="1.75379">
        <ele>169.6</ele>
        <time>2023-03-05T11:08:56Z</time>
      </trkpt>
      <trkpt lat="44.1493" lon="1.75381">
        <ele>168.8</ele>
        <time>2023-03-05T11:08:57Z</time>
      </trkpt>
      <trkpt lat="44.14931" lon="1.75384">
        <ele>168.4</ele>
        <time>2023-03-05T11:08:58Z</time>
      </trkpt>
      <trkpt lat="44.1493" lon="1.75387">
        <ele>167.6</ele>
        <time>2023-03-05T11:08:59Z</time>
      </trkpt>
      <trkpt lat="44.14929" lon="1.75391">
        <ele>167</ele>
        <time>2023-03-05T11:09:00Z</time>
      </trkpt>
      <trkpt lat="44.14928" lon="1.75395">
        <ele>165.6</ele>
        <time>2023-03-05T11:09:01Z</time>
      </trkpt>
      <trkpt lat="44.14927" lon="1.754">
        <ele>164.4</ele>
        <time>2023-03-05T11:09:02Z</time>
      </trkpt>
      <trkpt lat="44.14927" lon="1.75405">
        <ele>164</ele>
        <time>2023-03-05T11:09:03Z</time>
      </trkpt>
      <trkpt lat="44.14926" lon="1.7541">
        <ele>163.6</ele>
        <time>2023-03-05T11:09:04Z</time>
      </trkpt>
      <trkpt lat="44.14925" lon="1.75415">
        <ele>163.4</ele>
        <time>2023-03-05T11:09:05Z</time>
      </trkpt>
      <trkpt lat="44.14925" lon="1.7542">
        <ele>163</ele>
        <time>2023-03-05T11:09:06Z</time>
      </trkpt>
      <trkpt lat="44.14924" lon="1.75425">
        <ele>163</ele>
        <time>2023-03-05T11:09:07Z</time>
      </trkpt>
      <trkpt lat="44.14923" lon="1.75431">
        <ele>162.8</ele>
        <time>2023-03-05T11:09:08Z</time>
      </trkpt>
      <trkpt lat="44.14922" lon="1.75437">
        <ele>162.8</ele>
        <time>2023-03-05T11:09:09Z</time>
      </trkpt>
      <trkpt lat="44.14921" lon="1.75442">
        <ele>162.4</ele>
        <time>2023-03-05T11:09:10Z</time>
      </trkpt>
      <trkpt lat="44.1492" lon="1.75447">
        <ele>162.4</ele>
        <time>2023-03-05T11:09:11Z</time>
      </trkpt>
      <trkpt lat="44.1492" lon="1.75452">
        <ele>162.2</ele>
        <time>2023-03-05T11:09:12Z</time>
      </trkpt>
      <trkpt lat="44.14918" lon="1.75458">
        <ele>162.2</ele>
        <time>2023-03-05T11:09:13Z</time>
      </trkpt>
      <trkpt lat="44.14917" lon="1.75464">
        <ele>162</ele>
        <time>2023-03-05T11:09:14Z</time>
      </trkpt>
      <trkpt lat="44.14916" lon="1.75469">
        <ele>162</ele>
        <time>2023-03-05T11:09:15Z</time>
      </trkpt>
      <trkpt lat="44.14914" lon="1.75475">
        <ele>161.8</ele>
        <time>2023-03-05T11:09:16Z</time>
      </trkpt>
      <trkpt lat="44.14913" lon="1.75481">
        <ele>161.6</ele>
        <time>2023-03-05T11:09:17Z</time>
      </trkpt>
      <trkpt lat="44.14912" lon="1.75487">
        <ele>161.6</ele>
        <time>2023-03-05T11:09:18Z</time>
      </trkpt>
      <trkpt lat="44.14913" lon="1.75493">
        <ele>161.4</ele>
        <time>2023-03-05T11:09:19Z</time>
      </trkpt>
      <trkpt lat="44.14916" lon="1.75499">
        <ele>161.4</ele>
        <time>2023-03-05T11:09:20Z</time>
      </trkpt>
      <trkpt lat="44.14919" lon="1.75505">
        <ele>161.2</ele>
        <time>2023-03-05T11:09:21Z</time>
      </trkpt>
      <trkpt lat="44.14922" lon="1.7551">
        <ele>161.2</ele>
        <time>2023-03-05T11:09:22Z</time>
      </trkpt>
      <trkpt lat="44.14925" lon="1.75516">
        <ele>161</ele>
        <time>2023-03-05T11:09:23Z</time>
      </trkpt>
      <trkpt lat="44.14926" lon="1.75523">
        <ele>160.8</ele>
        <time>2023-03-05T11:09:24Z</time>
      </trkpt>
      <trkpt lat="44.14927" lon="1.7553">
        <ele>160.8</ele>
        <time>2023-03-05T11:09:25Z</time>
      </trkpt>
      <trkpt lat="44.14927" lon="1.75538">
        <ele>160.4</ele>
        <time>2023-03-05T11:09:26Z</time>
      </trkpt>
      <trkpt lat="44.14926" lon="1.75545">
        <ele>160.2</ele>
        <time>2023-03-05T11:09:27Z</time>
      </trkpt>
      <trkpt lat="44.14927" lon="1.75551">
        <ele>159.8</ele>
        <time>2023-03-05T11:09:28Z</time>
      </trkpt>
      <trkpt lat="44.14928" lon="1.75555">
        <ele>159.6</ele>
        <time>2023-03-05T11:09:29Z</time>
      </trkpt>
      <trkpt lat="44.14929" lon="1.75558">
        <ele>158.8</ele>
        <time>2023-03-05T11:09:30Z</time>
      </trkpt>
      <trkpt lat="44.1493" lon="1.75559">
        <ele>158.2</ele>
        <time>2023-03-05T11:09:31Z</time>
      </trkpt>
      <trkpt lat="44.14932" lon="1.75558">
        <ele>157.6</ele>
        <time>2023-03-05T11:09:32Z</time>
      </trkpt>
      <trkpt lat="44.14933" lon="1.75556">
        <ele>157</ele>
        <time>2023-03-05T11:09:33Z</time>
      </trkpt>
      <trkpt lat="44.14933" lon="1.75552">
        <ele>156</ele>
        <time>2023-03-05T11:09:34Z</time>
      </trkpt>
      <trkpt lat="44.14934" lon="1.75548">
        <ele>155.6</ele>
        <time>2023-03-05T11:09:35Z</time>
      </trkpt>
      <trkpt lat="44.14934" lon="1.75543">
        <ele>155</ele>
        <time>2023-03-05T11:09:36Z</time>
      </trkpt>
      <trkpt lat="44.14934" lon="1.75538">
        <ele>154.4</ele>
        <time>2023-03-05T11:09:37Z</time>
      </trkpt>
      <trkpt lat="44.14935" lon="1.75534">
        <ele>154.2</ele>
        <time>2023-03-05T11:09:38Z</time>
      </trkpt>
      <trkpt lat="44.14936" lon="1.75528">
        <ele>153.8</ele>
        <time>2023-03-05T11:09:39Z</time>
      </trkpt>
      <trkpt lat="44.14937" lon="1.75522">
        <ele>153.6</ele>
        <time>2023-03-05T11:09:40Z</time>
      </trkpt>
      <trkpt lat="44.14938" lon="1.75517">
        <ele>153.4</ele>
        <time>2023-03-05T11:09:41Z</time>
      </trkpt>
      <trkpt lat="44.1494" lon="1.7551">
        <ele>153.2</ele>
        <time>2023-03-05T11:09:42Z</time>
      </trkpt>
      <trkpt lat="44.14941" lon="1.75504">
        <ele>153</ele>
        <time>2023-03-05T11:09:43Z</time>
      </trkpt>
      <trkpt lat="44.14942" lon="1.755">
        <ele>152.8</ele>
        <time>2023-03-05T11:09:44Z</time>
      </trkpt>
      <trkpt lat="44.14945" lon="1.75497">
        <ele>152.6</ele>
        <time>2023-03-05T11:09:45Z</time>
      </trkpt>
      <trkpt lat="44.14949" lon="1.75495">
        <ele>152.4</ele>
        <time>2023-03-05T11:09:46Z</time>
      </trkpt>
      <trkpt lat="44.14953" lon="1.75495">
        <ele>152.2</ele>
        <time>2023-03-05T11:09:47Z</time>
      </trkpt>
      <trkpt lat="44.14958" lon="1.75495">
        <ele>151.6</ele>
        <time>2023-03-05T11:09:48Z</time>
      </trkpt>
      <trkpt lat="44.14962" lon="1.75497">
        <ele>151.4</ele>
        <time>2023-03-05T11:09:49Z</time>
      </trkpt>
      <trkpt lat="44.14966" lon="1.75499">
        <ele>151.2</ele>
        <time>2023-03-05T11:09:50Z</time>
      </trkpt>
      <trkpt lat="44.14971" lon="1.75501">
        <ele>151</ele>
        <time>2023-03-05T11:09:51Z</time>
      </trkpt>
      <trkpt lat="44.14976" lon="1.75503">
        <ele>150.8</ele>
        <time>2023-03-05T11:09:52Z</time>
      </trkpt>
      <trkpt lat="44.14981" lon="1.75505">
        <ele>150.8</ele>
        <time>2023-03-05T11:09:53Z</time>
      </trkpt>
      <trkpt lat="44.14986" lon="1.75507">
        <ele>150.4</ele>
        <time>2023-03-05T11:09:54Z</time>
      </trkpt>
      <trkpt lat="44.14991" lon="1.75509">
        <ele>150.4</ele>
        <time>2023-03-05T11:09:55Z</time>
      </trkpt>
      <trkpt lat="44.14995" lon="1.75511">
        <ele>150.2</ele>
        <time>2023-03-05T11:09:56Z</time>
      </trkpt>
      <trkpt lat="44.15" lon="1.75514">
        <ele>150</ele>
        <time>2023-03-05T11:09:57Z</time>
      </trkpt>
      <trkpt lat="44.15006" lon="1.75516">
        <ele>150</ele>
        <time>2023-03-05T11:09:58Z</time>
      </trkpt>
      <trkpt lat="44.15011" lon="1.75519">
        <ele>150</ele>
        <time>2023-03-05T11:09:59Z</time>
      </trkpt>
      <trkpt lat="44.15016" lon="1.75521">
        <ele>149.8</ele>
        <time>2023-03-05T11:10:00Z</time>
      </trkpt>
      <trkpt lat="44.15022" lon="1.75523">
        <ele>149.6</ele>
        <time>2023-03-05T11:10:01Z</time>
      </trkpt>
      <trkpt lat="44.15027" lon="1.75525">
        <ele>149.6</ele>
        <time>2023-03-05T11:10:02Z</time>
      </trkpt>
      <trkpt lat="44.15032" lon="1.75527">
        <ele>149.4</ele>
        <time>2023-03-05T11:10:03Z</time>
      </trkpt>
      <trkpt lat="44.15037" lon="1.75527">
        <ele>149.4</ele>
        <time>2023-03-05T11:10:04Z</time>
      </trkpt>
      <trkpt lat="44.15041" lon="1.75526">
        <ele>149.2</ele>
        <time>2023-03-05T11:10:05Z</time>
      </trkpt>
      <trkpt lat="44.15045" lon="1.75524">
        <ele>149</ele>
        <time>2023-03-05T11:10:06Z</time>
      </trkpt>
      <trkpt lat="44.15049" lon="1.75521">
        <ele>149</ele>
        <time>2023-03-05T11:10:07Z</time>
      </trkpt>
      <trkpt lat="44.15052" lon="1.75518">
        <ele>149</ele>
        <time>2023-03-05T11:10:08Z</time>
      </trkpt>
      <trkpt lat="44.15055" lon="1.75513">
        <ele>148.8</ele>
        <time>2023-03-05T11:10:09Z</time>
      </trkpt>
      <trkpt lat="44.15056" lon="1.7551">
        <ele>148.6</ele>
        <time>2023-03-05T11:10:10Z</time>
      </trkpt>
      <trkpt lat="44.15058" lon="1.75506">
        <ele>148.4</ele>
        <time>2023-03-05T11:10:11Z</time>
      </trkpt>
      <trkpt lat="44.15059" lon="1.75502">
        <ele>148.4</ele>
        <time>2023-03-05T11:10:12Z</time>
      </trkpt>
      <trkpt lat="44.1506" lon="1.75498">
        <ele>148.2</ele>
        <time>2023-03-05T11:10:13Z</time>
      </trkpt>
      <trkpt lat="44.15062" lon="1.75494">
        <ele>147.6</ele>
        <time>2023-03-05T11:10:14Z</time>
      </trkpt>
      <trkpt lat="44.15063" lon="1.7549">
        <ele>147.4</ele>
        <time>2023-03-05T11:10:15Z</time>
      </trkpt>
      <trkpt lat="44.15064" lon="1.75485">
        <ele>147.2</ele>
        <time>2023-03-05T11:10:16Z</time>
      </trkpt>
      <trkpt lat="44.15065" lon="1.7548">
        <ele>147.2</ele>
        <time>2023-03-05T11:10:17Z</time>
      </trkpt>
      <trkpt lat="44.15066" lon="1.75474">
        <ele>147</ele>
        <time>2023-03-05T11:10:18Z</time>
      </trkpt>
      <trkpt lat="44.15068" lon="1.75469">
        <ele>147</ele>
        <time>2023-03-05T11:10:19Z</time>
      </trkpt>
      <trkpt lat="44.1507" lon="1.75463">
        <ele>147</ele>
        <time>2023-03-05T11:10:20Z</time>
      </trkpt>
      <trkpt lat="44.15072" lon="1.75458">
        <ele>147</ele>
        <time>2023-03-05T11:10:21Z</time>
      </trkpt>
      <trkpt lat="44.15073" lon="1.75452">
        <ele>147</ele>
        <time>2023-03-05T11:10:22Z</time>
      </trkpt>
      <trkpt lat="44.15075" lon="1.75447">
        <ele>147</ele>
        <time>2023-03-05T11:10:23Z</time>
      </trkpt>
      <trkpt lat="44.15077" lon="1.75441">
        <ele>147</ele>
        <time>2023-03-05T11:10:24Z</time>
      </trkpt>
      <trkpt lat="44.15079" lon="1.75435">
        <ele>146.8</ele>
        <time>2023-03-05T11:10:25Z</time>
      </trkpt>
      <trkpt lat="44.15081" lon="1.7543">
        <ele>146.8</ele>
        <time>2023-03-05T11:10:26Z</time>
      </trkpt>
      <trkpt lat="44.15083" lon="1.75424">
        <ele>146.8</ele>
        <time>2023-03-05T11:10:27Z</time>
      </trkpt>
      <trkpt lat="44.15085" lon="1.75418">
        <ele>146.6</ele>
        <time>2023-03-05T11:10:28Z</time>
      </trkpt>
      <trkpt lat="44.15088" lon="1.75412">
        <ele>146.4</ele>
        <time>2023-03-05T11:10:29Z</time>
      </trkpt>
      <trkpt lat="44.1509" lon="1.75407">
        <ele>146.2</ele>
        <time>2023-03-05T11:10:30Z</time>
      </trkpt>
      <trkpt lat="44.15093" lon="1.75402">
        <ele>146</ele>
        <time>2023-03-05T11:10:31Z</time>
      </trkpt>
      <trkpt lat="44.15095" lon="1.75397">
        <ele>146</ele>
        <time>2023-03-05T11:10:32Z</time>
      </trkpt>
      <trkpt lat="44.15098" lon="1.75393">
        <ele>146</ele>
        <time>2023-03-05T11:10:33Z</time>
      </trkpt>
      <trkpt lat="44.151" lon="1.75388">
        <ele>145.8</ele>
        <time>2023-03-05T11:10:34Z</time>
      </trkpt>
      <trkpt lat="44.15103" lon="1.75384">
        <ele>145.8</ele>
        <time>2023-03-05T11:10:35Z</time>
      </trkpt>
      <trkpt lat="44.15105" lon="1.75381">
        <ele>145.6</ele>
        <time>2023-03-05T11:10:36Z</time>
      </trkpt>
      <trkpt lat="44.15107" lon="1.75378">
        <ele>145.6</ele>
        <time>2023-03-05T11:10:37Z</time>
      </trkpt>
      <trkpt lat="44.1511" lon="1.75375">
        <ele>145.6</ele>
        <time>2023-03-05T11:10:38Z</time>
      </trkpt>
      <trkpt lat="44.15112" lon="1.75373">
        <ele>145.6</ele>
        <time>2023-03-05T11:10:39Z</time>
      </trkpt>
      <trkpt lat="44.15113" lon="1.7537">
        <ele>145.6</ele>
        <time>2023-03-05T11:10:40Z</time>
      </trkpt>
      <trkpt lat="44.15115" lon="1.75368">
        <ele>145.4</ele>
        <time>2023-03-05T11:10:41Z</time>
      </trkpt>
      <trkpt lat="44.15116" lon="1.75365">
        <ele>145.4</ele>
        <time>2023-03-05T11:10:42Z</time>
      </trkpt>
      <trkpt lat="44.15116" lon="1.75362">
        <ele>145.4</ele>
        <time>2023-03-05T11:10:43Z</time>
      </trkpt>
      <trkpt lat="44.15116" lon="1.75359">
        <ele>145.4</ele>
        <time>2023-03-05T11:10:44Z</time>
      </trkpt>
      <trkpt lat="44.15114" lon="1.75357">
        <ele>145.4</ele>
        <time>2023-03-05T11:10:45Z</time>
      </trkpt>
      <trkpt lat="44.15112" lon="1.75356">
        <ele>145.4</ele>
        <time>2023-03-05T11:10:46Z</time>
      </trkpt>
      <trkpt lat="44.15111" lon="1.75355">
        <ele>145.2</ele>
        <time>2023-03-05T11:10:47Z</time>
      </trkpt>
      <trkpt lat="44.1511" lon="1.75355">
        <ele>145.2</ele>
        <time>2023-03-05T11:10:48Z</time>
      </trkpt>
      <trkpt lat="44.1511" lon="1.75355">
        <ele>145.2</ele>
        <time>2023-03-05T11:10:49Z</time>
      </trkpt>
      <trkpt lat="44.1511" lon="1.75355">
        <ele>145.2</ele>
        <time>2023-03-05T11:10:50Z</time>
      </trkpt>
    </trkseg>
  </trk>
</gpx>